<?xml version='1.0' encoding='UTF-8'?><gpx version="1.1" creator="JPX - https://github.com/jenetics/jpx" xmlns="http://www.topografix.com/GPX/1/1"><trk><trkseg><trkpt lat="44.5425272" lon="15.3775398"><ele>562.0</ele><time>2026-04-27T07:00:14.391Z</time></trkpt><trkpt lat="44.5427069" lon="15.3775763"><ele>562.0</ele><time>2026-04-27T07:00:16.391Z</time></trkpt><trkpt lat="44.542779" lon="15.3775936"><ele>562.0</ele><time>2026-04-27T07:00:17.391Z</time></trkpt><trkpt lat="44.5428489" lon="15.3776145"><ele>562.0</ele><time>2026-04-27T07:00:18.39Z</time></trkpt><trkpt lat="44.5429154" lon="15.3776314"><ele>562.0</ele><time>2026-04-27T07:00:19.391Z</time></trkpt><trkpt lat="44.5429832" lon="15.3776553"><ele>562.0</ele><time>2026-04-27T07:00:20.39Z</time></trkpt><trkpt lat="44.5430456" lon="15.3776814"><ele>562.0</ele><time>2026-04-27T07:00:21.391Z</time></trkpt><trkpt lat="44.5431061" lon="15.377706"><ele>562.0</ele><time>2026-04-27T07:00:22.391Z</time></trkpt><trkpt lat="44.5432309" lon="15.3777421"><ele>562.0</ele><time>2026-04-27T07:00:24.391Z</time></trkpt><trkpt lat="44.5433342" lon="15.3777751"><ele>562.0</ele><time>2026-04-27T07:00:26.39Z</time></trkpt><trkpt lat="44.5434251" lon="15.3778134"><ele>562.0</ele><time>2026-04-27T07:00:28.39Z</time></trkpt><trkpt lat="44.5435029" lon="15.3778751"><ele>562.0</ele><time>2026-04-27T07:00:31.345Z</time></trkpt><trkpt lat="44.5436602" lon="15.3778323"><ele>562.0</ele><time>2026-04-27T07:00:35.391Z</time></trkpt><trkpt lat="44.5437618" lon="15.3777286"><ele>562.0</ele><time>2026-04-27T07:00:37.39Z</time></trkpt><trkpt lat="44.5438175" lon="15.3776839"><ele>562.0</ele><time>2026-04-27T07:00:38.39Z</time></trkpt><trkpt lat="44.5438763" lon="15.3776475"><ele>561.8333333333334</ele><time>2026-04-27T07:00:39.391Z</time></trkpt><trkpt lat="44.5439381" lon="15.3776204"><ele>561.6666666666667</ele><time>2026-04-27T07:00:40.39Z</time></trkpt><trkpt lat="44.5440114" lon="15.3776225"><ele>561.5</ele><time>2026-04-27T07:00:41.39Z</time></trkpt><trkpt lat="44.5440884" lon="15.377639"><ele>561.3333333333334</ele><time>2026-04-27T07:00:42.39Z</time></trkpt><trkpt lat="44.5441724" lon="15.377657"><ele>561.1666666666666</ele><time>2026-04-27T07:00:43.39Z</time></trkpt><trkpt lat="44.5442609" lon="15.377679"><ele>561.0</ele><time>2026-04-27T07:00:44.39Z</time></trkpt><trkpt lat="44.5445229" lon="15.3777504"><ele>561.3333333333334</ele><time>2026-04-27T07:00:47.39Z</time></trkpt><trkpt lat="44.5446068" lon="15.3777747"><ele>561.6666666666666</ele><time>2026-04-27T07:00:48.391Z</time></trkpt><trkpt lat="44.5446893" lon="15.3777924"><ele>562.0</ele><time>2026-04-27T07:00:49.391Z</time></trkpt><trkpt lat="44.5447705" lon="15.3777934"><ele>562.3333333333333</ele><time>2026-04-27T07:00:50.39Z</time></trkpt><trkpt lat="44.5448416" lon="15.3777643"><ele>562.6666666666666</ele><time>2026-04-27T07:00:51.39Z</time></trkpt><trkpt lat="44.5449004" lon="15.377717"><ele>563.0</ele><time>2026-04-27T07:00:52.39Z</time></trkpt><trkpt lat="44.5449505" lon="15.3776244"><ele>563.0</ele><time>2026-04-27T07:00:53.39Z</time></trkpt><trkpt lat="44.5450017" lon="15.3775192"><ele>563.0</ele><time>2026-04-27T07:00:54.391Z</time></trkpt><trkpt lat="44.5450486" lon="15.3774196"><ele>563.0</ele><time>2026-04-27T07:00:55.39Z</time></trkpt><trkpt lat="44.5450896" lon="15.3773323"><ele>563.0</ele><time>2026-04-27T07:00:56.39Z</time></trkpt><trkpt lat="44.5451337" lon="15.377244"><ele>563.0</ele><time>2026-04-27T07:00:57.391Z</time></trkpt><trkpt lat="44.5451819" lon="15.3771577"><ele>563.0</ele><time>2026-04-27T07:00:58.39Z</time></trkpt><trkpt lat="44.5452318" lon="15.3770633"><ele>563.0</ele><time>2026-04-27T07:00:59.39Z</time></trkpt><trkpt lat="44.5452825" lon="15.376971"><ele>563.0</ele><time>2026-04-27T07:01:00.39Z</time></trkpt><trkpt lat="44.5453364" lon="15.3768731"><ele>563.0</ele><time>2026-04-27T07:01:01.39Z</time></trkpt><trkpt lat="44.5453829" lon="15.3767904"><ele>563.0</ele><time>2026-04-27T07:01:02.39Z</time></trkpt><trkpt lat="44.5454302" lon="15.3767053"><ele>563.0</ele><time>2026-04-27T07:01:03.391Z</time></trkpt><trkpt lat="44.5454789" lon="15.3766166"><ele>563.0</ele><time>2026-04-27T07:01:04.39Z</time></trkpt><trkpt lat="44.5455338" lon="15.3765306"><ele>563.0</ele><time>2026-04-27T07:01:05.39Z</time></trkpt><trkpt lat="44.5455864" lon="15.3764405"><ele>563.0</ele><time>2026-04-27T07:01:06.39Z</time></trkpt><trkpt lat="44.5456396" lon="15.376345"><ele>563.0</ele><time>2026-04-27T07:01:07.39Z</time></trkpt><trkpt lat="44.545699" lon="15.3762493"><ele>563.0</ele><time>2026-04-27T07:01:08.391Z</time></trkpt><trkpt lat="44.5457544" lon="15.3761429"><ele>563.0</ele><time>2026-04-27T07:01:09.39Z</time></trkpt><trkpt lat="44.5458046" lon="15.3760464"><ele>563.0</ele><time>2026-04-27T07:01:10.39Z</time></trkpt><trkpt lat="44.5458516" lon="15.3759544"><ele>563.0</ele><time>2026-04-27T07:01:11.39Z</time></trkpt><trkpt lat="44.5459004" lon="15.3758623"><ele>563.0</ele><time>2026-04-27T07:01:12.391Z</time></trkpt><trkpt lat="44.5459562" lon="15.3757815"><ele>563.0</ele><time>2026-04-27T07:01:13.391Z</time></trkpt><trkpt lat="44.5460176" lon="15.3756971"><ele>563.0</ele><time>2026-04-27T07:01:14.391Z</time></trkpt><trkpt lat="44.54608" lon="15.375607"><ele>563.0</ele><time>2026-04-27T07:01:15.39Z</time></trkpt><trkpt lat="44.5461453" lon="15.375521"><ele>563.0</ele><time>2026-04-27T07:01:16.39Z</time></trkpt><trkpt lat="44.5462159" lon="15.3754425"><ele>563.0</ele><time>2026-04-27T07:01:17.39Z</time></trkpt><trkpt lat="44.5462802" lon="15.3753669"><ele>563.0</ele><time>2026-04-27T07:01:18.39Z</time></trkpt><trkpt lat="44.5463445" lon="15.3752901"><ele>563.0</ele><time>2026-04-27T07:01:19.39Z</time></trkpt><trkpt lat="44.5464072" lon="15.3752128"><ele>563.0</ele><time>2026-04-27T07:01:20.39Z</time></trkpt><trkpt lat="44.5464632" lon="15.375141"><ele>563.0</ele><time>2026-04-27T07:01:21.39Z</time></trkpt><trkpt lat="44.5465207" lon="15.3750632"><ele>563.0</ele><time>2026-04-27T07:01:22.39Z</time></trkpt><trkpt lat="44.5465709" lon="15.3749974"><ele>563.0</ele><time>2026-04-27T07:01:23.39Z</time></trkpt><trkpt lat="44.5466275" lon="15.3749266"><ele>563.0</ele><time>2026-04-27T07:01:25.39Z</time></trkpt><trkpt lat="44.5467026" lon="15.3748446"><ele>563.0</ele><time>2026-04-27T07:01:29.39Z</time></trkpt><trkpt lat="44.5467872" lon="15.3747446"><ele>563.0</ele><time>2026-04-27T07:01:31.391Z</time></trkpt><trkpt lat="44.546836" lon="15.3746879"><ele>563.0</ele><time>2026-04-27T07:01:32.391Z</time></trkpt><trkpt lat="44.5468929" lon="15.3746286"><ele>563.0</ele><time>2026-04-27T07:01:33.39Z</time></trkpt><trkpt lat="44.5469524" lon="15.3745637"><ele>563.0</ele><time>2026-04-27T07:01:34.39Z</time></trkpt><trkpt lat="44.5470131" lon="15.3744971"><ele>563.0</ele><time>2026-04-27T07:01:35.391Z</time></trkpt><trkpt lat="44.5472386" lon="15.3742556"><ele>563.0</ele><time>2026-04-27T07:01:39.39Z</time></trkpt><trkpt lat="44.5473361" lon="15.374156"><ele>562.75</ele><time>2026-04-27T07:01:41.39Z</time></trkpt><trkpt lat="44.5474295" lon="15.3740835"><ele>562.5</ele><time>2026-04-27T07:01:43.39Z</time></trkpt><trkpt lat="44.5475268" lon="15.3740914"><ele>562.25</ele><time>2026-04-27T07:01:45.39Z</time></trkpt><trkpt lat="44.5476343" lon="15.3741737"><ele>562.0</ele><time>2026-04-27T07:01:47.391Z</time></trkpt><trkpt lat="44.5477616" lon="15.3742663"><ele>562.0</ele><time>2026-04-27T07:01:49.39Z</time></trkpt><trkpt lat="44.5478263" lon="15.3743155"><ele>562.0</ele><time>2026-04-27T07:01:50.39Z</time></trkpt><trkpt lat="44.5478964" lon="15.3743713"><ele>562.0</ele><time>2026-04-27T07:01:51.39Z</time></trkpt><trkpt lat="44.5479685" lon="15.3744301"><ele>562.0</ele><time>2026-04-27T07:01:52.39Z</time></trkpt><trkpt lat="44.5481198" lon="15.3745553"><ele>562.0</ele><time>2026-04-27T07:01:54.39Z</time></trkpt><trkpt lat="44.548198" lon="15.3746194"><ele>561.2</ele><time>2026-04-27T07:01:55.39Z</time></trkpt><trkpt lat="44.5482818" lon="15.3746878"><ele>560.4000000000001</ele><time>2026-04-27T07:01:56.391Z</time></trkpt><trkpt lat="44.5483731" lon="15.3747581"><ele>559.5999999999999</ele><time>2026-04-27T07:01:57.39Z</time></trkpt><trkpt lat="44.5484636" lon="15.374831"><ele>558.8</ele><time>2026-04-27T07:01:58.39Z</time></trkpt><trkpt lat="44.5485514" lon="15.3749113"><ele>558.0</ele><time>2026-04-27T07:01:59.39Z</time></trkpt><trkpt lat="44.5486438" lon="15.37499"><ele>558.25</ele><time>2026-04-27T07:02:00.39Z</time></trkpt><trkpt lat="44.5487378" lon="15.37507"><ele>558.5</ele><time>2026-04-27T07:02:01.39Z</time></trkpt><trkpt lat="44.548834" lon="15.3751537"><ele>558.75</ele><time>2026-04-27T07:02:02.39Z</time></trkpt><trkpt lat="44.5490239" lon="15.3753241"><ele>559.0</ele><time>2026-04-27T07:02:04.391Z</time></trkpt><trkpt lat="44.5491198" lon="15.3754089"><ele>559.0</ele><time>2026-04-27T07:02:05.39Z</time></trkpt><trkpt lat="44.549207" lon="15.3754865"><ele>559.0</ele><time>2026-04-27T07:02:06.39Z</time></trkpt><trkpt lat="44.5492852" lon="15.3755528"><ele>559.0</ele><time>2026-04-27T07:02:07.391Z</time></trkpt><trkpt lat="44.5493638" lon="15.3756214"><ele>559.0</ele><time>2026-04-27T07:02:08.391Z</time></trkpt><trkpt lat="44.5494474" lon="15.3756895"><ele>559.0</ele><time>2026-04-27T07:02:09.39Z</time></trkpt><trkpt lat="44.549529" lon="15.3757571"><ele>559.4</ele><time>2026-04-27T07:02:10.391Z</time></trkpt><trkpt lat="44.5496048" lon="15.3758167"><ele>559.8</ele><time>2026-04-27T07:02:11.39Z</time></trkpt><trkpt lat="44.5496669" lon="15.3758752"><ele>560.2</ele><time>2026-04-27T07:02:12.39Z</time></trkpt><trkpt lat="44.5497727" lon="15.3760161"><ele>560.6</ele><time>2026-04-27T07:02:15.39Z</time></trkpt><trkpt lat="44.5497508" lon="15.3761345"><ele>561.0</ele><time>2026-04-27T07:02:17.39Z</time></trkpt><trkpt lat="44.5496587" lon="15.3762502"><ele>561.0</ele><time>2026-04-27T07:02:19.39Z</time></trkpt><trkpt lat="44.5496124" lon="15.376315"><ele>561.0</ele><time>2026-04-27T07:02:20.391Z</time></trkpt><trkpt lat="44.5495443" lon="15.3764155"><ele>561.0</ele><time>2026-04-27T07:02:22.39Z</time></trkpt><trkpt lat="44.5495018" lon="15.3764887"><ele>561.0</ele><time>2026-04-27T07:02:26.418Z</time></trkpt><trkpt lat="44.5495092" lon="15.3765913"><ele>561.0</ele><time>2026-04-27T07:02:34.39Z</time></trkpt><trkpt lat="44.5495677" lon="15.3766421"><ele>561.0</ele><time>2026-04-27T07:02:37.39Z</time></trkpt><trkpt lat="44.5496516" lon="15.3766984"><ele>561.3333333333334</ele><time>2026-04-27T07:02:40.337Z</time></trkpt><trkpt lat="44.5496612" lon="15.3766108"><ele>561.6666666666666</ele><time>2026-04-27T07:07:36.39Z</time></trkpt><trkpt lat="44.5496327" lon="15.3767034"><ele>562.0</ele><time>2026-04-27T07:11:48.404Z</time></trkpt><trkpt lat="44.5497395" lon="15.3767051"><ele>562.3333333333333</ele><time>2026-04-27T07:17:56.377Z</time></trkpt><trkpt lat="44.5498068" lon="15.3766533"><ele>562.6666666666666</ele><time>2026-04-27T07:17:58.425Z</time></trkpt><trkpt lat="44.5498656" lon="15.376607"><ele>563.0</ele><time>2026-04-27T07:18:00.392Z</time></trkpt><trkpt lat="44.5499224" lon="15.3765573"><ele>563.0</ele><time>2026-04-27T07:18:05.418Z</time></trkpt><trkpt lat="44.549957" lon="15.3764383"><ele>563.0</ele><time>2026-04-27T07:18:09.447Z</time></trkpt><trkpt lat="44.5499096" lon="15.3763428"><ele>563.0</ele><time>2026-04-27T07:18:11.407Z</time></trkpt><trkpt lat="44.5498546" lon="15.3762761"><ele>563.0</ele><time>2026-04-27T07:18:13.413Z</time></trkpt><trkpt lat="44.5497972" lon="15.376221"><ele>563.0</ele><time>2026-04-27T07:18:15.417Z</time></trkpt><trkpt lat="44.5497944" lon="15.3761033"><ele>563.0</ele><time>2026-04-27T07:18:18.392Z</time></trkpt><trkpt lat="44.5498553" lon="15.3760707"><ele>563.0</ele><time>2026-04-27T07:18:20.429Z</time></trkpt><trkpt lat="44.549937" lon="15.3761045"><ele>563.0</ele><time>2026-04-27T07:18:25.439Z</time></trkpt><trkpt lat="44.5499901" lon="15.3761636"><ele>563.0</ele><time>2026-04-27T07:18:26.392Z</time></trkpt><trkpt lat="44.5500492" lon="15.3762207"><ele>563.0</ele><time>2026-04-27T07:18:27.392Z</time></trkpt><trkpt lat="44.5501048" lon="15.3762757"><ele>563.0</ele><time>2026-04-27T07:18:28.392Z</time></trkpt><trkpt lat="44.5501647" lon="15.3763328"><ele>563.0</ele><time>2026-04-27T07:18:29.393Z</time></trkpt><trkpt lat="44.5502269" lon="15.3763904"><ele>563.0</ele><time>2026-04-27T07:18:30.392Z</time></trkpt><trkpt lat="44.5502858" lon="15.3764434"><ele>563.0</ele><time>2026-04-27T07:18:31.392Z</time></trkpt><trkpt lat="44.5503395" lon="15.3764896"><ele>563.0</ele><time>2026-04-27T07:18:32.393Z</time></trkpt><trkpt lat="44.5504154" lon="15.376573"><ele>563.0</ele><time>2026-04-27T07:18:34.393Z</time></trkpt><trkpt lat="44.55047" lon="15.3766389"><ele>563.0</ele><time>2026-04-27T07:18:37.392Z</time></trkpt><trkpt lat="44.5505324" lon="15.3767129"><ele>563.0</ele><time>2026-04-27T07:18:49.392Z</time></trkpt><trkpt lat="44.5505979" lon="15.3767731"><ele>563.0</ele><time>2026-04-27T07:18:50.393Z</time></trkpt><trkpt lat="44.5506612" lon="15.376828"><ele>563.1999999999999</ele><time>2026-04-27T07:18:51.393Z</time></trkpt><trkpt lat="44.5507298" lon="15.3768925"><ele>563.4</ele><time>2026-04-27T07:18:52.392Z</time></trkpt><trkpt lat="44.5508077" lon="15.376963"><ele>563.5999999999999</ele><time>2026-04-27T07:18:53.392Z</time></trkpt><trkpt lat="44.5508945" lon="15.3770412"><ele>563.8</ele><time>2026-04-27T07:18:54.392Z</time></trkpt><trkpt lat="44.550985" lon="15.3771213"><ele>564.0</ele><time>2026-04-27T07:18:55.392Z</time></trkpt><trkpt lat="44.5510754" lon="15.3772014"><ele>564.0</ele><time>2026-04-27T07:18:56.392Z</time></trkpt><trkpt lat="44.5511747" lon="15.3772826"><ele>564.0</ele><time>2026-04-27T07:18:57.392Z</time></trkpt><trkpt lat="44.5512728" lon="15.3773636"><ele>564.0</ele><time>2026-04-27T07:18:58.392Z</time></trkpt><trkpt lat="44.5513664" lon="15.3774415"><ele>564.0</ele><time>2026-04-27T07:18:59.392Z</time></trkpt><trkpt lat="44.551458" lon="15.3775188"><ele>564.0</ele><time>2026-04-27T07:19:00.392Z</time></trkpt><trkpt lat="44.551543" lon="15.3776021"><ele>564.25</ele><time>2026-04-27T07:19:01.393Z</time></trkpt><trkpt lat="44.551621" lon="15.3776786"><ele>564.5</ele><time>2026-04-27T07:19:02.393Z</time></trkpt><trkpt lat="44.5516989" lon="15.3777563"><ele>564.75</ele><time>2026-04-27T07:19:03.393Z</time></trkpt><trkpt lat="44.5517778" lon="15.3778371"><ele>565.0</ele><time>2026-04-27T07:19:04.392Z</time></trkpt><trkpt lat="44.5519469" lon="15.3780023"><ele>565.0</ele><time>2026-04-27T07:19:06.392Z</time></trkpt><trkpt lat="44.5520398" lon="15.3780838"><ele>565.0</ele><time>2026-04-27T07:19:07.392Z</time></trkpt><trkpt lat="44.5521264" lon="15.3781673"><ele>565.0</ele><time>2026-04-27T07:19:08.392Z</time></trkpt><trkpt lat="44.5522157" lon="15.3782474"><ele>565.0</ele><time>2026-04-27T07:19:09.392Z</time></trkpt><trkpt lat="44.5523073" lon="15.3783231"><ele>565.0</ele><time>2026-04-27T07:19:10.392Z</time></trkpt><trkpt lat="44.5524022" lon="15.3783949"><ele>564.75</ele><time>2026-04-27T07:19:11.392Z</time></trkpt><trkpt lat="44.552504" lon="15.3784654"><ele>564.5</ele><time>2026-04-27T07:19:12.392Z</time></trkpt><trkpt lat="44.5526068" lon="15.3785326"><ele>564.25</ele><time>2026-04-27T07:19:13.392Z</time></trkpt><trkpt lat="44.5527118" lon="15.3785971"><ele>564.0</ele><time>2026-04-27T07:19:14.392Z</time></trkpt><trkpt lat="44.5529285" lon="15.3787326"><ele>564.0</ele><time>2026-04-27T07:19:16.393Z</time></trkpt><trkpt lat="44.5530437" lon="15.3788012"><ele>564.0</ele><time>2026-04-27T07:19:17.392Z</time></trkpt><trkpt lat="44.5531571" lon="15.3788707"><ele>564.0</ele><time>2026-04-27T07:19:18.393Z</time></trkpt><trkpt lat="44.5532749" lon="15.3789471"><ele>564.0</ele><time>2026-04-27T07:19:19.393Z</time></trkpt><trkpt lat="44.5533951" lon="15.3790233"><ele>564.0</ele><time>2026-04-27T07:19:20.393Z</time></trkpt><trkpt lat="44.5535132" lon="15.3790981"><ele>564.0</ele><time>2026-04-27T07:19:21.392Z</time></trkpt><trkpt lat="44.5536359" lon="15.3791732"><ele>564.0</ele><time>2026-04-27T07:19:22.392Z</time></trkpt><trkpt lat="44.5537561" lon="15.3792435"><ele>564.0</ele><time>2026-04-27T07:19:23.393Z</time></trkpt><trkpt lat="44.5538683" lon="15.3793127"><ele>563.8</ele><time>2026-04-27T07:19:24.393Z</time></trkpt><trkpt lat="44.5539737" lon="15.37938"><ele>563.5999999999999</ele><time>2026-04-27T07:19:25.392Z</time></trkpt><trkpt lat="44.5540749" lon="15.3794422"><ele>563.4</ele><time>2026-04-27T07:19:26.392Z</time></trkpt><trkpt lat="44.5541643" lon="15.3795041"><ele>563.1999999999999</ele><time>2026-04-27T07:19:27.392Z</time></trkpt><trkpt lat="44.5542478" lon="15.3795542"><ele>563.0</ele><time>2026-04-27T07:19:28.392Z</time></trkpt><trkpt lat="44.5543213" lon="15.3796037"><ele>563.0</ele><time>2026-04-27T07:19:29.393Z</time></trkpt><trkpt lat="44.5543757" lon="15.3796584"><ele>563.0</ele><time>2026-04-27T07:19:30.393Z</time></trkpt><trkpt lat="44.554439" lon="15.3797746"><ele>563.0</ele><time>2026-04-27T07:19:32.393Z</time></trkpt><trkpt lat="44.5544852" lon="15.3798991"><ele>563.0</ele><time>2026-04-27T07:19:34.392Z</time></trkpt><trkpt lat="44.5545277" lon="15.3799933"><ele>563.0</ele><time>2026-04-27T07:19:36.392Z</time></trkpt><trkpt lat="44.5545896" lon="15.3800499"><ele>563.0</ele><time>2026-04-27T07:19:40.392Z</time></trkpt><trkpt lat="44.5545523" lon="15.3801225"><ele>563.3333333333333</ele><time>2026-04-27T07:22:14.393Z</time></trkpt><trkpt lat="44.5545768" lon="15.3802149"><ele>563.6666666666666</ele><time>2026-04-27T07:25:42.392Z</time></trkpt><trkpt lat="44.5546472" lon="15.3802594"><ele>564.0</ele><time>2026-04-27T07:25:44.392Z</time></trkpt><trkpt lat="44.5547173" lon="15.3802274"><ele>564.3333333333334</ele><time>2026-04-27T07:25:46.392Z</time></trkpt><trkpt lat="44.5547737" lon="15.3801264"><ele>564.6666666666667</ele><time>2026-04-27T07:25:48.392Z</time></trkpt><trkpt lat="44.5548077" lon="15.3800091"><ele>565.0</ele><time>2026-04-27T07:25:51.392Z</time></trkpt><trkpt lat="44.5547995" lon="15.3799043"><ele>565.0</ele><time>2026-04-27T07:25:52.392Z</time></trkpt><trkpt lat="44.5546931" lon="15.3798145"><ele>565.0</ele><time>2026-04-27T07:25:54.392Z</time></trkpt><trkpt lat="44.554625" lon="15.3797647"><ele>565.0</ele><time>2026-04-27T07:25:55.392Z</time></trkpt><trkpt lat="44.5545508" lon="15.3797082"><ele>565.0</ele><time>2026-04-27T07:25:56.392Z</time></trkpt><trkpt lat="44.5544643" lon="15.3796465"><ele>565.0</ele><time>2026-04-27T07:25:57.393Z</time></trkpt><trkpt lat="44.5543719" lon="15.3795816"><ele>564.6</ele><time>2026-04-27T07:25:58.393Z</time></trkpt><trkpt lat="44.5542698" lon="15.3795143"><ele>564.2</ele><time>2026-04-27T07:25:59.393Z</time></trkpt><trkpt lat="44.5541714" lon="15.3794556"><ele>563.8</ele><time>2026-04-27T07:26:00.392Z</time></trkpt><trkpt lat="44.5540809" lon="15.3794015"><ele>563.4</ele><time>2026-04-27T07:26:01.393Z</time></trkpt><trkpt lat="44.5539913" lon="15.3793379"><ele>563.0</ele><time>2026-04-27T07:26:02.392Z</time></trkpt><trkpt lat="44.5538935" lon="15.3792747"><ele>563.0</ele><time>2026-04-27T07:26:03.393Z</time></trkpt><trkpt lat="44.553791" lon="15.3792144"><ele>563.0</ele><time>2026-04-27T07:26:04.393Z</time></trkpt><trkpt lat="44.5536892" lon="15.3791459"><ele>563.0</ele><time>2026-04-27T07:26:05.392Z</time></trkpt><trkpt lat="44.5535902" lon="15.3790838"><ele>563.0</ele><time>2026-04-27T07:26:06.392Z</time></trkpt><trkpt lat="44.553474" lon="15.3790127"><ele>563.0</ele><time>2026-04-27T07:26:07.392Z</time></trkpt><trkpt lat="44.5533586" lon="15.3789424"><ele>563.0</ele><time>2026-04-27T07:26:08.392Z</time></trkpt><trkpt lat="44.5532395" lon="15.3788649"><ele>563.0</ele><time>2026-04-27T07:26:09.392Z</time></trkpt><trkpt lat="44.5531212" lon="15.3787884"><ele>563.0</ele><time>2026-04-27T07:26:10.392Z</time></trkpt><trkpt lat="44.5530009" lon="15.3787154"><ele>563.0</ele><time>2026-04-27T07:26:11.392Z</time></trkpt><trkpt lat="44.5528797" lon="15.3786428"><ele>563.0</ele><time>2026-04-27T07:26:12.392Z</time></trkpt><trkpt lat="44.5527591" lon="15.3785671"><ele>563.0</ele><time>2026-04-27T07:26:13.392Z</time></trkpt><trkpt lat="44.5526401" lon="15.3784933"><ele>563.0</ele><time>2026-04-27T07:26:14.392Z</time></trkpt><trkpt lat="44.5525264" lon="15.3784127"><ele>563.25</ele><time>2026-04-27T07:26:15.393Z</time></trkpt><trkpt lat="44.5524185" lon="15.3783335"><ele>563.5</ele><time>2026-04-27T07:26:16.392Z</time></trkpt><trkpt lat="44.5523108" lon="15.378258"><ele>563.75</ele><time>2026-04-27T07:26:17.392Z</time></trkpt><trkpt lat="44.5522113" lon="15.3781764"><ele>564.0</ele><time>2026-04-27T07:26:18.393Z</time></trkpt><trkpt lat="44.552115" lon="15.3780888"><ele>564.2</ele><time>2026-04-27T07:26:19.392Z</time></trkpt><trkpt lat="44.5520215" lon="15.3780057"><ele>564.4</ele><time>2026-04-27T07:26:20.392Z</time></trkpt><trkpt lat="44.5519301" lon="15.3779192"><ele>564.6</ele><time>2026-04-27T07:26:21.392Z</time></trkpt><trkpt lat="44.5518479" lon="15.3778386"><ele>564.8</ele><time>2026-04-27T07:26:22.392Z</time></trkpt><trkpt lat="44.5517652" lon="15.3777629"><ele>565.0</ele><time>2026-04-27T07:26:23.393Z</time></trkpt><trkpt lat="44.5516877" lon="15.3776835"><ele>565.0</ele><time>2026-04-27T07:26:24.393Z</time></trkpt><trkpt lat="44.5516035" lon="15.377602"><ele>565.0</ele><time>2026-04-27T07:26:25.393Z</time></trkpt><trkpt lat="44.5515223" lon="15.3775237"><ele>565.0</ele><time>2026-04-27T07:26:26.392Z</time></trkpt><trkpt lat="44.551447" lon="15.377449"><ele>565.0</ele><time>2026-04-27T07:26:27.392Z</time></trkpt><trkpt lat="44.5513737" lon="15.3773822"><ele>565.0</ele><time>2026-04-27T07:26:28.393Z</time></trkpt><trkpt lat="44.5513082" lon="15.3773249"><ele>565.0</ele><time>2026-04-27T07:26:29.393Z</time></trkpt><trkpt lat="44.5512509" lon="15.3772778"><ele>565.0</ele><time>2026-04-27T07:26:30.392Z</time></trkpt><trkpt lat="44.5511532" lon="15.3771951"><ele>565.0</ele><time>2026-04-27T07:26:32.392Z</time></trkpt><trkpt lat="44.5510852" lon="15.3771385"><ele>565.0</ele><time>2026-04-27T07:26:34.393Z</time></trkpt><trkpt lat="44.5510156" lon="15.3770719"><ele>565.0</ele><time>2026-04-27T07:26:37.392Z</time></trkpt><trkpt lat="44.5509407" lon="15.3770039"><ele>565.0</ele><time>2026-04-27T07:26:48.392Z</time></trkpt><trkpt lat="44.5508485" lon="15.376916"><ele>564.3333333333334</ele><time>2026-04-27T07:26:50.392Z</time></trkpt><trkpt lat="44.5507893" lon="15.3768571"><ele>563.6666666666667</ele><time>2026-04-27T07:26:51.392Z</time></trkpt><trkpt lat="44.5507329" lon="15.3767978"><ele>563.0</ele><time>2026-04-27T07:26:52.392Z</time></trkpt><trkpt lat="44.5506653" lon="15.3767309"><ele>562.3333333333334</ele><time>2026-04-27T07:26:53.392Z</time></trkpt><trkpt lat="44.550597" lon="15.3766623"><ele>561.6666666666666</ele><time>2026-04-27T07:26:54.393Z</time></trkpt><trkpt lat="44.5505236" lon="15.3765905"><ele>561.0</ele><time>2026-04-27T07:26:55.393Z</time></trkpt><trkpt lat="44.5504512" lon="15.3765158"><ele>561.0</ele><time>2026-04-27T07:26:56.393Z</time></trkpt><trkpt lat="44.5503817" lon="15.3764482"><ele>561.0</ele><time>2026-04-27T07:26:57.392Z</time></trkpt><trkpt lat="44.5503102" lon="15.3763826"><ele>561.0</ele><time>2026-04-27T07:26:58.393Z</time></trkpt><trkpt lat="44.5502452" lon="15.3763193"><ele>561.0</ele><time>2026-04-27T07:26:59.392Z</time></trkpt><trkpt lat="44.5501825" lon="15.3762591"><ele>561.0</ele><time>2026-04-27T07:27:00.392Z</time></trkpt><trkpt lat="44.5501178" lon="15.3761962"><ele>561.0</ele><time>2026-04-27T07:27:01.392Z</time></trkpt><trkpt lat="44.5500456" lon="15.3761313"><ele>561.0</ele><time>2026-04-27T07:27:02.392Z</time></trkpt><trkpt lat="44.5499726" lon="15.3760652"><ele>561.0</ele><time>2026-04-27T07:27:03.392Z</time></trkpt><trkpt lat="44.5498917" lon="15.3759981"><ele>561.0</ele><time>2026-04-27T07:27:04.392Z</time></trkpt><trkpt lat="44.549807" lon="15.3759222"><ele>561.0</ele><time>2026-04-27T07:27:05.392Z</time></trkpt><trkpt lat="44.5497208" lon="15.3758478"><ele>561.0</ele><time>2026-04-27T07:27:06.393Z</time></trkpt><trkpt lat="44.5496383" lon="15.375778"><ele>561.0</ele><time>2026-04-27T07:27:07.392Z</time></trkpt><trkpt lat="44.5495564" lon="15.3757107"><ele>561.0</ele><time>2026-04-27T07:27:08.392Z</time></trkpt><trkpt lat="44.5494751" lon="15.3756425"><ele>561.0</ele><time>2026-04-27T07:27:09.392Z</time></trkpt><trkpt lat="44.5493907" lon="15.3755733"><ele>561.0</ele><time>2026-04-27T07:27:10.392Z</time></trkpt><trkpt lat="44.5493075" lon="15.3755011"><ele>561.0</ele><time>2026-04-27T07:27:11.393Z</time></trkpt><trkpt lat="44.5492283" lon="15.375433"><ele>560.6</ele><time>2026-04-27T07:27:12.392Z</time></trkpt><trkpt lat="44.5491504" lon="15.3753717"><ele>560.2</ele><time>2026-04-27T07:27:13.392Z</time></trkpt><trkpt lat="44.5490723" lon="15.3753056"><ele>559.8</ele><time>2026-04-27T07:27:14.392Z</time></trkpt><trkpt lat="44.5489932" lon="15.3752369"><ele>559.4</ele><time>2026-04-27T07:27:15.393Z</time></trkpt><trkpt lat="44.5489114" lon="15.3751598"><ele>559.0</ele><time>2026-04-27T07:27:16.393Z</time></trkpt><trkpt lat="44.548832" lon="15.3750928"><ele>559.0</ele><time>2026-04-27T07:27:17.393Z</time></trkpt><trkpt lat="44.5487573" lon="15.3750235"><ele>559.0</ele><time>2026-04-27T07:27:18.392Z</time></trkpt><trkpt lat="44.5486856" lon="15.3749647"><ele>559.0</ele><time>2026-04-27T07:27:19.392Z</time></trkpt><trkpt lat="44.5486112" lon="15.3749011"><ele>559.0</ele><time>2026-04-27T07:27:20.392Z</time></trkpt><trkpt lat="44.5485467" lon="15.3748429"><ele>559.0</ele><time>2026-04-27T07:27:21.392Z</time></trkpt><trkpt lat="44.5484762" lon="15.3747883"><ele>559.0</ele><time>2026-04-27T07:27:22.392Z</time></trkpt><trkpt lat="44.5484154" lon="15.3747361"><ele>559.0</ele><time>2026-04-27T07:27:23.392Z</time></trkpt><trkpt lat="44.5483538" lon="15.3746857"><ele>559.0</ele><time>2026-04-27T07:27:24.393Z</time></trkpt><trkpt lat="44.5482868" lon="15.3746314"><ele>559.0</ele><time>2026-04-27T07:27:25.393Z</time></trkpt><trkpt lat="44.5482204" lon="15.3745723"><ele>559.0</ele><time>2026-04-27T07:27:26.392Z</time></trkpt><trkpt lat="44.5481527" lon="15.3745204"><ele>559.0</ele><time>2026-04-27T07:27:27.392Z</time></trkpt><trkpt lat="44.5480828" lon="15.3744621"><ele>559.0</ele><time>2026-04-27T07:27:28.392Z</time></trkpt><trkpt lat="44.5480162" lon="15.374405"><ele>559.0</ele><time>2026-04-27T07:27:29.392Z</time></trkpt><trkpt lat="44.5479545" lon="15.3743527"><ele>559.0</ele><time>2026-04-27T07:27:30.393Z</time></trkpt><trkpt lat="44.5478872" lon="15.3743029"><ele>559.0</ele><time>2026-04-27T07:27:31.393Z</time></trkpt><trkpt lat="44.547829" lon="15.3742547"><ele>559.0</ele><time>2026-04-27T07:27:32.392Z</time></trkpt><trkpt lat="44.5477695" lon="15.3742005"><ele>559.0</ele><time>2026-04-27T07:27:33.392Z</time></trkpt><trkpt lat="44.5477139" lon="15.374151"><ele>559.0</ele><time>2026-04-27T07:27:34.393Z</time></trkpt><trkpt lat="44.5476594" lon="15.3740987"><ele>559.0</ele><time>2026-04-27T07:27:35.392Z</time></trkpt><trkpt lat="44.5475535" lon="15.3740254"><ele>559.5</ele><time>2026-04-27T07:27:37.392Z</time></trkpt><trkpt lat="44.5474905" lon="15.3740156"><ele>560.0</ele><time>2026-04-27T07:27:38.392Z</time></trkpt><trkpt lat="44.5473867" lon="15.3740587"><ele>560.5</ele><time>2026-04-27T07:27:40.392Z</time></trkpt><trkpt lat="44.5472836" lon="15.3741542"><ele>561.0</ele><time>2026-04-27T07:27:42.392Z</time></trkpt><trkpt lat="44.5472277" lon="15.374208"><ele>561.5</ele><time>2026-04-27T07:27:43.393Z</time></trkpt><trkpt lat="44.5471679" lon="15.3742708"><ele>562.0</ele><time>2026-04-27T07:27:44.392Z</time></trkpt><trkpt lat="44.547105" lon="15.3743413"><ele>562.0000000000001</ele><time>2026-04-27T07:27:45.392Z</time></trkpt><trkpt lat="44.5470456" lon="15.3744051"><ele>562.0</ele><time>2026-04-27T07:27:46.393Z</time></trkpt><trkpt lat="44.5469904" lon="15.3744631"><ele>562.0</ele><time>2026-04-27T07:27:47.393Z</time></trkpt><trkpt lat="44.5469357" lon="15.3745194"><ele>562.0</ele><time>2026-04-27T07:27:48.392Z</time></trkpt><trkpt lat="44.5468814" lon="15.3745775"><ele>562.0</ele><time>2026-04-27T07:27:49.392Z</time></trkpt><trkpt lat="44.5468173" lon="15.3746316"><ele>562.0000000000001</ele><time>2026-04-27T07:27:50.392Z</time></trkpt><trkpt lat="44.5467602" lon="15.3747053"><ele>562.0</ele><time>2026-04-27T07:27:51.392Z</time></trkpt><trkpt lat="44.5466944" lon="15.3747735"><ele>562.1666666666667</ele><time>2026-04-27T07:27:52.392Z</time></trkpt><trkpt lat="44.5466358" lon="15.3748408"><ele>562.3333333333334</ele><time>2026-04-27T07:27:53.392Z</time></trkpt><trkpt lat="44.5465688" lon="15.374915"><ele>562.5</ele><time>2026-04-27T07:27:54.392Z</time></trkpt><trkpt lat="44.5465067" lon="15.3750041"><ele>562.6666666666666</ele><time>2026-04-27T07:27:55.392Z</time></trkpt><trkpt lat="44.5464395" lon="15.3750926"><ele>562.8333333333333</ele><time>2026-04-27T07:27:56.392Z</time></trkpt><trkpt lat="44.5463689" lon="15.3751847"><ele>563.0</ele><time>2026-04-27T07:27:57.392Z</time></trkpt><trkpt lat="44.5463065" lon="15.375268"><ele>563.0</ele><time>2026-04-27T07:27:58.393Z</time></trkpt><trkpt lat="44.546243" lon="15.3753418"><ele>563.0</ele><time>2026-04-27T07:27:59.392Z</time></trkpt><trkpt lat="44.5461793" lon="15.3754148"><ele>563.0</ele><time>2026-04-27T07:28:00.392Z</time></trkpt><trkpt lat="44.5461237" lon="15.3754865"><ele>563.0</ele><time>2026-04-27T07:28:01.392Z</time></trkpt><trkpt lat="44.5460701" lon="15.375548"><ele>563.0</ele><time>2026-04-27T07:28:02.392Z</time></trkpt><trkpt lat="44.5460159" lon="15.3756175"><ele>563.0</ele><time>2026-04-27T07:28:03.392Z</time></trkpt><trkpt lat="44.5459645" lon="15.3756937"><ele>563.1666666666666</ele><time>2026-04-27T07:28:04.392Z</time></trkpt><trkpt lat="44.5459159" lon="15.3757705"><ele>563.3333333333333</ele><time>2026-04-27T07:28:05.392Z</time></trkpt><trkpt lat="44.545873" lon="15.3758479"><ele>563.5</ele><time>2026-04-27T07:28:06.393Z</time></trkpt><trkpt lat="44.5458263" lon="15.375936"><ele>563.6666666666666</ele><time>2026-04-27T07:28:07.392Z</time></trkpt><trkpt lat="44.5457755" lon="15.3760217"><ele>563.8333333333334</ele><time>2026-04-27T07:28:08.392Z</time></trkpt><trkpt lat="44.545724" lon="15.3761051"><ele>564.0</ele><time>2026-04-27T07:28:09.392Z</time></trkpt><trkpt lat="44.5456811" lon="15.3761885"><ele>564.0</ele><time>2026-04-27T07:28:10.392Z</time></trkpt><trkpt lat="44.545632" lon="15.3762696"><ele>564.0</ele><time>2026-04-27T07:28:11.392Z</time></trkpt><trkpt lat="44.545595" lon="15.3763506"><ele>564.0</ele><time>2026-04-27T07:28:12.392Z</time></trkpt><trkpt lat="44.5455516" lon="15.3764209"><ele>564.0</ele><time>2026-04-27T07:28:13.392Z</time></trkpt><trkpt lat="44.5455001" lon="15.3765662"><ele>564.0</ele><time>2026-04-27T07:28:15.392Z</time></trkpt><trkpt lat="44.5454072" lon="15.3766889"><ele>563.8</ele><time>2026-04-27T07:28:17.392Z</time></trkpt><trkpt lat="44.5453437" lon="15.3767716"><ele>563.5999999999999</ele><time>2026-04-27T07:28:18.392Z</time></trkpt><trkpt lat="44.5452787" lon="15.376856"><ele>563.4</ele><time>2026-04-27T07:28:19.392Z</time></trkpt><trkpt lat="44.5452311" lon="15.3769806"><ele>563.1999999999999</ele><time>2026-04-27T07:28:20.392Z</time></trkpt><trkpt lat="44.5451692" lon="15.3771008"><ele>563.0</ele><time>2026-04-27T07:28:21.392Z</time></trkpt><trkpt lat="44.5451058" lon="15.3772127"><ele>563.0</ele><time>2026-04-27T07:28:22.393Z</time></trkpt><trkpt lat="44.5450445" lon="15.3773202"><ele>563.0</ele><time>2026-04-27T07:28:23.393Z</time></trkpt><trkpt lat="44.5449853" lon="15.3774322"><ele>563.0</ele><time>2026-04-27T07:28:24.392Z</time></trkpt><trkpt lat="44.5449352" lon="15.3775312"><ele>563.0</ele><time>2026-04-27T07:28:25.392Z</time></trkpt><trkpt lat="44.544893" lon="15.3776169"><ele>563.0</ele><time>2026-04-27T07:28:26.392Z</time></trkpt><trkpt lat="44.5448348" lon="15.37769"><ele>563.0</ele><time>2026-04-27T07:28:27.392Z</time></trkpt><trkpt lat="44.5447672" lon="15.3777221"><ele>563.0</ele><time>2026-04-27T07:28:28.392Z</time></trkpt><trkpt lat="44.5446958" lon="15.3777221"><ele>563.0</ele><time>2026-04-27T07:28:29.392Z</time></trkpt><trkpt lat="44.5446197" lon="15.3777098"><ele>563.0</ele><time>2026-04-27T07:28:30.392Z</time></trkpt><trkpt lat="44.5445306" lon="15.3776926"><ele>563.0</ele><time>2026-04-27T07:28:31.392Z</time></trkpt><trkpt lat="44.5444457" lon="15.3776728"><ele>563.0</ele><time>2026-04-27T07:28:32.392Z</time></trkpt><trkpt lat="44.5443556" lon="15.3776487"><ele>563.0</ele><time>2026-04-27T07:28:33.392Z</time></trkpt><trkpt lat="44.5442704" lon="15.3776266"><ele>562.6666666666666</ele><time>2026-04-27T07:28:34.392Z</time></trkpt><trkpt lat="44.5441875" lon="15.3776053"><ele>562.3333333333333</ele><time>2026-04-27T07:28:35.392Z</time></trkpt><trkpt lat="44.5441033" lon="15.3775835"><ele>562.0</ele><time>2026-04-27T07:28:36.393Z</time></trkpt><trkpt lat="44.5440236" lon="15.3775692"><ele>561.6666666666666</ele><time>2026-04-27T07:28:37.392Z</time></trkpt><trkpt lat="44.5439448" lon="15.3775715"><ele>561.3333333333334</ele><time>2026-04-27T07:28:38.392Z</time></trkpt><trkpt lat="44.5438713" lon="15.3775867"><ele>561.0</ele><time>2026-04-27T07:28:39.393Z</time></trkpt><trkpt lat="44.5438003" lon="15.3776337"><ele>561.0</ele><time>2026-04-27T07:28:40.392Z</time></trkpt><trkpt lat="44.5437343" lon="15.3776927"><ele>561.0</ele><time>2026-04-27T07:28:41.393Z</time></trkpt><trkpt lat="44.5436632" lon="15.3777477"><ele>561.0</ele><time>2026-04-27T07:28:42.393Z</time></trkpt><trkpt lat="44.5436151" lon="15.3778502"><ele>561.0</ele><time>2026-04-27T07:28:43.393Z</time></trkpt><trkpt lat="44.5435638" lon="15.3779327"><ele>561.0</ele><time>2026-04-27T07:28:44.392Z</time></trkpt><trkpt lat="44.5434902" lon="15.3780552"><ele>561.0</ele><time>2026-04-27T07:28:46.393Z</time></trkpt><trkpt lat="44.5434218" lon="15.3781855"><ele>561.0</ele><time>2026-04-27T07:28:48.392Z</time></trkpt><trkpt lat="44.5433841" lon="15.3782574"><ele>561.0</ele><time>2026-04-27T07:28:49.392Z</time></trkpt><trkpt lat="44.5433403" lon="15.3783327"><ele>561.0</ele><time>2026-04-27T07:28:50.392Z</time></trkpt><trkpt lat="44.5432929" lon="15.3784128"><ele>561.0</ele><time>2026-04-27T07:28:51.392Z</time></trkpt><trkpt lat="44.5432403" lon="15.3785031"><ele>561.0</ele><time>2026-04-27T07:28:52.392Z</time></trkpt><trkpt lat="44.5431881" lon="15.3785959"><ele>561.0</ele><time>2026-04-27T07:28:53.393Z</time></trkpt><trkpt lat="44.5431253" lon="15.3786999"><ele>561.0</ele><time>2026-04-27T07:28:54.392Z</time></trkpt><trkpt lat="44.5430546" lon="15.3788034"><ele>561.0</ele><time>2026-04-27T07:28:55.392Z</time></trkpt><trkpt lat="44.5429811" lon="15.3789105"><ele>561.0</ele><time>2026-04-27T07:28:56.392Z</time></trkpt><trkpt lat="44.5428962" lon="15.3790146"><ele>561.0</ele><time>2026-04-27T07:28:57.393Z</time></trkpt><trkpt lat="44.5427987" lon="15.3790913"><ele>561.0</ele><time>2026-04-27T07:28:58.393Z</time></trkpt><trkpt lat="44.542695" lon="15.3791751"><ele>560.5</ele><time>2026-04-27T07:28:59.392Z</time></trkpt><trkpt lat="44.5425909" lon="15.3792464"><ele>560.0</ele><time>2026-04-27T07:29:00.392Z</time></trkpt><trkpt lat="44.5424784" lon="15.3793155"><ele>559.5</ele><time>2026-04-27T07:29:01.393Z</time></trkpt><trkpt lat="44.5423651" lon="15.3793725"><ele>559.0</ele><time>2026-04-27T07:29:02.392Z</time></trkpt><trkpt lat="44.5422462" lon="15.3794289"><ele>559.0</ele><time>2026-04-27T07:29:03.392Z</time></trkpt><trkpt lat="44.5421297" lon="15.379485"><ele>559.0</ele><time>2026-04-27T07:29:04.392Z</time></trkpt><trkpt lat="44.5420089" lon="15.3795433"><ele>559.0</ele><time>2026-04-27T07:29:05.392Z</time></trkpt><trkpt lat="44.5418941" lon="15.3795965"><ele>559.0</ele><time>2026-04-27T07:29:06.392Z</time></trkpt><trkpt lat="44.541782" lon="15.3796495"><ele>558.8</ele><time>2026-04-27T07:29:07.392Z</time></trkpt><trkpt lat="44.5416763" lon="15.379705"><ele>558.5999999999999</ele><time>2026-04-27T07:29:08.392Z</time></trkpt><trkpt lat="44.5415749" lon="15.3797549"><ele>558.4</ele><time>2026-04-27T07:29:09.392Z</time></trkpt><trkpt lat="44.5414874" lon="15.3798013"><ele>558.1999999999999</ele><time>2026-04-27T07:29:10.392Z</time></trkpt><trkpt lat="44.5414097" lon="15.3798258"><ele>558.0</ele><time>2026-04-27T07:29:11.393Z</time></trkpt><trkpt lat="44.5413042" lon="15.3798276"><ele>558.1666666666666</ele><time>2026-04-27T07:29:13.392Z</time></trkpt><trkpt lat="44.5412047" lon="15.3798435"><ele>558.3333333333334</ele><time>2026-04-27T07:29:16.393Z</time></trkpt><trkpt lat="44.5411558" lon="15.3799038"><ele>558.5</ele><time>2026-04-27T07:29:17.393Z</time></trkpt><trkpt lat="44.5411129" lon="15.3799831"><ele>558.6666666666667</ele><time>2026-04-27T07:29:18.392Z</time></trkpt><trkpt lat="44.5410646" lon="15.3800911"><ele>558.8333333333334</ele><time>2026-04-27T07:29:19.393Z</time></trkpt><trkpt lat="44.5410138" lon="15.3802165"><ele>559.0</ele><time>2026-04-27T07:29:20.393Z</time></trkpt><trkpt lat="44.5409607" lon="15.3803578"><ele>559.0</ele><time>2026-04-27T07:29:21.392Z</time></trkpt><trkpt lat="44.5409099" lon="15.3805134"><ele>559.0</ele><time>2026-04-27T07:29:22.392Z</time></trkpt><trkpt lat="44.5408596" lon="15.3806822"><ele>559.0</ele><time>2026-04-27T07:29:23.392Z</time></trkpt><trkpt lat="44.5408134" lon="15.3808566"><ele>559.0</ele><time>2026-04-27T07:29:24.392Z</time></trkpt><trkpt lat="44.540769" lon="15.3810322"><ele>559.75</ele><time>2026-04-27T07:29:25.392Z</time></trkpt><trkpt lat="44.5407251" lon="15.3812185"><ele>560.5</ele><time>2026-04-27T07:29:26.392Z</time></trkpt><trkpt lat="44.5406816" lon="15.3814101"><ele>561.25</ele><time>2026-04-27T07:29:27.392Z</time></trkpt><trkpt lat="44.5406349" lon="15.3816053"><ele>562.0</ele><time>2026-04-27T07:29:28.392Z</time></trkpt><trkpt lat="44.54059" lon="15.3818102"><ele>563.3333333333334</ele><time>2026-04-27T07:29:29.393Z</time></trkpt><trkpt lat="44.5405328" lon="15.3820114"><ele>564.6666666666666</ele><time>2026-04-27T07:29:30.392Z</time></trkpt><trkpt lat="44.5404721" lon="15.3822104"><ele>566.0</ele><time>2026-04-27T07:29:31.392Z</time></trkpt><trkpt lat="44.5404094" lon="15.3824087"><ele>565.5</ele><time>2026-04-27T07:29:32.393Z</time></trkpt><trkpt lat="44.5403398" lon="15.382598"><ele>565.0</ele><time>2026-04-27T07:29:33.393Z</time></trkpt><trkpt lat="44.5402683" lon="15.3827778"><ele>564.5</ele><time>2026-04-27T07:29:34.392Z</time></trkpt><trkpt lat="44.5401893" lon="15.382946"><ele>564.0</ele><time>2026-04-27T07:29:35.392Z</time></trkpt><trkpt lat="44.5401098" lon="15.3831104"><ele>564.0</ele><time>2026-04-27T07:29:36.393Z</time></trkpt><trkpt lat="44.5400243" lon="15.3832728"><ele>564.0</ele><time>2026-04-27T07:29:37.393Z</time></trkpt><trkpt lat="44.5399344" lon="15.3834334"><ele>564.0</ele><time>2026-04-27T07:29:38.392Z</time></trkpt><trkpt lat="44.5398402" lon="15.3835959"><ele>564.0</ele><time>2026-04-27T07:29:39.392Z</time></trkpt><trkpt lat="44.5397523" lon="15.383757"><ele>564.0</ele><time>2026-04-27T07:29:40.392Z</time></trkpt><trkpt lat="44.5396622" lon="15.3839114"><ele>564.0</ele><time>2026-04-27T07:29:41.392Z</time></trkpt><trkpt lat="44.5395813" lon="15.3840531"><ele>564.0</ele><time>2026-04-27T07:29:42.393Z</time></trkpt><trkpt lat="44.5394991" lon="15.3841936"><ele>564.0</ele><time>2026-04-27T07:29:43.392Z</time></trkpt><trkpt lat="44.5394261" lon="15.3843157"><ele>564.0</ele><time>2026-04-27T07:29:44.392Z</time></trkpt><trkpt lat="44.539355" lon="15.3844385"><ele>564.0</ele><time>2026-04-27T07:29:45.393Z</time></trkpt><trkpt lat="44.5392888" lon="15.3845506"><ele>564.0</ele><time>2026-04-27T07:29:46.392Z</time></trkpt><trkpt lat="44.5392247" lon="15.3846514"><ele>564.0</ele><time>2026-04-27T07:29:47.392Z</time></trkpt><trkpt lat="44.5391577" lon="15.384762"><ele>564.0</ele><time>2026-04-27T07:29:48.393Z</time></trkpt><trkpt lat="44.5390928" lon="15.3848795"><ele>564.0</ele><time>2026-04-27T07:29:49.393Z</time></trkpt><trkpt lat="44.5390231" lon="15.3850001"><ele>564.0</ele><time>2026-04-27T07:29:50.392Z</time></trkpt><trkpt lat="44.5389544" lon="15.3851293"><ele>564.0</ele><time>2026-04-27T07:29:51.392Z</time></trkpt><trkpt lat="44.5388797" lon="15.3852651"><ele>564.0</ele><time>2026-04-27T07:29:52.392Z</time></trkpt><trkpt lat="44.5387986" lon="15.385412"><ele>564.0</ele><time>2026-04-27T07:29:53.392Z</time></trkpt><trkpt lat="44.5387286" lon="15.3855636"><ele>564.0</ele><time>2026-04-27T07:29:54.392Z</time></trkpt><trkpt lat="44.5386525" lon="15.3857234"><ele>564.0</ele><time>2026-04-27T07:29:55.392Z</time></trkpt><trkpt lat="44.5385719" lon="15.3858899"><ele>564.0</ele><time>2026-04-27T07:29:56.392Z</time></trkpt><trkpt lat="44.5384921" lon="15.3860618"><ele>564.0</ele><time>2026-04-27T07:29:57.392Z</time></trkpt><trkpt lat="44.5384109" lon="15.3862478"><ele>564.0</ele><time>2026-04-27T07:29:58.392Z</time></trkpt><trkpt lat="44.5383331" lon="15.3864358"><ele>564.0</ele><time>2026-04-27T07:29:59.392Z</time></trkpt><trkpt lat="44.5382547" lon="15.3866234"><ele>563.6666666666666</ele><time>2026-04-27T07:30:00.392Z</time></trkpt><trkpt lat="44.5381764" lon="15.3868178"><ele>563.3333333333333</ele><time>2026-04-27T07:30:01.392Z</time></trkpt><trkpt lat="44.5380979" lon="15.3870048"><ele>563.0</ele><time>2026-04-27T07:30:02.393Z</time></trkpt><trkpt lat="44.53802" lon="15.3871933"><ele>562.75</ele><time>2026-04-27T07:30:03.393Z</time></trkpt><trkpt lat="44.5379469" lon="15.3873786"><ele>562.5</ele><time>2026-04-27T07:30:04.393Z</time></trkpt><trkpt lat="44.5378725" lon="15.3875628"><ele>562.25</ele><time>2026-04-27T07:30:05.392Z</time></trkpt><trkpt lat="44.5378029" lon="15.387735"><ele>562.0</ele><time>2026-04-27T07:30:06.392Z</time></trkpt><trkpt lat="44.5377364" lon="15.3878946"><ele>561.4</ele><time>2026-04-27T07:30:07.392Z</time></trkpt><trkpt lat="44.5376761" lon="15.3880454"><ele>560.8000000000001</ele><time>2026-04-27T07:30:08.392Z</time></trkpt><trkpt lat="44.5376178" lon="15.388185"><ele>560.2</ele><time>2026-04-27T07:30:09.392Z</time></trkpt><trkpt lat="44.5375675" lon="15.3883184"><ele>559.6</ele><time>2026-04-27T07:30:10.392Z</time></trkpt><trkpt lat="44.5375178" lon="15.3884395"><ele>559.0</ele><time>2026-04-27T07:30:11.393Z</time></trkpt><trkpt lat="44.5374821" lon="15.3885429"><ele>559.0</ele><time>2026-04-27T07:30:12.392Z</time></trkpt><trkpt lat="44.5374633" lon="15.3886302"><ele>559.0</ele><time>2026-04-27T07:30:13.393Z</time></trkpt><trkpt lat="44.537494" lon="15.3887598"><ele>559.0</ele><time>2026-04-27T07:30:15.392Z</time></trkpt><trkpt lat="44.5375963" lon="15.3888376"><ele>559.0</ele><time>2026-04-27T07:30:17.392Z</time></trkpt><trkpt lat="44.5376702" lon="15.3888657"><ele>559.0</ele><time>2026-04-27T07:30:18.392Z</time></trkpt><trkpt lat="44.5377494" lon="15.388896"><ele>559.0</ele><time>2026-04-27T07:30:19.393Z</time></trkpt><trkpt lat="44.5378339" lon="15.3889249"><ele>560.0</ele><time>2026-04-27T07:30:20.392Z</time></trkpt><trkpt lat="44.5379222" lon="15.3889555"><ele>561.0</ele><time>2026-04-27T07:30:21.392Z</time></trkpt><trkpt lat="44.5380098" lon="15.3889856"><ele>562.0</ele><time>2026-04-27T07:30:22.392Z</time></trkpt><trkpt lat="44.5380883" lon="15.3890214"><ele>563.0</ele><time>2026-04-27T07:30:23.392Z</time></trkpt><trkpt lat="44.5381661" lon="15.3890487"><ele>564.0</ele><time>2026-04-27T07:30:24.392Z</time></trkpt><trkpt lat="44.5382358" lon="15.3890722"><ele>565.0</ele><time>2026-04-27T07:30:25.392Z</time></trkpt><trkpt lat="44.5383026" lon="15.3890925"><ele>565.0</ele><time>2026-04-27T07:30:26.392Z</time></trkpt><trkpt lat="44.5384087" lon="15.3891285"><ele>565.0</ele><time>2026-04-27T07:30:28.392Z</time></trkpt><trkpt lat="44.5385041" lon="15.3891655"><ele>565.0</ele><time>2026-04-27T07:30:30.392Z</time></trkpt><trkpt lat="44.5385949" lon="15.3892311"><ele>565.0</ele><time>2026-04-27T07:30:32.392Z</time></trkpt><trkpt lat="44.5386518" lon="15.3892837"><ele>565.0</ele><time>2026-04-27T07:30:33.393Z</time></trkpt><trkpt lat="44.5387071" lon="15.3893298"><ele>565.0</ele><time>2026-04-27T07:30:34.392Z</time></trkpt><trkpt lat="44.538775" lon="15.3893669"><ele>565.0</ele><time>2026-04-27T07:30:35.392Z</time></trkpt><trkpt lat="44.5388511" lon="15.3893787"><ele>565.0</ele><time>2026-04-27T07:30:36.392Z</time></trkpt><trkpt lat="44.5389348" lon="15.3893738"><ele>565.0</ele><time>2026-04-27T07:30:37.393Z</time></trkpt><trkpt lat="44.539015" lon="15.3893466"><ele>565.0</ele><time>2026-04-27T07:30:38.393Z</time></trkpt><trkpt lat="44.539078" lon="15.3893216"><ele>565.0</ele><time>2026-04-27T07:30:39.392Z</time></trkpt><trkpt lat="44.5391507" lon="15.3892977"><ele>565.0</ele><time>2026-04-27T07:30:40.392Z</time></trkpt><trkpt lat="44.5392186" lon="15.3893023"><ele>565.0</ele><time>2026-04-27T07:30:41.392Z</time></trkpt><trkpt lat="44.539298" lon="15.3893551"><ele>565.0</ele><time>2026-04-27T07:30:43.392Z</time></trkpt><trkpt lat="44.5393531" lon="15.3894676"><ele>565.0</ele><time>2026-04-27T07:30:45.392Z</time></trkpt><trkpt lat="44.5393806" lon="15.3896234"><ele>565.0</ele><time>2026-04-27T07:30:47.392Z</time></trkpt><trkpt lat="44.5393225" lon="15.3897171"><ele>565.0</ele><time>2026-04-27T07:30:49.392Z</time></trkpt><trkpt lat="44.5391962" lon="15.3897168"><ele>565.0</ele><time>2026-04-27T07:30:51.392Z</time></trkpt><trkpt lat="44.539133" lon="15.3897202"><ele>565.0</ele><time>2026-04-27T07:30:52.392Z</time></trkpt><trkpt lat="44.5390601" lon="15.3897444"><ele>565.0</ele><time>2026-04-27T07:30:53.392Z</time></trkpt><trkpt lat="44.5389833" lon="15.3897879"><ele>565.0</ele><time>2026-04-27T07:30:54.393Z</time></trkpt><trkpt lat="44.538899" lon="15.3898526"><ele>565.0</ele><time>2026-04-27T07:30:55.392Z</time></trkpt><trkpt lat="44.5388058" lon="15.3899226"><ele>565.0</ele><time>2026-04-27T07:30:56.392Z</time></trkpt><trkpt lat="44.5387085" lon="15.3900075"><ele>565.0</ele><time>2026-04-27T07:30:57.392Z</time></trkpt><trkpt lat="44.5386129" lon="15.3900943"><ele>565.0</ele><time>2026-04-27T07:30:58.392Z</time></trkpt><trkpt lat="44.5385141" lon="15.3901892"><ele>565.0</ele><time>2026-04-27T07:30:59.392Z</time></trkpt><trkpt lat="44.5384171" lon="15.3902938"><ele>565.0</ele><time>2026-04-27T07:31:00.392Z</time></trkpt><trkpt lat="44.5383243" lon="15.3904025"><ele>564.25</ele><time>2026-04-27T07:31:01.392Z</time></trkpt><trkpt lat="44.5382342" lon="15.390519"><ele>563.5</ele><time>2026-04-27T07:31:02.392Z</time></trkpt><trkpt lat="44.5381476" lon="15.3906351"><ele>562.75</ele><time>2026-04-27T07:31:03.392Z</time></trkpt><trkpt lat="44.5380626" lon="15.3907542"><ele>562.0</ele><time>2026-04-27T07:31:04.392Z</time></trkpt><trkpt lat="44.537981" lon="15.3908795"><ele>562.0</ele><time>2026-04-27T07:31:05.393Z</time></trkpt><trkpt lat="44.5379032" lon="15.3910112"><ele>562.0</ele><time>2026-04-27T07:31:06.392Z</time></trkpt><trkpt lat="44.5378243" lon="15.3911466"><ele>562.0</ele><time>2026-04-27T07:31:07.393Z</time></trkpt><trkpt lat="44.5377471" lon="15.3912806"><ele>562.0</ele><time>2026-04-27T07:31:08.392Z</time></trkpt><trkpt lat="44.5376742" lon="15.3914176"><ele>563.5</ele><time>2026-04-27T07:31:09.392Z</time></trkpt><trkpt lat="44.5376008" lon="15.3915549"><ele>565.0</ele><time>2026-04-27T07:31:10.392Z</time></trkpt><trkpt lat="44.5375195" lon="15.391686"><ele>566.5</ele><time>2026-04-27T07:31:11.392Z</time></trkpt><trkpt lat="44.5374497" lon="15.3918047"><ele>568.0</ele><time>2026-04-27T07:31:12.392Z</time></trkpt><trkpt lat="44.5373848" lon="15.3919281"><ele>568.0</ele><time>2026-04-27T07:31:13.392Z</time></trkpt><trkpt lat="44.5373147" lon="15.3920496"><ele>568.0</ele><time>2026-04-27T07:31:14.392Z</time></trkpt><trkpt lat="44.5372502" lon="15.3921726"><ele>568.0</ele><time>2026-04-27T07:31:15.393Z</time></trkpt><trkpt lat="44.5371839" lon="15.3923007"><ele>568.0</ele><time>2026-04-27T07:31:16.393Z</time></trkpt><trkpt lat="44.5371187" lon="15.3924378"><ele>567.25</ele><time>2026-04-27T07:31:17.393Z</time></trkpt><trkpt lat="44.5370521" lon="15.3925806"><ele>566.5</ele><time>2026-04-27T07:31:18.393Z</time></trkpt><trkpt lat="44.5369809" lon="15.3927228"><ele>565.75</ele><time>2026-04-27T07:31:19.392Z</time></trkpt><trkpt lat="44.5369101" lon="15.3928637"><ele>565.0</ele><time>2026-04-27T07:31:20.392Z</time></trkpt><trkpt lat="44.5368394" lon="15.393003"><ele>565.25</ele><time>2026-04-27T07:31:21.392Z</time></trkpt><trkpt lat="44.5367715" lon="15.3931474"><ele>565.5</ele><time>2026-04-27T07:31:22.392Z</time></trkpt><trkpt lat="44.5367049" lon="15.3932899"><ele>565.75</ele><time>2026-04-27T07:31:23.392Z</time></trkpt><trkpt lat="44.5366354" lon="15.3934328"><ele>566.0</ele><time>2026-04-27T07:31:24.392Z</time></trkpt><trkpt lat="44.5365692" lon="15.3935791"><ele>566.0</ele><time>2026-04-27T07:31:25.392Z</time></trkpt><trkpt lat="44.5365021" lon="15.3937099"><ele>566.0</ele><time>2026-04-27T07:31:26.393Z</time></trkpt><trkpt lat="44.536427" lon="15.3938457"><ele>566.0</ele><time>2026-04-27T07:31:27.392Z</time></trkpt><trkpt lat="44.5363471" lon="15.3939766"><ele>566.0</ele><time>2026-04-27T07:31:28.392Z</time></trkpt><trkpt lat="44.5362671" lon="15.394115"><ele>566.25</ele><time>2026-04-27T07:31:29.392Z</time></trkpt><trkpt lat="44.5361874" lon="15.3942546"><ele>566.5</ele><time>2026-04-27T07:31:30.392Z</time></trkpt><trkpt lat="44.5361065" lon="15.3943958"><ele>566.75</ele><time>2026-04-27T07:31:31.393Z</time></trkpt><trkpt lat="44.5360229" lon="15.3945338"><ele>567.0</ele><time>2026-04-27T07:31:32.392Z</time></trkpt><trkpt lat="44.5359379" lon="15.3946725"><ele>566.5</ele><time>2026-04-27T07:31:33.392Z</time></trkpt><trkpt lat="44.5358588" lon="15.3947957"><ele>566.0</ele><time>2026-04-27T07:31:34.393Z</time></trkpt><trkpt lat="44.5357741" lon="15.3949323"><ele>565.5</ele><time>2026-04-27T07:31:35.392Z</time></trkpt><trkpt lat="44.5356879" lon="15.3950669"><ele>565.0</ele><time>2026-04-27T07:31:36.392Z</time></trkpt><trkpt lat="44.5356039" lon="15.3951959"><ele>565.0</ele><time>2026-04-27T07:31:37.393Z</time></trkpt><trkpt lat="44.5355185" lon="15.3953313"><ele>565.0</ele><time>2026-04-27T07:31:38.392Z</time></trkpt><trkpt lat="44.5354322" lon="15.3954619"><ele>565.0</ele><time>2026-04-27T07:31:39.392Z</time></trkpt><trkpt lat="44.5353499" lon="15.3955967"><ele>565.0</ele><time>2026-04-27T07:31:40.392Z</time></trkpt><trkpt lat="44.535269" lon="15.395724"><ele>565.6</ele><time>2026-04-27T07:31:41.392Z</time></trkpt><trkpt lat="44.5351914" lon="15.3958448"><ele>566.2</ele><time>2026-04-27T07:31:42.392Z</time></trkpt><trkpt lat="44.5351225" lon="15.3959565"><ele>566.8</ele><time>2026-04-27T07:31:43.392Z</time></trkpt><trkpt lat="44.5350563" lon="15.3960642"><ele>567.4</ele><time>2026-04-27T07:31:44.392Z</time></trkpt><trkpt lat="44.535" lon="15.3961609"><ele>568.0</ele><time>2026-04-27T07:31:45.393Z</time></trkpt><trkpt lat="44.5349442" lon="15.3962616"><ele>568.0</ele><time>2026-04-27T07:31:46.392Z</time></trkpt><trkpt lat="44.534891" lon="15.3963604"><ele>568.0</ele><time>2026-04-27T07:31:47.393Z</time></trkpt><trkpt lat="44.5348445" lon="15.3964555"><ele>568.0</ele><time>2026-04-27T07:31:48.392Z</time></trkpt><trkpt lat="44.5348125" lon="15.3965491"><ele>568.0</ele><time>2026-04-27T07:31:49.392Z</time></trkpt><trkpt lat="44.5347883" lon="15.3966493"><ele>568.0</ele><time>2026-04-27T07:31:50.392Z</time></trkpt><trkpt lat="44.5347681" lon="15.3967394"><ele>568.0</ele><time>2026-04-27T07:31:51.393Z</time></trkpt><trkpt lat="44.5347374" lon="15.3968926"><ele>568.0</ele><time>2026-04-27T07:31:53.393Z</time></trkpt><trkpt lat="44.534703" lon="15.3970615"><ele>568.0</ele><time>2026-04-27T07:31:55.393Z</time></trkpt><trkpt lat="44.5346768" lon="15.3971523"><ele>568.0</ele><time>2026-04-27T07:31:56.393Z</time></trkpt><trkpt lat="44.5346445" lon="15.397237"><ele>568.0</ele><time>2026-04-27T07:31:57.392Z</time></trkpt><trkpt lat="44.5345958" lon="15.3973892"><ele>568.0</ele><time>2026-04-27T07:31:59.392Z</time></trkpt><trkpt lat="44.5345417" lon="15.3975197"><ele>568.0</ele><time>2026-04-27T07:32:01.392Z</time></trkpt><trkpt lat="44.5344867" lon="15.39762"><ele>568.0</ele><time>2026-04-27T07:32:03.392Z</time></trkpt><trkpt lat="44.5344111" lon="15.3976446"><ele>568.0</ele><time>2026-04-27T07:32:05.392Z</time></trkpt><trkpt lat="44.5343205" lon="15.3975941"><ele>568.0</ele><time>2026-04-27T07:32:07.393Z</time></trkpt><trkpt lat="44.5342365" lon="15.3975378"><ele>568.0</ele><time>2026-04-27T07:32:09.392Z</time></trkpt><trkpt lat="44.5341435" lon="15.3975403"><ele>568.0</ele><time>2026-04-27T07:32:11.392Z</time></trkpt><trkpt lat="44.5340501" lon="15.3976099"><ele>568.0</ele><time>2026-04-27T07:32:13.392Z</time></trkpt><trkpt lat="44.5339822" lon="15.3977123"><ele>568.0</ele><time>2026-04-27T07:32:15.393Z</time></trkpt><trkpt lat="44.5339101" lon="15.3978384"><ele>568.0</ele><time>2026-04-27T07:32:17.393Z</time></trkpt><trkpt lat="44.533871" lon="15.3979115"><ele>568.0</ele><time>2026-04-27T07:32:18.392Z</time></trkpt><trkpt lat="44.5338293" lon="15.3979812"><ele>568.0</ele><time>2026-04-27T07:32:19.393Z</time></trkpt><trkpt lat="44.5337531" lon="15.3981063"><ele>568.0</ele><time>2026-04-27T07:32:21.392Z</time></trkpt><trkpt lat="44.5337119" lon="15.3981797"><ele>568.0</ele><time>2026-04-27T07:32:22.392Z</time></trkpt><trkpt lat="44.5336328" lon="15.3983082"><ele>568.0</ele><time>2026-04-27T07:32:24.392Z</time></trkpt><trkpt lat="44.5335724" lon="15.3984123"><ele>568.0</ele><time>2026-04-27T07:32:26.393Z</time></trkpt><trkpt lat="44.5335176" lon="15.3984945"><ele>568.0</ele><time>2026-04-27T07:32:28.392Z</time></trkpt><trkpt lat="44.533468" lon="15.3985805"><ele>568.0</ele><time>2026-04-27T07:32:30.393Z</time></trkpt><trkpt lat="44.5334197" lon="15.3986622"><ele>568.0</ele><time>2026-04-27T07:32:32.393Z</time></trkpt><trkpt lat="44.5333575" lon="15.3987596"><ele>568.0</ele><time>2026-04-27T07:32:34.392Z</time></trkpt><trkpt lat="44.5333016" lon="15.3988556"><ele>568.0</ele><time>2026-04-27T07:32:36.392Z</time></trkpt><trkpt lat="44.5332528" lon="15.3989409"><ele>568.0</ele><time>2026-04-27T07:32:38.392Z</time></trkpt><trkpt lat="44.533208" lon="15.399017"><ele>568.0</ele><time>2026-04-27T07:32:40.392Z</time></trkpt><trkpt lat="44.5331608" lon="15.3990947"><ele>568.0</ele><time>2026-04-27T07:32:42.392Z</time></trkpt><trkpt lat="44.5330838" lon="15.3992213"><ele>568.0</ele><time>2026-04-27T07:32:44.392Z</time></trkpt><trkpt lat="44.5330251" lon="15.3993112"><ele>568.0</ele><time>2026-04-27T07:32:45.392Z</time></trkpt><trkpt lat="44.5329666" lon="15.3994079"><ele>568.0</ele><time>2026-04-27T07:32:46.392Z</time></trkpt><trkpt lat="44.5328969" lon="15.3995182"><ele>567.5</ele><time>2026-04-27T07:32:47.392Z</time></trkpt><trkpt lat="44.5328204" lon="15.3996311"><ele>567.0</ele><time>2026-04-27T07:32:48.392Z</time></trkpt><trkpt lat="44.5327424" lon="15.3997535"><ele>566.5</ele><time>2026-04-27T07:32:49.392Z</time></trkpt><trkpt lat="44.5326554" lon="15.3998814"><ele>566.0</ele><time>2026-04-27T07:32:50.392Z</time></trkpt><trkpt lat="44.5325678" lon="15.4000109"><ele>565.75</ele><time>2026-04-27T07:32:51.392Z</time></trkpt><trkpt lat="44.5324772" lon="15.4001508"><ele>565.5</ele><time>2026-04-27T07:32:52.392Z</time></trkpt><trkpt lat="44.5323868" lon="15.4002909"><ele>565.25</ele><time>2026-04-27T07:32:53.392Z</time></trkpt><trkpt lat="44.5322953" lon="15.4004325"><ele>565.0</ele><time>2026-04-27T07:32:54.392Z</time></trkpt><trkpt lat="44.5322045" lon="15.4005755"><ele>565.0</ele><time>2026-04-27T07:32:55.392Z</time></trkpt><trkpt lat="44.532107" lon="15.4007191"><ele>565.0</ele><time>2026-04-27T07:32:56.392Z</time></trkpt><trkpt lat="44.5320089" lon="15.4008617"><ele>565.0</ele><time>2026-04-27T07:32:57.392Z</time></trkpt><trkpt lat="44.5319066" lon="15.4010056"><ele>565.0</ele><time>2026-04-27T07:32:58.392Z</time></trkpt><trkpt lat="44.5318048" lon="15.4011518"><ele>565.3333333333334</ele><time>2026-04-27T07:32:59.392Z</time></trkpt><trkpt lat="44.5317005" lon="15.4013139"><ele>565.6666666666666</ele><time>2026-04-27T07:33:00.392Z</time></trkpt><trkpt lat="44.5315967" lon="15.4014839"><ele>566.0</ele><time>2026-04-27T07:33:01.393Z</time></trkpt><trkpt lat="44.5314905" lon="15.4016618"><ele>566.3333333333333</ele><time>2026-04-27T07:33:02.392Z</time></trkpt><trkpt lat="44.5313812" lon="15.4018408"><ele>566.6666666666666</ele><time>2026-04-27T07:33:03.393Z</time></trkpt><trkpt lat="44.5312719" lon="15.402025"><ele>567.0</ele><time>2026-04-27T07:33:04.392Z</time></trkpt><trkpt lat="44.5311634" lon="15.4022188"><ele>567.6666666666666</ele><time>2026-04-27T07:33:05.392Z</time></trkpt><trkpt lat="44.5310535" lon="15.4024122"><ele>568.3333333333333</ele><time>2026-04-27T07:33:06.392Z</time></trkpt><trkpt lat="44.5309395" lon="15.4026065"><ele>569.0</ele><time>2026-04-27T07:33:07.392Z</time></trkpt><trkpt lat="44.5308242" lon="15.4028029"><ele>568.0</ele><time>2026-04-27T07:33:08.393Z</time></trkpt><trkpt lat="44.5307056" lon="15.4029981"><ele>567.0</ele><time>2026-04-27T07:33:09.392Z</time></trkpt><trkpt lat="44.530588" lon="15.4031941"><ele>566.0</ele><time>2026-04-27T07:33:10.392Z</time></trkpt><trkpt lat="44.5304644" lon="15.403397"><ele>566.3333333333333</ele><time>2026-04-27T07:33:11.392Z</time></trkpt><trkpt lat="44.5303464" lon="15.4036005"><ele>566.6666666666666</ele><time>2026-04-27T07:33:12.392Z</time></trkpt><trkpt lat="44.5302287" lon="15.4037991"><ele>567.0</ele><time>2026-04-27T07:33:13.393Z</time></trkpt><trkpt lat="44.5301127" lon="15.4040006"><ele>567.3333333333334</ele><time>2026-04-27T07:33:14.393Z</time></trkpt><trkpt lat="44.5299984" lon="15.4041981"><ele>567.6666666666667</ele><time>2026-04-27T07:33:15.392Z</time></trkpt><trkpt lat="44.5298788" lon="15.4043983"><ele>568.0</ele><time>2026-04-27T07:33:16.392Z</time></trkpt><trkpt lat="44.5297609" lon="15.4045851"><ele>568.6666666666667</ele><time>2026-04-27T07:33:17.392Z</time></trkpt><trkpt lat="44.5296461" lon="15.4047806"><ele>569.3333333333334</ele><time>2026-04-27T07:33:18.392Z</time></trkpt><trkpt lat="44.5295303" lon="15.4049707"><ele>570.0</ele><time>2026-04-27T07:33:19.392Z</time></trkpt><trkpt lat="44.5294139" lon="15.4051594"><ele>570.0</ele><time>2026-04-27T07:33:20.393Z</time></trkpt><trkpt lat="44.5293004" lon="15.4053476"><ele>570.0</ele><time>2026-04-27T07:33:21.392Z</time></trkpt><trkpt lat="44.5291861" lon="15.4055301"><ele>570.0</ele><time>2026-04-27T07:33:22.392Z</time></trkpt><trkpt lat="44.5290743" lon="15.4057173"><ele>570.0</ele><time>2026-04-27T07:33:23.392Z</time></trkpt><trkpt lat="44.5289625" lon="15.4058965"><ele>570.0</ele><time>2026-04-27T07:33:24.392Z</time></trkpt><trkpt lat="44.5288527" lon="15.4060749"><ele>570.0</ele><time>2026-04-27T07:33:25.392Z</time></trkpt><trkpt lat="44.5287431" lon="15.4062499"><ele>570.3333333333334</ele><time>2026-04-27T07:33:26.392Z</time></trkpt><trkpt lat="44.528637" lon="15.4064255"><ele>570.6666666666667</ele><time>2026-04-27T07:33:27.392Z</time></trkpt><trkpt lat="44.5285331" lon="15.4065959"><ele>571.0</ele><time>2026-04-27T07:33:28.392Z</time></trkpt><trkpt lat="44.5284318" lon="15.4067607"><ele>571.0</ele><time>2026-04-27T07:33:29.393Z</time></trkpt><trkpt lat="44.5283412" lon="15.4069149"><ele>571.0</ele><time>2026-04-27T07:33:30.392Z</time></trkpt><trkpt lat="44.5282641" lon="15.4070459"><ele>571.0</ele><time>2026-04-27T07:33:31.393Z</time></trkpt><trkpt lat="44.5281913" lon="15.407155"><ele>571.0</ele><time>2026-04-27T07:33:32.392Z</time></trkpt><trkpt lat="44.528135" lon="15.407245"><ele>571.1428571428571</ele><time>2026-04-27T07:33:33.392Z</time></trkpt><trkpt lat="44.5280804" lon="15.4073158"><ele>571.2857142857142</ele><time>2026-04-27T07:33:34.392Z</time></trkpt><trkpt lat="44.5280343" lon="15.4073869"><ele>571.4285714285713</ele><time>2026-04-27T07:33:35.392Z</time></trkpt><trkpt lat="44.5279943" lon="15.407463"><ele>571.5714285714286</ele><time>2026-04-27T07:33:36.393Z</time></trkpt><trkpt lat="44.5279551" lon="15.407557"><ele>571.7142857142857</ele><time>2026-04-27T07:33:37.392Z</time></trkpt><trkpt lat="44.5279271" lon="15.4076565"><ele>571.8571428571428</ele><time>2026-04-27T07:33:38.392Z</time></trkpt><trkpt lat="44.527916" lon="15.4077641"><ele>572.0</ele><time>2026-04-27T07:33:39.392Z</time></trkpt><trkpt lat="44.5279318" lon="15.4078704"><ele>572.0</ele><time>2026-04-27T07:33:40.393Z</time></trkpt><trkpt lat="44.5279657" lon="15.4079618"><ele>572.0</ele><time>2026-04-27T07:33:41.393Z</time></trkpt><trkpt lat="44.5280193" lon="15.4080452"><ele>572.0</ele><time>2026-04-27T07:33:42.392Z</time></trkpt><trkpt lat="44.5280918" lon="15.4081357"><ele>572.0</ele><time>2026-04-27T07:33:43.392Z</time></trkpt><trkpt lat="44.5281759" lon="15.4082342"><ele>572.0</ele><time>2026-04-27T07:33:44.392Z</time></trkpt><trkpt lat="44.528268" lon="15.4083399"><ele>571.75</ele><time>2026-04-27T07:33:45.392Z</time></trkpt><trkpt lat="44.5283621" lon="15.4084548"><ele>571.5</ele><time>2026-04-27T07:33:46.392Z</time></trkpt><trkpt lat="44.5284544" lon="15.4085825"><ele>571.25</ele><time>2026-04-27T07:33:47.393Z</time></trkpt><trkpt lat="44.5285479" lon="15.4087128"><ele>571.0</ele><time>2026-04-27T07:33:48.392Z</time></trkpt><trkpt lat="44.528632" lon="15.4088377"><ele>571.0</ele><time>2026-04-27T07:33:49.392Z</time></trkpt><trkpt lat="44.5287155" lon="15.4089579"><ele>571.0</ele><time>2026-04-27T07:33:50.392Z</time></trkpt><trkpt lat="44.5288026" lon="15.4090702"><ele>571.0</ele><time>2026-04-27T07:33:51.392Z</time></trkpt><trkpt lat="44.5288868" lon="15.4091778"><ele>571.0</ele><time>2026-04-27T07:33:52.392Z</time></trkpt><trkpt lat="44.5289741" lon="15.4092836"><ele>571.0</ele><time>2026-04-27T07:33:53.392Z</time></trkpt><trkpt lat="44.5290618" lon="15.4093952"><ele>571.0</ele><time>2026-04-27T07:33:54.393Z</time></trkpt><trkpt lat="44.5291305" lon="15.4095241"><ele>571.0</ele><time>2026-04-27T07:33:55.392Z</time></trkpt><trkpt lat="44.5291896" lon="15.4096731"><ele>571.0</ele><time>2026-04-27T07:33:56.392Z</time></trkpt><trkpt lat="44.5292452" lon="15.4098256"><ele>572.0</ele><time>2026-04-27T07:33:57.393Z</time></trkpt><trkpt lat="44.5293069" lon="15.4099734"><ele>573.0</ele><time>2026-04-27T07:33:58.392Z</time></trkpt><trkpt lat="44.52938" lon="15.4101208"><ele>574.0</ele><time>2026-04-27T07:33:59.392Z</time></trkpt><trkpt lat="44.5294637" lon="15.4102616"><ele>575.0</ele><time>2026-04-27T07:34:00.393Z</time></trkpt><trkpt lat="44.5295568" lon="15.4103969"><ele>575.25</ele><time>2026-04-27T07:34:01.392Z</time></trkpt><trkpt lat="44.5296617" lon="15.4105267"><ele>575.5</ele><time>2026-04-27T07:34:02.393Z</time></trkpt><trkpt lat="44.529768" lon="15.4106501"><ele>575.75</ele><time>2026-04-27T07:34:03.392Z</time></trkpt><trkpt lat="44.5298661" lon="15.4107688"><ele>576.0</ele><time>2026-04-27T07:34:04.392Z</time></trkpt><trkpt lat="44.5299625" lon="15.4108879"><ele>576.0</ele><time>2026-04-27T07:34:05.392Z</time></trkpt><trkpt lat="44.5300644" lon="15.4110085"><ele>576.0</ele><time>2026-04-27T07:34:06.392Z</time></trkpt><trkpt lat="44.5301605" lon="15.41113"><ele>576.0</ele><time>2026-04-27T07:34:07.393Z</time></trkpt><trkpt lat="44.5302542" lon="15.411257"><ele>576.0</ele><time>2026-04-27T07:34:08.393Z</time></trkpt><trkpt lat="44.5303399" lon="15.4113823"><ele>575.4</ele><time>2026-04-27T07:34:09.393Z</time></trkpt><trkpt lat="44.5304191" lon="15.4114978"><ele>574.8</ele><time>2026-04-27T07:34:10.392Z</time></trkpt><trkpt lat="44.5304986" lon="15.4116079"><ele>574.1999999999999</ele><time>2026-04-27T07:34:11.392Z</time></trkpt><trkpt lat="44.5305725" lon="15.4117077"><ele>573.6</ele><time>2026-04-27T07:34:12.392Z</time></trkpt><trkpt lat="44.5306475" lon="15.4118045"><ele>573.0</ele><time>2026-04-27T07:34:13.393Z</time></trkpt><trkpt lat="44.5307336" lon="15.4119059"><ele>573.0</ele><time>2026-04-27T07:34:14.392Z</time></trkpt><trkpt lat="44.5308269" lon="15.4120063"><ele>573.0</ele><time>2026-04-27T07:34:15.392Z</time></trkpt><trkpt lat="44.5309255" lon="15.4121119"><ele>573.0</ele><time>2026-04-27T07:34:16.392Z</time></trkpt><trkpt lat="44.5310302" lon="15.4122186"><ele>573.0</ele><time>2026-04-27T07:34:17.392Z</time></trkpt><trkpt lat="44.5311422" lon="15.4123225"><ele>573.0</ele><time>2026-04-27T07:34:18.392Z</time></trkpt><trkpt lat="44.5312603" lon="15.412422"><ele>573.0</ele><time>2026-04-27T07:34:19.393Z</time></trkpt><trkpt lat="44.5313803" lon="15.4125204"><ele>573.0</ele><time>2026-04-27T07:34:20.392Z</time></trkpt><trkpt lat="44.5314942" lon="15.4126111"><ele>573.0</ele><time>2026-04-27T07:34:21.393Z</time></trkpt><trkpt lat="44.5315997" lon="15.4126944"><ele>573.0</ele><time>2026-04-27T07:34:22.392Z</time></trkpt><trkpt lat="44.5316861" lon="15.4127705"><ele>573.0</ele><time>2026-04-27T07:34:23.393Z</time></trkpt><trkpt lat="44.5317623" lon="15.412849"><ele>573.0</ele><time>2026-04-27T07:34:24.392Z</time></trkpt><trkpt lat="44.5318132" lon="15.4129376"><ele>573.0</ele><time>2026-04-27T07:34:25.393Z</time></trkpt><trkpt lat="44.5318406" lon="15.4130451"><ele>573.0</ele><time>2026-04-27T07:34:26.392Z</time></trkpt><trkpt lat="44.5318459" lon="15.4131773"><ele>573.5</ele><time>2026-04-27T07:34:27.393Z</time></trkpt><trkpt lat="44.5318424" lon="15.4133075"><ele>574.0</ele><time>2026-04-27T07:34:28.392Z</time></trkpt><trkpt lat="44.5318376" lon="15.4134297"><ele>574.5</ele><time>2026-04-27T07:34:29.393Z</time></trkpt><trkpt lat="44.5318376" lon="15.4135419"><ele>575.0</ele><time>2026-04-27T07:34:30.393Z</time></trkpt><trkpt lat="44.5318466" lon="15.4136471"><ele>575.5</ele><time>2026-04-27T07:34:31.393Z</time></trkpt><trkpt lat="44.531882" lon="15.4137801"><ele>576.0</ele><time>2026-04-27T07:34:33.392Z</time></trkpt><trkpt lat="44.5319435" lon="15.4138299"><ele>575.8</ele><time>2026-04-27T07:34:36.393Z</time></trkpt><trkpt lat="44.5320155" lon="15.4138253"><ele>575.6</ele><time>2026-04-27T07:34:39.393Z</time></trkpt><trkpt lat="44.5321129" lon="15.4138015"><ele>575.4</ele><time>2026-04-27T07:34:58.392Z</time></trkpt><trkpt lat="44.5322461" lon="15.4137896"><ele>575.2</ele><time>2026-04-27T07:35:00.393Z</time></trkpt><trkpt lat="44.532331" lon="15.4137964"><ele>575.0</ele><time>2026-04-27T07:35:01.393Z</time></trkpt><trkpt lat="44.5324171" lon="15.4138155"><ele>575.4</ele><time>2026-04-27T07:35:02.392Z</time></trkpt><trkpt lat="44.5325051" lon="15.413836"><ele>575.8</ele><time>2026-04-27T07:35:03.393Z</time></trkpt><trkpt lat="44.5325868" lon="15.4138724"><ele>576.2</ele><time>2026-04-27T07:35:04.392Z</time></trkpt><trkpt lat="44.5326655" lon="15.4139112"><ele>576.6</ele><time>2026-04-27T07:35:05.392Z</time></trkpt><trkpt lat="44.5327551" lon="15.4139596"><ele>577.0</ele><time>2026-04-27T07:35:06.392Z</time></trkpt><trkpt lat="44.5328439" lon="15.4140161"><ele>576.8000000000001</ele><time>2026-04-27T07:35:07.393Z</time></trkpt><trkpt lat="44.5329359" lon="15.414083"><ele>576.6</ele><time>2026-04-27T07:35:08.392Z</time></trkpt><trkpt lat="44.5330337" lon="15.4141508"><ele>576.4000000000001</ele><time>2026-04-27T07:35:09.392Z</time></trkpt><trkpt lat="44.5331219" lon="15.414209"><ele>576.2</ele><time>2026-04-27T07:35:10.393Z</time></trkpt><trkpt lat="44.5332043" lon="15.4142676"><ele>576.0</ele><time>2026-04-27T07:35:11.392Z</time></trkpt><trkpt lat="44.5332867" lon="15.4143229"><ele>576.0</ele><time>2026-04-27T07:35:12.392Z</time></trkpt><trkpt lat="44.5333665" lon="15.4143781"><ele>576.0</ele><time>2026-04-27T07:35:13.392Z</time></trkpt><trkpt lat="44.5334459" lon="15.4144335"><ele>576.0</ele><time>2026-04-27T07:35:14.393Z</time></trkpt><trkpt lat="44.5335208" lon="15.414488"><ele>576.0</ele><time>2026-04-27T07:35:15.392Z</time></trkpt><trkpt lat="44.5335895" lon="15.4145347"><ele>576.0</ele><time>2026-04-27T07:35:16.392Z</time></trkpt><trkpt lat="44.5336489" lon="15.4145762"><ele>576.0</ele><time>2026-04-27T07:35:17.392Z</time></trkpt><trkpt lat="44.5337103" lon="15.4146195"><ele>576.0</ele><time>2026-04-27T07:35:18.392Z</time></trkpt><trkpt lat="44.533768" lon="15.4146563"><ele>576.0</ele><time>2026-04-27T07:35:19.393Z</time></trkpt><trkpt lat="44.5338703" lon="15.4147183"><ele>576.0</ele><time>2026-04-27T07:35:21.392Z</time></trkpt><trkpt lat="44.5339481" lon="15.4148063"><ele>576.0</ele><time>2026-04-27T07:35:23.393Z</time></trkpt><trkpt lat="44.5340105" lon="15.4149192"><ele>576.0</ele><time>2026-04-27T07:35:25.392Z</time></trkpt><trkpt lat="44.5340758" lon="15.4150846"><ele>576.0000000000001</ele><time>2026-04-27T07:35:27.392Z</time></trkpt><trkpt lat="44.5341126" lon="15.4151842"><ele>576.0</ele><time>2026-04-27T07:35:28.393Z</time></trkpt><trkpt lat="44.5341453" lon="15.4152799"><ele>576.0</ele><time>2026-04-27T07:35:29.392Z</time></trkpt><trkpt lat="44.5341755" lon="15.4153699"><ele>576.0</ele><time>2026-04-27T07:35:30.392Z</time></trkpt><trkpt lat="44.5341968" lon="15.4154635"><ele>576.0</ele><time>2026-04-27T07:35:31.392Z</time></trkpt><trkpt lat="44.5342148" lon="15.4155561"><ele>576.0000000000001</ele><time>2026-04-27T07:35:32.392Z</time></trkpt><trkpt lat="44.5342178" lon="15.4156513"><ele>576.0</ele><time>2026-04-27T07:35:33.392Z</time></trkpt><trkpt lat="44.5341937" lon="15.4158075"><ele>576.0</ele><time>2026-04-27T07:35:35.392Z</time></trkpt><trkpt lat="44.5341499" lon="15.4159155"><ele>576.0</ele><time>2026-04-27T07:35:37.392Z</time></trkpt><trkpt lat="44.5342121" lon="15.4158092"><ele>576.0</ele><time>2026-04-27T07:35:47.393Z</time></trkpt><trkpt lat="44.5342356" lon="15.4156304"><ele>576.0</ele><time>2026-04-27T07:35:49.392Z</time></trkpt><trkpt lat="44.5342244" lon="15.4155282"><ele>576.0</ele><time>2026-04-27T07:35:50.393Z</time></trkpt><trkpt lat="44.5341992" lon="15.4154235"><ele>576.0</ele><time>2026-04-27T07:35:51.393Z</time></trkpt><trkpt lat="44.5341676" lon="15.4153197"><ele>576.0</ele><time>2026-04-27T07:35:52.393Z</time></trkpt><trkpt lat="44.5341371" lon="15.4152306"><ele>576.0</ele><time>2026-04-27T07:35:53.393Z</time></trkpt><trkpt lat="44.5341055" lon="15.4151505"><ele>576.0</ele><time>2026-04-27T07:35:54.392Z</time></trkpt><trkpt lat="44.534053" lon="15.4150181"><ele>576.0</ele><time>2026-04-27T07:35:56.392Z</time></trkpt><trkpt lat="44.5340496" lon="15.4149166"><ele>576.0</ele><time>2026-04-27T07:35:59.393Z</time></trkpt><trkpt lat="44.5341187" lon="15.4148643"><ele>576.0</ele><time>2026-04-27T07:36:03.392Z</time></trkpt><trkpt lat="44.5342134" lon="15.4148726"><ele>576.0</ele><time>2026-04-27T07:36:06.392Z</time></trkpt><trkpt lat="44.5343112" lon="15.4149135"><ele>576.0</ele><time>2026-04-27T07:36:08.392Z</time></trkpt><trkpt lat="44.5343788" lon="15.4149351"><ele>576.0</ele><time>2026-04-27T07:36:09.392Z</time></trkpt><trkpt lat="44.5344442" lon="15.4149592"><ele>576.0</ele><time>2026-04-27T07:36:10.392Z</time></trkpt><trkpt lat="44.5345117" lon="15.414973"><ele>576.0</ele><time>2026-04-27T07:36:11.392Z</time></trkpt><trkpt lat="44.534575" lon="15.4149972"><ele>576.4</ele><time>2026-04-27T07:36:12.392Z</time></trkpt><trkpt lat="44.5346777" lon="15.4150669"><ele>576.8</ele><time>2026-04-27T07:36:14.393Z</time></trkpt><trkpt lat="44.5347703" lon="15.4151171"><ele>577.1999999999999</ele><time>2026-04-27T07:36:16.393Z</time></trkpt><trkpt lat="44.5348528" lon="15.4151612"><ele>577.6</ele><time>2026-04-27T07:36:18.392Z</time></trkpt><trkpt lat="44.5349193" lon="15.4151848"><ele>578.0</ele><time>2026-04-27T07:36:20.392Z</time></trkpt><trkpt lat="44.5350099" lon="15.4152267"><ele>578.0</ele><time>2026-04-27T07:36:22.393Z</time></trkpt><trkpt lat="44.5350935" lon="15.4152584"><ele>578.0</ele><time>2026-04-27T07:36:24.392Z</time></trkpt><trkpt lat="44.5351631" lon="15.4152642"><ele>578.0</ele><time>2026-04-27T07:36:26.392Z</time></trkpt><trkpt lat="44.5352494" lon="15.4152485"><ele>578.0</ele><time>2026-04-27T07:36:28.392Z</time></trkpt><trkpt lat="44.5353369" lon="15.4152346"><ele>578.0</ele><time>2026-04-27T07:36:30.392Z</time></trkpt><trkpt lat="44.5354458" lon="15.4152223"><ele>578.0</ele><time>2026-04-27T07:36:32.392Z</time></trkpt><trkpt lat="44.5355672" lon="15.4152062"><ele>577.8333333333333</ele><time>2026-04-27T07:36:34.392Z</time></trkpt><trkpt lat="44.5356823" lon="15.4151798"><ele>577.6666666666666</ele><time>2026-04-27T07:36:36.392Z</time></trkpt><trkpt lat="44.5357463" lon="15.4151862"><ele>577.5</ele><time>2026-04-27T07:36:37.392Z</time></trkpt><trkpt lat="44.5358217" lon="15.415184"><ele>577.3333333333334</ele><time>2026-04-27T07:36:39.393Z</time></trkpt><trkpt lat="44.5358938" lon="15.4151732"><ele>577.1666666666667</ele><time>2026-04-27T07:36:41.392Z</time></trkpt><trkpt lat="44.5359974" lon="15.4152119"><ele>577.0</ele><time>2026-04-27T07:36:44.392Z</time></trkpt><trkpt lat="44.5360882" lon="15.4152391"><ele>577.0</ele><time>2026-04-27T07:36:46.392Z</time></trkpt><trkpt lat="44.5361674" lon="15.4152524"><ele>577.0</ele><time>2026-04-27T07:36:48.389Z</time></trkpt><trkpt lat="44.5362358" lon="15.4152641"><ele>577.0</ele><time>2026-04-27T07:36:50.393Z</time></trkpt><trkpt lat="44.5363244" lon="15.4153151"><ele>577.0</ele><time>2026-04-27T07:36:52.392Z</time></trkpt><trkpt lat="44.5364244" lon="15.415378"><ele>577.0</ele><time>2026-04-27T07:36:54.392Z</time></trkpt><trkpt lat="44.536502" lon="15.4154647"><ele>576.6666666666667</ele><time>2026-04-27T07:36:56.392Z</time></trkpt><trkpt lat="44.5366041" lon="15.4155696"><ele>576.3333333333334</ele><time>2026-04-27T07:36:58.392Z</time></trkpt><trkpt lat="44.5366669" lon="15.4156186"><ele>576.0</ele><time>2026-04-27T07:36:59.392Z</time></trkpt><trkpt lat="44.536732" lon="15.4156704"><ele>575.6666666666666</ele><time>2026-04-27T07:37:00.392Z</time></trkpt><trkpt lat="44.53679" lon="15.4157162"><ele>575.3333333333333</ele><time>2026-04-27T07:37:01.392Z</time></trkpt><trkpt lat="44.5368509" lon="15.4157596"><ele>575.0</ele><time>2026-04-27T07:37:02.392Z</time></trkpt><trkpt lat="44.5369147" lon="15.4158053"><ele>575.0</ele><time>2026-04-27T07:37:03.392Z</time></trkpt><trkpt lat="44.5369851" lon="15.4158533"><ele>575.0</ele><time>2026-04-27T07:37:04.392Z</time></trkpt><trkpt lat="44.5370529" lon="15.4158882"><ele>575.0</ele><time>2026-04-27T07:37:05.392Z</time></trkpt><trkpt lat="44.5371724" lon="15.415921"><ele>575.0</ele><time>2026-04-27T07:37:07.392Z</time></trkpt><trkpt lat="44.5372564" lon="15.4159509"><ele>575.0</ele><time>2026-04-27T07:37:09.393Z</time></trkpt><trkpt lat="44.5373539" lon="15.4160019"><ele>575.1666666666666</ele><time>2026-04-27T07:37:11.392Z</time></trkpt><trkpt lat="44.5374272" lon="15.4160431"><ele>575.3333333333333</ele><time>2026-04-27T07:37:13.392Z</time></trkpt><trkpt lat="44.5374881" lon="15.4159956"><ele>575.5</ele><time>2026-04-27T07:37:16.392Z</time></trkpt><trkpt lat="44.5375577" lon="15.4159598"><ele>575.6666666666666</ele><time>2026-04-27T07:37:18.392Z</time></trkpt><trkpt lat="44.5376573" lon="15.4159485"><ele>575.8333333333334</ele><time>2026-04-27T07:37:20.392Z</time></trkpt><trkpt lat="44.5377565" lon="15.415927"><ele>576.0</ele><time>2026-04-27T07:37:22.392Z</time></trkpt><trkpt lat="44.5378486" lon="15.4158821"><ele>576.3333333333334</ele><time>2026-04-27T07:37:24.393Z</time></trkpt><trkpt lat="44.5379426" lon="15.4158024"><ele>576.6666666666666</ele><time>2026-04-27T07:37:26.393Z</time></trkpt><trkpt lat="44.5380119" lon="15.4157906"><ele>577.0</ele><time>2026-04-27T07:37:28.392Z</time></trkpt><trkpt lat="44.5380911" lon="15.4157906"><ele>577.3333333333333</ele><time>2026-04-27T07:37:42.392Z</time></trkpt><trkpt lat="44.5380961" lon="15.4156999"><ele>577.6666666666666</ele><time>2026-04-27T07:37:48.392Z</time></trkpt><trkpt lat="44.5380242" lon="15.4157803"><ele>578.0</ele><time>2026-04-27T07:37:57.392Z</time></trkpt><trkpt lat="44.537919" lon="15.4158233"><ele>577.6</ele><time>2026-04-27T07:37:59.392Z</time></trkpt><trkpt lat="44.537852" lon="15.4158636"><ele>577.1999999999999</ele><time>2026-04-27T07:38:00.392Z</time></trkpt><trkpt lat="44.5377428" lon="15.4159213"><ele>576.8</ele><time>2026-04-27T07:38:02.392Z</time></trkpt><trkpt lat="44.5376376" lon="15.4159387"><ele>576.4</ele><time>2026-04-27T07:38:04.393Z</time></trkpt><trkpt lat="44.5375383" lon="15.4159666"><ele>576.0</ele><time>2026-04-27T07:38:06.392Z</time></trkpt><trkpt lat="44.5374797" lon="15.4160057"><ele>576.0</ele><time>2026-04-27T07:38:08.393Z</time></trkpt><trkpt lat="44.5375185" lon="15.4161046"><ele>576.0</ele><time>2026-04-27T07:38:12.392Z</time></trkpt><trkpt lat="44.5375807" lon="15.4161371"><ele>576.0</ele><time>2026-04-27T07:38:14.392Z</time></trkpt><trkpt lat="44.5376592" lon="15.4161728"><ele>576.0</ele><time>2026-04-27T07:38:16.392Z</time></trkpt><trkpt lat="44.5377176" lon="15.4162343"><ele>576.0</ele><time>2026-04-27T07:38:18.392Z</time></trkpt><trkpt lat="44.5377964" lon="15.4162957"><ele>576.0</ele><time>2026-04-27T07:38:20.392Z</time></trkpt><trkpt lat="44.5378893" lon="15.4163521"><ele>576.2</ele><time>2026-04-27T07:38:22.392Z</time></trkpt><trkpt lat="44.5379693" lon="15.4164177"><ele>576.4000000000001</ele><time>2026-04-27T07:38:24.393Z</time></trkpt><trkpt lat="44.5380719" lon="15.4164851"><ele>576.6</ele><time>2026-04-27T07:38:26.392Z</time></trkpt><trkpt lat="44.5381676" lon="15.4165404"><ele>576.8000000000001</ele><time>2026-04-27T07:38:28.393Z</time></trkpt><trkpt lat="44.5382681" lon="15.4166039"><ele>577.0</ele><time>2026-04-27T07:38:30.392Z</time></trkpt><trkpt lat="44.5383485" lon="15.416656"><ele>577.0</ele><time>2026-04-27T07:38:32.392Z</time></trkpt><trkpt lat="44.5384188" lon="15.4167009"><ele>577.0</ele><time>2026-04-27T07:38:34.392Z</time></trkpt><trkpt lat="44.5384787" lon="15.4167333"><ele>577.0</ele><time>2026-04-27T07:38:35.392Z</time></trkpt><trkpt lat="44.5385452" lon="15.4167625"><ele>577.0</ele><time>2026-04-27T07:38:37.392Z</time></trkpt><trkpt lat="44.5386168" lon="15.416797"><ele>577.0</ele><time>2026-04-27T07:38:39.392Z</time></trkpt><trkpt lat="44.5386982" lon="15.4168477"><ele>577.0</ele><time>2026-04-27T07:38:41.392Z</time></trkpt><trkpt lat="44.538809" lon="15.416909"><ele>577.0</ele><time>2026-04-27T07:38:43.393Z</time></trkpt><trkpt lat="44.5388902" lon="15.416956"><ele>577.0</ele><time>2026-04-27T07:38:45.392Z</time></trkpt><trkpt lat="44.5389532" lon="15.4170361"><ele>577.0</ele><time>2026-04-27T07:38:47.393Z</time></trkpt><trkpt lat="44.5390285" lon="15.4171366"><ele>577.0</ele><time>2026-04-27T07:38:49.392Z</time></trkpt><trkpt lat="44.5390854" lon="15.4172307"><ele>577.0</ele><time>2026-04-27T07:38:51.392Z</time></trkpt><trkpt lat="44.539145" lon="15.4173167"><ele>577.0</ele><time>2026-04-27T07:38:53.392Z</time></trkpt><trkpt lat="44.5392114" lon="15.4173962"><ele>577.0</ele><time>2026-04-27T07:38:55.392Z</time></trkpt><trkpt lat="44.539275" lon="15.4174433"><ele>577.0</ele><time>2026-04-27T07:38:57.392Z</time></trkpt><trkpt lat="44.5393171" lon="15.417513"><ele>577.0</ele><time>2026-04-27T07:40:48.392Z</time></trkpt><trkpt lat="44.5393663" lon="15.417436"><ele>577.0</ele><time>2026-04-27T07:41:22.392Z</time></trkpt><trkpt lat="44.5394247" lon="15.4173372"><ele>577.0</ele><time>2026-04-27T07:41:25.392Z</time></trkpt><trkpt lat="44.5394843" lon="15.4172986"><ele>577.0</ele><time>2026-04-27T07:41:27.392Z</time></trkpt><trkpt lat="44.5395572" lon="15.4172901"><ele>577.0</ele><time>2026-04-27T07:41:29.393Z</time></trkpt><trkpt lat="44.5396394" lon="15.4173303"><ele>577.0</ele><time>2026-04-27T07:41:32.392Z</time></trkpt><trkpt lat="44.5397008" lon="15.4173663"><ele>577.0</ele><time>2026-04-27T07:41:34.392Z</time></trkpt><trkpt lat="44.5397792" lon="15.4174078"><ele>577.0</ele><time>2026-04-27T07:41:37.393Z</time></trkpt><trkpt lat="44.5398482" lon="15.4174328"><ele>577.0</ele><time>2026-04-27T07:41:40.392Z</time></trkpt><trkpt lat="44.5399021" lon="15.4174815"><ele>577.0</ele><time>2026-04-27T07:41:43.393Z</time></trkpt><trkpt lat="44.5399624" lon="15.4175359"><ele>577.0</ele><time>2026-04-27T07:41:46.392Z</time></trkpt><trkpt lat="44.540022" lon="15.4175979"><ele>577.0</ele><time>2026-04-27T07:41:50.393Z</time></trkpt><trkpt lat="44.5400594" lon="15.417692"><ele>577.0</ele><time>2026-04-27T07:42:03.392Z</time></trkpt><trkpt lat="44.5400639" lon="15.417784"><ele>577.0</ele><time>2026-04-27T07:42:06.392Z</time></trkpt><trkpt lat="44.5400651" lon="15.4178959"><ele>577.0</ele><time>2026-04-27T07:42:10.392Z</time></trkpt><trkpt lat="44.540074" lon="15.4179856"><ele>577.0</ele><time>2026-04-27T07:42:28.392Z</time></trkpt><trkpt lat="44.5401335" lon="15.4180492"><ele>577.0</ele><time>2026-04-27T07:42:32.393Z</time></trkpt><trkpt lat="44.5401828" lon="15.4181062"><ele>576.6666666666667</ele><time>2026-04-27T07:42:35.393Z</time></trkpt><trkpt lat="44.5402378" lon="15.4181591"><ele>576.3333333333334</ele><time>2026-04-27T07:42:38.393Z</time></trkpt><trkpt lat="44.5403124" lon="15.4181812"><ele>576.0</ele><time>2026-04-27T07:42:41.392Z</time></trkpt><trkpt lat="44.5403876" lon="15.4182371"><ele>575.6666666666666</ele><time>2026-04-27T07:42:44.393Z</time></trkpt><trkpt lat="44.5404611" lon="15.4183145"><ele>575.3333333333333</ele><time>2026-04-27T07:42:47.392Z</time></trkpt><trkpt lat="44.5405231" lon="15.4183893"><ele>575.0</ele><time>2026-04-27T07:42:50.393Z</time></trkpt><trkpt lat="44.540596" lon="15.418452"><ele>574.8333333333333</ele><time>2026-04-27T07:42:53.392Z</time></trkpt><trkpt lat="44.5406562" lon="15.4184939"><ele>574.6666666666666</ele><time>2026-04-27T07:42:55.392Z</time></trkpt><trkpt lat="44.5407115" lon="15.418543"><ele>574.5</ele><time>2026-04-27T07:42:57.392Z</time></trkpt><trkpt lat="44.54077" lon="15.418634"><ele>574.3333333333334</ele><time>2026-04-27T07:43:00.392Z</time></trkpt><trkpt lat="44.5408002" lon="15.4187127"><ele>574.1666666666667</ele><time>2026-04-27T07:43:02.392Z</time></trkpt><trkpt lat="44.5409014" lon="15.4187859"><ele>574.0</ele><time>2026-04-27T07:43:14.392Z</time></trkpt><trkpt lat="44.5409904" lon="15.4188443"><ele>573.8</ele><time>2026-04-27T07:43:16.392Z</time></trkpt><trkpt lat="44.5410957" lon="15.4189056"><ele>573.5999999999999</ele><time>2026-04-27T07:43:18.393Z</time></trkpt><trkpt lat="44.5411958" lon="15.4189603"><ele>573.4</ele><time>2026-04-27T07:43:20.392Z</time></trkpt><trkpt lat="44.5412788" lon="15.4190178"><ele>573.1999999999999</ele><time>2026-04-27T07:43:22.392Z</time></trkpt><trkpt lat="44.5413575" lon="15.4190552"><ele>573.0</ele><time>2026-04-27T07:43:24.392Z</time></trkpt><trkpt lat="44.5414412" lon="15.419088"><ele>572.6</ele><time>2026-04-27T07:43:26.393Z</time></trkpt><trkpt lat="44.5415337" lon="15.4191063"><ele>572.1999999999999</ele><time>2026-04-27T07:43:29.393Z</time></trkpt><trkpt lat="44.5415977" lon="15.4191538"><ele>571.8</ele><time>2026-04-27T07:43:32.392Z</time></trkpt><trkpt lat="44.5417039" lon="15.4191683"><ele>571.4</ele><time>2026-04-27T07:43:34.392Z</time></trkpt><trkpt lat="44.5418041" lon="15.4191996"><ele>571.0</ele><time>2026-04-27T07:43:36.392Z</time></trkpt><trkpt lat="44.5419167" lon="15.4192535"><ele>571.0</ele><time>2026-04-27T07:43:38.392Z</time></trkpt><trkpt lat="44.5419803" lon="15.4192752"><ele>571.0</ele><time>2026-04-27T07:43:39.392Z</time></trkpt><trkpt lat="44.5420928" lon="15.419311"><ele>571.0</ele><time>2026-04-27T07:43:41.392Z</time></trkpt><trkpt lat="44.5422156" lon="15.4193213"><ele>571.0</ele><time>2026-04-27T07:43:43.393Z</time></trkpt><trkpt lat="44.5423178" lon="15.4193131"><ele>571.0</ele><time>2026-04-27T07:43:45.392Z</time></trkpt><trkpt lat="44.542378" lon="15.4192611"><ele>571.1428571428571</ele><time>2026-04-27T07:43:48.392Z</time></trkpt><trkpt lat="44.5424564" lon="15.4192763"><ele>571.2857142857142</ele><time>2026-04-27T07:43:50.392Z</time></trkpt><trkpt lat="44.5425267" lon="15.4192875"><ele>571.4285714285713</ele><time>2026-04-27T07:43:51.392Z</time></trkpt><trkpt lat="44.5425863" lon="15.4193193"><ele>571.5714285714286</ele><time>2026-04-27T07:43:52.392Z</time></trkpt><trkpt lat="44.5426547" lon="15.4193409"><ele>571.7142857142857</ele><time>2026-04-27T07:43:53.392Z</time></trkpt><trkpt lat="44.5427162" lon="15.4193674"><ele>571.8571428571428</ele><time>2026-04-27T07:43:54.392Z</time></trkpt><trkpt lat="44.542784" lon="15.4193941"><ele>572.0</ele><time>2026-04-27T07:43:55.393Z</time></trkpt><trkpt lat="44.542849" lon="15.4194193"><ele>572.1666666666666</ele><time>2026-04-27T07:43:56.392Z</time></trkpt><trkpt lat="44.5429182" lon="15.4194424"><ele>572.3333333333333</ele><time>2026-04-27T07:43:57.392Z</time></trkpt><trkpt lat="44.5429831" lon="15.4194633"><ele>572.5</ele><time>2026-04-27T07:43:58.392Z</time></trkpt><trkpt lat="44.5430866" lon="15.4194761"><ele>572.6666666666666</ele><time>2026-04-27T07:44:00.393Z</time></trkpt><trkpt lat="44.5431651" lon="15.4194541"><ele>572.8333333333334</ele><time>2026-04-27T07:44:02.392Z</time></trkpt><trkpt lat="44.5432394" lon="15.4194277"><ele>573.0</ele><time>2026-04-27T07:44:04.392Z</time></trkpt><trkpt lat="44.5433163" lon="15.4193861"><ele>573.0</ele><time>2026-04-27T07:44:06.392Z</time></trkpt><trkpt lat="44.5433937" lon="15.4193618"><ele>573.0</ele><time>2026-04-27T07:44:08.393Z</time></trkpt><trkpt lat="44.5434791" lon="15.4193529"><ele>573.0</ele><time>2026-04-27T07:44:11.392Z</time></trkpt><trkpt lat="44.5435499" lon="15.4193362"><ele>573.0</ele><time>2026-04-27T07:44:13.392Z</time></trkpt><trkpt lat="44.543624" lon="15.4193078"><ele>573.0</ele><time>2026-04-27T07:44:15.392Z</time></trkpt><trkpt lat="44.5436908" lon="15.419278"><ele>573.0</ele><time>2026-04-27T07:44:17.393Z</time></trkpt><trkpt lat="44.5437678" lon="15.4192511"><ele>573.1666666666666</ele><time>2026-04-27T07:44:19.392Z</time></trkpt><trkpt lat="44.5438484" lon="15.4192237"><ele>573.3333333333334</ele><time>2026-04-27T07:44:21.392Z</time></trkpt><trkpt lat="44.5439282" lon="15.4191934"><ele>573.5</ele><time>2026-04-27T07:44:23.392Z</time></trkpt><trkpt lat="44.5440101" lon="15.4191662"><ele>573.6666666666667</ele><time>2026-04-27T07:44:25.392Z</time></trkpt><trkpt lat="44.5440909" lon="15.4191396"><ele>573.8333333333334</ele><time>2026-04-27T07:44:27.393Z</time></trkpt><trkpt lat="44.5441614" lon="15.4191163"><ele>574.0</ele><time>2026-04-27T07:44:29.393Z</time></trkpt><trkpt lat="44.5442434" lon="15.4190721"><ele>574.0</ele><time>2026-04-27T07:44:32.392Z</time></trkpt><trkpt lat="44.5443387" lon="15.4190536"><ele>574.0</ele><time>2026-04-27T07:44:35.392Z</time></trkpt><trkpt lat="44.5444071" lon="15.4190484"><ele>574.0</ele><time>2026-04-27T07:44:37.392Z</time></trkpt><trkpt lat="44.544484" lon="15.4190136"><ele>574.0</ele><time>2026-04-27T07:44:40.392Z</time></trkpt><trkpt lat="44.5445699" lon="15.4189752"><ele>574.0</ele><time>2026-04-27T07:44:43.392Z</time></trkpt><trkpt lat="44.5446448" lon="15.4189124"><ele>574.0</ele><time>2026-04-27T07:44:46.392Z</time></trkpt><trkpt lat="44.5447003" lon="15.4188617"><ele>573.8333333333334</ele><time>2026-04-27T07:44:48.393Z</time></trkpt><trkpt lat="44.5447674" lon="15.4188075"><ele>573.6666666666667</ele><time>2026-04-27T07:44:50.392Z</time></trkpt><trkpt lat="44.5448265" lon="15.4187704"><ele>573.5</ele><time>2026-04-27T07:44:52.392Z</time></trkpt><trkpt lat="44.5449126" lon="15.418712"><ele>573.3333333333334</ele><time>2026-04-27T07:44:55.392Z</time></trkpt><trkpt lat="44.5449634" lon="15.4185927"><ele>573.1666666666666</ele><time>2026-04-27T07:44:57.392Z</time></trkpt><trkpt lat="44.5449975" lon="15.4184632"><ele>573.0</ele><time>2026-04-27T07:44:59.392Z</time></trkpt><trkpt lat="44.5450273" lon="15.4182901"><ele>573.0</ele><time>2026-04-27T07:45:01.392Z</time></trkpt><trkpt lat="44.5450691" lon="15.4181192"><ele>573.0</ele><time>2026-04-27T07:45:03.392Z</time></trkpt><trkpt lat="44.5451241" lon="15.4179709"><ele>573.0</ele><time>2026-04-27T07:45:05.392Z</time></trkpt><trkpt lat="44.5451939" lon="15.4178606"><ele>573.0</ele><time>2026-04-27T07:45:07.392Z</time></trkpt><trkpt lat="44.5452767" lon="15.4177618"><ele>573.0</ele><time>2026-04-27T07:45:09.393Z</time></trkpt><trkpt lat="44.5453478" lon="15.4176406"><ele>573.0</ele><time>2026-04-27T07:45:11.393Z</time></trkpt><trkpt lat="44.5454187" lon="15.4175452"><ele>573.0</ele><time>2026-04-27T07:45:13.392Z</time></trkpt><trkpt lat="44.5455212" lon="15.4174334"><ele>573.0</ele><time>2026-04-27T07:45:15.393Z</time></trkpt><trkpt lat="44.5456485" lon="15.4173672"><ele>572.7142857142858</ele><time>2026-04-27T07:45:17.392Z</time></trkpt><trkpt lat="44.5457127" lon="15.4173289"><ele>572.4285714285714</ele><time>2026-04-27T07:45:18.392Z</time></trkpt><trkpt lat="44.5457791" lon="15.4172938"><ele>572.1428571428571</ele><time>2026-04-27T07:45:19.392Z</time></trkpt><trkpt lat="44.545844" lon="15.4172784"><ele>571.8571428571429</ele><time>2026-04-27T07:45:20.392Z</time></trkpt><trkpt lat="44.5459137" lon="15.4172664"><ele>571.5714285714286</ele><time>2026-04-27T07:45:21.392Z</time></trkpt><trkpt lat="44.545983" lon="15.4172412"><ele>571.2857142857143</ele><time>2026-04-27T07:45:22.393Z</time></trkpt><trkpt lat="44.5460443" lon="15.4172114"><ele>571.0</ele><time>2026-04-27T07:45:23.393Z</time></trkpt><trkpt lat="44.5461329" lon="15.4171361"><ele>570.6666666666667</ele><time>2026-04-27T07:45:25.392Z</time></trkpt><trkpt lat="44.5462117" lon="15.417037"><ele>570.3333333333334</ele><time>2026-04-27T07:45:27.392Z</time></trkpt><trkpt lat="44.5462649" lon="15.4169155"><ele>570.0</ele><time>2026-04-27T07:45:29.393Z</time></trkpt><trkpt lat="44.546302" lon="15.4168264"><ele>569.6666666666666</ele><time>2026-04-27T07:45:30.392Z</time></trkpt><trkpt lat="44.5463409" lon="15.4167333"><ele>569.3333333333333</ele><time>2026-04-27T07:45:31.392Z</time></trkpt><trkpt lat="44.5463899" lon="15.4166499"><ele>569.0</ele><time>2026-04-27T07:45:32.392Z</time></trkpt><trkpt lat="44.5464613" lon="15.4165376"><ele>569.0000000000001</ele><time>2026-04-27T07:45:34.393Z</time></trkpt><trkpt lat="44.5465073" lon="15.4164736"><ele>569.0</ele><time>2026-04-27T07:45:35.392Z</time></trkpt><trkpt lat="44.5465468" lon="15.4164024"><ele>569.0</ele><time>2026-04-27T07:45:36.393Z</time></trkpt><trkpt lat="44.5466096" lon="15.4163058"><ele>569.0</ele><time>2026-04-27T07:45:37.392Z</time></trkpt><trkpt lat="44.5466646" lon="15.4162274"><ele>569.0</ele><time>2026-04-27T07:45:38.393Z</time></trkpt><trkpt lat="44.5467174" lon="15.4161619"><ele>569.0000000000001</ele><time>2026-04-27T07:45:39.393Z</time></trkpt><trkpt lat="44.5467756" lon="15.4161222"><ele>569.0</ele><time>2026-04-27T07:45:40.392Z</time></trkpt><trkpt lat="44.5468393" lon="15.4161077"><ele>569.0000000000001</ele><time>2026-04-27T07:45:41.392Z</time></trkpt><trkpt lat="44.5469025" lon="15.4161045"><ele>569.0</ele><time>2026-04-27T07:45:42.392Z</time></trkpt><trkpt lat="44.5469755" lon="15.4161087"><ele>569.0</ele><time>2026-04-27T07:45:43.393Z</time></trkpt><trkpt lat="44.5470531" lon="15.4161148"><ele>569.0</ele><time>2026-04-27T07:45:44.392Z</time></trkpt><trkpt lat="44.5471245" lon="15.4161113"><ele>569.0</ele><time>2026-04-27T07:45:45.392Z</time></trkpt><trkpt lat="44.5471869" lon="15.4160937"><ele>569.0000000000001</ele><time>2026-04-27T07:45:46.392Z</time></trkpt><trkpt lat="44.5472494" lon="15.4160591"><ele>569.0</ele><time>2026-04-27T07:45:47.392Z</time></trkpt><trkpt lat="44.5472977" lon="15.4159969"><ele>568.6666666666666</ele><time>2026-04-27T07:45:48.392Z</time></trkpt><trkpt lat="44.5473805" lon="15.4158933"><ele>568.3333333333333</ele><time>2026-04-27T07:45:50.392Z</time></trkpt><trkpt lat="44.5474215" lon="15.415799"><ele>568.0</ele><time>2026-04-27T07:45:52.392Z</time></trkpt><trkpt lat="44.5474673" lon="15.4157127"><ele>567.6666666666666</ele><time>2026-04-27T07:50:59.393Z</time></trkpt><trkpt lat="44.5475065" lon="15.4156384"><ele>567.3333333333334</ele><time>2026-04-27T07:51:01.392Z</time></trkpt><trkpt lat="44.5475707" lon="15.4155317"><ele>567.0</ele><time>2026-04-27T07:51:03.392Z</time></trkpt><trkpt lat="44.547634" lon="15.415445"><ele>566.6666666666666</ele><time>2026-04-27T07:51:06.392Z</time></trkpt><trkpt lat="44.5476828" lon="15.415368"><ele>566.3333333333334</ele><time>2026-04-27T07:51:08.393Z</time></trkpt><trkpt lat="44.5477356" lon="15.4152906"><ele>566.0</ele><time>2026-04-27T07:51:11.392Z</time></trkpt><trkpt lat="44.5477988" lon="15.4152051"><ele>565.6666666666667</ele><time>2026-04-27T07:51:14.392Z</time></trkpt><trkpt lat="44.5478622" lon="15.4151279"><ele>565.3333333333334</ele><time>2026-04-27T07:51:17.393Z</time></trkpt><trkpt lat="44.547915" lon="15.4150548"><ele>565.0</ele><time>2026-04-27T07:51:19.392Z</time></trkpt><trkpt lat="44.5479679" lon="15.4150028"><ele>564.5</ele><time>2026-04-27T07:51:21.392Z</time></trkpt><trkpt lat="44.5480559" lon="15.4149611"><ele>564.0</ele><time>2026-04-27T07:51:24.392Z</time></trkpt><trkpt lat="44.5481195" lon="15.4149418"><ele>563.5</ele><time>2026-04-27T07:51:46.393Z</time></trkpt><trkpt lat="44.5482156" lon="15.4149076"><ele>563.0</ele><time>2026-04-27T07:51:48.393Z</time></trkpt><trkpt lat="44.5482973" lon="15.4148779"><ele>562.5</ele><time>2026-04-27T07:51:50.393Z</time></trkpt><trkpt lat="44.5483757" lon="15.4148742"><ele>562.0</ele><time>2026-04-27T07:51:52.392Z</time></trkpt><trkpt lat="44.5484453" lon="15.4148569"><ele>562.0</ele><time>2026-04-27T07:51:54.392Z</time></trkpt><trkpt lat="44.5485158" lon="15.4148014"><ele>562.0</ele><time>2026-04-27T07:51:56.393Z</time></trkpt><trkpt lat="44.548553" lon="15.4146882"><ele>562.0</ele><time>2026-04-27T07:51:58.392Z</time></trkpt><trkpt lat="44.5485784" lon="15.4145905"><ele>562.0</ele><time>2026-04-27T07:52:00.392Z</time></trkpt><trkpt lat="44.5486375" lon="15.4145104"><ele>562.0</ele><time>2026-04-27T07:52:02.392Z</time></trkpt><trkpt lat="44.5487184" lon="15.4144356"><ele>562.0</ele><time>2026-04-27T07:52:04.393Z</time></trkpt><trkpt lat="44.5488134" lon="15.4143686"><ele>560.6</ele><time>2026-04-27T07:52:06.392Z</time></trkpt><trkpt lat="44.5489006" lon="15.4143195"><ele>559.2</ele><time>2026-04-27T07:52:08.392Z</time></trkpt><trkpt lat="44.5490024" lon="15.4142342"><ele>557.8</ele><time>2026-04-27T07:52:10.392Z</time></trkpt><trkpt lat="44.5490987" lon="15.4141597"><ele>556.4</ele><time>2026-04-27T07:52:12.392Z</time></trkpt><trkpt lat="44.5491946" lon="15.4141097"><ele>555.0</ele><time>2026-04-27T07:52:14.392Z</time></trkpt><trkpt lat="44.5492781" lon="15.4141059"><ele>555.0</ele><time>2026-04-27T07:52:16.392Z</time></trkpt><trkpt lat="44.5493399" lon="15.4141616"><ele>555.0</ele><time>2026-04-27T07:52:18.392Z</time></trkpt><trkpt lat="44.5493984" lon="15.4143028"><ele>555.0</ele><time>2026-04-27T07:52:20.392Z</time></trkpt><trkpt lat="44.5494292" lon="15.41439"><ele>555.0</ele><time>2026-04-27T07:52:21.392Z</time></trkpt><trkpt lat="44.5494696" lon="15.4144811"><ele>555.0</ele><time>2026-04-27T07:52:22.392Z</time></trkpt><trkpt lat="44.5495237" lon="15.4145865"><ele>555.0</ele><time>2026-04-27T07:52:23.392Z</time></trkpt><trkpt lat="44.5495773" lon="15.4146954"><ele>555.0</ele><time>2026-04-27T07:52:24.393Z</time></trkpt><trkpt lat="44.5496276" lon="15.4148003"><ele>555.0</ele><time>2026-04-27T07:52:25.392Z</time></trkpt><trkpt lat="44.5496625" lon="15.4148983"><ele>555.0</ele><time>2026-04-27T07:52:26.392Z</time></trkpt><trkpt lat="44.5496748" lon="15.4149949"><ele>555.0</ele><time>2026-04-27T07:52:27.392Z</time></trkpt><trkpt lat="44.5496605" lon="15.4150875"><ele>555.0</ele><time>2026-04-27T07:52:28.392Z</time></trkpt><trkpt lat="44.549635" lon="15.4151888"><ele>555.0</ele><time>2026-04-27T07:52:29.392Z</time></trkpt><trkpt lat="44.5496044" lon="15.4152996"><ele>555.0</ele><time>2026-04-27T07:52:30.392Z</time></trkpt><trkpt lat="44.5495807" lon="15.4154157"><ele>555.0</ele><time>2026-04-27T07:52:31.393Z</time></trkpt><trkpt lat="44.549586" lon="15.4155259"><ele>555.0</ele><time>2026-04-27T07:52:32.392Z</time></trkpt><trkpt lat="44.5496116" lon="15.4156437"><ele>555.0</ele><time>2026-04-27T07:52:33.392Z</time></trkpt><trkpt lat="44.5496565" lon="15.415752"><ele>555.0</ele><time>2026-04-27T07:52:34.393Z</time></trkpt><trkpt lat="44.5497104" lon="15.4158658"><ele>555.0</ele><time>2026-04-27T07:52:35.392Z</time></trkpt><trkpt lat="44.5497787" lon="15.4159823"><ele>556.75</ele><time>2026-04-27T07:52:36.392Z</time></trkpt><trkpt lat="44.549852" lon="15.4160938"><ele>558.5</ele><time>2026-04-27T07:52:37.393Z</time></trkpt><trkpt lat="44.5499346" lon="15.4162028"><ele>560.25</ele><time>2026-04-27T07:52:38.392Z</time></trkpt><trkpt lat="44.5500232" lon="15.4163105"><ele>562.0</ele><time>2026-04-27T07:52:39.392Z</time></trkpt><trkpt lat="44.5501111" lon="15.4164194"><ele>563.0</ele><time>2026-04-27T07:52:40.392Z</time></trkpt><trkpt lat="44.5501996" lon="15.4165273"><ele>564.0</ele><time>2026-04-27T07:52:41.393Z</time></trkpt><trkpt lat="44.5502897" lon="15.4166439"><ele>565.0</ele><time>2026-04-27T07:52:42.392Z</time></trkpt><trkpt lat="44.5503813" lon="15.4167588"><ele>566.0</ele><time>2026-04-27T07:52:43.392Z</time></trkpt><trkpt lat="44.550467" lon="15.4168623"><ele>566.1666666666666</ele><time>2026-04-27T07:52:44.392Z</time></trkpt><trkpt lat="44.5505441" lon="15.4169607"><ele>566.3333333333333</ele><time>2026-04-27T07:52:45.393Z</time></trkpt><trkpt lat="44.5506147" lon="15.417048"><ele>566.5</ele><time>2026-04-27T07:52:46.393Z</time></trkpt><trkpt lat="44.5506821" lon="15.4171246"><ele>566.6666666666666</ele><time>2026-04-27T07:52:47.392Z</time></trkpt><trkpt lat="44.5507399" lon="15.4172002"><ele>566.8333333333334</ele><time>2026-04-27T07:52:48.393Z</time></trkpt><trkpt lat="44.5507767" lon="15.4172873"><ele>567.0</ele><time>2026-04-27T07:52:49.392Z</time></trkpt><trkpt lat="44.5507929" lon="15.4173911"><ele>567.2</ele><time>2026-04-27T07:52:50.392Z</time></trkpt><trkpt lat="44.5507811" lon="15.417503"><ele>567.4000000000001</ele><time>2026-04-27T07:52:51.393Z</time></trkpt><trkpt lat="44.550754" lon="15.4176272"><ele>567.5999999999999</ele><time>2026-04-27T07:52:52.393Z</time></trkpt><trkpt lat="44.5507191" lon="15.417763"><ele>567.8</ele><time>2026-04-27T07:52:53.393Z</time></trkpt><trkpt lat="44.5506717" lon="15.4179103"><ele>568.0</ele><time>2026-04-27T07:52:54.393Z</time></trkpt><trkpt lat="44.5506207" lon="15.4180652"><ele>568.0</ele><time>2026-04-27T07:52:55.393Z</time></trkpt><trkpt lat="44.5505689" lon="15.4182201"><ele>568.0</ele><time>2026-04-27T07:52:56.393Z</time></trkpt><trkpt lat="44.550516" lon="15.4183685"><ele>568.0</ele><time>2026-04-27T07:52:57.392Z</time></trkpt><trkpt lat="44.5504651" lon="15.4185069"><ele>568.0</ele><time>2026-04-27T07:52:58.392Z</time></trkpt><trkpt lat="44.5504105" lon="15.418649"><ele>568.0</ele><time>2026-04-27T07:52:59.392Z</time></trkpt><trkpt lat="44.5503517" lon="15.4187887"><ele>568.0</ele><time>2026-04-27T07:53:00.392Z</time></trkpt><trkpt lat="44.5503019" lon="15.4189176"><ele>568.0</ele><time>2026-04-27T07:53:01.392Z</time></trkpt><trkpt lat="44.5502711" lon="15.4190443"><ele>568.0</ele><time>2026-04-27T07:53:02.393Z</time></trkpt><trkpt lat="44.55026" lon="15.4191545"><ele>568.0</ele><time>2026-04-27T07:53:03.392Z</time></trkpt><trkpt lat="44.5502598" lon="15.4192685"><ele>568.4</ele><time>2026-04-27T07:53:04.393Z</time></trkpt><trkpt lat="44.5502782" lon="15.4193943"><ele>568.8</ele><time>2026-04-27T07:53:05.393Z</time></trkpt><trkpt lat="44.5503132" lon="15.4195317"><ele>569.2</ele><time>2026-04-27T07:53:06.392Z</time></trkpt><trkpt lat="44.550364" lon="15.4196625"><ele>569.6</ele><time>2026-04-27T07:53:07.392Z</time></trkpt><trkpt lat="44.5504225" lon="15.4197888"><ele>570.0</ele><time>2026-04-27T07:53:08.392Z</time></trkpt><trkpt lat="44.5504904" lon="15.4199153"><ele>570.4</ele><time>2026-04-27T07:53:09.393Z</time></trkpt><trkpt lat="44.5505654" lon="15.4200449"><ele>570.8</ele><time>2026-04-27T07:53:10.386Z</time></trkpt><trkpt lat="44.5506326" lon="15.4201732"><ele>571.2</ele><time>2026-04-27T07:53:11.386Z</time></trkpt><trkpt lat="44.5506916" lon="15.4202863"><ele>571.6</ele><time>2026-04-27T07:53:12.385Z</time></trkpt><trkpt lat="44.5507432" lon="15.4203965"><ele>572.0</ele><time>2026-04-27T07:53:13.386Z</time></trkpt><trkpt lat="44.5507878" lon="15.4205004"><ele>572.0</ele><time>2026-04-27T07:53:14.385Z</time></trkpt><trkpt lat="44.55083" lon="15.4205983"><ele>572.0</ele><time>2026-04-27T07:53:15.386Z</time></trkpt><trkpt lat="44.5508709" lon="15.4206844"><ele>572.0</ele><time>2026-04-27T07:53:16.386Z</time></trkpt><trkpt lat="44.550908" lon="15.4207837"><ele>572.0</ele><time>2026-04-27T07:53:17.386Z</time></trkpt><trkpt lat="44.5509495" lon="15.4208984"><ele>572.0</ele><time>2026-04-27T07:53:18.386Z</time></trkpt><trkpt lat="44.5509975" lon="15.4210208"><ele>572.0</ele><time>2026-04-27T07:53:19.387Z</time></trkpt><trkpt lat="44.5510521" lon="15.4211523"><ele>572.0</ele><time>2026-04-27T07:53:20.387Z</time></trkpt><trkpt lat="44.5511133" lon="15.4212806"><ele>572.0</ele><time>2026-04-27T07:53:21.387Z</time></trkpt><trkpt lat="44.5511661" lon="15.4214002"><ele>572.0</ele><time>2026-04-27T07:53:22.386Z</time></trkpt><trkpt lat="44.5512186" lon="15.4215364"><ele>572.0</ele><time>2026-04-27T07:53:23.386Z</time></trkpt><trkpt lat="44.5512723" lon="15.4216772"><ele>572.0</ele><time>2026-04-27T07:53:24.386Z</time></trkpt><trkpt lat="44.5513317" lon="15.4218227"><ele>571.5</ele><time>2026-04-27T07:53:25.386Z</time></trkpt><trkpt lat="44.551385" lon="15.4219658"><ele>571.0</ele><time>2026-04-27T07:53:26.386Z</time></trkpt><trkpt lat="44.5514341" lon="15.4221135"><ele>570.5</ele><time>2026-04-27T07:53:27.386Z</time></trkpt><trkpt lat="44.5514754" lon="15.4222725"><ele>570.0</ele><time>2026-04-27T07:53:28.387Z</time></trkpt><trkpt lat="44.5515024" lon="15.4224356"><ele>569.4</ele><time>2026-04-27T07:53:29.386Z</time></trkpt><trkpt lat="44.5515244" lon="15.4225945"><ele>568.8</ele><time>2026-04-27T07:53:30.386Z</time></trkpt><trkpt lat="44.5515539" lon="15.4227439"><ele>568.2</ele><time>2026-04-27T07:53:31.387Z</time></trkpt><trkpt lat="44.5515883" lon="15.422885"><ele>567.6</ele><time>2026-04-27T07:53:32.386Z</time></trkpt><trkpt lat="44.551628" lon="15.4230242"><ele>567.0</ele><time>2026-04-27T07:53:33.386Z</time></trkpt><trkpt lat="44.5516741" lon="15.4231697"><ele>567.0</ele><time>2026-04-27T07:53:34.386Z</time></trkpt><trkpt lat="44.5517237" lon="15.423318"><ele>567.0</ele><time>2026-04-27T07:53:35.386Z</time></trkpt><trkpt lat="44.551779" lon="15.4234665"><ele>567.0</ele><time>2026-04-27T07:53:36.386Z</time></trkpt><trkpt lat="44.5518324" lon="15.4236232"><ele>567.0</ele><time>2026-04-27T07:53:37.386Z</time></trkpt><trkpt lat="44.5518862" lon="15.4237776"><ele>567.2</ele><time>2026-04-27T07:53:38.386Z</time></trkpt><trkpt lat="44.5519303" lon="15.4239354"><ele>567.4000000000001</ele><time>2026-04-27T07:53:39.386Z</time></trkpt><trkpt lat="44.5519735" lon="15.4240896"><ele>567.5999999999999</ele><time>2026-04-27T07:53:40.386Z</time></trkpt><trkpt lat="44.5520107" lon="15.4242234"><ele>567.8</ele><time>2026-04-27T07:53:41.387Z</time></trkpt><trkpt lat="44.5520473" lon="15.424358"><ele>568.0</ele><time>2026-04-27T07:53:42.387Z</time></trkpt><trkpt lat="44.5520802" lon="15.4244961"><ele>568.0</ele><time>2026-04-27T07:53:43.386Z</time></trkpt><trkpt lat="44.5521129" lon="15.4246344"><ele>568.0</ele><time>2026-04-27T07:53:44.387Z</time></trkpt><trkpt lat="44.5521479" lon="15.4247701"><ele>568.0</ele><time>2026-04-27T07:53:45.387Z</time></trkpt><trkpt lat="44.5521857" lon="15.4248998"><ele>568.0</ele><time>2026-04-27T07:53:46.386Z</time></trkpt><trkpt lat="44.552225" lon="15.425037"><ele>568.0</ele><time>2026-04-27T07:53:47.386Z</time></trkpt><trkpt lat="44.5522662" lon="15.425175"><ele>568.4</ele><time>2026-04-27T07:53:48.386Z</time></trkpt><trkpt lat="44.5523056" lon="15.4253053"><ele>568.8</ele><time>2026-04-27T07:53:49.386Z</time></trkpt><trkpt lat="44.5523449" lon="15.4254314"><ele>569.2</ele><time>2026-04-27T07:53:50.386Z</time></trkpt><trkpt lat="44.5523853" lon="15.4255589"><ele>569.6</ele><time>2026-04-27T07:53:51.386Z</time></trkpt><trkpt lat="44.5524209" lon="15.4256881"><ele>570.0</ele><time>2026-04-27T07:53:52.386Z</time></trkpt><trkpt lat="44.5524582" lon="15.4258191"><ele>570.4</ele><time>2026-04-27T07:53:53.386Z</time></trkpt><trkpt lat="44.5524958" lon="15.4259437"><ele>570.8</ele><time>2026-04-27T07:53:54.386Z</time></trkpt><trkpt lat="44.5525287" lon="15.4260668"><ele>571.2</ele><time>2026-04-27T07:53:55.386Z</time></trkpt><trkpt lat="44.5525615" lon="15.4261928"><ele>571.6</ele><time>2026-04-27T07:53:56.386Z</time></trkpt><trkpt lat="44.5525962" lon="15.4263145"><ele>572.0</ele><time>2026-04-27T07:53:57.387Z</time></trkpt><trkpt lat="44.5526334" lon="15.4264401"><ele>572.4</ele><time>2026-04-27T07:53:58.386Z</time></trkpt><trkpt lat="44.5526575" lon="15.4265687"><ele>572.8000000000001</ele><time>2026-04-27T07:53:59.386Z</time></trkpt><trkpt lat="44.552689" lon="15.4267002"><ele>573.2</ele><time>2026-04-27T07:54:00.387Z</time></trkpt><trkpt lat="44.5527281" lon="15.426827"><ele>573.6</ele><time>2026-04-27T07:54:01.386Z</time></trkpt><trkpt lat="44.5527703" lon="15.4269494"><ele>574.0</ele><time>2026-04-27T07:54:02.386Z</time></trkpt><trkpt lat="44.5528161" lon="15.427073"><ele>574.0</ele><time>2026-04-27T07:54:03.386Z</time></trkpt><trkpt lat="44.5528672" lon="15.4271973"><ele>574.0</ele><time>2026-04-27T07:54:04.386Z</time></trkpt><trkpt lat="44.5529121" lon="15.4273296"><ele>574.0</ele><time>2026-04-27T07:54:05.386Z</time></trkpt><trkpt lat="44.5529581" lon="15.427454"><ele>574.0</ele><time>2026-04-27T07:54:06.387Z</time></trkpt><trkpt lat="44.5530011" lon="15.4275812"><ele>574.0</ele><time>2026-04-27T07:54:07.386Z</time></trkpt><trkpt lat="44.5530455" lon="15.4277125"><ele>574.0</ele><time>2026-04-27T07:54:08.386Z</time></trkpt><trkpt lat="44.5530978" lon="15.4278434"><ele>574.0</ele><time>2026-04-27T07:54:09.386Z</time></trkpt><trkpt lat="44.5531558" lon="15.4279732"><ele>574.0</ele><time>2026-04-27T07:54:10.387Z</time></trkpt><trkpt lat="44.5532101" lon="15.4280981"><ele>574.0</ele><time>2026-04-27T07:54:11.387Z</time></trkpt><trkpt lat="44.5532622" lon="15.4282142"><ele>574.0</ele><time>2026-04-27T07:54:12.386Z</time></trkpt><trkpt lat="44.5533105" lon="15.4283321"><ele>574.4</ele><time>2026-04-27T07:54:13.386Z</time></trkpt><trkpt lat="44.55336" lon="15.4284496"><ele>574.8</ele><time>2026-04-27T07:54:14.386Z</time></trkpt><trkpt lat="44.5534125" lon="15.4285685"><ele>575.2</ele><time>2026-04-27T07:54:15.386Z</time></trkpt><trkpt lat="44.5534686" lon="15.4286912"><ele>575.6</ele><time>2026-04-27T07:54:16.386Z</time></trkpt><trkpt lat="44.5535232" lon="15.4288098"><ele>576.0</ele><time>2026-04-27T07:54:17.386Z</time></trkpt><trkpt lat="44.553577" lon="15.4289243"><ele>576.1666666666666</ele><time>2026-04-27T07:54:18.386Z</time></trkpt><trkpt lat="44.5536293" lon="15.4290342"><ele>576.3333333333334</ele><time>2026-04-27T07:54:19.386Z</time></trkpt><trkpt lat="44.5536848" lon="15.4291418"><ele>576.5</ele><time>2026-04-27T07:54:20.386Z</time></trkpt><trkpt lat="44.5537413" lon="15.4292349"><ele>576.6666666666667</ele><time>2026-04-27T07:54:21.387Z</time></trkpt><trkpt lat="44.5537962" lon="15.4293245"><ele>576.8333333333334</ele><time>2026-04-27T07:54:22.386Z</time></trkpt><trkpt lat="44.5538448" lon="15.4294077"><ele>577.0</ele><time>2026-04-27T07:54:23.386Z</time></trkpt><trkpt lat="44.5538938" lon="15.4294799"><ele>577.0</ele><time>2026-04-27T07:54:24.386Z</time></trkpt><trkpt lat="44.5539406" lon="15.4295482"><ele>577.0</ele><time>2026-04-27T07:54:25.386Z</time></trkpt><trkpt lat="44.5540147" lon="15.4296754"><ele>577.0</ele><time>2026-04-27T07:54:27.387Z</time></trkpt><trkpt lat="44.5540476" lon="15.4297593"><ele>577.0</ele><time>2026-04-27T07:54:28.386Z</time></trkpt><trkpt lat="44.5540826" lon="15.4298599"><ele>577.0</ele><time>2026-04-27T07:54:29.387Z</time></trkpt><trkpt lat="44.5541206" lon="15.4299665"><ele>577.0</ele><time>2026-04-27T07:54:30.386Z</time></trkpt><trkpt lat="44.5541573" lon="15.4300853"><ele>577.6</ele><time>2026-04-27T07:54:31.387Z</time></trkpt><trkpt lat="44.5541931" lon="15.4302151"><ele>578.2</ele><time>2026-04-27T07:54:32.386Z</time></trkpt><trkpt lat="44.5542261" lon="15.4303514"><ele>578.8</ele><time>2026-04-27T07:54:33.386Z</time></trkpt><trkpt lat="44.5542625" lon="15.4304963"><ele>579.4</ele><time>2026-04-27T07:54:34.386Z</time></trkpt><trkpt lat="44.5542959" lon="15.4306237"><ele>580.0</ele><time>2026-04-27T07:54:35.386Z</time></trkpt><trkpt lat="44.5543315" lon="15.4307542"><ele>580.0</ele><time>2026-04-27T07:54:36.386Z</time></trkpt><trkpt lat="44.554366" lon="15.4308896"><ele>580.0</ele><time>2026-04-27T07:54:37.387Z</time></trkpt><trkpt lat="44.5544047" lon="15.4310295"><ele>580.0</ele><time>2026-04-27T07:54:38.386Z</time></trkpt><trkpt lat="44.5544441" lon="15.4311658"><ele>580.0</ele><time>2026-04-27T07:54:39.386Z</time></trkpt><trkpt lat="44.5544802" lon="15.4313091"><ele>580.0</ele><time>2026-04-27T07:54:40.386Z</time></trkpt><trkpt lat="44.5545185" lon="15.4314534"><ele>580.0</ele><time>2026-04-27T07:54:41.386Z</time></trkpt><trkpt lat="44.5545586" lon="15.4315997"><ele>580.0</ele><time>2026-04-27T07:54:42.386Z</time></trkpt><trkpt lat="44.5546006" lon="15.4317501"><ele>580.0</ele><time>2026-04-27T07:54:43.386Z</time></trkpt><trkpt lat="44.5546449" lon="15.4318971"><ele>580.0</ele><time>2026-04-27T07:54:44.387Z</time></trkpt><trkpt lat="44.554695" lon="15.4320504"><ele>580.0</ele><time>2026-04-27T07:54:45.386Z</time></trkpt><trkpt lat="44.5547499" lon="15.4321993"><ele>580.0</ele><time>2026-04-27T07:54:46.386Z</time></trkpt><trkpt lat="44.5548125" lon="15.4323478"><ele>580.0</ele><time>2026-04-27T07:54:47.386Z</time></trkpt><trkpt lat="44.5548751" lon="15.4324976"><ele>580.0</ele><time>2026-04-27T07:54:48.386Z</time></trkpt><trkpt lat="44.5549457" lon="15.4326625"><ele>580.0</ele><time>2026-04-27T07:54:49.386Z</time></trkpt><trkpt lat="44.5550177" lon="15.4328318"><ele>580.0</ele><time>2026-04-27T07:54:50.386Z</time></trkpt><trkpt lat="44.555086" lon="15.4330001"><ele>580.0</ele><time>2026-04-27T07:54:51.387Z</time></trkpt><trkpt lat="44.5551488" lon="15.4331713"><ele>580.0</ele><time>2026-04-27T07:54:52.386Z</time></trkpt><trkpt lat="44.5552045" lon="15.4333322"><ele>579.6</ele><time>2026-04-27T07:54:53.387Z</time></trkpt><trkpt lat="44.5552533" lon="15.4334779"><ele>579.2</ele><time>2026-04-27T07:54:54.387Z</time></trkpt><trkpt lat="44.5553027" lon="15.4336147"><ele>578.8</ele><time>2026-04-27T07:54:55.386Z</time></trkpt><trkpt lat="44.5553384" lon="15.4337434"><ele>578.4</ele><time>2026-04-27T07:54:56.386Z</time></trkpt><trkpt lat="44.5553807" lon="15.4338767"><ele>578.0</ele><time>2026-04-27T07:54:57.386Z</time></trkpt><trkpt lat="44.5554288" lon="15.4340123"><ele>577.4</ele><time>2026-04-27T07:54:58.387Z</time></trkpt><trkpt lat="44.5554747" lon="15.4341584"><ele>576.8</ele><time>2026-04-27T07:54:59.386Z</time></trkpt><trkpt lat="44.555528" lon="15.4343037"><ele>576.2</ele><time>2026-04-27T07:55:00.387Z</time></trkpt><trkpt lat="44.555576" lon="15.4344396"><ele>575.6</ele><time>2026-04-27T07:55:01.386Z</time></trkpt><trkpt lat="44.5556214" lon="15.4345693"><ele>575.0</ele><time>2026-04-27T07:55:02.387Z</time></trkpt><trkpt lat="44.5556616" lon="15.4346956"><ele>575.0</ele><time>2026-04-27T07:55:03.386Z</time></trkpt><trkpt lat="44.5557081" lon="15.434825"><ele>575.0</ele><time>2026-04-27T07:55:04.386Z</time></trkpt><trkpt lat="44.5557569" lon="15.4349542"><ele>575.0</ele><time>2026-04-27T07:55:05.386Z</time></trkpt><trkpt lat="44.5558129" lon="15.4350959"><ele>575.0</ele><time>2026-04-27T07:55:06.386Z</time></trkpt><trkpt lat="44.5558711" lon="15.4352358"><ele>575.0</ele><time>2026-04-27T07:55:07.386Z</time></trkpt><trkpt lat="44.5559341" lon="15.4353766"><ele>575.25</ele><time>2026-04-27T07:55:08.386Z</time></trkpt><trkpt lat="44.5560007" lon="15.43552"><ele>575.5</ele><time>2026-04-27T07:55:09.386Z</time></trkpt><trkpt lat="44.5560648" lon="15.4356668"><ele>575.75</ele><time>2026-04-27T07:55:10.386Z</time></trkpt><trkpt lat="44.5561272" lon="15.435815"><ele>576.0</ele><time>2026-04-27T07:55:11.386Z</time></trkpt><trkpt lat="44.5561841" lon="15.4359489"><ele>575.8</ele><time>2026-04-27T07:55:12.386Z</time></trkpt><trkpt lat="44.5562438" lon="15.4360799"><ele>575.6</ele><time>2026-04-27T07:55:13.387Z</time></trkpt><trkpt lat="44.5563026" lon="15.4362193"><ele>575.4</ele><time>2026-04-27T07:55:14.387Z</time></trkpt><trkpt lat="44.5563559" lon="15.4363507"><ele>575.2</ele><time>2026-04-27T07:55:15.386Z</time></trkpt><trkpt lat="44.556407" lon="15.4364783"><ele>575.0</ele><time>2026-04-27T07:55:16.386Z</time></trkpt><trkpt lat="44.5564566" lon="15.4366035"><ele>575.75</ele><time>2026-04-27T07:55:17.386Z</time></trkpt><trkpt lat="44.5565121" lon="15.4367267"><ele>576.5</ele><time>2026-04-27T07:55:18.387Z</time></trkpt><trkpt lat="44.5565805" lon="15.4368505"><ele>577.25</ele><time>2026-04-27T07:55:19.386Z</time></trkpt><trkpt lat="44.5566484" lon="15.4369869"><ele>578.0</ele><time>2026-04-27T07:55:20.387Z</time></trkpt><trkpt lat="44.5567171" lon="15.4371276"><ele>578.5</ele><time>2026-04-27T07:55:21.387Z</time></trkpt><trkpt lat="44.5567937" lon="15.4372776"><ele>579.0</ele><time>2026-04-27T07:55:22.386Z</time></trkpt><trkpt lat="44.5568733" lon="15.4374352"><ele>579.5</ele><time>2026-04-27T07:55:23.387Z</time></trkpt><trkpt lat="44.5569516" lon="15.4375859"><ele>580.0</ele><time>2026-04-27T07:55:24.386Z</time></trkpt><trkpt lat="44.5570278" lon="15.4377248"><ele>579.0</ele><time>2026-04-27T07:55:25.387Z</time></trkpt><trkpt lat="44.5571008" lon="15.4378581"><ele>578.0</ele><time>2026-04-27T07:55:26.387Z</time></trkpt><trkpt lat="44.5571685" lon="15.437995"><ele>577.0</ele><time>2026-04-27T07:55:27.386Z</time></trkpt><trkpt lat="44.557237" lon="15.4381329"><ele>576.0</ele><time>2026-04-27T07:55:28.386Z</time></trkpt><trkpt lat="44.5573002" lon="15.4382743"><ele>575.8</ele><time>2026-04-27T07:55:29.386Z</time></trkpt><trkpt lat="44.5573595" lon="15.4384124"><ele>575.6</ele><time>2026-04-27T07:55:30.386Z</time></trkpt><trkpt lat="44.5574171" lon="15.4385421"><ele>575.4</ele><time>2026-04-27T07:55:31.386Z</time></trkpt><trkpt lat="44.5574781" lon="15.4386701"><ele>575.2</ele><time>2026-04-27T07:55:32.386Z</time></trkpt><trkpt lat="44.5575426" lon="15.4388025"><ele>575.0</ele><time>2026-04-27T07:55:33.386Z</time></trkpt><trkpt lat="44.5576044" lon="15.43893"><ele>574.8</ele><time>2026-04-27T07:55:34.386Z</time></trkpt><trkpt lat="44.5576557" lon="15.4390571"><ele>574.6</ele><time>2026-04-27T07:55:35.386Z</time></trkpt><trkpt lat="44.5577088" lon="15.439189"><ele>574.4</ele><time>2026-04-27T07:55:36.386Z</time></trkpt><trkpt lat="44.5577359" lon="15.4393186"><ele>574.2</ele><time>2026-04-27T07:55:37.386Z</time></trkpt><trkpt lat="44.5577679" lon="15.439457"><ele>574.0</ele><time>2026-04-27T07:55:38.386Z</time></trkpt><trkpt lat="44.5578005" lon="15.4396008"><ele>574.0</ele><time>2026-04-27T07:55:39.386Z</time></trkpt><trkpt lat="44.5578322" lon="15.4397528"><ele>574.0</ele><time>2026-04-27T07:55:40.386Z</time></trkpt><trkpt lat="44.5578653" lon="15.4399129"><ele>574.0</ele><time>2026-04-27T07:55:41.386Z</time></trkpt><trkpt lat="44.5578918" lon="15.4400817"><ele>574.0</ele><time>2026-04-27T07:55:42.386Z</time></trkpt><trkpt lat="44.5579222" lon="15.4402287"><ele>574.0</ele><time>2026-04-27T07:55:43.386Z</time></trkpt><trkpt lat="44.5579558" lon="15.4403623"><ele>574.0</ele><time>2026-04-27T07:55:44.386Z</time></trkpt><trkpt lat="44.5579808" lon="15.4404865"><ele>574.0</ele><time>2026-04-27T07:55:45.386Z</time></trkpt><trkpt lat="44.5580019" lon="15.4406097"><ele>574.0</ele><time>2026-04-27T07:55:46.386Z</time></trkpt><trkpt lat="44.5580305" lon="15.4407444"><ele>574.0</ele><time>2026-04-27T07:55:47.386Z</time></trkpt><trkpt lat="44.5580505" lon="15.4408847"><ele>574.2</ele><time>2026-04-27T07:55:48.386Z</time></trkpt><trkpt lat="44.5580707" lon="15.4410278"><ele>574.4</ele><time>2026-04-27T07:55:49.386Z</time></trkpt><trkpt lat="44.5580966" lon="15.4411756"><ele>574.6</ele><time>2026-04-27T07:55:50.387Z</time></trkpt><trkpt lat="44.558133" lon="15.441322"><ele>574.8</ele><time>2026-04-27T07:55:51.386Z</time></trkpt><trkpt lat="44.5581709" lon="15.4414569"><ele>575.0</ele><time>2026-04-27T07:55:52.386Z</time></trkpt><trkpt lat="44.5582087" lon="15.441587"><ele>575.0</ele><time>2026-04-27T07:55:53.386Z</time></trkpt><trkpt lat="44.558247" lon="15.4417065"><ele>575.0</ele><time>2026-04-27T07:55:54.386Z</time></trkpt><trkpt lat="44.5582809" lon="15.4418214"><ele>575.0</ele><time>2026-04-27T07:55:55.386Z</time></trkpt><trkpt lat="44.5583176" lon="15.4419387"><ele>575.0</ele><time>2026-04-27T07:55:56.387Z</time></trkpt><trkpt lat="44.5583525" lon="15.4420715"><ele>575.0</ele><time>2026-04-27T07:55:57.386Z</time></trkpt><trkpt lat="44.5583843" lon="15.4422065"><ele>575.2</ele><time>2026-04-27T07:55:58.386Z</time></trkpt><trkpt lat="44.5584096" lon="15.4423436"><ele>575.4</ele><time>2026-04-27T07:55:59.387Z</time></trkpt><trkpt lat="44.5584358" lon="15.442484"><ele>575.6</ele><time>2026-04-27T07:56:00.386Z</time></trkpt><trkpt lat="44.5584715" lon="15.4426242"><ele>575.8</ele><time>2026-04-27T07:56:01.387Z</time></trkpt><trkpt lat="44.5585148" lon="15.4427681"><ele>576.0</ele><time>2026-04-27T07:56:02.387Z</time></trkpt><trkpt lat="44.558554" lon="15.442918"><ele>576.2</ele><time>2026-04-27T07:56:03.386Z</time></trkpt><trkpt lat="44.5586028" lon="15.4430682"><ele>576.4000000000001</ele><time>2026-04-27T07:56:04.386Z</time></trkpt><trkpt lat="44.5586453" lon="15.4432019"><ele>576.6</ele><time>2026-04-27T07:56:05.386Z</time></trkpt><trkpt lat="44.5586892" lon="15.4433253"><ele>576.8000000000001</ele><time>2026-04-27T07:56:06.386Z</time></trkpt><trkpt lat="44.5587456" lon="15.4434495"><ele>577.0</ele><time>2026-04-27T07:56:07.386Z</time></trkpt><trkpt lat="44.5588003" lon="15.4435751"><ele>577.0</ele><time>2026-04-27T07:56:08.386Z</time></trkpt><trkpt lat="44.5588522" lon="15.4436887"><ele>577.0</ele><time>2026-04-27T07:56:09.386Z</time></trkpt><trkpt lat="44.5589013" lon="15.4438243"><ele>577.0</ele><time>2026-04-27T07:56:10.386Z</time></trkpt><trkpt lat="44.5589588" lon="15.4439332"><ele>577.0</ele><time>2026-04-27T07:56:11.386Z</time></trkpt><trkpt lat="44.5590066" lon="15.4440604"><ele>577.0</ele><time>2026-04-27T07:56:12.387Z</time></trkpt><trkpt lat="44.5590591" lon="15.444182"><ele>576.8000000000001</ele><time>2026-04-27T07:56:13.387Z</time></trkpt><trkpt lat="44.5591194" lon="15.4442994"><ele>576.6</ele><time>2026-04-27T07:56:14.386Z</time></trkpt><trkpt lat="44.5591915" lon="15.4444285"><ele>576.4000000000001</ele><time>2026-04-27T07:56:15.386Z</time></trkpt><trkpt lat="44.5592629" lon="15.4445506"><ele>576.2</ele><time>2026-04-27T07:56:16.387Z</time></trkpt><trkpt lat="44.5593379" lon="15.4446759"><ele>576.0</ele><time>2026-04-27T07:56:17.386Z</time></trkpt><trkpt lat="44.5594098" lon="15.4447834"><ele>576.0</ele><time>2026-04-27T07:56:18.386Z</time></trkpt><trkpt lat="44.5594894" lon="15.4449"><ele>576.0</ele><time>2026-04-27T07:56:19.386Z</time></trkpt><trkpt lat="44.5595574" lon="15.4450095"><ele>576.0</ele><time>2026-04-27T07:56:20.386Z</time></trkpt><trkpt lat="44.5596142" lon="15.4451138"><ele>576.0</ele><time>2026-04-27T07:56:21.386Z</time></trkpt><trkpt lat="44.5596649" lon="15.4452063"><ele>576.0</ele><time>2026-04-27T07:56:22.386Z</time></trkpt><trkpt lat="44.5597118" lon="15.4452973"><ele>576.2</ele><time>2026-04-27T07:56:23.387Z</time></trkpt><trkpt lat="44.5597723" lon="15.4453845"><ele>576.4000000000001</ele><time>2026-04-27T07:56:24.386Z</time></trkpt><trkpt lat="44.5598313" lon="15.4454919"><ele>576.6</ele><time>2026-04-27T07:56:25.386Z</time></trkpt><trkpt lat="44.5598894" lon="15.445614"><ele>576.8000000000001</ele><time>2026-04-27T07:56:26.386Z</time></trkpt><trkpt lat="44.5599541" lon="15.4457463"><ele>577.0</ele><time>2026-04-27T07:56:27.386Z</time></trkpt><trkpt lat="44.5600199" lon="15.4458789"><ele>577.0</ele><time>2026-04-27T07:56:28.386Z</time></trkpt><trkpt lat="44.5600762" lon="15.4460085"><ele>577.0</ele><time>2026-04-27T07:56:29.386Z</time></trkpt><trkpt lat="44.5601317" lon="15.4461408"><ele>577.0</ele><time>2026-04-27T07:56:30.386Z</time></trkpt><trkpt lat="44.5601851" lon="15.4462642"><ele>577.0</ele><time>2026-04-27T07:56:31.386Z</time></trkpt><trkpt lat="44.5602363" lon="15.446383"><ele>577.0</ele><time>2026-04-27T07:56:32.387Z</time></trkpt><trkpt lat="44.560291" lon="15.4465039"><ele>577.0</ele><time>2026-04-27T07:56:33.386Z</time></trkpt><trkpt lat="44.5603468" lon="15.4466106"><ele>577.0</ele><time>2026-04-27T07:56:34.386Z</time></trkpt><trkpt lat="44.5603922" lon="15.4467041"><ele>577.0</ele><time>2026-04-27T07:56:35.386Z</time></trkpt><trkpt lat="44.5604331" lon="15.4467791"><ele>577.0</ele><time>2026-04-27T07:56:36.387Z</time></trkpt><trkpt lat="44.5604731" lon="15.4468539"><ele>577.0</ele><time>2026-04-27T07:56:37.386Z</time></trkpt><trkpt lat="44.5605157" lon="15.4469228"><ele>577.0</ele><time>2026-04-27T07:56:38.386Z</time></trkpt><trkpt lat="44.560567" lon="15.4470284"><ele>576.8000000000001</ele><time>2026-04-27T07:56:39.386Z</time></trkpt><trkpt lat="44.5606046" lon="15.4471303"><ele>576.6</ele><time>2026-04-27T07:56:40.386Z</time></trkpt><trkpt lat="44.5606313" lon="15.4472523"><ele>576.4000000000001</ele><time>2026-04-27T07:56:41.387Z</time></trkpt><trkpt lat="44.5606588" lon="15.4473885"><ele>576.2</ele><time>2026-04-27T07:56:42.386Z</time></trkpt><trkpt lat="44.5606832" lon="15.4475291"><ele>576.0</ele><time>2026-04-27T07:56:43.387Z</time></trkpt><trkpt lat="44.560742" lon="15.4476654"><ele>576.0</ele><time>2026-04-27T07:56:44.386Z</time></trkpt><trkpt lat="44.5607886" lon="15.4477837"><ele>576.0</ele><time>2026-04-27T07:56:45.386Z</time></trkpt><trkpt lat="44.560834" lon="15.4478922"><ele>576.0</ele><time>2026-04-27T07:56:46.386Z</time></trkpt><trkpt lat="44.5608756" lon="15.4479905"><ele>576.0</ele><time>2026-04-27T07:56:47.386Z</time></trkpt><trkpt lat="44.5609142" lon="15.4480734"><ele>576.0</ele><time>2026-04-27T07:56:48.387Z</time></trkpt><trkpt lat="44.5609446" lon="15.4481614"><ele>576.0</ele><time>2026-04-27T07:56:49.387Z</time></trkpt><trkpt lat="44.5609754" lon="15.4482477"><ele>575.8333333333334</ele><time>2026-04-27T07:56:50.386Z</time></trkpt><trkpt lat="44.5609971" lon="15.4483892"><ele>575.6666666666666</ele><time>2026-04-27T07:56:52.386Z</time></trkpt><trkpt lat="44.5610504" lon="15.4485131"><ele>575.5</ele><time>2026-04-27T07:56:54.386Z</time></trkpt><trkpt lat="44.5610722" lon="15.4486066"><ele>575.3333333333333</ele><time>2026-04-27T07:56:55.386Z</time></trkpt><trkpt lat="44.5610897" lon="15.4487003"><ele>575.1666666666666</ele><time>2026-04-27T07:56:56.387Z</time></trkpt><trkpt lat="44.561084" lon="15.4487982"><ele>575.0</ele><time>2026-04-27T07:56:57.386Z</time></trkpt><trkpt lat="44.5610811" lon="15.4489676"><ele>575.0</ele><time>2026-04-27T07:56:59.386Z</time></trkpt><trkpt lat="44.5611023" lon="15.4490575"><ele>575.0</ele><time>2026-04-27T07:57:00.386Z</time></trkpt><trkpt lat="44.5611201" lon="15.4491733"><ele>575.0</ele><time>2026-04-27T07:57:01.386Z</time></trkpt><trkpt lat="44.5611382" lon="15.4492859"><ele>575.0</ele><time>2026-04-27T07:57:02.386Z</time></trkpt><trkpt lat="44.5611495" lon="15.4494232"><ele>575.0</ele><time>2026-04-27T07:57:03.386Z</time></trkpt><trkpt lat="44.5611696" lon="15.4495558"><ele>575.0</ele><time>2026-04-27T07:57:04.386Z</time></trkpt><trkpt lat="44.5611842" lon="15.4496814"><ele>575.0</ele><time>2026-04-27T07:57:05.386Z</time></trkpt><trkpt lat="44.561199" lon="15.4498137"><ele>575.0</ele><time>2026-04-27T07:57:06.386Z</time></trkpt><trkpt lat="44.5612148" lon="15.449922"><ele>575.0</ele><time>2026-04-27T07:57:07.386Z</time></trkpt><trkpt lat="44.5612227" lon="15.4500201"><ele>575.0</ele><time>2026-04-27T07:57:08.386Z</time></trkpt><trkpt lat="44.5612379" lon="15.4501081"><ele>575.0</ele><time>2026-04-27T07:57:09.386Z</time></trkpt><trkpt lat="44.5612444" lon="15.4501991"><ele>575.0</ele><time>2026-04-27T07:57:10.387Z</time></trkpt><trkpt lat="44.5612408" lon="15.4502977"><ele>575.0</ele><time>2026-04-27T07:57:11.386Z</time></trkpt><trkpt lat="44.561258" lon="15.450424"><ele>575.5</ele><time>2026-04-27T07:57:12.386Z</time></trkpt><trkpt lat="44.5612583" lon="15.4505396"><ele>576.0</ele><time>2026-04-27T07:57:13.386Z</time></trkpt><trkpt lat="44.5612555" lon="15.4506613"><ele>576.5</ele><time>2026-04-27T07:57:14.386Z</time></trkpt><trkpt lat="44.5612418" lon="15.4507712"><ele>577.0</ele><time>2026-04-27T07:57:15.387Z</time></trkpt><trkpt lat="44.5612398" lon="15.4508608"><ele>577.5</ele><time>2026-04-27T07:57:16.387Z</time></trkpt><trkpt lat="44.5612599" lon="15.4510212"><ele>578.0</ele><time>2026-04-27T07:57:18.386Z</time></trkpt><trkpt lat="44.5612871" lon="15.4512193"><ele>577.8</ele><time>2026-04-27T07:57:20.386Z</time></trkpt><trkpt lat="44.5612974" lon="15.451343"><ele>577.5999999999999</ele><time>2026-04-27T07:57:21.386Z</time></trkpt><trkpt lat="44.5613047" lon="15.4514739"><ele>577.4000000000001</ele><time>2026-04-27T07:57:22.386Z</time></trkpt><trkpt lat="44.5613088" lon="15.4516109"><ele>577.2</ele><time>2026-04-27T07:57:23.386Z</time></trkpt><trkpt lat="44.561304" lon="15.4517581"><ele>577.0</ele><time>2026-04-27T07:57:24.386Z</time></trkpt><trkpt lat="44.5612956" lon="15.4518956"><ele>577.0</ele><time>2026-04-27T07:57:25.386Z</time></trkpt><trkpt lat="44.5612953" lon="15.4520186"><ele>577.0</ele><time>2026-04-27T07:57:26.387Z</time></trkpt><trkpt lat="44.5612919" lon="15.4521509"><ele>577.0</ele><time>2026-04-27T07:57:27.386Z</time></trkpt><trkpt lat="44.561287" lon="15.4522667"><ele>577.0</ele><time>2026-04-27T07:57:28.386Z</time></trkpt><trkpt lat="44.5612868" lon="15.4523764"><ele>577.0</ele><time>2026-04-27T07:57:29.386Z</time></trkpt><trkpt lat="44.5613064" lon="15.4524819"><ele>577.0</ele><time>2026-04-27T07:57:30.386Z</time></trkpt><trkpt lat="44.5612945" lon="15.4525867"><ele>577.3333333333334</ele><time>2026-04-27T07:57:31.387Z</time></trkpt><trkpt lat="44.5612975" lon="15.4526964"><ele>577.6666666666667</ele><time>2026-04-27T07:57:32.386Z</time></trkpt><trkpt lat="44.5612913" lon="15.4527983"><ele>578.0</ele><time>2026-04-27T07:57:33.386Z</time></trkpt><trkpt lat="44.5612854" lon="15.452909"><ele>578.3333333333334</ele><time>2026-04-27T07:57:34.386Z</time></trkpt><trkpt lat="44.5612751" lon="15.4530255"><ele>578.6666666666666</ele><time>2026-04-27T07:57:35.386Z</time></trkpt><trkpt lat="44.5612702" lon="15.453129"><ele>579.0</ele><time>2026-04-27T07:57:36.386Z</time></trkpt><trkpt lat="44.5612374" lon="15.4532793"><ele>579.7142857142857</ele><time>2026-04-27T07:57:38.386Z</time></trkpt><trkpt lat="44.5612263" lon="15.4533907"><ele>580.4285714285714</ele><time>2026-04-27T07:57:40.386Z</time></trkpt><trkpt lat="44.5612679" lon="15.4534608"><ele>581.1428571428571</ele><time>2026-04-27T07:57:43.386Z</time></trkpt><trkpt lat="44.5613598" lon="15.4535001"><ele>581.8571428571429</ele><time>2026-04-27T07:57:45.387Z</time></trkpt><trkpt lat="44.5614227" lon="15.4535107"><ele>582.5714285714286</ele><time>2026-04-27T07:57:46.387Z</time></trkpt><trkpt lat="44.561486" lon="15.4535116"><ele>583.2857142857142</ele><time>2026-04-27T07:57:47.387Z</time></trkpt><trkpt lat="44.5615614" lon="15.4535128"><ele>584.0</ele><time>2026-04-27T07:57:48.386Z</time></trkpt><trkpt lat="44.5616419" lon="15.4535017"><ele>584.0</ele><time>2026-04-27T07:57:49.386Z</time></trkpt><trkpt lat="44.5617263" lon="15.453482"><ele>584.0</ele><time>2026-04-27T07:57:50.386Z</time></trkpt><trkpt lat="44.5618123" lon="15.4534647"><ele>584.0</ele><time>2026-04-27T07:57:51.386Z</time></trkpt><trkpt lat="44.561899" lon="15.453461"><ele>584.0</ele><time>2026-04-27T07:57:52.386Z</time></trkpt><trkpt lat="44.5619955" lon="15.4534523"><ele>584.0</ele><time>2026-04-27T07:57:53.386Z</time></trkpt><trkpt lat="44.5620939" lon="15.4534515"><ele>584.4</ele><time>2026-04-27T07:57:54.386Z</time></trkpt><trkpt lat="44.5622012" lon="15.4534518"><ele>584.8</ele><time>2026-04-27T07:57:55.387Z</time></trkpt><trkpt lat="44.5623136" lon="15.4534652"><ele>585.2</ele><time>2026-04-27T07:57:56.386Z</time></trkpt><trkpt lat="44.5624307" lon="15.4534779"><ele>585.6</ele><time>2026-04-27T07:57:57.387Z</time></trkpt><trkpt lat="44.5625399" lon="15.4534854"><ele>586.0</ele><time>2026-04-27T07:57:58.386Z</time></trkpt><trkpt lat="44.5626456" lon="15.4534903"><ele>586.0</ele><time>2026-04-27T07:57:59.386Z</time></trkpt><trkpt lat="44.5627515" lon="15.4534864"><ele>586.0</ele><time>2026-04-27T07:58:00.386Z</time></trkpt><trkpt lat="44.5628534" lon="15.4534754"><ele>586.0</ele><time>2026-04-27T07:58:01.386Z</time></trkpt><trkpt lat="44.562955" lon="15.4534393"><ele>586.0</ele><time>2026-04-27T07:58:02.386Z</time></trkpt><trkpt lat="44.5630674" lon="15.4533951"><ele>586.0</ele><time>2026-04-27T07:58:03.386Z</time></trkpt><trkpt lat="44.5631715" lon="15.4533572"><ele>586.8</ele><time>2026-04-27T07:58:04.386Z</time></trkpt><trkpt lat="44.5632739" lon="15.4533183"><ele>587.6</ele><time>2026-04-27T07:58:05.386Z</time></trkpt><trkpt lat="44.5633794" lon="15.4532745"><ele>588.4</ele><time>2026-04-27T07:58:06.386Z</time></trkpt><trkpt lat="44.5634859" lon="15.4532261"><ele>589.2</ele><time>2026-04-27T07:58:07.386Z</time></trkpt><trkpt lat="44.5635898" lon="15.4531788"><ele>590.0</ele><time>2026-04-27T07:58:08.386Z</time></trkpt><trkpt lat="44.5636836" lon="15.453149"><ele>590.25</ele><time>2026-04-27T07:58:09.387Z</time></trkpt><trkpt lat="44.563795" lon="15.4531342"><ele>590.5</ele><time>2026-04-27T07:58:10.386Z</time></trkpt><trkpt lat="44.5639136" lon="15.4531337"><ele>590.75</ele><time>2026-04-27T07:58:11.387Z</time></trkpt><trkpt lat="44.5640331" lon="15.4531221"><ele>591.0</ele><time>2026-04-27T07:58:12.386Z</time></trkpt><trkpt lat="44.5641534" lon="15.453105"><ele>591.0</ele><time>2026-04-27T07:58:13.386Z</time></trkpt><trkpt lat="44.5642839" lon="15.4530772"><ele>591.0</ele><time>2026-04-27T07:58:14.386Z</time></trkpt><trkpt lat="44.5644105" lon="15.4530512"><ele>591.0</ele><time>2026-04-27T07:58:15.387Z</time></trkpt><trkpt lat="44.5645349" lon="15.4530243"><ele>591.0</ele><time>2026-04-27T07:58:16.386Z</time></trkpt><trkpt lat="44.5646679" lon="15.4529742"><ele>588.25</ele><time>2026-04-27T07:58:17.386Z</time></trkpt><trkpt lat="44.564806" lon="15.4529112"><ele>585.5</ele><time>2026-04-27T07:58:18.387Z</time></trkpt><trkpt lat="44.5649432" lon="15.4528499"><ele>582.75</ele><time>2026-04-27T07:58:19.386Z</time></trkpt><trkpt lat="44.5650786" lon="15.452779"><ele>580.0</ele><time>2026-04-27T07:58:20.387Z</time></trkpt><trkpt lat="44.5652252" lon="15.45271"><ele>579.5</ele><time>2026-04-27T07:58:21.387Z</time></trkpt><trkpt lat="44.5653648" lon="15.4526365"><ele>579.0</ele><time>2026-04-27T07:58:22.386Z</time></trkpt><trkpt lat="44.5655071" lon="15.4525717"><ele>578.5</ele><time>2026-04-27T07:58:23.386Z</time></trkpt><trkpt lat="44.5656423" lon="15.4525225"><ele>578.0</ele><time>2026-04-27T07:58:24.386Z</time></trkpt><trkpt lat="44.5657823" lon="15.4524868"><ele>578.0</ele><time>2026-04-27T07:58:25.387Z</time></trkpt><trkpt lat="44.5659305" lon="15.4524642"><ele>578.0</ele><time>2026-04-27T07:58:26.386Z</time></trkpt><trkpt lat="44.5660759" lon="15.4524522"><ele>578.0</ele><time>2026-04-27T07:58:27.386Z</time></trkpt><trkpt lat="44.5662222" lon="15.4524518"><ele>578.0</ele><time>2026-04-27T07:58:28.386Z</time></trkpt><trkpt lat="44.5663695" lon="15.4524446"><ele>578.0</ele><time>2026-04-27T07:58:29.387Z</time></trkpt><trkpt lat="44.5665119" lon="15.4524144"><ele>578.0</ele><time>2026-04-27T07:58:30.386Z</time></trkpt><trkpt lat="44.5666524" lon="15.4523779"><ele>578.0</ele><time>2026-04-27T07:58:31.386Z</time></trkpt><trkpt lat="44.5667823" lon="15.4523514"><ele>578.0</ele><time>2026-04-27T07:58:32.386Z</time></trkpt><trkpt lat="44.5668901" lon="15.4523302"><ele>578.0</ele><time>2026-04-27T07:58:33.386Z</time></trkpt><trkpt lat="44.5669994" lon="15.4523121"><ele>578.0</ele><time>2026-04-27T07:58:34.386Z</time></trkpt><trkpt lat="44.5670942" lon="15.4523021"><ele>578.0</ele><time>2026-04-27T07:58:35.386Z</time></trkpt><trkpt lat="44.5671956" lon="15.452296"><ele>578.0</ele><time>2026-04-27T07:58:36.387Z</time></trkpt><trkpt lat="44.5673021" lon="15.4522993"><ele>578.0</ele><time>2026-04-27T07:58:37.386Z</time></trkpt><trkpt lat="44.5674163" lon="15.4523059"><ele>578.5</ele><time>2026-04-27T07:58:38.386Z</time></trkpt><trkpt lat="44.567539" lon="15.452325"><ele>579.0</ele><time>2026-04-27T07:58:39.386Z</time></trkpt><trkpt lat="44.5676659" lon="15.4523398"><ele>579.5</ele><time>2026-04-27T07:58:40.386Z</time></trkpt><trkpt lat="44.5677954" lon="15.4523574"><ele>580.0</ele><time>2026-04-27T07:58:41.386Z</time></trkpt><trkpt lat="44.5679178" lon="15.4523698"><ele>580.0</ele><time>2026-04-27T07:58:42.387Z</time></trkpt><trkpt lat="44.5680337" lon="15.4523874"><ele>580.0</ele><time>2026-04-27T07:58:43.386Z</time></trkpt><trkpt lat="44.5681356" lon="15.4523988"><ele>580.0</ele><time>2026-04-27T07:58:44.387Z</time></trkpt><trkpt lat="44.5682276" lon="15.4523962"><ele>580.0</ele><time>2026-04-27T07:58:45.387Z</time></trkpt><trkpt lat="44.5683084" lon="15.4523487"><ele>580.0</ele><time>2026-04-27T07:58:46.387Z</time></trkpt><trkpt lat="44.5683796" lon="15.452279"><ele>580.0</ele><time>2026-04-27T07:58:47.386Z</time></trkpt><trkpt lat="44.5684414" lon="15.4521841"><ele>580.0</ele><time>2026-04-27T07:58:48.386Z</time></trkpt><trkpt lat="44.5685103" lon="15.4520654"><ele>580.0</ele><time>2026-04-27T07:58:49.387Z</time></trkpt><trkpt lat="44.56858" lon="15.4519385"><ele>580.0</ele><time>2026-04-27T07:58:50.387Z</time></trkpt><trkpt lat="44.5686512" lon="15.4518027"><ele>580.0</ele><time>2026-04-27T07:58:51.386Z</time></trkpt><trkpt lat="44.5687237" lon="15.4516629"><ele>579.75</ele><time>2026-04-27T07:58:52.387Z</time></trkpt><trkpt lat="44.5688005" lon="15.4515197"><ele>579.5</ele><time>2026-04-27T07:58:53.386Z</time></trkpt><trkpt lat="44.5688815" lon="15.4513681"><ele>579.25</ele><time>2026-04-27T07:58:54.386Z</time></trkpt><trkpt lat="44.568958" lon="15.4512156"><ele>579.0</ele><time>2026-04-27T07:58:55.386Z</time></trkpt><trkpt lat="44.5690242" lon="15.4510711"><ele>579.4</ele><time>2026-04-27T07:58:56.387Z</time></trkpt><trkpt lat="44.5690938" lon="15.4509354"><ele>579.8</ele><time>2026-04-27T07:58:57.386Z</time></trkpt><trkpt lat="44.5691605" lon="15.4508133"><ele>580.2</ele><time>2026-04-27T07:58:58.386Z</time></trkpt><trkpt lat="44.5692241" lon="15.4507021"><ele>580.6</ele><time>2026-04-27T07:58:59.387Z</time></trkpt><trkpt lat="44.5692854" lon="15.4505991"><ele>581.0</ele><time>2026-04-27T07:59:00.386Z</time></trkpt><trkpt lat="44.5693388" lon="15.4505126"><ele>581.1666666666666</ele><time>2026-04-27T07:59:01.386Z</time></trkpt><trkpt lat="44.5693874" lon="15.4504348"><ele>581.3333333333333</ele><time>2026-04-27T07:59:02.386Z</time></trkpt><trkpt lat="44.5694519" lon="15.4503263"><ele>581.5</ele><time>2026-04-27T07:59:04.386Z</time></trkpt><trkpt lat="44.569503" lon="15.4502553"><ele>581.6666666666666</ele><time>2026-04-27T07:59:06.386Z</time></trkpt><trkpt lat="44.5695553" lon="15.4501929"><ele>581.8333333333334</ele><time>2026-04-27T07:59:09.386Z</time></trkpt><trkpt lat="44.569625" lon="15.4501732"><ele>582.0</ele><time>2026-04-27T07:59:20.386Z</time></trkpt><trkpt lat="44.5696985" lon="15.4502152"><ele>582.0</ele><time>2026-04-27T07:59:22.386Z</time></trkpt><trkpt lat="44.5697688" lon="15.450317"><ele>582.0</ele><time>2026-04-27T07:59:24.386Z</time></trkpt><trkpt lat="44.5698609" lon="15.4504357"><ele>582.0</ele><time>2026-04-27T07:59:26.386Z</time></trkpt><trkpt lat="44.5699164" lon="15.4504948"><ele>582.0</ele><time>2026-04-27T07:59:27.386Z</time></trkpt><trkpt lat="44.5699733" lon="15.4505557"><ele>582.0</ele><time>2026-04-27T07:59:28.386Z</time></trkpt><trkpt lat="44.5700708" lon="15.4506756"><ele>582.2</ele><time>2026-04-27T07:59:30.386Z</time></trkpt><trkpt lat="44.5701495" lon="15.450792"><ele>582.4000000000001</ele><time>2026-04-27T07:59:32.386Z</time></trkpt><trkpt lat="44.5702086" lon="15.4508351"><ele>582.5999999999999</ele><time>2026-04-27T07:59:33.387Z</time></trkpt><trkpt lat="44.570308" lon="15.4508869"><ele>582.8</ele><time>2026-04-27T07:59:35.386Z</time></trkpt><trkpt lat="44.5703919" lon="15.4509055"><ele>583.0</ele><time>2026-04-27T07:59:36.386Z</time></trkpt><trkpt lat="44.5704784" lon="15.4509254"><ele>584.0</ele><time>2026-04-27T07:59:37.386Z</time></trkpt><trkpt lat="44.5705525" lon="15.4509675"><ele>585.0</ele><time>2026-04-27T07:59:38.386Z</time></trkpt><trkpt lat="44.5706235" lon="15.451001"><ele>586.0</ele><time>2026-04-27T07:59:39.386Z</time></trkpt><trkpt lat="44.57068" lon="15.4510469"><ele>587.0</ele><time>2026-04-27T07:59:40.386Z</time></trkpt><trkpt lat="44.5707532" lon="15.4511305"><ele>588.0</ele><time>2026-04-27T07:59:42.387Z</time></trkpt><trkpt lat="44.5708187" lon="15.4512698"><ele>589.0</ele><time>2026-04-27T07:59:44.386Z</time></trkpt><trkpt lat="44.5708681" lon="15.451349"><ele>589.0</ele><time>2026-04-27T07:59:45.386Z</time></trkpt><trkpt lat="44.5709041" lon="15.4514517"><ele>589.0</ele><time>2026-04-27T07:59:46.387Z</time></trkpt><trkpt lat="44.5709343" lon="15.451553"><ele>589.0</ele><time>2026-04-27T07:59:47.387Z</time></trkpt><trkpt lat="44.5709694" lon="15.4516412"><ele>589.0</ele><time>2026-04-27T07:59:48.386Z</time></trkpt><trkpt lat="44.5710048" lon="15.4517289"><ele>589.0</ele><time>2026-04-27T07:59:49.386Z</time></trkpt><trkpt lat="44.57105" lon="15.4518133"><ele>589.0</ele><time>2026-04-27T07:59:50.386Z</time></trkpt><trkpt lat="44.5710965" lon="15.4518985"><ele>589.0</ele><time>2026-04-27T07:59:51.386Z</time></trkpt><trkpt lat="44.5711453" lon="15.4519776"><ele>589.0</ele><time>2026-04-27T07:59:52.386Z</time></trkpt><trkpt lat="44.5711971" lon="15.4520697"><ele>589.0</ele><time>2026-04-27T07:59:53.387Z</time></trkpt><trkpt lat="44.5712632" lon="15.4521505"><ele>589.0</ele><time>2026-04-27T07:59:54.386Z</time></trkpt><trkpt lat="44.5713254" lon="15.4522124"><ele>589.0</ele><time>2026-04-27T07:59:55.387Z</time></trkpt><trkpt lat="44.5713746" lon="15.4522934"><ele>589.0</ele><time>2026-04-27T07:59:56.386Z</time></trkpt><trkpt lat="44.5714275" lon="15.452364"><ele>589.0</ele><time>2026-04-27T07:59:57.386Z</time></trkpt><trkpt lat="44.5714895" lon="15.4524339"><ele>589.0</ele><time>2026-04-27T07:59:58.386Z</time></trkpt><trkpt lat="44.5715483" lon="15.4525242"><ele>589.0</ele><time>2026-04-27T07:59:59.387Z</time></trkpt><trkpt lat="44.571612" lon="15.4526072"><ele>589.0</ele><time>2026-04-27T08:00:00.387Z</time></trkpt><trkpt lat="44.5716807" lon="15.4526958"><ele>589.0</ele><time>2026-04-27T08:00:01.387Z</time></trkpt><trkpt lat="44.5717394" lon="15.4527722"><ele>589.0</ele><time>2026-04-27T08:00:02.386Z</time></trkpt><trkpt lat="44.5718" lon="15.4528562"><ele>589.0</ele><time>2026-04-27T08:00:03.386Z</time></trkpt><trkpt lat="44.5718589" lon="15.4529401"><ele>589.0</ele><time>2026-04-27T08:00:04.386Z</time></trkpt><trkpt lat="44.5719027" lon="15.4530177"><ele>589.0</ele><time>2026-04-27T08:00:05.387Z</time></trkpt><trkpt lat="44.5719486" lon="15.4530923"><ele>589.0</ele><time>2026-04-27T08:00:06.387Z</time></trkpt><trkpt lat="44.5719986" lon="15.4531671"><ele>589.0</ele><time>2026-04-27T08:00:07.386Z</time></trkpt><trkpt lat="44.5720382" lon="15.4532409"><ele>589.0</ele><time>2026-04-27T08:00:08.386Z</time></trkpt><trkpt lat="44.5720626" lon="15.4533267"><ele>589.0</ele><time>2026-04-27T08:00:09.386Z</time></trkpt><trkpt lat="44.5720904" lon="15.4534612"><ele>589.0</ele><time>2026-04-27T08:00:10.386Z</time></trkpt><trkpt lat="44.5721183" lon="15.453589"><ele>589.0</ele><time>2026-04-27T08:00:11.386Z</time></trkpt><trkpt lat="44.5721533" lon="15.453714"><ele>589.0</ele><time>2026-04-27T08:00:12.386Z</time></trkpt><trkpt lat="44.5721992" lon="15.4538318"><ele>589.0</ele><time>2026-04-27T08:00:13.386Z</time></trkpt><trkpt lat="44.5722477" lon="15.4539387"><ele>589.0</ele><time>2026-04-27T08:00:14.387Z</time></trkpt><trkpt lat="44.572292" lon="15.4540434"><ele>589.0</ele><time>2026-04-27T08:00:15.387Z</time></trkpt><trkpt lat="44.5723421" lon="15.4541335"><ele>589.0</ele><time>2026-04-27T08:00:16.387Z</time></trkpt><trkpt lat="44.5724152" lon="15.4542143"><ele>589.0</ele><time>2026-04-27T08:00:17.387Z</time></trkpt><trkpt lat="44.5724962" lon="15.4543015"><ele>589.0</ele><time>2026-04-27T08:00:18.386Z</time></trkpt><trkpt lat="44.5725798" lon="15.4543934"><ele>589.0</ele><time>2026-04-27T08:00:19.386Z</time></trkpt><trkpt lat="44.5726657" lon="15.4544754"><ele>589.0</ele><time>2026-04-27T08:00:20.386Z</time></trkpt><trkpt lat="44.5727446" lon="15.454551"><ele>589.0</ele><time>2026-04-27T08:00:21.386Z</time></trkpt><trkpt lat="44.5728113" lon="15.4546226"><ele>589.0</ele><time>2026-04-27T08:00:22.386Z</time></trkpt><trkpt lat="44.5728793" lon="15.4546929"><ele>589.0</ele><time>2026-04-27T08:00:23.387Z</time></trkpt><trkpt lat="44.5729441" lon="15.4547657"><ele>589.0</ele><time>2026-04-27T08:00:24.386Z</time></trkpt><trkpt lat="44.573002" lon="15.4548466"><ele>589.0</ele><time>2026-04-27T08:00:25.386Z</time></trkpt><trkpt lat="44.5730633" lon="15.4549345"><ele>590.0</ele><time>2026-04-27T08:00:26.386Z</time></trkpt><trkpt lat="44.5731226" lon="15.4550173"><ele>591.0</ele><time>2026-04-27T08:00:27.386Z</time></trkpt><trkpt lat="44.5731791" lon="15.4550964"><ele>592.0</ele><time>2026-04-27T08:00:28.386Z</time></trkpt><trkpt lat="44.5732278" lon="15.4551679"><ele>593.0</ele><time>2026-04-27T08:00:29.386Z</time></trkpt><trkpt lat="44.5732694" lon="15.4552352"><ele>594.0</ele><time>2026-04-27T08:00:30.386Z</time></trkpt><trkpt lat="44.5733165" lon="15.4553018"><ele>595.0</ele><time>2026-04-27T08:00:31.386Z</time></trkpt><trkpt lat="44.573369" lon="15.4553721"><ele>596.0</ele><time>2026-04-27T08:00:32.386Z</time></trkpt><trkpt lat="44.5734216" lon="15.4554456"><ele>596.0</ele><time>2026-04-27T08:00:33.386Z</time></trkpt><trkpt lat="44.573482" lon="15.4555142"><ele>596.0</ele><time>2026-04-27T08:00:34.386Z</time></trkpt><trkpt lat="44.5735513" lon="15.4555759"><ele>596.0</ele><time>2026-04-27T08:00:35.386Z</time></trkpt><trkpt lat="44.5736221" lon="15.4556351"><ele>596.0</ele><time>2026-04-27T08:00:36.386Z</time></trkpt><trkpt lat="44.5736847" lon="15.4556921"><ele>596.0</ele><time>2026-04-27T08:00:37.386Z</time></trkpt><trkpt lat="44.5737368" lon="15.4557547"><ele>596.0</ele><time>2026-04-27T08:00:38.386Z</time></trkpt><trkpt lat="44.5737787" lon="15.4558355"><ele>597.3333333333333</ele><time>2026-04-27T08:00:39.387Z</time></trkpt><trkpt lat="44.5738195" lon="15.455915"><ele>598.6666666666666</ele><time>2026-04-27T08:00:40.387Z</time></trkpt><trkpt lat="44.5738586" lon="15.4560005"><ele>600.0</ele><time>2026-04-27T08:00:41.386Z</time></trkpt><trkpt lat="44.5739078" lon="15.4561324"><ele>601.3333333333334</ele><time>2026-04-27T08:00:43.386Z</time></trkpt><trkpt lat="44.5739892" lon="15.456187"><ele>602.6666666666667</ele><time>2026-04-27T08:00:45.386Z</time></trkpt><trkpt lat="44.5740535" lon="15.4562268"><ele>604.0</ele><time>2026-04-27T08:00:46.386Z</time></trkpt><trkpt lat="44.5741674" lon="15.4563192"><ele>604.6</ele><time>2026-04-27T08:00:48.387Z</time></trkpt><trkpt lat="44.5742907" lon="15.4564066"><ele>605.2</ele><time>2026-04-27T08:00:50.386Z</time></trkpt><trkpt lat="44.5743452" lon="15.4564546"><ele>605.8000000000001</ele><time>2026-04-27T08:00:51.386Z</time></trkpt><trkpt lat="44.5744046" lon="15.4564894"><ele>606.4</ele><time>2026-04-27T08:00:52.387Z</time></trkpt><trkpt lat="44.5745486" lon="15.4565356"><ele>607.0</ele><time>2026-04-27T08:00:54.386Z</time></trkpt><trkpt lat="44.5746153" lon="15.4565604"><ele>607.3333333333334</ele><time>2026-04-27T08:00:55.387Z</time></trkpt><trkpt lat="44.5746829" lon="15.4565815"><ele>607.6666666666667</ele><time>2026-04-27T08:00:56.387Z</time></trkpt><trkpt lat="44.574748" lon="15.4565981"><ele>608.0</ele><time>2026-04-27T08:00:57.386Z</time></trkpt><trkpt lat="44.5748532" lon="15.4566774"><ele>608.3333333333334</ele><time>2026-04-27T08:00:59.387Z</time></trkpt><trkpt lat="44.5749188" lon="15.4567977"><ele>608.6666666666666</ele><time>2026-04-27T08:01:01.386Z</time></trkpt><trkpt lat="44.5749602" lon="15.4568875"><ele>609.0</ele><time>2026-04-27T08:01:02.386Z</time></trkpt><trkpt lat="44.5750155" lon="15.4569656"><ele>609.0</ele><time>2026-04-27T08:01:03.387Z</time></trkpt><trkpt lat="44.5750666" lon="15.4570515"><ele>609.0</ele><time>2026-04-27T08:01:04.387Z</time></trkpt><trkpt lat="44.5751255" lon="15.4571462"><ele>609.0</ele><time>2026-04-27T08:01:05.386Z</time></trkpt><trkpt lat="44.5751706" lon="15.4572351"><ele>609.0</ele><time>2026-04-27T08:01:06.386Z</time></trkpt><trkpt lat="44.5752505" lon="15.4573744"><ele>609.0</ele><time>2026-04-27T08:01:08.386Z</time></trkpt><trkpt lat="44.5753021" lon="15.4574483"><ele>609.0</ele><time>2026-04-27T08:01:09.386Z</time></trkpt><trkpt lat="44.5753513" lon="15.4575325"><ele>610.3333333333334</ele><time>2026-04-27T08:01:10.387Z</time></trkpt><trkpt lat="44.5754003" lon="15.4576099"><ele>611.6666666666666</ele><time>2026-04-27T08:01:11.386Z</time></trkpt><trkpt lat="44.5754497" lon="15.457681"><ele>613.0</ele><time>2026-04-27T08:01:12.386Z</time></trkpt><trkpt lat="44.5754868" lon="15.4577597"><ele>614.3333333333333</ele><time>2026-04-27T08:01:13.386Z</time></trkpt><trkpt lat="44.5755763" lon="15.4579012"><ele>615.6666666666666</ele><time>2026-04-27T08:01:15.387Z</time></trkpt><trkpt lat="44.5756283" lon="15.4579678"><ele>617.0</ele><time>2026-04-27T08:01:16.387Z</time></trkpt><trkpt lat="44.5756867" lon="15.4580383"><ele>617.3333333333333</ele><time>2026-04-27T08:01:17.386Z</time></trkpt><trkpt lat="44.5757379" lon="15.4581069"><ele>617.6666666666666</ele><time>2026-04-27T08:01:18.386Z</time></trkpt><trkpt lat="44.5757783" lon="15.4581882"><ele>618.0</ele><time>2026-04-27T08:01:19.387Z</time></trkpt><trkpt lat="44.5758263" lon="15.4582577"><ele>618.3333333333334</ele><time>2026-04-27T08:01:20.386Z</time></trkpt><trkpt lat="44.575875" lon="15.4583256"><ele>618.6666666666667</ele><time>2026-04-27T08:01:21.386Z</time></trkpt><trkpt lat="44.5759253" lon="15.4584787"><ele>619.0</ele><time>2026-04-27T08:01:23.386Z</time></trkpt><trkpt lat="44.5759514" lon="15.4585746"><ele>619.0</ele><time>2026-04-27T08:01:24.387Z</time></trkpt><trkpt lat="44.5759695" lon="15.45866"><ele>619.0</ele><time>2026-04-27T08:01:25.386Z</time></trkpt><trkpt lat="44.5760117" lon="15.4588187"><ele>619.0</ele><time>2026-04-27T08:01:27.386Z</time></trkpt><trkpt lat="44.5760698" lon="15.4589544"><ele>619.0</ele><time>2026-04-27T08:01:29.386Z</time></trkpt><trkpt lat="44.5760981" lon="15.4590877"><ele>619.0</ele><time>2026-04-27T08:01:31.386Z</time></trkpt><trkpt lat="44.5761078" lon="15.4592776"><ele>620.0</ele><time>2026-04-27T08:01:33.386Z</time></trkpt><trkpt lat="44.576103" lon="15.4593862"><ele>621.0</ele><time>2026-04-27T08:01:34.386Z</time></trkpt><trkpt lat="44.576096" lon="15.4594965"><ele>622.0</ele><time>2026-04-27T08:01:35.386Z</time></trkpt><trkpt lat="44.5760965" lon="15.4596099"><ele>623.0</ele><time>2026-04-27T08:01:36.386Z</time></trkpt><trkpt lat="44.576093" lon="15.4597162"><ele>624.0</ele><time>2026-04-27T08:01:37.386Z</time></trkpt><trkpt lat="44.5760957" lon="15.4598224"><ele>625.0</ele><time>2026-04-27T08:01:38.386Z</time></trkpt><trkpt lat="44.5760953" lon="15.4599256"><ele>625.8571428571429</ele><time>2026-04-27T08:01:39.387Z</time></trkpt><trkpt lat="44.5761031" lon="15.4600371"><ele>626.7142857142858</ele><time>2026-04-27T08:01:40.386Z</time></trkpt><trkpt lat="44.576096" lon="15.4601284"><ele>627.5714285714287</ele><time>2026-04-27T08:01:41.386Z</time></trkpt><trkpt lat="44.5760969" lon="15.460217"><ele>628.4285714285714</ele><time>2026-04-27T08:01:42.386Z</time></trkpt><trkpt lat="44.576094" lon="15.4603063"><ele>629.2857142857142</ele><time>2026-04-27T08:01:43.386Z</time></trkpt><trkpt lat="44.5761001" lon="15.4604094"><ele>630.1428571428572</ele><time>2026-04-27T08:01:44.386Z</time></trkpt><trkpt lat="44.5761145" lon="15.4605153"><ele>631.0</ele><time>2026-04-27T08:01:45.387Z</time></trkpt><trkpt lat="44.5761337" lon="15.4606041"><ele>633.2</ele><time>2026-04-27T08:01:46.386Z</time></trkpt><trkpt lat="44.5761931" lon="15.4607228"><ele>635.4000000000001</ele><time>2026-04-27T08:01:48.386Z</time></trkpt><trkpt lat="44.5762546" lon="15.4607734"><ele>637.6</ele><time>2026-04-27T08:01:49.386Z</time></trkpt><trkpt lat="44.5763681" lon="15.4608006"><ele>639.8000000000001</ele><time>2026-04-27T08:01:51.386Z</time></trkpt><trkpt lat="44.5764623" lon="15.4608089"><ele>642.0</ele><time>2026-04-27T08:01:52.386Z</time></trkpt><trkpt lat="44.5765404" lon="15.460809"><ele>641.9999999999999</ele><time>2026-04-27T08:01:53.387Z</time></trkpt><trkpt lat="44.5766045" lon="15.4608287"><ele>642.0</ele><time>2026-04-27T08:01:54.386Z</time></trkpt><trkpt lat="44.5766768" lon="15.4608427"><ele>642.0</ele><time>2026-04-27T08:01:55.387Z</time></trkpt><trkpt lat="44.5767461" lon="15.4608345"><ele>642.0</ele><time>2026-04-27T08:01:56.387Z</time></trkpt><trkpt lat="44.576809" lon="15.4608257"><ele>642.0</ele><time>2026-04-27T08:01:57.387Z</time></trkpt><trkpt lat="44.5768914" lon="15.4608113"><ele>641.9999999999999</ele><time>2026-04-27T08:01:58.386Z</time></trkpt><trkpt lat="44.5769629" lon="15.4608036"><ele>642.0</ele><time>2026-04-27T08:01:59.386Z</time></trkpt><trkpt lat="44.5770869" lon="15.460812"><ele>643.3333333333334</ele><time>2026-04-27T08:02:01.386Z</time></trkpt><trkpt lat="44.5771505" lon="15.4608314"><ele>644.6666666666666</ele><time>2026-04-27T08:02:02.386Z</time></trkpt><trkpt lat="44.5772471" lon="15.460882"><ele>646.0</ele><time>2026-04-27T08:02:04.386Z</time></trkpt><trkpt lat="44.577328" lon="15.4609036"><ele>647.3333333333333</ele><time>2026-04-27T08:02:06.386Z</time></trkpt><trkpt lat="44.5774323" lon="15.4608821"><ele>648.6666666666666</ele><time>2026-04-27T08:02:08.386Z</time></trkpt><trkpt lat="44.5775136" lon="15.4608761"><ele>650.0</ele><time>2026-04-27T08:02:10.386Z</time></trkpt><trkpt lat="44.5776182" lon="15.4608996"><ele>650.0</ele><time>2026-04-27T08:02:12.386Z</time></trkpt><trkpt lat="44.577713" lon="15.4608771"><ele>650.0</ele><time>2026-04-27T08:02:14.387Z</time></trkpt><trkpt lat="44.577806" lon="15.4608192"><ele>650.0</ele><time>2026-04-27T08:02:16.386Z</time></trkpt><trkpt lat="44.577931" lon="15.4607468"><ele>650.0</ele><time>2026-04-27T08:02:18.386Z</time></trkpt><trkpt lat="44.5780002" lon="15.4607181"><ele>650.0</ele><time>2026-04-27T08:02:19.387Z</time></trkpt><trkpt lat="44.5780612" lon="15.460685"><ele>651.6666666666666</ele><time>2026-04-27T08:02:20.386Z</time></trkpt><trkpt lat="44.5781653" lon="15.4606459"><ele>653.3333333333333</ele><time>2026-04-27T08:02:22.387Z</time></trkpt><trkpt lat="44.5782438" lon="15.4606257"><ele>655.0</ele><time>2026-04-27T08:02:23.387Z</time></trkpt><trkpt lat="44.5783131" lon="15.4606156"><ele>656.6666666666666</ele><time>2026-04-27T08:02:24.386Z</time></trkpt><trkpt lat="44.5783863" lon="15.4606257"><ele>658.3333333333334</ele><time>2026-04-27T08:02:25.386Z</time></trkpt><trkpt lat="44.5784493" lon="15.4606176"><ele>660.0</ele><time>2026-04-27T08:02:26.386Z</time></trkpt><trkpt lat="44.5785804" lon="15.4606171"><ele>662.0</ele><time>2026-04-27T08:02:28.386Z</time></trkpt><trkpt lat="44.5787065" lon="15.4606245"><ele>664.0</ele><time>2026-04-27T08:02:30.386Z</time></trkpt><trkpt lat="44.5787754" lon="15.4606256"><ele>666.0</ele><time>2026-04-27T08:02:31.386Z</time></trkpt><trkpt lat="44.5788434" lon="15.4606378"><ele>668.0</ele><time>2026-04-27T08:02:32.386Z</time></trkpt><trkpt lat="44.5789087" lon="15.4606578"><ele>670.0</ele><time>2026-04-27T08:02:33.386Z</time></trkpt><trkpt lat="44.5790129" lon="15.4607105"><ele>672.0</ele><time>2026-04-27T08:02:35.386Z</time></trkpt><trkpt lat="44.5791068" lon="15.4607818"><ele>672.0</ele><time>2026-04-27T08:02:37.386Z</time></trkpt><trkpt lat="44.5791739" lon="15.4608"><ele>672.0</ele><time>2026-04-27T08:02:39.387Z</time></trkpt><trkpt lat="44.5792808" lon="15.4607365"><ele>672.0</ele><time>2026-04-27T08:02:41.386Z</time></trkpt><trkpt lat="44.5793877" lon="15.460714"><ele>672.0</ele><time>2026-04-27T08:02:43.387Z</time></trkpt><trkpt lat="44.5794575" lon="15.4607158"><ele>672.0</ele><time>2026-04-27T08:02:44.386Z</time></trkpt><trkpt lat="44.5795247" lon="15.4607137"><ele>672.0</ele><time>2026-04-27T08:02:45.386Z</time></trkpt><trkpt lat="44.5796234" lon="15.4607365"><ele>674.2</ele><time>2026-04-27T08:02:47.387Z</time></trkpt><trkpt lat="44.5797326" lon="15.4607958"><ele>676.4000000000001</ele><time>2026-04-27T08:02:49.387Z</time></trkpt><trkpt lat="44.5798257" lon="15.4608815"><ele>678.5999999999999</ele><time>2026-04-27T08:02:51.386Z</time></trkpt><trkpt lat="44.5798752" lon="15.460941"><ele>680.8</ele><time>2026-04-27T08:02:52.386Z</time></trkpt><trkpt lat="44.5799627" lon="15.4610655"><ele>683.0</ele><time>2026-04-27T08:02:54.387Z</time></trkpt><trkpt lat="44.5800129" lon="15.4611457"><ele>683.0</ele><time>2026-04-27T08:02:55.387Z</time></trkpt><trkpt lat="44.5800559" lon="15.4612133"><ele>683.0</ele><time>2026-04-27T08:02:56.387Z</time></trkpt><trkpt lat="44.5800985" lon="15.4613599"><ele>683.0</ele><time>2026-04-27T08:02:58.387Z</time></trkpt><trkpt lat="44.5801027" lon="15.4615484"><ele>683.0</ele><time>2026-04-27T08:03:00.387Z</time></trkpt><trkpt lat="44.5800971" lon="15.4616412"><ele>683.0</ele><time>2026-04-27T08:03:01.386Z</time></trkpt><trkpt lat="44.580074" lon="15.4617521"><ele>683.7142857142858</ele><time>2026-04-27T08:03:02.387Z</time></trkpt><trkpt lat="44.580048" lon="15.4618583"><ele>684.4285714285714</ele><time>2026-04-27T08:03:03.386Z</time></trkpt><trkpt lat="44.5800215" lon="15.4619565"><ele>685.1428571428571</ele><time>2026-04-27T08:03:04.387Z</time></trkpt><trkpt lat="44.5800172" lon="15.4620741"><ele>685.8571428571429</ele><time>2026-04-27T08:03:05.386Z</time></trkpt><trkpt lat="44.5799997" lon="15.4621611"><ele>686.5714285714286</ele><time>2026-04-27T08:03:06.386Z</time></trkpt><trkpt lat="44.5799764" lon="15.4622491"><ele>687.2857142857143</ele><time>2026-04-27T08:03:07.386Z</time></trkpt><trkpt lat="44.5799556" lon="15.4623489"><ele>688.0</ele><time>2026-04-27T08:03:08.387Z</time></trkpt><trkpt lat="44.5799099" lon="15.4624219"><ele>690.0</ele><time>2026-04-27T08:03:09.386Z</time></trkpt><trkpt lat="44.5798839" lon="15.4625797"><ele>692.0</ele><time>2026-04-27T08:03:11.387Z</time></trkpt><trkpt lat="44.5798745" lon="15.4627588"><ele>694.0</ele><time>2026-04-27T08:03:13.386Z</time></trkpt><trkpt lat="44.5798837" lon="15.4628984"><ele>696.0</ele><time>2026-04-27T08:03:15.386Z</time></trkpt><trkpt lat="44.5799169" lon="15.4629865"><ele>698.0</ele><time>2026-04-27T08:03:17.386Z</time></trkpt><trkpt lat="44.580019" lon="15.4629696"><ele>698.0</ele><time>2026-04-27T08:03:19.386Z</time></trkpt><trkpt lat="44.580112" lon="15.4629366"><ele>698.0</ele><time>2026-04-27T08:03:21.386Z</time></trkpt><trkpt lat="44.5802434" lon="15.4629191"><ele>698.0</ele><time>2026-04-27T08:03:23.387Z</time></trkpt><trkpt lat="44.5803572" lon="15.4629043"><ele>698.0</ele><time>2026-04-27T08:03:25.386Z</time></trkpt><trkpt lat="44.5804681" lon="15.462878"><ele>700.0</ele><time>2026-04-27T08:03:27.386Z</time></trkpt><trkpt lat="44.5805638" lon="15.4628696"><ele>702.0</ele><time>2026-04-27T08:03:29.386Z</time></trkpt><trkpt lat="44.5806322" lon="15.4628457"><ele>704.0</ele><time>2026-04-27T08:03:30.386Z</time></trkpt><trkpt lat="44.5807355" lon="15.4628584"><ele>706.0</ele><time>2026-04-27T08:03:32.386Z</time></trkpt><trkpt lat="44.5807907" lon="15.4629322"><ele>708.0</ele><time>2026-04-27T08:03:34.386Z</time></trkpt><trkpt lat="44.5808103" lon="15.4630482"><ele>710.0</ele><time>2026-04-27T08:03:36.386Z</time></trkpt><trkpt lat="44.5808088" lon="15.463211"><ele>712.1666666666666</ele><time>2026-04-27T08:03:38.386Z</time></trkpt><trkpt lat="44.580799" lon="15.4633081"><ele>714.3333333333333</ele><time>2026-04-27T08:03:39.387Z</time></trkpt><trkpt lat="44.580788" lon="15.4634151"><ele>716.5</ele><time>2026-04-27T08:03:40.386Z</time></trkpt><trkpt lat="44.5807836" lon="15.4635359"><ele>718.6666666666666</ele><time>2026-04-27T08:03:41.386Z</time></trkpt><trkpt lat="44.5807846" lon="15.4636443"><ele>720.8333333333334</ele><time>2026-04-27T08:03:42.386Z</time></trkpt><trkpt lat="44.5807888" lon="15.4638242"><ele>723.0</ele><time>2026-04-27T08:03:44.387Z</time></trkpt><trkpt lat="44.5807899" lon="15.463915"><ele>724.6666666666666</ele><time>2026-04-27T08:03:45.386Z</time></trkpt><trkpt lat="44.5807976" lon="15.4640092"><ele>726.3333333333334</ele><time>2026-04-27T08:03:46.386Z</time></trkpt><trkpt lat="44.5807887" lon="15.4641137"><ele>728.0</ele><time>2026-04-27T08:03:47.387Z</time></trkpt><trkpt lat="44.5808016" lon="15.4642087"><ele>729.6666666666667</ele><time>2026-04-27T08:03:48.386Z</time></trkpt><trkpt lat="44.5808079" lon="15.4643814"><ele>731.3333333333334</ele><time>2026-04-27T08:03:50.386Z</time></trkpt><trkpt lat="44.5808116" lon="15.4644705"><ele>733.0</ele><time>2026-04-27T08:03:51.386Z</time></trkpt><trkpt lat="44.5807774" lon="15.4646215"><ele>735.2</ele><time>2026-04-27T08:03:53.386Z</time></trkpt><trkpt lat="44.5807128" lon="15.4647645"><ele>737.4</ele><time>2026-04-27T08:03:55.386Z</time></trkpt><trkpt lat="44.5806698" lon="15.46489"><ele>739.6</ele><time>2026-04-27T08:03:57.386Z</time></trkpt><trkpt lat="44.5806461" lon="15.4649771"><ele>741.8000000000001</ele><time>2026-04-27T08:03:59.386Z</time></trkpt><trkpt lat="44.5805869" lon="15.4651168"><ele>744.0</ele><time>2026-04-27T08:05:46.387Z</time></trkpt><trkpt lat="44.5805523" lon="15.4652519"><ele>744.0</ele><time>2026-04-27T08:05:48.386Z</time></trkpt><trkpt lat="44.5804963" lon="15.4653736"><ele>744.0</ele><time>2026-04-27T08:05:50.386Z</time></trkpt><trkpt lat="44.5804177" lon="15.4654556"><ele>744.0</ele><time>2026-04-27T08:05:52.386Z</time></trkpt><trkpt lat="44.5803215" lon="15.4655665"><ele>744.0</ele><time>2026-04-27T08:05:54.386Z</time></trkpt><trkpt lat="44.5802737" lon="15.4656259"><ele>744.0</ele><time>2026-04-27T08:05:55.386Z</time></trkpt><trkpt lat="44.5802072" lon="15.4657607"><ele>743.5</ele><time>2026-04-27T08:05:57.386Z</time></trkpt><trkpt lat="44.58017" lon="15.4658879"><ele>743.0</ele><time>2026-04-27T08:05:59.386Z</time></trkpt><trkpt lat="44.5801449" lon="15.4660591"><ele>742.5</ele><time>2026-04-27T08:06:01.386Z</time></trkpt><trkpt lat="44.5800843" lon="15.4661961"><ele>742.0</ele><time>2026-04-27T08:06:03.387Z</time></trkpt><trkpt lat="44.5800381" lon="15.4663436"><ele>744.5</ele><time>2026-04-27T08:06:05.386Z</time></trkpt><trkpt lat="44.5799949" lon="15.4664936"><ele>747.0</ele><time>2026-04-27T08:06:07.386Z</time></trkpt><trkpt lat="44.5799969" lon="15.4666639"><ele>749.5</ele><time>2026-04-27T08:06:09.386Z</time></trkpt><trkpt lat="44.5799912" lon="15.4668506"><ele>752.0</ele><time>2026-04-27T08:06:11.386Z</time></trkpt><trkpt lat="44.5800204" lon="15.4669992"><ele>753.2</ele><time>2026-04-27T08:06:13.387Z</time></trkpt><trkpt lat="44.5800609" lon="15.467166"><ele>754.4000000000001</ele><time>2026-04-27T08:06:15.386Z</time></trkpt><trkpt lat="44.5800929" lon="15.4673566"><ele>755.5999999999999</ele><time>2026-04-27T08:06:17.386Z</time></trkpt><trkpt lat="44.5801041" lon="15.4674567"><ele>756.8</ele><time>2026-04-27T08:06:18.387Z</time></trkpt><trkpt lat="44.5801191" lon="15.4676081"><ele>758.0</ele><time>2026-04-27T08:06:20.386Z</time></trkpt><trkpt lat="44.5801274" lon="15.4677455"><ele>758.0</ele><time>2026-04-27T08:06:22.387Z</time></trkpt><trkpt lat="44.5801055" lon="15.4678834"><ele>758.0</ele><time>2026-04-27T08:06:24.386Z</time></trkpt><trkpt lat="44.5800963" lon="15.468047"><ele>758.0</ele><time>2026-04-27T08:06:26.386Z</time></trkpt><trkpt lat="44.5801072" lon="15.4681365"><ele>758.0</ele><time>2026-04-27T08:06:27.386Z</time></trkpt><trkpt lat="44.5800962" lon="15.4682726"><ele>758.0</ele><time>2026-04-27T08:06:29.387Z</time></trkpt><trkpt lat="44.5800708" lon="15.4683877"><ele>758.5999999999999</ele><time>2026-04-27T08:06:31.386Z</time></trkpt><trkpt lat="44.5800637" lon="15.4685115"><ele>759.1999999999999</ele><time>2026-04-27T08:06:33.386Z</time></trkpt><trkpt lat="44.5800575" lon="15.4686018"><ele>759.8</ele><time>2026-04-27T08:06:34.386Z</time></trkpt><trkpt lat="44.5800505" lon="15.468734"><ele>760.4</ele><time>2026-04-27T08:06:36.387Z</time></trkpt><trkpt lat="44.5800563" lon="15.4688993"><ele>761.0</ele><time>2026-04-27T08:06:38.386Z</time></trkpt><trkpt lat="44.5800941" lon="15.4690675"><ele>760.9999999999999</ele><time>2026-04-27T08:06:40.386Z</time></trkpt><trkpt lat="44.5801153" lon="15.4691644"><ele>761.0</ele><time>2026-04-27T08:06:41.386Z</time></trkpt><trkpt lat="44.580126" lon="15.4692571"><ele>761.0</ele><time>2026-04-27T08:06:42.386Z</time></trkpt><trkpt lat="44.5801271" lon="15.4693471"><ele>761.0</ele><time>2026-04-27T08:06:43.386Z</time></trkpt><trkpt lat="44.5801457" lon="15.4694419"><ele>761.0</ele><time>2026-04-27T08:06:44.387Z</time></trkpt><trkpt lat="44.580147" lon="15.4695655"><ele>760.9999999999999</ele><time>2026-04-27T08:06:46.386Z</time></trkpt><trkpt lat="44.5801679" lon="15.46967"><ele>761.0</ele><time>2026-04-27T08:06:47.386Z</time></trkpt><trkpt lat="44.5801742" lon="15.4698452"><ele>760.5999999999999</ele><time>2026-04-27T08:06:49.387Z</time></trkpt><trkpt lat="44.5801894" lon="15.4699843"><ele>760.2</ele><time>2026-04-27T08:06:51.386Z</time></trkpt><trkpt lat="44.580193" lon="15.4701545"><ele>759.8</ele><time>2026-04-27T08:06:53.386Z</time></trkpt><trkpt lat="44.5802497" lon="15.4703218"><ele>759.4000000000001</ele><time>2026-04-27T08:06:55.386Z</time></trkpt><trkpt lat="44.5802797" lon="15.4704031"><ele>759.0</ele><time>2026-04-27T08:06:56.386Z</time></trkpt><trkpt lat="44.5803346" lon="15.4704934"><ele>759.3333333333334</ele><time>2026-04-27T08:06:57.387Z</time></trkpt><trkpt lat="44.580379" lon="15.470575"><ele>759.6666666666666</ele><time>2026-04-27T08:06:58.386Z</time></trkpt><trkpt lat="44.580414" lon="15.4706663"><ele>760.0</ele><time>2026-04-27T08:06:59.386Z</time></trkpt><trkpt lat="44.5804451" lon="15.4707513"><ele>760.3333333333333</ele><time>2026-04-27T08:07:00.386Z</time></trkpt><trkpt lat="44.5804653" lon="15.4708416"><ele>760.6666666666666</ele><time>2026-04-27T08:07:01.386Z</time></trkpt><trkpt lat="44.5804962" lon="15.4709276"><ele>761.0</ele><time>2026-04-27T08:07:02.386Z</time></trkpt><trkpt lat="44.5805464" lon="15.4710725"><ele>761.0</ele><time>2026-04-27T08:07:04.387Z</time></trkpt><trkpt lat="44.5806062" lon="15.4712006"><ele>761.0</ele><time>2026-04-27T08:07:06.386Z</time></trkpt><trkpt lat="44.5806414" lon="15.4713183"><ele>761.0</ele><time>2026-04-27T08:07:08.386Z</time></trkpt><trkpt lat="44.5807122" lon="15.4715103"><ele>761.0</ele><time>2026-04-27T08:07:10.386Z</time></trkpt><trkpt lat="44.5807581" lon="15.4715953"><ele>761.0</ele><time>2026-04-27T08:07:11.386Z</time></trkpt><trkpt lat="44.5808082" lon="15.4716549"><ele>760.1428571428571</ele><time>2026-04-27T08:07:12.386Z</time></trkpt><trkpt lat="44.5808516" lon="15.4717247"><ele>759.2857142857142</ele><time>2026-04-27T08:07:13.386Z</time></trkpt><trkpt lat="44.5808986" lon="15.4717965"><ele>758.4285714285713</ele><time>2026-04-27T08:07:14.386Z</time></trkpt><trkpt lat="44.5809374" lon="15.4718705"><ele>757.5714285714286</ele><time>2026-04-27T08:07:15.387Z</time></trkpt><trkpt lat="44.5809746" lon="15.4719474"><ele>756.7142857142858</ele><time>2026-04-27T08:07:16.386Z</time></trkpt><trkpt lat="44.5810135" lon="15.4720203"><ele>755.8571428571428</ele><time>2026-04-27T08:07:17.386Z</time></trkpt><trkpt lat="44.5810547" lon="15.4720921"><ele>755.0</ele><time>2026-04-27T08:07:18.386Z</time></trkpt><trkpt lat="44.5811002" lon="15.4721665"><ele>753.6666666666666</ele><time>2026-04-27T08:07:19.386Z</time></trkpt><trkpt lat="44.5811413" lon="15.472247"><ele>752.3333333333333</ele><time>2026-04-27T08:07:20.386Z</time></trkpt><trkpt lat="44.5811852" lon="15.4723312"><ele>751.0</ele><time>2026-04-27T08:07:21.386Z</time></trkpt><trkpt lat="44.5812192" lon="15.4724104"><ele>749.6666666666666</ele><time>2026-04-27T08:07:22.387Z</time></trkpt><trkpt lat="44.5812566" lon="15.4724907"><ele>748.3333333333334</ele><time>2026-04-27T08:07:23.387Z</time></trkpt><trkpt lat="44.5813053" lon="15.4726432"><ele>747.0</ele><time>2026-04-27T08:07:25.386Z</time></trkpt><trkpt lat="44.5813227" lon="15.4727285"><ele>746.8</ele><time>2026-04-27T08:07:26.386Z</time></trkpt><trkpt lat="44.5813636" lon="15.4728753"><ele>746.6</ele><time>2026-04-27T08:07:28.386Z</time></trkpt><trkpt lat="44.5813752" lon="15.4730196"><ele>746.4</ele><time>2026-04-27T08:07:30.386Z</time></trkpt><trkpt lat="44.5813482" lon="15.4731576"><ele>746.1999999999999</ele><time>2026-04-27T08:07:32.386Z</time></trkpt><trkpt lat="44.581305" lon="15.473282"><ele>746.0</ele><time>2026-04-27T08:07:34.386Z</time></trkpt><trkpt lat="44.5812815" lon="15.4734242"><ele>745.0</ele><time>2026-04-27T08:07:36.386Z</time></trkpt><trkpt lat="44.5812811" lon="15.4735951"><ele>744.0</ele><time>2026-04-27T08:07:38.386Z</time></trkpt><trkpt lat="44.5812826" lon="15.473686"><ele>743.0</ele><time>2026-04-27T08:07:39.387Z</time></trkpt><trkpt lat="44.5813038" lon="15.4738361"><ele>742.0</ele><time>2026-04-27T08:07:41.386Z</time></trkpt><trkpt lat="44.5813479" lon="15.4739922"><ele>741.0</ele><time>2026-04-27T08:07:43.386Z</time></trkpt><trkpt lat="44.5813985" lon="15.474126"><ele>740.8333333333334</ele><time>2026-04-27T08:07:45.386Z</time></trkpt><trkpt lat="44.5814413" lon="15.4742798"><ele>740.6666666666666</ele><time>2026-04-27T08:07:47.386Z</time></trkpt><trkpt lat="44.5814958" lon="15.4744335"><ele>740.5</ele><time>2026-04-27T08:07:49.386Z</time></trkpt><trkpt lat="44.5815362" lon="15.4745066"><ele>740.3333333333333</ele><time>2026-04-27T08:07:50.386Z</time></trkpt><trkpt lat="44.5815761" lon="15.4745817"><ele>740.1666666666666</ele><time>2026-04-27T08:07:51.386Z</time></trkpt><trkpt lat="44.5816088" lon="15.4746628"><ele>740.0</ele><time>2026-04-27T08:07:52.386Z</time></trkpt><trkpt lat="44.5816548" lon="15.4747266"><ele>739.0</ele><time>2026-04-27T08:07:53.386Z</time></trkpt><trkpt lat="44.5817179" lon="15.4748389"><ele>738.0</ele><time>2026-04-27T08:07:55.386Z</time></trkpt><trkpt lat="44.5817945" lon="15.474959"><ele>737.0</ele><time>2026-04-27T08:07:57.386Z</time></trkpt><trkpt lat="44.5818837" lon="15.4750934"><ele>736.0</ele><time>2026-04-27T08:07:59.386Z</time></trkpt><trkpt lat="44.5819363" lon="15.4751638"><ele>735.0</ele><time>2026-04-27T08:08:00.386Z</time></trkpt><trkpt lat="44.5819893" lon="15.4752324"><ele>735.5</ele><time>2026-04-27T08:08:01.386Z</time></trkpt><trkpt lat="44.5820361" lon="15.4752942"><ele>736.0</ele><time>2026-04-27T08:08:02.386Z</time></trkpt><trkpt lat="44.5821234" lon="15.4754139"><ele>736.5</ele><time>2026-04-27T08:08:04.386Z</time></trkpt><trkpt lat="44.5821723" lon="15.4754697"><ele>737.0</ele><time>2026-04-27T08:08:05.386Z</time></trkpt><trkpt lat="44.5822539" lon="15.4756033"><ele>737.5</ele><time>2026-04-27T08:08:07.387Z</time></trkpt><trkpt lat="44.5822883" lon="15.4756858"><ele>738.0</ele><time>2026-04-27T08:08:08.386Z</time></trkpt><trkpt lat="44.5823257" lon="15.4757765"><ele>736.3333333333334</ele><time>2026-04-27T08:08:09.387Z</time></trkpt><trkpt lat="44.5823695" lon="15.4758527"><ele>734.6666666666666</ele><time>2026-04-27T08:08:10.386Z</time></trkpt><trkpt lat="44.5824069" lon="15.475936"><ele>733.0</ele><time>2026-04-27T08:08:11.386Z</time></trkpt><trkpt lat="44.5824477" lon="15.4760255"><ele>731.3333333333333</ele><time>2026-04-27T08:08:12.386Z</time></trkpt><trkpt lat="44.5825008" lon="15.4761121"><ele>729.6666666666666</ele><time>2026-04-27T08:08:13.386Z</time></trkpt><trkpt lat="44.5825826" lon="15.4762303"><ele>728.0</ele><time>2026-04-27T08:08:15.386Z</time></trkpt><trkpt lat="44.5826555" lon="15.476333"><ele>727.25</ele><time>2026-04-27T08:08:17.387Z</time></trkpt><trkpt lat="44.5827374" lon="15.4764075"><ele>726.5</ele><time>2026-04-27T08:08:19.386Z</time></trkpt><trkpt lat="44.5828432" lon="15.4764771"><ele>725.75</ele><time>2026-04-27T08:08:21.386Z</time></trkpt><trkpt lat="44.5829406" lon="15.4765937"><ele>725.0</ele><time>2026-04-27T08:08:23.386Z</time></trkpt><trkpt lat="44.5830404" lon="15.4767071"><ele>726.0</ele><time>2026-04-27T08:08:25.386Z</time></trkpt><trkpt lat="44.5831062" lon="15.4767598"><ele>727.0</ele><time>2026-04-27T08:08:26.387Z</time></trkpt><trkpt lat="44.5831582" lon="15.4768142"><ele>728.0</ele><time>2026-04-27T08:08:27.386Z</time></trkpt><trkpt lat="44.5832611" lon="15.4769079"><ele>729.0</ele><time>2026-04-27T08:08:29.387Z</time></trkpt><trkpt lat="44.5833174" lon="15.4769731"><ele>730.0</ele><time>2026-04-27T08:08:30.386Z</time></trkpt><trkpt lat="44.5833776" lon="15.4770299"><ele>731.0</ele><time>2026-04-27T08:08:31.386Z</time></trkpt><trkpt lat="44.5834389" lon="15.4770878"><ele>731.1666666666666</ele><time>2026-04-27T08:08:32.387Z</time></trkpt><trkpt lat="44.5835054" lon="15.4771366"><ele>731.3333333333333</ele><time>2026-04-27T08:08:33.386Z</time></trkpt><trkpt lat="44.5835747" lon="15.4771793"><ele>731.5</ele><time>2026-04-27T08:08:34.386Z</time></trkpt><trkpt lat="44.5836342" lon="15.4772167"><ele>731.6666666666666</ele><time>2026-04-27T08:08:35.386Z</time></trkpt><trkpt lat="44.5837319" lon="15.4773092"><ele>731.8333333333334</ele><time>2026-04-27T08:08:37.386Z</time></trkpt><trkpt lat="44.583831" lon="15.4773809"><ele>732.0</ele><time>2026-04-27T08:08:39.386Z</time></trkpt><trkpt lat="44.5839034" lon="15.4774703"><ele>732.0</ele><time>2026-04-27T08:08:41.386Z</time></trkpt><trkpt lat="44.5839492" lon="15.4775417"><ele>732.0</ele><time>2026-04-27T08:08:42.386Z</time></trkpt><trkpt lat="44.5839993" lon="15.477601"><ele>732.0</ele><time>2026-04-27T08:08:43.387Z</time></trkpt><trkpt lat="44.5840657" lon="15.4777007"><ele>732.0</ele><time>2026-04-27T08:08:45.386Z</time></trkpt><trkpt lat="44.5841614" lon="15.4777924"><ele>732.0</ele><time>2026-04-27T08:08:47.386Z</time></trkpt><trkpt lat="44.5842721" lon="15.4778888"><ele>732.0</ele><time>2026-04-27T08:08:49.387Z</time></trkpt><trkpt lat="44.5843249" lon="15.4779552"><ele>732.0</ele><time>2026-04-27T08:08:50.387Z</time></trkpt><trkpt lat="44.5843692" lon="15.4780368"><ele>732.0</ele><time>2026-04-27T08:08:51.386Z</time></trkpt><trkpt lat="44.5844033" lon="15.4781228"><ele>732.0</ele><time>2026-04-27T08:08:52.386Z</time></trkpt><trkpt lat="44.5844291" lon="15.4782148"><ele>732.0</ele><time>2026-04-27T08:08:53.386Z</time></trkpt><trkpt lat="44.5844659" lon="15.478309"><ele>732.0</ele><time>2026-04-27T08:08:54.386Z</time></trkpt><trkpt lat="44.5845075" lon="15.4783912"><ele>732.0</ele><time>2026-04-27T08:08:55.386Z</time></trkpt><trkpt lat="44.5845681" lon="15.4785065"><ele>733.2</ele><time>2026-04-27T08:08:57.387Z</time></trkpt><trkpt lat="44.5845771" lon="15.4786359"><ele>734.4000000000001</ele><time>2026-04-27T08:08:59.386Z</time></trkpt><trkpt lat="44.5845694" lon="15.4788034"><ele>735.5999999999999</ele><time>2026-04-27T08:09:01.386Z</time></trkpt><trkpt lat="44.5845803" lon="15.4789621"><ele>736.8</ele><time>2026-04-27T08:09:03.386Z</time></trkpt><trkpt lat="44.5845955" lon="15.4790837"><ele>738.0</ele><time>2026-04-27T08:09:05.386Z</time></trkpt><trkpt lat="44.5846095" lon="15.4791925"><ele>738.0</ele><time>2026-04-27T08:09:07.386Z</time></trkpt><trkpt lat="44.5846317" lon="15.4793094"><ele>738.0</ele><time>2026-04-27T08:09:09.387Z</time></trkpt><trkpt lat="44.5846468" lon="15.4794594"><ele>738.0</ele><time>2026-04-27T08:09:11.386Z</time></trkpt><trkpt lat="44.5846444" lon="15.4795513"><ele>738.0</ele><time>2026-04-27T08:09:12.387Z</time></trkpt><trkpt lat="44.5846785" lon="15.4797136"><ele>738.0</ele><time>2026-04-27T08:09:14.386Z</time></trkpt><trkpt lat="44.5847099" lon="15.4798477"><ele>738.0</ele><time>2026-04-27T08:09:16.386Z</time></trkpt><trkpt lat="44.5847449" lon="15.4799801"><ele>738.0</ele><time>2026-04-27T08:09:18.386Z</time></trkpt><trkpt lat="44.5847818" lon="15.4801259"><ele>738.0</ele><time>2026-04-27T08:09:20.387Z</time></trkpt><trkpt lat="44.5848003" lon="15.4802127"><ele>738.0</ele><time>2026-04-27T08:09:21.387Z</time></trkpt><trkpt lat="44.5848121" lon="15.4803034"><ele>738.0</ele><time>2026-04-27T08:09:22.386Z</time></trkpt><trkpt lat="44.5848113" lon="15.4804762"><ele>737.1666666666666</ele><time>2026-04-27T08:09:24.386Z</time></trkpt><trkpt lat="44.5847947" lon="15.480569"><ele>736.3333333333334</ele><time>2026-04-27T08:09:25.386Z</time></trkpt><trkpt lat="44.5847606" lon="15.4806529"><ele>735.5</ele><time>2026-04-27T08:09:26.386Z</time></trkpt><trkpt lat="44.5847122" lon="15.4807365"><ele>734.6666666666667</ele><time>2026-04-27T08:09:27.387Z</time></trkpt><trkpt lat="44.5846757" lon="15.48083"><ele>733.8333333333334</ele><time>2026-04-27T08:09:28.387Z</time></trkpt><trkpt lat="44.5846477" lon="15.4809203"><ele>733.0</ele><time>2026-04-27T08:09:29.387Z</time></trkpt><trkpt lat="44.5845884" lon="15.4810761"><ele>733.0</ele><time>2026-04-27T08:09:31.386Z</time></trkpt><trkpt lat="44.5845266" lon="15.4811821"><ele>733.0</ele><time>2026-04-27T08:09:33.386Z</time></trkpt><trkpt lat="44.5844585" lon="15.4813202"><ele>733.0</ele><time>2026-04-27T08:09:35.386Z</time></trkpt><trkpt lat="44.584444" lon="15.4814548"><ele>733.0</ele><time>2026-04-27T08:09:37.386Z</time></trkpt><trkpt lat="44.584479" lon="15.4815415"><ele>733.0</ele><time>2026-04-27T08:09:39.386Z</time></trkpt><trkpt lat="44.5845083" lon="15.4816908"><ele>732.8333333333334</ele><time>2026-04-27T08:09:42.386Z</time></trkpt><trkpt lat="44.5845311" lon="15.4818274"><ele>732.6666666666667</ele><time>2026-04-27T08:09:44.386Z</time></trkpt><trkpt lat="44.5845693" lon="15.4819958"><ele>732.5</ele><time>2026-04-27T08:09:46.386Z</time></trkpt><trkpt lat="44.584607" lon="15.4820919"><ele>732.3333333333334</ele><time>2026-04-27T08:09:47.386Z</time></trkpt><trkpt lat="44.5846364" lon="15.4821809"><ele>732.1666666666666</ele><time>2026-04-27T08:09:48.386Z</time></trkpt><trkpt lat="44.5846609" lon="15.4822686"><ele>732.0</ele><time>2026-04-27T08:09:49.386Z</time></trkpt><trkpt lat="44.5846782" lon="15.4823622"><ele>732.3333333333334</ele><time>2026-04-27T08:09:50.386Z</time></trkpt><trkpt lat="44.5846985" lon="15.4824593"><ele>732.6666666666666</ele><time>2026-04-27T08:09:51.387Z</time></trkpt><trkpt lat="44.584717" lon="15.4825483"><ele>733.0</ele><time>2026-04-27T08:09:52.386Z</time></trkpt><trkpt lat="44.5847426" lon="15.482721"><ele>733.3333333333333</ele><time>2026-04-27T08:09:54.386Z</time></trkpt><trkpt lat="44.5847524" lon="15.4828217"><ele>733.6666666666666</ele><time>2026-04-27T08:09:55.387Z</time></trkpt><trkpt lat="44.584763" lon="15.4829335"><ele>734.0</ele><time>2026-04-27T08:09:56.387Z</time></trkpt><trkpt lat="44.5847765" lon="15.4830439"><ele>734.4285714285714</ele><time>2026-04-27T08:09:57.387Z</time></trkpt><trkpt lat="44.5847853" lon="15.4831399"><ele>734.8571428571429</ele><time>2026-04-27T08:09:58.387Z</time></trkpt><trkpt lat="44.5847899" lon="15.4832435"><ele>735.2857142857143</ele><time>2026-04-27T08:09:59.386Z</time></trkpt><trkpt lat="44.5847989" lon="15.4833334"><ele>735.7142857142858</ele><time>2026-04-27T08:10:00.386Z</time></trkpt><trkpt lat="44.5848121" lon="15.4834337"><ele>736.1428571428571</ele><time>2026-04-27T08:10:01.386Z</time></trkpt><trkpt lat="44.5848276" lon="15.483523"><ele>736.5714285714287</ele><time>2026-04-27T08:10:02.386Z</time></trkpt><trkpt lat="44.5848503" lon="15.4836153"><ele>737.0</ele><time>2026-04-27T08:10:03.386Z</time></trkpt><trkpt lat="44.5848866" lon="15.4837041"><ele>737.2</ele><time>2026-04-27T08:10:04.387Z</time></trkpt><trkpt lat="44.5849362" lon="15.4838431"><ele>737.4000000000001</ele><time>2026-04-27T08:10:06.386Z</time></trkpt><trkpt lat="44.5849448" lon="15.4839856"><ele>737.5999999999999</ele><time>2026-04-27T08:10:08.386Z</time></trkpt><trkpt lat="44.5849319" lon="15.4840911"><ele>737.8</ele><time>2026-04-27T08:10:09.386Z</time></trkpt><trkpt lat="44.5849262" lon="15.4842467"><ele>738.0</ele><time>2026-04-27T08:10:11.386Z</time></trkpt><trkpt lat="44.5849195" lon="15.4843382"><ele>738.0</ele><time>2026-04-27T08:10:12.387Z</time></trkpt><trkpt lat="44.5849002" lon="15.4844326"><ele>738.0</ele><time>2026-04-27T08:10:13.387Z</time></trkpt><trkpt lat="44.5848431" lon="15.4845744"><ele>738.0</ele><time>2026-04-27T08:10:15.386Z</time></trkpt><trkpt lat="44.5847957" lon="15.4847178"><ele>738.0</ele><time>2026-04-27T08:10:17.386Z</time></trkpt><trkpt lat="44.5847595" lon="15.4848431"><ele>738.0</ele><time>2026-04-27T08:10:19.386Z</time></trkpt><trkpt lat="44.5847303" lon="15.4850013"><ele>738.2</ele><time>2026-04-27T08:10:21.387Z</time></trkpt><trkpt lat="44.5846903" lon="15.4851524"><ele>738.4</ele><time>2026-04-27T08:10:23.386Z</time></trkpt><trkpt lat="44.5846383" lon="15.4852983"><ele>738.6</ele><time>2026-04-27T08:10:25.386Z</time></trkpt><trkpt lat="44.5846069" lon="15.4853758"><ele>738.8000000000001</ele><time>2026-04-27T08:10:26.386Z</time></trkpt><trkpt lat="44.5845579" lon="15.4855257"><ele>739.0</ele><time>2026-04-27T08:10:28.387Z</time></trkpt><trkpt lat="44.5845378" lon="15.4856135"><ele>737.0</ele><time>2026-04-27T08:10:29.386Z</time></trkpt><trkpt lat="44.5845005" lon="15.4857606"><ele>735.0</ele><time>2026-04-27T08:10:31.386Z</time></trkpt><trkpt lat="44.5844666" lon="15.4858942"><ele>733.0</ele><time>2026-04-27T08:10:33.386Z</time></trkpt><trkpt lat="44.5844204" lon="15.4860258"><ele>731.0</ele><time>2026-04-27T08:10:35.386Z</time></trkpt><trkpt lat="44.5843719" lon="15.4861302"><ele>729.0</ele><time>2026-04-27T08:10:37.387Z</time></trkpt><trkpt lat="44.5843051" lon="15.4861799"><ele>729.0</ele><time>2026-04-27T08:10:39.386Z</time></trkpt><trkpt lat="44.5842322" lon="15.4862307"><ele>729.0</ele><time>2026-04-27T08:10:41.387Z</time></trkpt><trkpt lat="44.5841433" lon="15.4862996"><ele>729.0</ele><time>2026-04-27T08:10:43.387Z</time></trkpt><trkpt lat="44.5840837" lon="15.4863441"><ele>729.0</ele><time>2026-04-27T08:10:44.386Z</time></trkpt><trkpt lat="44.5839862" lon="15.4864391"><ele>729.0</ele><time>2026-04-27T08:10:46.387Z</time></trkpt><trkpt lat="44.5839369" lon="15.4864974"><ele>729.0</ele><time>2026-04-27T08:10:47.386Z</time></trkpt><trkpt lat="44.5838875" lon="15.4865525"><ele>729.1666666666666</ele><time>2026-04-27T08:10:48.386Z</time></trkpt><trkpt lat="44.5837876" lon="15.4866418"><ele>729.3333333333334</ele><time>2026-04-27T08:10:50.387Z</time></trkpt><trkpt lat="44.583734" lon="15.4867082"><ele>729.5</ele><time>2026-04-27T08:10:51.387Z</time></trkpt><trkpt lat="44.5836845" lon="15.4867866"><ele>729.6666666666667</ele><time>2026-04-27T08:10:52.386Z</time></trkpt><trkpt lat="44.5836439" lon="15.4868569"><ele>729.8333333333334</ele><time>2026-04-27T08:10:53.386Z</time></trkpt><trkpt lat="44.5836018" lon="15.4869305"><ele>730.0</ele><time>2026-04-27T08:10:54.386Z</time></trkpt><trkpt lat="44.5835659" lon="15.4870066"><ele>728.4</ele><time>2026-04-27T08:10:55.386Z</time></trkpt><trkpt lat="44.5835282" lon="15.4870923"><ele>726.8</ele><time>2026-04-27T08:10:56.386Z</time></trkpt><trkpt lat="44.5834932" lon="15.4871699"><ele>725.2</ele><time>2026-04-27T08:10:57.387Z</time></trkpt><trkpt lat="44.5834301" lon="15.4872976"><ele>723.6</ele><time>2026-04-27T08:10:59.386Z</time></trkpt><trkpt lat="44.5833455" lon="15.4874531"><ele>722.0</ele><time>2026-04-27T08:11:01.387Z</time></trkpt><trkpt lat="44.5833084" lon="15.4875383"><ele>722.0</ele><time>2026-04-27T08:11:02.386Z</time></trkpt><trkpt lat="44.5832678" lon="15.4877061"><ele>722.0</ele><time>2026-04-27T08:11:04.386Z</time></trkpt><trkpt lat="44.5832367" lon="15.4877959"><ele>722.0</ele><time>2026-04-27T08:11:05.386Z</time></trkpt><trkpt lat="44.5832034" lon="15.4878764"><ele>722.0</ele><time>2026-04-27T08:11:06.387Z</time></trkpt><trkpt lat="44.5831876" lon="15.4879623"><ele>722.0</ele><time>2026-04-27T08:11:07.386Z</time></trkpt><trkpt lat="44.5831844" lon="15.4881198"><ele>722.0</ele><time>2026-04-27T08:11:09.387Z</time></trkpt><trkpt lat="44.5831693" lon="15.4882723"><ele>722.0</ele><time>2026-04-27T08:11:11.386Z</time></trkpt><trkpt lat="44.5831567" lon="15.4883614"><ele>722.0</ele><time>2026-04-27T08:11:12.386Z</time></trkpt><trkpt lat="44.5831534" lon="15.4885257"><ele>722.0</ele><time>2026-04-27T08:11:14.386Z</time></trkpt><trkpt lat="44.5831848" lon="15.4886789"><ele>722.0</ele><time>2026-04-27T08:11:16.386Z</time></trkpt><trkpt lat="44.5832272" lon="15.4888345"><ele>722.0</ele><time>2026-04-27T08:11:18.386Z</time></trkpt><trkpt lat="44.5832535" lon="15.4889241"><ele>722.5</ele><time>2026-04-27T08:11:19.386Z</time></trkpt><trkpt lat="44.5832863" lon="15.4890038"><ele>723.0</ele><time>2026-04-27T08:11:20.386Z</time></trkpt><trkpt lat="44.5833496" lon="15.4891343"><ele>723.5</ele><time>2026-04-27T08:11:22.387Z</time></trkpt><trkpt lat="44.5833531" lon="15.4892998"><ele>724.0</ele><time>2026-04-27T08:11:24.386Z</time></trkpt><trkpt lat="44.5833361" lon="15.4893979"><ele>724.5</ele><time>2026-04-27T08:11:25.386Z</time></trkpt><trkpt lat="44.5833216" lon="15.4894861"><ele>725.0</ele><time>2026-04-27T08:11:26.386Z</time></trkpt><trkpt lat="44.5832975" lon="15.4896605"><ele>725.0</ele><time>2026-04-27T08:11:28.386Z</time></trkpt><trkpt lat="44.5832797" lon="15.4897479"><ele>725.0</ele><time>2026-04-27T08:11:29.386Z</time></trkpt><trkpt lat="44.5832521" lon="15.4898379"><ele>725.0</ele><time>2026-04-27T08:11:30.387Z</time></trkpt><trkpt lat="44.5832243" lon="15.4899211"><ele>725.0</ele><time>2026-04-27T08:11:31.386Z</time></trkpt><trkpt lat="44.5831496" lon="15.4900477"><ele>725.0</ele><time>2026-04-27T08:11:33.387Z</time></trkpt><trkpt lat="44.5830726" lon="15.4901655"><ele>725.0</ele><time>2026-04-27T08:11:35.386Z</time></trkpt><trkpt lat="44.5830143" lon="15.4903262"><ele>724.25</ele><time>2026-04-27T08:11:37.386Z</time></trkpt><trkpt lat="44.5829778" lon="15.490482"><ele>723.5</ele><time>2026-04-27T08:11:39.386Z</time></trkpt><trkpt lat="44.5829268" lon="15.490654"><ele>722.75</ele><time>2026-04-27T08:11:41.386Z</time></trkpt><trkpt lat="44.5828695" lon="15.4908018"><ele>722.0</ele><time>2026-04-27T08:11:43.386Z</time></trkpt><trkpt lat="44.5828177" lon="15.4909484"><ele>722.0</ele><time>2026-04-27T08:11:45.387Z</time></trkpt><trkpt lat="44.582752" lon="15.4910959"><ele>722.0</ele><time>2026-04-27T08:11:47.386Z</time></trkpt><trkpt lat="44.5827121" lon="15.491178"><ele>722.0</ele><time>2026-04-27T08:11:48.386Z</time></trkpt><trkpt lat="44.5826691" lon="15.4912565"><ele>722.0</ele><time>2026-04-27T08:11:49.386Z</time></trkpt><trkpt lat="44.5826253" lon="15.4913299"><ele>722.0</ele><time>2026-04-27T08:11:50.387Z</time></trkpt><trkpt lat="44.5825783" lon="15.4913977"><ele>722.0</ele><time>2026-04-27T08:11:51.387Z</time></trkpt><trkpt lat="44.5825348" lon="15.4914668"><ele>723.0</ele><time>2026-04-27T08:11:52.386Z</time></trkpt><trkpt lat="44.5824655" lon="15.4915714"><ele>724.0</ele><time>2026-04-27T08:11:54.386Z</time></trkpt><trkpt lat="44.582394" lon="15.4916419"><ele>725.0</ele><time>2026-04-27T08:11:56.386Z</time></trkpt><trkpt lat="44.5822896" lon="15.4916864"><ele>726.0</ele><time>2026-04-27T08:11:58.386Z</time></trkpt><trkpt lat="44.5821731" lon="15.4917727"><ele>727.0</ele><time>2026-04-27T08:12:00.387Z</time></trkpt><trkpt lat="44.5821062" lon="15.4918253"><ele>727.0</ele><time>2026-04-27T08:12:01.386Z</time></trkpt><trkpt lat="44.5820339" lon="15.4918655"><ele>727.0</ele><time>2026-04-27T08:12:02.386Z</time></trkpt><trkpt lat="44.5819701" lon="15.4918956"><ele>727.0</ele><time>2026-04-27T08:12:03.386Z</time></trkpt><trkpt lat="44.5818571" lon="15.4919059"><ele>727.0</ele><time>2026-04-27T08:12:05.386Z</time></trkpt><trkpt lat="44.5817926" lon="15.4919128"><ele>727.0</ele><time>2026-04-27T08:12:06.386Z</time></trkpt><trkpt lat="44.5816976" lon="15.4919945"><ele>727.0</ele><time>2026-04-27T08:12:08.387Z</time></trkpt><trkpt lat="44.5816098" lon="15.4920963"><ele>726.4000000000001</ele><time>2026-04-27T08:12:10.387Z</time></trkpt><trkpt lat="44.5815125" lon="15.4921666"><ele>725.8000000000001</ele><time>2026-04-27T08:12:12.386Z</time></trkpt><trkpt lat="44.5814271" lon="15.4922764"><ele>725.2</ele><time>2026-04-27T08:12:14.386Z</time></trkpt><trkpt lat="44.5813893" lon="15.4924167"><ele>724.6</ele><time>2026-04-27T08:12:16.386Z</time></trkpt><trkpt lat="44.5813578" lon="15.4925703"><ele>724.0</ele><time>2026-04-27T08:12:18.386Z</time></trkpt><trkpt lat="44.5813059" lon="15.4927341"><ele>724.0</ele><time>2026-04-27T08:12:20.386Z</time></trkpt><trkpt lat="44.5812851" lon="15.4928312"><ele>724.0</ele><time>2026-04-27T08:12:21.386Z</time></trkpt><trkpt lat="44.5812751" lon="15.4929371"><ele>724.0</ele><time>2026-04-27T08:12:22.386Z</time></trkpt><trkpt lat="44.5812726" lon="15.4930414"><ele>724.0</ele><time>2026-04-27T08:12:23.386Z</time></trkpt><trkpt lat="44.5812764" lon="15.493146"><ele>724.0</ele><time>2026-04-27T08:12:24.387Z</time></trkpt><trkpt lat="44.5812821" lon="15.4932352"><ele>724.0</ele><time>2026-04-27T08:12:25.386Z</time></trkpt><trkpt lat="44.5812898" lon="15.4933231"><ele>724.0</ele><time>2026-04-27T08:12:26.386Z</time></trkpt><trkpt lat="44.5812764" lon="15.493475"><ele>724.2</ele><time>2026-04-27T08:12:28.387Z</time></trkpt><trkpt lat="44.5812648" lon="15.4935893"><ele>724.4000000000001</ele><time>2026-04-27T08:12:29.386Z</time></trkpt><trkpt lat="44.5812564" lon="15.4936812"><ele>724.6</ele><time>2026-04-27T08:12:30.386Z</time></trkpt><trkpt lat="44.5812333" lon="15.4938503"><ele>724.8</ele><time>2026-04-27T08:12:32.386Z</time></trkpt><trkpt lat="44.581185" lon="15.4940095"><ele>725.0</ele><time>2026-04-27T08:12:34.386Z</time></trkpt><trkpt lat="44.5811752" lon="15.4940999"><ele>725.6</ele><time>2026-04-27T08:12:35.386Z</time></trkpt><trkpt lat="44.5811559" lon="15.4942649"><ele>726.2</ele><time>2026-04-27T08:12:37.386Z</time></trkpt><trkpt lat="44.5811414" lon="15.4943953"><ele>726.8</ele><time>2026-04-27T08:12:39.387Z</time></trkpt><trkpt lat="44.5811282" lon="15.4945075"><ele>727.4</ele><time>2026-04-27T08:12:41.387Z</time></trkpt><trkpt lat="44.581138" lon="15.4946485"><ele>728.0</ele><time>2026-04-27T08:12:43.386Z</time></trkpt><trkpt lat="44.581129" lon="15.4947658"><ele>729.0</ele><time>2026-04-27T08:12:45.386Z</time></trkpt><trkpt lat="44.5811434" lon="15.4949049"><ele>730.0</ele><time>2026-04-27T08:12:47.386Z</time></trkpt><trkpt lat="44.5811308" lon="15.4950792"><ele>731.0</ele><time>2026-04-27T08:12:49.387Z</time></trkpt><trkpt lat="44.581124" lon="15.495177"><ele>732.0</ele><time>2026-04-27T08:12:50.386Z</time></trkpt><trkpt lat="44.5811189" lon="15.4952746"><ele>733.0</ele><time>2026-04-27T08:12:51.386Z</time></trkpt><trkpt lat="44.581116" lon="15.4953676"><ele>734.0</ele><time>2026-04-27T08:12:52.386Z</time></trkpt><trkpt lat="44.5810892" lon="15.4955025"><ele>735.0</ele><time>2026-04-27T08:12:54.386Z</time></trkpt><trkpt lat="44.5810368" lon="15.4955657"><ele>736.0</ele><time>2026-04-27T08:12:57.387Z</time></trkpt><trkpt lat="44.5809657" lon="15.4955854"><ele>737.0</ele><time>2026-04-27T08:13:00.386Z</time></trkpt><trkpt lat="44.5808948" lon="15.4956557"><ele>738.0</ele><time>2026-04-27T08:13:03.387Z</time></trkpt><trkpt lat="44.5808119" lon="15.4957247"><ele>739.0</ele><time>2026-04-27T08:13:05.386Z</time></trkpt><trkpt lat="44.5807577" lon="15.4957706"><ele>740.0</ele><time>2026-04-27T08:13:07.386Z</time></trkpt><trkpt lat="44.580694" lon="15.4958545"><ele>740.0</ele><time>2026-04-27T08:13:09.386Z</time></trkpt><trkpt lat="44.5806095" lon="15.4959631"><ele>740.0</ele><time>2026-04-27T08:13:11.386Z</time></trkpt><trkpt lat="44.5805246" lon="15.4960562"><ele>740.0</ele><time>2026-04-27T08:13:13.387Z</time></trkpt><trkpt lat="44.5804245" lon="15.4961348"><ele>740.0</ele><time>2026-04-27T08:13:15.386Z</time></trkpt><trkpt lat="44.5803581" lon="15.4962099"><ele>740.0</ele><time>2026-04-27T08:13:17.386Z</time></trkpt><trkpt lat="44.5803267" lon="15.496299"><ele>740.6</ele><time>2026-04-27T08:13:19.386Z</time></trkpt><trkpt lat="44.5802963" lon="15.4964264"><ele>741.2</ele><time>2026-04-27T08:13:21.386Z</time></trkpt><trkpt lat="44.5802905" lon="15.4965147"><ele>741.8</ele><time>2026-04-27T08:13:22.387Z</time></trkpt><trkpt lat="44.5802318" lon="15.4966523"><ele>742.4</ele><time>2026-04-27T08:13:24.386Z</time></trkpt><trkpt lat="44.5802016" lon="15.4967996"><ele>743.0</ele><time>2026-04-27T08:13:26.386Z</time></trkpt><trkpt lat="44.5801614" lon="15.4968819"><ele>743.0</ele><time>2026-04-27T08:13:28.387Z</time></trkpt><trkpt lat="44.5801576" lon="15.4969716"><ele>743.0</ele><time>2026-04-27T08:13:30.386Z</time></trkpt><trkpt lat="44.5801323" lon="15.4971041"><ele>743.0</ele><time>2026-04-27T08:13:33.386Z</time></trkpt><trkpt lat="44.5801665" lon="15.4972373"><ele>743.0</ele><time>2026-04-27T08:13:35.386Z</time></trkpt><trkpt lat="44.580173" lon="15.4973663"><ele>743.0</ele><time>2026-04-27T08:13:37.386Z</time></trkpt><trkpt lat="44.58019" lon="15.4974964"><ele>743.0</ele><time>2026-04-27T08:13:39.386Z</time></trkpt><trkpt lat="44.5802245" lon="15.4976345"><ele>743.5</ele><time>2026-04-27T08:13:41.386Z</time></trkpt><trkpt lat="44.5802775" lon="15.4977713"><ele>744.0</ele><time>2026-04-27T08:13:43.387Z</time></trkpt><trkpt lat="44.5803136" lon="15.4979154"><ele>744.5</ele><time>2026-04-27T08:13:45.386Z</time></trkpt><trkpt lat="44.5803243" lon="15.4980364"><ele>745.0</ele><time>2026-04-27T08:13:47.386Z</time></trkpt><trkpt lat="44.5803141" lon="15.49814"><ele>745.5</ele><time>2026-04-27T08:13:49.386Z</time></trkpt><trkpt lat="44.5802753" lon="15.498215"><ele>746.0</ele><time>2026-04-27T08:13:51.387Z</time></trkpt><trkpt lat="44.5801829" lon="15.4982488"><ele>747.0</ele><time>2026-04-27T08:13:54.387Z</time></trkpt><trkpt lat="44.5801094" lon="15.4983385"><ele>748.0</ele><time>2026-04-27T08:13:57.386Z</time></trkpt><trkpt lat="44.5800913" lon="15.4984952"><ele>749.0</ele><time>2026-04-27T08:14:00.387Z</time></trkpt><trkpt lat="44.5801153" lon="15.4986123"><ele>750.0</ele><time>2026-04-27T08:14:02.387Z</time></trkpt><trkpt lat="44.580138" lon="15.4987381"><ele>751.0</ele><time>2026-04-27T08:14:04.386Z</time></trkpt><trkpt lat="44.5801716" lon="15.4988632"><ele>751.5999999999999</ele><time>2026-04-27T08:14:07.386Z</time></trkpt><trkpt lat="44.5802122" lon="15.4989433"><ele>752.2</ele><time>2026-04-27T08:14:09.386Z</time></trkpt><trkpt lat="44.5802553" lon="15.4990953"><ele>752.8</ele><time>2026-04-27T08:14:11.386Z</time></trkpt><trkpt lat="44.5802442" lon="15.4992437"><ele>753.4000000000001</ele><time>2026-04-27T08:14:13.386Z</time></trkpt><trkpt lat="44.580245" lon="15.4994157"><ele>754.0</ele><time>2026-04-27T08:14:15.386Z</time></trkpt><trkpt lat="44.5802583" lon="15.4995657"><ele>754.4000000000001</ele><time>2026-04-27T08:14:17.386Z</time></trkpt><trkpt lat="44.5802673" lon="15.4996622"><ele>754.8</ele><time>2026-04-27T08:14:18.386Z</time></trkpt><trkpt lat="44.5802851" lon="15.4998332"><ele>755.2</ele><time>2026-04-27T08:14:20.386Z</time></trkpt><trkpt lat="44.5803206" lon="15.4999693"><ele>755.5999999999999</ele><time>2026-04-27T08:14:22.386Z</time></trkpt><trkpt lat="44.5803247" lon="15.5000597"><ele>756.0</ele><time>2026-04-27T08:14:23.386Z</time></trkpt><trkpt lat="44.5803015" lon="15.5002234"><ele>756.0</ele><time>2026-04-27T08:14:25.387Z</time></trkpt><trkpt lat="44.5802489" lon="15.5004028"><ele>756.0</ele><time>2026-04-27T08:14:27.387Z</time></trkpt><trkpt lat="44.5802118" lon="15.5004969"><ele>756.0</ele><time>2026-04-27T08:14:28.386Z</time></trkpt><trkpt lat="44.5801761" lon="15.5006112"><ele>756.0</ele><time>2026-04-27T08:14:29.387Z</time></trkpt><trkpt lat="44.5801417" lon="15.5007"><ele>756.0</ele><time>2026-04-27T08:14:30.386Z</time></trkpt><trkpt lat="44.5801101" lon="15.5007781"><ele>756.0</ele><time>2026-04-27T08:14:31.386Z</time></trkpt><trkpt lat="44.580061" lon="15.5009158"><ele>756.1666666666666</ele><time>2026-04-27T08:14:33.386Z</time></trkpt><trkpt lat="44.5800105" lon="15.5010184"><ele>756.3333333333334</ele><time>2026-04-27T08:14:35.386Z</time></trkpt><trkpt lat="44.5799787" lon="15.5010978"><ele>756.5</ele><time>2026-04-27T08:14:38.386Z</time></trkpt><trkpt lat="44.5799169" lon="15.5011168"><ele>756.6666666666667</ele><time>2026-04-27T08:14:54.386Z</time></trkpt><trkpt lat="44.5798273" lon="15.501113"><ele>756.8333333333334</ele><time>2026-04-27T08:25:34.386Z</time></trkpt><trkpt lat="44.5797496" lon="15.5010562"><ele>757.0</ele><time>2026-04-27T08:25:36.386Z</time></trkpt><trkpt lat="44.5796711" lon="15.5010105"><ele>757.0</ele><time>2026-04-27T08:25:38.387Z</time></trkpt><trkpt lat="44.5796145" lon="15.5009517"><ele>757.0</ele><time>2026-04-27T08:25:40.387Z</time></trkpt><trkpt lat="44.5795531" lon="15.5008924"><ele>757.0</ele><time>2026-04-27T08:25:42.386Z</time></trkpt><trkpt lat="44.5794875" lon="15.5008053"><ele>757.0</ele><time>2026-04-27T08:25:44.386Z</time></trkpt><trkpt lat="44.579407" lon="15.5007169"><ele>757.0</ele><time>2026-04-27T08:25:46.386Z</time></trkpt><trkpt lat="44.5792958" lon="15.500609"><ele>756.8333333333334</ele><time>2026-04-27T08:25:48.386Z</time></trkpt><trkpt lat="44.579243" lon="15.5004642"><ele>756.6666666666667</ele><time>2026-04-27T08:25:50.386Z</time></trkpt><trkpt lat="44.5792032" lon="15.5003879"><ele>756.5</ele><time>2026-04-27T08:25:52.387Z</time></trkpt><trkpt lat="44.5791466" lon="15.5003273"><ele>756.3333333333334</ele><time>2026-04-27T08:25:54.386Z</time></trkpt><trkpt lat="44.579061" lon="15.5003567"><ele>756.1666666666666</ele><time>2026-04-27T08:25:56.386Z</time></trkpt><trkpt lat="44.5789758" lon="15.5004161"><ele>756.0</ele><time>2026-04-27T08:25:58.386Z</time></trkpt><trkpt lat="44.5789151" lon="15.5004632"><ele>756.0</ele><time>2026-04-27T08:26:00.386Z</time></trkpt><trkpt lat="44.5788551" lon="15.5005006"><ele>756.0</ele><time>2026-04-27T08:26:02.386Z</time></trkpt><trkpt lat="44.5787737" lon="15.5005019"><ele>756.0</ele><time>2026-04-27T08:26:04.386Z</time></trkpt><trkpt lat="44.5787109" lon="15.5005485"><ele>756.0</ele><time>2026-04-27T08:26:06.387Z</time></trkpt><trkpt lat="44.5786158" lon="15.5006044"><ele>756.0</ele><time>2026-04-27T08:26:08.386Z</time></trkpt><trkpt lat="44.5785236" lon="15.5006554"><ele>756.0</ele><time>2026-04-27T08:26:10.386Z</time></trkpt><trkpt lat="44.5784481" lon="15.5006372"><ele>756.0</ele><time>2026-04-27T08:26:12.387Z</time></trkpt><trkpt lat="44.5783735" lon="15.5005948"><ele>756.0</ele><time>2026-04-27T08:26:14.386Z</time></trkpt><trkpt lat="44.5782886" lon="15.5005724"><ele>756.0</ele><time>2026-04-27T08:26:16.386Z</time></trkpt><trkpt lat="44.578184" lon="15.5005138"><ele>756.0</ele><time>2026-04-27T08:26:18.386Z</time></trkpt><trkpt lat="44.5780968" lon="15.5004377"><ele>756.0</ele><time>2026-04-27T08:26:20.386Z</time></trkpt><trkpt lat="44.5779892" lon="15.5003613"><ele>756.0</ele><time>2026-04-27T08:26:22.386Z</time></trkpt><trkpt lat="44.5779224" lon="15.5003568"><ele>756.0</ele><time>2026-04-27T08:26:23.386Z</time></trkpt><trkpt lat="44.5778079" lon="15.500325"><ele>756.0</ele><time>2026-04-27T08:26:25.386Z</time></trkpt><trkpt lat="44.5777397" lon="15.5003007"><ele>756.0</ele><time>2026-04-27T08:26:26.386Z</time></trkpt><trkpt lat="44.5776381" lon="15.5002698"><ele>756.0</ele><time>2026-04-27T08:26:28.387Z</time></trkpt><trkpt lat="44.5775372" lon="15.5002946"><ele>755.8333333333334</ele><time>2026-04-27T08:26:30.386Z</time></trkpt><trkpt lat="44.5774496" lon="15.5002971"><ele>755.6666666666666</ele><time>2026-04-27T08:26:32.386Z</time></trkpt><trkpt lat="44.5773685" lon="15.5003064"><ele>755.5</ele><time>2026-04-27T08:26:34.386Z</time></trkpt><trkpt lat="44.5772777" lon="15.5002794"><ele>755.3333333333333</ele><time>2026-04-27T08:26:36.386Z</time></trkpt><trkpt lat="44.5772042" lon="15.500222"><ele>755.1666666666666</ele><time>2026-04-27T08:26:38.386Z</time></trkpt><trkpt lat="44.5771486" lon="15.5001725"><ele>755.0</ele><time>2026-04-27T08:26:40.386Z</time></trkpt><trkpt lat="44.5770756" lon="15.5001328"><ele>755.0</ele><time>2026-04-27T08:26:42.386Z</time></trkpt><trkpt lat="44.5770232" lon="15.5000628"><ele>755.0</ele><time>2026-04-27T08:26:44.386Z</time></trkpt><trkpt lat="44.5769897" lon="15.4999862"><ele>755.0</ele><time>2026-04-27T08:26:45.386Z</time></trkpt><trkpt lat="44.5769111" lon="15.4998663"><ele>755.0</ele><time>2026-04-27T08:26:47.386Z</time></trkpt><trkpt lat="44.5768252" lon="15.4997486"><ele>755.0</ele><time>2026-04-27T08:26:49.386Z</time></trkpt><trkpt lat="44.5767735" lon="15.4996775"><ele>755.0</ele><time>2026-04-27T08:26:50.386Z</time></trkpt><trkpt lat="44.5767198" lon="15.4996198"><ele>755.8333333333333</ele><time>2026-04-27T08:26:51.386Z</time></trkpt><trkpt lat="44.5766701" lon="15.4995616"><ele>756.6666666666666</ele><time>2026-04-27T08:26:52.386Z</time></trkpt><trkpt lat="44.5766203" lon="15.499501"><ele>757.5</ele><time>2026-04-27T08:26:53.386Z</time></trkpt><trkpt lat="44.5765661" lon="15.4994544"><ele>758.3333333333334</ele><time>2026-04-27T08:26:54.386Z</time></trkpt><trkpt lat="44.5765114" lon="15.4993857"><ele>759.1666666666667</ele><time>2026-04-27T08:26:55.386Z</time></trkpt><trkpt lat="44.5764072" lon="15.499285"><ele>760.0</ele><time>2026-04-27T08:26:57.386Z</time></trkpt><trkpt lat="44.5763491" lon="15.4992362"><ele>760.0</ele><time>2026-04-27T08:26:58.386Z</time></trkpt><trkpt lat="44.5762831" lon="15.4991584"><ele>760.0</ele><time>2026-04-27T08:27:00.386Z</time></trkpt><trkpt lat="44.5762049" lon="15.4990576"><ele>760.0</ele><time>2026-04-27T08:27:02.386Z</time></trkpt><trkpt lat="44.5761446" lon="15.4990201"><ele>760.0</ele><time>2026-04-27T08:27:03.387Z</time></trkpt><trkpt lat="44.5760472" lon="15.498941"><ele>760.0</ele><time>2026-04-27T08:27:05.386Z</time></trkpt><trkpt lat="44.5759831" lon="15.4989016"><ele>760.0</ele><time>2026-04-27T08:27:06.386Z</time></trkpt><trkpt lat="44.575885" lon="15.498859"><ele>760.0</ele><time>2026-04-27T08:27:08.386Z</time></trkpt><trkpt lat="44.5757618" lon="15.4987833"><ele>760.0</ele><time>2026-04-27T08:27:10.387Z</time></trkpt><trkpt lat="44.5756962" lon="15.4987419"><ele>760.0</ele><time>2026-04-27T08:27:11.386Z</time></trkpt><trkpt lat="44.5755892" lon="15.4986826"><ele>760.0</ele><time>2026-04-27T08:27:13.387Z</time></trkpt><trkpt lat="44.5754868" lon="15.4986291"><ele>760.0</ele><time>2026-04-27T08:27:15.386Z</time></trkpt><trkpt lat="44.5753821" lon="15.4985725"><ele>763.0</ele><time>2026-04-27T08:27:17.387Z</time></trkpt><trkpt lat="44.5752738" lon="15.4984679"><ele>766.0</ele><time>2026-04-27T08:27:19.387Z</time></trkpt><trkpt lat="44.5752009" lon="15.498389"><ele>769.0</ele><time>2026-04-27T08:27:21.386Z</time></trkpt><trkpt lat="44.5751527" lon="15.4983067"><ele>772.0</ele><time>2026-04-27T08:27:23.386Z</time></trkpt><trkpt lat="44.5750933" lon="15.4982405"><ele>775.0</ele><time>2026-04-27T08:27:28.386Z</time></trkpt><trkpt lat="44.5750177" lon="15.4982124"><ele>774.9999999999999</ele><time>2026-04-27T08:27:31.387Z</time></trkpt><trkpt lat="44.5749313" lon="15.4982435"><ele>775.0</ele><time>2026-04-27T08:27:33.386Z</time></trkpt><trkpt lat="44.5748441" lon="15.4983181"><ele>775.0</ele><time>2026-04-27T08:27:35.386Z</time></trkpt><trkpt lat="44.5747864" lon="15.4983952"><ele>775.0</ele><time>2026-04-27T08:27:37.387Z</time></trkpt><trkpt lat="44.5747442" lon="15.4984773"><ele>774.9999999999999</ele><time>2026-04-27T08:27:39.386Z</time></trkpt><trkpt lat="44.5746684" lon="15.4985077"><ele>775.0</ele><time>2026-04-27T08:27:42.386Z</time></trkpt><trkpt lat="44.5745671" lon="15.4984804"><ele>775.8333333333333</ele><time>2026-04-27T08:27:44.386Z</time></trkpt><trkpt lat="44.5745132" lon="15.4984145"><ele>776.6666666666666</ele><time>2026-04-27T08:27:46.386Z</time></trkpt><trkpt lat="44.5744358" lon="15.4983508"><ele>777.5</ele><time>2026-04-27T08:27:48.386Z</time></trkpt><trkpt lat="44.574362" lon="15.4983102"><ele>778.3333333333333</ele><time>2026-04-27T08:27:50.386Z</time></trkpt><trkpt lat="44.5742816" lon="15.4983312"><ele>779.1666666666666</ele><time>2026-04-27T08:27:51.386Z</time></trkpt><trkpt lat="44.5741913" lon="15.4983266"><ele>780.0</ele><time>2026-04-27T08:27:53.386Z</time></trkpt><trkpt lat="44.574074" lon="15.4983367"><ele>780.0</ele><time>2026-04-27T08:27:55.386Z</time></trkpt><trkpt lat="44.5740065" lon="15.4983541"><ele>780.0</ele><time>2026-04-27T08:27:56.386Z</time></trkpt><trkpt lat="44.5738909" lon="15.4983801"><ele>780.0</ele><time>2026-04-27T08:27:58.386Z</time></trkpt><trkpt lat="44.5738244" lon="15.4984133"><ele>780.0</ele><time>2026-04-27T08:27:59.387Z</time></trkpt><trkpt lat="44.5737182" lon="15.4984944"><ele>780.0</ele><time>2026-04-27T08:28:01.386Z</time></trkpt><trkpt lat="44.5736631" lon="15.4985521"><ele>780.0</ele><time>2026-04-27T08:28:02.386Z</time></trkpt><trkpt lat="44.5735864" lon="15.4986261"><ele>780.8</ele><time>2026-04-27T08:28:03.386Z</time></trkpt><trkpt lat="44.5735081" lon="15.4986993"><ele>781.6</ele><time>2026-04-27T08:28:05.386Z</time></trkpt><trkpt lat="44.5734122" lon="15.4987129"><ele>782.4000000000001</ele><time>2026-04-27T08:28:07.386Z</time></trkpt><trkpt lat="44.5732888" lon="15.4987122"><ele>783.2</ele><time>2026-04-27T08:28:09.386Z</time></trkpt><trkpt lat="44.5731629" lon="15.4987576"><ele>784.0</ele><time>2026-04-27T08:28:11.387Z</time></trkpt><trkpt lat="44.5730733" lon="15.4988028"><ele>782.25</ele><time>2026-04-27T08:28:13.386Z</time></trkpt><trkpt lat="44.5729478" lon="15.4988578"><ele>780.5</ele><time>2026-04-27T08:28:15.387Z</time></trkpt><trkpt lat="44.5728226" lon="15.4989067"><ele>778.75</ele><time>2026-04-27T08:28:17.386Z</time></trkpt><trkpt lat="44.5727376" lon="15.4989263"><ele>777.0</ele><time>2026-04-27T08:28:18.386Z</time></trkpt><trkpt lat="44.572614" lon="15.4989241"><ele>777.0</ele><time>2026-04-27T08:28:20.386Z</time></trkpt><trkpt lat="44.5725017" lon="15.4989072"><ele>777.0</ele><time>2026-04-27T08:28:22.386Z</time></trkpt><trkpt lat="44.5724392" lon="15.4988785"><ele>777.0</ele><time>2026-04-27T08:28:23.386Z</time></trkpt><trkpt lat="44.5723708" lon="15.4988455"><ele>777.0</ele><time>2026-04-27T08:28:24.387Z</time></trkpt><trkpt lat="44.5723128" lon="15.4988085"><ele>777.0</ele><time>2026-04-27T08:28:25.386Z</time></trkpt><trkpt lat="44.5722364" lon="15.4987541"><ele>777.0</ele><time>2026-04-27T08:28:27.386Z</time></trkpt><trkpt lat="44.5721802" lon="15.4986979"><ele>778.6</ele><time>2026-04-27T08:28:29.387Z</time></trkpt><trkpt lat="44.5720922" lon="15.4985891"><ele>780.2</ele><time>2026-04-27T08:28:31.386Z</time></trkpt><trkpt lat="44.5720323" lon="15.4985042"><ele>781.8</ele><time>2026-04-27T08:28:32.386Z</time></trkpt><trkpt lat="44.5719713" lon="15.498447"><ele>783.4</ele><time>2026-04-27T08:28:33.386Z</time></trkpt><trkpt lat="44.5718819" lon="15.4983345"><ele>785.0</ele><time>2026-04-27T08:28:35.386Z</time></trkpt><trkpt lat="44.5717979" lon="15.4982305"><ele>785.0</ele><time>2026-04-27T08:28:37.386Z</time></trkpt><trkpt lat="44.5716669" lon="15.4981349"><ele>785.0</ele><time>2026-04-27T08:28:39.387Z</time></trkpt><trkpt lat="44.5715952" lon="15.498105"><ele>785.0</ele><time>2026-04-27T08:28:40.387Z</time></trkpt><trkpt lat="44.5715184" lon="15.4980476"><ele>785.0</ele><time>2026-04-27T08:28:41.386Z</time></trkpt><trkpt lat="44.5714469" lon="15.498019"><ele>785.0</ele><time>2026-04-27T08:28:42.386Z</time></trkpt><trkpt lat="44.5713373" lon="15.4979623"><ele>785.0</ele><time>2026-04-27T08:28:44.386Z</time></trkpt><trkpt lat="44.5712726" lon="15.4979694"><ele>785.0</ele><time>2026-04-27T08:28:45.386Z</time></trkpt><trkpt lat="44.5711996" lon="15.4979754"><ele>785.0</ele><time>2026-04-27T08:28:46.386Z</time></trkpt><trkpt lat="44.5711011" lon="15.4979991"><ele>785.0</ele><time>2026-04-27T08:28:47.386Z</time></trkpt><trkpt lat="44.570991" lon="15.4980033"><ele>785.0</ele><time>2026-04-27T08:28:49.387Z</time></trkpt><trkpt lat="44.5708815" lon="15.4979351"><ele>785.1666666666667</ele><time>2026-04-27T08:28:51.387Z</time></trkpt><trkpt lat="44.570782" lon="15.4978526"><ele>785.3333333333334</ele><time>2026-04-27T08:28:53.386Z</time></trkpt><trkpt lat="44.5707025" lon="15.4978216"><ele>785.5</ele><time>2026-04-27T08:28:54.386Z</time></trkpt><trkpt lat="44.5706256" lon="15.4977978"><ele>785.6666666666667</ele><time>2026-04-27T08:28:55.387Z</time></trkpt><trkpt lat="44.5705544" lon="15.4977763"><ele>785.8333333333334</ele><time>2026-04-27T08:28:56.386Z</time></trkpt><trkpt lat="44.5704929" lon="15.4977411"><ele>786.0</ele><time>2026-04-27T08:28:57.386Z</time></trkpt><trkpt lat="44.5704164" lon="15.497699"><ele>785.8</ele><time>2026-04-27T08:28:58.387Z</time></trkpt><trkpt lat="44.570344" lon="15.4976527"><ele>785.5999999999999</ele><time>2026-04-27T08:28:59.386Z</time></trkpt><trkpt lat="44.5702352" lon="15.4976049"><ele>785.4</ele><time>2026-04-27T08:29:01.386Z</time></trkpt><trkpt lat="44.5700947" lon="15.4975521"><ele>785.2</ele><time>2026-04-27T08:29:03.386Z</time></trkpt><trkpt lat="44.5700228" lon="15.497534"><ele>785.0</ele><time>2026-04-27T08:29:04.386Z</time></trkpt><trkpt lat="44.5699535" lon="15.4975206"><ele>785.0</ele><time>2026-04-27T08:29:05.386Z</time></trkpt><trkpt lat="44.5698743" lon="15.4975196"><ele>785.0</ele><time>2026-04-27T08:29:06.386Z</time></trkpt><trkpt lat="44.5697951" lon="15.4975088"><ele>785.0</ele><time>2026-04-27T08:29:07.386Z</time></trkpt><trkpt lat="44.5697297" lon="15.4974978"><ele>785.0</ele><time>2026-04-27T08:29:08.386Z</time></trkpt><trkpt lat="44.5696505" lon="15.4974746"><ele>785.0</ele><time>2026-04-27T08:29:09.386Z</time></trkpt><trkpt lat="44.5695864" lon="15.4974487"><ele>785.0</ele><time>2026-04-27T08:29:10.386Z</time></trkpt><trkpt lat="44.5695231" lon="15.4974345"><ele>785.0</ele><time>2026-04-27T08:29:11.386Z</time></trkpt><trkpt lat="44.5694023" lon="15.4974864"><ele>785.6</ele><time>2026-04-27T08:29:13.386Z</time></trkpt><trkpt lat="44.5693067" lon="15.4975483"><ele>786.2</ele><time>2026-04-27T08:29:15.386Z</time></trkpt><trkpt lat="44.5692089" lon="15.4976525"><ele>786.8</ele><time>2026-04-27T08:29:17.387Z</time></trkpt><trkpt lat="44.5691385" lon="15.497742"><ele>787.4</ele><time>2026-04-27T08:29:19.386Z</time></trkpt><trkpt lat="44.5690391" lon="15.4978309"><ele>788.0</ele><time>2026-04-27T08:29:21.387Z</time></trkpt><trkpt lat="44.568943" lon="15.4978699"><ele>788.0000000000001</ele><time>2026-04-27T08:29:23.386Z</time></trkpt><trkpt lat="44.5688352" lon="15.4978836"><ele>788.0</ele><time>2026-04-27T08:29:25.386Z</time></trkpt><trkpt lat="44.5687758" lon="15.4979132"><ele>788.0</ele><time>2026-04-27T08:29:26.386Z</time></trkpt><trkpt lat="44.5687147" lon="15.4979429"><ele>788.0</ele><time>2026-04-27T08:29:27.386Z</time></trkpt><trkpt lat="44.5686497" lon="15.4979828"><ele>788.0000000000001</ele><time>2026-04-27T08:29:28.386Z</time></trkpt><trkpt lat="44.5685414" lon="15.4980521"><ele>788.0</ele><time>2026-04-27T08:29:30.386Z</time></trkpt><trkpt lat="44.5684357" lon="15.4981259"><ele>788.5000000000001</ele><time>2026-04-27T08:29:32.386Z</time></trkpt><trkpt lat="44.56838" lon="15.4981687"><ele>789.0</ele><time>2026-04-27T08:29:33.386Z</time></trkpt><trkpt lat="44.5683231" lon="15.4982123"><ele>789.5</ele><time>2026-04-27T08:29:34.386Z</time></trkpt><trkpt lat="44.5682579" lon="15.4982596"><ele>790.0</ele><time>2026-04-27T08:29:35.386Z</time></trkpt><trkpt lat="44.5682133" lon="15.4983254"><ele>790.5000000000001</ele><time>2026-04-27T08:29:36.387Z</time></trkpt><trkpt lat="44.5681601" lon="15.4983855"><ele>791.0</ele><time>2026-04-27T08:29:37.386Z</time></trkpt><trkpt lat="44.5680819" lon="15.4985075"><ele>791.0</ele><time>2026-04-27T08:29:39.386Z</time></trkpt><trkpt lat="44.5680097" lon="15.4986597"><ele>791.0</ele><time>2026-04-27T08:29:41.386Z</time></trkpt><trkpt lat="44.5679725" lon="15.4988147"><ele>791.0</ele><time>2026-04-27T08:29:43.386Z</time></trkpt><trkpt lat="44.5679137" lon="15.4989509"><ele>791.0</ele><time>2026-04-27T08:29:45.386Z</time></trkpt><trkpt lat="44.5678265" lon="15.4990297"><ele>793.1999999999999</ele><time>2026-04-27T08:29:47.386Z</time></trkpt><trkpt lat="44.5677275" lon="15.4991252"><ele>795.4</ele><time>2026-04-27T08:29:49.386Z</time></trkpt><trkpt lat="44.5676782" lon="15.4991997"><ele>797.6</ele><time>2026-04-27T08:29:50.386Z</time></trkpt><trkpt lat="44.5676103" lon="15.4992722"><ele>799.8</ele><time>2026-04-27T08:29:51.386Z</time></trkpt><trkpt lat="44.5675318" lon="15.4993547"><ele>802.0</ele><time>2026-04-27T08:29:52.386Z</time></trkpt><trkpt lat="44.5674615" lon="15.4994205"><ele>801.9999999999999</ele><time>2026-04-27T08:29:53.386Z</time></trkpt><trkpt lat="44.5674078" lon="15.4994786"><ele>802.0</ele><time>2026-04-27T08:29:54.386Z</time></trkpt><trkpt lat="44.5673579" lon="15.4995711"><ele>802.0</ele><time>2026-04-27T08:29:55.386Z</time></trkpt><trkpt lat="44.567305" lon="15.4996398"><ele>802.0</ele><time>2026-04-27T08:29:56.386Z</time></trkpt><trkpt lat="44.5672564" lon="15.4997026"><ele>801.9999999999999</ele><time>2026-04-27T08:29:57.386Z</time></trkpt><trkpt lat="44.567178" lon="15.4997794"><ele>802.0</ele><time>2026-04-27T08:29:59.386Z</time></trkpt><trkpt lat="44.5670591" lon="15.4998437"><ele>802.4000000000001</ele><time>2026-04-27T08:30:01.386Z</time></trkpt><trkpt lat="44.5669654" lon="15.4998994"><ele>802.8000000000001</ele><time>2026-04-27T08:30:03.386Z</time></trkpt><trkpt lat="44.5668765" lon="15.4999606"><ele>803.2</ele><time>2026-04-27T08:30:04.387Z</time></trkpt><trkpt lat="44.5668073" lon="15.5000194"><ele>803.6</ele><time>2026-04-27T08:30:05.386Z</time></trkpt><trkpt lat="44.5667474" lon="15.5001338"><ele>804.0</ele><time>2026-04-27T08:30:06.386Z</time></trkpt><trkpt lat="44.5666775" lon="15.5002191"><ele>804.0</ele><time>2026-04-27T08:30:07.386Z</time></trkpt><trkpt lat="44.5666276" lon="15.500307"><ele>804.0</ele><time>2026-04-27T08:30:08.386Z</time></trkpt><trkpt lat="44.5665672" lon="15.5003951"><ele>804.0</ele><time>2026-04-27T08:30:09.386Z</time></trkpt><trkpt lat="44.5665129" lon="15.5004726"><ele>804.0</ele><time>2026-04-27T08:30:10.386Z</time></trkpt><trkpt lat="44.5664178" lon="15.5005687"><ele>804.0</ele><time>2026-04-27T08:30:12.387Z</time></trkpt><trkpt lat="44.5663665" lon="15.5006242"><ele>804.0</ele><time>2026-04-27T08:30:13.386Z</time></trkpt><trkpt lat="44.5662927" lon="15.5006575"><ele>802.8000000000001</ele><time>2026-04-27T08:30:14.387Z</time></trkpt><trkpt lat="44.5662" lon="15.5007005"><ele>801.6</ele><time>2026-04-27T08:30:15.386Z</time></trkpt><trkpt lat="44.5661233" lon="15.5007456"><ele>800.4</ele><time>2026-04-27T08:30:16.387Z</time></trkpt><trkpt lat="44.5660736" lon="15.5008051"><ele>799.2</ele><time>2026-04-27T08:30:17.387Z</time></trkpt><trkpt lat="44.5659951" lon="15.5008976"><ele>798.0</ele><time>2026-04-27T08:30:19.386Z</time></trkpt><trkpt lat="44.5658896" lon="15.5010505"><ele>798.0</ele><time>2026-04-27T08:30:21.387Z</time></trkpt><trkpt lat="44.5658074" lon="15.5011244"><ele>798.0</ele><time>2026-04-27T08:30:22.386Z</time></trkpt><trkpt lat="44.5657447" lon="15.5011764"><ele>798.0</ele><time>2026-04-27T08:30:23.386Z</time></trkpt><trkpt lat="44.565648" lon="15.5012949"><ele>798.0</ele><time>2026-04-27T08:30:25.386Z</time></trkpt><trkpt lat="44.5655806" lon="15.5013636"><ele>798.0</ele><time>2026-04-27T08:30:26.386Z</time></trkpt><trkpt lat="44.5655222" lon="15.5014266"><ele>798.2</ele><time>2026-04-27T08:30:27.386Z</time></trkpt><trkpt lat="44.5654567" lon="15.5014944"><ele>798.4</ele><time>2026-04-27T08:30:28.386Z</time></trkpt><trkpt lat="44.565393" lon="15.5015568"><ele>798.6</ele><time>2026-04-27T08:30:29.386Z</time></trkpt><trkpt lat="44.5653152" lon="15.5016659"><ele>798.8000000000001</ele><time>2026-04-27T08:30:31.386Z</time></trkpt><trkpt lat="44.5651953" lon="15.5017435"><ele>799.0</ele><time>2026-04-27T08:30:33.386Z</time></trkpt><trkpt lat="44.5651075" lon="15.5017676"><ele>798.9999999999999</ele><time>2026-04-27T08:30:34.387Z</time></trkpt><trkpt lat="44.5650286" lon="15.5018119"><ele>799.0</ele><time>2026-04-27T08:30:35.387Z</time></trkpt><trkpt lat="44.5649634" lon="15.5018588"><ele>799.0</ele><time>2026-04-27T08:30:36.386Z</time></trkpt><trkpt lat="44.5648938" lon="15.501902"><ele>799.0</ele><time>2026-04-27T08:30:37.386Z</time></trkpt><trkpt lat="44.5648274" lon="15.501945"><ele>798.9999999999999</ele><time>2026-04-27T08:30:38.386Z</time></trkpt><trkpt lat="44.5647664" lon="15.5020019"><ele>799.0</ele><time>2026-04-27T08:30:39.386Z</time></trkpt><trkpt lat="44.5646834" lon="15.5020487"><ele>799.8333333333333</ele><time>2026-04-27T08:30:40.387Z</time></trkpt><trkpt lat="44.5646054" lon="15.5021097"><ele>800.6666666666666</ele><time>2026-04-27T08:30:41.386Z</time></trkpt><trkpt lat="44.5645404" lon="15.5021477"><ele>801.5</ele><time>2026-04-27T08:30:42.386Z</time></trkpt><trkpt lat="44.564451" lon="15.5021577"><ele>802.3333333333333</ele><time>2026-04-27T08:30:43.387Z</time></trkpt><trkpt lat="44.5643865" lon="15.5021076"><ele>803.1666666666666</ele><time>2026-04-27T08:30:44.386Z</time></trkpt><trkpt lat="44.5643341" lon="15.5020513"><ele>804.0</ele><time>2026-04-27T08:30:45.386Z</time></trkpt><trkpt lat="44.564247" lon="15.5020366"><ele>802.1666666666666</ele><time>2026-04-27T08:30:47.387Z</time></trkpt><trkpt lat="44.5641825" lon="15.5020468"><ele>800.3333333333333</ele><time>2026-04-27T08:30:48.386Z</time></trkpt><trkpt lat="44.5640789" lon="15.50209"><ele>798.5</ele><time>2026-04-27T08:30:49.386Z</time></trkpt><trkpt lat="44.5640058" lon="15.5021055"><ele>796.6666666666666</ele><time>2026-04-27T08:30:50.387Z</time></trkpt><trkpt lat="44.5639366" lon="15.5021731"><ele>794.8333333333333</ele><time>2026-04-27T08:30:51.386Z</time></trkpt><trkpt lat="44.5638767" lon="15.5022261"><ele>793.0</ele><time>2026-04-27T08:30:52.387Z</time></trkpt><trkpt lat="44.5638121" lon="15.5022633"><ele>793.0</ele><time>2026-04-27T08:30:53.386Z</time></trkpt><trkpt lat="44.5637403" lon="15.5022953"><ele>793.0</ele><time>2026-04-27T08:30:54.387Z</time></trkpt><trkpt lat="44.563679" lon="15.5023537"><ele>793.0</ele><time>2026-04-27T08:30:55.386Z</time></trkpt><trkpt lat="44.5635819" lon="15.5024356"><ele>793.0</ele><time>2026-04-27T08:30:57.387Z</time></trkpt><trkpt lat="44.5635298" lon="15.5025058"><ele>793.0</ele><time>2026-04-27T08:30:58.386Z</time></trkpt><trkpt lat="44.563445" lon="15.5026329"><ele>790.8333333333333</ele><time>2026-04-27T08:31:00.386Z</time></trkpt><trkpt lat="44.5633603" lon="15.502684"><ele>788.6666666666666</ele><time>2026-04-27T08:31:02.386Z</time></trkpt><trkpt lat="44.5632922" lon="15.5026511"><ele>786.5</ele><time>2026-04-27T08:31:04.386Z</time></trkpt><trkpt lat="44.5631996" lon="15.5025698"><ele>784.3333333333333</ele><time>2026-04-27T08:31:06.386Z</time></trkpt><trkpt lat="44.5631494" lon="15.5025107"><ele>782.1666666666666</ele><time>2026-04-27T08:31:07.386Z</time></trkpt><trkpt lat="44.5630831" lon="15.5024204"><ele>780.0</ele><time>2026-04-27T08:31:09.386Z</time></trkpt><trkpt lat="44.5630038" lon="15.5023266"><ele>780.0</ele><time>2026-04-27T08:31:11.386Z</time></trkpt><trkpt lat="44.5629049" lon="15.5022013"><ele>780.0</ele><time>2026-04-27T08:31:13.387Z</time></trkpt><trkpt lat="44.5628561" lon="15.502122"><ele>780.0</ele><time>2026-04-27T08:31:14.387Z</time></trkpt><trkpt lat="44.5628191" lon="15.5020395"><ele>780.0</ele><time>2026-04-27T08:31:15.386Z</time></trkpt><trkpt lat="44.5627698" lon="15.5019739"><ele>780.0</ele><time>2026-04-27T08:31:16.386Z</time></trkpt><trkpt lat="44.5627165" lon="15.5018871"><ele>780.0</ele><time>2026-04-27T08:31:17.386Z</time></trkpt><trkpt lat="44.5626653" lon="15.5018228"><ele>777.0</ele><time>2026-04-27T08:31:18.386Z</time></trkpt><trkpt lat="44.5625855" lon="15.5016939"><ele>774.0</ele><time>2026-04-27T08:31:20.387Z</time></trkpt><trkpt lat="44.562544" lon="15.5016236"><ele>771.0</ele><time>2026-04-27T08:31:21.386Z</time></trkpt><trkpt lat="44.5624698" lon="15.5014996"><ele>768.0</ele><time>2026-04-27T08:31:23.386Z</time></trkpt><trkpt lat="44.5623956" lon="15.5013723"><ele>765.0</ele><time>2026-04-27T08:31:25.387Z</time></trkpt><trkpt lat="44.5623364" lon="15.5012407"><ele>765.0</ele><time>2026-04-27T08:31:27.387Z</time></trkpt><trkpt lat="44.5622879" lon="15.5011334"><ele>765.0</ele><time>2026-04-27T08:31:29.387Z</time></trkpt><trkpt lat="44.5621992" lon="15.5010968"><ele>765.0</ele><time>2026-04-27T08:31:32.386Z</time></trkpt><trkpt lat="44.5621308" lon="15.5011722"><ele>765.0</ele><time>2026-04-27T08:31:34.387Z</time></trkpt><trkpt lat="44.5620529" lon="15.5012802"><ele>765.0</ele><time>2026-04-27T08:31:36.386Z</time></trkpt><trkpt lat="44.5619809" lon="15.5013974"><ele>760.25</ele><time>2026-04-27T08:31:38.387Z</time></trkpt><trkpt lat="44.5619172" lon="15.5015491"><ele>755.5</ele><time>2026-04-27T08:31:40.386Z</time></trkpt><trkpt lat="44.5618731" lon="15.5016981"><ele>750.75</ele><time>2026-04-27T08:31:42.386Z</time></trkpt><trkpt lat="44.5618241" lon="15.501862"><ele>746.0</ele><time>2026-04-27T08:31:44.386Z</time></trkpt><trkpt lat="44.561769" lon="15.5019998"><ele>746.0</ele><time>2026-04-27T08:31:46.386Z</time></trkpt><trkpt lat="44.5617302" lon="15.5020801"><ele>746.0</ele><time>2026-04-27T08:31:47.386Z</time></trkpt><trkpt lat="44.5616583" lon="15.5021917"><ele>746.0</ele><time>2026-04-27T08:31:49.386Z</time></trkpt><trkpt lat="44.5616053" lon="15.5022492"><ele>746.0</ele><time>2026-04-27T08:31:50.386Z</time></trkpt><trkpt lat="44.561504" lon="15.5023353"><ele>746.0</ele><time>2026-04-27T08:31:52.387Z</time></trkpt><trkpt lat="44.561398" lon="15.502412"><ele>747.5</ele><time>2026-04-27T08:31:54.386Z</time></trkpt><trkpt lat="44.5612917" lon="15.5024758"><ele>749.0</ele><time>2026-04-27T08:31:56.386Z</time></trkpt><trkpt lat="44.5611978" lon="15.502524"><ele>750.5</ele><time>2026-04-27T08:31:58.386Z</time></trkpt><trkpt lat="44.5610933" lon="15.5025752"><ele>752.0</ele><time>2026-04-27T08:32:00.387Z</time></trkpt><trkpt lat="44.5609786" lon="15.502657"><ele>750.5</ele><time>2026-04-27T08:32:02.386Z</time></trkpt><trkpt lat="44.5609106" lon="15.5026899"><ele>749.0</ele><time>2026-04-27T08:32:03.386Z</time></trkpt><trkpt lat="44.5608375" lon="15.5027158"><ele>747.5</ele><time>2026-04-27T08:32:04.386Z</time></trkpt><trkpt lat="44.5607606" lon="15.5027472"><ele>746.0</ele><time>2026-04-27T08:32:05.386Z</time></trkpt><trkpt lat="44.5606801" lon="15.5027988"><ele>744.5</ele><time>2026-04-27T08:32:06.386Z</time></trkpt><trkpt lat="44.5605958" lon="15.5028591"><ele>743.0</ele><time>2026-04-27T08:32:07.386Z</time></trkpt><trkpt lat="44.5605158" lon="15.502916"><ele>743.0</ele><time>2026-04-27T08:32:08.386Z</time></trkpt><trkpt lat="44.5604347" lon="15.5029615"><ele>743.0</ele><time>2026-04-27T08:32:09.387Z</time></trkpt><trkpt lat="44.5603699" lon="15.5029978"><ele>743.0</ele><time>2026-04-27T08:32:10.386Z</time></trkpt><trkpt lat="44.5602624" lon="15.5030386"><ele>743.0</ele><time>2026-04-27T08:32:12.386Z</time></trkpt><trkpt lat="44.56018" lon="15.5030621"><ele>743.0</ele><time>2026-04-27T08:32:14.386Z</time></trkpt><trkpt lat="44.560125" lon="15.5030126"><ele>743.0</ele><time>2026-04-27T08:32:16.387Z</time></trkpt><trkpt lat="44.560101" lon="15.5029204"><ele>739.1666666666666</ele><time>2026-04-27T08:32:18.386Z</time></trkpt><trkpt lat="44.5600951" lon="15.5027743"><ele>735.3333333333333</ele><time>2026-04-27T08:32:20.386Z</time></trkpt><trkpt lat="44.560087" lon="15.5026804"><ele>731.5</ele><time>2026-04-27T08:32:21.387Z</time></trkpt><trkpt lat="44.5600712" lon="15.5025906"><ele>727.6666666666666</ele><time>2026-04-27T08:32:22.386Z</time></trkpt><trkpt lat="44.5600521" lon="15.5024788"><ele>723.8333333333334</ele><time>2026-04-27T08:32:23.386Z</time></trkpt><trkpt lat="44.5600325" lon="15.5023777"><ele>720.0</ele><time>2026-04-27T08:32:24.386Z</time></trkpt><trkpt lat="44.5600138" lon="15.5022816"><ele>720.0</ele><time>2026-04-27T08:32:25.386Z</time></trkpt><trkpt lat="44.5600036" lon="15.5021873"><ele>720.0</ele><time>2026-04-27T08:32:26.386Z</time></trkpt><trkpt lat="44.5600146" lon="15.5020249"><ele>720.0</ele><time>2026-04-27T08:32:28.386Z</time></trkpt><trkpt lat="44.5600523" lon="15.5018759"><ele>720.0</ele><time>2026-04-27T08:32:30.387Z</time></trkpt><trkpt lat="44.5601301" lon="15.501776"><ele>720.0</ele><time>2026-04-27T08:32:32.386Z</time></trkpt><trkpt lat="44.5601916" lon="15.5017192"><ele>718.1666666666666</ele><time>2026-04-27T08:32:34.386Z</time></trkpt><trkpt lat="44.5602206" lon="15.5016381"><ele>716.3333333333334</ele><time>2026-04-27T08:32:36.386Z</time></trkpt><trkpt lat="44.5602015" lon="15.5015114"><ele>714.5</ele><time>2026-04-27T08:32:38.387Z</time></trkpt><trkpt lat="44.5601865" lon="15.5014147"><ele>712.6666666666667</ele><time>2026-04-27T08:32:39.386Z</time></trkpt><trkpt lat="44.5601725" lon="15.5012306"><ele>710.8333333333334</ele><time>2026-04-27T08:32:41.386Z</time></trkpt><trkpt lat="44.5601696" lon="15.501142"><ele>709.0</ele><time>2026-04-27T08:32:42.386Z</time></trkpt><trkpt lat="44.5601546" lon="15.501049"><ele>708.0000000000001</ele><time>2026-04-27T08:32:43.386Z</time></trkpt><trkpt lat="44.560124" lon="15.5009692"><ele>707.0</ele><time>2026-04-27T08:32:44.386Z</time></trkpt><trkpt lat="44.5600927" lon="15.5008795"><ele>706.0</ele><time>2026-04-27T08:32:45.386Z</time></trkpt><trkpt lat="44.5600587" lon="15.5007975"><ele>705.0</ele><time>2026-04-27T08:32:46.386Z</time></trkpt><trkpt lat="44.5600326" lon="15.5007145"><ele>704.0</ele><time>2026-04-27T08:32:47.386Z</time></trkpt><trkpt lat="44.5599983" lon="15.5006241"><ele>703.0000000000001</ele><time>2026-04-27T08:32:48.386Z</time></trkpt><trkpt lat="44.5599802" lon="15.5005393"><ele>702.0</ele><time>2026-04-27T08:32:49.387Z</time></trkpt><trkpt lat="44.5599604" lon="15.5004434"><ele>702.3333333333334</ele><time>2026-04-27T08:32:50.386Z</time></trkpt><trkpt lat="44.5599256" lon="15.5003288"><ele>702.6666666666666</ele><time>2026-04-27T08:32:51.387Z</time></trkpt><trkpt lat="44.5599031" lon="15.5002227"><ele>703.0</ele><time>2026-04-27T08:32:52.386Z</time></trkpt><trkpt lat="44.5598678" lon="15.5001406"><ele>703.3333333333333</ele><time>2026-04-27T08:32:53.386Z</time></trkpt><trkpt lat="44.5598119" lon="15.500029"><ele>703.6666666666666</ele><time>2026-04-27T08:32:54.386Z</time></trkpt><trkpt lat="44.5597657" lon="15.4999466"><ele>704.0</ele><time>2026-04-27T08:32:55.386Z</time></trkpt><trkpt lat="44.5597156" lon="15.4998716"><ele>704.0</ele><time>2026-04-27T08:32:56.386Z</time></trkpt><trkpt lat="44.5596666" lon="15.4997873"><ele>704.0</ele><time>2026-04-27T08:32:57.386Z</time></trkpt><trkpt lat="44.5596218" lon="15.4997163"><ele>704.0</ele><time>2026-04-27T08:32:58.386Z</time></trkpt><trkpt lat="44.5595799" lon="15.4996401"><ele>704.0</ele><time>2026-04-27T08:32:59.386Z</time></trkpt><trkpt lat="44.5595387" lon="15.4995668"><ele>704.0</ele><time>2026-04-27T08:33:00.386Z</time></trkpt><trkpt lat="44.5595161" lon="15.4994699"><ele>704.0</ele><time>2026-04-27T08:33:01.386Z</time></trkpt><trkpt lat="44.5594822" lon="15.4993943"><ele>704.0</ele><time>2026-04-27T08:33:02.386Z</time></trkpt><trkpt lat="44.5594456" lon="15.4993076"><ele>700.8333333333333</ele><time>2026-04-27T08:33:03.386Z</time></trkpt><trkpt lat="44.5594045" lon="15.4992267"><ele>697.6666666666666</ele><time>2026-04-27T08:33:04.386Z</time></trkpt><trkpt lat="44.5593486" lon="15.499057"><ele>694.5</ele><time>2026-04-27T08:33:06.386Z</time></trkpt><trkpt lat="44.5593345" lon="15.4989692"><ele>691.3333333333334</ele><time>2026-04-27T08:33:07.386Z</time></trkpt><trkpt lat="44.5593053" lon="15.4988715"><ele>688.1666666666667</ele><time>2026-04-27T08:33:08.386Z</time></trkpt><trkpt lat="44.5592818" lon="15.4987857"><ele>685.0</ele><time>2026-04-27T08:33:09.386Z</time></trkpt><trkpt lat="44.5592583" lon="15.4986889"><ele>684.3333333333334</ele><time>2026-04-27T08:33:10.386Z</time></trkpt><trkpt lat="44.5592403" lon="15.4985372"><ele>683.6666666666667</ele><time>2026-04-27T08:33:12.386Z</time></trkpt><trkpt lat="44.559209" lon="15.4984162"><ele>683.0</ele><time>2026-04-27T08:33:14.387Z</time></trkpt><trkpt lat="44.5591608" lon="15.4983173"><ele>682.3333333333334</ele><time>2026-04-27T08:33:16.386Z</time></trkpt><trkpt lat="44.5590942" lon="15.4982599"><ele>681.6666666666666</ele><time>2026-04-27T08:33:18.387Z</time></trkpt><trkpt lat="44.5590174" lon="15.4982224"><ele>681.0</ele><time>2026-04-27T08:33:20.387Z</time></trkpt><trkpt lat="44.558949" lon="15.4981727"><ele>681.0</ele><time>2026-04-27T08:33:22.387Z</time></trkpt><trkpt lat="44.558887" lon="15.498111"><ele>681.0</ele><time>2026-04-27T08:33:24.386Z</time></trkpt><trkpt lat="44.5588208" lon="15.4980387"><ele>681.0</ele><time>2026-04-27T08:33:26.386Z</time></trkpt><trkpt lat="44.5587626" lon="15.4979409"><ele>681.0</ele><time>2026-04-27T08:33:28.387Z</time></trkpt><trkpt lat="44.5587058" lon="15.4978417"><ele>681.0</ele><time>2026-04-27T08:33:30.387Z</time></trkpt><trkpt lat="44.5586448" lon="15.4977571"><ele>681.0</ele><time>2026-04-27T08:33:32.386Z</time></trkpt><trkpt lat="44.5585927" lon="15.4976708"><ele>678.4285714285714</ele><time>2026-04-27T08:33:34.386Z</time></trkpt><trkpt lat="44.558548" lon="15.4976083"><ele>675.8571428571429</ele><time>2026-04-27T08:33:36.386Z</time></trkpt><trkpt lat="44.5584849" lon="15.4975545"><ele>673.2857142857142</ele><time>2026-04-27T08:33:39.386Z</time></trkpt><trkpt lat="44.5584189" lon="15.4975197"><ele>670.7142857142858</ele><time>2026-04-27T08:33:43.386Z</time></trkpt><trkpt lat="44.558367" lon="15.4975826"><ele>668.1428571428571</ele><time>2026-04-27T08:33:47.386Z</time></trkpt><trkpt lat="44.5583813" lon="15.4977025"><ele>665.5714285714286</ele><time>2026-04-27T08:33:50.387Z</time></trkpt><trkpt lat="44.5583888" lon="15.4978227"><ele>663.0</ele><time>2026-04-27T08:33:53.387Z</time></trkpt><trkpt lat="44.5583799" lon="15.4979104"><ele>663.8333333333334</ele><time>2026-04-27T08:33:56.387Z</time></trkpt><trkpt lat="44.5583465" lon="15.4980415"><ele>664.6666666666666</ele><time>2026-04-27T08:33:59.386Z</time></trkpt><trkpt lat="44.5583015" lon="15.4981122"><ele>665.5</ele><time>2026-04-27T08:34:01.386Z</time></trkpt><trkpt lat="44.5582297" lon="15.4981729"><ele>666.3333333333333</ele><time>2026-04-27T08:34:03.386Z</time></trkpt><trkpt lat="44.5581516" lon="15.4982189"><ele>667.1666666666666</ele><time>2026-04-27T08:34:05.386Z</time></trkpt><trkpt lat="44.5580834" lon="15.4982567"><ele>668.0</ele><time>2026-04-27T08:34:07.386Z</time></trkpt><trkpt lat="44.5580249" lon="15.4982943"><ele>668.0</ele><time>2026-04-27T08:34:09.386Z</time></trkpt><trkpt lat="44.5579533" lon="15.4983477"><ele>668.0</ele><time>2026-04-27T08:34:12.387Z</time></trkpt><trkpt lat="44.5579297" lon="15.4984394"><ele>668.0</ele><time>2026-04-27T08:34:55.387Z</time></trkpt><trkpt lat="44.5580015" lon="15.4985122"><ele>668.0</ele><time>2026-04-27T08:34:59.386Z</time></trkpt><trkpt lat="44.5580742" lon="15.498559"><ele>668.0</ele><time>2026-04-27T08:35:01.386Z</time></trkpt><trkpt lat="44.5581436" lon="15.4985634"><ele>668.0</ele><time>2026-04-27T08:35:02.386Z</time></trkpt><trkpt lat="44.5582519" lon="15.498564"><ele>668.0</ele><time>2026-04-27T08:35:04.386Z</time></trkpt><trkpt lat="44.5583647" lon="15.49854"><ele>668.0</ele><time>2026-04-27T08:35:06.387Z</time></trkpt><trkpt lat="44.5584599" lon="15.4984865"><ele>668.0</ele><time>2026-04-27T08:35:08.387Z</time></trkpt><trkpt lat="44.5585492" lon="15.4983917"><ele>668.0</ele><time>2026-04-27T08:35:10.386Z</time></trkpt><trkpt lat="44.558626" lon="15.4983305"><ele>668.0</ele><time>2026-04-27T08:35:12.386Z</time></trkpt><trkpt lat="44.5586901" lon="15.498297"><ele>669.3333333333333</ele><time>2026-04-27T08:35:15.386Z</time></trkpt><trkpt lat="44.5587534" lon="15.4982265"><ele>670.6666666666666</ele><time>2026-04-27T08:35:23.387Z</time></trkpt><trkpt lat="44.5588095" lon="15.4981784"><ele>672.0</ele><time>2026-04-27T08:35:25.386Z</time></trkpt><trkpt lat="44.5588749" lon="15.4981092"><ele>673.3333333333334</ele><time>2026-04-27T08:35:28.386Z</time></trkpt><trkpt lat="44.5588577" lon="15.4980132"><ele>674.6666666666667</ele><time>2026-04-27T08:35:30.386Z</time></trkpt><trkpt lat="44.5588042" lon="15.4979337"><ele>676.0</ele><time>2026-04-27T08:35:32.386Z</time></trkpt><trkpt lat="44.5587425" lon="15.4978579"><ele>673.8333333333334</ele><time>2026-04-27T08:35:34.387Z</time></trkpt><trkpt lat="44.5586814" lon="15.4977833"><ele>671.6666666666667</ele><time>2026-04-27T08:35:36.386Z</time></trkpt><trkpt lat="44.5586255" lon="15.4977052"><ele>669.5</ele><time>2026-04-27T08:35:38.386Z</time></trkpt><trkpt lat="44.558571" lon="15.4976315"><ele>667.3333333333334</ele><time>2026-04-27T08:35:40.386Z</time></trkpt><trkpt lat="44.5584836" lon="15.4975449"><ele>665.1666666666666</ele><time>2026-04-27T08:35:43.386Z</time></trkpt><trkpt lat="44.5584307" lon="15.4974618"><ele>663.0</ele><time>2026-04-27T08:35:46.387Z</time></trkpt><trkpt lat="44.5584328" lon="15.4973339"><ele>663.0</ele><time>2026-04-27T08:35:49.386Z</time></trkpt><trkpt lat="44.5584924" lon="15.4972462"><ele>663.0</ele><time>2026-04-27T08:35:51.387Z</time></trkpt><trkpt lat="44.5585568" lon="15.4971309"><ele>663.0</ele><time>2026-04-27T08:35:53.387Z</time></trkpt><trkpt lat="44.5586115" lon="15.497019"><ele>663.0</ele><time>2026-04-27T08:35:55.387Z</time></trkpt><trkpt lat="44.5586777" lon="15.4969028"><ele>663.0</ele><time>2026-04-27T08:35:57.386Z</time></trkpt><trkpt lat="44.5587361" lon="15.4967952"><ele>662.0</ele><time>2026-04-27T08:35:59.386Z</time></trkpt><trkpt lat="44.5588049" lon="15.496691"><ele>661.0</ele><time>2026-04-27T08:36:01.387Z</time></trkpt><trkpt lat="44.5588758" lon="15.4965785"><ele>660.0</ele><time>2026-04-27T08:36:03.386Z</time></trkpt><trkpt lat="44.5589535" lon="15.4964576"><ele>659.0</ele><time>2026-04-27T08:36:05.386Z</time></trkpt><trkpt lat="44.5590232" lon="15.4963672"><ele>658.0</ele><time>2026-04-27T08:36:07.387Z</time></trkpt><trkpt lat="44.5591192" lon="15.4962496"><ele>658.0</ele><time>2026-04-27T08:36:10.386Z</time></trkpt><trkpt lat="44.5591753" lon="15.4961188"><ele>658.0</ele><time>2026-04-27T08:36:12.386Z</time></trkpt><trkpt lat="44.5591826" lon="15.4960005"><ele>658.0</ele><time>2026-04-27T08:36:14.386Z</time></trkpt><trkpt lat="44.5591484" lon="15.4958733"><ele>658.0</ele><time>2026-04-27T08:36:16.386Z</time></trkpt><trkpt lat="44.5591076" lon="15.4957524"><ele>658.0</ele><time>2026-04-27T08:36:18.386Z</time></trkpt><trkpt lat="44.5590438" lon="15.4956161"><ele>658.0</ele><time>2026-04-27T08:36:20.386Z</time></trkpt><trkpt lat="44.5589754" lon="15.4954804"><ele>658.0</ele><time>2026-04-27T08:36:22.386Z</time></trkpt><trkpt lat="44.5589382" lon="15.4954078"><ele>658.0</ele><time>2026-04-27T08:36:23.386Z</time></trkpt><trkpt lat="44.5588642" lon="15.4952761"><ele>658.0</ele><time>2026-04-27T08:36:25.387Z</time></trkpt><trkpt lat="44.5587875" lon="15.4951322"><ele>658.0</ele><time>2026-04-27T08:36:27.386Z</time></trkpt><trkpt lat="44.558754" lon="15.4950535"><ele>655.4</ele><time>2026-04-27T08:36:28.386Z</time></trkpt><trkpt lat="44.5586936" lon="15.4949089"><ele>652.8</ele><time>2026-04-27T08:36:30.386Z</time></trkpt><trkpt lat="44.5586271" lon="15.4947717"><ele>650.2</ele><time>2026-04-27T08:36:32.386Z</time></trkpt><trkpt lat="44.5585756" lon="15.4946356"><ele>647.6</ele><time>2026-04-27T08:36:34.386Z</time></trkpt><trkpt lat="44.5585318" lon="15.4945115"><ele>645.0</ele><time>2026-04-27T08:36:36.386Z</time></trkpt><trkpt lat="44.5584754" lon="15.4944267"><ele>643.8</ele><time>2026-04-27T08:36:38.386Z</time></trkpt><trkpt lat="44.5583889" lon="15.4943736"><ele>642.6</ele><time>2026-04-27T08:36:40.386Z</time></trkpt><trkpt lat="44.5582814" lon="15.4943557"><ele>641.4</ele><time>2026-04-27T08:36:42.386Z</time></trkpt><trkpt lat="44.5581671" lon="15.4943479"><ele>640.2</ele><time>2026-04-27T08:36:44.386Z</time></trkpt><trkpt lat="44.5580516" lon="15.494323"><ele>639.0</ele><time>2026-04-27T08:36:46.386Z</time></trkpt><trkpt lat="44.5579566" lon="15.4942825"><ele>639.0</ele><time>2026-04-27T08:36:48.386Z</time></trkpt><trkpt lat="44.5578886" lon="15.4942157"><ele>639.0</ele><time>2026-04-27T08:36:50.386Z</time></trkpt><trkpt lat="44.5578401" lon="15.494123"><ele>639.0</ele><time>2026-04-27T08:36:52.386Z</time></trkpt><trkpt lat="44.5577985" lon="15.4940031"><ele>639.0</ele><time>2026-04-27T08:36:54.386Z</time></trkpt><trkpt lat="44.5577974" lon="15.4938362"><ele>639.0</ele><time>2026-04-27T08:36:56.386Z</time></trkpt><trkpt lat="44.5578087" lon="15.4937392"><ele>639.0</ele><time>2026-04-27T08:36:57.387Z</time></trkpt><trkpt lat="44.5578179" lon="15.493644"><ele>636.8333333333334</ele><time>2026-04-27T08:36:58.387Z</time></trkpt><trkpt lat="44.5578129" lon="15.4935351"><ele>634.6666666666666</ele><time>2026-04-27T08:36:59.386Z</time></trkpt><trkpt lat="44.5578056" lon="15.4934293"><ele>632.5</ele><time>2026-04-27T08:37:00.386Z</time></trkpt><trkpt lat="44.5577819" lon="15.4933266"><ele>630.3333333333333</ele><time>2026-04-27T08:37:01.386Z</time></trkpt><trkpt lat="44.5577467" lon="15.4932471"><ele>628.1666666666666</ele><time>2026-04-27T08:37:02.387Z</time></trkpt><trkpt lat="44.5576999" lon="15.4931865"><ele>626.0</ele><time>2026-04-27T08:37:03.386Z</time></trkpt><trkpt lat="44.5575966" lon="15.4930919"><ele>626.0</ele><time>2026-04-27T08:37:05.386Z</time></trkpt><trkpt lat="44.5574581" lon="15.4930363"><ele>626.0</ele><time>2026-04-27T08:37:07.387Z</time></trkpt><trkpt lat="44.5573943" lon="15.4930262"><ele>626.0</ele><time>2026-04-27T08:37:08.387Z</time></trkpt><trkpt lat="44.5573277" lon="15.4930187"><ele>626.0</ele><time>2026-04-27T08:37:09.386Z</time></trkpt><trkpt lat="44.5572609" lon="15.493018"><ele>626.0</ele><time>2026-04-27T08:37:10.387Z</time></trkpt><trkpt lat="44.5571918" lon="15.4930241"><ele>626.0</ele><time>2026-04-27T08:37:11.386Z</time></trkpt><trkpt lat="44.5571243" lon="15.4930259"><ele>626.0</ele><time>2026-04-27T08:37:12.386Z</time></trkpt><trkpt lat="44.5570604" lon="15.4930285"><ele>626.0</ele><time>2026-04-27T08:37:13.387Z</time></trkpt><trkpt lat="44.5569373" lon="15.4930243"><ele>626.0</ele><time>2026-04-27T08:37:15.386Z</time></trkpt><trkpt lat="44.5568702" lon="15.4930255"><ele>626.0</ele><time>2026-04-27T08:37:16.387Z</time></trkpt><trkpt lat="44.5567993" lon="15.493023"><ele>626.0</ele><time>2026-04-27T08:37:17.386Z</time></trkpt><trkpt lat="44.5567356" lon="15.4930213"><ele>626.0</ele><time>2026-04-27T08:37:18.386Z</time></trkpt><trkpt lat="44.5566721" lon="15.4930176"><ele>625.0</ele><time>2026-04-27T08:37:19.386Z</time></trkpt><trkpt lat="44.5566088" lon="15.493019"><ele>624.0</ele><time>2026-04-27T08:37:20.386Z</time></trkpt><trkpt lat="44.5564894" lon="15.4930182"><ele>623.0</ele><time>2026-04-27T08:37:22.386Z</time></trkpt><trkpt lat="44.5564012" lon="15.4930019"><ele>622.0</ele><time>2026-04-27T08:37:24.386Z</time></trkpt><trkpt lat="44.5563298" lon="15.4929726"><ele>621.0</ele><time>2026-04-27T08:37:27.386Z</time></trkpt><trkpt lat="44.5562589" lon="15.4929851"><ele>620.0</ele><time>2026-04-27T08:41:59.386Z</time></trkpt><trkpt lat="44.5561844" lon="15.4930072"><ele>619.0</ele><time>2026-04-27T08:42:01.386Z</time></trkpt><trkpt lat="44.5560914" lon="15.4930097"><ele>618.0</ele><time>2026-04-27T08:42:03.386Z</time></trkpt><trkpt lat="44.5559694" lon="15.4930088"><ele>617.0</ele><time>2026-04-27T08:42:05.386Z</time></trkpt><trkpt lat="44.5558609" lon="15.4930042"><ele>616.0</ele><time>2026-04-27T08:42:07.386Z</time></trkpt><trkpt lat="44.5557668" lon="15.4929858"><ele>615.0</ele><time>2026-04-27T08:42:09.386Z</time></trkpt><trkpt lat="44.555687" lon="15.4929473"><ele>615.2</ele><time>2026-04-27T08:42:11.386Z</time></trkpt><trkpt lat="44.5556042" lon="15.4928581"><ele>615.4</ele><time>2026-04-27T08:42:13.386Z</time></trkpt><trkpt lat="44.5555314" lon="15.4927236"><ele>615.6</ele><time>2026-04-27T08:42:15.386Z</time></trkpt><trkpt lat="44.5554954" lon="15.4926348"><ele>615.8</ele><time>2026-04-27T08:42:16.386Z</time></trkpt><trkpt lat="44.555456" lon="15.4925427"><ele>616.0</ele><time>2026-04-27T08:42:17.386Z</time></trkpt><trkpt lat="44.555415" lon="15.4924534"><ele>616.0</ele><time>2026-04-27T08:42:18.386Z</time></trkpt><trkpt lat="44.5553744" lon="15.492364"><ele>616.0</ele><time>2026-04-27T08:42:19.386Z</time></trkpt><trkpt lat="44.5553332" lon="15.4922727"><ele>616.0</ele><time>2026-04-27T08:42:20.386Z</time></trkpt><trkpt lat="44.5552927" lon="15.4921776"><ele>616.0</ele><time>2026-04-27T08:42:21.386Z</time></trkpt><trkpt lat="44.5552456" lon="15.4920785"><ele>616.0</ele><time>2026-04-27T08:42:22.386Z</time></trkpt><trkpt lat="44.5551966" lon="15.49198"><ele>616.0</ele><time>2026-04-27T08:42:23.386Z</time></trkpt><trkpt lat="44.5551444" lon="15.4918849"><ele>615.3333333333334</ele><time>2026-04-27T08:42:24.387Z</time></trkpt><trkpt lat="44.5550913" lon="15.4917836"><ele>614.6666666666667</ele><time>2026-04-27T08:42:25.387Z</time></trkpt><trkpt lat="44.5550384" lon="15.491688"><ele>614.0</ele><time>2026-04-27T08:42:26.386Z</time></trkpt><trkpt lat="44.5549859" lon="15.4915871"><ele>613.3333333333334</ele><time>2026-04-27T08:42:27.386Z</time></trkpt><trkpt lat="44.5549325" lon="15.4914849"><ele>612.6666666666666</ele><time>2026-04-27T08:42:28.387Z</time></trkpt><trkpt lat="44.5548791" lon="15.4913808"><ele>612.0</ele><time>2026-04-27T08:42:29.387Z</time></trkpt><trkpt lat="44.5548273" lon="15.4912759"><ele>612.0</ele><time>2026-04-27T08:42:30.386Z</time></trkpt><trkpt lat="44.5547663" lon="15.4911798"><ele>612.0</ele><time>2026-04-27T08:42:31.387Z</time></trkpt><trkpt lat="44.5547014" lon="15.4910857"><ele>612.0</ele><time>2026-04-27T08:42:32.386Z</time></trkpt><trkpt lat="44.5546308" lon="15.4909932"><ele>612.0</ele><time>2026-04-27T08:42:33.386Z</time></trkpt><trkpt lat="44.5545544" lon="15.4909096"><ele>612.0</ele><time>2026-04-27T08:42:34.386Z</time></trkpt><trkpt lat="44.5544751" lon="15.4908337"><ele>612.0</ele><time>2026-04-27T08:42:35.386Z</time></trkpt><trkpt lat="44.5543924" lon="15.4907652"><ele>612.0</ele><time>2026-04-27T08:42:36.386Z</time></trkpt><trkpt lat="44.5543176" lon="15.4907042"><ele>612.0</ele><time>2026-04-27T08:42:37.382Z</time></trkpt><trkpt lat="44.5542519" lon="15.4906394"><ele>612.0</ele><time>2026-04-27T08:42:38.387Z</time></trkpt><trkpt lat="44.554198" lon="15.4905655"><ele>612.0</ele><time>2026-04-27T08:42:39.386Z</time></trkpt><trkpt lat="44.5541507" lon="15.4904786"><ele>612.0</ele><time>2026-04-27T08:42:40.387Z</time></trkpt><trkpt lat="44.5541183" lon="15.4903831"><ele>611.6666666666666</ele><time>2026-04-27T08:42:41.387Z</time></trkpt><trkpt lat="44.5540968" lon="15.490286"><ele>611.3333333333334</ele><time>2026-04-27T08:42:42.386Z</time></trkpt><trkpt lat="44.5540859" lon="15.4901801"><ele>611.0</ele><time>2026-04-27T08:42:43.387Z</time></trkpt><trkpt lat="44.5540933" lon="15.4900649"><ele>610.6666666666667</ele><time>2026-04-27T08:42:44.386Z</time></trkpt><trkpt lat="44.5541111" lon="15.489938"><ele>610.3333333333334</ele><time>2026-04-27T08:42:45.386Z</time></trkpt><trkpt lat="44.5541381" lon="15.4897974"><ele>610.0</ele><time>2026-04-27T08:42:46.386Z</time></trkpt><trkpt lat="44.5541713" lon="15.4896562"><ele>607.8</ele><time>2026-04-27T08:42:47.386Z</time></trkpt><trkpt lat="44.5542074" lon="15.4895198"><ele>605.6</ele><time>2026-04-27T08:42:48.386Z</time></trkpt><trkpt lat="44.5542424" lon="15.4893826"><ele>603.4</ele><time>2026-04-27T08:42:49.386Z</time></trkpt><trkpt lat="44.5542812" lon="15.489252"><ele>601.2</ele><time>2026-04-27T08:42:50.386Z</time></trkpt><trkpt lat="44.5543141" lon="15.489128"><ele>599.0</ele><time>2026-04-27T08:42:51.386Z</time></trkpt><trkpt lat="44.554349" lon="15.4890158"><ele>599.0</ele><time>2026-04-27T08:42:52.386Z</time></trkpt><trkpt lat="44.5543871" lon="15.4889085"><ele>599.0</ele><time>2026-04-27T08:42:53.387Z</time></trkpt><trkpt lat="44.5544403" lon="15.4888167"><ele>599.0</ele><time>2026-04-27T08:42:54.386Z</time></trkpt><trkpt lat="44.554506" lon="15.4887474"><ele>599.0</ele><time>2026-04-27T08:42:55.386Z</time></trkpt><trkpt lat="44.5545847" lon="15.4886858"><ele>599.0</ele><time>2026-04-27T08:42:56.386Z</time></trkpt><trkpt lat="44.5546604" lon="15.4886384"><ele>599.0</ele><time>2026-04-27T08:42:57.386Z</time></trkpt><trkpt lat="44.5547507" lon="15.4886077"><ele>598.2</ele><time>2026-04-27T08:42:58.386Z</time></trkpt><trkpt lat="44.5548455" lon="15.4885904"><ele>597.4</ele><time>2026-04-27T08:42:59.386Z</time></trkpt><trkpt lat="44.5549417" lon="15.488587"><ele>596.6</ele><time>2026-04-27T08:43:00.386Z</time></trkpt><trkpt lat="44.5550387" lon="15.4885895"><ele>595.8</ele><time>2026-04-27T08:43:01.386Z</time></trkpt><trkpt lat="44.5551301" lon="15.4885958"><ele>595.0</ele><time>2026-04-27T08:43:02.387Z</time></trkpt><trkpt lat="44.555215" lon="15.4886003"><ele>595.0</ele><time>2026-04-27T08:43:03.386Z</time></trkpt><trkpt lat="44.5552973" lon="15.4885937"><ele>595.0</ele><time>2026-04-27T08:43:04.386Z</time></trkpt><trkpt lat="44.5553792" lon="15.4885654"><ele>595.0</ele><time>2026-04-27T08:43:05.386Z</time></trkpt><trkpt lat="44.5554538" lon="15.4885209"><ele>595.0</ele><time>2026-04-27T08:43:06.387Z</time></trkpt><trkpt lat="44.5555145" lon="15.4884588"><ele>595.0</ele><time>2026-04-27T08:43:07.387Z</time></trkpt><trkpt lat="44.555557" lon="15.4883701"><ele>595.0</ele><time>2026-04-27T08:43:08.386Z</time></trkpt><trkpt lat="44.5555783" lon="15.4882726"><ele>595.5</ele><time>2026-04-27T08:43:09.386Z</time></trkpt><trkpt lat="44.5555782" lon="15.4881686"><ele>596.0</ele><time>2026-04-27T08:43:10.387Z</time></trkpt><trkpt lat="44.5555591" lon="15.488065"><ele>596.5</ele><time>2026-04-27T08:43:11.386Z</time></trkpt><trkpt lat="44.5555185" lon="15.4879578"><ele>597.0</ele><time>2026-04-27T08:43:12.386Z</time></trkpt><trkpt lat="44.5554618" lon="15.4878602"><ele>597.5</ele><time>2026-04-27T08:43:13.386Z</time></trkpt><trkpt lat="44.5553994" lon="15.4877672"><ele>598.0</ele><time>2026-04-27T08:43:14.386Z</time></trkpt><trkpt lat="44.5553295" lon="15.4876648"><ele>596.0</ele><time>2026-04-27T08:43:15.387Z</time></trkpt><trkpt lat="44.5552525" lon="15.4875603"><ele>594.0</ele><time>2026-04-27T08:43:16.386Z</time></trkpt><trkpt lat="44.5551774" lon="15.4874559"><ele>592.0</ele><time>2026-04-27T08:43:17.386Z</time></trkpt><trkpt lat="44.5551057" lon="15.4873575"><ele>590.0</ele><time>2026-04-27T08:43:18.386Z</time></trkpt><trkpt lat="44.5550462" lon="15.4872539"><ele>588.0</ele><time>2026-04-27T08:43:19.386Z</time></trkpt><trkpt lat="44.5549912" lon="15.4871632"><ele>588.5</ele><time>2026-04-27T08:43:20.386Z</time></trkpt><trkpt lat="44.5549356" lon="15.4870778"><ele>589.0</ele><time>2026-04-27T08:43:21.386Z</time></trkpt><trkpt lat="44.5548786" lon="15.4869873"><ele>589.5</ele><time>2026-04-27T08:43:22.386Z</time></trkpt><trkpt lat="44.5548286" lon="15.4869051"><ele>590.0</ele><time>2026-04-27T08:43:23.387Z</time></trkpt><trkpt lat="44.5547836" lon="15.486818"><ele>590.5</ele><time>2026-04-27T08:43:24.386Z</time></trkpt><trkpt lat="44.5547433" lon="15.4867326"><ele>591.0</ele><time>2026-04-27T08:43:25.386Z</time></trkpt><trkpt lat="44.5547056" lon="15.4866485"><ele>591.0</ele><time>2026-04-27T08:43:26.386Z</time></trkpt><trkpt lat="44.5546705" lon="15.486559"><ele>591.0</ele><time>2026-04-27T08:43:27.386Z</time></trkpt><trkpt lat="44.5546394" lon="15.4864676"><ele>591.0</ele><time>2026-04-27T08:43:28.386Z</time></trkpt><trkpt lat="44.5546156" lon="15.4863742"><ele>591.0</ele><time>2026-04-27T08:43:29.386Z</time></trkpt><trkpt lat="44.5545969" lon="15.4862837"><ele>591.0</ele><time>2026-04-27T08:43:30.386Z</time></trkpt><trkpt lat="44.5545767" lon="15.4861822"><ele>591.0</ele><time>2026-04-27T08:43:31.387Z</time></trkpt><trkpt lat="44.5545498" lon="15.4860631"><ele>591.0</ele><time>2026-04-27T08:43:32.386Z</time></trkpt><trkpt lat="44.5545095" lon="15.4859404"><ele>589.2</ele><time>2026-04-27T08:43:33.386Z</time></trkpt><trkpt lat="44.5544632" lon="15.4858278"><ele>587.4000000000001</ele><time>2026-04-27T08:43:34.386Z</time></trkpt><trkpt lat="44.5544093" lon="15.4857184"><ele>585.6</ele><time>2026-04-27T08:43:35.386Z</time></trkpt><trkpt lat="44.5543445" lon="15.4856234"><ele>583.8000000000001</ele><time>2026-04-27T08:43:36.386Z</time></trkpt><trkpt lat="44.5542632" lon="15.4855421"><ele>582.0</ele><time>2026-04-27T08:43:37.386Z</time></trkpt><trkpt lat="44.5541662" lon="15.4854821"><ele>582.0</ele><time>2026-04-27T08:43:38.386Z</time></trkpt><trkpt lat="44.5540535" lon="15.4854363"><ele>582.0</ele><time>2026-04-27T08:43:39.386Z</time></trkpt><trkpt lat="44.5539353" lon="15.4853863"><ele>582.0</ele><time>2026-04-27T08:43:40.387Z</time></trkpt><trkpt lat="44.5538156" lon="15.485337"><ele>582.0</ele><time>2026-04-27T08:43:41.387Z</time></trkpt><trkpt lat="44.553694" lon="15.4852795"><ele>581.5</ele><time>2026-04-27T08:43:42.386Z</time></trkpt><trkpt lat="44.5535717" lon="15.4852091"><ele>581.0</ele><time>2026-04-27T08:43:43.387Z</time></trkpt><trkpt lat="44.5534474" lon="15.4851343"><ele>580.5</ele><time>2026-04-27T08:43:44.387Z</time></trkpt><trkpt lat="44.5533183" lon="15.4850656"><ele>580.0</ele><time>2026-04-27T08:43:45.386Z</time></trkpt><trkpt lat="44.5531855" lon="15.484997"><ele>580.0</ele><time>2026-04-27T08:43:46.386Z</time></trkpt><trkpt lat="44.5530529" lon="15.4849271"><ele>580.0</ele><time>2026-04-27T08:43:47.386Z</time></trkpt><trkpt lat="44.5529183" lon="15.484864"><ele>580.0</ele><time>2026-04-27T08:43:48.387Z</time></trkpt><trkpt lat="44.5527744" lon="15.4848111"><ele>580.0</ele><time>2026-04-27T08:43:49.387Z</time></trkpt><trkpt lat="44.5526326" lon="15.4847689"><ele>579.75</ele><time>2026-04-27T08:43:50.386Z</time></trkpt><trkpt lat="44.5524946" lon="15.4847252"><ele>579.5</ele><time>2026-04-27T08:43:51.386Z</time></trkpt><trkpt lat="44.5523546" lon="15.4846984"><ele>579.25</ele><time>2026-04-27T08:43:52.387Z</time></trkpt><trkpt lat="44.5522157" lon="15.4846557"><ele>579.0</ele><time>2026-04-27T08:43:53.386Z</time></trkpt><trkpt lat="44.5520811" lon="15.484613"><ele>579.5</ele><time>2026-04-27T08:43:54.387Z</time></trkpt><trkpt lat="44.5519506" lon="15.4845491"><ele>580.0</ele><time>2026-04-27T08:43:55.387Z</time></trkpt><trkpt lat="44.5518146" lon="15.4844769"><ele>580.5</ele><time>2026-04-27T08:43:56.387Z</time></trkpt><trkpt lat="44.5516781" lon="15.4844123"><ele>581.0</ele><time>2026-04-27T08:43:57.386Z</time></trkpt><trkpt lat="44.5515418" lon="15.4843459"><ele>581.0</ele><time>2026-04-27T08:43:58.386Z</time></trkpt><trkpt lat="44.5513969" lon="15.4842874"><ele>581.0</ele><time>2026-04-27T08:43:59.386Z</time></trkpt><trkpt lat="44.5512591" lon="15.4842282"><ele>581.0</ele><time>2026-04-27T08:44:00.387Z</time></trkpt><trkpt lat="44.5511099" lon="15.4841707"><ele>581.0</ele><time>2026-04-27T08:44:01.387Z</time></trkpt><trkpt lat="44.5509591" lon="15.4841158"><ele>581.0</ele><time>2026-04-27T08:44:02.386Z</time></trkpt><trkpt lat="44.5508077" lon="15.484063"><ele>581.0</ele><time>2026-04-27T08:44:03.386Z</time></trkpt><trkpt lat="44.5506537" lon="15.4840117"><ele>581.0</ele><time>2026-04-27T08:44:04.386Z</time></trkpt><trkpt lat="44.5505003" lon="15.4839539"><ele>581.0</ele><time>2026-04-27T08:44:05.387Z</time></trkpt><trkpt lat="44.5503525" lon="15.4838841"><ele>581.0</ele><time>2026-04-27T08:44:06.386Z</time></trkpt><trkpt lat="44.5502059" lon="15.4838126"><ele>580.6666666666666</ele><time>2026-04-27T08:44:07.386Z</time></trkpt><trkpt lat="44.5500591" lon="15.4837368"><ele>580.3333333333334</ele><time>2026-04-27T08:44:08.386Z</time></trkpt><trkpt lat="44.5499217" lon="15.4836424"><ele>580.0</ele><time>2026-04-27T08:44:09.386Z</time></trkpt><trkpt lat="44.5497878" lon="15.4835365"><ele>580.0</ele><time>2026-04-27T08:44:10.386Z</time></trkpt><trkpt lat="44.5496547" lon="15.4834294"><ele>580.0</ele><time>2026-04-27T08:44:11.387Z</time></trkpt><trkpt lat="44.5495266" lon="15.4833044"><ele>580.0</ele><time>2026-04-27T08:44:12.386Z</time></trkpt><trkpt lat="44.549401" lon="15.4831682"><ele>579.5</ele><time>2026-04-27T08:44:13.386Z</time></trkpt><trkpt lat="44.5492899" lon="15.4830411"><ele>579.0</ele><time>2026-04-27T08:44:14.386Z</time></trkpt><trkpt lat="44.5491888" lon="15.4829316"><ele>578.5</ele><time>2026-04-27T08:44:15.386Z</time></trkpt><trkpt lat="44.5491109" lon="15.4828362"><ele>578.0</ele><time>2026-04-27T08:44:16.386Z</time></trkpt><trkpt lat="44.5490528" lon="15.4827578"><ele>578.0</ele><time>2026-04-27T08:44:17.386Z</time></trkpt><trkpt lat="44.5490062" lon="15.4826984"><ele>578.0</ele><time>2026-04-27T08:44:18.386Z</time></trkpt><trkpt lat="44.5489448" lon="15.4826218"><ele>578.0</ele><time>2026-04-27T08:44:20.386Z</time></trkpt><trkpt lat="44.5489614" lon="15.482737"><ele>578.0</ele><time>2026-04-27T08:44:26.386Z</time></trkpt><trkpt lat="44.5489405" lon="15.4828827"><ele>578.0</ele><time>2026-04-27T08:44:29.386Z</time></trkpt><trkpt lat="44.5488596" lon="15.4830198"><ele>577.8333333333333</ele><time>2026-04-27T08:44:31.386Z</time></trkpt><trkpt lat="44.5488168" lon="15.4830949"><ele>577.6666666666666</ele><time>2026-04-27T08:44:32.386Z</time></trkpt><trkpt lat="44.5487758" lon="15.4831711"><ele>577.5</ele><time>2026-04-27T08:44:33.386Z</time></trkpt><trkpt lat="44.5487309" lon="15.4832529"><ele>577.3333333333334</ele><time>2026-04-27T08:44:34.386Z</time></trkpt><trkpt lat="44.5486825" lon="15.4833155"><ele>577.1666666666667</ele><time>2026-04-27T08:44:35.387Z</time></trkpt><trkpt lat="44.5485618" lon="15.4833928"><ele>577.0</ele><time>2026-04-27T08:44:37.387Z</time></trkpt><trkpt lat="44.5484888" lon="15.4834116"><ele>577.0</ele><time>2026-04-27T08:44:38.386Z</time></trkpt><trkpt lat="44.5484173" lon="15.4834288"><ele>577.0</ele><time>2026-04-27T08:44:39.387Z</time></trkpt><trkpt lat="44.5483511" lon="15.4834698"><ele>577.0</ele><time>2026-04-27T08:44:40.386Z</time></trkpt><trkpt lat="44.548282" lon="15.4835355"><ele>577.0</ele><time>2026-04-27T08:44:41.386Z</time></trkpt><trkpt lat="44.5482173" lon="15.4836084"><ele>577.0</ele><time>2026-04-27T08:44:42.386Z</time></trkpt><trkpt lat="44.548145" lon="15.4836763"><ele>577.0</ele><time>2026-04-27T08:44:43.386Z</time></trkpt><trkpt lat="44.5480733" lon="15.4837191"><ele>577.0</ele><time>2026-04-27T08:44:44.386Z</time></trkpt><trkpt lat="44.5479977" lon="15.4837529"><ele>577.0</ele><time>2026-04-27T08:44:45.386Z</time></trkpt><trkpt lat="44.5479189" lon="15.4837668"><ele>577.0</ele><time>2026-04-27T08:44:46.386Z</time></trkpt><trkpt lat="44.5478419" lon="15.4837709"><ele>577.0</ele><time>2026-04-27T08:44:47.386Z</time></trkpt><trkpt lat="44.5477658" lon="15.4837887"><ele>577.0</ele><time>2026-04-27T08:44:48.386Z</time></trkpt><trkpt lat="44.5476924" lon="15.4838341"><ele>577.0</ele><time>2026-04-27T08:44:49.386Z</time></trkpt><trkpt lat="44.5476154" lon="15.4838973"><ele>577.0</ele><time>2026-04-27T08:44:50.386Z</time></trkpt><trkpt lat="44.5475375" lon="15.4839647"><ele>577.0</ele><time>2026-04-27T08:44:51.386Z</time></trkpt><trkpt lat="44.5474689" lon="15.484044"><ele>577.0</ele><time>2026-04-27T08:44:52.386Z</time></trkpt><trkpt lat="44.5474034" lon="15.4841423"><ele>577.0</ele><time>2026-04-27T08:44:53.386Z</time></trkpt><trkpt lat="44.5473459" lon="15.4842516"><ele>577.0</ele><time>2026-04-27T08:44:54.386Z</time></trkpt><trkpt lat="44.5472915" lon="15.4843693"><ele>577.0</ele><time>2026-04-27T08:44:55.386Z</time></trkpt><trkpt lat="44.5472404" lon="15.4844918"><ele>577.0</ele><time>2026-04-27T08:44:56.386Z</time></trkpt><trkpt lat="44.5471967" lon="15.4846145"><ele>577.0</ele><time>2026-04-27T08:44:57.387Z</time></trkpt><trkpt lat="44.5471603" lon="15.4847465"><ele>577.0</ele><time>2026-04-27T08:44:58.386Z</time></trkpt><trkpt lat="44.547129" lon="15.4848886"><ele>577.0</ele><time>2026-04-27T08:44:59.386Z</time></trkpt><trkpt lat="44.5471014" lon="15.4850315"><ele>577.0</ele><time>2026-04-27T08:45:00.386Z</time></trkpt><trkpt lat="44.5470769" lon="15.4851678"><ele>577.0</ele><time>2026-04-27T08:45:01.386Z</time></trkpt><trkpt lat="44.5470487" lon="15.4852826"><ele>577.0</ele><time>2026-04-27T08:45:02.386Z</time></trkpt><trkpt lat="44.5470276" lon="15.485393"><ele>577.0</ele><time>2026-04-27T08:45:03.387Z</time></trkpt><trkpt lat="44.5470033" lon="15.4855127"><ele>577.0</ele><time>2026-04-27T08:45:04.386Z</time></trkpt><trkpt lat="44.5470118" lon="15.4856365"><ele>577.0</ele><time>2026-04-27T08:45:05.386Z</time></trkpt><trkpt lat="44.5470209" lon="15.4857665"><ele>577.0</ele><time>2026-04-27T08:45:06.386Z</time></trkpt><trkpt lat="44.5470245" lon="15.4859059"><ele>577.0</ele><time>2026-04-27T08:45:07.386Z</time></trkpt><trkpt lat="44.5470177" lon="15.4860509"><ele>577.0</ele><time>2026-04-27T08:45:08.386Z</time></trkpt><trkpt lat="44.5470021" lon="15.4861941"><ele>577.0</ele><time>2026-04-27T08:45:09.387Z</time></trkpt><trkpt lat="44.5469817" lon="15.4863493"><ele>577.0</ele><time>2026-04-27T08:45:10.386Z</time></trkpt><trkpt lat="44.5469498" lon="15.4865057"><ele>576.8000000000001</ele><time>2026-04-27T08:45:11.386Z</time></trkpt><trkpt lat="44.5469113" lon="15.4866635"><ele>576.6</ele><time>2026-04-27T08:45:12.386Z</time></trkpt><trkpt lat="44.5468746" lon="15.4868181"><ele>576.4000000000001</ele><time>2026-04-27T08:45:13.386Z</time></trkpt><trkpt lat="44.5468421" lon="15.4869562"><ele>576.2</ele><time>2026-04-27T08:45:14.386Z</time></trkpt><trkpt lat="44.5468149" lon="15.4870782"><ele>576.0</ele><time>2026-04-27T08:45:15.386Z</time></trkpt><trkpt lat="44.5467746" lon="15.4871843"><ele>576.3333333333334</ele><time>2026-04-27T08:45:16.386Z</time></trkpt><trkpt lat="44.5467403" lon="15.4872863"><ele>576.6666666666666</ele><time>2026-04-27T08:45:17.387Z</time></trkpt><trkpt lat="44.5466899" lon="15.4874077"><ele>577.0</ele><time>2026-04-27T08:45:18.386Z</time></trkpt><trkpt lat="44.5466609" lon="15.4875157"><ele>577.3333333333333</ele><time>2026-04-27T08:45:19.386Z</time></trkpt><trkpt lat="44.5466329" lon="15.4876059"><ele>577.6666666666666</ele><time>2026-04-27T08:45:20.386Z</time></trkpt><trkpt lat="44.5465547" lon="15.4876911"><ele>578.0</ele><time>2026-04-27T08:45:22.386Z</time></trkpt><trkpt lat="44.5464571" lon="15.4877175"><ele>578.0</ele><time>2026-04-27T08:45:24.386Z</time></trkpt><trkpt lat="44.5463924" lon="15.4877486"><ele>578.0</ele><time>2026-04-27T08:45:25.386Z</time></trkpt><trkpt lat="44.5463326" lon="15.4878097"><ele>578.0</ele><time>2026-04-27T08:45:26.386Z</time></trkpt><trkpt lat="44.5462705" lon="15.4878983"><ele>578.0</ele><time>2026-04-27T08:45:27.386Z</time></trkpt><trkpt lat="44.5462012" lon="15.4880121"><ele>578.0</ele><time>2026-04-27T08:45:28.386Z</time></trkpt><trkpt lat="44.5461384" lon="15.4881357"><ele>578.0</ele><time>2026-04-27T08:45:29.387Z</time></trkpt><trkpt lat="44.5460896" lon="15.4882567"><ele>578.0</ele><time>2026-04-27T08:45:30.386Z</time></trkpt><trkpt lat="44.5460505" lon="15.4883673"><ele>578.0</ele><time>2026-04-27T08:45:31.387Z</time></trkpt><trkpt lat="44.5460005" lon="15.4884663"><ele>578.0</ele><time>2026-04-27T08:45:32.386Z</time></trkpt><trkpt lat="44.5459357" lon="15.4885614"><ele>578.0</ele><time>2026-04-27T08:45:33.386Z</time></trkpt><trkpt lat="44.5458568" lon="15.4886767"><ele>578.0</ele><time>2026-04-27T08:45:34.386Z</time></trkpt><trkpt lat="44.5457903" lon="15.4888063"><ele>577.75</ele><time>2026-04-27T08:45:35.387Z</time></trkpt><trkpt lat="44.545715" lon="15.4889472"><ele>577.5</ele><time>2026-04-27T08:45:36.387Z</time></trkpt><trkpt lat="44.5456381" lon="15.4890924"><ele>577.25</ele><time>2026-04-27T08:45:37.386Z</time></trkpt><trkpt lat="44.5455558" lon="15.4892444"><ele>577.0</ele><time>2026-04-27T08:45:38.386Z</time></trkpt><trkpt lat="44.5454748" lon="15.489389"><ele>577.0</ele><time>2026-04-27T08:45:39.386Z</time></trkpt><trkpt lat="44.5453966" lon="15.4895191"><ele>577.0</ele><time>2026-04-27T08:45:40.386Z</time></trkpt><trkpt lat="44.5453238" lon="15.4896398"><ele>577.0</ele><time>2026-04-27T08:45:41.387Z</time></trkpt><trkpt lat="44.5452653" lon="15.4897531"><ele>577.0</ele><time>2026-04-27T08:45:42.387Z</time></trkpt><trkpt lat="44.5452278" lon="15.4898651"><ele>577.0</ele><time>2026-04-27T08:45:43.387Z</time></trkpt><trkpt lat="44.5452142" lon="15.4899798"><ele>576.8000000000001</ele><time>2026-04-27T08:45:44.386Z</time></trkpt><trkpt lat="44.545218" lon="15.4901098"><ele>576.6</ele><time>2026-04-27T08:45:45.386Z</time></trkpt><trkpt lat="44.5452255" lon="15.4902496"><ele>576.4000000000001</ele><time>2026-04-27T08:45:46.386Z</time></trkpt><trkpt lat="44.5452291" lon="15.4904063"><ele>576.2</ele><time>2026-04-27T08:45:47.386Z</time></trkpt><trkpt lat="44.5452144" lon="15.4905432"><ele>576.0</ele><time>2026-04-27T08:45:48.386Z</time></trkpt><trkpt lat="44.5451893" lon="15.4906841"><ele>576.5</ele><time>2026-04-27T08:45:49.387Z</time></trkpt><trkpt lat="44.5451592" lon="15.490831"><ele>577.0</ele><time>2026-04-27T08:45:50.386Z</time></trkpt><trkpt lat="44.5451313" lon="15.4909728"><ele>577.5</ele><time>2026-04-27T08:45:51.387Z</time></trkpt><trkpt lat="44.5451065" lon="15.4911038"><ele>578.0</ele><time>2026-04-27T08:45:52.386Z</time></trkpt><trkpt lat="44.5451032" lon="15.4912"><ele>578.5</ele><time>2026-04-27T08:45:53.387Z</time></trkpt><trkpt lat="44.545115" lon="15.4912914"><ele>579.0</ele><time>2026-04-27T08:45:54.386Z</time></trkpt><trkpt lat="44.5451466" lon="15.4913846"><ele>579.1666666666666</ele><time>2026-04-27T08:45:55.386Z</time></trkpt><trkpt lat="44.5451783" lon="15.491464"><ele>579.3333333333334</ele><time>2026-04-27T08:45:56.386Z</time></trkpt><trkpt lat="44.545171" lon="15.4916252"><ele>579.5</ele><time>2026-04-27T08:45:58.386Z</time></trkpt><trkpt lat="44.54513" lon="15.4917159"><ele>579.6666666666667</ele><time>2026-04-27T08:45:59.386Z</time></trkpt><trkpt lat="44.5450808" lon="15.4918236"><ele>579.8333333333334</ele><time>2026-04-27T08:46:00.386Z</time></trkpt><trkpt lat="44.5450366" lon="15.4919164"><ele>580.0</ele><time>2026-04-27T08:46:01.386Z</time></trkpt><trkpt lat="44.5449904" lon="15.4919804"><ele>580.0</ele><time>2026-04-27T08:46:02.386Z</time></trkpt><trkpt lat="44.5448655" lon="15.492023"><ele>580.0</ele><time>2026-04-27T08:46:04.386Z</time></trkpt><trkpt lat="44.5447833" lon="15.4920268"><ele>580.0</ele><time>2026-04-27T08:46:05.386Z</time></trkpt><trkpt lat="44.5447041" lon="15.4920452"><ele>580.0</ele><time>2026-04-27T08:46:06.386Z</time></trkpt><trkpt lat="44.5446265" lon="15.4920765"><ele>580.0</ele><time>2026-04-27T08:46:07.386Z</time></trkpt><trkpt lat="44.5445699" lon="15.4921299"><ele>580.0</ele><time>2026-04-27T08:46:08.386Z</time></trkpt><trkpt lat="44.5445326" lon="15.4922548"><ele>580.1666666666667</ele><time>2026-04-27T08:46:10.387Z</time></trkpt><trkpt lat="44.544545" lon="15.4923436"><ele>580.3333333333334</ele><time>2026-04-27T08:46:11.386Z</time></trkpt><trkpt lat="44.5445724" lon="15.4924427"><ele>580.5</ele><time>2026-04-27T08:46:12.386Z</time></trkpt><trkpt lat="44.5446046" lon="15.4925601"><ele>580.6666666666666</ele><time>2026-04-27T08:46:13.387Z</time></trkpt><trkpt lat="44.5446392" lon="15.4926829"><ele>580.8333333333333</ele><time>2026-04-27T08:46:14.386Z</time></trkpt><trkpt lat="44.5446805" lon="15.492817"><ele>581.0</ele><time>2026-04-27T08:46:15.386Z</time></trkpt><trkpt lat="44.5447137" lon="15.4929172"><ele>581.3333333333333</ele><time>2026-04-27T08:46:16.386Z</time></trkpt><trkpt lat="44.5447286" lon="15.493026"><ele>581.6666666666666</ele><time>2026-04-27T08:46:17.387Z</time></trkpt><trkpt lat="44.5447244" lon="15.4931221"><ele>582.0</ele><time>2026-04-27T08:46:18.387Z</time></trkpt><trkpt lat="44.5447241" lon="15.4932316"><ele>582.3333333333334</ele><time>2026-04-27T08:46:19.386Z</time></trkpt><trkpt lat="44.544775" lon="15.493381"><ele>582.6666666666667</ele><time>2026-04-27T08:46:21.387Z</time></trkpt><trkpt lat="44.5448582" lon="15.4934583"><ele>583.0</ele><time>2026-04-27T08:46:23.387Z</time></trkpt><trkpt lat="44.5449515" lon="15.4935009"><ele>583.0</ele><time>2026-04-27T08:46:25.386Z</time></trkpt><trkpt lat="44.5450372" lon="15.4935433"><ele>583.0</ele><time>2026-04-27T08:46:27.386Z</time></trkpt><trkpt lat="44.5451041" lon="15.4935711"><ele>583.0</ele><time>2026-04-27T08:46:29.386Z</time></trkpt><trkpt lat="44.5450609" lon="15.4935008"><ele>583.0</ele><time>2026-04-27T08:46:34.386Z</time></trkpt><trkpt lat="44.5449575" lon="15.4934963"><ele>583.0</ele><time>2026-04-27T08:46:36.386Z</time></trkpt><trkpt lat="44.5448933" lon="15.4934788"><ele>583.0</ele><time>2026-04-27T08:46:37.386Z</time></trkpt><trkpt lat="44.5447842" lon="15.4934305"><ele>583.0</ele><time>2026-04-27T08:46:39.386Z</time></trkpt><trkpt lat="44.5447067" lon="15.4934751"><ele>583.0</ele><time>2026-04-27T08:46:42.386Z</time></trkpt><trkpt lat="44.5446837" lon="15.4936329"><ele>583.0</ele><time>2026-04-27T08:46:44.386Z</time></trkpt><trkpt lat="44.5446687" lon="15.4937553"><ele>583.0</ele><time>2026-04-27T08:46:45.386Z</time></trkpt><trkpt lat="44.5446568" lon="15.4938664"><ele>583.0</ele><time>2026-04-27T08:46:46.387Z</time></trkpt><trkpt lat="44.5446402" lon="15.4939758"><ele>583.0</ele><time>2026-04-27T08:46:47.386Z</time></trkpt><trkpt lat="44.5446152" lon="15.4940634"><ele>583.0</ele><time>2026-04-27T08:46:48.386Z</time></trkpt><trkpt lat="44.5445759" lon="15.4941669"><ele>583.0</ele><time>2026-04-27T08:46:49.386Z</time></trkpt><trkpt lat="44.5445326" lon="15.4942802"><ele>583.0</ele><time>2026-04-27T08:46:50.386Z</time></trkpt><trkpt lat="44.5444941" lon="15.4944017"><ele>583.0</ele><time>2026-04-27T08:46:51.386Z</time></trkpt><trkpt lat="44.5444714" lon="15.4945202"><ele>583.0</ele><time>2026-04-27T08:46:52.387Z</time></trkpt><trkpt lat="44.5444479" lon="15.494632"><ele>583.0</ele><time>2026-04-27T08:46:53.386Z</time></trkpt><trkpt lat="44.5444267" lon="15.4947431"><ele>583.6666666666667</ele><time>2026-04-27T08:46:54.386Z</time></trkpt><trkpt lat="44.5443845" lon="15.4948577"><ele>584.3333333333334</ele><time>2026-04-27T08:46:55.386Z</time></trkpt><trkpt lat="44.5443537" lon="15.4949546"><ele>585.0</ele><time>2026-04-27T08:46:56.386Z</time></trkpt><trkpt lat="44.5443151" lon="15.4950526"><ele>585.6666666666666</ele><time>2026-04-27T08:46:57.386Z</time></trkpt><trkpt lat="44.5442637" lon="15.4951508"><ele>586.3333333333333</ele><time>2026-04-27T08:46:58.386Z</time></trkpt><trkpt lat="44.5442048" lon="15.4952533"><ele>587.0</ele><time>2026-04-27T08:46:59.386Z</time></trkpt><trkpt lat="44.5441525" lon="15.4953606"><ele>586.1666666666666</ele><time>2026-04-27T08:47:00.387Z</time></trkpt><trkpt lat="44.5441037" lon="15.4954692"><ele>585.3333333333333</ele><time>2026-04-27T08:47:01.387Z</time></trkpt><trkpt lat="44.544062" lon="15.4955693"><ele>584.5</ele><time>2026-04-27T08:47:02.386Z</time></trkpt><trkpt lat="44.5440362" lon="15.4956679"><ele>583.6666666666666</ele><time>2026-04-27T08:47:03.387Z</time></trkpt><trkpt lat="44.5440223" lon="15.4957602"><ele>582.8333333333334</ele><time>2026-04-27T08:47:04.386Z</time></trkpt><trkpt lat="44.544044" lon="15.4959238"><ele>582.0</ele><time>2026-04-27T08:47:06.386Z</time></trkpt><trkpt lat="44.5440831" lon="15.4960104"><ele>582.0</ele><time>2026-04-27T08:47:07.386Z</time></trkpt><trkpt lat="44.5441414" lon="15.4961036"><ele>582.0</ele><time>2026-04-27T08:47:08.386Z</time></trkpt><trkpt lat="44.5442007" lon="15.4961967"><ele>582.0</ele><time>2026-04-27T08:47:09.386Z</time></trkpt><trkpt lat="44.5442501" lon="15.4963043"><ele>582.0</ele><time>2026-04-27T08:47:10.386Z</time></trkpt><trkpt lat="44.5442936" lon="15.4964284"><ele>582.0</ele><time>2026-04-27T08:47:11.386Z</time></trkpt><trkpt lat="44.5443398" lon="15.4965398"><ele>581.6666666666666</ele><time>2026-04-27T08:47:12.386Z</time></trkpt><trkpt lat="44.5443851" lon="15.4966203"><ele>581.3333333333334</ele><time>2026-04-27T08:47:13.387Z</time></trkpt><trkpt lat="44.5444411" lon="15.4967063"><ele>581.0</ele><time>2026-04-27T08:47:14.386Z</time></trkpt><trkpt lat="44.5444974" lon="15.4967796"><ele>580.6666666666667</ele><time>2026-04-27T08:47:15.386Z</time></trkpt><trkpt lat="44.5445522" lon="15.4968404"><ele>580.3333333333334</ele><time>2026-04-27T08:47:16.386Z</time></trkpt><trkpt lat="44.5446168" lon="15.4968812"><ele>580.0</ele><time>2026-04-27T08:47:17.386Z</time></trkpt><trkpt lat="44.544671" lon="15.497001"><ele>581.0</ele><time>2026-04-27T08:47:19.386Z</time></trkpt><trkpt lat="44.5446704" lon="15.4971089"><ele>582.0</ele><time>2026-04-27T08:47:21.386Z</time></trkpt><trkpt lat="44.5445751" lon="15.4971792"><ele>583.0</ele><time>2026-04-27T08:47:23.386Z</time></trkpt><trkpt lat="44.5444963" lon="15.4972196"><ele>584.0</ele><time>2026-04-27T08:47:24.386Z</time></trkpt><trkpt lat="44.5443904" lon="15.4972799"><ele>585.0</ele><time>2026-04-27T08:47:25.386Z</time></trkpt><trkpt lat="44.5443035" lon="15.4973293"><ele>585.0</ele><time>2026-04-27T08:47:26.386Z</time></trkpt><trkpt lat="44.5442104" lon="15.4973989"><ele>585.0</ele><time>2026-04-27T08:47:27.386Z</time></trkpt><trkpt lat="44.5441338" lon="15.4974362"><ele>585.0</ele><time>2026-04-27T08:47:28.386Z</time></trkpt><trkpt lat="44.5440595" lon="15.49751"><ele>585.0</ele><time>2026-04-27T08:47:29.387Z</time></trkpt><trkpt lat="44.5439893" lon="15.4975592"><ele>585.0</ele><time>2026-04-27T08:47:30.387Z</time></trkpt><trkpt lat="44.543918" lon="15.4975939"><ele>585.0</ele><time>2026-04-27T08:47:31.386Z</time></trkpt><trkpt lat="44.5438505" lon="15.4976512"><ele>585.0</ele><time>2026-04-27T08:47:32.386Z</time></trkpt><trkpt lat="44.5437793" lon="15.4977035"><ele>585.0</ele><time>2026-04-27T08:47:33.386Z</time></trkpt><trkpt lat="44.5437064" lon="15.4977684"><ele>585.0</ele><time>2026-04-27T08:47:34.387Z</time></trkpt><trkpt lat="44.5436323" lon="15.4978209"><ele>585.0</ele><time>2026-04-27T08:47:35.386Z</time></trkpt><trkpt lat="44.5435597" lon="15.4978837"><ele>585.0</ele><time>2026-04-27T08:47:36.386Z</time></trkpt><trkpt lat="44.5434761" lon="15.4979491"><ele>585.0</ele><time>2026-04-27T08:47:37.386Z</time></trkpt><trkpt lat="44.5433979" lon="15.4980143"><ele>584.4</ele><time>2026-04-27T08:47:38.387Z</time></trkpt><trkpt lat="44.5433386" lon="15.4980746"><ele>583.8</ele><time>2026-04-27T08:47:39.386Z</time></trkpt><trkpt lat="44.5432642" lon="15.4981407"><ele>583.2</ele><time>2026-04-27T08:47:40.386Z</time></trkpt><trkpt lat="44.543167" lon="15.4982278"><ele>582.6</ele><time>2026-04-27T08:47:41.387Z</time></trkpt><trkpt lat="44.5430839" lon="15.4983077"><ele>582.0</ele><time>2026-04-27T08:47:42.387Z</time></trkpt><trkpt lat="44.5430067" lon="15.4983798"><ele>582.0</ele><time>2026-04-27T08:47:43.386Z</time></trkpt><trkpt lat="44.5429373" lon="15.498439"><ele>582.0</ele><time>2026-04-27T08:47:44.386Z</time></trkpt><trkpt lat="44.5428723" lon="15.4984911"><ele>582.0</ele><time>2026-04-27T08:47:45.386Z</time></trkpt><trkpt lat="44.5427986" lon="15.4985425"><ele>582.0</ele><time>2026-04-27T08:47:46.387Z</time></trkpt><trkpt lat="44.5427328" lon="15.4985805"><ele>582.0</ele><time>2026-04-27T08:47:47.386Z</time></trkpt><trkpt lat="44.5426268" lon="15.4986041"><ele>582.0</ele><time>2026-04-27T08:47:49.387Z</time></trkpt><trkpt lat="44.5425457" lon="15.4985841"><ele>581.8333333333334</ele><time>2026-04-27T08:47:51.386Z</time></trkpt><trkpt lat="44.5424725" lon="15.4985702"><ele>581.6666666666666</ele><time>2026-04-27T08:47:52.387Z</time></trkpt><trkpt lat="44.5423842" lon="15.4985742"><ele>581.5</ele><time>2026-04-27T08:47:53.386Z</time></trkpt><trkpt lat="44.5423044" lon="15.4985781"><ele>581.3333333333333</ele><time>2026-04-27T08:47:54.387Z</time></trkpt><trkpt lat="44.5422254" lon="15.4986"><ele>581.1666666666666</ele><time>2026-04-27T08:47:55.386Z</time></trkpt><trkpt lat="44.5421496" lon="15.4986168"><ele>581.0</ele><time>2026-04-27T08:47:56.386Z</time></trkpt><trkpt lat="44.5420786" lon="15.4986226"><ele>581.2</ele><time>2026-04-27T08:47:57.386Z</time></trkpt><trkpt lat="44.5419653" lon="15.4986799"><ele>581.4000000000001</ele><time>2026-04-27T08:47:59.386Z</time></trkpt><trkpt lat="44.5418808" lon="15.4987305"><ele>581.6</ele><time>2026-04-27T08:48:01.386Z</time></trkpt><trkpt lat="44.5418373" lon="15.4988028"><ele>581.8000000000001</ele><time>2026-04-27T08:48:03.386Z</time></trkpt><trkpt lat="44.54186" lon="15.4989526"><ele>582.0</ele><time>2026-04-27T08:48:05.386Z</time></trkpt><trkpt lat="44.5418798" lon="15.4990396"><ele>582.0</ele><time>2026-04-27T08:48:06.386Z</time></trkpt><trkpt lat="44.5419014" lon="15.499128"><ele>582.0</ele><time>2026-04-27T08:48:07.386Z</time></trkpt><trkpt lat="44.5419424" lon="15.4992995"><ele>582.0</ele><time>2026-04-27T08:48:09.386Z</time></trkpt><trkpt lat="44.5419657" lon="15.4993898"><ele>582.0</ele><time>2026-04-27T08:48:10.386Z</time></trkpt><trkpt lat="44.5419819" lon="15.4995331"><ele>582.0</ele><time>2026-04-27T08:48:12.386Z</time></trkpt><trkpt lat="44.5419234" lon="15.4996465"><ele>582.0</ele><time>2026-04-27T08:48:14.386Z</time></trkpt><trkpt lat="44.5418665" lon="15.499702"><ele>582.0</ele><time>2026-04-27T08:48:15.386Z</time></trkpt><trkpt lat="44.5418053" lon="15.4997608"><ele>582.0</ele><time>2026-04-27T08:48:16.386Z</time></trkpt><trkpt lat="44.5417458" lon="15.4998091"><ele>582.0</ele><time>2026-04-27T08:48:17.386Z</time></trkpt><trkpt lat="44.5416814" lon="15.4998601"><ele>582.0</ele><time>2026-04-27T08:48:18.386Z</time></trkpt><trkpt lat="44.5416292" lon="15.4999193"><ele>582.0</ele><time>2026-04-27T08:48:19.386Z</time></trkpt><trkpt lat="44.5415654" lon="15.499986"><ele>582.0</ele><time>2026-04-27T08:48:20.386Z</time></trkpt><trkpt lat="44.5414933" lon="15.5000705"><ele>582.0</ele><time>2026-04-27T08:48:21.386Z</time></trkpt><trkpt lat="44.5414316" lon="15.500138"><ele>582.0</ele><time>2026-04-27T08:48:22.387Z</time></trkpt><trkpt lat="44.5413585" lon="15.5002166"><ele>582.0</ele><time>2026-04-27T08:48:23.386Z</time></trkpt><trkpt lat="44.5412991" lon="15.5002866"><ele>582.0</ele><time>2026-04-27T08:48:24.386Z</time></trkpt><trkpt lat="44.5412229" lon="15.5003722"><ele>582.0</ele><time>2026-04-27T08:48:25.387Z</time></trkpt><trkpt lat="44.5411586" lon="15.5004307"><ele>582.0</ele><time>2026-04-27T08:48:26.386Z</time></trkpt><trkpt lat="44.5411028" lon="15.5004809"><ele>581.6</ele><time>2026-04-27T08:48:27.386Z</time></trkpt><trkpt lat="44.5409726" lon="15.5005305"><ele>581.2</ele><time>2026-04-27T08:48:29.387Z</time></trkpt><trkpt lat="44.5409086" lon="15.5005469"><ele>580.8</ele><time>2026-04-27T08:48:30.386Z</time></trkpt><trkpt lat="44.5408178" lon="15.500597"><ele>580.4</ele><time>2026-04-27T08:48:31.386Z</time></trkpt><trkpt lat="44.5407326" lon="15.5006468"><ele>580.0</ele><time>2026-04-27T08:48:32.386Z</time></trkpt><trkpt lat="44.540619" lon="15.5007189"><ele>580.0</ele><time>2026-04-27T08:48:33.387Z</time></trkpt><trkpt lat="44.5405014" lon="15.500776"><ele>580.0</ele><time>2026-04-27T08:48:34.386Z</time></trkpt><trkpt lat="44.5403974" lon="15.5008437"><ele>580.0</ele><time>2026-04-27T08:48:35.386Z</time></trkpt><trkpt lat="44.5402973" lon="15.5009101"><ele>580.0</ele><time>2026-04-27T08:48:36.386Z</time></trkpt><trkpt lat="44.5402099" lon="15.500959"><ele>580.0</ele><time>2026-04-27T08:48:37.387Z</time></trkpt><trkpt lat="44.5401247" lon="15.5010018"><ele>580.0</ele><time>2026-04-27T08:48:38.387Z</time></trkpt><trkpt lat="44.5400533" lon="15.5010524"><ele>580.0</ele><time>2026-04-27T08:48:39.386Z</time></trkpt><trkpt lat="44.5399833" lon="15.5011302"><ele>580.0</ele><time>2026-04-27T08:48:40.387Z</time></trkpt><trkpt lat="44.5399195" lon="15.5012217"><ele>580.0</ele><time>2026-04-27T08:48:41.386Z</time></trkpt><trkpt lat="44.5398504" lon="15.5013052"><ele>580.0</ele><time>2026-04-27T08:48:42.387Z</time></trkpt><trkpt lat="44.5397683" lon="15.5013841"><ele>580.2</ele><time>2026-04-27T08:48:43.387Z</time></trkpt><trkpt lat="44.539687" lon="15.5014633"><ele>580.4</ele><time>2026-04-27T08:48:44.386Z</time></trkpt><trkpt lat="44.5396006" lon="15.5015463"><ele>580.6</ele><time>2026-04-27T08:48:45.387Z</time></trkpt><trkpt lat="44.5395188" lon="15.5016507"><ele>580.8</ele><time>2026-04-27T08:48:46.387Z</time></trkpt><trkpt lat="44.5394408" lon="15.501758"><ele>581.0</ele><time>2026-04-27T08:48:47.387Z</time></trkpt><trkpt lat="44.5393728" lon="15.501845"><ele>581.1666666666666</ele><time>2026-04-27T08:48:48.387Z</time></trkpt><trkpt lat="44.539298" lon="15.5019182"><ele>581.3333333333333</ele><time>2026-04-27T08:48:49.386Z</time></trkpt><trkpt lat="44.5392341" lon="15.5019774"><ele>581.5</ele><time>2026-04-27T08:48:50.387Z</time></trkpt><trkpt lat="44.5391712" lon="15.5020481"><ele>581.6666666666666</ele><time>2026-04-27T08:48:51.386Z</time></trkpt><trkpt lat="44.5390892" lon="15.502132"><ele>581.8333333333334</ele><time>2026-04-27T08:48:52.387Z</time></trkpt><trkpt lat="44.5390146" lon="15.5022068"><ele>582.0</ele><time>2026-04-27T08:48:53.386Z</time></trkpt><trkpt lat="44.538937" lon="15.5022749"><ele>582.0</ele><time>2026-04-27T08:48:54.386Z</time></trkpt><trkpt lat="44.5388565" lon="15.5023375"><ele>582.0</ele><time>2026-04-27T08:48:55.386Z</time></trkpt><trkpt lat="44.5387864" lon="15.502395"><ele>582.0</ele><time>2026-04-27T08:48:56.386Z</time></trkpt><trkpt lat="44.5387097" lon="15.5024521"><ele>582.0</ele><time>2026-04-27T08:48:57.386Z</time></trkpt><trkpt lat="44.5386282" lon="15.5025032"><ele>582.0</ele><time>2026-04-27T08:48:58.386Z</time></trkpt><trkpt lat="44.5385492" lon="15.5025849"><ele>582.0</ele><time>2026-04-27T08:48:59.386Z</time></trkpt><trkpt lat="44.5384781" lon="15.502671"><ele>582.2</ele><time>2026-04-27T08:49:00.386Z</time></trkpt><trkpt lat="44.5383903" lon="15.502747"><ele>582.4000000000001</ele><time>2026-04-27T08:49:01.386Z</time></trkpt><trkpt lat="44.5383162" lon="15.5028346"><ele>582.5999999999999</ele><time>2026-04-27T08:49:02.387Z</time></trkpt><trkpt lat="44.538248" lon="15.5029082"><ele>582.8</ele><time>2026-04-27T08:49:03.387Z</time></trkpt><trkpt lat="44.5381714" lon="15.5029841"><ele>583.0</ele><time>2026-04-27T08:49:04.386Z</time></trkpt><trkpt lat="44.5380947" lon="15.5030626"><ele>583.0</ele><time>2026-04-27T08:49:05.386Z</time></trkpt><trkpt lat="44.5380319" lon="15.503126"><ele>583.0</ele><time>2026-04-27T08:49:06.387Z</time></trkpt><trkpt lat="44.5379742" lon="15.5031774"><ele>583.0</ele><time>2026-04-27T08:49:07.387Z</time></trkpt><trkpt lat="44.5379172" lon="15.5032255"><ele>583.0</ele><time>2026-04-27T08:49:08.387Z</time></trkpt><trkpt lat="44.5378244" lon="15.5033017"><ele>583.0</ele><time>2026-04-27T08:49:10.386Z</time></trkpt><trkpt lat="44.5377536" lon="15.5033376"><ele>583.0</ele><time>2026-04-27T08:49:12.387Z</time></trkpt><trkpt lat="44.5376913" lon="15.5033706"><ele>582.1999999999999</ele><time>2026-04-27T08:49:14.386Z</time></trkpt><trkpt lat="44.5376077" lon="15.503396"><ele>581.4</ele><time>2026-04-27T08:49:16.386Z</time></trkpt><trkpt lat="44.5375005" lon="15.503435"><ele>580.5999999999999</ele><time>2026-04-27T08:49:18.386Z</time></trkpt><trkpt lat="44.537416" lon="15.5034658"><ele>579.8</ele><time>2026-04-27T08:49:20.387Z</time></trkpt><trkpt lat="44.5373154" lon="15.5035151"><ele>579.0</ele><time>2026-04-27T08:49:22.386Z</time></trkpt><trkpt lat="44.5372383" lon="15.5035526"><ele>579.0</ele><time>2026-04-27T08:49:23.386Z</time></trkpt><trkpt lat="44.5371714" lon="15.5036007"><ele>579.0</ele><time>2026-04-27T08:49:24.386Z</time></trkpt><trkpt lat="44.5371104" lon="15.5036407"><ele>579.0</ele><time>2026-04-27T08:49:25.386Z</time></trkpt><trkpt lat="44.5370528" lon="15.5036814"><ele>579.0</ele><time>2026-04-27T08:49:26.386Z</time></trkpt><trkpt lat="44.5369943" lon="15.5037373"><ele>579.0</ele><time>2026-04-27T08:49:27.386Z</time></trkpt><trkpt lat="44.5369294" lon="15.5038003"><ele>579.0</ele><time>2026-04-27T08:49:28.387Z</time></trkpt><trkpt lat="44.5368333" lon="15.5038991"><ele>580.0</ele><time>2026-04-27T08:49:30.386Z</time></trkpt><trkpt lat="44.5368009" lon="15.50398"><ele>581.0</ele><time>2026-04-27T08:49:31.386Z</time></trkpt><trkpt lat="44.5367648" lon="15.5040988"><ele>582.0</ele><time>2026-04-27T08:49:32.386Z</time></trkpt><trkpt lat="44.5367368" lon="15.504201"><ele>583.0</ele><time>2026-04-27T08:49:33.386Z</time></trkpt><trkpt lat="44.5367055" lon="15.5042959"><ele>584.0</ele><time>2026-04-27T08:49:34.387Z</time></trkpt><trkpt lat="44.536673" lon="15.5043891"><ele>585.0</ele><time>2026-04-27T08:49:35.386Z</time></trkpt><trkpt lat="44.536645" lon="15.5044798"><ele>585.0</ele><time>2026-04-27T08:49:36.386Z</time></trkpt><trkpt lat="44.5366082" lon="15.5045707"><ele>585.0</ele><time>2026-04-27T08:49:37.386Z</time></trkpt><trkpt lat="44.5365667" lon="15.5046525"><ele>585.0</ele><time>2026-04-27T08:49:38.386Z</time></trkpt><trkpt lat="44.5365078" lon="15.5047214"><ele>585.0</ele><time>2026-04-27T08:49:39.386Z</time></trkpt><trkpt lat="44.5364473" lon="15.5047908"><ele>585.0</ele><time>2026-04-27T08:49:40.386Z</time></trkpt><trkpt lat="44.5363836" lon="15.5048565"><ele>585.0</ele><time>2026-04-27T08:49:41.386Z</time></trkpt><trkpt lat="44.5363222" lon="15.5049218"><ele>585.0</ele><time>2026-04-27T08:49:42.386Z</time></trkpt><trkpt lat="44.5362733" lon="15.5049795"><ele>585.0</ele><time>2026-04-27T08:49:43.386Z</time></trkpt><trkpt lat="44.5361929" lon="15.5051046"><ele>585.0</ele><time>2026-04-27T08:49:45.386Z</time></trkpt><trkpt lat="44.5361607" lon="15.5051855"><ele>585.0</ele><time>2026-04-27T08:49:46.387Z</time></trkpt><trkpt lat="44.5361333" lon="15.5052682"><ele>585.0</ele><time>2026-04-27T08:49:47.387Z</time></trkpt><trkpt lat="44.5360986" lon="15.5053556"><ele>585.0</ele><time>2026-04-27T08:49:48.386Z</time></trkpt><trkpt lat="44.5360662" lon="15.5054391"><ele>585.1666666666666</ele><time>2026-04-27T08:49:49.386Z</time></trkpt><trkpt lat="44.5360382" lon="15.5055207"><ele>585.3333333333334</ele><time>2026-04-27T08:49:50.386Z</time></trkpt><trkpt lat="44.5360011" lon="15.505633"><ele>585.5</ele><time>2026-04-27T08:49:52.386Z</time></trkpt><trkpt lat="44.5360672" lon="15.5057162"><ele>585.6666666666667</ele><time>2026-04-27T08:49:57.386Z</time></trkpt><trkpt lat="44.536169" lon="15.5057562"><ele>585.8333333333334</ele><time>2026-04-27T08:49:59.387Z</time></trkpt><trkpt lat="44.5362329" lon="15.5057772"><ele>586.0</ele><time>2026-04-27T08:50:00.386Z</time></trkpt><trkpt lat="44.5362936" lon="15.505804"><ele>586.0</ele><time>2026-04-27T08:50:01.386Z</time></trkpt><trkpt lat="44.5363655" lon="15.5058282"><ele>586.0</ele><time>2026-04-27T08:50:02.387Z</time></trkpt><trkpt lat="44.5364513" lon="15.5058479"><ele>586.0</ele><time>2026-04-27T08:50:03.386Z</time></trkpt><trkpt lat="44.5365412" lon="15.5058816"><ele>586.0</ele><time>2026-04-27T08:50:04.386Z</time></trkpt><trkpt lat="44.5366456" lon="15.5059118"><ele>586.0</ele><time>2026-04-27T08:50:05.387Z</time></trkpt><trkpt lat="44.5367444" lon="15.5059398"><ele>586.0</ele><time>2026-04-27T08:50:06.387Z</time></trkpt><trkpt lat="44.5368441" lon="15.5059659"><ele>586.0</ele><time>2026-04-27T08:50:07.386Z</time></trkpt><trkpt lat="44.536947" lon="15.5059904"><ele>586.0</ele><time>2026-04-27T08:50:08.387Z</time></trkpt><trkpt lat="44.5370537" lon="15.5060158"><ele>586.0</ele><time>2026-04-27T08:50:09.386Z</time></trkpt><trkpt lat="44.537158" lon="15.5060387"><ele>586.0</ele><time>2026-04-27T08:50:10.386Z</time></trkpt><trkpt lat="44.5372517" lon="15.5060687"><ele>586.4</ele><time>2026-04-27T08:50:11.387Z</time></trkpt><trkpt lat="44.5373505" lon="15.5061251"><ele>586.8</ele><time>2026-04-27T08:50:12.386Z</time></trkpt><trkpt lat="44.5374463" lon="15.5061896"><ele>587.1999999999999</ele><time>2026-04-27T08:50:13.386Z</time></trkpt><trkpt lat="44.5375449" lon="15.5062579"><ele>587.6</ele><time>2026-04-27T08:50:14.386Z</time></trkpt><trkpt lat="44.5376429" lon="15.5063158"><ele>588.0</ele><time>2026-04-27T08:50:15.386Z</time></trkpt><trkpt lat="44.5377372" lon="15.5063705"><ele>588.4</ele><time>2026-04-27T08:50:16.387Z</time></trkpt><trkpt lat="44.5378349" lon="15.5064198"><ele>588.8</ele><time>2026-04-27T08:50:17.386Z</time></trkpt><trkpt lat="44.5379476" lon="15.5064455"><ele>589.2</ele><time>2026-04-27T08:50:18.387Z</time></trkpt><trkpt lat="44.5380531" lon="15.5064672"><ele>589.6</ele><time>2026-04-27T08:50:19.386Z</time></trkpt><trkpt lat="44.5381509" lon="15.506478"><ele>590.0</ele><time>2026-04-27T08:50:20.386Z</time></trkpt><trkpt lat="44.5382402" lon="15.5064882"><ele>590.0</ele><time>2026-04-27T08:50:21.386Z</time></trkpt><trkpt lat="44.538321" lon="15.5065058"><ele>590.0</ele><time>2026-04-27T08:50:22.386Z</time></trkpt><trkpt lat="44.5384062" lon="15.5065362"><ele>590.0</ele><time>2026-04-27T08:50:23.386Z</time></trkpt><trkpt lat="44.538479" lon="15.5065912"><ele>590.0</ele><time>2026-04-27T08:50:24.386Z</time></trkpt><trkpt lat="44.5385586" lon="15.5066616"><ele>590.0</ele><time>2026-04-27T08:50:25.386Z</time></trkpt><trkpt lat="44.5386379" lon="15.5067438"><ele>590.0</ele><time>2026-04-27T08:50:26.386Z</time></trkpt><trkpt lat="44.5387157" lon="15.5068235"><ele>590.0</ele><time>2026-04-27T08:50:27.386Z</time></trkpt><trkpt lat="44.5387893" lon="15.5069331"><ele>590.0</ele><time>2026-04-27T08:50:28.386Z</time></trkpt><trkpt lat="44.5388632" lon="15.5070515"><ele>590.0</ele><time>2026-04-27T08:50:29.387Z</time></trkpt><trkpt lat="44.5389269" lon="15.5071774"><ele>590.0</ele><time>2026-04-27T08:50:30.386Z</time></trkpt><trkpt lat="44.5390013" lon="15.5073166"><ele>590.75</ele><time>2026-04-27T08:50:31.386Z</time></trkpt><trkpt lat="44.5390736" lon="15.5074511"><ele>591.5</ele><time>2026-04-27T08:50:32.386Z</time></trkpt><trkpt lat="44.5391487" lon="15.5075923"><ele>592.25</ele><time>2026-04-27T08:50:33.386Z</time></trkpt><trkpt lat="44.5392207" lon="15.5077382"><ele>593.0</ele><time>2026-04-27T08:50:34.386Z</time></trkpt><trkpt lat="44.5392959" lon="15.5078765"><ele>593.4</ele><time>2026-04-27T08:50:35.387Z</time></trkpt><trkpt lat="44.5393657" lon="15.5080172"><ele>593.8</ele><time>2026-04-27T08:50:36.386Z</time></trkpt><trkpt lat="44.5394269" lon="15.5081388"><ele>594.2</ele><time>2026-04-27T08:50:37.386Z</time></trkpt><trkpt lat="44.539483" lon="15.5082729"><ele>594.6</ele><time>2026-04-27T08:50:38.386Z</time></trkpt><trkpt lat="44.5395361" lon="15.5083961"><ele>595.0</ele><time>2026-04-27T08:50:39.386Z</time></trkpt><trkpt lat="44.5395847" lon="15.5084915"><ele>596.2</ele><time>2026-04-27T08:50:40.386Z</time></trkpt><trkpt lat="44.5396509" lon="15.5085897"><ele>597.4</ele><time>2026-04-27T08:50:41.386Z</time></trkpt><trkpt lat="44.5397367" lon="15.5086747"><ele>598.6</ele><time>2026-04-27T08:50:42.386Z</time></trkpt><trkpt lat="44.5398194" lon="15.5087536"><ele>599.8</ele><time>2026-04-27T08:50:43.386Z</time></trkpt><trkpt lat="44.5399038" lon="15.5088243"><ele>601.0</ele><time>2026-04-27T08:50:44.386Z</time></trkpt><trkpt lat="44.5399802" lon="15.5088992"><ele>601.4</ele><time>2026-04-27T08:50:45.386Z</time></trkpt><trkpt lat="44.5400297" lon="15.5089902"><ele>601.8</ele><time>2026-04-27T08:50:46.387Z</time></trkpt><trkpt lat="44.5400876" lon="15.5091022"><ele>602.1999999999999</ele><time>2026-04-27T08:50:47.387Z</time></trkpt><trkpt lat="44.5401354" lon="15.5092193"><ele>602.6</ele><time>2026-04-27T08:50:48.386Z</time></trkpt><trkpt lat="44.540185" lon="15.5093371"><ele>603.0</ele><time>2026-04-27T08:50:49.387Z</time></trkpt><trkpt lat="44.5402365" lon="15.5094385"><ele>603.0</ele><time>2026-04-27T08:50:50.387Z</time></trkpt><trkpt lat="44.5402927" lon="15.5095218"><ele>603.0</ele><time>2026-04-27T08:50:51.386Z</time></trkpt><trkpt lat="44.540361" lon="15.5095808"><ele>603.0</ele><time>2026-04-27T08:50:52.386Z</time></trkpt><trkpt lat="44.5404447" lon="15.5096284"><ele>603.0</ele><time>2026-04-27T08:50:53.387Z</time></trkpt><trkpt lat="44.5405241" lon="15.5096821"><ele>603.0</ele><time>2026-04-27T08:50:54.386Z</time></trkpt><trkpt lat="44.5406184" lon="15.509745"><ele>603.0</ele><time>2026-04-27T08:50:55.387Z</time></trkpt><trkpt lat="44.540696" lon="15.5098101"><ele>603.5714285714286</ele><time>2026-04-27T08:50:56.386Z</time></trkpt><trkpt lat="44.5407648" lon="15.50988"><ele>604.1428571428571</ele><time>2026-04-27T08:50:57.387Z</time></trkpt><trkpt lat="44.5408263" lon="15.5099526"><ele>604.7142857142857</ele><time>2026-04-27T08:50:58.386Z</time></trkpt><trkpt lat="44.5408811" lon="15.5100098"><ele>605.2857142857142</ele><time>2026-04-27T08:50:59.386Z</time></trkpt><trkpt lat="44.5409385" lon="15.5100568"><ele>605.8571428571429</ele><time>2026-04-27T08:51:00.386Z</time></trkpt><trkpt lat="44.5410008" lon="15.5100867"><ele>606.4285714285713</ele><time>2026-04-27T08:51:01.386Z</time></trkpt><trkpt lat="44.5410745" lon="15.5101098"><ele>607.0</ele><time>2026-04-27T08:51:02.386Z</time></trkpt><trkpt lat="44.5411503" lon="15.5101318"><ele>607.0</ele><time>2026-04-27T08:51:03.386Z</time></trkpt><trkpt lat="44.5412348" lon="15.5101508"><ele>607.0</ele><time>2026-04-27T08:51:04.386Z</time></trkpt><trkpt lat="44.5413197" lon="15.5101714"><ele>607.0</ele><time>2026-04-27T08:51:05.386Z</time></trkpt><trkpt lat="44.541387" lon="15.5101919"><ele>607.0</ele><time>2026-04-27T08:51:06.386Z</time></trkpt><trkpt lat="44.5414573" lon="15.5102104"><ele>607.0</ele><time>2026-04-27T08:51:07.386Z</time></trkpt><trkpt lat="44.5415258" lon="15.5102245"><ele>607.0</ele><time>2026-04-27T08:51:08.386Z</time></trkpt><trkpt lat="44.5415994" lon="15.5102226"><ele>607.0</ele><time>2026-04-27T08:51:09.386Z</time></trkpt><trkpt lat="44.5416725" lon="15.5102041"><ele>607.0</ele><time>2026-04-27T08:51:10.386Z</time></trkpt><trkpt lat="44.5417441" lon="15.5101699"><ele>607.0</ele><time>2026-04-27T08:51:11.386Z</time></trkpt><trkpt lat="44.5418038" lon="15.5101416"><ele>607.0</ele><time>2026-04-27T08:51:12.386Z</time></trkpt><trkpt lat="44.5419116" lon="15.5100669"><ele>607.0</ele><time>2026-04-27T08:51:14.387Z</time></trkpt><trkpt lat="44.5420181" lon="15.5100011"><ele>607.1666666666667</ele><time>2026-04-27T08:51:16.386Z</time></trkpt><trkpt lat="44.5420921" lon="15.5100012"><ele>607.3333333333334</ele><time>2026-04-27T08:51:17.386Z</time></trkpt><trkpt lat="44.5421806" lon="15.5099855"><ele>607.5</ele><time>2026-04-27T08:51:18.386Z</time></trkpt><trkpt lat="44.542266" lon="15.5099808"><ele>607.6666666666666</ele><time>2026-04-27T08:51:19.386Z</time></trkpt><trkpt lat="44.542338" lon="15.5099747"><ele>607.8333333333333</ele><time>2026-04-27T08:51:20.386Z</time></trkpt><trkpt lat="44.5424085" lon="15.5099737"><ele>608.0</ele><time>2026-04-27T08:51:21.386Z</time></trkpt><trkpt lat="44.5425413" lon="15.5100182"><ele>608.0</ele><time>2026-04-27T08:51:23.387Z</time></trkpt><trkpt lat="44.5426121" lon="15.5100511"><ele>608.0</ele><time>2026-04-27T08:51:24.386Z</time></trkpt><trkpt lat="44.5426928" lon="15.510119"><ele>608.0</ele><time>2026-04-27T08:51:25.386Z</time></trkpt><trkpt lat="44.5427589" lon="15.5101723"><ele>608.0</ele><time>2026-04-27T08:51:26.386Z</time></trkpt><trkpt lat="44.5428368" lon="15.5102581"><ele>608.0</ele><time>2026-04-27T08:51:27.386Z</time></trkpt><trkpt lat="44.5428986" lon="15.5103323"><ele>608.0</ele><time>2026-04-27T08:51:28.387Z</time></trkpt><trkpt lat="44.5429666" lon="15.5104017"><ele>608.6666666666666</ele><time>2026-04-27T08:51:29.386Z</time></trkpt><trkpt lat="44.5430326" lon="15.5104581"><ele>609.3333333333333</ele><time>2026-04-27T08:51:30.386Z</time></trkpt><trkpt lat="44.5431081" lon="15.510516"><ele>610.0</ele><time>2026-04-27T08:51:31.386Z</time></trkpt><trkpt lat="44.5431823" lon="15.5105652"><ele>610.6666666666666</ele><time>2026-04-27T08:51:32.386Z</time></trkpt><trkpt lat="44.5432599" lon="15.5106231"><ele>611.3333333333334</ele><time>2026-04-27T08:51:33.387Z</time></trkpt><trkpt lat="44.5433388" lon="15.5106821"><ele>612.0</ele><time>2026-04-27T08:51:34.386Z</time></trkpt><trkpt lat="44.5434179" lon="15.5107402"><ele>612.0</ele><time>2026-04-27T08:51:35.386Z</time></trkpt><trkpt lat="44.5435107" lon="15.5107794"><ele>612.0</ele><time>2026-04-27T08:51:36.386Z</time></trkpt><trkpt lat="44.5435972" lon="15.5108253"><ele>612.0</ele><time>2026-04-27T08:51:37.386Z</time></trkpt><trkpt lat="44.5436785" lon="15.5108382"><ele>612.0</ele><time>2026-04-27T08:51:38.386Z</time></trkpt><trkpt lat="44.5437631" lon="15.5108642"><ele>612.0</ele><time>2026-04-27T08:51:39.386Z</time></trkpt><trkpt lat="44.5438546" lon="15.5108943"><ele>611.8000000000001</ele><time>2026-04-27T08:51:40.386Z</time></trkpt><trkpt lat="44.5439502" lon="15.5109295"><ele>611.6</ele><time>2026-04-27T08:51:41.387Z</time></trkpt><trkpt lat="44.5440394" lon="15.5109691"><ele>611.4000000000001</ele><time>2026-04-27T08:51:42.386Z</time></trkpt><trkpt lat="44.5441376" lon="15.511015"><ele>611.2</ele><time>2026-04-27T08:51:43.386Z</time></trkpt><trkpt lat="44.5442249" lon="15.5110674"><ele>611.0</ele><time>2026-04-27T08:51:44.387Z</time></trkpt><trkpt lat="44.544326" lon="15.5111117"><ele>611.0</ele><time>2026-04-27T08:51:45.387Z</time></trkpt><trkpt lat="44.5444101" lon="15.5111636"><ele>611.0</ele><time>2026-04-27T08:51:46.386Z</time></trkpt><trkpt lat="44.5444953" lon="15.5112068"><ele>611.0</ele><time>2026-04-27T08:51:47.386Z</time></trkpt><trkpt lat="44.54456" lon="15.5112473"><ele>611.0</ele><time>2026-04-27T08:51:48.386Z</time></trkpt><trkpt lat="44.5446288" lon="15.5113044"><ele>611.0</ele><time>2026-04-27T08:51:49.386Z</time></trkpt><trkpt lat="44.5446792" lon="15.5113648"><ele>611.0</ele><time>2026-04-27T08:51:50.387Z</time></trkpt><trkpt lat="44.5447239" lon="15.5115086"><ele>612.0</ele><time>2026-04-27T08:51:52.386Z</time></trkpt><trkpt lat="44.5446996" lon="15.5116429"><ele>613.0</ele><time>2026-04-27T08:51:54.386Z</time></trkpt><trkpt lat="44.5446758" lon="15.511734"><ele>614.0</ele><time>2026-04-27T08:51:55.387Z</time></trkpt><trkpt lat="44.5446822" lon="15.5118431"><ele>615.0</ele><time>2026-04-27T08:51:56.386Z</time></trkpt><trkpt lat="44.5446952" lon="15.5119512"><ele>616.0</ele><time>2026-04-27T08:51:57.387Z</time></trkpt><trkpt lat="44.5447429" lon="15.5120476"><ele>617.0</ele><time>2026-04-27T08:51:58.386Z</time></trkpt><trkpt lat="44.544798" lon="15.5121449"><ele>617.0</ele><time>2026-04-27T08:51:59.387Z</time></trkpt><trkpt lat="44.5448462" lon="15.5122307"><ele>617.0</ele><time>2026-04-27T08:52:00.386Z</time></trkpt><trkpt lat="44.5448982" lon="15.5123207"><ele>617.0</ele><time>2026-04-27T08:52:01.387Z</time></trkpt><trkpt lat="44.5449489" lon="15.5124108"><ele>617.0</ele><time>2026-04-27T08:52:02.386Z</time></trkpt><trkpt lat="44.5449843" lon="15.5124935"><ele>617.0</ele><time>2026-04-27T08:52:03.386Z</time></trkpt><trkpt lat="44.5449941" lon="15.5125878"><ele>617.0</ele><time>2026-04-27T08:52:04.386Z</time></trkpt><trkpt lat="44.5449807" lon="15.512693"><ele>617.0</ele><time>2026-04-27T08:52:05.386Z</time></trkpt><trkpt lat="44.5449722" lon="15.5127976"><ele>617.0</ele><time>2026-04-27T08:52:06.386Z</time></trkpt><trkpt lat="44.5449505" lon="15.5129178"><ele>617.0</ele><time>2026-04-27T08:52:07.386Z</time></trkpt><trkpt lat="44.5449443" lon="15.5130388"><ele>617.0</ele><time>2026-04-27T08:52:08.386Z</time></trkpt><trkpt lat="44.5449519" lon="15.5131718"><ele>617.0</ele><time>2026-04-27T08:52:09.387Z</time></trkpt><trkpt lat="44.5449634" lon="15.5133054"><ele>617.0</ele><time>2026-04-27T08:52:10.386Z</time></trkpt><trkpt lat="44.5449839" lon="15.5134416"><ele>617.4</ele><time>2026-04-27T08:52:11.386Z</time></trkpt><trkpt lat="44.5450184" lon="15.5135772"><ele>617.8000000000001</ele><time>2026-04-27T08:52:12.386Z</time></trkpt><trkpt lat="44.5450621" lon="15.5137159"><ele>618.2</ele><time>2026-04-27T08:52:13.387Z</time></trkpt><trkpt lat="44.5451111" lon="15.5138536"><ele>618.6</ele><time>2026-04-27T08:52:14.386Z</time></trkpt><trkpt lat="44.5451568" lon="15.5139959"><ele>619.0</ele><time>2026-04-27T08:52:15.387Z</time></trkpt><trkpt lat="44.5451968" lon="15.5141384"><ele>619.3333333333334</ele><time>2026-04-27T08:52:16.387Z</time></trkpt><trkpt lat="44.5452271" lon="15.5142797"><ele>619.6666666666667</ele><time>2026-04-27T08:52:17.386Z</time></trkpt><trkpt lat="44.5452524" lon="15.5144136"><ele>620.0</ele><time>2026-04-27T08:52:18.387Z</time></trkpt><trkpt lat="44.5452747" lon="15.5145331"><ele>620.3333333333334</ele><time>2026-04-27T08:52:19.386Z</time></trkpt><trkpt lat="44.5452997" lon="15.5146419"><ele>620.6666666666666</ele><time>2026-04-27T08:52:20.386Z</time></trkpt><trkpt lat="44.5453202" lon="15.51474"><ele>621.0</ele><time>2026-04-27T08:52:21.386Z</time></trkpt><trkpt lat="44.5453425" lon="15.514835"><ele>621.0</ele><time>2026-04-27T08:52:22.387Z</time></trkpt><trkpt lat="44.5453668" lon="15.5149477"><ele>621.0</ele><time>2026-04-27T08:52:23.386Z</time></trkpt><trkpt lat="44.5453766" lon="15.5150565"><ele>621.0</ele><time>2026-04-27T08:52:24.387Z</time></trkpt><trkpt lat="44.5454099" lon="15.5151664"><ele>621.0</ele><time>2026-04-27T08:52:25.387Z</time></trkpt><trkpt lat="44.5454746" lon="15.5152846"><ele>621.0</ele><time>2026-04-27T08:52:27.386Z</time></trkpt><trkpt lat="44.5455389" lon="15.515391"><ele>621.5</ele><time>2026-04-27T08:52:29.387Z</time></trkpt><trkpt lat="44.5455747" lon="15.5154666"><ele>622.0</ele><time>2026-04-27T08:52:30.386Z</time></trkpt><trkpt lat="44.5456177" lon="15.5155562"><ele>622.5</ele><time>2026-04-27T08:52:31.386Z</time></trkpt><trkpt lat="44.5456567" lon="15.515658"><ele>623.0</ele><time>2026-04-27T08:52:32.386Z</time></trkpt><trkpt lat="44.5457041" lon="15.5157775"><ele>623.5</ele><time>2026-04-27T08:52:33.386Z</time></trkpt><trkpt lat="44.5457424" lon="15.5159169"><ele>624.0</ele><time>2026-04-27T08:52:34.387Z</time></trkpt><trkpt lat="44.5457867" lon="15.5160626"><ele>624.0</ele><time>2026-04-27T08:52:35.386Z</time></trkpt><trkpt lat="44.5458215" lon="15.5161864"><ele>624.0</ele><time>2026-04-27T08:52:36.386Z</time></trkpt><trkpt lat="44.5458448" lon="15.5163027"><ele>624.0</ele><time>2026-04-27T08:52:37.386Z</time></trkpt><trkpt lat="44.5458637" lon="15.5164121"><ele>624.0</ele><time>2026-04-27T08:52:38.386Z</time></trkpt><trkpt lat="44.5458307" lon="15.5165031"><ele>624.0</ele><time>2026-04-27T08:52:39.386Z</time></trkpt><trkpt lat="44.5457698" lon="15.5166665"><ele>624.2857142857143</ele><time>2026-04-27T08:52:41.386Z</time></trkpt><trkpt lat="44.545724" lon="15.5167653"><ele>624.5714285714286</ele><time>2026-04-27T08:52:42.387Z</time></trkpt><trkpt lat="44.5456922" lon="15.5168691"><ele>624.8571428571429</ele><time>2026-04-27T08:52:43.387Z</time></trkpt><trkpt lat="44.5456769" lon="15.5169679"><ele>625.1428571428571</ele><time>2026-04-27T08:52:44.386Z</time></trkpt><trkpt lat="44.5456801" lon="15.5170606"><ele>625.4285714285714</ele><time>2026-04-27T08:52:45.387Z</time></trkpt><trkpt lat="44.5457088" lon="15.5171452"><ele>625.7142857142857</ele><time>2026-04-27T08:52:46.387Z</time></trkpt><trkpt lat="44.5457656" lon="15.5172208"><ele>626.0</ele><time>2026-04-27T08:52:47.386Z</time></trkpt><trkpt lat="44.5458198" lon="15.5172846"><ele>626.4</ele><time>2026-04-27T08:52:48.386Z</time></trkpt><trkpt lat="44.5458981" lon="15.5173434"><ele>626.8</ele><time>2026-04-27T08:52:49.386Z</time></trkpt><trkpt lat="44.5459931" lon="15.5174064"><ele>627.1999999999999</ele><time>2026-04-27T08:52:50.386Z</time></trkpt><trkpt lat="44.5460721" lon="15.5174801"><ele>627.6</ele><time>2026-04-27T08:52:51.387Z</time></trkpt><trkpt lat="44.5461452" lon="15.5175729"><ele>628.0</ele><time>2026-04-27T08:52:52.386Z</time></trkpt><trkpt lat="44.5462133" lon="15.5176579"><ele>629.0</ele><time>2026-04-27T08:52:53.386Z</time></trkpt><trkpt lat="44.5462736" lon="15.5177494"><ele>630.0</ele><time>2026-04-27T08:52:54.386Z</time></trkpt><trkpt lat="44.5463255" lon="15.5178478"><ele>631.0</ele><time>2026-04-27T08:52:55.387Z</time></trkpt><trkpt lat="44.5463754" lon="15.5179535"><ele>632.0</ele><time>2026-04-27T08:52:56.386Z</time></trkpt><trkpt lat="44.5464195" lon="15.5180709"><ele>633.0</ele><time>2026-04-27T08:52:57.386Z</time></trkpt><trkpt lat="44.5464582" lon="15.5181907"><ele>633.0</ele><time>2026-04-27T08:52:58.386Z</time></trkpt><trkpt lat="44.5464998" lon="15.5182916"><ele>633.0</ele><time>2026-04-27T08:52:59.386Z</time></trkpt><trkpt lat="44.5465323" lon="15.5183937"><ele>633.0</ele><time>2026-04-27T08:53:00.387Z</time></trkpt><trkpt lat="44.5465419" lon="15.5184969"><ele>633.0</ele><time>2026-04-27T08:53:01.386Z</time></trkpt><trkpt lat="44.5465415" lon="15.5186058"><ele>633.0</ele><time>2026-04-27T08:53:02.386Z</time></trkpt><trkpt lat="44.5465273" lon="15.5187597"><ele>633.0</ele><time>2026-04-27T08:53:03.387Z</time></trkpt><trkpt lat="44.5465214" lon="15.5189053"><ele>633.6</ele><time>2026-04-27T08:53:04.386Z</time></trkpt><trkpt lat="44.5465149" lon="15.5190516"><ele>634.1999999999999</ele><time>2026-04-27T08:53:05.386Z</time></trkpt><trkpt lat="44.5465108" lon="15.5191758"><ele>634.8</ele><time>2026-04-27T08:53:06.387Z</time></trkpt><trkpt lat="44.5465104" lon="15.519282"><ele>635.4</ele><time>2026-04-27T08:53:07.387Z</time></trkpt><trkpt lat="44.5465229" lon="15.5193879"><ele>636.0</ele><time>2026-04-27T08:53:08.386Z</time></trkpt><trkpt lat="44.5465747" lon="15.5195394"><ele>636.1666666666666</ele><time>2026-04-27T08:53:10.387Z</time></trkpt><trkpt lat="44.5466261" lon="15.5196213"><ele>636.3333333333334</ele><time>2026-04-27T08:53:11.386Z</time></trkpt><trkpt lat="44.5466843" lon="15.5196933"><ele>636.5</ele><time>2026-04-27T08:53:12.386Z</time></trkpt><trkpt lat="44.5467587" lon="15.5197836"><ele>636.6666666666667</ele><time>2026-04-27T08:53:13.386Z</time></trkpt><trkpt lat="44.5468148" lon="15.519869"><ele>636.8333333333334</ele><time>2026-04-27T08:53:14.387Z</time></trkpt><trkpt lat="44.5468597" lon="15.5199634"><ele>637.0</ele><time>2026-04-27T08:53:15.386Z</time></trkpt><trkpt lat="44.5469101" lon="15.5200753"><ele>637.0</ele><time>2026-04-27T08:53:16.386Z</time></trkpt><trkpt lat="44.5469416" lon="15.5201767"><ele>637.0</ele><time>2026-04-27T08:53:17.386Z</time></trkpt><trkpt lat="44.546989" lon="15.5202721"><ele>637.0</ele><time>2026-04-27T08:53:18.386Z</time></trkpt><trkpt lat="44.5470381" lon="15.5203424"><ele>637.0</ele><time>2026-04-27T08:53:19.386Z</time></trkpt><trkpt lat="44.5471353" lon="15.5203927"><ele>637.0</ele><time>2026-04-27T08:53:21.386Z</time></trkpt><trkpt lat="44.5471983" lon="15.5203246"><ele>637.0</ele><time>2026-04-27T08:53:23.387Z</time></trkpt><trkpt lat="44.5472013" lon="15.5201879"><ele>639.0</ele><time>2026-04-27T08:53:25.387Z</time></trkpt><trkpt lat="44.5472142" lon="15.5200172"><ele>641.0</ele><time>2026-04-27T08:53:27.386Z</time></trkpt><trkpt lat="44.5472524" lon="15.5199248"><ele>643.0</ele><time>2026-04-27T08:53:28.386Z</time></trkpt><trkpt lat="44.5472798" lon="15.519818"><ele>645.0</ele><time>2026-04-27T08:53:29.386Z</time></trkpt><trkpt lat="44.5472987" lon="15.5197185"><ele>647.0</ele><time>2026-04-27T08:53:30.387Z</time></trkpt><trkpt lat="44.5473086" lon="15.5196204"><ele>649.0</ele><time>2026-04-27T08:53:31.386Z</time></trkpt><trkpt lat="44.547292" lon="15.5194504"><ele>649.0</ele><time>2026-04-27T08:53:33.386Z</time></trkpt><trkpt lat="44.5472971" lon="15.5193603"><ele>649.0</ele><time>2026-04-27T08:53:34.387Z</time></trkpt><trkpt lat="44.5473428" lon="15.5192753"><ele>649.0</ele><time>2026-04-27T08:53:36.386Z</time></trkpt><trkpt lat="44.5474374" lon="15.5193016"><ele>649.0</ele><time>2026-04-27T08:53:38.386Z</time></trkpt><trkpt lat="44.5474995" lon="15.5194298"><ele>649.0</ele><time>2026-04-27T08:53:40.386Z</time></trkpt><trkpt lat="44.5475736" lon="15.5196138"><ele>649.0</ele><time>2026-04-27T08:53:42.386Z</time></trkpt><trkpt lat="44.5476089" lon="15.5197164"><ele>649.0</ele><time>2026-04-27T08:53:43.386Z</time></trkpt><trkpt lat="44.5476458" lon="15.519834"><ele>649.0</ele><time>2026-04-27T08:53:44.387Z</time></trkpt><trkpt lat="44.5476839" lon="15.5199414"><ele>649.0</ele><time>2026-04-27T08:53:45.387Z</time></trkpt><trkpt lat="44.5477163" lon="15.5200499"><ele>649.0</ele><time>2026-04-27T08:53:46.386Z</time></trkpt><trkpt lat="44.5477454" lon="15.5201655"><ele>649.0</ele><time>2026-04-27T08:53:47.386Z</time></trkpt><trkpt lat="44.5477736" lon="15.5202903"><ele>649.1666666666667</ele><time>2026-04-27T08:53:48.386Z</time></trkpt><trkpt lat="44.5477988" lon="15.5204128"><ele>649.3333333333334</ele><time>2026-04-27T08:53:49.386Z</time></trkpt><trkpt lat="44.5478205" lon="15.5205348"><ele>649.5</ele><time>2026-04-27T08:53:50.387Z</time></trkpt><trkpt lat="44.5478495" lon="15.5206635"><ele>649.6666666666666</ele><time>2026-04-27T08:53:51.387Z</time></trkpt><trkpt lat="44.5478643" lon="15.5207734"><ele>649.8333333333333</ele><time>2026-04-27T08:53:52.387Z</time></trkpt><trkpt lat="44.5478778" lon="15.5208968"><ele>650.0</ele><time>2026-04-27T08:53:53.386Z</time></trkpt><trkpt lat="44.5478912" lon="15.5210021"><ele>652.0</ele><time>2026-04-27T08:53:54.386Z</time></trkpt><trkpt lat="44.5479067" lon="15.5211078"><ele>654.0</ele><time>2026-04-27T08:53:55.386Z</time></trkpt><trkpt lat="44.5479205" lon="15.5212139"><ele>656.0</ele><time>2026-04-27T08:53:56.386Z</time></trkpt><trkpt lat="44.5479495" lon="15.5213123"><ele>658.0</ele><time>2026-04-27T08:53:57.386Z</time></trkpt><trkpt lat="44.547994" lon="15.5214194"><ele>660.0</ele><time>2026-04-27T08:53:58.386Z</time></trkpt><trkpt lat="44.5480484" lon="15.5215308"><ele>662.0</ele><time>2026-04-27T08:53:59.386Z</time></trkpt><trkpt lat="44.5480971" lon="15.5216391"><ele>662.0</ele><time>2026-04-27T08:54:00.386Z</time></trkpt><trkpt lat="44.5481354" lon="15.5217507"><ele>662.0</ele><time>2026-04-27T08:54:01.386Z</time></trkpt><trkpt lat="44.5481732" lon="15.5218593"><ele>662.0</ele><time>2026-04-27T08:54:02.386Z</time></trkpt><trkpt lat="44.5482087" lon="15.5219451"><ele>662.0</ele><time>2026-04-27T08:54:03.386Z</time></trkpt><trkpt lat="44.5482471" lon="15.5220225"><ele>662.0</ele><time>2026-04-27T08:54:04.386Z</time></trkpt><trkpt lat="44.548287" lon="15.5221001"><ele>662.0</ele><time>2026-04-27T08:54:05.386Z</time></trkpt><trkpt lat="44.5483569" lon="15.5221524"><ele>661.5</ele><time>2026-04-27T08:54:06.386Z</time></trkpt><trkpt lat="44.5484185" lon="15.5222096"><ele>661.0</ele><time>2026-04-27T08:54:07.386Z</time></trkpt><trkpt lat="44.5484919" lon="15.5222547"><ele>660.5</ele><time>2026-04-27T08:54:08.386Z</time></trkpt><trkpt lat="44.5485721" lon="15.5223089"><ele>660.0</ele><time>2026-04-27T08:54:09.386Z</time></trkpt><trkpt lat="44.5486539" lon="15.5223602"><ele>659.5</ele><time>2026-04-27T08:54:10.386Z</time></trkpt><trkpt lat="44.5487276" lon="15.5224032"><ele>659.0</ele><time>2026-04-27T08:54:11.387Z</time></trkpt><trkpt lat="44.548802" lon="15.5224364"><ele>660.8000000000001</ele><time>2026-04-27T08:54:12.386Z</time></trkpt><trkpt lat="44.5488828" lon="15.5224713"><ele>662.6</ele><time>2026-04-27T08:54:13.386Z</time></trkpt><trkpt lat="44.548969" lon="15.5225035"><ele>664.4</ele><time>2026-04-27T08:54:14.386Z</time></trkpt><trkpt lat="44.5490647" lon="15.5225332"><ele>666.2</ele><time>2026-04-27T08:54:15.386Z</time></trkpt><trkpt lat="44.5491605" lon="15.5225574"><ele>668.0</ele><time>2026-04-27T08:54:16.386Z</time></trkpt><trkpt lat="44.5492578" lon="15.5225782"><ele>668.0</ele><time>2026-04-27T08:54:17.386Z</time></trkpt><trkpt lat="44.5493497" lon="15.5226"><ele>668.0</ele><time>2026-04-27T08:54:18.386Z</time></trkpt><trkpt lat="44.5494423" lon="15.5226131"><ele>668.0</ele><time>2026-04-27T08:54:19.386Z</time></trkpt><trkpt lat="44.5495325" lon="15.5226285"><ele>668.0</ele><time>2026-04-27T08:54:20.386Z</time></trkpt><trkpt lat="44.5496217" lon="15.5226462"><ele>668.0</ele><time>2026-04-27T08:54:21.386Z</time></trkpt><trkpt lat="44.5497146" lon="15.5226599"><ele>668.2</ele><time>2026-04-27T08:54:22.386Z</time></trkpt><trkpt lat="44.5498095" lon="15.5226816"><ele>668.4</ele><time>2026-04-27T08:54:23.387Z</time></trkpt><trkpt lat="44.5499051" lon="15.5227193"><ele>668.6</ele><time>2026-04-27T08:54:24.386Z</time></trkpt><trkpt lat="44.549995" lon="15.5227684"><ele>668.8000000000001</ele><time>2026-04-27T08:54:25.386Z</time></trkpt><trkpt lat="44.5500877" lon="15.5228429"><ele>669.0</ele><time>2026-04-27T08:54:26.386Z</time></trkpt><trkpt lat="44.5501857" lon="15.5229021"><ele>669.0</ele><time>2026-04-27T08:54:27.387Z</time></trkpt><trkpt lat="44.5502949" lon="15.5229564"><ele>669.0</ele><time>2026-04-27T08:54:28.387Z</time></trkpt><trkpt lat="44.5504068" lon="15.5230226"><ele>669.0</ele><time>2026-04-27T08:54:29.386Z</time></trkpt><trkpt lat="44.5505128" lon="15.5230876"><ele>669.0</ele><time>2026-04-27T08:54:30.386Z</time></trkpt><trkpt lat="44.5506005" lon="15.5231371"><ele>669.0</ele><time>2026-04-27T08:54:31.386Z</time></trkpt><trkpt lat="44.5506917" lon="15.5231898"><ele>669.5</ele><time>2026-04-27T08:54:32.386Z</time></trkpt><trkpt lat="44.5507759" lon="15.5232364"><ele>670.0</ele><time>2026-04-27T08:54:33.387Z</time></trkpt><trkpt lat="44.5508547" lon="15.5232773"><ele>670.5</ele><time>2026-04-27T08:54:34.386Z</time></trkpt><trkpt lat="44.5509381" lon="15.5232977"><ele>671.0</ele><time>2026-04-27T08:54:35.386Z</time></trkpt><trkpt lat="44.5510227" lon="15.5233011"><ele>671.5</ele><time>2026-04-27T08:54:36.386Z</time></trkpt><trkpt lat="44.5511111" lon="15.5232997"><ele>672.0</ele><time>2026-04-27T08:54:37.386Z</time></trkpt><trkpt lat="44.5511925" lon="15.5232848"><ele>672.1666666666666</ele><time>2026-04-27T08:54:38.386Z</time></trkpt><trkpt lat="44.5512844" lon="15.5232601"><ele>672.3333333333334</ele><time>2026-04-27T08:54:39.386Z</time></trkpt><trkpt lat="44.5513791" lon="15.5232366"><ele>672.5</ele><time>2026-04-27T08:54:40.386Z</time></trkpt><trkpt lat="44.5514645" lon="15.5232134"><ele>672.6666666666667</ele><time>2026-04-27T08:54:41.387Z</time></trkpt><trkpt lat="44.5515425" lon="15.5232058"><ele>672.8333333333334</ele><time>2026-04-27T08:54:42.386Z</time></trkpt><trkpt lat="44.5516127" lon="15.523189"><ele>673.0</ele><time>2026-04-27T08:54:43.386Z</time></trkpt><trkpt lat="44.5516893" lon="15.5232095"><ele>673.0</ele><time>2026-04-27T08:54:44.386Z</time></trkpt><trkpt lat="44.5517662" lon="15.5232549"><ele>673.0</ele><time>2026-04-27T08:54:45.386Z</time></trkpt><trkpt lat="44.5518386" lon="15.523301"><ele>673.0</ele><time>2026-04-27T08:54:46.386Z</time></trkpt><trkpt lat="44.5519086" lon="15.5233993"><ele>673.0</ele><time>2026-04-27T08:54:47.386Z</time></trkpt><trkpt lat="44.5519845" lon="15.5234871"><ele>673.0</ele><time>2026-04-27T08:54:48.386Z</time></trkpt><trkpt lat="44.5520569" lon="15.5235826"><ele>672.6666666666667</ele><time>2026-04-27T08:54:49.387Z</time></trkpt><trkpt lat="44.5521307" lon="15.5236667"><ele>672.3333333333334</ele><time>2026-04-27T08:54:50.386Z</time></trkpt><trkpt lat="44.5522082" lon="15.5237255"><ele>672.0</ele><time>2026-04-27T08:54:51.386Z</time></trkpt><trkpt lat="44.5522823" lon="15.5237815"><ele>671.6666666666666</ele><time>2026-04-27T08:54:52.386Z</time></trkpt><trkpt lat="44.5523574" lon="15.5238344"><ele>671.3333333333333</ele><time>2026-04-27T08:54:53.386Z</time></trkpt><trkpt lat="44.5524299" lon="15.5238728"><ele>671.0</ele><time>2026-04-27T08:54:54.386Z</time></trkpt><trkpt lat="44.5525057" lon="15.5238777"><ele>671.0</ele><time>2026-04-27T08:54:55.386Z</time></trkpt><trkpt lat="44.5525869" lon="15.5238831"><ele>671.0</ele><time>2026-04-27T08:54:56.386Z</time></trkpt><trkpt lat="44.5526886" lon="15.5238934"><ele>671.0</ele><time>2026-04-27T08:54:57.386Z</time></trkpt><trkpt lat="44.5527658" lon="15.5239171"><ele>671.0</ele><time>2026-04-27T08:54:58.386Z</time></trkpt><trkpt lat="44.5528402" lon="15.5239261"><ele>671.0</ele><time>2026-04-27T08:54:59.387Z</time></trkpt><trkpt lat="44.5529604" lon="15.5239126"><ele>671.8333333333333</ele><time>2026-04-27T08:55:01.386Z</time></trkpt><trkpt lat="44.5530135" lon="15.5238647"><ele>672.6666666666666</ele><time>2026-04-27T08:55:02.386Z</time></trkpt><trkpt lat="44.5530804" lon="15.5238206"><ele>673.5</ele><time>2026-04-27T08:55:03.386Z</time></trkpt><trkpt lat="44.5531538" lon="15.5237643"><ele>674.3333333333334</ele><time>2026-04-27T08:55:04.387Z</time></trkpt><trkpt lat="44.5532185" lon="15.5237482"><ele>675.1666666666667</ele><time>2026-04-27T08:55:05.386Z</time></trkpt><trkpt lat="44.5532948" lon="15.5237419"><ele>676.0</ele><time>2026-04-27T08:55:06.386Z</time></trkpt><trkpt lat="44.5534355" lon="15.5237717"><ele>676.0</ele><time>2026-04-27T08:55:08.387Z</time></trkpt><trkpt lat="44.5535184" lon="15.5237902"><ele>676.0</ele><time>2026-04-27T08:55:09.386Z</time></trkpt><trkpt lat="44.5535952" lon="15.5237989"><ele>676.0</ele><time>2026-04-27T08:55:10.386Z</time></trkpt><trkpt lat="44.5536604" lon="15.5238157"><ele>676.0</ele><time>2026-04-27T08:55:11.386Z</time></trkpt><trkpt lat="44.5537248" lon="15.5238392"><ele>676.0</ele><time>2026-04-27T08:55:12.386Z</time></trkpt><trkpt lat="44.5537875" lon="15.5239636"><ele>676.0</ele><time>2026-04-27T08:55:14.386Z</time></trkpt><trkpt lat="44.5537916" lon="15.5240602"><ele>677.8</ele><time>2026-04-27T08:55:15.386Z</time></trkpt><trkpt lat="44.5538127" lon="15.5242419"><ele>679.5999999999999</ele><time>2026-04-27T08:55:17.386Z</time></trkpt><trkpt lat="44.5538328" lon="15.5243409"><ele>681.4</ele><time>2026-04-27T08:55:18.386Z</time></trkpt><trkpt lat="44.5539096" lon="15.5244948"><ele>683.2</ele><time>2026-04-27T08:55:20.386Z</time></trkpt><trkpt lat="44.5539577" lon="15.5245732"><ele>685.0</ele><time>2026-04-27T08:55:21.387Z</time></trkpt><trkpt lat="44.5540044" lon="15.5246402"><ele>685.3333333333334</ele><time>2026-04-27T08:55:22.386Z</time></trkpt><trkpt lat="44.5540594" lon="15.5247262"><ele>685.6666666666667</ele><time>2026-04-27T08:55:23.387Z</time></trkpt><trkpt lat="44.5541165" lon="15.5248137"><ele>686.0</ele><time>2026-04-27T08:55:24.386Z</time></trkpt><trkpt lat="44.5541752" lon="15.5249166"><ele>686.3333333333334</ele><time>2026-04-27T08:55:25.386Z</time></trkpt><trkpt lat="44.5542304" lon="15.5249929"><ele>686.6666666666666</ele><time>2026-04-27T08:55:26.387Z</time></trkpt><trkpt lat="44.5542973" lon="15.5250885"><ele>687.0</ele><time>2026-04-27T08:55:27.386Z</time></trkpt><trkpt lat="44.5543468" lon="15.5251813"><ele>687.0</ele><time>2026-04-27T08:55:28.386Z</time></trkpt><trkpt lat="44.5543799" lon="15.5252725"><ele>687.0</ele><time>2026-04-27T08:55:29.386Z</time></trkpt><trkpt lat="44.5543992" lon="15.5253603"><ele>687.0</ele><time>2026-04-27T08:55:30.387Z</time></trkpt><trkpt lat="44.5544096" lon="15.5254613"><ele>687.0</ele><time>2026-04-27T08:55:31.386Z</time></trkpt><trkpt lat="44.5544118" lon="15.5255537"><ele>687.0</ele><time>2026-04-27T08:55:32.386Z</time></trkpt><trkpt lat="44.5543983" lon="15.525668"><ele>687.0</ele><time>2026-04-27T08:55:33.386Z</time></trkpt><trkpt lat="44.5543895" lon="15.5257735"><ele>687.0</ele><time>2026-04-27T08:55:34.386Z</time></trkpt><trkpt lat="44.554411" lon="15.5258993"><ele>686.8</ele><time>2026-04-27T08:55:35.386Z</time></trkpt><trkpt lat="44.5544202" lon="15.5260234"><ele>686.6</ele><time>2026-04-27T08:55:36.386Z</time></trkpt><trkpt lat="44.5544463" lon="15.5261526"><ele>686.4</ele><time>2026-04-27T08:55:37.386Z</time></trkpt><trkpt lat="44.5544717" lon="15.5262765"><ele>686.1999999999999</ele><time>2026-04-27T08:55:38.387Z</time></trkpt><trkpt lat="44.5544974" lon="15.526403"><ele>686.0</ele><time>2026-04-27T08:55:39.386Z</time></trkpt><trkpt lat="44.5545204" lon="15.5265147"><ele>685.8</ele><time>2026-04-27T08:55:40.386Z</time></trkpt><trkpt lat="44.5545293" lon="15.5266447"><ele>685.5999999999999</ele><time>2026-04-27T08:55:41.387Z</time></trkpt><trkpt lat="44.5545401" lon="15.526782"><ele>685.4</ele><time>2026-04-27T08:55:42.386Z</time></trkpt><trkpt lat="44.5545382" lon="15.5269127"><ele>685.2</ele><time>2026-04-27T08:55:43.386Z</time></trkpt><trkpt lat="44.5545463" lon="15.5270317"><ele>685.0</ele><time>2026-04-27T08:55:44.386Z</time></trkpt><trkpt lat="44.5545627" lon="15.5271469"><ele>686.1666666666667</ele><time>2026-04-27T08:55:45.386Z</time></trkpt><trkpt lat="44.5545959" lon="15.5272659"><ele>687.3333333333334</ele><time>2026-04-27T08:55:46.387Z</time></trkpt><trkpt lat="44.5546056" lon="15.5273833"><ele>688.5</ele><time>2026-04-27T08:55:47.386Z</time></trkpt><trkpt lat="44.5546056" lon="15.5275018"><ele>689.6666666666666</ele><time>2026-04-27T08:55:48.386Z</time></trkpt><trkpt lat="44.554591" lon="15.5276216"><ele>690.8333333333333</ele><time>2026-04-27T08:55:49.386Z</time></trkpt><trkpt lat="44.5545584" lon="15.5277571"><ele>692.0</ele><time>2026-04-27T08:55:50.386Z</time></trkpt><trkpt lat="44.554532" lon="15.5278966"><ele>692.0</ele><time>2026-04-27T08:55:51.386Z</time></trkpt><trkpt lat="44.5545133" lon="15.5280386"><ele>692.0</ele><time>2026-04-27T08:55:52.386Z</time></trkpt><trkpt lat="44.5544926" lon="15.52818"><ele>692.0</ele><time>2026-04-27T08:55:53.386Z</time></trkpt><trkpt lat="44.554481" lon="15.5283139"><ele>692.0</ele><time>2026-04-27T08:55:54.387Z</time></trkpt><trkpt lat="44.554471" lon="15.5284446"><ele>692.0</ele><time>2026-04-27T08:55:55.387Z</time></trkpt><trkpt lat="44.5544752" lon="15.5285623"><ele>692.0</ele><time>2026-04-27T08:55:56.386Z</time></trkpt><trkpt lat="44.5544887" lon="15.5286753"><ele>692.0</ele><time>2026-04-27T08:55:57.386Z</time></trkpt><trkpt lat="44.5545102" lon="15.5287642"><ele>692.0</ele><time>2026-04-27T08:55:58.386Z</time></trkpt><trkpt lat="44.5545692" lon="15.5289251"><ele>692.0</ele><time>2026-04-27T08:56:00.387Z</time></trkpt><trkpt lat="44.5546138" lon="15.5290185"><ele>692.0</ele><time>2026-04-27T08:56:01.386Z</time></trkpt><trkpt lat="44.5546201" lon="15.5291362"><ele>692.0</ele><time>2026-04-27T08:56:02.386Z</time></trkpt><trkpt lat="44.5546354" lon="15.5292461"><ele>696.2</ele><time>2026-04-27T08:56:03.386Z</time></trkpt><trkpt lat="44.5546749" lon="15.5293774"><ele>700.4000000000001</ele><time>2026-04-27T08:56:04.386Z</time></trkpt><trkpt lat="44.554702" lon="15.5295291"><ele>704.5999999999999</ele><time>2026-04-27T08:56:05.386Z</time></trkpt><trkpt lat="44.5547319" lon="15.5296472"><ele>708.8</ele><time>2026-04-27T08:56:06.387Z</time></trkpt><trkpt lat="44.5547539" lon="15.5297644"><ele>713.0</ele><time>2026-04-27T08:56:07.387Z</time></trkpt><trkpt lat="44.5547721" lon="15.529881"><ele>713.3333333333333</ele><time>2026-04-27T08:56:08.386Z</time></trkpt><trkpt lat="44.5548215" lon="15.5300539"><ele>713.6666666666666</ele><time>2026-04-27T08:56:10.386Z</time></trkpt><trkpt lat="44.5548652" lon="15.5301576"><ele>714.0</ele><time>2026-04-27T08:56:11.386Z</time></trkpt><trkpt lat="44.5549015" lon="15.5302611"><ele>714.3333333333334</ele><time>2026-04-27T08:56:12.386Z</time></trkpt><trkpt lat="44.5549365" lon="15.5303444"><ele>714.6666666666667</ele><time>2026-04-27T08:56:13.386Z</time></trkpt><trkpt lat="44.5549653" lon="15.5304306"><ele>715.0</ele><time>2026-04-27T08:56:14.386Z</time></trkpt><trkpt lat="44.5549857" lon="15.5305762"><ele>715.1666666666667</ele><time>2026-04-27T08:56:16.387Z</time></trkpt><trkpt lat="44.5549466" lon="15.5306497"><ele>715.3333333333334</ele><time>2026-04-27T08:56:17.386Z</time></trkpt><trkpt lat="44.5548699" lon="15.5307196"><ele>715.5</ele><time>2026-04-27T08:56:19.386Z</time></trkpt><trkpt lat="44.5548084" lon="15.5306893"><ele>715.6666666666666</ele><time>2026-04-27T08:56:20.387Z</time></trkpt><trkpt lat="44.5546962" lon="15.530629"><ele>715.8333333333333</ele><time>2026-04-27T08:56:22.386Z</time></trkpt><trkpt lat="44.5545914" lon="15.5306573"><ele>716.0</ele><time>2026-04-27T08:56:24.387Z</time></trkpt><trkpt lat="44.5545143" lon="15.5307835"><ele>714.6666666666666</ele><time>2026-04-27T08:56:26.386Z</time></trkpt><trkpt lat="44.5544935" lon="15.5308703"><ele>713.3333333333333</ele><time>2026-04-27T08:56:27.386Z</time></trkpt><trkpt lat="44.5544662" lon="15.530971"><ele>712.0</ele><time>2026-04-27T08:56:28.386Z</time></trkpt><trkpt lat="44.5544447" lon="15.53109"><ele>710.6666666666666</ele><time>2026-04-27T08:56:29.386Z</time></trkpt><trkpt lat="44.5544402" lon="15.5312118"><ele>709.3333333333334</ele><time>2026-04-27T08:56:30.387Z</time></trkpt><trkpt lat="44.5544535" lon="15.5313363"><ele>708.0</ele><time>2026-04-27T08:56:31.386Z</time></trkpt><trkpt lat="44.5544819" lon="15.5314574"><ele>708.0</ele><time>2026-04-27T08:56:32.386Z</time></trkpt><trkpt lat="44.5545001" lon="15.5315812"><ele>708.0</ele><time>2026-04-27T08:56:33.386Z</time></trkpt><trkpt lat="44.5545183" lon="15.5317144"><ele>708.0</ele><time>2026-04-27T08:56:34.386Z</time></trkpt><trkpt lat="44.554525" lon="15.5318455"><ele>708.0</ele><time>2026-04-27T08:56:35.386Z</time></trkpt><trkpt lat="44.5545228" lon="15.5319816"><ele>708.0</ele><time>2026-04-27T08:56:36.386Z</time></trkpt><trkpt lat="44.554511" lon="15.5321076"><ele>708.6666666666666</ele><time>2026-04-27T08:56:37.386Z</time></trkpt><trkpt lat="44.5544992" lon="15.5322267"><ele>709.3333333333334</ele><time>2026-04-27T08:56:38.386Z</time></trkpt><trkpt lat="44.5544945" lon="15.5323483"><ele>710.0</ele><time>2026-04-27T08:56:39.386Z</time></trkpt><trkpt lat="44.5544998" lon="15.5324594"><ele>710.6666666666667</ele><time>2026-04-27T08:56:40.387Z</time></trkpt><trkpt lat="44.5545109" lon="15.532575"><ele>711.3333333333334</ele><time>2026-04-27T08:56:41.386Z</time></trkpt><trkpt lat="44.5545174" lon="15.532695"><ele>712.0</ele><time>2026-04-27T08:56:42.386Z</time></trkpt><trkpt lat="44.554514" lon="15.5328177"><ele>712.6</ele><time>2026-04-27T08:56:43.386Z</time></trkpt><trkpt lat="44.554514" lon="15.5329442"><ele>713.2</ele><time>2026-04-27T08:56:44.386Z</time></trkpt><trkpt lat="44.5545292" lon="15.5330744"><ele>713.8</ele><time>2026-04-27T08:56:45.386Z</time></trkpt><trkpt lat="44.5545614" lon="15.5332048"><ele>714.4</ele><time>2026-04-27T08:56:46.386Z</time></trkpt><trkpt lat="44.5545957" lon="15.5333253"><ele>715.0</ele><time>2026-04-27T08:56:47.386Z</time></trkpt><trkpt lat="44.5546223" lon="15.5334491"><ele>718.0</ele><time>2026-04-27T08:56:48.386Z</time></trkpt><trkpt lat="44.5546352" lon="15.5335631"><ele>721.0</ele><time>2026-04-27T08:56:49.386Z</time></trkpt><trkpt lat="44.5546324" lon="15.5336716"><ele>724.0</ele><time>2026-04-27T08:56:50.386Z</time></trkpt><trkpt lat="44.5546139" lon="15.5337883"><ele>727.0</ele><time>2026-04-27T08:56:51.386Z</time></trkpt><trkpt lat="44.5545973" lon="15.5339165"><ele>730.0</ele><time>2026-04-27T08:56:52.386Z</time></trkpt><trkpt lat="44.5545986" lon="15.5340533"><ele>733.0</ele><time>2026-04-27T08:56:53.386Z</time></trkpt><trkpt lat="44.5546057" lon="15.5341983"><ele>733.25</ele><time>2026-04-27T08:56:54.386Z</time></trkpt><trkpt lat="44.5546263" lon="15.5343667"><ele>733.5</ele><time>2026-04-27T08:56:55.386Z</time></trkpt><trkpt lat="44.5546393" lon="15.5345224"><ele>733.75</ele><time>2026-04-27T08:56:56.386Z</time></trkpt><trkpt lat="44.5546562" lon="15.5346947"><ele>734.0</ele><time>2026-04-27T08:56:57.386Z</time></trkpt><trkpt lat="44.5546705" lon="15.5348526"><ele>734.0</ele><time>2026-04-27T08:56:58.386Z</time></trkpt><trkpt lat="44.5546659" lon="15.5349874"><ele>734.0</ele><time>2026-04-27T08:56:59.386Z</time></trkpt><trkpt lat="44.5546534" lon="15.5351207"><ele>734.0</ele><time>2026-04-27T08:57:00.386Z</time></trkpt><trkpt lat="44.5546465" lon="15.5352416"><ele>734.0</ele><time>2026-04-27T08:57:01.387Z</time></trkpt><trkpt lat="44.5546347" lon="15.5353509"><ele>734.0</ele><time>2026-04-27T08:57:02.386Z</time></trkpt><trkpt lat="44.554639" lon="15.5354506"><ele>734.0</ele><time>2026-04-27T08:57:03.386Z</time></trkpt><trkpt lat="44.5546594" lon="15.5355558"><ele>733.4000000000001</ele><time>2026-04-27T08:57:04.386Z</time></trkpt><trkpt lat="44.5546988" lon="15.5356713"><ele>732.8</ele><time>2026-04-27T08:57:05.386Z</time></trkpt><trkpt lat="44.5547451" lon="15.5357872"><ele>732.2</ele><time>2026-04-27T08:57:06.386Z</time></trkpt><trkpt lat="44.5548061" lon="15.5358838"><ele>731.5999999999999</ele><time>2026-04-27T08:57:07.387Z</time></trkpt><trkpt lat="44.554897" lon="15.5360046"><ele>731.0</ele><time>2026-04-27T08:57:08.386Z</time></trkpt><trkpt lat="44.5549702" lon="15.536119"><ele>729.6666666666666</ele><time>2026-04-27T08:57:09.386Z</time></trkpt><trkpt lat="44.555034" lon="15.5362235"><ele>728.3333333333333</ele><time>2026-04-27T08:57:10.386Z</time></trkpt><trkpt lat="44.5550848" lon="15.5363098"><ele>727.0</ele><time>2026-04-27T08:57:11.386Z</time></trkpt><trkpt lat="44.5551262" lon="15.5363856"><ele>725.6666666666666</ele><time>2026-04-27T08:57:12.386Z</time></trkpt><trkpt lat="44.5551731" lon="15.5364479"><ele>724.3333333333334</ele><time>2026-04-27T08:57:13.387Z</time></trkpt><trkpt lat="44.5552392" lon="15.5364971"><ele>723.0</ele><time>2026-04-27T08:57:14.386Z</time></trkpt><trkpt lat="44.555315" lon="15.5365329"><ele>724.8</ele><time>2026-04-27T08:57:15.386Z</time></trkpt><trkpt lat="44.5553941" lon="15.5365764"><ele>726.5999999999999</ele><time>2026-04-27T08:57:16.386Z</time></trkpt><trkpt lat="44.5555056" lon="15.5365869"><ele>728.4000000000001</ele><time>2026-04-27T08:57:17.386Z</time></trkpt><trkpt lat="44.5555899" lon="15.5366127"><ele>730.2</ele><time>2026-04-27T08:57:18.387Z</time></trkpt><trkpt lat="44.5556797" lon="15.5366354"><ele>732.0</ele><time>2026-04-27T08:57:19.386Z</time></trkpt><trkpt lat="44.55578" lon="15.5366631"><ele>732.0</ele><time>2026-04-27T08:57:20.386Z</time></trkpt><trkpt lat="44.555885" lon="15.5366944"><ele>732.0</ele><time>2026-04-27T08:57:21.386Z</time></trkpt><trkpt lat="44.5559832" lon="15.5367338"><ele>732.0</ele><time>2026-04-27T08:57:22.386Z</time></trkpt><trkpt lat="44.5560757" lon="15.536776"><ele>732.0</ele><time>2026-04-27T08:57:23.386Z</time></trkpt><trkpt lat="44.5561489" lon="15.5368235"><ele>732.0</ele><time>2026-04-27T08:57:24.386Z</time></trkpt><trkpt lat="44.5562431" lon="15.5369432"><ele>731.8333333333334</ele><time>2026-04-27T08:57:26.386Z</time></trkpt><trkpt lat="44.5562749" lon="15.537025"><ele>731.6666666666666</ele><time>2026-04-27T08:57:27.387Z</time></trkpt><trkpt lat="44.5562748" lon="15.5372057"><ele>731.5</ele><time>2026-04-27T08:57:29.386Z</time></trkpt><trkpt lat="44.5562603" lon="15.5372931"><ele>731.3333333333333</ele><time>2026-04-27T08:57:30.386Z</time></trkpt><trkpt lat="44.5562445" lon="15.5374087"><ele>731.1666666666666</ele><time>2026-04-27T08:57:31.386Z</time></trkpt><trkpt lat="44.5562263" lon="15.537501"><ele>731.0</ele><time>2026-04-27T08:57:32.386Z</time></trkpt><trkpt lat="44.5561929" lon="15.5376274"><ele>730.1999999999999</ele><time>2026-04-27T08:57:33.387Z</time></trkpt><trkpt lat="44.5561667" lon="15.5377421"><ele>729.4</ele><time>2026-04-27T08:57:34.386Z</time></trkpt><trkpt lat="44.5561357" lon="15.5378853"><ele>728.6</ele><time>2026-04-27T08:57:35.386Z</time></trkpt><trkpt lat="44.5561136" lon="15.5380219"><ele>727.8</ele><time>2026-04-27T08:57:36.386Z</time></trkpt><trkpt lat="44.5560962" lon="15.5381563"><ele>727.0</ele><time>2026-04-27T08:57:37.386Z</time></trkpt><trkpt lat="44.5560928" lon="15.5382823"><ele>726.8333333333334</ele><time>2026-04-27T08:57:38.386Z</time></trkpt><trkpt lat="44.5560919" lon="15.5384061"><ele>726.6666666666667</ele><time>2026-04-27T08:57:39.386Z</time></trkpt><trkpt lat="44.556094" lon="15.5385083"><ele>726.5</ele><time>2026-04-27T08:57:40.386Z</time></trkpt><trkpt lat="44.5560904" lon="15.5386218"><ele>726.3333333333334</ele><time>2026-04-27T08:57:41.386Z</time></trkpt><trkpt lat="44.5561003" lon="15.5387424"><ele>726.1666666666666</ele><time>2026-04-27T08:57:42.386Z</time></trkpt><trkpt lat="44.5561207" lon="15.5388414"><ele>726.0</ele><time>2026-04-27T08:57:43.386Z</time></trkpt><trkpt lat="44.556177" lon="15.5389693"><ele>727.4</ele><time>2026-04-27T08:57:45.386Z</time></trkpt><trkpt lat="44.556279" lon="15.5389938"><ele>728.8</ele><time>2026-04-27T08:57:47.386Z</time></trkpt><trkpt lat="44.5563376" lon="15.5389165"><ele>730.1999999999999</ele><time>2026-04-27T08:57:49.386Z</time></trkpt><trkpt lat="44.556397" lon="15.5387768"><ele>731.5999999999999</ele><time>2026-04-27T08:57:51.386Z</time></trkpt><trkpt lat="44.5564386" lon="15.5386841"><ele>733.0</ele><time>2026-04-27T08:57:52.386Z</time></trkpt><trkpt lat="44.5565275" lon="15.5385991"><ele>733.0</ele><time>2026-04-27T08:57:54.386Z</time></trkpt><trkpt lat="44.5566119" lon="15.5386088"><ele>733.0</ele><time>2026-04-27T08:57:56.386Z</time></trkpt><trkpt lat="44.556682" lon="15.5387021"><ele>733.0</ele><time>2026-04-27T08:57:58.386Z</time></trkpt><trkpt lat="44.5567635" lon="15.5388407"><ele>733.0</ele><time>2026-04-27T08:58:00.386Z</time></trkpt><trkpt lat="44.556794" lon="15.5389255"><ele>733.0</ele><time>2026-04-27T08:58:01.387Z</time></trkpt><trkpt lat="44.5568361" lon="15.5390153"><ele>733.6666666666667</ele><time>2026-04-27T08:58:02.387Z</time></trkpt><trkpt lat="44.5568652" lon="15.5390975"><ele>734.3333333333334</ele><time>2026-04-27T08:58:03.386Z</time></trkpt><trkpt lat="44.5568853" lon="15.5392445"><ele>735.0</ele><time>2026-04-27T08:58:05.386Z</time></trkpt><trkpt lat="44.5568963" lon="15.53935"><ele>735.6666666666666</ele><time>2026-04-27T08:58:06.386Z</time></trkpt><trkpt lat="44.5569001" lon="15.5394562"><ele>736.3333333333333</ele><time>2026-04-27T08:58:07.386Z</time></trkpt><trkpt lat="44.5569074" lon="15.5395641"><ele>737.0</ele><time>2026-04-27T08:58:08.386Z</time></trkpt><trkpt lat="44.5569098" lon="15.5396575"><ele>738.4000000000001</ele><time>2026-04-27T08:58:09.386Z</time></trkpt><trkpt lat="44.5568929" lon="15.5398032"><ele>739.8000000000001</ele><time>2026-04-27T08:58:11.387Z</time></trkpt><trkpt lat="44.5568239" lon="15.5399013"><ele>741.2</ele><time>2026-04-27T08:58:13.386Z</time></trkpt><trkpt lat="44.556743" lon="15.5399259"><ele>742.6</ele><time>2026-04-27T08:58:15.386Z</time></trkpt><trkpt lat="44.5566255" lon="15.539875"><ele>744.0</ele><time>2026-04-27T08:58:17.386Z</time></trkpt><trkpt lat="44.5565628" lon="15.5398626"><ele>744.0</ele><time>2026-04-27T08:58:18.386Z</time></trkpt><trkpt lat="44.5564484" lon="15.539879"><ele>744.0</ele><time>2026-04-27T08:58:20.386Z</time></trkpt><trkpt lat="44.5563812" lon="15.5400023"><ele>744.0</ele><time>2026-04-27T08:58:22.386Z</time></trkpt><trkpt lat="44.5563742" lon="15.5401723"><ele>744.0</ele><time>2026-04-27T08:58:24.386Z</time></trkpt><trkpt lat="44.5563703" lon="15.5402759"><ele>744.0</ele><time>2026-04-27T08:58:25.386Z</time></trkpt><trkpt lat="44.55635" lon="15.5403908"><ele>743.4000000000001</ele><time>2026-04-27T08:58:26.386Z</time></trkpt><trkpt lat="44.5563243" lon="15.5405101"><ele>742.8</ele><time>2026-04-27T08:58:27.386Z</time></trkpt><trkpt lat="44.5562914" lon="15.5406377"><ele>742.2</ele><time>2026-04-27T08:58:28.386Z</time></trkpt><trkpt lat="44.5562517" lon="15.5407607"><ele>741.5999999999999</ele><time>2026-04-27T08:58:29.386Z</time></trkpt><trkpt lat="44.5562226" lon="15.5408808"><ele>741.0</ele><time>2026-04-27T08:58:30.386Z</time></trkpt><trkpt lat="44.5562012" lon="15.5410004"><ele>741.0</ele><time>2026-04-27T08:58:31.387Z</time></trkpt><trkpt lat="44.5561859" lon="15.5411416"><ele>741.0</ele><time>2026-04-27T08:58:32.386Z</time></trkpt><trkpt lat="44.5561825" lon="15.5412742"><ele>741.0</ele><time>2026-04-27T08:58:33.386Z</time></trkpt><trkpt lat="44.5561771" lon="15.5414089"><ele>741.0</ele><time>2026-04-27T08:58:34.386Z</time></trkpt><trkpt lat="44.5561789" lon="15.5415534"><ele>741.0</ele><time>2026-04-27T08:58:35.387Z</time></trkpt><trkpt lat="44.55618" lon="15.5416769"><ele>742.1999999999999</ele><time>2026-04-27T08:58:36.386Z</time></trkpt><trkpt lat="44.5561698" lon="15.5418198"><ele>743.4</ele><time>2026-04-27T08:58:37.386Z</time></trkpt><trkpt lat="44.5561568" lon="15.5419528"><ele>744.6</ele><time>2026-04-27T08:58:38.386Z</time></trkpt><trkpt lat="44.5561339" lon="15.5420834"><ele>745.8</ele><time>2026-04-27T08:58:39.386Z</time></trkpt><trkpt lat="44.5561096" lon="15.5422217"><ele>747.0</ele><time>2026-04-27T08:58:40.387Z</time></trkpt><trkpt lat="44.5560845" lon="15.5423565"><ele>748.6</ele><time>2026-04-27T08:58:41.386Z</time></trkpt><trkpt lat="44.5560606" lon="15.5424961"><ele>750.2</ele><time>2026-04-27T08:58:42.386Z</time></trkpt><trkpt lat="44.5560409" lon="15.5426311"><ele>751.8</ele><time>2026-04-27T08:58:43.386Z</time></trkpt><trkpt lat="44.5560153" lon="15.5427881"><ele>753.4</ele><time>2026-04-27T08:58:44.386Z</time></trkpt><trkpt lat="44.5559942" lon="15.5429276"><ele>755.0</ele><time>2026-04-27T08:58:45.386Z</time></trkpt><trkpt lat="44.5559847" lon="15.5430695"><ele>756.8333333333333</ele><time>2026-04-27T08:58:46.387Z</time></trkpt><trkpt lat="44.5559752" lon="15.5431865"><ele>758.6666666666666</ele><time>2026-04-27T08:58:47.386Z</time></trkpt><trkpt lat="44.5559609" lon="15.5432897"><ele>760.5</ele><time>2026-04-27T08:58:48.386Z</time></trkpt><trkpt lat="44.5559311" lon="15.5433839"><ele>762.3333333333334</ele><time>2026-04-27T08:58:49.386Z</time></trkpt><trkpt lat="44.5559013" lon="15.5434726"><ele>764.1666666666667</ele><time>2026-04-27T08:58:50.386Z</time></trkpt><trkpt lat="44.5558475" lon="15.5435644"><ele>766.0</ele><time>2026-04-27T08:58:51.386Z</time></trkpt><trkpt lat="44.5558039" lon="15.5436356"><ele>766.0</ele><time>2026-04-27T08:58:52.386Z</time></trkpt><trkpt lat="44.5557328" lon="15.5436671"><ele>766.0</ele><time>2026-04-27T08:58:53.386Z</time></trkpt><trkpt lat="44.5556571" lon="15.5436877"><ele>766.0</ele><time>2026-04-27T08:58:54.386Z</time></trkpt><trkpt lat="44.5555871" lon="15.5437219"><ele>766.0</ele><time>2026-04-27T08:58:55.386Z</time></trkpt><trkpt lat="44.5555272" lon="15.5437591"><ele>766.0</ele><time>2026-04-27T08:58:56.386Z</time></trkpt><trkpt lat="44.5554768" lon="15.5438933"><ele>766.0</ele><time>2026-04-27T08:58:58.386Z</time></trkpt><trkpt lat="44.5554607" lon="15.54398"><ele>768.3333333333334</ele><time>2026-04-27T08:58:59.386Z</time></trkpt><trkpt lat="44.5554472" lon="15.5440918"><ele>770.6666666666667</ele><time>2026-04-27T08:59:00.386Z</time></trkpt><trkpt lat="44.555435" lon="15.5442109"><ele>773.0</ele><time>2026-04-27T08:59:01.387Z</time></trkpt><trkpt lat="44.5554367" lon="15.5443311"><ele>775.3333333333334</ele><time>2026-04-27T08:59:02.386Z</time></trkpt><trkpt lat="44.5554471" lon="15.5444527"><ele>777.6666666666666</ele><time>2026-04-27T08:59:03.386Z</time></trkpt><trkpt lat="44.5554778" lon="15.5445777"><ele>780.0</ele><time>2026-04-27T08:59:04.386Z</time></trkpt><trkpt lat="44.5555025" lon="15.5446975"><ele>780.6</ele><time>2026-04-27T08:59:05.387Z</time></trkpt><trkpt lat="44.5555319" lon="15.5448271"><ele>781.2</ele><time>2026-04-27T08:59:06.386Z</time></trkpt><trkpt lat="44.5555675" lon="15.5449629"><ele>781.8</ele><time>2026-04-27T08:59:07.386Z</time></trkpt><trkpt lat="44.5556058" lon="15.5450994"><ele>782.4</ele><time>2026-04-27T08:59:08.386Z</time></trkpt><trkpt lat="44.5556318" lon="15.5452294"><ele>783.0</ele><time>2026-04-27T08:59:09.386Z</time></trkpt><trkpt lat="44.5556574" lon="15.545357"><ele>783.5999999999999</ele><time>2026-04-27T08:59:10.386Z</time></trkpt><trkpt lat="44.5556689" lon="15.5454761"><ele>784.1999999999999</ele><time>2026-04-27T08:59:11.387Z</time></trkpt><trkpt lat="44.555677" lon="15.5456166"><ele>784.8</ele><time>2026-04-27T08:59:12.386Z</time></trkpt><trkpt lat="44.555675" lon="15.545746"><ele>785.4</ele><time>2026-04-27T08:59:13.387Z</time></trkpt><trkpt lat="44.5556661" lon="15.5458786"><ele>786.0</ele><time>2026-04-27T08:59:14.387Z</time></trkpt><trkpt lat="44.5556513" lon="15.546"><ele>786.0</ele><time>2026-04-27T08:59:15.386Z</time></trkpt><trkpt lat="44.5556337" lon="15.5461091"><ele>786.0</ele><time>2026-04-27T08:59:16.386Z</time></trkpt><trkpt lat="44.5556224" lon="15.5462326"><ele>786.0</ele><time>2026-04-27T08:59:17.386Z</time></trkpt><trkpt lat="44.5556158" lon="15.5463542"><ele>786.0</ele><time>2026-04-27T08:59:18.386Z</time></trkpt><trkpt lat="44.5556186" lon="15.5464814"><ele>786.0</ele><time>2026-04-27T08:59:19.386Z</time></trkpt><trkpt lat="44.5556229" lon="15.5466091"><ele>786.0</ele><time>2026-04-27T08:59:20.386Z</time></trkpt><trkpt lat="44.5556239" lon="15.5467338"><ele>786.5999999999999</ele><time>2026-04-27T08:59:21.386Z</time></trkpt><trkpt lat="44.5556285" lon="15.5468552"><ele>787.2</ele><time>2026-04-27T08:59:22.387Z</time></trkpt><trkpt lat="44.55563" lon="15.5469878"><ele>787.8</ele><time>2026-04-27T08:59:23.386Z</time></trkpt><trkpt lat="44.5556222" lon="15.5471129"><ele>788.4000000000001</ele><time>2026-04-27T08:59:24.387Z</time></trkpt><trkpt lat="44.555599" lon="15.5472544"><ele>789.0</ele><time>2026-04-27T08:59:25.386Z</time></trkpt><trkpt lat="44.5555815" lon="15.5473858"><ele>790.8000000000001</ele><time>2026-04-27T08:59:26.387Z</time></trkpt><trkpt lat="44.5555588" lon="15.5475104"><ele>792.6</ele><time>2026-04-27T08:59:27.387Z</time></trkpt><trkpt lat="44.5555366" lon="15.5476341"><ele>794.4</ele><time>2026-04-27T08:59:28.387Z</time></trkpt><trkpt lat="44.5555033" lon="15.547758"><ele>796.2</ele><time>2026-04-27T08:59:29.386Z</time></trkpt><trkpt lat="44.5554708" lon="15.547883"><ele>798.0</ele><time>2026-04-27T08:59:30.387Z</time></trkpt><trkpt lat="44.5554347" lon="15.5479933"><ele>800.0</ele><time>2026-04-27T08:59:31.387Z</time></trkpt><trkpt lat="44.5554112" lon="15.5480844"><ele>802.0</ele><time>2026-04-27T08:59:32.386Z</time></trkpt><trkpt lat="44.5553627" lon="15.5481813"><ele>804.0</ele><time>2026-04-27T08:59:33.387Z</time></trkpt><trkpt lat="44.5553005" lon="15.5482825"><ele>806.0</ele><time>2026-04-27T08:59:34.386Z</time></trkpt><trkpt lat="44.5551905" lon="15.5483661"><ele>808.0</ele><time>2026-04-27T08:59:35.386Z</time></trkpt><trkpt lat="44.5551052" lon="15.5484499"><ele>806.8</ele><time>2026-04-27T08:59:36.386Z</time></trkpt><trkpt lat="44.5550249" lon="15.5485349"><ele>805.5999999999999</ele><time>2026-04-27T08:59:37.386Z</time></trkpt><trkpt lat="44.5549465" lon="15.5486268"><ele>804.4000000000001</ele><time>2026-04-27T08:59:38.386Z</time></trkpt><trkpt lat="44.5548742" lon="15.548711"><ele>803.2</ele><time>2026-04-27T08:59:39.387Z</time></trkpt><trkpt lat="44.5548089" lon="15.548793"><ele>802.0</ele><time>2026-04-27T08:59:40.386Z</time></trkpt><trkpt lat="44.5547379" lon="15.5488746"><ele>802.0</ele><time>2026-04-27T08:59:41.386Z</time></trkpt><trkpt lat="44.5546717" lon="15.5489629"><ele>802.0</ele><time>2026-04-27T08:59:42.386Z</time></trkpt><trkpt lat="44.5546161" lon="15.5490662"><ele>802.0</ele><time>2026-04-27T08:59:43.386Z</time></trkpt><trkpt lat="44.5545702" lon="15.5491688"><ele>802.0</ele><time>2026-04-27T08:59:44.386Z</time></trkpt><trkpt lat="44.5545261" lon="15.5492784"><ele>802.0</ele><time>2026-04-27T08:59:45.386Z</time></trkpt><trkpt lat="44.5544885" lon="15.5493949"><ele>800.8</ele><time>2026-04-27T08:59:46.386Z</time></trkpt><trkpt lat="44.5544522" lon="15.5495174"><ele>799.6</ele><time>2026-04-27T08:59:47.386Z</time></trkpt><trkpt lat="44.5544133" lon="15.549646"><ele>798.4</ele><time>2026-04-27T08:59:48.387Z</time></trkpt><trkpt lat="44.5543757" lon="15.5497814"><ele>797.1999999999999</ele><time>2026-04-27T08:59:49.387Z</time></trkpt><trkpt lat="44.5543323" lon="15.5499124"><ele>796.0</ele><time>2026-04-27T08:59:50.387Z</time></trkpt><trkpt lat="44.554287" lon="15.5500504"><ele>796.0</ele><time>2026-04-27T08:59:51.387Z</time></trkpt><trkpt lat="44.5542422" lon="15.5501747"><ele>796.0</ele><time>2026-04-27T08:59:52.386Z</time></trkpt><trkpt lat="44.5542061" lon="15.5502876"><ele>796.0</ele><time>2026-04-27T08:59:53.386Z</time></trkpt><trkpt lat="44.5541649" lon="15.5503782"><ele>796.0</ele><time>2026-04-27T08:59:54.386Z</time></trkpt><trkpt lat="44.5540573" lon="15.5504551"><ele>796.0</ele><time>2026-04-27T08:59:56.386Z</time></trkpt><trkpt lat="44.5539888" lon="15.550478"><ele>794.6666666666666</ele><time>2026-04-27T08:59:57.386Z</time></trkpt><trkpt lat="44.5539067" lon="15.5504833"><ele>793.3333333333333</ele><time>2026-04-27T08:59:58.386Z</time></trkpt><trkpt lat="44.5538433" lon="15.5505087"><ele>792.0</ele><time>2026-04-27T08:59:59.386Z</time></trkpt><trkpt lat="44.5537786" lon="15.5505566"><ele>790.6666666666667</ele><time>2026-04-27T09:00:00.386Z</time></trkpt><trkpt lat="44.5537126" lon="15.5506334"><ele>789.3333333333334</ele><time>2026-04-27T09:00:01.386Z</time></trkpt><trkpt lat="44.5536539" lon="15.5507319"><ele>788.0</ele><time>2026-04-27T09:00:02.386Z</time></trkpt><trkpt lat="44.5535983" lon="15.5508264"><ele>788.0000000000001</ele><time>2026-04-27T09:00:03.387Z</time></trkpt><trkpt lat="44.5535535" lon="15.5509248"><ele>788.0</ele><time>2026-04-27T09:00:04.386Z</time></trkpt><trkpt lat="44.5535254" lon="15.5510235"><ele>788.0</ele><time>2026-04-27T09:00:05.387Z</time></trkpt><trkpt lat="44.5535148" lon="15.5511152"><ele>788.0</ele><time>2026-04-27T09:00:06.386Z</time></trkpt><trkpt lat="44.5534994" lon="15.5512164"><ele>788.0000000000001</ele><time>2026-04-27T09:00:07.386Z</time></trkpt><trkpt lat="44.5535017" lon="15.5513131"><ele>788.0</ele><time>2026-04-27T09:00:08.386Z</time></trkpt><trkpt lat="44.5534969" lon="15.5514453"><ele>789.2</ele><time>2026-04-27T09:00:09.386Z</time></trkpt><trkpt lat="44.5534831" lon="15.5515746"><ele>790.4</ele><time>2026-04-27T09:00:10.387Z</time></trkpt><trkpt lat="44.5534618" lon="15.5517045"><ele>791.6</ele><time>2026-04-27T09:00:11.386Z</time></trkpt><trkpt lat="44.5534281" lon="15.5518333"><ele>792.8000000000001</ele><time>2026-04-27T09:00:12.386Z</time></trkpt><trkpt lat="44.5533858" lon="15.5519559"><ele>794.0</ele><time>2026-04-27T09:00:13.387Z</time></trkpt><trkpt lat="44.5533298" lon="15.5520605"><ele>796.4000000000001</ele><time>2026-04-27T09:00:14.387Z</time></trkpt><trkpt lat="44.553263" lon="15.5521505"><ele>798.8</ele><time>2026-04-27T09:00:15.386Z</time></trkpt><trkpt lat="44.5531928" lon="15.5522508"><ele>801.2</ele><time>2026-04-27T09:00:16.386Z</time></trkpt><trkpt lat="44.5531281" lon="15.552361"><ele>803.5999999999999</ele><time>2026-04-27T09:00:17.387Z</time></trkpt><trkpt lat="44.5530675" lon="15.5524861"><ele>806.0</ele><time>2026-04-27T09:00:18.386Z</time></trkpt><trkpt lat="44.5530104" lon="15.5526107"><ele>806.0000000000001</ele><time>2026-04-27T09:00:19.386Z</time></trkpt><trkpt lat="44.5529607" lon="15.5527383"><ele>806.0</ele><time>2026-04-27T09:00:20.387Z</time></trkpt><trkpt lat="44.5529177" lon="15.5528558"><ele>806.0</ele><time>2026-04-27T09:00:21.386Z</time></trkpt><trkpt lat="44.5528874" lon="15.5529546"><ele>806.0</ele><time>2026-04-27T09:00:22.387Z</time></trkpt><trkpt lat="44.5528701" lon="15.5530497"><ele>806.0000000000001</ele><time>2026-04-27T09:00:23.387Z</time></trkpt><trkpt lat="44.5528615" lon="15.5531577"><ele>806.0</ele><time>2026-04-27T09:00:24.386Z</time></trkpt><trkpt lat="44.5528649" lon="15.5532655"><ele>807.3333333333334</ele><time>2026-04-27T09:00:25.387Z</time></trkpt><trkpt lat="44.5528761" lon="15.5533775"><ele>808.6666666666667</ele><time>2026-04-27T09:00:26.386Z</time></trkpt><trkpt lat="44.5528871" lon="15.5535002"><ele>810.0</ele><time>2026-04-27T09:00:27.386Z</time></trkpt><trkpt lat="44.5528856" lon="15.5536331"><ele>811.3333333333333</ele><time>2026-04-27T09:00:28.387Z</time></trkpt><trkpt lat="44.5528795" lon="15.5537541"><ele>812.6666666666666</ele><time>2026-04-27T09:00:29.387Z</time></trkpt><trkpt lat="44.5528782" lon="15.5538868"><ele>814.0</ele><time>2026-04-27T09:00:30.386Z</time></trkpt><trkpt lat="44.5528768" lon="15.554013"><ele>814.0</ele><time>2026-04-27T09:00:31.386Z</time></trkpt><trkpt lat="44.5528808" lon="15.5541459"><ele>814.0</ele><time>2026-04-27T09:00:32.386Z</time></trkpt><trkpt lat="44.5529042" lon="15.5542868"><ele>814.0</ele><time>2026-04-27T09:00:33.386Z</time></trkpt><trkpt lat="44.5529225" lon="15.5544229"><ele>814.0</ele><time>2026-04-27T09:00:34.386Z</time></trkpt><trkpt lat="44.5529332" lon="15.554562"><ele>814.0</ele><time>2026-04-27T09:00:35.386Z</time></trkpt><trkpt lat="44.5529445" lon="15.5547062"><ele>814.2</ele><time>2026-04-27T09:00:36.386Z</time></trkpt><trkpt lat="44.5529654" lon="15.5548464"><ele>814.4000000000001</ele><time>2026-04-27T09:00:37.386Z</time></trkpt><trkpt lat="44.5529819" lon="15.5549685"><ele>814.6</ele><time>2026-04-27T09:00:38.387Z</time></trkpt><trkpt lat="44.5530122" lon="15.5550892"><ele>814.8</ele><time>2026-04-27T09:00:39.387Z</time></trkpt><trkpt lat="44.5530489" lon="15.5551943"><ele>815.0</ele><time>2026-04-27T09:00:40.386Z</time></trkpt><trkpt lat="44.5530966" lon="15.5552994"><ele>814.2</ele><time>2026-04-27T09:00:41.386Z</time></trkpt><trkpt lat="44.5531493" lon="15.5554088"><ele>813.4</ele><time>2026-04-27T09:00:42.386Z</time></trkpt><trkpt lat="44.5532033" lon="15.5555171"><ele>812.5999999999999</ele><time>2026-04-27T09:00:43.386Z</time></trkpt><trkpt lat="44.5532626" lon="15.5556285"><ele>811.8</ele><time>2026-04-27T09:00:44.387Z</time></trkpt><trkpt lat="44.5533248" lon="15.555752"><ele>811.0</ele><time>2026-04-27T09:00:45.386Z</time></trkpt><trkpt lat="44.5533917" lon="15.5558651"><ele>811.0</ele><time>2026-04-27T09:00:46.387Z</time></trkpt><trkpt lat="44.5534582" lon="15.5559651"><ele>811.0</ele><time>2026-04-27T09:00:47.386Z</time></trkpt><trkpt lat="44.5535221" lon="15.5560629"><ele>811.0</ele><time>2026-04-27T09:00:48.386Z</time></trkpt><trkpt lat="44.5536015" lon="15.5561532"><ele>811.0</ele><time>2026-04-27T09:00:49.386Z</time></trkpt><trkpt lat="44.5536752" lon="15.5562404"><ele>811.0</ele><time>2026-04-27T09:00:50.386Z</time></trkpt><trkpt lat="44.5537523" lon="15.5563336"><ele>813.1999999999999</ele><time>2026-04-27T09:00:51.386Z</time></trkpt><trkpt lat="44.5538382" lon="15.5564163"><ele>815.4</ele><time>2026-04-27T09:00:52.386Z</time></trkpt><trkpt lat="44.5539072" lon="15.5564886"><ele>817.6</ele><time>2026-04-27T09:00:53.386Z</time></trkpt><trkpt lat="44.5539822" lon="15.5565621"><ele>819.8</ele><time>2026-04-27T09:00:54.386Z</time></trkpt><trkpt lat="44.5540633" lon="15.5566128"><ele>822.0</ele><time>2026-04-27T09:00:55.386Z</time></trkpt><trkpt lat="44.5541443" lon="15.5566621"><ele>822.0</ele><time>2026-04-27T09:00:56.386Z</time></trkpt><trkpt lat="44.5542301" lon="15.5567064"><ele>822.0</ele><time>2026-04-27T09:00:57.386Z</time></trkpt><trkpt lat="44.5543272" lon="15.5567408"><ele>822.0</ele><time>2026-04-27T09:00:58.386Z</time></trkpt><trkpt lat="44.5544246" lon="15.5567708"><ele>822.0</ele><time>2026-04-27T09:00:59.387Z</time></trkpt><trkpt lat="44.5545093" lon="15.5567958"><ele>822.0</ele><time>2026-04-27T09:01:00.386Z</time></trkpt><trkpt lat="44.5546133" lon="15.5567981"><ele>824.2</ele><time>2026-04-27T09:01:01.386Z</time></trkpt><trkpt lat="44.5547007" lon="15.5568119"><ele>826.4000000000001</ele><time>2026-04-27T09:01:02.386Z</time></trkpt><trkpt lat="44.5547913" lon="15.5568271"><ele>828.5999999999999</ele><time>2026-04-27T09:01:03.386Z</time></trkpt><trkpt lat="44.5548948" lon="15.5568139"><ele>830.8</ele><time>2026-04-27T09:01:04.386Z</time></trkpt><trkpt lat="44.5549905" lon="15.5567977"><ele>833.0</ele><time>2026-04-27T09:01:05.386Z</time></trkpt><trkpt lat="44.5550815" lon="15.5567943"><ele>833.0000000000001</ele><time>2026-04-27T09:01:06.386Z</time></trkpt><trkpt lat="44.5551668" lon="15.5567939"><ele>833.0</ele><time>2026-04-27T09:01:07.387Z</time></trkpt><trkpt lat="44.5552387" lon="15.5568386"><ele>833.0</ele><time>2026-04-27T09:01:08.386Z</time></trkpt><trkpt lat="44.5553129" lon="15.5568774"><ele>833.0</ele><time>2026-04-27T09:01:09.386Z</time></trkpt><trkpt lat="44.555397" lon="15.5569049"><ele>833.0000000000001</ele><time>2026-04-27T09:01:10.386Z</time></trkpt><trkpt lat="44.5554827" lon="15.5569333"><ele>833.0</ele><time>2026-04-27T09:01:11.387Z</time></trkpt><trkpt lat="44.5555758" lon="15.5569708"><ele>832.4</ele><time>2026-04-27T09:01:12.386Z</time></trkpt><trkpt lat="44.5556691" lon="15.5570001"><ele>831.8</ele><time>2026-04-27T09:01:13.386Z</time></trkpt><trkpt lat="44.5557671" lon="15.5570374"><ele>831.2</ele><time>2026-04-27T09:01:14.387Z</time></trkpt><trkpt lat="44.55587" lon="15.5570716"><ele>830.6</ele><time>2026-04-27T09:01:15.386Z</time></trkpt><trkpt lat="44.5559635" lon="15.5571081"><ele>830.0</ele><time>2026-04-27T09:01:16.387Z</time></trkpt><trkpt lat="44.5560591" lon="15.5571461"><ele>830.0</ele><time>2026-04-27T09:01:17.386Z</time></trkpt><trkpt lat="44.5561522" lon="15.5571833"><ele>830.0</ele><time>2026-04-27T09:01:18.386Z</time></trkpt><trkpt lat="44.5562382" lon="15.5572284"><ele>830.0</ele><time>2026-04-27T09:01:19.386Z</time></trkpt><trkpt lat="44.5563192" lon="15.5572632"><ele>830.0</ele><time>2026-04-27T09:01:20.387Z</time></trkpt><trkpt lat="44.5564134" lon="15.5572994"><ele>830.0</ele><time>2026-04-27T09:01:21.386Z</time></trkpt><trkpt lat="44.5565028" lon="15.5573322"><ele>831.8</ele><time>2026-04-27T09:01:22.386Z</time></trkpt><trkpt lat="44.5565953" lon="15.5573581"><ele>833.6</ele><time>2026-04-27T09:01:23.386Z</time></trkpt><trkpt lat="44.5566929" lon="15.5573741"><ele>835.4000000000001</ele><time>2026-04-27T09:01:24.386Z</time></trkpt><trkpt lat="44.5567895" lon="15.5573834"><ele>837.2</ele><time>2026-04-27T09:01:25.386Z</time></trkpt><trkpt lat="44.5568855" lon="15.5573882"><ele>839.0</ele><time>2026-04-27T09:01:26.387Z</time></trkpt><trkpt lat="44.556977" lon="15.5573731"><ele>839.4000000000001</ele><time>2026-04-27T09:01:27.386Z</time></trkpt><trkpt lat="44.5570644" lon="15.5573454"><ele>839.8</ele><time>2026-04-27T09:01:28.386Z</time></trkpt><trkpt lat="44.5571517" lon="15.5573231"><ele>840.2</ele><time>2026-04-27T09:01:29.386Z</time></trkpt><trkpt lat="44.5572397" lon="15.5572994"><ele>840.5999999999999</ele><time>2026-04-27T09:01:30.387Z</time></trkpt><trkpt lat="44.5573303" lon="15.5572845"><ele>841.0</ele><time>2026-04-27T09:01:31.386Z</time></trkpt><trkpt lat="44.5574207" lon="15.5572843"><ele>840.9999999999999</ele><time>2026-04-27T09:01:32.386Z</time></trkpt><trkpt lat="44.5575111" lon="15.5573003"><ele>841.0</ele><time>2026-04-27T09:01:33.387Z</time></trkpt><trkpt lat="44.5575946" lon="15.5573225"><ele>841.0</ele><time>2026-04-27T09:01:34.386Z</time></trkpt><trkpt lat="44.5576656" lon="15.5573358"><ele>841.0</ele><time>2026-04-27T09:01:35.387Z</time></trkpt><trkpt lat="44.5577363" lon="15.5573328"><ele>840.9999999999999</ele><time>2026-04-27T09:01:36.386Z</time></trkpt><trkpt lat="44.5578068" lon="15.5572996"><ele>841.0</ele><time>2026-04-27T09:01:37.387Z</time></trkpt><trkpt lat="44.5578711" lon="15.5572528"><ele>841.1666666666666</ele><time>2026-04-27T09:01:38.386Z</time></trkpt><trkpt lat="44.5579266" lon="15.5571894"><ele>841.3333333333333</ele><time>2026-04-27T09:01:39.387Z</time></trkpt><trkpt lat="44.5579835" lon="15.5571089"><ele>841.5</ele><time>2026-04-27T09:01:40.386Z</time></trkpt><trkpt lat="44.5580551" lon="15.5570316"><ele>841.6666666666667</ele><time>2026-04-27T09:01:41.386Z</time></trkpt><trkpt lat="44.5581271" lon="15.5569938"><ele>841.8333333333334</ele><time>2026-04-27T09:01:42.386Z</time></trkpt><trkpt lat="44.5582017" lon="15.556974"><ele>842.0</ele><time>2026-04-27T09:01:43.387Z</time></trkpt><trkpt lat="44.5582883" lon="15.5569878"><ele>842.0</ele><time>2026-04-27T09:01:44.386Z</time></trkpt><trkpt lat="44.5583772" lon="15.5570131"><ele>842.0</ele><time>2026-04-27T09:01:45.387Z</time></trkpt><trkpt lat="44.5584611" lon="15.5570288"><ele>842.0</ele><time>2026-04-27T09:01:46.386Z</time></trkpt><trkpt lat="44.5585285" lon="15.5570305"><ele>842.0</ele><time>2026-04-27T09:01:47.386Z</time></trkpt><trkpt lat="44.5586678" lon="15.5569582"><ele>842.0</ele><time>2026-04-27T09:01:49.386Z</time></trkpt><trkpt lat="44.5587344" lon="15.5569033"><ele>843.6</ele><time>2026-04-27T09:01:50.386Z</time></trkpt><trkpt lat="44.558801" lon="15.5567968"><ele>845.2</ele><time>2026-04-27T09:01:51.386Z</time></trkpt><trkpt lat="44.558864" lon="15.5566928"><ele>846.8</ele><time>2026-04-27T09:01:52.386Z</time></trkpt><trkpt lat="44.5589217" lon="15.5565872"><ele>848.4</ele><time>2026-04-27T09:01:53.386Z</time></trkpt><trkpt lat="44.5589663" lon="15.5565101"><ele>850.0</ele><time>2026-04-27T09:01:54.386Z</time></trkpt><trkpt lat="44.5590624" lon="15.5564511"><ele>849.9999999999999</ele><time>2026-04-27T09:01:56.387Z</time></trkpt><trkpt lat="44.5591441" lon="15.5565173"><ele>850.0</ele><time>2026-04-27T09:01:58.387Z</time></trkpt><trkpt lat="44.5591531" lon="15.5566113"><ele>850.0</ele><time>2026-04-27T09:01:59.386Z</time></trkpt><trkpt lat="44.5591321" lon="15.5567755"><ele>850.0</ele><time>2026-04-27T09:02:01.386Z</time></trkpt><trkpt lat="44.5591088" lon="15.5568658"><ele>849.9999999999999</ele><time>2026-04-27T09:02:02.386Z</time></trkpt><trkpt lat="44.559081" lon="15.5569632"><ele>850.0</ele><time>2026-04-27T09:02:03.386Z</time></trkpt><trkpt lat="44.5590644" lon="15.5570501"><ele>850.4999999999999</ele><time>2026-04-27T09:02:04.387Z</time></trkpt><trkpt lat="44.5590502" lon="15.5571451"><ele>851.0</ele><time>2026-04-27T09:02:05.386Z</time></trkpt><trkpt lat="44.5590429" lon="15.5572569"><ele>851.5</ele><time>2026-04-27T09:02:06.386Z</time></trkpt><trkpt lat="44.5590514" lon="15.5573698"><ele>852.0</ele><time>2026-04-27T09:02:07.386Z</time></trkpt><trkpt lat="44.5590717" lon="15.5574827"><ele>852.4999999999999</ele><time>2026-04-27T09:02:08.387Z</time></trkpt><trkpt lat="44.559091" lon="15.5575995"><ele>853.0</ele><time>2026-04-27T09:02:09.387Z</time></trkpt><trkpt lat="44.5591058" lon="15.5577223"><ele>853.0</ele><time>2026-04-27T09:02:10.386Z</time></trkpt><trkpt lat="44.5591277" lon="15.5578535"><ele>853.0</ele><time>2026-04-27T09:02:11.386Z</time></trkpt><trkpt lat="44.5591498" lon="15.5579753"><ele>853.0</ele><time>2026-04-27T09:02:12.387Z</time></trkpt><trkpt lat="44.5591646" lon="15.55809"><ele>853.0</ele><time>2026-04-27T09:02:13.386Z</time></trkpt><trkpt lat="44.5591596" lon="15.5582668"><ele>853.0</ele><time>2026-04-27T09:02:15.386Z</time></trkpt><trkpt lat="44.5591106" lon="15.5584412"><ele>853.8571428571428</ele><time>2026-04-27T09:02:17.386Z</time></trkpt><trkpt lat="44.5590716" lon="15.5585249"><ele>854.7142857142858</ele><time>2026-04-27T09:02:18.386Z</time></trkpt><trkpt lat="44.5590331" lon="15.5586106"><ele>855.5714285714286</ele><time>2026-04-27T09:02:19.386Z</time></trkpt><trkpt lat="44.5590069" lon="15.5586973"><ele>856.4285714285713</ele><time>2026-04-27T09:02:20.386Z</time></trkpt><trkpt lat="44.558984" lon="15.5587952"><ele>857.2857142857142</ele><time>2026-04-27T09:02:21.386Z</time></trkpt><trkpt lat="44.5589745" lon="15.5588951"><ele>858.1428571428571</ele><time>2026-04-27T09:02:22.386Z</time></trkpt><trkpt lat="44.5589592" lon="15.5589965"><ele>859.0</ele><time>2026-04-27T09:02:23.387Z</time></trkpt><trkpt lat="44.5589001" lon="15.5591258"><ele>858.6666666666666</ele><time>2026-04-27T09:02:25.386Z</time></trkpt><trkpt lat="44.558848" lon="15.5591789"><ele>858.3333333333333</ele><time>2026-04-27T09:02:26.387Z</time></trkpt><trkpt lat="44.5587369" lon="15.5592363"><ele>858.0</ele><time>2026-04-27T09:02:28.386Z</time></trkpt><trkpt lat="44.5586707" lon="15.5592625"><ele>857.6666666666667</ele><time>2026-04-27T09:02:29.386Z</time></trkpt><trkpt lat="44.5586087" lon="15.5593088"><ele>857.3333333333334</ele><time>2026-04-27T09:02:30.387Z</time></trkpt><trkpt lat="44.5585517" lon="15.5593658"><ele>857.0</ele><time>2026-04-27T09:02:31.386Z</time></trkpt><trkpt lat="44.5585003" lon="15.5594312"><ele>857.0</ele><time>2026-04-27T09:02:32.386Z</time></trkpt><trkpt lat="44.5584403" lon="15.5595164"><ele>857.0</ele><time>2026-04-27T09:02:33.386Z</time></trkpt><trkpt lat="44.558371" lon="15.5596179"><ele>857.0</ele><time>2026-04-27T09:02:34.387Z</time></trkpt><trkpt lat="44.5583039" lon="15.5597277"><ele>857.0</ele><time>2026-04-27T09:02:35.386Z</time></trkpt><trkpt lat="44.5582365" lon="15.5598217"><ele>857.0</ele><time>2026-04-27T09:02:36.387Z</time></trkpt><trkpt lat="44.5581676" lon="15.559916"><ele>858.8333333333334</ele><time>2026-04-27T09:02:37.386Z</time></trkpt><trkpt lat="44.5580978" lon="15.5600062"><ele>860.6666666666667</ele><time>2026-04-27T09:02:38.387Z</time></trkpt><trkpt lat="44.5580285" lon="15.5601066"><ele>862.5</ele><time>2026-04-27T09:02:39.387Z</time></trkpt><trkpt lat="44.5579616" lon="15.5601975"><ele>864.3333333333333</ele><time>2026-04-27T09:02:40.386Z</time></trkpt><trkpt lat="44.5579125" lon="15.5602622"><ele>866.1666666666666</ele><time>2026-04-27T09:02:41.386Z</time></trkpt><trkpt lat="44.5578743" lon="15.5603401"><ele>868.0</ele><time>2026-04-27T09:02:42.386Z</time></trkpt><trkpt lat="44.5578346" lon="15.560426"><ele>867.9999999999999</ele><time>2026-04-27T09:02:43.386Z</time></trkpt><trkpt lat="44.5577879" lon="15.5605273"><ele>868.0</ele><time>2026-04-27T09:02:44.386Z</time></trkpt><trkpt lat="44.5577465" lon="15.56063"><ele>868.0</ele><time>2026-04-27T09:02:45.387Z</time></trkpt><trkpt lat="44.5577069" lon="15.5607426"><ele>868.0</ele><time>2026-04-27T09:02:46.386Z</time></trkpt><trkpt lat="44.557663" lon="15.5608558"><ele>867.9999999999999</ele><time>2026-04-27T09:02:47.386Z</time></trkpt><trkpt lat="44.5576157" lon="15.5609721"><ele>868.0</ele><time>2026-04-27T09:02:48.386Z</time></trkpt><trkpt lat="44.557556" lon="15.5610673"><ele>867.9999999999999</ele><time>2026-04-27T09:02:49.386Z</time></trkpt><trkpt lat="44.5574935" lon="15.561157"><ele>868.0</ele><time>2026-04-27T09:02:50.386Z</time></trkpt><trkpt lat="44.5574342" lon="15.5612424"><ele>868.0</ele><time>2026-04-27T09:02:51.386Z</time></trkpt><trkpt lat="44.5573605" lon="15.5613165"><ele>868.0</ele><time>2026-04-27T09:02:52.386Z</time></trkpt><trkpt lat="44.5572931" lon="15.561382"><ele>867.9999999999999</ele><time>2026-04-27T09:02:53.386Z</time></trkpt><trkpt lat="44.5572316" lon="15.5614578"><ele>868.0</ele><time>2026-04-27T09:02:54.387Z</time></trkpt><trkpt lat="44.5571713" lon="15.5615261"><ele>867.5999999999999</ele><time>2026-04-27T09:02:55.387Z</time></trkpt><trkpt lat="44.5570944" lon="15.5616575"><ele>867.1999999999999</ele><time>2026-04-27T09:02:57.386Z</time></trkpt><trkpt lat="44.5570597" lon="15.5617606"><ele>866.8</ele><time>2026-04-27T09:02:58.386Z</time></trkpt><trkpt lat="44.5570191" lon="15.5618731"><ele>866.4</ele><time>2026-04-27T09:02:59.386Z</time></trkpt><trkpt lat="44.5569773" lon="15.5619891"><ele>866.0</ele><time>2026-04-27T09:03:00.386Z</time></trkpt><trkpt lat="44.5569251" lon="15.5621135"><ele>867.6666666666667</ele><time>2026-04-27T09:03:01.386Z</time></trkpt><trkpt lat="44.5568827" lon="15.5622186"><ele>869.3333333333334</ele><time>2026-04-27T09:03:02.386Z</time></trkpt><trkpt lat="44.556849" lon="15.5623202"><ele>871.0</ele><time>2026-04-27T09:03:03.386Z</time></trkpt><trkpt lat="44.5568254" lon="15.5624122"><ele>872.6666666666667</ele><time>2026-04-27T09:03:04.386Z</time></trkpt><trkpt lat="44.5567951" lon="15.5625525"><ele>874.3333333333334</ele><time>2026-04-27T09:03:06.386Z</time></trkpt><trkpt lat="44.556781" lon="15.562651"><ele>876.0</ele><time>2026-04-27T09:03:07.386Z</time></trkpt><trkpt lat="44.5567725" lon="15.5627601"><ele>877.6666666666666</ele><time>2026-04-27T09:03:08.386Z</time></trkpt><trkpt lat="44.5567613" lon="15.5628778"><ele>879.3333333333333</ele><time>2026-04-27T09:03:09.386Z</time></trkpt><trkpt lat="44.5567629" lon="15.5629817"><ele>881.0</ele><time>2026-04-27T09:03:10.387Z</time></trkpt><trkpt lat="44.5567686" lon="15.5630853"><ele>882.6666666666666</ele><time>2026-04-27T09:03:11.386Z</time></trkpt><trkpt lat="44.5567566" lon="15.5631825"><ele>884.3333333333333</ele><time>2026-04-27T09:03:12.387Z</time></trkpt><trkpt lat="44.5566939" lon="15.5633299"><ele>886.0</ele><time>2026-04-27T09:03:14.386Z</time></trkpt><trkpt lat="44.5566518" lon="15.563411"><ele>886.0</ele><time>2026-04-27T09:03:15.386Z</time></trkpt><trkpt lat="44.5566148" lon="15.5635124"><ele>885.9999999999999</ele><time>2026-04-27T09:03:16.386Z</time></trkpt><trkpt lat="44.5565846" lon="15.5636155"><ele>885.9999999999999</ele><time>2026-04-27T09:03:17.386Z</time></trkpt><trkpt lat="44.5565556" lon="15.5637102"><ele>886.0</ele><time>2026-04-27T09:03:18.386Z</time></trkpt><trkpt lat="44.55652" lon="15.5638666"><ele>886.0</ele><time>2026-04-27T09:03:20.386Z</time></trkpt><trkpt lat="44.5565191" lon="15.5640478"><ele>887.1666666666666</ele><time>2026-04-27T09:03:22.386Z</time></trkpt><trkpt lat="44.5565243" lon="15.5641586"><ele>888.3333333333333</ele><time>2026-04-27T09:03:23.386Z</time></trkpt><trkpt lat="44.5565035" lon="15.5642646"><ele>889.5</ele><time>2026-04-27T09:03:24.386Z</time></trkpt><trkpt lat="44.5564642" lon="15.5643675"><ele>890.6666666666667</ele><time>2026-04-27T09:03:25.386Z</time></trkpt><trkpt lat="44.5564174" lon="15.5644632"><ele>891.8333333333334</ele><time>2026-04-27T09:03:26.387Z</time></trkpt><trkpt lat="44.5563767" lon="15.5645422"><ele>893.0</ele><time>2026-04-27T09:03:27.386Z</time></trkpt><trkpt lat="44.5563406" lon="15.5647116"><ele>893.0000000000001</ele><time>2026-04-27T09:03:29.386Z</time></trkpt><trkpt lat="44.5563342" lon="15.5648212"><ele>893.0</ele><time>2026-04-27T09:03:30.386Z</time></trkpt><trkpt lat="44.5563291" lon="15.5649439"><ele>893.0</ele><time>2026-04-27T09:03:31.387Z</time></trkpt><trkpt lat="44.5563394" lon="15.5650526"><ele>893.0</ele><time>2026-04-27T09:03:32.386Z</time></trkpt><trkpt lat="44.5563532" lon="15.5651403"><ele>893.0000000000001</ele><time>2026-04-27T09:03:33.386Z</time></trkpt><trkpt lat="44.5563684" lon="15.56524"><ele>893.0</ele><time>2026-04-27T09:03:34.387Z</time></trkpt><trkpt lat="44.5564097" lon="15.5653358"><ele>892.3333333333334</ele><time>2026-04-27T09:03:35.386Z</time></trkpt><trkpt lat="44.5564605" lon="15.5654419"><ele>891.6666666666667</ele><time>2026-04-27T09:03:36.386Z</time></trkpt><trkpt lat="44.5565147" lon="15.5655361"><ele>891.0</ele><time>2026-04-27T09:03:37.386Z</time></trkpt><trkpt lat="44.556562" lon="15.5656206"><ele>890.3333333333333</ele><time>2026-04-27T09:03:38.386Z</time></trkpt><trkpt lat="44.5566206" lon="15.5656926"><ele>889.6666666666666</ele><time>2026-04-27T09:03:39.386Z</time></trkpt><trkpt lat="44.556686" lon="15.5657591"><ele>889.0</ele><time>2026-04-27T09:03:40.387Z</time></trkpt><trkpt lat="44.5567564" lon="15.5658297"><ele>888.9999999999999</ele><time>2026-04-27T09:03:41.386Z</time></trkpt><trkpt lat="44.5568383" lon="15.5658882"><ele>889.0</ele><time>2026-04-27T09:03:42.386Z</time></trkpt><trkpt lat="44.5569188" lon="15.565939"><ele>889.0</ele><time>2026-04-27T09:03:43.386Z</time></trkpt><trkpt lat="44.5569993" lon="15.5659836"><ele>889.0</ele><time>2026-04-27T09:03:44.386Z</time></trkpt><trkpt lat="44.5570707" lon="15.5660256"><ele>888.9999999999999</ele><time>2026-04-27T09:03:45.387Z</time></trkpt><trkpt lat="44.5571306" lon="15.566076"><ele>889.0</ele><time>2026-04-27T09:03:46.386Z</time></trkpt><trkpt lat="44.5571806" lon="15.5661384"><ele>890.4999999999999</ele><time>2026-04-27T09:03:47.386Z</time></trkpt><trkpt lat="44.5572224" lon="15.5662214"><ele>892.0</ele><time>2026-04-27T09:03:48.386Z</time></trkpt><trkpt lat="44.5572477" lon="15.5663173"><ele>893.5</ele><time>2026-04-27T09:03:49.386Z</time></trkpt><trkpt lat="44.5572617" lon="15.5664295"><ele>895.0</ele><time>2026-04-27T09:03:50.386Z</time></trkpt><trkpt lat="44.5572643" lon="15.5665485"><ele>896.4999999999999</ele><time>2026-04-27T09:03:51.386Z</time></trkpt><trkpt lat="44.5572587" lon="15.5666858"><ele>898.0</ele><time>2026-04-27T09:03:52.386Z</time></trkpt><trkpt lat="44.5572551" lon="15.566809"><ele>898.0</ele><time>2026-04-27T09:03:53.387Z</time></trkpt><trkpt lat="44.5572362" lon="15.5669511"><ele>898.0</ele><time>2026-04-27T09:03:54.386Z</time></trkpt><trkpt lat="44.557224" lon="15.567087"><ele>898.0</ele><time>2026-04-27T09:03:55.387Z</time></trkpt><trkpt lat="44.5572124" lon="15.5672218"><ele>898.0</ele><time>2026-04-27T09:03:56.386Z</time></trkpt><trkpt lat="44.5571921" lon="15.5673603"><ele>898.0</ele><time>2026-04-27T09:03:57.386Z</time></trkpt><trkpt lat="44.5571795" lon="15.5674808"><ele>898.3333333333333</ele><time>2026-04-27T09:03:58.386Z</time></trkpt><trkpt lat="44.5571626" lon="15.5675821"><ele>898.6666666666666</ele><time>2026-04-27T09:03:59.387Z</time></trkpt><trkpt lat="44.5571608" lon="15.5677031"><ele>899.0</ele><time>2026-04-27T09:04:00.386Z</time></trkpt><trkpt lat="44.5571728" lon="15.5678035"><ele>899.3333333333333</ele><time>2026-04-27T09:04:01.386Z</time></trkpt><trkpt lat="44.5571895" lon="15.5679091"><ele>899.6666666666666</ele><time>2026-04-27T09:04:02.387Z</time></trkpt><trkpt lat="44.5572096" lon="15.5680143"><ele>900.0</ele><time>2026-04-27T09:04:03.386Z</time></trkpt><trkpt lat="44.5571974" lon="15.5681796"><ele>900.0</ele><time>2026-04-27T09:04:05.386Z</time></trkpt><trkpt lat="44.5571251" lon="15.5683186"><ele>900.0</ele><time>2026-04-27T09:04:07.386Z</time></trkpt><trkpt lat="44.55705" lon="15.568388"><ele>900.0</ele><time>2026-04-27T09:04:08.386Z</time></trkpt><trkpt lat="44.5569848" lon="15.5684732"><ele>900.0</ele><time>2026-04-27T09:04:09.386Z</time></trkpt><trkpt lat="44.5569066" lon="15.5685629"><ele>900.0</ele><time>2026-04-27T09:04:10.386Z</time></trkpt><trkpt lat="44.5568252" lon="15.5686576"><ele>902.4</ele><time>2026-04-27T09:04:11.386Z</time></trkpt><trkpt lat="44.5567302" lon="15.5687409"><ele>904.8</ele><time>2026-04-27T09:04:12.386Z</time></trkpt><trkpt lat="44.5566414" lon="15.5688223"><ele>907.2</ele><time>2026-04-27T09:04:13.386Z</time></trkpt><trkpt lat="44.5565616" lon="15.5689001"><ele>909.6</ele><time>2026-04-27T09:04:14.386Z</time></trkpt><trkpt lat="44.5564787" lon="15.5689815"><ele>912.0</ele><time>2026-04-27T09:04:15.386Z</time></trkpt><trkpt lat="44.5564102" lon="15.5690623"><ele>912.0</ele><time>2026-04-27T09:04:16.387Z</time></trkpt><trkpt lat="44.5563539" lon="15.5691271"><ele>912.0</ele><time>2026-04-27T09:04:17.386Z</time></trkpt><trkpt lat="44.5562967" lon="15.5692072"><ele>912.0</ele><time>2026-04-27T09:04:18.386Z</time></trkpt><trkpt lat="44.5562435" lon="15.5692909"><ele>912.0</ele><time>2026-04-27T09:04:19.386Z</time></trkpt><trkpt lat="44.5561991" lon="15.5693892"><ele>912.0</ele><time>2026-04-27T09:04:20.387Z</time></trkpt><trkpt lat="44.5561647" lon="15.5694955"><ele>912.0</ele><time>2026-04-27T09:04:21.387Z</time></trkpt><trkpt lat="44.5561264" lon="15.5696062"><ele>911.8</ele><time>2026-04-27T09:04:22.386Z</time></trkpt><trkpt lat="44.5560779" lon="15.5697235"><ele>911.6</ele><time>2026-04-27T09:04:23.386Z</time></trkpt><trkpt lat="44.5560242" lon="15.569829"><ele>911.3999999999999</ele><time>2026-04-27T09:04:24.386Z</time></trkpt><trkpt lat="44.5559599" lon="15.5699289"><ele>911.1999999999999</ele><time>2026-04-27T09:04:25.386Z</time></trkpt><trkpt lat="44.5558919" lon="15.5700251"><ele>911.0</ele><time>2026-04-27T09:04:26.386Z</time></trkpt><trkpt lat="44.5558196" lon="15.5701155"><ele>911.0000000000001</ele><time>2026-04-27T09:04:27.386Z</time></trkpt><trkpt lat="44.5557421" lon="15.5702114"><ele>911.0</ele><time>2026-04-27T09:04:28.386Z</time></trkpt><trkpt lat="44.5556694" lon="15.5703013"><ele>911.0</ele><time>2026-04-27T09:04:29.386Z</time></trkpt><trkpt lat="44.5556046" lon="15.5703686"><ele>911.0</ele><time>2026-04-27T09:04:30.387Z</time></trkpt><trkpt lat="44.5555485" lon="15.5704322"><ele>911.0000000000001</ele><time>2026-04-27T09:04:31.387Z</time></trkpt><trkpt lat="44.5554963" lon="15.5705028"><ele>911.0</ele><time>2026-04-27T09:04:32.386Z</time></trkpt><trkpt lat="44.5554511" lon="15.5705762"><ele>912.0000000000001</ele><time>2026-04-27T09:04:33.386Z</time></trkpt><trkpt lat="44.5554005" lon="15.5706965"><ele>913.0</ele><time>2026-04-27T09:04:35.386Z</time></trkpt><trkpt lat="44.5553613" lon="15.5707956"><ele>914.0</ele><time>2026-04-27T09:04:37.386Z</time></trkpt><trkpt lat="44.5553144" lon="15.5708851"><ele>915.0</ele><time>2026-04-27T09:04:40.387Z</time></trkpt><trkpt lat="44.5552287" lon="15.5709295"><ele>916.0000000000001</ele><time>2026-04-27T09:34:47.386Z</time></trkpt><trkpt lat="44.5551559" lon="15.5710178"><ele>917.0</ele><time>2026-04-27T09:34:49.386Z</time></trkpt><trkpt lat="44.5550774" lon="15.5711104"><ele>916.8333333333334</ele><time>2026-04-27T09:34:51.386Z</time></trkpt><trkpt lat="44.5550008" lon="15.5712018"><ele>916.6666666666667</ele><time>2026-04-27T09:34:53.386Z</time></trkpt><trkpt lat="44.5549494" lon="15.5712952"><ele>916.5</ele><time>2026-04-27T09:34:55.386Z</time></trkpt><trkpt lat="44.5549202" lon="15.5713841"><ele>916.3333333333333</ele><time>2026-04-27T09:34:58.387Z</time></trkpt><trkpt lat="44.5548987" lon="15.5714694"><ele>916.1666666666666</ele><time>2026-04-27T09:35:01.386Z</time></trkpt><trkpt lat="44.5548665" lon="15.5715637"><ele>916.0</ele><time>2026-04-27T09:35:04.386Z</time></trkpt><trkpt lat="44.5548298" lon="15.5716846"><ele>915.9999999999999</ele><time>2026-04-27T09:35:06.386Z</time></trkpt><trkpt lat="44.5547911" lon="15.5718144"><ele>916.0</ele><time>2026-04-27T09:35:08.387Z</time></trkpt><trkpt lat="44.5547405" lon="15.5719799"><ele>916.0</ele><time>2026-04-27T09:35:10.386Z</time></trkpt><trkpt lat="44.5547166" lon="15.5720726"><ele>916.0</ele><time>2026-04-27T09:35:11.386Z</time></trkpt><trkpt lat="44.5547061" lon="15.5721668"><ele>915.9999999999999</ele><time>2026-04-27T09:35:12.387Z</time></trkpt><trkpt lat="44.554691" lon="15.5722582"><ele>916.0</ele><time>2026-04-27T09:35:13.386Z</time></trkpt><trkpt lat="44.5547021" lon="15.5723483"><ele>914.75</ele><time>2026-04-27T09:35:14.386Z</time></trkpt><trkpt lat="44.5547268" lon="15.572515"><ele>913.5</ele><time>2026-04-27T09:35:16.387Z</time></trkpt><trkpt lat="44.5547939" lon="15.572652"><ele>912.25</ele><time>2026-04-27T09:35:18.387Z</time></trkpt><trkpt lat="44.554893" lon="15.5727486"><ele>911.0</ele><time>2026-04-27T09:35:20.386Z</time></trkpt><trkpt lat="44.555017" lon="15.5727878"><ele>911.0000000000001</ele><time>2026-04-27T09:35:22.386Z</time></trkpt><trkpt lat="44.5550829" lon="15.5727994"><ele>911.0</ele><time>2026-04-27T09:35:23.387Z</time></trkpt><trkpt lat="44.5551463" lon="15.5728067"><ele>911.0</ele><time>2026-04-27T09:35:24.387Z</time></trkpt><trkpt lat="44.5552163" lon="15.57282"><ele>911.0</ele><time>2026-04-27T09:35:25.386Z</time></trkpt><trkpt lat="44.5552814" lon="15.5728491"><ele>911.0000000000001</ele><time>2026-04-27T09:35:26.386Z</time></trkpt><trkpt lat="44.5553851" lon="15.5729251"><ele>911.0</ele><time>2026-04-27T09:35:28.387Z</time></trkpt><trkpt lat="44.5554702" lon="15.5730306"><ele>910.8</ele><time>2026-04-27T09:35:30.386Z</time></trkpt><trkpt lat="44.555549" lon="15.5731469"><ele>910.5999999999999</ele><time>2026-04-27T09:35:32.387Z</time></trkpt><trkpt lat="44.5556146" lon="15.5732656"><ele>910.4</ele><time>2026-04-27T09:35:34.386Z</time></trkpt><trkpt lat="44.5556786" lon="15.5733826"><ele>910.2</ele><time>2026-04-27T09:35:36.386Z</time></trkpt><trkpt lat="44.5557383" lon="15.573506"><ele>910.0</ele><time>2026-04-27T09:35:38.386Z</time></trkpt><trkpt lat="44.5557952" lon="15.5736262"><ele>908.0</ele><time>2026-04-27T09:35:40.386Z</time></trkpt><trkpt lat="44.5558494" lon="15.5737485"><ele>906.0</ele><time>2026-04-27T09:35:42.386Z</time></trkpt><trkpt lat="44.5558963" lon="15.5738679"><ele>904.0</ele><time>2026-04-27T09:35:44.387Z</time></trkpt><trkpt lat="44.5559491" lon="15.5739924"><ele>902.0</ele><time>2026-04-27T09:35:46.386Z</time></trkpt><trkpt lat="44.5559939" lon="15.5741349"><ele>900.0</ele><time>2026-04-27T09:35:48.387Z</time></trkpt><trkpt lat="44.556049" lon="15.5742895"><ele>900.0</ele><time>2026-04-27T09:35:50.386Z</time></trkpt><trkpt lat="44.5560773" lon="15.5743741"><ele>900.0</ele><time>2026-04-27T09:35:51.386Z</time></trkpt><trkpt lat="44.5561006" lon="15.5744574"><ele>900.0</ele><time>2026-04-27T09:35:52.386Z</time></trkpt><trkpt lat="44.5561353" lon="15.57462"><ele>900.0</ele><time>2026-04-27T09:35:54.386Z</time></trkpt><trkpt lat="44.556153" lon="15.5747091"><ele>900.0</ele><time>2026-04-27T09:35:55.386Z</time></trkpt><trkpt lat="44.5561762" lon="15.5748775"><ele>900.0</ele><time>2026-04-27T09:35:57.387Z</time></trkpt><trkpt lat="44.5562061" lon="15.5749939"><ele>899.7142857142858</ele><time>2026-04-27T09:35:58.387Z</time></trkpt><trkpt lat="44.5562309" lon="15.5751047"><ele>899.4285714285714</ele><time>2026-04-27T09:35:59.386Z</time></trkpt><trkpt lat="44.556236" lon="15.5751976"><ele>899.1428571428571</ele><time>2026-04-27T09:36:00.387Z</time></trkpt><trkpt lat="44.5562247" lon="15.5752908"><ele>898.8571428571429</ele><time>2026-04-27T09:36:01.386Z</time></trkpt><trkpt lat="44.5561812" lon="15.5753919"><ele>898.5714285714284</ele><time>2026-04-27T09:36:02.386Z</time></trkpt><trkpt lat="44.5561379" lon="15.5754909"><ele>898.2857142857142</ele><time>2026-04-27T09:36:03.386Z</time></trkpt><trkpt lat="44.5561036" lon="15.5755694"><ele>898.0</ele><time>2026-04-27T09:36:04.387Z</time></trkpt><trkpt lat="44.5560784" lon="15.5756585"><ele>898.0</ele><time>2026-04-27T09:36:05.386Z</time></trkpt><trkpt lat="44.5560603" lon="15.5758088"><ele>898.0</ele><time>2026-04-27T09:36:07.387Z</time></trkpt><trkpt lat="44.5561247" lon="15.5759595"><ele>898.0</ele><time>2026-04-27T09:36:09.386Z</time></trkpt><trkpt lat="44.5561676" lon="15.576039"><ele>898.0</ele><time>2026-04-27T09:36:10.386Z</time></trkpt><trkpt lat="44.5562358" lon="15.5761142"><ele>898.0</ele><time>2026-04-27T09:36:11.386Z</time></trkpt><trkpt lat="44.5563121" lon="15.5762058"><ele>897.4</ele><time>2026-04-27T09:36:12.386Z</time></trkpt><trkpt lat="44.5563621" lon="15.5763176"><ele>896.8</ele><time>2026-04-27T09:36:13.387Z</time></trkpt><trkpt lat="44.5564087" lon="15.576448"><ele>896.2</ele><time>2026-04-27T09:36:14.386Z</time></trkpt><trkpt lat="44.5564487" lon="15.5765677"><ele>895.6</ele><time>2026-04-27T09:36:15.386Z</time></trkpt><trkpt lat="44.5565162" lon="15.5767292"><ele>895.0</ele><time>2026-04-27T09:36:16.386Z</time></trkpt><trkpt lat="44.556566" lon="15.5768511"><ele>895.0</ele><time>2026-04-27T09:36:17.386Z</time></trkpt><trkpt lat="44.5565897" lon="15.5770158"><ele>895.0</ele><time>2026-04-27T09:36:18.386Z</time></trkpt><trkpt lat="44.5566217" lon="15.5771659"><ele>895.0</ele><time>2026-04-27T09:36:19.386Z</time></trkpt><trkpt lat="44.5566428" lon="15.5773128"><ele>895.0</ele><time>2026-04-27T09:36:20.386Z</time></trkpt><trkpt lat="44.5566544" lon="15.5774335"><ele>895.0</ele><time>2026-04-27T09:36:21.387Z</time></trkpt><trkpt lat="44.5566618" lon="15.57755"><ele>894.3333333333333</ele><time>2026-04-27T09:36:22.386Z</time></trkpt><trkpt lat="44.5566306" lon="15.577645"><ele>893.6666666666666</ele><time>2026-04-27T09:36:23.386Z</time></trkpt><trkpt lat="44.5565974" lon="15.577724"><ele>893.0</ele><time>2026-04-27T09:36:24.386Z</time></trkpt><trkpt lat="44.55655" lon="15.5777927"><ele>892.3333333333333</ele><time>2026-04-27T09:36:25.386Z</time></trkpt><trkpt lat="44.5564478" lon="15.5778352"><ele>891.6666666666666</ele><time>2026-04-27T09:36:26.387Z</time></trkpt><trkpt lat="44.5563787" lon="15.5778639"><ele>891.0</ele><time>2026-04-27T09:36:27.386Z</time></trkpt><trkpt lat="44.5562771" lon="15.5779409"><ele>890.0</ele><time>2026-04-27T09:36:29.386Z</time></trkpt><trkpt lat="44.556231" lon="15.5780247"><ele>889.0</ele><time>2026-04-27T09:36:31.387Z</time></trkpt><trkpt lat="44.5562767" lon="15.5780951"><ele>888.0</ele><time>2026-04-27T09:36:33.387Z</time></trkpt><trkpt lat="44.5563698" lon="15.5780886"><ele>887.0</ele><time>2026-04-27T09:36:35.386Z</time></trkpt><trkpt lat="44.5564458" lon="15.5780721"><ele>886.0</ele><time>2026-04-27T09:36:36.386Z</time></trkpt><trkpt lat="44.5565207" lon="15.578063"><ele>885.0</ele><time>2026-04-27T09:36:37.386Z</time></trkpt><trkpt lat="44.5565861" lon="15.5780713"><ele>885.0</ele><time>2026-04-27T09:36:38.386Z</time></trkpt><trkpt lat="44.5566446" lon="15.5781072"><ele>885.0</ele><time>2026-04-27T09:36:39.387Z</time></trkpt><trkpt lat="44.5566971" lon="15.578158"><ele>885.0</ele><time>2026-04-27T09:36:40.386Z</time></trkpt><trkpt lat="44.5567467" lon="15.5782848"><ele>885.0</ele><time>2026-04-27T09:36:42.386Z</time></trkpt><trkpt lat="44.5567774" lon="15.5784735"><ele>885.0</ele><time>2026-04-27T09:36:44.386Z</time></trkpt><trkpt lat="44.5567909" lon="15.5785638"><ele>885.0</ele><time>2026-04-27T09:36:45.386Z</time></trkpt><trkpt lat="44.5568182" lon="15.5786478"><ele>883.6666666666666</ele><time>2026-04-27T09:36:46.386Z</time></trkpt><trkpt lat="44.5568566" lon="15.5787462"><ele>882.3333333333333</ele><time>2026-04-27T09:36:47.387Z</time></trkpt><trkpt lat="44.5568973" lon="15.5788426"><ele>881.0</ele><time>2026-04-27T09:36:48.386Z</time></trkpt><trkpt lat="44.5569314" lon="15.5789443"><ele>879.6666666666666</ele><time>2026-04-27T09:36:49.387Z</time></trkpt><trkpt lat="44.5569503" lon="15.5790605"><ele>878.3333333333333</ele><time>2026-04-27T09:36:50.387Z</time></trkpt><trkpt lat="44.5569542" lon="15.5792075"><ele>877.0</ele><time>2026-04-27T09:36:51.387Z</time></trkpt><trkpt lat="44.5569589" lon="15.5793669"><ele>876.9999999999999</ele><time>2026-04-27T09:36:52.386Z</time></trkpt><trkpt lat="44.556966" lon="15.5795002"><ele>877.0</ele><time>2026-04-27T09:36:53.387Z</time></trkpt><trkpt lat="44.5569681" lon="15.5796287"><ele>877.0</ele><time>2026-04-27T09:36:54.386Z</time></trkpt><trkpt lat="44.556975" lon="15.5797577"><ele>877.0</ele><time>2026-04-27T09:36:55.386Z</time></trkpt><trkpt lat="44.556985" lon="15.5798699"><ele>876.9999999999999</ele><time>2026-04-27T09:36:56.387Z</time></trkpt><trkpt lat="44.5569932" lon="15.5799736"><ele>877.0</ele><time>2026-04-27T09:36:57.386Z</time></trkpt><trkpt lat="44.5570129" lon="15.5800626"><ele>876.8</ele><time>2026-04-27T09:36:58.386Z</time></trkpt><trkpt lat="44.5570346" lon="15.5801481"><ele>876.6</ele><time>2026-04-27T09:36:59.386Z</time></trkpt><trkpt lat="44.557063" lon="15.5802367"><ele>876.3999999999999</ele><time>2026-04-27T09:37:00.386Z</time></trkpt><trkpt lat="44.5571282" lon="15.5803406"><ele>876.1999999999999</ele><time>2026-04-27T09:37:01.386Z</time></trkpt><trkpt lat="44.5572169" lon="15.5804631"><ele>876.0</ele><time>2026-04-27T09:37:02.386Z</time></trkpt><trkpt lat="44.5572879" lon="15.5805901"><ele>875.0</ele><time>2026-04-27T09:37:03.387Z</time></trkpt><trkpt lat="44.5573789" lon="15.5807258"><ele>873.9999999999999</ele><time>2026-04-27T09:37:04.386Z</time></trkpt><trkpt lat="44.557442" lon="15.5808289"><ele>872.9999999999999</ele><time>2026-04-27T09:37:05.386Z</time></trkpt><trkpt lat="44.5575027" lon="15.5809299"><ele>872.0</ele><time>2026-04-27T09:37:06.386Z</time></trkpt><trkpt lat="44.5575525" lon="15.5810316"><ele>871.0</ele><time>2026-04-27T09:37:07.386Z</time></trkpt><trkpt lat="44.5575918" lon="15.5811385"><ele>870.4</ele><time>2026-04-27T09:37:08.386Z</time></trkpt><trkpt lat="44.5576198" lon="15.5812554"><ele>869.8</ele><time>2026-04-27T09:37:09.386Z</time></trkpt><trkpt lat="44.5576439" lon="15.5813854"><ele>869.1999999999999</ele><time>2026-04-27T09:37:10.386Z</time></trkpt><trkpt lat="44.5576486" lon="15.5815396"><ele>868.5999999999999</ele><time>2026-04-27T09:37:11.386Z</time></trkpt><trkpt lat="44.5576489" lon="15.5816835"><ele>868.0</ele><time>2026-04-27T09:37:12.386Z</time></trkpt><trkpt lat="44.5576594" lon="15.5818632"><ele>868.0</ele><time>2026-04-27T09:37:13.386Z</time></trkpt><trkpt lat="44.5576799" lon="15.5820187"><ele>868.0</ele><time>2026-04-27T09:37:14.386Z</time></trkpt><trkpt lat="44.5576973" lon="15.5821506"><ele>868.0</ele><time>2026-04-27T09:37:15.386Z</time></trkpt><trkpt lat="44.5577045" lon="15.5822768"><ele>868.0</ele><time>2026-04-27T09:37:16.386Z</time></trkpt><trkpt lat="44.5577145" lon="15.5823874"><ele>868.0</ele><time>2026-04-27T09:37:17.386Z</time></trkpt><trkpt lat="44.5577442" lon="15.5825064"><ele>868.0</ele><time>2026-04-27T09:37:18.386Z</time></trkpt><trkpt lat="44.5577685" lon="15.5825936"><ele>868.0</ele><time>2026-04-27T09:37:19.386Z</time></trkpt><trkpt lat="44.557799" lon="15.5826714"><ele>868.0</ele><time>2026-04-27T09:37:20.386Z</time></trkpt><trkpt lat="44.557841" lon="15.5827423"><ele>868.0</ele><time>2026-04-27T09:37:21.387Z</time></trkpt><trkpt lat="44.5578902" lon="15.5828232"><ele>868.0</ele><time>2026-04-27T09:37:22.386Z</time></trkpt><trkpt lat="44.5579216" lon="15.5829092"><ele>868.0</ele><time>2026-04-27T09:37:23.386Z</time></trkpt><trkpt lat="44.5579352" lon="15.5830061"><ele>868.0</ele><time>2026-04-27T09:37:24.387Z</time></trkpt><trkpt lat="44.5579395" lon="15.5831175"><ele>868.3333333333333</ele><time>2026-04-27T09:37:25.386Z</time></trkpt><trkpt lat="44.5579152" lon="15.5832469"><ele>868.6666666666666</ele><time>2026-04-27T09:37:26.386Z</time></trkpt><trkpt lat="44.5579158" lon="15.5833461"><ele>869.0</ele><time>2026-04-27T09:37:27.386Z</time></trkpt><trkpt lat="44.5579168" lon="15.5834526"><ele>869.3333333333333</ele><time>2026-04-27T09:37:28.386Z</time></trkpt><trkpt lat="44.557929" lon="15.5835533"><ele>869.6666666666666</ele><time>2026-04-27T09:37:29.386Z</time></trkpt><trkpt lat="44.5579528" lon="15.5836642"><ele>870.0</ele><time>2026-04-27T09:37:30.386Z</time></trkpt><trkpt lat="44.5579929" lon="15.5837837"><ele>870.0</ele><time>2026-04-27T09:37:31.386Z</time></trkpt><trkpt lat="44.5580364" lon="15.5838942"><ele>870.0</ele><time>2026-04-27T09:37:32.387Z</time></trkpt><trkpt lat="44.5580742" lon="15.5840089"><ele>870.0</ele><time>2026-04-27T09:37:33.386Z</time></trkpt><trkpt lat="44.5581114" lon="15.5841035"><ele>870.0</ele><time>2026-04-27T09:37:34.387Z</time></trkpt><trkpt lat="44.5581406" lon="15.5841885"><ele>870.0</ele><time>2026-04-27T09:37:35.386Z</time></trkpt><trkpt lat="44.5581584" lon="15.5842808"><ele>870.0</ele><time>2026-04-27T09:37:36.386Z</time></trkpt><trkpt lat="44.5581594" lon="15.5843706"><ele>870.0</ele><time>2026-04-27T09:37:37.386Z</time></trkpt><trkpt lat="44.5581673" lon="15.5844701"><ele>870.0</ele><time>2026-04-27T09:37:38.387Z</time></trkpt><trkpt lat="44.5582056" lon="15.5846085"><ele>870.0</ele><time>2026-04-27T09:37:39.387Z</time></trkpt><trkpt lat="44.5582507" lon="15.5847724"><ele>870.0</ele><time>2026-04-27T09:37:40.387Z</time></trkpt><trkpt lat="44.5582903" lon="15.5849053"><ele>870.0</ele><time>2026-04-27T09:37:41.386Z</time></trkpt><trkpt lat="44.5583288" lon="15.5850374"><ele>870.0</ele><time>2026-04-27T09:37:42.386Z</time></trkpt><trkpt lat="44.5583467" lon="15.5851708"><ele>870.0</ele><time>2026-04-27T09:37:43.386Z</time></trkpt><trkpt lat="44.5583556" lon="15.5853101"><ele>870.0</ele><time>2026-04-27T09:37:44.386Z</time></trkpt><trkpt lat="44.5583401" lon="15.5854383"><ele>870.0</ele><time>2026-04-27T09:37:45.386Z</time></trkpt><trkpt lat="44.5583165" lon="15.5855473"><ele>870.0</ele><time>2026-04-27T09:37:46.386Z</time></trkpt><trkpt lat="44.5582768" lon="15.5856368"><ele>870.0</ele><time>2026-04-27T09:37:47.387Z</time></trkpt><trkpt lat="44.5582186" lon="15.585737"><ele>870.0</ele><time>2026-04-27T09:37:48.387Z</time></trkpt><trkpt lat="44.5581632" lon="15.585854"><ele>870.0</ele><time>2026-04-27T09:37:49.386Z</time></trkpt><trkpt lat="44.5581211" lon="15.5859715"><ele>870.0</ele><time>2026-04-27T09:37:50.387Z</time></trkpt><trkpt lat="44.5580805" lon="15.5860984"><ele>870.0</ele><time>2026-04-27T09:37:51.387Z</time></trkpt><trkpt lat="44.5580465" lon="15.5862126"><ele>870.0</ele><time>2026-04-27T09:37:52.386Z</time></trkpt><trkpt lat="44.5580201" lon="15.5863239"><ele>869.8333333333334</ele><time>2026-04-27T09:37:53.387Z</time></trkpt><trkpt lat="44.5579999" lon="15.5864308"><ele>869.6666666666667</ele><time>2026-04-27T09:37:54.386Z</time></trkpt><trkpt lat="44.5579965" lon="15.586549"><ele>869.5</ele><time>2026-04-27T09:37:55.386Z</time></trkpt><trkpt lat="44.5580067" lon="15.5866953"><ele>869.3333333333334</ele><time>2026-04-27T09:37:56.387Z</time></trkpt><trkpt lat="44.5580137" lon="15.586813"><ele>869.1666666666667</ele><time>2026-04-27T09:37:57.386Z</time></trkpt><trkpt lat="44.5580143" lon="15.5869178"><ele>869.0</ele><time>2026-04-27T09:37:58.386Z</time></trkpt><trkpt lat="44.55804" lon="15.5870583"><ele>868.4000000000001</ele><time>2026-04-27T09:38:00.386Z</time></trkpt><trkpt lat="44.5580895" lon="15.58716"><ele>867.8000000000001</ele><time>2026-04-27T09:38:02.387Z</time></trkpt><trkpt lat="44.5581836" lon="15.5872438"><ele>867.1999999999999</ele><time>2026-04-27T09:38:04.386Z</time></trkpt><trkpt lat="44.5582568" lon="15.5873161"><ele>866.5999999999999</ele><time>2026-04-27T09:38:05.386Z</time></trkpt><trkpt lat="44.5583244" lon="15.5874016"><ele>866.0</ele><time>2026-04-27T09:38:06.386Z</time></trkpt><trkpt lat="44.5583823" lon="15.5874672"><ele>866.0</ele><time>2026-04-27T09:38:07.387Z</time></trkpt><trkpt lat="44.5584486" lon="15.5876138"><ele>866.0</ele><time>2026-04-27T09:38:09.387Z</time></trkpt><trkpt lat="44.5584553" lon="15.587795"><ele>866.0</ele><time>2026-04-27T09:38:11.387Z</time></trkpt><trkpt lat="44.5583876" lon="15.5879474"><ele>866.0</ele><time>2026-04-27T09:38:13.387Z</time></trkpt><trkpt lat="44.5583335" lon="15.5880312"><ele>866.5000000000001</ele><time>2026-04-27T09:38:14.387Z</time></trkpt><trkpt lat="44.5582719" lon="15.5881078"><ele>867.0</ele><time>2026-04-27T09:38:15.386Z</time></trkpt><trkpt lat="44.5582084" lon="15.5881846"><ele>867.5</ele><time>2026-04-27T09:38:16.386Z</time></trkpt><trkpt lat="44.5581544" lon="15.5882668"><ele>868.0</ele><time>2026-04-27T09:38:17.387Z</time></trkpt><trkpt lat="44.5581192" lon="15.5883493"><ele>868.5000000000001</ele><time>2026-04-27T09:38:18.386Z</time></trkpt><trkpt lat="44.5580999" lon="15.5884446"><ele>869.0</ele><time>2026-04-27T09:38:19.386Z</time></trkpt><trkpt lat="44.5580934" lon="15.588566"><ele>869.25</ele><time>2026-04-27T09:38:20.386Z</time></trkpt><trkpt lat="44.5581113" lon="15.5887281"><ele>869.5</ele><time>2026-04-27T09:38:21.386Z</time></trkpt><trkpt lat="44.5581197" lon="15.5888909"><ele>869.75</ele><time>2026-04-27T09:38:22.386Z</time></trkpt><trkpt lat="44.5581361" lon="15.5890574"><ele>870.0</ele><time>2026-04-27T09:38:23.386Z</time></trkpt><trkpt lat="44.5581537" lon="15.589198"><ele>870.0</ele><time>2026-04-27T09:38:24.386Z</time></trkpt><trkpt lat="44.5581735" lon="15.5893372"><ele>870.0</ele><time>2026-04-27T09:38:25.386Z</time></trkpt><trkpt lat="44.5581897" lon="15.5894667"><ele>870.0</ele><time>2026-04-27T09:38:26.387Z</time></trkpt><trkpt lat="44.5582037" lon="15.589586"><ele>870.0</ele><time>2026-04-27T09:38:27.386Z</time></trkpt><trkpt lat="44.5582121" lon="15.5896994"><ele>870.0</ele><time>2026-04-27T09:38:28.386Z</time></trkpt><trkpt lat="44.5582116" lon="15.5898139"><ele>870.0</ele><time>2026-04-27T09:38:29.386Z</time></trkpt><trkpt lat="44.5581972" lon="15.5899325"><ele>869.6</ele><time>2026-04-27T09:38:30.386Z</time></trkpt><trkpt lat="44.5581787" lon="15.5900596"><ele>869.2</ele><time>2026-04-27T09:38:31.386Z</time></trkpt><trkpt lat="44.5581512" lon="15.5901794"><ele>868.8</ele><time>2026-04-27T09:38:32.387Z</time></trkpt><trkpt lat="44.5581159" lon="15.5902967"><ele>868.4</ele><time>2026-04-27T09:38:33.387Z</time></trkpt><trkpt lat="44.5580677" lon="15.5904254"><ele>868.0</ele><time>2026-04-27T09:38:34.386Z</time></trkpt><trkpt lat="44.5580306" lon="15.5905421"><ele>867.3333333333333</ele><time>2026-04-27T09:38:35.386Z</time></trkpt><trkpt lat="44.5580056" lon="15.5906376"><ele>866.6666666666666</ele><time>2026-04-27T09:38:36.387Z</time></trkpt><trkpt lat="44.5579694" lon="15.5907283"><ele>866.0</ele><time>2026-04-27T09:38:37.386Z</time></trkpt><trkpt lat="44.5579252" lon="15.5908149"><ele>865.3333333333333</ele><time>2026-04-27T09:38:38.386Z</time></trkpt><trkpt lat="44.557875" lon="15.5909125"><ele>864.6666666666666</ele><time>2026-04-27T09:38:39.386Z</time></trkpt><trkpt lat="44.557824" lon="15.5909836"><ele>864.0</ele><time>2026-04-27T09:38:40.386Z</time></trkpt><trkpt lat="44.55777" lon="15.5910526"><ele>863.6666666666666</ele><time>2026-04-27T09:38:41.386Z</time></trkpt><trkpt lat="44.5577012" lon="15.5911442"><ele>863.3333333333333</ele><time>2026-04-27T09:38:42.386Z</time></trkpt><trkpt lat="44.5576378" lon="15.5912379"><ele>863.0</ele><time>2026-04-27T09:38:43.386Z</time></trkpt><trkpt lat="44.5575821" lon="15.5913129"><ele>862.6666666666666</ele><time>2026-04-27T09:38:44.386Z</time></trkpt><trkpt lat="44.5575263" lon="15.5913842"><ele>862.3333333333333</ele><time>2026-04-27T09:38:45.387Z</time></trkpt><trkpt lat="44.5574861" lon="15.5914586"><ele>862.0</ele><time>2026-04-27T09:38:46.386Z</time></trkpt><trkpt lat="44.5574648" lon="15.5916113"><ele>861.4000000000001</ele><time>2026-04-27T09:38:48.386Z</time></trkpt><trkpt lat="44.5574646" lon="15.5917113"><ele>860.8000000000001</ele><time>2026-04-27T09:38:49.386Z</time></trkpt><trkpt lat="44.5574364" lon="15.59188"><ele>860.2</ele><time>2026-04-27T09:38:51.386Z</time></trkpt><trkpt lat="44.5573904" lon="15.5919889"><ele>859.6</ele><time>2026-04-27T09:38:52.386Z</time></trkpt><trkpt lat="44.5573477" lon="15.5921005"><ele>859.0</ele><time>2026-04-27T09:38:53.386Z</time></trkpt><trkpt lat="44.5573025" lon="15.5921966"><ele>858.5714285714286</ele><time>2026-04-27T09:38:54.386Z</time></trkpt><trkpt lat="44.5572567" lon="15.5922765"><ele>858.1428571428571</ele><time>2026-04-27T09:38:55.387Z</time></trkpt><trkpt lat="44.5571956" lon="15.5923392"><ele>857.7142857142858</ele><time>2026-04-27T09:38:56.387Z</time></trkpt><trkpt lat="44.557133" lon="15.5923833"><ele>857.2857142857142</ele><time>2026-04-27T09:38:57.386Z</time></trkpt><trkpt lat="44.5570676" lon="15.5924085"><ele>856.8571428571429</ele><time>2026-04-27T09:38:58.386Z</time></trkpt><trkpt lat="44.5569941" lon="15.5924129"><ele>856.4285714285714</ele><time>2026-04-27T09:38:59.386Z</time></trkpt><trkpt lat="44.5569129" lon="15.5923991"><ele>856.0</ele><time>2026-04-27T09:39:00.386Z</time></trkpt><trkpt lat="44.5568334" lon="15.5923808"><ele>855.9999999999999</ele><time>2026-04-27T09:39:01.387Z</time></trkpt><trkpt lat="44.5567574" lon="15.592363"><ele>856.0</ele><time>2026-04-27T09:39:02.387Z</time></trkpt><trkpt lat="44.5566885" lon="15.5923674"><ele>856.0</ele><time>2026-04-27T09:39:03.386Z</time></trkpt><trkpt lat="44.5566147" lon="15.5924024"><ele>856.0</ele><time>2026-04-27T09:39:04.386Z</time></trkpt><trkpt lat="44.5565422" lon="15.59245"><ele>855.9999999999999</ele><time>2026-04-27T09:39:05.386Z</time></trkpt><trkpt lat="44.5564604" lon="15.5925229"><ele>856.0</ele><time>2026-04-27T09:39:06.386Z</time></trkpt><trkpt lat="44.5563911" lon="15.5925915"><ele>855.9999999999999</ele><time>2026-04-27T09:39:07.386Z</time></trkpt><trkpt lat="44.5563296" lon="15.5926766"><ele>856.0</ele><time>2026-04-27T09:39:08.386Z</time></trkpt><trkpt lat="44.5562802" lon="15.5927595"><ele>856.0</ele><time>2026-04-27T09:39:09.386Z</time></trkpt><trkpt lat="44.5562466" lon="15.59286"><ele>856.0</ele><time>2026-04-27T09:39:10.386Z</time></trkpt><trkpt lat="44.5562228" lon="15.592965"><ele>855.9999999999999</ele><time>2026-04-27T09:39:11.386Z</time></trkpt><trkpt lat="44.5562129" lon="15.5930717"><ele>856.0</ele><time>2026-04-27T09:39:12.386Z</time></trkpt><trkpt lat="44.5562089" lon="15.5931739"><ele>855.3333333333333</ele><time>2026-04-27T09:39:13.386Z</time></trkpt><trkpt lat="44.5562247" lon="15.5932744"><ele>854.6666666666666</ele><time>2026-04-27T09:39:14.386Z</time></trkpt><trkpt lat="44.5562426" lon="15.5933801"><ele>854.0</ele><time>2026-04-27T09:39:15.386Z</time></trkpt><trkpt lat="44.5562641" lon="15.5934918"><ele>853.3333333333333</ele><time>2026-04-27T09:39:16.387Z</time></trkpt><trkpt lat="44.5562744" lon="15.5936046"><ele>852.6666666666666</ele><time>2026-04-27T09:39:17.386Z</time></trkpt><trkpt lat="44.5562815" lon="15.5937155"><ele>852.0</ele><time>2026-04-27T09:39:18.387Z</time></trkpt><trkpt lat="44.5562757" lon="15.5938195"><ele>851.1666666666666</ele><time>2026-04-27T09:39:19.387Z</time></trkpt><trkpt lat="44.5562515" lon="15.5939361"><ele>850.3333333333333</ele><time>2026-04-27T09:39:20.386Z</time></trkpt><trkpt lat="44.556221" lon="15.5940542"><ele>849.5</ele><time>2026-04-27T09:39:21.386Z</time></trkpt><trkpt lat="44.5561972" lon="15.5941687"><ele>848.6666666666666</ele><time>2026-04-27T09:39:22.386Z</time></trkpt><trkpt lat="44.5561601" lon="15.5942857"><ele>847.8333333333333</ele><time>2026-04-27T09:39:23.386Z</time></trkpt><trkpt lat="44.5561085" lon="15.5943925"><ele>847.0</ele><time>2026-04-27T09:39:24.387Z</time></trkpt><trkpt lat="44.5560488" lon="15.5945078"><ele>849.6</ele><time>2026-04-27T09:39:25.386Z</time></trkpt><trkpt lat="44.5559992" lon="15.5946131"><ele>852.2</ele><time>2026-04-27T09:39:26.386Z</time></trkpt><trkpt lat="44.5559282" lon="15.5947242"><ele>854.8</ele><time>2026-04-27T09:39:27.386Z</time></trkpt><trkpt lat="44.5558817" lon="15.5948184"><ele>857.4</ele><time>2026-04-27T09:39:28.386Z</time></trkpt><trkpt lat="44.5557984" lon="15.5949109"><ele>860.0</ele><time>2026-04-27T09:39:29.386Z</time></trkpt><trkpt lat="44.5557117" lon="15.5950121"><ele>860.0000000000001</ele><time>2026-04-27T09:39:30.386Z</time></trkpt><trkpt lat="44.5556415" lon="15.5950752"><ele>860.0</ele><time>2026-04-27T09:39:31.386Z</time></trkpt><trkpt lat="44.555576" lon="15.5951453"><ele>860.0</ele><time>2026-04-27T09:39:32.386Z</time></trkpt><trkpt lat="44.5555215" lon="15.5952356"><ele>860.0</ele><time>2026-04-27T09:39:33.386Z</time></trkpt><trkpt lat="44.5554718" lon="15.5953243"><ele>860.0000000000001</ele><time>2026-04-27T09:39:34.386Z</time></trkpt><trkpt lat="44.5554491" lon="15.5954571"><ele>860.0</ele><time>2026-04-27T09:39:35.387Z</time></trkpt><trkpt lat="44.5554326" lon="15.5955629"><ele>859.0000000000001</ele><time>2026-04-27T09:39:36.386Z</time></trkpt><trkpt lat="44.5554059" lon="15.5956726"><ele>858.0</ele><time>2026-04-27T09:39:37.387Z</time></trkpt><trkpt lat="44.5553942" lon="15.5957809"><ele>857.0</ele><time>2026-04-27T09:39:38.387Z</time></trkpt><trkpt lat="44.5553481" lon="15.5958862"><ele>856.0</ele><time>2026-04-27T09:39:39.387Z</time></trkpt><trkpt lat="44.5553203" lon="15.5959869"><ele>855.0000000000001</ele><time>2026-04-27T09:39:40.386Z</time></trkpt><trkpt lat="44.5552825" lon="15.5960753"><ele>854.0</ele><time>2026-04-27T09:39:41.387Z</time></trkpt><trkpt lat="44.5551853" lon="15.5961798"><ele>856.1666666666667</ele><time>2026-04-27T09:39:43.386Z</time></trkpt><trkpt lat="44.5551372" lon="15.596239"><ele>858.3333333333334</ele><time>2026-04-27T09:39:44.386Z</time></trkpt><trkpt lat="44.5550954" lon="15.5963121"><ele>860.5</ele><time>2026-04-27T09:39:45.386Z</time></trkpt><trkpt lat="44.5550866" lon="15.5964056"><ele>862.6666666666667</ele><time>2026-04-27T09:39:46.386Z</time></trkpt><trkpt lat="44.5550739" lon="15.5965233"><ele>864.8333333333334</ele><time>2026-04-27T09:39:47.386Z</time></trkpt><trkpt lat="44.555076" lon="15.5966359"><ele>867.0</ele><time>2026-04-27T09:39:48.386Z</time></trkpt><trkpt lat="44.5550675" lon="15.5967895"><ele>867.0</ele><time>2026-04-27T09:39:49.386Z</time></trkpt><trkpt lat="44.5550484" lon="15.5969606"><ele>867.0</ele><time>2026-04-27T09:39:50.386Z</time></trkpt><trkpt lat="44.5550194" lon="15.5971449"><ele>867.0</ele><time>2026-04-27T09:39:51.386Z</time></trkpt><trkpt lat="44.5549827" lon="15.5973089"><ele>867.0</ele><time>2026-04-27T09:39:52.386Z</time></trkpt><trkpt lat="44.5549436" lon="15.5974722"><ele>866.1666666666666</ele><time>2026-04-27T09:39:53.386Z</time></trkpt><trkpt lat="44.5549228" lon="15.5976012"><ele>865.3333333333333</ele><time>2026-04-27T09:39:54.386Z</time></trkpt><trkpt lat="44.5548912" lon="15.5977103"><ele>864.5</ele><time>2026-04-27T09:39:55.386Z</time></trkpt><trkpt lat="44.5548571" lon="15.5978258"><ele>863.6666666666666</ele><time>2026-04-27T09:39:56.387Z</time></trkpt><trkpt lat="44.5548248" lon="15.5979108"><ele>862.8333333333333</ele><time>2026-04-27T09:39:57.386Z</time></trkpt><trkpt lat="44.5547846" lon="15.5979887"><ele>862.0</ele><time>2026-04-27T09:39:58.386Z</time></trkpt><trkpt lat="44.5547264" lon="15.5980623"><ele>861.9999999999999</ele><time>2026-04-27T09:39:59.386Z</time></trkpt><trkpt lat="44.5546826" lon="15.598156"><ele>862.0</ele><time>2026-04-27T09:40:00.387Z</time></trkpt><trkpt lat="44.5546308" lon="15.5982679"><ele>862.0</ele><time>2026-04-27T09:40:01.386Z</time></trkpt><trkpt lat="44.5546058" lon="15.5983876"><ele>862.0</ele><time>2026-04-27T09:40:02.387Z</time></trkpt><trkpt lat="44.5545931" lon="15.598509"><ele>861.9999999999999</ele><time>2026-04-27T09:40:03.386Z</time></trkpt><trkpt lat="44.5545895" lon="15.5986424"><ele>862.0</ele><time>2026-04-27T09:40:04.387Z</time></trkpt><trkpt lat="44.554565" lon="15.5987598"><ele>862.0</ele><time>2026-04-27T09:40:05.386Z</time></trkpt><trkpt lat="44.5545507" lon="15.5988691"><ele>862.0</ele><time>2026-04-27T09:40:06.386Z</time></trkpt><trkpt lat="44.5545203" lon="15.5989988"><ele>862.0</ele><time>2026-04-27T09:40:07.386Z</time></trkpt><trkpt lat="44.5544672" lon="15.5991183"><ele>862.0</ele><time>2026-04-27T09:40:08.386Z</time></trkpt><trkpt lat="44.5544115" lon="15.5992552"><ele>862.0</ele><time>2026-04-27T09:40:09.387Z</time></trkpt><trkpt lat="44.5543473" lon="15.5993671"><ele>861.4000000000001</ele><time>2026-04-27T09:40:10.386Z</time></trkpt><trkpt lat="44.5542813" lon="15.5994776"><ele>860.8000000000001</ele><time>2026-04-27T09:40:11.386Z</time></trkpt><trkpt lat="44.5542297" lon="15.5995832"><ele>860.2</ele><time>2026-04-27T09:40:12.386Z</time></trkpt><trkpt lat="44.5541878" lon="15.5997026"><ele>859.6</ele><time>2026-04-27T09:40:13.386Z</time></trkpt><trkpt lat="44.5541719" lon="15.5998225"><ele>859.0</ele><time>2026-04-27T09:40:14.387Z</time></trkpt><trkpt lat="44.5541432" lon="15.5999461"><ele>858.9999999999999</ele><time>2026-04-27T09:40:15.386Z</time></trkpt><trkpt lat="44.5541381" lon="15.6000578"><ele>859.0</ele><time>2026-04-27T09:40:16.387Z</time></trkpt><trkpt lat="44.5541423" lon="15.6001692"><ele>859.0</ele><time>2026-04-27T09:40:17.386Z</time></trkpt><trkpt lat="44.554156" lon="15.6002729"><ele>859.0</ele><time>2026-04-27T09:40:18.386Z</time></trkpt><trkpt lat="44.5541765" lon="15.6003692"><ele>858.9999999999999</ele><time>2026-04-27T09:40:19.387Z</time></trkpt><trkpt lat="44.5542131" lon="15.6004792"><ele>859.0</ele><time>2026-04-27T09:40:20.386Z</time></trkpt><trkpt lat="44.5542527" lon="15.60059"><ele>857.9999999999999</ele><time>2026-04-27T09:40:21.386Z</time></trkpt><trkpt lat="44.5543033" lon="15.6006987"><ele>857.0</ele><time>2026-04-27T09:40:22.386Z</time></trkpt><trkpt lat="44.5543541" lon="15.6007996"><ele>856.0</ele><time>2026-04-27T09:40:23.387Z</time></trkpt><trkpt lat="44.5544012" lon="15.6009013"><ele>855.0</ele><time>2026-04-27T09:40:24.386Z</time></trkpt><trkpt lat="44.5544286" lon="15.6010164"><ele>853.9999999999999</ele><time>2026-04-27T09:40:25.386Z</time></trkpt><trkpt lat="44.5544509" lon="15.6011211"><ele>853.0</ele><time>2026-04-27T09:40:26.386Z</time></trkpt><trkpt lat="44.5544848" lon="15.601213"><ele>852.9999999999999</ele><time>2026-04-27T09:40:27.387Z</time></trkpt><trkpt lat="44.5545205" lon="15.6012929"><ele>853.0</ele><time>2026-04-27T09:40:28.386Z</time></trkpt><trkpt lat="44.5545755" lon="15.6013618"><ele>853.0</ele><time>2026-04-27T09:40:29.387Z</time></trkpt><trkpt lat="44.5546342" lon="15.6014411"><ele>853.0</ele><time>2026-04-27T09:40:30.386Z</time></trkpt><trkpt lat="44.5547094" lon="15.6015241"><ele>852.9999999999999</ele><time>2026-04-27T09:40:31.386Z</time></trkpt><trkpt lat="44.5547875" lon="15.601601"><ele>853.0</ele><time>2026-04-27T09:40:32.386Z</time></trkpt><trkpt lat="44.5548563" lon="15.6016816"><ele>852.9999999999999</ele><time>2026-04-27T09:40:33.386Z</time></trkpt><trkpt lat="44.5549258" lon="15.6017554"><ele>853.0</ele><time>2026-04-27T09:40:34.386Z</time></trkpt><trkpt lat="44.5549956" lon="15.6018118"><ele>853.0</ele><time>2026-04-27T09:40:35.386Z</time></trkpt><trkpt lat="44.555071" lon="15.6018565"><ele>853.0</ele><time>2026-04-27T09:40:36.387Z</time></trkpt><trkpt lat="44.5551537" lon="15.6019076"><ele>852.9999999999999</ele><time>2026-04-27T09:40:37.386Z</time></trkpt><trkpt lat="44.5552331" lon="15.6019525"><ele>853.0</ele><time>2026-04-27T09:40:38.386Z</time></trkpt><trkpt lat="44.5553116" lon="15.6019748"><ele>852.4999999999999</ele><time>2026-04-27T09:40:39.386Z</time></trkpt><trkpt lat="44.5553904" lon="15.6019898"><ele>852.0</ele><time>2026-04-27T09:40:40.387Z</time></trkpt><trkpt lat="44.5554746" lon="15.6019837"><ele>851.5</ele><time>2026-04-27T09:40:41.386Z</time></trkpt><trkpt lat="44.5555601" lon="15.6019741"><ele>851.0</ele><time>2026-04-27T09:40:42.386Z</time></trkpt><trkpt lat="44.5556589" lon="15.6019667"><ele>850.4999999999999</ele><time>2026-04-27T09:40:43.386Z</time></trkpt><trkpt lat="44.5557494" lon="15.601961"><ele>850.0</ele><time>2026-04-27T09:40:44.387Z</time></trkpt><trkpt lat="44.5558393" lon="15.6019496"><ele>849.9999999999999</ele><time>2026-04-27T09:40:45.387Z</time></trkpt><trkpt lat="44.5559163" lon="15.6019433"><ele>850.0</ele><time>2026-04-27T09:40:46.387Z</time></trkpt><trkpt lat="44.5559894" lon="15.6019246"><ele>850.0</ele><time>2026-04-27T09:40:47.387Z</time></trkpt><trkpt lat="44.556061" lon="15.6019001"><ele>850.0</ele><time>2026-04-27T09:40:48.386Z</time></trkpt><trkpt lat="44.5561284" lon="15.6018617"><ele>849.9999999999999</ele><time>2026-04-27T09:40:49.386Z</time></trkpt><trkpt lat="44.5562083" lon="15.6017888"><ele>850.0</ele><time>2026-04-27T09:40:50.387Z</time></trkpt><trkpt lat="44.5562914" lon="15.6017244"><ele>848.4285714285714</ele><time>2026-04-27T09:40:51.387Z</time></trkpt><trkpt lat="44.5563685" lon="15.6016642"><ele>846.8571428571429</ele><time>2026-04-27T09:40:52.386Z</time></trkpt><trkpt lat="44.5564292" lon="15.601615"><ele>845.2857142857142</ele><time>2026-04-27T09:40:53.386Z</time></trkpt><trkpt lat="44.5564919" lon="15.6015777"><ele>843.7142857142858</ele><time>2026-04-27T09:40:54.386Z</time></trkpt><trkpt lat="44.5565693" lon="15.6015851"><ele>842.1428571428572</ele><time>2026-04-27T09:40:55.386Z</time></trkpt><trkpt lat="44.5566273" lon="15.6016242"><ele>840.5714285714286</ele><time>2026-04-27T09:40:56.386Z</time></trkpt><trkpt lat="44.5566925" lon="15.6016696"><ele>839.0</ele><time>2026-04-27T09:40:57.386Z</time></trkpt><trkpt lat="44.5567597" lon="15.6016878"><ele>839.0</ele><time>2026-04-27T09:40:58.387Z</time></trkpt><trkpt lat="44.5568297" lon="15.6016407"><ele>839.0</ele><time>2026-04-27T09:40:59.386Z</time></trkpt><trkpt lat="44.5569191" lon="15.6015867"><ele>839.0</ele><time>2026-04-27T09:41:00.386Z</time></trkpt><trkpt lat="44.5570194" lon="15.6015225"><ele>839.0</ele><time>2026-04-27T09:41:01.386Z</time></trkpt><trkpt lat="44.5571206" lon="15.6014598"><ele>839.0</ele><time>2026-04-27T09:41:02.386Z</time></trkpt><trkpt lat="44.5572332" lon="15.6013875"><ele>839.6</ele><time>2026-04-27T09:41:03.387Z</time></trkpt><trkpt lat="44.5573416" lon="15.6013075"><ele>840.2</ele><time>2026-04-27T09:41:04.386Z</time></trkpt><trkpt lat="44.5574514" lon="15.6012475"><ele>840.8000000000001</ele><time>2026-04-27T09:41:05.386Z</time></trkpt><trkpt lat="44.5575535" lon="15.601187"><ele>841.4000000000001</ele><time>2026-04-27T09:41:06.386Z</time></trkpt><trkpt lat="44.5576401" lon="15.6011313"><ele>842.0</ele><time>2026-04-27T09:41:07.387Z</time></trkpt><trkpt lat="44.5577207" lon="15.6010743"><ele>842.0000000000001</ele><time>2026-04-27T09:41:08.386Z</time></trkpt><trkpt lat="44.5577903" lon="15.6010208"><ele>842.0</ele><time>2026-04-27T09:41:09.386Z</time></trkpt><trkpt lat="44.5578492" lon="15.6009589"><ele>842.0</ele><time>2026-04-27T09:41:10.386Z</time></trkpt><trkpt lat="44.5579048" lon="15.6008969"><ele>842.0</ele><time>2026-04-27T09:41:11.386Z</time></trkpt><trkpt lat="44.5579581" lon="15.6008299"><ele>842.0000000000001</ele><time>2026-04-27T09:41:12.386Z</time></trkpt><trkpt lat="44.5580061" lon="15.600732"><ele>842.0</ele><time>2026-04-27T09:41:13.387Z</time></trkpt><trkpt lat="44.558067" lon="15.6006445"><ele>841.0000000000001</ele><time>2026-04-27T09:41:14.386Z</time></trkpt><trkpt lat="44.5581364" lon="15.600555"><ele>840.0</ele><time>2026-04-27T09:41:15.386Z</time></trkpt><trkpt lat="44.5582045" lon="15.6004887"><ele>839.0</ele><time>2026-04-27T09:41:16.386Z</time></trkpt><trkpt lat="44.5582761" lon="15.6004191"><ele>838.0</ele><time>2026-04-27T09:41:17.386Z</time></trkpt><trkpt lat="44.5583439" lon="15.6003609"><ele>837.0000000000001</ele><time>2026-04-27T09:41:18.386Z</time></trkpt><trkpt lat="44.5584025" lon="15.6002999"><ele>836.0</ele><time>2026-04-27T09:41:19.386Z</time></trkpt><trkpt lat="44.5584536" lon="15.6002417"><ele>836.0</ele><time>2026-04-27T09:41:20.387Z</time></trkpt><trkpt lat="44.5585261" lon="15.600114"><ele>836.0</ele><time>2026-04-27T09:41:22.387Z</time></trkpt><trkpt lat="44.5585424" lon="15.5999254"><ele>836.0</ele><time>2026-04-27T09:41:24.387Z</time></trkpt><trkpt lat="44.558542" lon="15.5998323"><ele>836.0</ele><time>2026-04-27T09:41:25.386Z</time></trkpt><trkpt lat="44.5585766" lon="15.5996764"><ele>836.0</ele><time>2026-04-27T09:41:27.386Z</time></trkpt><trkpt lat="44.5586178" lon="15.5996058"><ele>834.4</ele><time>2026-04-27T09:41:28.387Z</time></trkpt><trkpt lat="44.5587301" lon="15.5995562"><ele>832.8</ele><time>2026-04-27T09:41:30.386Z</time></trkpt><trkpt lat="44.5588454" lon="15.5995477"><ele>831.1999999999999</ele><time>2026-04-27T09:41:31.386Z</time></trkpt><trkpt lat="44.5589394" lon="15.5995381"><ele>829.5999999999999</ele><time>2026-04-27T09:41:32.386Z</time></trkpt><trkpt lat="44.5590236" lon="15.5995157"><ele>828.0</ele><time>2026-04-27T09:41:33.386Z</time></trkpt><trkpt lat="44.559116" lon="15.5994959"><ele>828.0</ele><time>2026-04-27T09:41:34.386Z</time></trkpt><trkpt lat="44.5592003" lon="15.5994607"><ele>828.0</ele><time>2026-04-27T09:41:35.386Z</time></trkpt><trkpt lat="44.5592644" lon="15.5994361"><ele>828.0</ele><time>2026-04-27T09:41:36.387Z</time></trkpt><trkpt lat="44.5593322" lon="15.5993598"><ele>828.0</ele><time>2026-04-27T09:41:37.386Z</time></trkpt><trkpt lat="44.5593951" lon="15.5993055"><ele>828.0</ele><time>2026-04-27T09:41:38.387Z</time></trkpt><trkpt lat="44.5594716" lon="15.599223"><ele>828.0</ele><time>2026-04-27T09:41:39.387Z</time></trkpt><trkpt lat="44.5595265" lon="15.5991316"><ele>825.8333333333334</ele><time>2026-04-27T09:41:40.386Z</time></trkpt><trkpt lat="44.5595822" lon="15.5990363"><ele>823.6666666666667</ele><time>2026-04-27T09:41:41.386Z</time></trkpt><trkpt lat="44.5596462" lon="15.5989731"><ele>821.5</ele><time>2026-04-27T09:41:42.386Z</time></trkpt><trkpt lat="44.5597135" lon="15.5989363"><ele>819.3333333333334</ele><time>2026-04-27T09:41:43.386Z</time></trkpt><trkpt lat="44.5597992" lon="15.5989022"><ele>817.1666666666667</ele><time>2026-04-27T09:41:44.387Z</time></trkpt><trkpt lat="44.5598726" lon="15.5989107"><ele>815.0</ele><time>2026-04-27T09:41:45.386Z</time></trkpt><trkpt lat="44.5599662" lon="15.5989166"><ele>815.0000000000001</ele><time>2026-04-27T09:41:46.386Z</time></trkpt><trkpt lat="44.5600583" lon="15.598947"><ele>815.0</ele><time>2026-04-27T09:41:47.386Z</time></trkpt><trkpt lat="44.5601499" lon="15.5989569"><ele>815.0</ele><time>2026-04-27T09:41:48.386Z</time></trkpt><trkpt lat="44.5602409" lon="15.5989599"><ele>815.0</ele><time>2026-04-27T09:41:49.386Z</time></trkpt><trkpt lat="44.560325" lon="15.5989503"><ele>815.0000000000001</ele><time>2026-04-27T09:41:50.386Z</time></trkpt><trkpt lat="44.5604033" lon="15.5989441"><ele>815.0</ele><time>2026-04-27T09:41:51.386Z</time></trkpt><trkpt lat="44.5604885" lon="15.5989696"><ele>813.25</ele><time>2026-04-27T09:41:53.386Z</time></trkpt><trkpt lat="44.5604975" lon="15.5991018"><ele>811.5</ele><time>2026-04-27T09:41:56.387Z</time></trkpt><trkpt lat="44.560452" lon="15.5992668"><ele>809.75</ele><time>2026-04-27T09:41:58.387Z</time></trkpt><trkpt lat="44.5604457" lon="15.5994224"><ele>808.0</ele><time>2026-04-27T09:42:00.387Z</time></trkpt><trkpt lat="44.5604758" lon="15.5996007"><ele>807.2</ele><time>2026-04-27T09:42:02.386Z</time></trkpt><trkpt lat="44.5605082" lon="15.5997501"><ele>806.4</ele><time>2026-04-27T09:42:04.386Z</time></trkpt><trkpt lat="44.5604944" lon="15.5998792"><ele>805.6</ele><time>2026-04-27T09:42:06.386Z</time></trkpt><trkpt lat="44.5604418" lon="15.599989"><ele>804.8000000000001</ele><time>2026-04-27T09:42:08.386Z</time></trkpt><trkpt lat="44.560374" lon="15.6000629"><ele>804.0</ele><time>2026-04-27T09:42:09.387Z</time></trkpt><trkpt lat="44.5603031" lon="15.6001202"><ele>804.0</ele><time>2026-04-27T09:42:10.386Z</time></trkpt><trkpt lat="44.560201" lon="15.6002031"><ele>804.0</ele><time>2026-04-27T09:42:12.386Z</time></trkpt><trkpt lat="44.5600991" lon="15.6002269"><ele>804.0</ele><time>2026-04-27T09:42:14.386Z</time></trkpt><trkpt lat="44.560014" lon="15.6001554"><ele>804.0</ele><time>2026-04-27T09:42:16.386Z</time></trkpt><trkpt lat="44.5599611" lon="15.6000783"><ele>804.0</ele><time>2026-04-27T09:42:17.387Z</time></trkpt><trkpt lat="44.5598776" lon="15.5999584"><ele>804.0</ele><time>2026-04-27T09:42:19.387Z</time></trkpt><trkpt lat="44.5598137" lon="15.5999281"><ele>804.0</ele><time>2026-04-27T09:42:20.386Z</time></trkpt><trkpt lat="44.5597355" lon="15.5999055"><ele>804.0</ele><time>2026-04-27T09:42:22.386Z</time></trkpt><trkpt lat="44.5596581" lon="15.599982"><ele>804.0</ele><time>2026-04-27T09:42:24.386Z</time></trkpt><trkpt lat="44.5596185" lon="15.6000729"><ele>804.0</ele><time>2026-04-27T09:42:25.387Z</time></trkpt><trkpt lat="44.5595858" lon="15.6001949"><ele>804.0</ele><time>2026-04-27T09:42:26.386Z</time></trkpt><trkpt lat="44.5595571" lon="15.600326"><ele>802.8333333333334</ele><time>2026-04-27T09:42:27.386Z</time></trkpt><trkpt lat="44.5595202" lon="15.600426"><ele>801.6666666666667</ele><time>2026-04-27T09:42:28.386Z</time></trkpt><trkpt lat="44.5594873" lon="15.6005358"><ele>800.5</ele><time>2026-04-27T09:42:29.386Z</time></trkpt><trkpt lat="44.559446" lon="15.6006335"><ele>799.3333333333334</ele><time>2026-04-27T09:42:30.387Z</time></trkpt><trkpt lat="44.5593835" lon="15.6007203"><ele>798.1666666666667</ele><time>2026-04-27T09:42:31.386Z</time></trkpt><trkpt lat="44.5593242" lon="15.600779"><ele>797.0</ele><time>2026-04-27T09:42:32.386Z</time></trkpt><trkpt lat="44.5592649" lon="15.600829"><ele>797.0000000000001</ele><time>2026-04-27T09:42:33.386Z</time></trkpt><trkpt lat="44.5591949" lon="15.6008884"><ele>797.0</ele><time>2026-04-27T09:42:34.386Z</time></trkpt><trkpt lat="44.559136" lon="15.6009771"><ele>797.0</ele><time>2026-04-27T09:42:35.386Z</time></trkpt><trkpt lat="44.5590893" lon="15.6010793"><ele>797.0</ele><time>2026-04-27T09:42:36.386Z</time></trkpt><trkpt lat="44.5590473" lon="15.6011932"><ele>797.0000000000001</ele><time>2026-04-27T09:42:37.386Z</time></trkpt><trkpt lat="44.5590089" lon="15.6013135"><ele>797.0</ele><time>2026-04-27T09:42:38.386Z</time></trkpt><trkpt lat="44.5589829" lon="15.6014335"><ele>794.2</ele><time>2026-04-27T09:42:39.387Z</time></trkpt><trkpt lat="44.5589841" lon="15.6015226"><ele>791.4000000000001</ele><time>2026-04-27T09:42:40.386Z</time></trkpt><trkpt lat="44.55905" lon="15.6016892"><ele>788.5999999999999</ele><time>2026-04-27T09:42:42.386Z</time></trkpt><trkpt lat="44.5590933" lon="15.60177"><ele>785.8</ele><time>2026-04-27T09:42:43.386Z</time></trkpt><trkpt lat="44.5592105" lon="15.6018556"><ele>783.0</ele><time>2026-04-27T09:42:45.386Z</time></trkpt><trkpt lat="44.5592885" lon="15.6018782"><ele>783.0</ele><time>2026-04-27T09:42:46.386Z</time></trkpt><trkpt lat="44.5593857" lon="15.6019122"><ele>783.0</ele><time>2026-04-27T09:42:47.386Z</time></trkpt><trkpt lat="44.5595157" lon="15.6019145"><ele>783.0</ele><time>2026-04-27T09:42:48.387Z</time></trkpt><trkpt lat="44.5596095" lon="15.6019224"><ele>783.0</ele><time>2026-04-27T09:42:49.386Z</time></trkpt><trkpt lat="44.5596978" lon="15.6019139"><ele>783.0</ele><time>2026-04-27T09:42:50.386Z</time></trkpt><trkpt lat="44.5597657" lon="15.6019492"><ele>782.1666666666666</ele><time>2026-04-27T09:42:51.386Z</time></trkpt><trkpt lat="44.5598406" lon="15.6019917"><ele>781.3333333333333</ele><time>2026-04-27T09:42:52.386Z</time></trkpt><trkpt lat="44.5599148" lon="15.6020611"><ele>780.5</ele><time>2026-04-27T09:42:53.387Z</time></trkpt><trkpt lat="44.5599897" lon="15.6021053"><ele>779.6666666666666</ele><time>2026-04-27T09:42:54.386Z</time></trkpt><trkpt lat="44.5600691" lon="15.602144"><ele>778.8333333333333</ele><time>2026-04-27T09:42:55.386Z</time></trkpt><trkpt lat="44.5601414" lon="15.6021466"><ele>778.0</ele><time>2026-04-27T09:42:56.386Z</time></trkpt><trkpt lat="44.5602554" lon="15.6021686"><ele>777.6666666666666</ele><time>2026-04-27T09:42:58.386Z</time></trkpt><trkpt lat="44.5603316" lon="15.6022726"><ele>777.3333333333333</ele><time>2026-04-27T09:43:00.386Z</time></trkpt><trkpt lat="44.5603681" lon="15.6023551"><ele>777.0</ele><time>2026-04-27T09:43:01.386Z</time></trkpt><trkpt lat="44.5603688" lon="15.602486"><ele>776.6666666666667</ele><time>2026-04-27T09:43:02.386Z</time></trkpt><trkpt lat="44.5603786" lon="15.6025905"><ele>776.3333333333334</ele><time>2026-04-27T09:43:03.386Z</time></trkpt><trkpt lat="44.5603707" lon="15.6027044"><ele>776.0</ele><time>2026-04-27T09:43:04.387Z</time></trkpt><trkpt lat="44.5603549" lon="15.6028168"><ele>775.1666666666667</ele><time>2026-04-27T09:43:05.386Z</time></trkpt><trkpt lat="44.5603265" lon="15.6029432"><ele>774.3333333333334</ele><time>2026-04-27T09:43:06.386Z</time></trkpt><trkpt lat="44.5602977" lon="15.6030649"><ele>773.5</ele><time>2026-04-27T09:43:07.386Z</time></trkpt><trkpt lat="44.5602716" lon="15.6031794"><ele>772.6666666666667</ele><time>2026-04-27T09:43:08.386Z</time></trkpt><trkpt lat="44.5602463" lon="15.6032845"><ele>771.8333333333334</ele><time>2026-04-27T09:43:09.386Z</time></trkpt><trkpt lat="44.5602212" lon="15.6033921"><ele>771.0</ele><time>2026-04-27T09:43:10.386Z</time></trkpt><trkpt lat="44.5601804" lon="15.6034934"><ele>771.0</ele><time>2026-04-27T09:43:11.386Z</time></trkpt><trkpt lat="44.5601218" lon="15.6036192"><ele>771.0</ele><time>2026-04-27T09:43:12.386Z</time></trkpt><trkpt lat="44.5600782" lon="15.6037258"><ele>771.0</ele><time>2026-04-27T09:43:13.387Z</time></trkpt><trkpt lat="44.56003" lon="15.6038334"><ele>771.0</ele><time>2026-04-27T09:43:14.386Z</time></trkpt><trkpt lat="44.5599606" lon="15.6039658"><ele>771.0</ele><time>2026-04-27T09:43:15.387Z</time></trkpt><trkpt lat="44.5599043" lon="15.6040965"><ele>768.8</ele><time>2026-04-27T09:43:16.387Z</time></trkpt><trkpt lat="44.5598677" lon="15.6042486"><ele>766.5999999999999</ele><time>2026-04-27T09:43:17.387Z</time></trkpt><trkpt lat="44.55983" lon="15.6043817"><ele>764.4</ele><time>2026-04-27T09:43:18.386Z</time></trkpt><trkpt lat="44.5597902" lon="15.6044889"><ele>762.2</ele><time>2026-04-27T09:43:19.387Z</time></trkpt><trkpt lat="44.5597416" lon="15.6046072"><ele>760.0</ele><time>2026-04-27T09:43:20.386Z</time></trkpt><trkpt lat="44.5596847" lon="15.6047125"><ele>759.6666666666667</ele><time>2026-04-27T09:43:21.386Z</time></trkpt><trkpt lat="44.5596096" lon="15.6048193"><ele>759.3333333333334</ele><time>2026-04-27T09:43:22.386Z</time></trkpt><trkpt lat="44.5595677" lon="15.6049275"><ele>759.0</ele><time>2026-04-27T09:43:23.387Z</time></trkpt><trkpt lat="44.5595259" lon="15.6050127"><ele>758.6666666666666</ele><time>2026-04-27T09:43:24.387Z</time></trkpt><trkpt lat="44.5595138" lon="15.6051223"><ele>758.3333333333333</ele><time>2026-04-27T09:43:25.387Z</time></trkpt><trkpt lat="44.5594959" lon="15.6052294"><ele>758.0</ele><time>2026-04-27T09:43:26.387Z</time></trkpt><trkpt lat="44.55949" lon="15.6053478"><ele>757.0</ele><time>2026-04-27T09:43:27.386Z</time></trkpt><trkpt lat="44.5594705" lon="15.6054507"><ele>756.0</ele><time>2026-04-27T09:43:28.386Z</time></trkpt><trkpt lat="44.5594281" lon="15.6055497"><ele>755.0</ele><time>2026-04-27T09:43:29.386Z</time></trkpt><trkpt lat="44.5594056" lon="15.6056459"><ele>754.0</ele><time>2026-04-27T09:43:30.386Z</time></trkpt><trkpt lat="44.5593988" lon="15.6057494"><ele>753.0</ele><time>2026-04-27T09:43:31.386Z</time></trkpt><trkpt lat="44.5594063" lon="15.6058663"><ele>752.0</ele><time>2026-04-27T09:43:32.386Z</time></trkpt><trkpt lat="44.5594197" lon="15.6059716"><ele>752.0</ele><time>2026-04-27T09:43:33.386Z</time></trkpt><trkpt lat="44.5594319" lon="15.6060588"><ele>752.0</ele><time>2026-04-27T09:43:34.386Z</time></trkpt><trkpt lat="44.5594426" lon="15.6062005"><ele>752.0</ele><time>2026-04-27T09:43:36.386Z</time></trkpt><trkpt lat="44.5594249" lon="15.6062879"><ele>752.0</ele><time>2026-04-27T09:43:37.386Z</time></trkpt><trkpt lat="44.5594074" lon="15.6063732"><ele>752.0</ele><time>2026-04-27T09:43:38.386Z</time></trkpt><trkpt lat="44.5593652" lon="15.6064837"><ele>752.0</ele><time>2026-04-27T09:43:39.386Z</time></trkpt><trkpt lat="44.559327" lon="15.6066014"><ele>751.1666666666666</ele><time>2026-04-27T09:43:40.387Z</time></trkpt><trkpt lat="44.5593325" lon="15.6066935"><ele>750.3333333333333</ele><time>2026-04-27T09:43:41.386Z</time></trkpt><trkpt lat="44.55937" lon="15.6068593"><ele>749.5</ele><time>2026-04-27T09:43:43.386Z</time></trkpt><trkpt lat="44.5594009" lon="15.6069393"><ele>748.6666666666666</ele><time>2026-04-27T09:43:44.386Z</time></trkpt><trkpt lat="44.5594311" lon="15.6070195"><ele>747.8333333333334</ele><time>2026-04-27T09:43:45.387Z</time></trkpt><trkpt lat="44.5594537" lon="15.6071028"><ele>747.0</ele><time>2026-04-27T09:43:46.386Z</time></trkpt><trkpt lat="44.5594906" lon="15.6072646"><ele>746.2</ele><time>2026-04-27T09:43:48.386Z</time></trkpt><trkpt lat="44.5594641" lon="15.6074383"><ele>745.4000000000001</ele><time>2026-04-27T09:43:50.386Z</time></trkpt><trkpt lat="44.5594278" lon="15.6075442"><ele>744.5999999999999</ele><time>2026-04-27T09:43:51.386Z</time></trkpt><trkpt lat="44.5593798" lon="15.6076531"><ele>743.8</ele><time>2026-04-27T09:43:52.386Z</time></trkpt><trkpt lat="44.5593209" lon="15.6077687"><ele>743.0</ele><time>2026-04-27T09:43:53.386Z</time></trkpt><trkpt lat="44.5592673" lon="15.6078833"><ele>742.4</ele><time>2026-04-27T09:43:54.386Z</time></trkpt><trkpt lat="44.5592227" lon="15.6079929"><ele>741.8</ele><time>2026-04-27T09:43:55.386Z</time></trkpt><trkpt lat="44.5591847" lon="15.6081041"><ele>741.2</ele><time>2026-04-27T09:43:56.386Z</time></trkpt><trkpt lat="44.5591678" lon="15.6082319"><ele>740.6</ele><time>2026-04-27T09:43:57.386Z</time></trkpt><trkpt lat="44.5591664" lon="15.6083748"><ele>740.0</ele><time>2026-04-27T09:43:58.386Z</time></trkpt><trkpt lat="44.5591729" lon="15.6085563"><ele>740.25</ele><time>2026-04-27T09:43:59.386Z</time></trkpt><trkpt lat="44.5591793" lon="15.6087481"><ele>740.5</ele><time>2026-04-27T09:44:00.387Z</time></trkpt><trkpt lat="44.5591929" lon="15.6089554"><ele>740.75</ele><time>2026-04-27T09:44:01.387Z</time></trkpt><trkpt lat="44.5592024" lon="15.6091471"><ele>741.0</ele><time>2026-04-27T09:44:02.386Z</time></trkpt><trkpt lat="44.5592095" lon="15.6093221"><ele>741.0</ele><time>2026-04-27T09:44:03.386Z</time></trkpt><trkpt lat="44.559221" lon="15.6094864"><ele>741.0</ele><time>2026-04-27T09:44:04.387Z</time></trkpt><trkpt lat="44.5592443" lon="15.6096437"><ele>741.0</ele><time>2026-04-27T09:44:05.387Z</time></trkpt><trkpt lat="44.5592736" lon="15.6098001"><ele>741.0</ele><time>2026-04-27T09:44:06.386Z</time></trkpt><trkpt lat="44.559301" lon="15.6099543"><ele>740.8</ele><time>2026-04-27T09:44:07.386Z</time></trkpt><trkpt lat="44.559332" lon="15.6101059"><ele>740.5999999999999</ele><time>2026-04-27T09:44:08.386Z</time></trkpt><trkpt lat="44.5593673" lon="15.610245"><ele>740.4</ele><time>2026-04-27T09:44:09.386Z</time></trkpt><trkpt lat="44.5594079" lon="15.6103762"><ele>740.2</ele><time>2026-04-27T09:44:10.386Z</time></trkpt><trkpt lat="44.5594627" lon="15.6105087"><ele>740.0</ele><time>2026-04-27T09:44:11.386Z</time></trkpt><trkpt lat="44.5595262" lon="15.6106324"><ele>739.5</ele><time>2026-04-27T09:44:12.387Z</time></trkpt><trkpt lat="44.5595905" lon="15.6107471"><ele>739.0</ele><time>2026-04-27T09:44:13.387Z</time></trkpt><trkpt lat="44.5596653" lon="15.6108503"><ele>738.5</ele><time>2026-04-27T09:44:14.386Z</time></trkpt><trkpt lat="44.5597683" lon="15.6109619"><ele>738.0</ele><time>2026-04-27T09:44:15.386Z</time></trkpt><trkpt lat="44.5598786" lon="15.6110724"><ele>738.25</ele><time>2026-04-27T09:44:16.386Z</time></trkpt><trkpt lat="44.5599728" lon="15.6111697"><ele>738.5</ele><time>2026-04-27T09:44:17.387Z</time></trkpt><trkpt lat="44.5600755" lon="15.6112735"><ele>738.75</ele><time>2026-04-27T09:44:18.386Z</time></trkpt><trkpt lat="44.5601707" lon="15.6113699"><ele>739.0</ele><time>2026-04-27T09:44:19.386Z</time></trkpt><trkpt lat="44.5602585" lon="15.6114748"><ele>739.0</ele><time>2026-04-27T09:44:20.386Z</time></trkpt><trkpt lat="44.5603475" lon="15.6115856"><ele>739.0</ele><time>2026-04-27T09:44:21.386Z</time></trkpt><trkpt lat="44.5604457" lon="15.6116879"><ele>739.0</ele><time>2026-04-27T09:44:22.386Z</time></trkpt><trkpt lat="44.5605415" lon="15.6118003"><ele>739.0</ele><time>2026-04-27T09:44:23.386Z</time></trkpt><trkpt lat="44.5606393" lon="15.611906"><ele>738.75</ele><time>2026-04-27T09:44:24.386Z</time></trkpt><trkpt lat="44.5607295" lon="15.6120127"><ele>738.5</ele><time>2026-04-27T09:44:25.386Z</time></trkpt><trkpt lat="44.5608202" lon="15.612121"><ele>738.25</ele><time>2026-04-27T09:44:26.386Z</time></trkpt><trkpt lat="44.5609073" lon="15.6122159"><ele>738.0</ele><time>2026-04-27T09:44:27.386Z</time></trkpt><trkpt lat="44.560997" lon="15.6122935"><ele>738.0</ele><time>2026-04-27T09:44:28.386Z</time></trkpt><trkpt lat="44.5610914" lon="15.612351"><ele>738.0</ele><time>2026-04-27T09:44:29.386Z</time></trkpt><trkpt lat="44.5611894" lon="15.6123907"><ele>738.0</ele><time>2026-04-27T09:44:30.386Z</time></trkpt><trkpt lat="44.5612936" lon="15.6124104"><ele>738.0</ele><time>2026-04-27T09:44:31.386Z</time></trkpt><trkpt lat="44.5614019" lon="15.6124089"><ele>738.0</ele><time>2026-04-27T09:44:32.386Z</time></trkpt><trkpt lat="44.5615167" lon="15.6124052"><ele>737.5</ele><time>2026-04-27T09:44:33.386Z</time></trkpt><trkpt lat="44.5616455" lon="15.6124005"><ele>737.0</ele><time>2026-04-27T09:44:34.386Z</time></trkpt><trkpt lat="44.5617583" lon="15.6123849"><ele>736.5</ele><time>2026-04-27T09:44:35.386Z</time></trkpt><trkpt lat="44.5618652" lon="15.6123588"><ele>736.0</ele><time>2026-04-27T09:44:36.387Z</time></trkpt><trkpt lat="44.5619721" lon="15.6123221"><ele>736.1999999999999</ele><time>2026-04-27T09:44:37.387Z</time></trkpt><trkpt lat="44.5620832" lon="15.6122706"><ele>736.4</ele><time>2026-04-27T09:44:38.386Z</time></trkpt><trkpt lat="44.5621856" lon="15.6122167"><ele>736.6</ele><time>2026-04-27T09:44:39.387Z</time></trkpt><trkpt lat="44.5622669" lon="15.612156"><ele>736.8</ele><time>2026-04-27T09:44:40.386Z</time></trkpt><trkpt lat="44.5623649" lon="15.612096"><ele>737.0</ele><time>2026-04-27T09:44:41.386Z</time></trkpt><trkpt lat="44.5624474" lon="15.6120365"><ele>737.2</ele><time>2026-04-27T09:44:42.386Z</time></trkpt><trkpt lat="44.5625347" lon="15.6119849"><ele>737.4000000000001</ele><time>2026-04-27T09:44:43.387Z</time></trkpt><trkpt lat="44.5626292" lon="15.6119343"><ele>737.5999999999999</ele><time>2026-04-27T09:44:44.386Z</time></trkpt><trkpt lat="44.5627299" lon="15.6118849"><ele>737.8</ele><time>2026-04-27T09:44:45.387Z</time></trkpt><trkpt lat="44.5628263" lon="15.6118465"><ele>738.0</ele><time>2026-04-27T09:44:46.387Z</time></trkpt><trkpt lat="44.5629264" lon="15.6118027"><ele>737.4</ele><time>2026-04-27T09:44:47.387Z</time></trkpt><trkpt lat="44.5630292" lon="15.6117614"><ele>736.8</ele><time>2026-04-27T09:44:48.386Z</time></trkpt><trkpt lat="44.5631233" lon="15.6117218"><ele>736.2</ele><time>2026-04-27T09:44:49.387Z</time></trkpt><trkpt lat="44.5632146" lon="15.6116794"><ele>735.6</ele><time>2026-04-27T09:44:50.386Z</time></trkpt><trkpt lat="44.5632932" lon="15.61163"><ele>735.0</ele><time>2026-04-27T09:44:51.386Z</time></trkpt><trkpt lat="44.5633821" lon="15.6115792"><ele>735.0</ele><time>2026-04-27T09:44:52.386Z</time></trkpt><trkpt lat="44.5634767" lon="15.6115142"><ele>735.0</ele><time>2026-04-27T09:44:53.386Z</time></trkpt><trkpt lat="44.5635759" lon="15.6114424"><ele>735.0</ele><time>2026-04-27T09:44:54.386Z</time></trkpt><trkpt lat="44.5636791" lon="15.6113655"><ele>735.0</ele><time>2026-04-27T09:44:55.387Z</time></trkpt><trkpt lat="44.563785" lon="15.6112878"><ele>735.0</ele><time>2026-04-27T09:44:56.386Z</time></trkpt><trkpt lat="44.5638919" lon="15.611203"><ele>735.0</ele><time>2026-04-27T09:44:57.387Z</time></trkpt><trkpt lat="44.5639944" lon="15.611119"><ele>735.0</ele><time>2026-04-27T09:44:58.386Z</time></trkpt><trkpt lat="44.5640915" lon="15.6110404"><ele>735.0</ele><time>2026-04-27T09:44:59.386Z</time></trkpt><trkpt lat="44.5641802" lon="15.6109831"><ele>735.0</ele><time>2026-04-27T09:45:00.386Z</time></trkpt><trkpt lat="44.5642698" lon="15.6109342"><ele>735.0</ele><time>2026-04-27T09:45:01.386Z</time></trkpt><trkpt lat="44.5643496" lon="15.6109048"><ele>735.0</ele><time>2026-04-27T09:45:02.386Z</time></trkpt><trkpt lat="44.5644274" lon="15.6108831"><ele>735.0</ele><time>2026-04-27T09:45:03.386Z</time></trkpt><trkpt lat="44.5645103" lon="15.6108693"><ele>735.0</ele><time>2026-04-27T09:45:04.386Z</time></trkpt><trkpt lat="44.5645932" lon="15.6108706"><ele>735.0</ele><time>2026-04-27T09:45:05.386Z</time></trkpt><trkpt lat="44.5646834" lon="15.6108755"><ele>735.4</ele><time>2026-04-27T09:45:06.386Z</time></trkpt><trkpt lat="44.5647851" lon="15.6108871"><ele>735.8</ele><time>2026-04-27T09:45:07.386Z</time></trkpt><trkpt lat="44.5648787" lon="15.6108896"><ele>736.2</ele><time>2026-04-27T09:45:08.386Z</time></trkpt><trkpt lat="44.5649684" lon="15.6109185"><ele>736.6</ele><time>2026-04-27T09:45:09.386Z</time></trkpt><trkpt lat="44.5650629" lon="15.6109384"><ele>737.0</ele><time>2026-04-27T09:45:10.386Z</time></trkpt><trkpt lat="44.5651469" lon="15.6109499"><ele>737.0000000000001</ele><time>2026-04-27T09:45:11.386Z</time></trkpt><trkpt lat="44.565222" lon="15.6109429"><ele>737.0</ele><time>2026-04-27T09:45:12.386Z</time></trkpt><trkpt lat="44.5652962" lon="15.6109148"><ele>737.0</ele><time>2026-04-27T09:45:13.386Z</time></trkpt><trkpt lat="44.5653671" lon="15.6108873"><ele>737.0</ele><time>2026-04-27T09:45:14.386Z</time></trkpt><trkpt lat="44.5654358" lon="15.6108634"><ele>737.0</ele><time>2026-04-27T09:45:15.387Z</time></trkpt><trkpt lat="44.5655082" lon="15.6108617"><ele>737.0000000000001</ele><time>2026-04-27T09:45:16.386Z</time></trkpt><trkpt lat="44.5655763" lon="15.6108862"><ele>737.0</ele><time>2026-04-27T09:45:17.386Z</time></trkpt><trkpt lat="44.5656427" lon="15.6109368"><ele>736.5</ele><time>2026-04-27T09:45:18.386Z</time></trkpt><trkpt lat="44.5656961" lon="15.6110074"><ele>736.0</ele><time>2026-04-27T09:45:19.386Z</time></trkpt><trkpt lat="44.5657457" lon="15.6110904"><ele>735.5</ele><time>2026-04-27T09:45:20.386Z</time></trkpt><trkpt lat="44.5658031" lon="15.6111921"><ele>735.0</ele><time>2026-04-27T09:45:21.386Z</time></trkpt><trkpt lat="44.5658636" lon="15.6113025"><ele>734.5</ele><time>2026-04-27T09:45:22.387Z</time></trkpt><trkpt lat="44.5659391" lon="15.6114078"><ele>734.0</ele><time>2026-04-27T09:45:23.387Z</time></trkpt><trkpt lat="44.5660208" lon="15.6115237"><ele>734.0</ele><time>2026-04-27T09:45:24.387Z</time></trkpt><trkpt lat="44.5661192" lon="15.6116345"><ele>734.0</ele><time>2026-04-27T09:45:25.386Z</time></trkpt><trkpt lat="44.566225" lon="15.6117441"><ele>734.0</ele><time>2026-04-27T09:45:26.387Z</time></trkpt><trkpt lat="44.5663354" lon="15.6118629"><ele>734.0</ele><time>2026-04-27T09:45:27.386Z</time></trkpt><trkpt lat="44.5664558" lon="15.6119922"><ele>734.0</ele><time>2026-04-27T09:45:28.386Z</time></trkpt><trkpt lat="44.5665764" lon="15.6121144"><ele>734.0</ele><time>2026-04-27T09:45:29.386Z</time></trkpt><trkpt lat="44.5666935" lon="15.6122311"><ele>734.0</ele><time>2026-04-27T09:45:30.387Z</time></trkpt><trkpt lat="44.5668054" lon="15.6123414"><ele>734.0</ele><time>2026-04-27T09:45:31.386Z</time></trkpt><trkpt lat="44.5669013" lon="15.6124374"><ele>734.0</ele><time>2026-04-27T09:45:32.386Z</time></trkpt><trkpt lat="44.5669933" lon="15.6125221"><ele>734.0</ele><time>2026-04-27T09:45:33.387Z</time></trkpt><trkpt lat="44.5670802" lon="15.6126125"><ele>734.0</ele><time>2026-04-27T09:45:34.386Z</time></trkpt><trkpt lat="44.567151" lon="15.6127028"><ele>734.0</ele><time>2026-04-27T09:45:35.387Z</time></trkpt><trkpt lat="44.5672315" lon="15.6127876"><ele>734.0</ele><time>2026-04-27T09:45:36.386Z</time></trkpt><trkpt lat="44.5673214" lon="15.6128699"><ele>734.0</ele><time>2026-04-27T09:45:37.387Z</time></trkpt><trkpt lat="44.5674146" lon="15.6129504"><ele>734.0</ele><time>2026-04-27T09:45:38.386Z</time></trkpt><trkpt lat="44.5675151" lon="15.6130392"><ele>734.0</ele><time>2026-04-27T09:45:39.386Z</time></trkpt><trkpt lat="44.567622" lon="15.6131252"><ele>734.0</ele><time>2026-04-27T09:45:40.386Z</time></trkpt><trkpt lat="44.5677241" lon="15.6132144"><ele>734.0</ele><time>2026-04-27T09:45:41.387Z</time></trkpt><trkpt lat="44.5678303" lon="15.6132933"><ele>734.0</ele><time>2026-04-27T09:45:42.386Z</time></trkpt><trkpt lat="44.5679414" lon="15.6133686"><ele>734.0</ele><time>2026-04-27T09:45:43.386Z</time></trkpt><trkpt lat="44.5680422" lon="15.6134444"><ele>734.0</ele><time>2026-04-27T09:45:44.387Z</time></trkpt><trkpt lat="44.5681277" lon="15.6135202"><ele>733.8000000000001</ele><time>2026-04-27T09:45:45.386Z</time></trkpt><trkpt lat="44.568217" lon="15.6135869"><ele>733.6</ele><time>2026-04-27T09:45:46.386Z</time></trkpt><trkpt lat="44.568312" lon="15.6136482"><ele>733.4</ele><time>2026-04-27T09:45:47.387Z</time></trkpt><trkpt lat="44.5684138" lon="15.6137124"><ele>733.2</ele><time>2026-04-27T09:45:48.386Z</time></trkpt><trkpt lat="44.5685186" lon="15.613783"><ele>733.0</ele><time>2026-04-27T09:45:49.386Z</time></trkpt><trkpt lat="44.5686197" lon="15.6138643"><ele>732.3333333333334</ele><time>2026-04-27T09:45:50.386Z</time></trkpt><trkpt lat="44.5687124" lon="15.6139369"><ele>731.6666666666667</ele><time>2026-04-27T09:45:51.386Z</time></trkpt><trkpt lat="44.5687901" lon="15.6140025"><ele>731.0</ele><time>2026-04-27T09:45:52.387Z</time></trkpt><trkpt lat="44.5688536" lon="15.6140807"><ele>730.3333333333334</ele><time>2026-04-27T09:45:53.387Z</time></trkpt><trkpt lat="44.5689018" lon="15.6141627"><ele>729.6666666666666</ele><time>2026-04-27T09:45:54.387Z</time></trkpt><trkpt lat="44.568928" lon="15.6142663"><ele>729.0</ele><time>2026-04-27T09:45:55.386Z</time></trkpt><trkpt lat="44.5689488" lon="15.6143866"><ele>729.0</ele><time>2026-04-27T09:45:56.387Z</time></trkpt><trkpt lat="44.5689723" lon="15.6145249"><ele>729.0</ele><time>2026-04-27T09:45:57.386Z</time></trkpt><trkpt lat="44.5689967" lon="15.6146432"><ele>729.0</ele><time>2026-04-27T09:45:58.386Z</time></trkpt><trkpt lat="44.5690309" lon="15.6147637"><ele>729.0</ele><time>2026-04-27T09:45:59.387Z</time></trkpt><trkpt lat="44.5690722" lon="15.6148644"><ele>729.0</ele><time>2026-04-27T09:46:00.387Z</time></trkpt><trkpt lat="44.5691272" lon="15.6149386"><ele>729.0</ele><time>2026-04-27T09:46:01.386Z</time></trkpt><trkpt lat="44.5691913" lon="15.6149937"><ele>729.0</ele><time>2026-04-27T09:46:02.387Z</time></trkpt><trkpt lat="44.5692728" lon="15.6150374"><ele>729.0</ele><time>2026-04-27T09:46:03.386Z</time></trkpt><trkpt lat="44.5693535" lon="15.6150837"><ele>729.0</ele><time>2026-04-27T09:46:04.386Z</time></trkpt><trkpt lat="44.5694249" lon="15.6151213"><ele>729.0</ele><time>2026-04-27T09:46:05.386Z</time></trkpt><trkpt lat="44.5694861" lon="15.615189"><ele>729.0</ele><time>2026-04-27T09:46:06.386Z</time></trkpt><trkpt lat="44.5695704" lon="15.6152664"><ele>729.0</ele><time>2026-04-27T09:46:07.386Z</time></trkpt><trkpt lat="44.5696531" lon="15.6153361"><ele>726.8333333333334</ele><time>2026-04-27T09:46:08.386Z</time></trkpt><trkpt lat="44.5697305" lon="15.6153966"><ele>724.6666666666666</ele><time>2026-04-27T09:46:09.387Z</time></trkpt><trkpt lat="44.5698012" lon="15.6154361"><ele>722.5</ele><time>2026-04-27T09:46:10.386Z</time></trkpt><trkpt lat="44.5698839" lon="15.615481"><ele>720.3333333333333</ele><time>2026-04-27T09:46:12.387Z</time></trkpt><trkpt lat="44.5699678" lon="15.6154756"><ele>718.1666666666666</ele><time>2026-04-27T09:46:27.386Z</time></trkpt><trkpt lat="44.5700396" lon="15.6154706"><ele>716.0</ele><time>2026-04-27T09:46:29.386Z</time></trkpt><trkpt lat="44.5701569" lon="15.615475"><ele>716.0</ele><time>2026-04-27T09:46:31.386Z</time></trkpt><trkpt lat="44.5702692" lon="15.6154602"><ele>716.0</ele><time>2026-04-27T09:46:33.387Z</time></trkpt><trkpt lat="44.5703777" lon="15.6154551"><ele>716.0</ele><time>2026-04-27T09:46:35.386Z</time></trkpt><trkpt lat="44.5702968" lon="15.6154374"><ele>716.0</ele><time>2026-04-27T09:46:55.386Z</time></trkpt><trkpt lat="44.5702174" lon="15.6154427"><ele>716.0</ele><time>2026-04-27T09:46:56.387Z</time></trkpt><trkpt lat="44.5701292" lon="15.6154578"><ele>716.0</ele><time>2026-04-27T09:46:57.386Z</time></trkpt><trkpt lat="44.5700516" lon="15.6154663"><ele>716.0</ele><time>2026-04-27T09:46:58.386Z</time></trkpt><trkpt lat="44.5699882" lon="15.6154608"><ele>716.0</ele><time>2026-04-27T09:46:59.386Z</time></trkpt><trkpt lat="44.5698884" lon="15.6154631"><ele>716.0</ele><time>2026-04-27T09:47:01.386Z</time></trkpt><trkpt lat="44.5698053" lon="15.6155112"><ele>716.0</ele><time>2026-04-27T09:47:03.386Z</time></trkpt><trkpt lat="44.569719" lon="15.6156312"><ele>716.0</ele><time>2026-04-27T09:47:05.386Z</time></trkpt><trkpt lat="44.5696367" lon="15.6157805"><ele>716.0</ele><time>2026-04-27T09:47:07.386Z</time></trkpt><trkpt lat="44.5695912" lon="15.6158771"><ele>716.0</ele><time>2026-04-27T09:47:08.387Z</time></trkpt><trkpt lat="44.5695234" lon="15.6159828"><ele>716.0</ele><time>2026-04-27T09:47:09.387Z</time></trkpt><trkpt lat="44.5694623" lon="15.6160795"><ele>716.0</ele><time>2026-04-27T09:47:10.386Z</time></trkpt><trkpt lat="44.5693946" lon="15.6161846"><ele>715.8333333333333</ele><time>2026-04-27T09:47:11.386Z</time></trkpt><trkpt lat="44.5693289" lon="15.6162748"><ele>715.6666666666666</ele><time>2026-04-27T09:47:12.386Z</time></trkpt><trkpt lat="44.5692568" lon="15.6163581"><ele>715.5</ele><time>2026-04-27T09:47:13.386Z</time></trkpt><trkpt lat="44.5691968" lon="15.6164339"><ele>715.3333333333334</ele><time>2026-04-27T09:47:14.386Z</time></trkpt><trkpt lat="44.5691433" lon="15.6164947"><ele>715.1666666666667</ele><time>2026-04-27T09:47:15.386Z</time></trkpt><trkpt lat="44.5690957" lon="15.6165534"><ele>715.0</ele><time>2026-04-27T09:47:16.386Z</time></trkpt><trkpt lat="44.5690504" lon="15.6166212"><ele>715.0</ele><time>2026-04-27T09:47:17.386Z</time></trkpt><trkpt lat="44.5690045" lon="15.6166872"><ele>715.0</ele><time>2026-04-27T09:47:18.386Z</time></trkpt><trkpt lat="44.56897" lon="15.6167699"><ele>715.0</ele><time>2026-04-27T09:47:19.386Z</time></trkpt><trkpt lat="44.5689345" lon="15.6169337"><ele>715.0</ele><time>2026-04-27T09:47:21.386Z</time></trkpt><trkpt lat="44.5689552" lon="15.617098"><ele>715.0</ele><time>2026-04-27T09:47:23.386Z</time></trkpt><trkpt lat="44.5689644" lon="15.6171895"><ele>715.0</ele><time>2026-04-27T09:47:24.386Z</time></trkpt><trkpt lat="44.5689777" lon="15.617286"><ele>712.5</ele><time>2026-04-27T09:47:25.386Z</time></trkpt><trkpt lat="44.5690002" lon="15.6174297"><ele>710.0</ele><time>2026-04-27T09:47:27.387Z</time></trkpt><trkpt lat="44.5689852" lon="15.6175737"><ele>707.5</ele><time>2026-04-27T09:47:29.386Z</time></trkpt><trkpt lat="44.5689496" lon="15.6177385"><ele>705.0</ele><time>2026-04-27T09:47:31.386Z</time></trkpt><trkpt lat="44.5688997" lon="15.6178983"><ele>702.2</ele><time>2026-04-27T09:47:33.386Z</time></trkpt><trkpt lat="44.5688363" lon="15.6180474"><ele>699.4</ele><time>2026-04-27T09:47:35.387Z</time></trkpt><trkpt lat="44.5687832" lon="15.6182175"><ele>696.5999999999999</ele><time>2026-04-27T09:47:37.386Z</time></trkpt><trkpt lat="44.5687613" lon="15.6183083"><ele>693.8</ele><time>2026-04-27T09:47:38.387Z</time></trkpt><trkpt lat="44.5687332" lon="15.6183953"><ele>691.0</ele><time>2026-04-27T09:47:39.386Z</time></trkpt><trkpt lat="44.5687023" lon="15.6184784"><ele>690.6666666666667</ele><time>2026-04-27T09:47:40.387Z</time></trkpt><trkpt lat="44.5686677" lon="15.6185551"><ele>690.3333333333334</ele><time>2026-04-27T09:47:41.387Z</time></trkpt><trkpt lat="44.5686" lon="15.6186952"><ele>690.0</ele><time>2026-04-27T09:47:43.387Z</time></trkpt><trkpt lat="44.5685503" lon="15.6187742"><ele>689.6666666666666</ele><time>2026-04-27T09:47:44.386Z</time></trkpt><trkpt lat="44.568507" lon="15.6188464"><ele>689.3333333333333</ele><time>2026-04-27T09:47:45.386Z</time></trkpt><trkpt lat="44.5684569" lon="15.6189338"><ele>689.0</ele><time>2026-04-27T09:47:46.387Z</time></trkpt><trkpt lat="44.5684133" lon="15.6190204"><ele>689.0</ele><time>2026-04-27T09:47:47.386Z</time></trkpt><trkpt lat="44.5683791" lon="15.6191034"><ele>689.0</ele><time>2026-04-27T09:47:48.386Z</time></trkpt><trkpt lat="44.5683557" lon="15.6191866"><ele>689.0</ele><time>2026-04-27T09:47:49.386Z</time></trkpt><trkpt lat="44.5683214" lon="15.6192688"><ele>689.0</ele><time>2026-04-27T09:47:50.386Z</time></trkpt><trkpt lat="44.5682824" lon="15.6193446"><ele>689.0</ele><time>2026-04-27T09:47:51.386Z</time></trkpt><trkpt lat="44.5681976" lon="15.619474"><ele>689.0</ele><time>2026-04-27T09:47:53.386Z</time></trkpt><trkpt lat="44.5681454" lon="15.619527"><ele>688.8333333333333</ele><time>2026-04-27T09:47:54.386Z</time></trkpt><trkpt lat="44.5680727" lon="15.6195586"><ele>688.6666666666666</ele><time>2026-04-27T09:47:55.386Z</time></trkpt><trkpt lat="44.5679922" lon="15.6195716"><ele>688.5</ele><time>2026-04-27T09:47:56.386Z</time></trkpt><trkpt lat="44.5679155" lon="15.6196029"><ele>688.3333333333334</ele><time>2026-04-27T09:47:57.386Z</time></trkpt><trkpt lat="44.5678247" lon="15.6196267"><ele>688.1666666666667</ele><time>2026-04-27T09:47:58.386Z</time></trkpt><trkpt lat="44.5677495" lon="15.6196401"><ele>688.0</ele><time>2026-04-27T09:47:59.387Z</time></trkpt><trkpt lat="44.567678" lon="15.6196646"><ele>688.0</ele><time>2026-04-27T09:48:00.386Z</time></trkpt><trkpt lat="44.5675808" lon="15.6197911"><ele>688.0</ele><time>2026-04-27T09:48:02.386Z</time></trkpt><trkpt lat="44.5675569" lon="15.6199051"><ele>688.0</ele><time>2026-04-27T09:48:03.386Z</time></trkpt><trkpt lat="44.5675177" lon="15.6200476"><ele>688.0</ele><time>2026-04-27T09:48:04.386Z</time></trkpt><trkpt lat="44.5674976" lon="15.6201775"><ele>688.0</ele><time>2026-04-27T09:48:05.387Z</time></trkpt><trkpt lat="44.5674931" lon="15.620306"><ele>687.0</ele><time>2026-04-27T09:48:06.386Z</time></trkpt><trkpt lat="44.5674742" lon="15.6204377"><ele>686.0</ele><time>2026-04-27T09:48:07.386Z</time></trkpt><trkpt lat="44.5674597" lon="15.6205501"><ele>685.0</ele><time>2026-04-27T09:48:08.386Z</time></trkpt><trkpt lat="44.5674372" lon="15.6206711"><ele>684.0</ele><time>2026-04-27T09:48:09.387Z</time></trkpt><trkpt lat="44.5674365" lon="15.6207811"><ele>683.0</ele><time>2026-04-27T09:48:10.387Z</time></trkpt><trkpt lat="44.5674475" lon="15.6209019"><ele>682.0</ele><time>2026-04-27T09:48:11.386Z</time></trkpt><trkpt lat="44.5674689" lon="15.621025"><ele>682.0</ele><time>2026-04-27T09:48:12.386Z</time></trkpt><trkpt lat="44.5674895" lon="15.6211424"><ele>682.0</ele><time>2026-04-27T09:48:13.386Z</time></trkpt><trkpt lat="44.5675194" lon="15.6212719"><ele>682.0</ele><time>2026-04-27T09:48:14.386Z</time></trkpt><trkpt lat="44.5675669" lon="15.6214113"><ele>682.0</ele><time>2026-04-27T09:48:15.386Z</time></trkpt><trkpt lat="44.5675992" lon="15.6215408"><ele>682.0</ele><time>2026-04-27T09:48:16.386Z</time></trkpt><trkpt lat="44.5676164" lon="15.621661"><ele>682.8333333333334</ele><time>2026-04-27T09:48:17.386Z</time></trkpt><trkpt lat="44.5676526" lon="15.6217556"><ele>683.6666666666667</ele><time>2026-04-27T09:48:18.386Z</time></trkpt><trkpt lat="44.5676966" lon="15.6218297"><ele>684.5</ele><time>2026-04-27T09:48:19.386Z</time></trkpt><trkpt lat="44.5677664" lon="15.6218761"><ele>685.3333333333334</ele><time>2026-04-27T09:48:20.386Z</time></trkpt><trkpt lat="44.5678314" lon="15.6219379"><ele>686.1666666666666</ele><time>2026-04-27T09:48:21.386Z</time></trkpt><trkpt lat="44.5678734" lon="15.6220153"><ele>687.0</ele><time>2026-04-27T09:48:22.386Z</time></trkpt><trkpt lat="44.5679166" lon="15.6221181"><ele>684.8333333333334</ele><time>2026-04-27T09:48:23.386Z</time></trkpt><trkpt lat="44.5679464" lon="15.6222294"><ele>682.6666666666666</ele><time>2026-04-27T09:48:24.387Z</time></trkpt><trkpt lat="44.5679772" lon="15.6223505"><ele>680.5</ele><time>2026-04-27T09:48:25.387Z</time></trkpt><trkpt lat="44.5680124" lon="15.6224708"><ele>678.3333333333333</ele><time>2026-04-27T09:48:26.386Z</time></trkpt><trkpt lat="44.5680424" lon="15.622573"><ele>676.1666666666666</ele><time>2026-04-27T09:48:27.386Z</time></trkpt><trkpt lat="44.5680833" lon="15.6226606"><ele>674.0</ele><time>2026-04-27T09:48:28.386Z</time></trkpt><trkpt lat="44.5681147" lon="15.6227499"><ele>674.0</ele><time>2026-04-27T09:48:29.387Z</time></trkpt><trkpt lat="44.5681513" lon="15.6228331"><ele>674.0</ele><time>2026-04-27T09:48:30.386Z</time></trkpt><trkpt lat="44.5681962" lon="15.6229254"><ele>674.0</ele><time>2026-04-27T09:48:52.386Z</time></trkpt><trkpt lat="44.5681635" lon="15.6228248"><ele>674.0</ele><time>2026-04-27T09:49:02.386Z</time></trkpt><trkpt lat="44.5681098" lon="15.6226958"><ele>674.0</ele><time>2026-04-27T09:49:04.387Z</time></trkpt><trkpt lat="44.5680775" lon="15.6226065"><ele>674.0</ele><time>2026-04-27T09:49:05.386Z</time></trkpt><trkpt lat="44.5680461" lon="15.6225088"><ele>674.0000000000001</ele><time>2026-04-27T09:49:06.386Z</time></trkpt><trkpt lat="44.568016" lon="15.6224081"><ele>674.0</ele><time>2026-04-27T09:49:07.386Z</time></trkpt><trkpt lat="44.5679892" lon="15.6223252"><ele>674.0</ele><time>2026-04-27T09:49:08.387Z</time></trkpt><trkpt lat="44.5679628" lon="15.6222236"><ele>674.0</ele><time>2026-04-27T09:49:09.387Z</time></trkpt><trkpt lat="44.5679341" lon="15.6221361"><ele>674.0</ele><time>2026-04-27T09:49:10.386Z</time></trkpt><trkpt lat="44.5679021" lon="15.6220537"><ele>674.0000000000001</ele><time>2026-04-27T09:49:11.386Z</time></trkpt><trkpt lat="44.567859" lon="15.6219858"><ele>674.0</ele><time>2026-04-27T09:49:12.386Z</time></trkpt><trkpt lat="44.5677989" lon="15.6219166"><ele>677.25</ele><time>2026-04-27T09:49:13.386Z</time></trkpt><trkpt lat="44.5677433" lon="15.621846"><ele>680.5</ele><time>2026-04-27T09:49:14.386Z</time></trkpt><trkpt lat="44.5676656" lon="15.6216451"><ele>683.75</ele><time>2026-04-27T09:49:16.386Z</time></trkpt><trkpt lat="44.5676275" lon="15.6214947"><ele>687.0</ele><time>2026-04-27T09:49:17.386Z</time></trkpt><trkpt lat="44.5675853" lon="15.6213403"><ele>687.0</ele><time>2026-04-27T09:49:18.386Z</time></trkpt><trkpt lat="44.5675361" lon="15.6211708"><ele>687.0</ele><time>2026-04-27T09:49:19.387Z</time></trkpt><trkpt lat="44.5675079" lon="15.6210378"><ele>687.0</ele><time>2026-04-27T09:49:20.387Z</time></trkpt><trkpt lat="44.5674902" lon="15.6208767"><ele>687.0</ele><time>2026-04-27T09:49:21.386Z</time></trkpt><trkpt lat="44.5674754" lon="15.6207208"><ele>687.25</ele><time>2026-04-27T09:49:22.386Z</time></trkpt><trkpt lat="44.5674862" lon="15.6205763"><ele>687.5</ele><time>2026-04-27T09:49:23.387Z</time></trkpt><trkpt lat="44.5675085" lon="15.6204113"><ele>687.75</ele><time>2026-04-27T09:49:24.387Z</time></trkpt><trkpt lat="44.5675265" lon="15.6202509"><ele>688.0</ele><time>2026-04-27T09:49:25.387Z</time></trkpt><trkpt lat="44.5675377" lon="15.6200889"><ele>688.0</ele><time>2026-04-27T09:49:26.386Z</time></trkpt><trkpt lat="44.5675606" lon="15.6199463"><ele>688.0</ele><time>2026-04-27T09:49:27.387Z</time></trkpt><trkpt lat="44.5675814" lon="15.6198256"><ele>688.0</ele><time>2026-04-27T09:49:28.387Z</time></trkpt><trkpt lat="44.5676294" lon="15.6197423"><ele>688.0</ele><time>2026-04-27T09:49:29.387Z</time></trkpt><trkpt lat="44.5676795" lon="15.6196875"><ele>688.0</ele><time>2026-04-27T09:49:30.387Z</time></trkpt><trkpt lat="44.5677616" lon="15.619657"><ele>688.0</ele><time>2026-04-27T09:49:31.387Z</time></trkpt><trkpt lat="44.5678549" lon="15.6196198"><ele>688.2</ele><time>2026-04-27T09:49:32.386Z</time></trkpt><trkpt lat="44.5679702" lon="15.6195858"><ele>688.4</ele><time>2026-04-27T09:49:33.387Z</time></trkpt><trkpt lat="44.5680602" lon="15.6195656"><ele>688.6</ele><time>2026-04-27T09:49:34.386Z</time></trkpt><trkpt lat="44.5681445" lon="15.6195247"><ele>688.8000000000001</ele><time>2026-04-27T09:49:35.386Z</time></trkpt><trkpt lat="44.5682192" lon="15.6194713"><ele>689.0</ele><time>2026-04-27T09:49:36.386Z</time></trkpt><trkpt lat="44.5682805" lon="15.6193818"><ele>689.0</ele><time>2026-04-27T09:49:37.387Z</time></trkpt><trkpt lat="44.5683089" lon="15.6192848"><ele>689.0</ele><time>2026-04-27T09:49:38.387Z</time></trkpt><trkpt lat="44.568357" lon="15.6191747"><ele>689.0</ele><time>2026-04-27T09:49:39.386Z</time></trkpt><trkpt lat="44.5683981" lon="15.6190552"><ele>689.0</ele><time>2026-04-27T09:49:40.386Z</time></trkpt><trkpt lat="44.5684752" lon="15.6189354"><ele>689.0</ele><time>2026-04-27T09:49:41.387Z</time></trkpt><trkpt lat="44.5685329" lon="15.6188155"><ele>689.0</ele><time>2026-04-27T09:49:42.386Z</time></trkpt><trkpt lat="44.56859" lon="15.6186942"><ele>689.0</ele><time>2026-04-27T09:49:43.387Z</time></trkpt><trkpt lat="44.5686409" lon="15.6185607"><ele>689.0</ele><time>2026-04-27T09:49:44.386Z</time></trkpt><trkpt lat="44.5686872" lon="15.6184458"><ele>689.0</ele><time>2026-04-27T09:49:45.386Z</time></trkpt><trkpt lat="44.5687273" lon="15.6183186"><ele>689.0</ele><time>2026-04-27T09:49:46.386Z</time></trkpt><trkpt lat="44.5687787" lon="15.6181603"><ele>689.4000000000001</ele><time>2026-04-27T09:49:47.386Z</time></trkpt><trkpt lat="44.5688267" lon="15.6180429"><ele>689.8</ele><time>2026-04-27T09:49:48.387Z</time></trkpt><trkpt lat="44.5688638" lon="15.617929"><ele>690.2</ele><time>2026-04-27T09:49:49.387Z</time></trkpt><trkpt lat="44.5688988" lon="15.6178167"><ele>690.5999999999999</ele><time>2026-04-27T09:49:50.386Z</time></trkpt><trkpt lat="44.568941" lon="15.6176665"><ele>691.0</ele><time>2026-04-27T09:49:52.386Z</time></trkpt><trkpt lat="44.5689667" lon="15.6175497"><ele>693.8</ele><time>2026-04-27T09:49:54.386Z</time></trkpt><trkpt lat="44.5689783" lon="15.6174599"><ele>696.5999999999999</ele><time>2026-04-27T09:49:56.386Z</time></trkpt><trkpt lat="44.5689815" lon="15.6173585"><ele>699.4</ele><time>2026-04-27T09:50:06.386Z</time></trkpt><trkpt lat="44.5689675" lon="15.6172255"><ele>702.2</ele><time>2026-04-27T09:50:08.387Z</time></trkpt><trkpt lat="44.5689439" lon="15.6170621"><ele>705.0</ele><time>2026-04-27T09:50:10.386Z</time></trkpt><trkpt lat="44.5689498" lon="15.6169101"><ele>707.0</ele><time>2026-04-27T09:50:12.386Z</time></trkpt><trkpt lat="44.5689721" lon="15.6168027"><ele>709.0</ele><time>2026-04-27T09:50:13.387Z</time></trkpt><trkpt lat="44.5690461" lon="15.6166413"><ele>711.0</ele><time>2026-04-27T09:50:15.387Z</time></trkpt><trkpt lat="44.5690903" lon="15.6165662"><ele>713.0</ele><time>2026-04-27T09:50:16.386Z</time></trkpt><trkpt lat="44.5691532" lon="15.6164925"><ele>715.0</ele><time>2026-04-27T09:50:17.386Z</time></trkpt><trkpt lat="44.5692168" lon="15.6163993"><ele>715.0</ele><time>2026-04-27T09:50:18.386Z</time></trkpt><trkpt lat="44.5692956" lon="15.6163059"><ele>715.0</ele><time>2026-04-27T09:50:19.387Z</time></trkpt><trkpt lat="44.5693598" lon="15.6162257"><ele>715.0</ele><time>2026-04-27T09:50:20.386Z</time></trkpt><trkpt lat="44.5694936" lon="15.6160498"><ele>715.0</ele><time>2026-04-27T09:50:22.386Z</time></trkpt><trkpt lat="44.569604" lon="15.6158458"><ele>715.2</ele><time>2026-04-27T09:50:24.386Z</time></trkpt><trkpt lat="44.5696796" lon="15.6156457"><ele>715.4</ele><time>2026-04-27T09:50:26.386Z</time></trkpt><trkpt lat="44.5697575" lon="15.6155304"><ele>715.5999999999999</ele><time>2026-04-27T09:50:28.386Z</time></trkpt><trkpt lat="44.5698387" lon="15.615478"><ele>715.8</ele><time>2026-04-27T09:50:30.387Z</time></trkpt><trkpt lat="44.5699116" lon="15.6154667"><ele>716.0</ele><time>2026-04-27T09:50:32.387Z</time></trkpt><trkpt lat="44.5699827" lon="15.6154916"><ele>716.0</ele><time>2026-04-27T09:50:34.386Z</time></trkpt><trkpt lat="44.5700521" lon="15.6154937"><ele>716.0</ele><time>2026-04-27T09:51:06.387Z</time></trkpt><trkpt lat="44.5701819" lon="15.6154454"><ele>716.0</ele><time>2026-04-27T09:52:52.386Z</time></trkpt><trkpt lat="44.5702856" lon="15.6154426"><ele>716.0</ele><time>2026-04-27T09:52:54.386Z</time></trkpt><trkpt lat="44.5703941" lon="15.6154321"><ele>716.0</ele><time>2026-04-27T09:52:56.387Z</time></trkpt><trkpt lat="44.5705001" lon="15.6154012"><ele>715.3333333333333</ele><time>2026-04-27T09:52:58.386Z</time></trkpt><trkpt lat="44.5705775" lon="15.6153843"><ele>714.6666666666666</ele><time>2026-04-27T09:52:59.386Z</time></trkpt><trkpt lat="44.5706434" lon="15.6153649"><ele>714.0</ele><time>2026-04-27T09:53:00.386Z</time></trkpt><trkpt lat="44.5707121" lon="15.6153376"><ele>713.3333333333334</ele><time>2026-04-27T09:53:01.386Z</time></trkpt><trkpt lat="44.5708231" lon="15.6153307"><ele>712.6666666666667</ele><time>2026-04-27T09:53:03.386Z</time></trkpt><trkpt lat="44.5708961" lon="15.6154"><ele>712.0</ele><time>2026-04-27T09:53:05.386Z</time></trkpt><trkpt lat="44.5709418" lon="15.6155589"><ele>712.0</ele><time>2026-04-27T09:53:07.386Z</time></trkpt><trkpt lat="44.5709525" lon="15.6156872"><ele>712.0</ele><time>2026-04-27T09:53:08.387Z</time></trkpt><trkpt lat="44.5709671" lon="15.6158361"><ele>712.0</ele><time>2026-04-27T09:53:09.386Z</time></trkpt><trkpt lat="44.5709829" lon="15.6159845"><ele>712.0</ele><time>2026-04-27T09:53:10.387Z</time></trkpt><trkpt lat="44.5710069" lon="15.6161249"><ele>712.0</ele><time>2026-04-27T09:53:11.387Z</time></trkpt><trkpt lat="44.5710235" lon="15.616259"><ele>710.4000000000001</ele><time>2026-04-27T09:53:12.386Z</time></trkpt><trkpt lat="44.5710532" lon="15.6165207"><ele>708.8000000000001</ele><time>2026-04-27T09:53:14.387Z</time></trkpt><trkpt lat="44.5710518" lon="15.6166336"><ele>707.2</ele><time>2026-04-27T09:53:15.387Z</time></trkpt><trkpt lat="44.571068" lon="15.616721"><ele>705.6</ele><time>2026-04-27T09:53:16.386Z</time></trkpt><trkpt lat="44.5710939" lon="15.6168034"><ele>704.0</ele><time>2026-04-27T09:53:17.386Z</time></trkpt><trkpt lat="44.5711284" lon="15.6168794"><ele>704.0</ele><time>2026-04-27T09:53:18.386Z</time></trkpt><trkpt lat="44.5711852" lon="15.6169853"><ele>704.0</ele><time>2026-04-27T09:53:19.386Z</time></trkpt><trkpt lat="44.5712411" lon="15.6170945"><ele>704.0</ele><time>2026-04-27T09:53:20.386Z</time></trkpt><trkpt lat="44.5712901" lon="15.6172026"><ele>704.0</ele><time>2026-04-27T09:53:21.386Z</time></trkpt><trkpt lat="44.5713374" lon="15.6173251"><ele>704.0</ele><time>2026-04-27T09:53:22.386Z</time></trkpt><trkpt lat="44.5714186" lon="15.6176063"><ele>703.4000000000001</ele><time>2026-04-27T09:53:24.386Z</time></trkpt><trkpt lat="44.5714693" lon="15.6177424"><ele>702.8</ele><time>2026-04-27T09:53:25.386Z</time></trkpt><trkpt lat="44.5715178" lon="15.6178633"><ele>702.2</ele><time>2026-04-27T09:53:26.386Z</time></trkpt><trkpt lat="44.5715653" lon="15.6179832"><ele>701.5999999999999</ele><time>2026-04-27T09:53:27.387Z</time></trkpt><trkpt lat="44.5716068" lon="15.6181053"><ele>701.0</ele><time>2026-04-27T09:53:28.387Z</time></trkpt><trkpt lat="44.5716393" lon="15.618228"><ele>698.75</ele><time>2026-04-27T09:53:29.386Z</time></trkpt><trkpt lat="44.5716708" lon="15.6183425"><ele>696.5</ele><time>2026-04-27T09:53:30.387Z</time></trkpt><trkpt lat="44.5717032" lon="15.6184549"><ele>694.25</ele><time>2026-04-27T09:53:31.386Z</time></trkpt><trkpt lat="44.5717506" lon="15.6185654"><ele>692.0</ele><time>2026-04-27T09:53:32.386Z</time></trkpt><trkpt lat="44.5718688" lon="15.618781"><ele>691.4000000000001</ele><time>2026-04-27T09:53:34.387Z</time></trkpt><trkpt lat="44.5719363" lon="15.6188749"><ele>690.8000000000001</ele><time>2026-04-27T09:53:35.387Z</time></trkpt><trkpt lat="44.572009" lon="15.6189553"><ele>690.2</ele><time>2026-04-27T09:53:36.386Z</time></trkpt><trkpt lat="44.5720818" lon="15.6190409"><ele>689.6</ele><time>2026-04-27T09:53:37.386Z</time></trkpt><trkpt lat="44.5721542" lon="15.6191199"><ele>689.0</ele><time>2026-04-27T09:53:38.387Z</time></trkpt><trkpt lat="44.5722254" lon="15.6191908"><ele>689.0</ele><time>2026-04-27T09:53:39.386Z</time></trkpt><trkpt lat="44.5723014" lon="15.6192392"><ele>689.0</ele><time>2026-04-27T09:53:40.386Z</time></trkpt><trkpt lat="44.5723822" lon="15.619269"><ele>689.0</ele><time>2026-04-27T09:53:41.387Z</time></trkpt><trkpt lat="44.5724568" lon="15.6193099"><ele>689.0</ele><time>2026-04-27T09:53:42.386Z</time></trkpt><trkpt lat="44.5725159" lon="15.6193615"><ele>689.0</ele><time>2026-04-27T09:53:43.387Z</time></trkpt><trkpt lat="44.5726019" lon="15.6195353"><ele>687.2</ele><time>2026-04-27T09:53:45.387Z</time></trkpt><trkpt lat="44.5726366" lon="15.6196458"><ele>685.4000000000001</ele><time>2026-04-27T09:53:46.386Z</time></trkpt><trkpt lat="44.5726727" lon="15.6197635"><ele>683.6</ele><time>2026-04-27T09:53:47.386Z</time></trkpt><trkpt lat="44.5727193" lon="15.6198869"><ele>681.8</ele><time>2026-04-27T09:53:48.386Z</time></trkpt><trkpt lat="44.5727774" lon="15.620005"><ele>680.0</ele><time>2026-04-27T09:53:49.387Z</time></trkpt><trkpt lat="44.5728388" lon="15.6201244"><ele>681.25</ele><time>2026-04-27T09:53:50.386Z</time></trkpt><trkpt lat="44.5729062" lon="15.6202523"><ele>682.5</ele><time>2026-04-27T09:53:51.387Z</time></trkpt><trkpt lat="44.5729719" lon="15.6203779"><ele>683.75</ele><time>2026-04-27T09:53:52.386Z</time></trkpt><trkpt lat="44.5730383" lon="15.6205151"><ele>685.0</ele><time>2026-04-27T09:53:53.386Z</time></trkpt><trkpt lat="44.5731729" lon="15.6208073"><ele>685.0</ele><time>2026-04-27T09:53:55.386Z</time></trkpt><trkpt lat="44.5732365" lon="15.6209594"><ele>685.0</ele><time>2026-04-27T09:53:56.386Z</time></trkpt><trkpt lat="44.5732948" lon="15.6211244"><ele>685.0</ele><time>2026-04-27T09:53:57.386Z</time></trkpt><trkpt lat="44.5733473" lon="15.6213063"><ele>685.0</ele><time>2026-04-27T09:53:58.386Z</time></trkpt><trkpt lat="44.5734695" lon="15.6216603"><ele>684.25</ele><time>2026-04-27T09:54:00.386Z</time></trkpt><trkpt lat="44.5735317" lon="15.6218262"><ele>683.5</ele><time>2026-04-27T09:54:01.386Z</time></trkpt><trkpt lat="44.573597" lon="15.621987"><ele>682.75</ele><time>2026-04-27T09:54:02.387Z</time></trkpt><trkpt lat="44.573665" lon="15.6221302"><ele>682.0</ele><time>2026-04-27T09:54:03.387Z</time></trkpt><trkpt lat="44.573751" lon="15.6222711"><ele>682.0</ele><time>2026-04-27T09:54:04.386Z</time></trkpt><trkpt lat="44.5739508" lon="15.6224996"><ele>682.0</ele><time>2026-04-27T09:54:06.386Z</time></trkpt><trkpt lat="44.5740465" lon="15.622597"><ele>682.0</ele><time>2026-04-27T09:54:07.386Z</time></trkpt><trkpt lat="44.5741417" lon="15.6227106"><ele>681.25</ele><time>2026-04-27T09:54:08.387Z</time></trkpt><trkpt lat="44.5742423" lon="15.6228234"><ele>680.5</ele><time>2026-04-27T09:54:09.386Z</time></trkpt><trkpt lat="44.5743415" lon="15.6229309"><ele>679.75</ele><time>2026-04-27T09:54:10.386Z</time></trkpt><trkpt lat="44.5744365" lon="15.6230295"><ele>679.0</ele><time>2026-04-27T09:54:11.386Z</time></trkpt><trkpt lat="44.57453" lon="15.6231347"><ele>679.0</ele><time>2026-04-27T09:54:12.386Z</time></trkpt><trkpt lat="44.5746199" lon="15.6232521"><ele>679.0</ele><time>2026-04-27T09:54:13.386Z</time></trkpt><trkpt lat="44.5747144" lon="15.6233803"><ele>679.0</ele><time>2026-04-27T09:54:14.387Z</time></trkpt><trkpt lat="44.5749045" lon="15.6236481"><ele>676.5</ele><time>2026-04-27T09:54:16.386Z</time></trkpt><trkpt lat="44.5749934" lon="15.6238022"><ele>674.0</ele><time>2026-04-27T09:54:17.386Z</time></trkpt><trkpt lat="44.5750765" lon="15.623955"><ele>671.5</ele><time>2026-04-27T09:54:18.387Z</time></trkpt><trkpt lat="44.575166" lon="15.6240959"><ele>669.0</ele><time>2026-04-27T09:54:19.386Z</time></trkpt><trkpt lat="44.5752678" lon="15.6242295"><ele>669.5</ele><time>2026-04-27T09:54:20.386Z</time></trkpt><trkpt lat="44.5753654" lon="15.6243373"><ele>670.0</ele><time>2026-04-27T09:54:21.387Z</time></trkpt><trkpt lat="44.5754676" lon="15.6244196"><ele>670.5</ele><time>2026-04-27T09:54:22.387Z</time></trkpt><trkpt lat="44.575577" lon="15.6244735"><ele>671.0</ele><time>2026-04-27T09:54:23.387Z</time></trkpt><trkpt lat="44.5756988" lon="15.6245223"><ele>671.0</ele><time>2026-04-27T09:54:24.387Z</time></trkpt><trkpt lat="44.5758682" lon="15.6245359"><ele>671.0</ele><time>2026-04-27T09:54:25.386Z</time></trkpt><trkpt lat="44.5761782" lon="15.6245617"><ele>672.0</ele><time>2026-04-27T09:54:27.386Z</time></trkpt><trkpt lat="44.5763293" lon="15.624594"><ele>673.0</ele><time>2026-04-27T09:54:28.386Z</time></trkpt><trkpt lat="44.5764611" lon="15.6246264"><ele>674.0</ele><time>2026-04-27T09:54:29.386Z</time></trkpt><trkpt lat="44.576579" lon="15.624662"><ele>675.0</ele><time>2026-04-27T09:54:30.386Z</time></trkpt><trkpt lat="44.5767102" lon="15.6246959"><ele>675.0</ele><time>2026-04-27T09:54:31.387Z</time></trkpt><trkpt lat="44.5768386" lon="15.6247281"><ele>675.0</ele><time>2026-04-27T09:54:32.387Z</time></trkpt><trkpt lat="44.5769752" lon="15.624744"><ele>675.0</ele><time>2026-04-27T09:54:33.386Z</time></trkpt><trkpt lat="44.577115" lon="15.6247517"><ele>675.0</ele><time>2026-04-27T09:54:34.387Z</time></trkpt><trkpt lat="44.5772569" lon="15.6247498"><ele>674.75</ele><time>2026-04-27T09:54:35.386Z</time></trkpt><trkpt lat="44.5773952" lon="15.6247364"><ele>674.5</ele><time>2026-04-27T09:54:36.386Z</time></trkpt><trkpt lat="44.577538" lon="15.6247217"><ele>674.25</ele><time>2026-04-27T09:54:37.386Z</time></trkpt><trkpt lat="44.5776814" lon="15.624723"><ele>674.0</ele><time>2026-04-27T09:54:38.387Z</time></trkpt><trkpt lat="44.5778154" lon="15.6247275"><ele>674.25</ele><time>2026-04-27T09:54:39.387Z</time></trkpt><trkpt lat="44.5779375" lon="15.624741"><ele>674.5</ele><time>2026-04-27T09:54:40.387Z</time></trkpt><trkpt lat="44.5780559" lon="15.6247765"><ele>674.75</ele><time>2026-04-27T09:54:41.386Z</time></trkpt><trkpt lat="44.578171" lon="15.6248472"><ele>675.0</ele><time>2026-04-27T09:54:42.386Z</time></trkpt><trkpt lat="44.5782894" lon="15.6249494"><ele>675.0</ele><time>2026-04-27T09:54:43.387Z</time></trkpt><trkpt lat="44.5784034" lon="15.6250639"><ele>675.0</ele><time>2026-04-27T09:54:44.386Z</time></trkpt><trkpt lat="44.5785249" lon="15.6251769"><ele>675.0</ele><time>2026-04-27T09:54:45.386Z</time></trkpt><trkpt lat="44.5786419" lon="15.6252829"><ele>675.0</ele><time>2026-04-27T09:54:46.386Z</time></trkpt><trkpt lat="44.5787661" lon="15.6253867"><ele>673.25</ele><time>2026-04-27T09:54:47.387Z</time></trkpt><trkpt lat="44.5790039" lon="15.6255357"><ele>671.5</ele><time>2026-04-27T09:54:49.386Z</time></trkpt><trkpt lat="44.5791023" lon="15.6255943"><ele>669.75</ele><time>2026-04-27T09:54:50.386Z</time></trkpt><trkpt lat="44.5791701" lon="15.6256552"><ele>668.0</ele><time>2026-04-27T09:54:51.386Z</time></trkpt><trkpt lat="44.5792198" lon="15.6257954"><ele>668.0</ele><time>2026-04-27T09:54:53.387Z</time></trkpt><trkpt lat="44.579209" lon="15.6258888"><ele>668.0</ele><time>2026-04-27T09:54:54.386Z</time></trkpt><trkpt lat="44.5791675" lon="15.6259891"><ele>668.0</ele><time>2026-04-27T09:54:55.386Z</time></trkpt><trkpt lat="44.579106" lon="15.6260875"><ele>668.0</ele><time>2026-04-27T09:54:56.386Z</time></trkpt><trkpt lat="44.5790249" lon="15.6261643"><ele>668.0</ele><time>2026-04-27T09:54:57.387Z</time></trkpt><trkpt lat="44.578931" lon="15.6262364"><ele>668.0</ele><time>2026-04-27T09:54:58.386Z</time></trkpt><trkpt lat="44.5787931" lon="15.6264011"><ele>667.5999999999999</ele><time>2026-04-27T09:55:00.387Z</time></trkpt><trkpt lat="44.5787597" lon="15.6265066"><ele>667.1999999999999</ele><time>2026-04-27T09:55:01.387Z</time></trkpt><trkpt lat="44.5787539" lon="15.6266376"><ele>666.8</ele><time>2026-04-27T09:55:02.386Z</time></trkpt><trkpt lat="44.5787639" lon="15.6267741"><ele>666.4</ele><time>2026-04-27T09:55:03.387Z</time></trkpt><trkpt lat="44.5787814" lon="15.6269115"><ele>666.0</ele><time>2026-04-27T09:55:04.387Z</time></trkpt><trkpt lat="44.5787999" lon="15.6270445"><ele>666.0</ele><time>2026-04-27T09:55:05.386Z</time></trkpt><trkpt lat="44.5788221" lon="15.6271713"><ele>666.0</ele><time>2026-04-27T09:55:06.386Z</time></trkpt><trkpt lat="44.5788428" lon="15.6273076"><ele>666.0</ele><time>2026-04-27T09:55:07.386Z</time></trkpt><trkpt lat="44.5788646" lon="15.6274447"><ele>666.0</ele><time>2026-04-27T09:55:08.387Z</time></trkpt><trkpt lat="44.5788859" lon="15.6275811"><ele>666.0</ele><time>2026-04-27T09:55:09.386Z</time></trkpt><trkpt lat="44.5789121" lon="15.6277195"><ele>666.4</ele><time>2026-04-27T09:55:10.386Z</time></trkpt><trkpt lat="44.5789328" lon="15.6278595"><ele>666.8</ele><time>2026-04-27T09:55:11.386Z</time></trkpt><trkpt lat="44.5789546" lon="15.6280021"><ele>667.1999999999999</ele><time>2026-04-27T09:55:12.386Z</time></trkpt><trkpt lat="44.5789737" lon="15.6281452"><ele>667.5999999999999</ele><time>2026-04-27T09:55:13.386Z</time></trkpt><trkpt lat="44.5789927" lon="15.6282813"><ele>668.0</ele><time>2026-04-27T09:55:14.387Z</time></trkpt><trkpt lat="44.5790092" lon="15.6284035"><ele>668.0</ele><time>2026-04-27T09:55:15.387Z</time></trkpt><trkpt lat="44.5790256" lon="15.6285129"><ele>668.0</ele><time>2026-04-27T09:55:16.386Z</time></trkpt><trkpt lat="44.5790389" lon="15.6286069"><ele>668.0</ele><time>2026-04-27T09:55:17.386Z</time></trkpt><trkpt lat="44.5790585" lon="15.6287184"><ele>668.0</ele><time>2026-04-27T09:55:19.386Z</time></trkpt><trkpt lat="44.5790779" lon="15.6288286"><ele>668.0</ele><time>2026-04-27T09:55:22.386Z</time></trkpt><trkpt lat="44.5790927" lon="15.6289346"><ele>668.0</ele><time>2026-04-27T09:56:30.386Z</time></trkpt><trkpt lat="44.5791115" lon="15.6290387"><ele>668.3333333333333</ele><time>2026-04-27T09:56:32.386Z</time></trkpt><trkpt lat="44.5791265" lon="15.6291317"><ele>668.6666666666666</ele><time>2026-04-27T09:56:33.386Z</time></trkpt><trkpt lat="44.5791418" lon="15.6292316"><ele>669.0</ele><time>2026-04-27T09:56:34.386Z</time></trkpt><trkpt lat="44.5791608" lon="15.6293462"><ele>669.3333333333334</ele><time>2026-04-27T09:56:35.386Z</time></trkpt><trkpt lat="44.5791758" lon="15.6294641"><ele>669.6666666666667</ele><time>2026-04-27T09:56:36.386Z</time></trkpt><trkpt lat="44.5791916" lon="15.6295891"><ele>670.0</ele><time>2026-04-27T09:56:37.386Z</time></trkpt><trkpt lat="44.5792113" lon="15.6297206"><ele>670.75</ele><time>2026-04-27T09:56:38.387Z</time></trkpt><trkpt lat="44.5792308" lon="15.629869"><ele>671.5</ele><time>2026-04-27T09:56:39.386Z</time></trkpt><trkpt lat="44.5792527" lon="15.6300392"><ele>672.25</ele><time>2026-04-27T09:56:40.386Z</time></trkpt><trkpt lat="44.5792694" lon="15.6302175"><ele>673.0</ele><time>2026-04-27T09:56:41.386Z</time></trkpt><trkpt lat="44.5792833" lon="15.6303879"><ele>673.4</ele><time>2026-04-27T09:56:42.386Z</time></trkpt><trkpt lat="44.5792964" lon="15.6305396"><ele>673.8</ele><time>2026-04-27T09:56:43.386Z</time></trkpt><trkpt lat="44.5793116" lon="15.6306986"><ele>674.2</ele><time>2026-04-27T09:56:44.386Z</time></trkpt><trkpt lat="44.5793286" lon="15.6308474"><ele>674.6</ele><time>2026-04-27T09:56:45.386Z</time></trkpt><trkpt lat="44.5793453" lon="15.6309786"><ele>675.0</ele><time>2026-04-27T09:56:46.386Z</time></trkpt><trkpt lat="44.5793585" lon="15.6310864"><ele>675.6</ele><time>2026-04-27T09:56:47.387Z</time></trkpt><trkpt lat="44.579382" lon="15.6312199"><ele>676.2</ele><time>2026-04-27T09:56:49.386Z</time></trkpt><trkpt lat="44.5794715" lon="15.6313037"><ele>676.8</ele><time>2026-04-27T09:56:51.386Z</time></trkpt><trkpt lat="44.5795478" lon="15.6313245"><ele>677.4</ele><time>2026-04-27T09:56:52.386Z</time></trkpt><trkpt lat="44.5796357" lon="15.6313467"><ele>678.0</ele><time>2026-04-27T09:56:53.386Z</time></trkpt><trkpt lat="44.5797318" lon="15.6313688"><ele>678.0</ele><time>2026-04-27T09:56:54.387Z</time></trkpt><trkpt lat="44.579843" lon="15.6313833"><ele>678.0</ele><time>2026-04-27T09:56:55.386Z</time></trkpt><trkpt lat="44.5799621" lon="15.631401"><ele>678.0</ele><time>2026-04-27T09:56:56.386Z</time></trkpt><trkpt lat="44.5800863" lon="15.6314193"><ele>678.0</ele><time>2026-04-27T09:56:57.387Z</time></trkpt><trkpt lat="44.5802116" lon="15.6314419"><ele>678.0</ele><time>2026-04-27T09:56:58.387Z</time></trkpt><trkpt lat="44.5803373" lon="15.6314601"><ele>678.0</ele><time>2026-04-27T09:56:59.386Z</time></trkpt><trkpt lat="44.5804662" lon="15.6314905"><ele>678.0</ele><time>2026-04-27T09:57:00.387Z</time></trkpt><trkpt lat="44.5805959" lon="15.631518"><ele>678.0</ele><time>2026-04-27T09:57:01.386Z</time></trkpt><trkpt lat="44.580726" lon="15.6315443"><ele>678.5</ele><time>2026-04-27T09:57:02.387Z</time></trkpt><trkpt lat="44.5808573" lon="15.6315727"><ele>679.0</ele><time>2026-04-27T09:57:03.386Z</time></trkpt><trkpt lat="44.5809882" lon="15.6316008"><ele>679.5</ele><time>2026-04-27T09:57:04.386Z</time></trkpt><trkpt lat="44.5811193" lon="15.6316227"><ele>680.0</ele><time>2026-04-27T09:57:05.386Z</time></trkpt><trkpt lat="44.5812477" lon="15.6316264"><ele>680.25</ele><time>2026-04-27T09:57:06.386Z</time></trkpt><trkpt lat="44.581382" lon="15.6316208"><ele>680.5</ele><time>2026-04-27T09:57:07.386Z</time></trkpt><trkpt lat="44.5815166" lon="15.6316032"><ele>680.75</ele><time>2026-04-27T09:57:08.387Z</time></trkpt><trkpt lat="44.5816483" lon="15.6315888"><ele>681.0</ele><time>2026-04-27T09:57:09.386Z</time></trkpt><trkpt lat="44.5817829" lon="15.6315699"><ele>681.0</ele><time>2026-04-27T09:57:10.386Z</time></trkpt><trkpt lat="44.5819157" lon="15.6315534"><ele>681.0</ele><time>2026-04-27T09:57:11.387Z</time></trkpt><trkpt lat="44.582049" lon="15.6315291"><ele>681.0</ele><time>2026-04-27T09:57:12.387Z</time></trkpt><trkpt lat="44.5821823" lon="15.6315168"><ele>681.0</ele><time>2026-04-27T09:57:13.387Z</time></trkpt><trkpt lat="44.5823188" lon="15.6314979"><ele>681.25</ele><time>2026-04-27T09:57:14.386Z</time></trkpt><trkpt lat="44.5824487" lon="15.6314811"><ele>681.5</ele><time>2026-04-27T09:57:15.386Z</time></trkpt><trkpt lat="44.5825845" lon="15.6314577"><ele>681.75</ele><time>2026-04-27T09:57:16.387Z</time></trkpt><trkpt lat="44.5827054" lon="15.631446"><ele>682.0</ele><time>2026-04-27T09:57:17.386Z</time></trkpt><trkpt lat="44.5828177" lon="15.6314236"><ele>682.6</ele><time>2026-04-27T09:57:18.386Z</time></trkpt><trkpt lat="44.5829101" lon="15.6314111"><ele>683.2</ele><time>2026-04-27T09:57:19.386Z</time></trkpt><trkpt lat="44.5830034" lon="15.6313932"><ele>683.8</ele><time>2026-04-27T09:57:20.387Z</time></trkpt><trkpt lat="44.5831052" lon="15.631455"><ele>684.4</ele><time>2026-04-27T09:57:22.386Z</time></trkpt><trkpt lat="44.5831755" lon="15.6316131"><ele>685.0</ele><time>2026-04-27T09:57:24.386Z</time></trkpt><trkpt lat="44.5832094" lon="15.6317284"><ele>685.0</ele><time>2026-04-27T09:57:25.386Z</time></trkpt><trkpt lat="44.5832561" lon="15.6318673"><ele>685.0</ele><time>2026-04-27T09:57:26.387Z</time></trkpt><trkpt lat="44.5833229" lon="15.6320053"><ele>685.0</ele><time>2026-04-27T09:57:27.386Z</time></trkpt><trkpt lat="44.5834004" lon="15.6321278"><ele>685.0</ele><time>2026-04-27T09:57:28.387Z</time></trkpt><trkpt lat="44.5834812" lon="15.6322572"><ele>686.75</ele><time>2026-04-27T09:57:29.386Z</time></trkpt><trkpt lat="44.5835685" lon="15.6323676"><ele>688.5</ele><time>2026-04-27T09:57:30.387Z</time></trkpt><trkpt lat="44.5836637" lon="15.6324848"><ele>690.25</ele><time>2026-04-27T09:57:31.386Z</time></trkpt><trkpt lat="44.5837574" lon="15.6325653"><ele>692.0</ele><time>2026-04-27T09:57:32.387Z</time></trkpt><trkpt lat="44.5838736" lon="15.6326334"><ele>692.75</ele><time>2026-04-27T09:57:33.387Z</time></trkpt><trkpt lat="44.5839905" lon="15.6326887"><ele>693.5</ele><time>2026-04-27T09:57:34.386Z</time></trkpt><trkpt lat="44.5841097" lon="15.632744"><ele>694.25</ele><time>2026-04-27T09:57:35.386Z</time></trkpt><trkpt lat="44.5842405" lon="15.632813"><ele>695.0</ele><time>2026-04-27T09:57:36.386Z</time></trkpt><trkpt lat="44.5843412" lon="15.6329005"><ele>696.75</ele><time>2026-04-27T09:57:37.386Z</time></trkpt><trkpt lat="44.5844383" lon="15.6329931"><ele>698.5</ele><time>2026-04-27T09:57:38.387Z</time></trkpt><trkpt lat="44.5844763" lon="15.6331315"><ele>700.25</ele><time>2026-04-27T09:57:39.386Z</time></trkpt><trkpt lat="44.5845114" lon="15.6332781"><ele>702.0</ele><time>2026-04-27T09:57:40.387Z</time></trkpt><trkpt lat="44.5845336" lon="15.6334413"><ele>702.0</ele><time>2026-04-27T09:57:41.387Z</time></trkpt><trkpt lat="44.5845499" lon="15.6336154"><ele>702.0</ele><time>2026-04-27T09:57:42.386Z</time></trkpt><trkpt lat="44.5845599" lon="15.6337865"><ele>702.0</ele><time>2026-04-27T09:57:43.386Z</time></trkpt><trkpt lat="44.584564" lon="15.633955"><ele>702.0</ele><time>2026-04-27T09:57:44.386Z</time></trkpt><trkpt lat="44.584569" lon="15.6341112"><ele>703.2</ele><time>2026-04-27T09:57:45.386Z</time></trkpt><trkpt lat="44.5845693" lon="15.6342563"><ele>704.4000000000001</ele><time>2026-04-27T09:57:46.386Z</time></trkpt><trkpt lat="44.5845747" lon="15.6343968"><ele>705.5999999999999</ele><time>2026-04-27T09:57:47.386Z</time></trkpt><trkpt lat="44.5845787" lon="15.6345443"><ele>706.8</ele><time>2026-04-27T09:57:48.387Z</time></trkpt><trkpt lat="44.5845919" lon="15.6347069"><ele>708.0</ele><time>2026-04-27T09:57:49.386Z</time></trkpt><trkpt lat="44.5846111" lon="15.6348747"><ele>709.25</ele><time>2026-04-27T09:57:50.386Z</time></trkpt><trkpt lat="44.5846297" lon="15.6350344"><ele>710.5</ele><time>2026-04-27T09:57:51.386Z</time></trkpt><trkpt lat="44.5846509" lon="15.6351937"><ele>711.75</ele><time>2026-04-27T09:57:52.386Z</time></trkpt><trkpt lat="44.5846699" lon="15.6353514"><ele>713.0</ele><time>2026-04-27T09:57:53.386Z</time></trkpt><trkpt lat="44.5846982" lon="15.6354944"><ele>713.6666666666666</ele><time>2026-04-27T09:57:54.386Z</time></trkpt><trkpt lat="44.5847252" lon="15.6356232"><ele>714.3333333333333</ele><time>2026-04-27T09:57:55.386Z</time></trkpt><trkpt lat="44.5847541" lon="15.6357358"><ele>715.0</ele><time>2026-04-27T09:57:56.386Z</time></trkpt><trkpt lat="44.5847756" lon="15.6358337"><ele>715.6666666666666</ele><time>2026-04-27T09:57:57.386Z</time></trkpt><trkpt lat="44.5848019" lon="15.6359143"><ele>716.3333333333334</ele><time>2026-04-27T09:57:58.386Z</time></trkpt><trkpt lat="44.5848274" lon="15.6360059"><ele>717.0</ele><time>2026-04-27T09:57:59.386Z</time></trkpt><trkpt lat="44.5848643" lon="15.636111"><ele>717.4000000000001</ele><time>2026-04-27T09:58:00.386Z</time></trkpt><trkpt lat="44.584918" lon="15.6362299"><ele>717.8000000000001</ele><time>2026-04-27T09:58:01.386Z</time></trkpt><trkpt lat="44.5849821" lon="15.6363378"><ele>718.2</ele><time>2026-04-27T09:58:02.386Z</time></trkpt><trkpt lat="44.5850344" lon="15.6364565"><ele>718.6</ele><time>2026-04-27T09:58:03.386Z</time></trkpt><trkpt lat="44.5850681" lon="15.6365945"><ele>719.0</ele><time>2026-04-27T09:58:04.387Z</time></trkpt><trkpt lat="44.5850748" lon="15.6367533"><ele>719.0</ele><time>2026-04-27T09:58:05.387Z</time></trkpt><trkpt lat="44.5850846" lon="15.6369087"><ele>719.0</ele><time>2026-04-27T09:58:06.386Z</time></trkpt><trkpt lat="44.5850893" lon="15.6370666"><ele>719.0</ele><time>2026-04-27T09:58:07.386Z</time></trkpt><trkpt lat="44.5851162" lon="15.6372117"><ele>719.0</ele><time>2026-04-27T09:58:08.386Z</time></trkpt><trkpt lat="44.5851699" lon="15.6373407"><ele>719.0</ele><time>2026-04-27T09:58:09.386Z</time></trkpt><trkpt lat="44.5852563" lon="15.6374613"><ele>717.75</ele><time>2026-04-27T09:58:10.386Z</time></trkpt><trkpt lat="44.58536" lon="15.6375811"><ele>716.5</ele><time>2026-04-27T09:58:11.387Z</time></trkpt><trkpt lat="44.5854696" lon="15.6377031"><ele>715.25</ele><time>2026-04-27T09:58:12.387Z</time></trkpt><trkpt lat="44.5855848" lon="15.6378319"><ele>714.0</ele><time>2026-04-27T09:58:13.386Z</time></trkpt><trkpt lat="44.5857042" lon="15.6379563"><ele>714.0</ele><time>2026-04-27T09:58:14.386Z</time></trkpt><trkpt lat="44.5858292" lon="15.6380933"><ele>714.0</ele><time>2026-04-27T09:58:15.386Z</time></trkpt><trkpt lat="44.5859569" lon="15.6382349"><ele>714.0</ele><time>2026-04-27T09:58:16.387Z</time></trkpt><trkpt lat="44.5860853" lon="15.6383731"><ele>714.0</ele><time>2026-04-27T09:58:17.387Z</time></trkpt><trkpt lat="44.5862161" lon="15.6385133"><ele>714.0</ele><time>2026-04-27T09:58:18.386Z</time></trkpt><trkpt lat="44.5863419" lon="15.6386505"><ele>714.0</ele><time>2026-04-27T09:58:19.387Z</time></trkpt><trkpt lat="44.5864769" lon="15.6387841"><ele>714.0</ele><time>2026-04-27T09:58:20.386Z</time></trkpt><trkpt lat="44.5865889" lon="15.6389206"><ele>714.0</ele><time>2026-04-27T09:58:21.387Z</time></trkpt><trkpt lat="44.5867177" lon="15.6390511"><ele>714.0</ele><time>2026-04-27T09:58:22.387Z</time></trkpt><trkpt lat="44.5868426" lon="15.6391748"><ele>714.0</ele><time>2026-04-27T09:58:23.386Z</time></trkpt><trkpt lat="44.5869559" lon="15.6392962"><ele>714.0</ele><time>2026-04-27T09:58:24.386Z</time></trkpt><trkpt lat="44.5870716" lon="15.6394185"><ele>714.0</ele><time>2026-04-27T09:58:25.387Z</time></trkpt><trkpt lat="44.5871774" lon="15.6395376"><ele>714.0</ele><time>2026-04-27T09:58:26.386Z</time></trkpt><trkpt lat="44.5872852" lon="15.6396546"><ele>715.25</ele><time>2026-04-27T09:58:27.387Z</time></trkpt><trkpt lat="44.5873961" lon="15.6397772"><ele>716.5</ele><time>2026-04-27T09:58:28.386Z</time></trkpt><trkpt lat="44.5875124" lon="15.6398962"><ele>717.75</ele><time>2026-04-27T09:58:29.386Z</time></trkpt><trkpt lat="44.5876356" lon="15.6400162"><ele>719.0</ele><time>2026-04-27T09:58:30.386Z</time></trkpt><trkpt lat="44.5877585" lon="15.6401433"><ele>719.0</ele><time>2026-04-27T09:58:31.386Z</time></trkpt><trkpt lat="44.5878848" lon="15.6402703"><ele>719.0</ele><time>2026-04-27T09:58:32.387Z</time></trkpt><trkpt lat="44.5880114" lon="15.6403985"><ele>719.0</ele><time>2026-04-27T09:58:33.387Z</time></trkpt><trkpt lat="44.5881391" lon="15.6405253"><ele>719.0</ele><time>2026-04-27T09:58:34.386Z</time></trkpt><trkpt lat="44.5882695" lon="15.6406512"><ele>719.0</ele><time>2026-04-27T09:58:35.386Z</time></trkpt><trkpt lat="44.5883984" lon="15.6407731"><ele>719.0</ele><time>2026-04-27T09:58:36.386Z</time></trkpt><trkpt lat="44.5885273" lon="15.6408998"><ele>719.0</ele><time>2026-04-27T09:58:37.387Z</time></trkpt><trkpt lat="44.5886571" lon="15.6410275"><ele>719.0</ele><time>2026-04-27T09:58:38.386Z</time></trkpt><trkpt lat="44.5887885" lon="15.6411622"><ele>719.0</ele><time>2026-04-27T09:58:39.387Z</time></trkpt><trkpt lat="44.5889181" lon="15.6412966"><ele>718.0</ele><time>2026-04-27T09:58:40.386Z</time></trkpt><trkpt lat="44.5890532" lon="15.6414407"><ele>717.0</ele><time>2026-04-27T09:58:41.386Z</time></trkpt><trkpt lat="44.5891906" lon="15.641581"><ele>716.0</ele><time>2026-04-27T09:58:42.386Z</time></trkpt><trkpt lat="44.5893284" lon="15.6417242"><ele>716.0</ele><time>2026-04-27T09:58:43.386Z</time></trkpt><trkpt lat="44.5894655" lon="15.64186"><ele>716.0</ele><time>2026-04-27T09:58:44.386Z</time></trkpt><trkpt lat="44.5895927" lon="15.6419897"><ele>716.0</ele><time>2026-04-27T09:58:45.386Z</time></trkpt><trkpt lat="44.589721" lon="15.6420872"><ele>717.6666666666666</ele><time>2026-04-27T09:58:46.386Z</time></trkpt><trkpt lat="44.5898584" lon="15.6421467"><ele>719.3333333333334</ele><time>2026-04-27T09:58:47.386Z</time></trkpt><trkpt lat="44.5900113" lon="15.6421851"><ele>721.0</ele><time>2026-04-27T09:58:48.386Z</time></trkpt><trkpt lat="44.590163" lon="15.6421953"><ele>721.0</ele><time>2026-04-27T09:58:49.386Z</time></trkpt><trkpt lat="44.5902992" lon="15.6422187"><ele>721.0</ele><time>2026-04-27T09:58:50.386Z</time></trkpt><trkpt lat="44.5904407" lon="15.6422634"><ele>721.0</ele><time>2026-04-27T09:58:51.386Z</time></trkpt><trkpt lat="44.5905666" lon="15.6423355"><ele>721.0</ele><time>2026-04-27T09:58:52.386Z</time></trkpt><trkpt lat="44.5906924" lon="15.6424518"><ele>723.3333333333334</ele><time>2026-04-27T09:58:53.386Z</time></trkpt><trkpt lat="44.5908158" lon="15.6425888"><ele>725.6666666666666</ele><time>2026-04-27T09:58:54.386Z</time></trkpt><trkpt lat="44.5909405" lon="15.6427323"><ele>728.0</ele><time>2026-04-27T09:58:55.387Z</time></trkpt><trkpt lat="44.5910718" lon="15.6428887"><ele>730.0</ele><time>2026-04-27T09:58:56.387Z</time></trkpt><trkpt lat="44.591209" lon="15.6430464"><ele>732.0</ele><time>2026-04-27T09:58:57.386Z</time></trkpt><trkpt lat="44.5913477" lon="15.6432126"><ele>734.0</ele><time>2026-04-27T09:58:58.387Z</time></trkpt><trkpt lat="44.5914893" lon="15.6433782"><ele>734.0</ele><time>2026-04-27T09:58:59.386Z</time></trkpt><trkpt lat="44.5916314" lon="15.6435496"><ele>734.0</ele><time>2026-04-27T09:59:00.387Z</time></trkpt><trkpt lat="44.5917635" lon="15.6437152"><ele>734.0</ele><time>2026-04-27T09:59:01.387Z</time></trkpt><trkpt lat="44.5918826" lon="15.6438636"><ele>733.0</ele><time>2026-04-27T09:59:02.387Z</time></trkpt><trkpt lat="44.5919961" lon="15.6439997"><ele>732.0</ele><time>2026-04-27T09:59:03.386Z</time></trkpt><trkpt lat="44.592103" lon="15.6441374"><ele>731.0</ele><time>2026-04-27T09:59:04.386Z</time></trkpt><trkpt lat="44.5921966" lon="15.6442832"><ele>730.0</ele><time>2026-04-27T09:59:05.386Z</time></trkpt><trkpt lat="44.5922858" lon="15.6444315"><ele>730.75</ele><time>2026-04-27T09:59:06.387Z</time></trkpt><trkpt lat="44.592371" lon="15.6445853"><ele>731.5</ele><time>2026-04-27T09:59:07.386Z</time></trkpt><trkpt lat="44.5924594" lon="15.6447332"><ele>732.25</ele><time>2026-04-27T09:59:08.387Z</time></trkpt><trkpt lat="44.5925474" lon="15.6448842"><ele>733.0</ele><time>2026-04-27T09:59:09.386Z</time></trkpt><trkpt lat="44.5926297" lon="15.6450346"><ele>733.0</ele><time>2026-04-27T09:59:10.387Z</time></trkpt><trkpt lat="44.5927108" lon="15.645182"><ele>733.0</ele><time>2026-04-27T09:59:11.386Z</time></trkpt><trkpt lat="44.5927916" lon="15.6453273"><ele>733.0</ele><time>2026-04-27T09:59:12.386Z</time></trkpt><trkpt lat="44.5928669" lon="15.6454762"><ele>733.0</ele><time>2026-04-27T09:59:13.387Z</time></trkpt><trkpt lat="44.5929379" lon="15.645622"><ele>731.5</ele><time>2026-04-27T09:59:14.386Z</time></trkpt><trkpt lat="44.5930152" lon="15.6457772"><ele>730.0</ele><time>2026-04-27T09:59:15.386Z</time></trkpt><trkpt lat="44.5930872" lon="15.6459283"><ele>728.5</ele><time>2026-04-27T09:59:16.387Z</time></trkpt><trkpt lat="44.5931592" lon="15.6460783"><ele>727.0</ele><time>2026-04-27T09:59:17.386Z</time></trkpt><trkpt lat="44.593239" lon="15.6462243"><ele>727.0</ele><time>2026-04-27T09:59:18.387Z</time></trkpt><trkpt lat="44.5933279" lon="15.64637"><ele>727.0</ele><time>2026-04-27T09:59:19.387Z</time></trkpt><trkpt lat="44.5934232" lon="15.6465147"><ele>727.0</ele><time>2026-04-27T09:59:20.386Z</time></trkpt><trkpt lat="44.5935206" lon="15.6466602"><ele>727.0</ele><time>2026-04-27T09:59:21.386Z</time></trkpt><trkpt lat="44.5936231" lon="15.6468022"><ele>725.75</ele><time>2026-04-27T09:59:22.387Z</time></trkpt><trkpt lat="44.5937218" lon="15.6469562"><ele>724.5</ele><time>2026-04-27T09:59:23.386Z</time></trkpt><trkpt lat="44.5938232" lon="15.6471063"><ele>723.25</ele><time>2026-04-27T09:59:24.386Z</time></trkpt><trkpt lat="44.5939215" lon="15.6472658"><ele>722.0</ele><time>2026-04-27T09:59:25.387Z</time></trkpt><trkpt lat="44.5940177" lon="15.6474346"><ele>722.0</ele><time>2026-04-27T09:59:26.387Z</time></trkpt><trkpt lat="44.5941049" lon="15.6476118"><ele>722.0</ele><time>2026-04-27T09:59:27.386Z</time></trkpt><trkpt lat="44.5941834" lon="15.6477915"><ele>722.0</ele><time>2026-04-27T09:59:28.386Z</time></trkpt><trkpt lat="44.5942586" lon="15.647961"><ele>722.0</ele><time>2026-04-27T09:59:29.386Z</time></trkpt><trkpt lat="44.5943448" lon="15.6481122"><ele>722.0</ele><time>2026-04-27T09:59:30.387Z</time></trkpt><trkpt lat="44.5944485" lon="15.6482437"><ele>722.0</ele><time>2026-04-27T09:59:31.386Z</time></trkpt><trkpt lat="44.5945825" lon="15.648339"><ele>722.0</ele><time>2026-04-27T09:59:32.387Z</time></trkpt><trkpt lat="44.594722" lon="15.6484008"><ele>722.0</ele><time>2026-04-27T09:59:33.386Z</time></trkpt><trkpt lat="44.5948712" lon="15.6484592"><ele>721.6666666666666</ele><time>2026-04-27T09:59:34.386Z</time></trkpt><trkpt lat="44.5950307" lon="15.6485142"><ele>721.3333333333334</ele><time>2026-04-27T09:59:35.387Z</time></trkpt><trkpt lat="44.5951847" lon="15.6485734"><ele>721.0</ele><time>2026-04-27T09:59:36.386Z</time></trkpt><trkpt lat="44.5953439" lon="15.6486543"><ele>721.0</ele><time>2026-04-27T09:59:37.386Z</time></trkpt><trkpt lat="44.5954847" lon="15.6487523"><ele>721.0</ele><time>2026-04-27T09:59:38.386Z</time></trkpt><trkpt lat="44.5956205" lon="15.648871"><ele>721.0</ele><time>2026-04-27T09:59:39.386Z</time></trkpt><trkpt lat="44.595748" lon="15.6489966"><ele>721.0</ele><time>2026-04-27T09:59:40.386Z</time></trkpt><trkpt lat="44.5958707" lon="15.6491204"><ele>721.0</ele><time>2026-04-27T09:59:41.386Z</time></trkpt><trkpt lat="44.5959833" lon="15.6492484"><ele>721.0</ele><time>2026-04-27T09:59:42.387Z</time></trkpt><trkpt lat="44.5960852" lon="15.6493885"><ele>721.0</ele><time>2026-04-27T09:59:43.386Z</time></trkpt><trkpt lat="44.5961724" lon="15.6495438"><ele>721.5</ele><time>2026-04-27T09:59:44.386Z</time></trkpt><trkpt lat="44.5962432" lon="15.6497166"><ele>722.0</ele><time>2026-04-27T09:59:45.386Z</time></trkpt><trkpt lat="44.5963056" lon="15.6498856"><ele>722.5</ele><time>2026-04-27T09:59:46.387Z</time></trkpt><trkpt lat="44.5963509" lon="15.6500561"><ele>723.0</ele><time>2026-04-27T09:59:47.386Z</time></trkpt><trkpt lat="44.5963831" lon="15.6502444"><ele>723.0</ele><time>2026-04-27T09:59:48.387Z</time></trkpt><trkpt lat="44.5964124" lon="15.6504357"><ele>723.0</ele><time>2026-04-27T09:59:49.386Z</time></trkpt><trkpt lat="44.59645" lon="15.6506177"><ele>723.0</ele><time>2026-04-27T09:59:50.386Z</time></trkpt><trkpt lat="44.5965028" lon="15.650799"><ele>723.0</ele><time>2026-04-27T09:59:51.386Z</time></trkpt><trkpt lat="44.5965591" lon="15.6509779"><ele>723.0</ele><time>2026-04-27T09:59:52.386Z</time></trkpt><trkpt lat="44.5966222" lon="15.6511674"><ele>723.0</ele><time>2026-04-27T09:59:53.386Z</time></trkpt><trkpt lat="44.5966911" lon="15.6513531"><ele>723.0</ele><time>2026-04-27T09:59:54.387Z</time></trkpt><trkpt lat="44.5967619" lon="15.6515403"><ele>723.0</ele><time>2026-04-27T09:59:55.386Z</time></trkpt><trkpt lat="44.5968373" lon="15.6517142"><ele>723.0</ele><time>2026-04-27T09:59:56.386Z</time></trkpt><trkpt lat="44.5969225" lon="15.6518766"><ele>723.0</ele><time>2026-04-27T09:59:57.387Z</time></trkpt><trkpt lat="44.5970164" lon="15.6520422"><ele>723.0</ele><time>2026-04-27T09:59:58.386Z</time></trkpt><trkpt lat="44.5971182" lon="15.6522109"><ele>720.6666666666666</ele><time>2026-04-27T09:59:59.386Z</time></trkpt><trkpt lat="44.5972291" lon="15.6523798"><ele>718.3333333333333</ele><time>2026-04-27T10:00:00.386Z</time></trkpt><trkpt lat="44.5973452" lon="15.652549"><ele>716.0</ele><time>2026-04-27T10:00:01.386Z</time></trkpt><trkpt lat="44.5974611" lon="15.6527095"><ele>714.75</ele><time>2026-04-27T10:00:02.386Z</time></trkpt><trkpt lat="44.5975689" lon="15.6528621"><ele>713.5</ele><time>2026-04-27T10:00:03.386Z</time></trkpt><trkpt lat="44.597672" lon="15.6529992"><ele>712.25</ele><time>2026-04-27T10:00:04.386Z</time></trkpt><trkpt lat="44.5977663" lon="15.6531022"><ele>711.0</ele><time>2026-04-27T10:00:05.386Z</time></trkpt><trkpt lat="44.597873" lon="15.653192"><ele>710.25</ele><time>2026-04-27T10:00:06.386Z</time></trkpt><trkpt lat="44.5979922" lon="15.6532578"><ele>709.5</ele><time>2026-04-27T10:00:07.386Z</time></trkpt><trkpt lat="44.59813" lon="15.6533015"><ele>708.75</ele><time>2026-04-27T10:00:08.387Z</time></trkpt><trkpt lat="44.5982776" lon="15.6533253"><ele>708.0</ele><time>2026-04-27T10:00:09.386Z</time></trkpt><trkpt lat="44.59843" lon="15.6533473"><ele>708.0</ele><time>2026-04-27T10:00:10.386Z</time></trkpt><trkpt lat="44.5985756" lon="15.6533661"><ele>708.0</ele><time>2026-04-27T10:00:11.386Z</time></trkpt><trkpt lat="44.5987187" lon="15.6534055"><ele>708.0</ele><time>2026-04-27T10:00:12.386Z</time></trkpt><trkpt lat="44.5988559" lon="15.6534791"><ele>708.0</ele><time>2026-04-27T10:00:13.387Z</time></trkpt><trkpt lat="44.5989962" lon="15.6535698"><ele>704.6666666666666</ele><time>2026-04-27T10:00:14.386Z</time></trkpt><trkpt lat="44.5991366" lon="15.6536788"><ele>701.3333333333333</ele><time>2026-04-27T10:00:15.387Z</time></trkpt><trkpt lat="44.5992778" lon="15.6537922"><ele>698.0</ele><time>2026-04-27T10:00:16.386Z</time></trkpt><trkpt lat="44.5994107" lon="15.6539086"><ele>699.25</ele><time>2026-04-27T10:00:17.386Z</time></trkpt><trkpt lat="44.5995284" lon="15.6540182"><ele>700.5</ele><time>2026-04-27T10:00:18.387Z</time></trkpt><trkpt lat="44.5996484" lon="15.6541215"><ele>701.75</ele><time>2026-04-27T10:00:19.386Z</time></trkpt><trkpt lat="44.5997592" lon="15.6542125"><ele>703.0</ele><time>2026-04-27T10:00:20.387Z</time></trkpt><trkpt lat="44.5998533" lon="15.6542871"><ele>703.0</ele><time>2026-04-27T10:00:21.386Z</time></trkpt><trkpt lat="44.5999249" lon="15.6543435"><ele>703.0</ele><time>2026-04-27T10:00:22.386Z</time></trkpt><trkpt lat="44.5999751" lon="15.6544094"><ele>703.0</ele><time>2026-04-27T10:00:23.387Z</time></trkpt><trkpt lat="44.5999722" lon="15.6545447"><ele>703.0</ele><time>2026-04-27T10:00:25.386Z</time></trkpt><trkpt lat="44.5998476" lon="15.6546146"><ele>703.0</ele><time>2026-04-27T10:00:27.386Z</time></trkpt><trkpt lat="44.5997564" lon="15.6546266"><ele>700.2</ele><time>2026-04-27T10:00:28.387Z</time></trkpt><trkpt lat="44.5996544" lon="15.6546488"><ele>697.4</ele><time>2026-04-27T10:00:29.387Z</time></trkpt><trkpt lat="44.5995549" lon="15.6546593"><ele>694.6</ele><time>2026-04-27T10:00:30.386Z</time></trkpt><trkpt lat="44.5994483" lon="15.6546747"><ele>691.8000000000001</ele><time>2026-04-27T10:00:31.386Z</time></trkpt><trkpt lat="44.5993442" lon="15.654686"><ele>689.0</ele><time>2026-04-27T10:00:32.386Z</time></trkpt><trkpt lat="44.5992506" lon="15.654688"><ele>688.6</ele><time>2026-04-27T10:00:33.386Z</time></trkpt><trkpt lat="44.5991583" lon="15.6546929"><ele>688.2</ele><time>2026-04-27T10:00:34.386Z</time></trkpt><trkpt lat="44.5990673" lon="15.654705"><ele>687.8000000000001</ele><time>2026-04-27T10:00:35.386Z</time></trkpt><trkpt lat="44.5989794" lon="15.6547232"><ele>687.4000000000001</ele><time>2026-04-27T10:00:36.387Z</time></trkpt><trkpt lat="44.5988853" lon="15.6547473"><ele>687.0</ele><time>2026-04-27T10:00:37.386Z</time></trkpt><trkpt lat="44.5987916" lon="15.6547705"><ele>687.0</ele><time>2026-04-27T10:00:38.386Z</time></trkpt><trkpt lat="44.5987035" lon="15.6547972"><ele>687.0</ele><time>2026-04-27T10:00:39.386Z</time></trkpt><trkpt lat="44.5986231" lon="15.6548032"><ele>687.0</ele><time>2026-04-27T10:00:40.386Z</time></trkpt><trkpt lat="44.5985511" lon="15.6547825"><ele>687.0</ele><time>2026-04-27T10:00:41.386Z</time></trkpt><trkpt lat="44.5984946" lon="15.6547281"><ele>687.0</ele><time>2026-04-27T10:00:42.386Z</time></trkpt><trkpt lat="44.5984582" lon="15.6546521"><ele>687.0</ele><time>2026-04-27T10:00:43.386Z</time></trkpt><trkpt lat="44.5984262" lon="15.6545619"><ele>686.6666666666666</ele><time>2026-04-27T10:00:44.386Z</time></trkpt><trkpt lat="44.5983888" lon="15.6544606"><ele>686.3333333333334</ele><time>2026-04-27T10:00:45.386Z</time></trkpt><trkpt lat="44.5983272" lon="15.6543828"><ele>686.0</ele><time>2026-04-27T10:00:46.387Z</time></trkpt><trkpt lat="44.5982542" lon="15.6543342"><ele>685.6666666666667</ele><time>2026-04-27T10:00:47.386Z</time></trkpt><trkpt lat="44.5981748" lon="15.6543062"><ele>685.3333333333334</ele><time>2026-04-27T10:00:48.386Z</time></trkpt><trkpt lat="44.5980965" lon="15.6543207"><ele>685.0</ele><time>2026-04-27T10:00:49.386Z</time></trkpt><trkpt lat="44.5980365" lon="15.6543787"><ele>685.0</ele><time>2026-04-27T10:00:50.387Z</time></trkpt><trkpt lat="44.5980135" lon="15.6544733"><ele>685.0</ele><time>2026-04-27T10:00:51.387Z</time></trkpt><trkpt lat="44.5980224" lon="15.6545837"><ele>685.0</ele><time>2026-04-27T10:00:52.386Z</time></trkpt><trkpt lat="44.5980564" lon="15.6547019"><ele>685.0</ele><time>2026-04-27T10:00:53.386Z</time></trkpt><trkpt lat="44.5980938" lon="15.6548227"><ele>685.0</ele><time>2026-04-27T10:00:54.386Z</time></trkpt><trkpt lat="44.5981368" lon="15.6549485"><ele>685.0</ele><time>2026-04-27T10:00:55.386Z</time></trkpt><trkpt lat="44.5981826" lon="15.6550883"><ele>685.0</ele><time>2026-04-27T10:00:56.386Z</time></trkpt><trkpt lat="44.5982372" lon="15.6552218"><ele>685.0</ele><time>2026-04-27T10:00:57.386Z</time></trkpt><trkpt lat="44.5983021" lon="15.6553537"><ele>685.0</ele><time>2026-04-27T10:00:58.386Z</time></trkpt><trkpt lat="44.5983632" lon="15.6554832"><ele>685.0</ele><time>2026-04-27T10:00:59.386Z</time></trkpt><trkpt lat="44.5984089" lon="15.655605"><ele>685.0</ele><time>2026-04-27T10:01:00.386Z</time></trkpt><trkpt lat="44.5984632" lon="15.6557112"><ele>683.5</ele><time>2026-04-27T10:01:01.386Z</time></trkpt><trkpt lat="44.598522" lon="15.6557971"><ele>682.0</ele><time>2026-04-27T10:01:02.386Z</time></trkpt><trkpt lat="44.5985722" lon="15.6558658"><ele>680.5</ele><time>2026-04-27T10:01:03.386Z</time></trkpt><trkpt lat="44.5986476" lon="15.6559362"><ele>679.0</ele><time>2026-04-27T10:01:05.386Z</time></trkpt><trkpt lat="44.5987124" lon="15.6559341"><ele>677.5</ele><time>2026-04-27T10:01:07.387Z</time></trkpt><trkpt lat="44.5987863" lon="15.6558922"><ele>676.0</ele><time>2026-04-27T10:01:30.387Z</time></trkpt><trkpt lat="44.5988815" lon="15.6558758"><ele>676.0</ele><time>2026-04-27T10:01:32.386Z</time></trkpt><trkpt lat="44.5989781" lon="15.6558558"><ele>676.0</ele><time>2026-04-27T10:01:34.387Z</time></trkpt><trkpt lat="44.5990461" lon="15.6558607"><ele>676.0</ele><time>2026-04-27T10:01:36.386Z</time></trkpt><trkpt lat="44.59911" lon="15.6558643"><ele>676.0</ele><time>2026-04-27T10:01:38.387Z</time></trkpt><trkpt lat="44.5991862" lon="15.655871"><ele>676.0</ele><time>2026-04-27T10:01:41.386Z</time></trkpt><trkpt lat="44.5992645" lon="15.6558706"><ele>676.0</ele><time>2026-04-27T10:01:43.386Z</time></trkpt><trkpt lat="44.5993285" lon="15.6558706"><ele>676.0</ele><time>2026-04-27T10:01:45.386Z</time></trkpt><trkpt lat="44.5993979" lon="15.6558567"><ele>676.0</ele><time>2026-04-27T10:03:59.386Z</time></trkpt><trkpt lat="44.5994981" lon="15.6558586"><ele>676.0</ele><time>2026-04-27T10:04:01.386Z</time></trkpt><trkpt lat="44.5996286" lon="15.6558462"><ele>676.0</ele><time>2026-04-27T10:04:03.387Z</time></trkpt><trkpt lat="44.5996907" lon="15.6558215"><ele>676.0</ele><time>2026-04-27T10:04:04.387Z</time></trkpt><trkpt lat="44.5997919" lon="15.6557968"><ele>676.0</ele><time>2026-04-27T10:04:06.387Z</time></trkpt><trkpt lat="44.599911" lon="15.655822"><ele>675.3333333333334</ele><time>2026-04-27T10:04:08.386Z</time></trkpt><trkpt lat="44.5999765" lon="15.6558446"><ele>674.6666666666667</ele><time>2026-04-27T10:04:09.386Z</time></trkpt><trkpt lat="44.6000625" lon="15.6558701"><ele>674.0</ele><time>2026-04-27T10:04:10.386Z</time></trkpt><trkpt lat="44.6001486" lon="15.6559109"><ele>673.3333333333334</ele><time>2026-04-27T10:04:11.386Z</time></trkpt><trkpt lat="44.6002306" lon="15.6559471"><ele>672.6666666666666</ele><time>2026-04-27T10:04:12.386Z</time></trkpt><trkpt lat="44.6003132" lon="15.6559772"><ele>672.0</ele><time>2026-04-27T10:04:13.386Z</time></trkpt><trkpt lat="44.6003929" lon="15.6560128"><ele>672.0</ele><time>2026-04-27T10:04:14.386Z</time></trkpt><trkpt lat="44.6004728" lon="15.656048"><ele>672.0</ele><time>2026-04-27T10:04:15.386Z</time></trkpt><trkpt lat="44.6005503" lon="15.6560766"><ele>672.0</ele><time>2026-04-27T10:04:16.387Z</time></trkpt><trkpt lat="44.6006321" lon="15.6560995"><ele>672.0</ele><time>2026-04-27T10:04:17.386Z</time></trkpt><trkpt lat="44.6007165" lon="15.6561368"><ele>672.0</ele><time>2026-04-27T10:04:18.386Z</time></trkpt><trkpt lat="44.6007884" lon="15.6561648"><ele>672.0</ele><time>2026-04-27T10:04:19.386Z</time></trkpt><trkpt lat="44.6008829" lon="15.6561939"><ele>670.0</ele><time>2026-04-27T10:04:20.386Z</time></trkpt><trkpt lat="44.6009815" lon="15.6562235"><ele>668.0</ele><time>2026-04-27T10:04:21.386Z</time></trkpt><trkpt lat="44.6010569" lon="15.6562622"><ele>666.0</ele><time>2026-04-27T10:04:22.387Z</time></trkpt><trkpt lat="44.6011652" lon="15.6562884"><ele>664.0</ele><time>2026-04-27T10:04:23.386Z</time></trkpt><trkpt lat="44.6012511" lon="15.6563253"><ele>662.0</ele><time>2026-04-27T10:04:24.386Z</time></trkpt><trkpt lat="44.601344" lon="15.6563646"><ele>661.0</ele><time>2026-04-27T10:04:25.386Z</time></trkpt><trkpt lat="44.6014349" lon="15.6563992"><ele>660.0</ele><time>2026-04-27T10:04:26.386Z</time></trkpt><trkpt lat="44.6015347" lon="15.6564277"><ele>659.0</ele><time>2026-04-27T10:04:27.386Z</time></trkpt><trkpt lat="44.6016162" lon="15.6564667"><ele>658.0</ele><time>2026-04-27T10:04:28.386Z</time></trkpt><trkpt lat="44.6017146" lon="15.6565142"><ele>657.0</ele><time>2026-04-27T10:04:29.386Z</time></trkpt><trkpt lat="44.6018033" lon="15.6565439"><ele>657.0</ele><time>2026-04-27T10:04:30.386Z</time></trkpt><trkpt lat="44.6018987" lon="15.6565748"><ele>657.0</ele><time>2026-04-27T10:04:31.386Z</time></trkpt><trkpt lat="44.6020028" lon="15.6566049"><ele>657.0</ele><time>2026-04-27T10:04:32.387Z</time></trkpt><trkpt lat="44.6021085" lon="15.6566341"><ele>657.0</ele><time>2026-04-27T10:04:33.386Z</time></trkpt><trkpt lat="44.602225" lon="15.656649"><ele>657.0</ele><time>2026-04-27T10:04:34.387Z</time></trkpt><trkpt lat="44.6023214" lon="15.6566514"><ele>656.0</ele><time>2026-04-27T10:04:35.386Z</time></trkpt><trkpt lat="44.602419" lon="15.6566517"><ele>655.0</ele><time>2026-04-27T10:04:36.386Z</time></trkpt><trkpt lat="44.6025157" lon="15.6566585"><ele>654.0</ele><time>2026-04-27T10:04:37.386Z</time></trkpt><trkpt lat="44.6026069" lon="15.6566436"><ele>653.0</ele><time>2026-04-27T10:04:38.386Z</time></trkpt><trkpt lat="44.6026998" lon="15.6566103"><ele>652.0</ele><time>2026-04-27T10:04:39.386Z</time></trkpt><trkpt lat="44.6028073" lon="15.6565562"><ele>650.8</ele><time>2026-04-27T10:04:40.386Z</time></trkpt><trkpt lat="44.6029128" lon="15.6564973"><ele>649.6</ele><time>2026-04-27T10:04:41.386Z</time></trkpt><trkpt lat="44.6030081" lon="15.6564371"><ele>648.4</ele><time>2026-04-27T10:04:42.386Z</time></trkpt><trkpt lat="44.6030916" lon="15.6563657"><ele>647.1999999999999</ele><time>2026-04-27T10:04:43.387Z</time></trkpt><trkpt lat="44.6031725" lon="15.6563004"><ele>646.0</ele><time>2026-04-27T10:04:44.386Z</time></trkpt><trkpt lat="44.6032328" lon="15.6562473"><ele>646.0</ele><time>2026-04-27T10:04:45.386Z</time></trkpt><trkpt lat="44.6032923" lon="15.6561892"><ele>646.0</ele><time>2026-04-27T10:04:46.387Z</time></trkpt><trkpt lat="44.6033435" lon="15.6561086"><ele>646.0</ele><time>2026-04-27T10:04:47.387Z</time></trkpt><trkpt lat="44.6034026" lon="15.656036"><ele>646.0</ele><time>2026-04-27T10:04:48.386Z</time></trkpt><trkpt lat="44.6034499" lon="15.6559491"><ele>646.0</ele><time>2026-04-27T10:04:49.386Z</time></trkpt><trkpt lat="44.6035084" lon="15.6558679"><ele>646.0</ele><time>2026-04-27T10:04:50.387Z</time></trkpt><trkpt lat="44.6035616" lon="15.6558131"><ele>645.8333333333334</ele><time>2026-04-27T10:04:51.387Z</time></trkpt><trkpt lat="44.6036388" lon="15.6557552"><ele>645.6666666666667</ele><time>2026-04-27T10:04:52.386Z</time></trkpt><trkpt lat="44.6037095" lon="15.6557047"><ele>645.5</ele><time>2026-04-27T10:04:53.387Z</time></trkpt><trkpt lat="44.603781" lon="15.6556899"><ele>645.3333333333334</ele><time>2026-04-27T10:04:54.387Z</time></trkpt><trkpt lat="44.603856" lon="15.6556743"><ele>645.1666666666666</ele><time>2026-04-27T10:04:55.387Z</time></trkpt><trkpt lat="44.6039325" lon="15.6557051"><ele>645.0</ele><time>2026-04-27T10:04:56.386Z</time></trkpt><trkpt lat="44.6040248" lon="15.655725"><ele>645.0</ele><time>2026-04-27T10:04:57.386Z</time></trkpt><trkpt lat="44.604125" lon="15.6557684"><ele>645.0</ele><time>2026-04-27T10:04:58.386Z</time></trkpt><trkpt lat="44.6042529" lon="15.6557855"><ele>645.0</ele><time>2026-04-27T10:04:59.386Z</time></trkpt><trkpt lat="44.6043529" lon="15.6558076"><ele>645.0</ele><time>2026-04-27T10:05:00.386Z</time></trkpt><trkpt lat="44.6044521" lon="15.6558056"><ele>645.0</ele><time>2026-04-27T10:05:01.387Z</time></trkpt><trkpt lat="44.604569" lon="15.6558158"><ele>644.6</ele><time>2026-04-27T10:05:02.386Z</time></trkpt><trkpt lat="44.6046722" lon="15.6558353"><ele>644.2</ele><time>2026-04-27T10:05:03.386Z</time></trkpt><trkpt lat="44.6047746" lon="15.6558509"><ele>643.8</ele><time>2026-04-27T10:05:04.386Z</time></trkpt><trkpt lat="44.6048701" lon="15.6558579"><ele>643.4</ele><time>2026-04-27T10:05:05.386Z</time></trkpt><trkpt lat="44.60498" lon="15.6558732"><ele>643.0</ele><time>2026-04-27T10:05:06.386Z</time></trkpt><trkpt lat="44.6050809" lon="15.6558706"><ele>643.0</ele><time>2026-04-27T10:05:07.386Z</time></trkpt><trkpt lat="44.6051812" lon="15.6558671"><ele>643.0</ele><time>2026-04-27T10:05:08.386Z</time></trkpt><trkpt lat="44.6053018" lon="15.6558633"><ele>643.0</ele><time>2026-04-27T10:05:09.386Z</time></trkpt><trkpt lat="44.6053968" lon="15.6558631"><ele>643.0</ele><time>2026-04-27T10:05:10.387Z</time></trkpt><trkpt lat="44.6054958" lon="15.6558757"><ele>643.0</ele><time>2026-04-27T10:05:11.387Z</time></trkpt><trkpt lat="44.6055736" lon="15.6559078"><ele>642.5999999999999</ele><time>2026-04-27T10:05:12.386Z</time></trkpt><trkpt lat="44.605673" lon="15.655956"><ele>642.1999999999999</ele><time>2026-04-27T10:05:13.386Z</time></trkpt><trkpt lat="44.6057614" lon="15.6560058"><ele>641.8</ele><time>2026-04-27T10:05:14.386Z</time></trkpt><trkpt lat="44.6058516" lon="15.6560635"><ele>641.4</ele><time>2026-04-27T10:05:15.386Z</time></trkpt><trkpt lat="44.6059325" lon="15.6561169"><ele>641.0</ele><time>2026-04-27T10:05:16.387Z</time></trkpt><trkpt lat="44.6060137" lon="15.6561656"><ele>640.8</ele><time>2026-04-27T10:05:17.386Z</time></trkpt><trkpt lat="44.6060974" lon="15.6562077"><ele>640.5999999999999</ele><time>2026-04-27T10:05:18.386Z</time></trkpt><trkpt lat="44.6061911" lon="15.6562319"><ele>640.4</ele><time>2026-04-27T10:05:19.386Z</time></trkpt><trkpt lat="44.6062824" lon="15.656257"><ele>640.2</ele><time>2026-04-27T10:05:20.387Z</time></trkpt><trkpt lat="44.6063489" lon="15.6562872"><ele>640.0</ele><time>2026-04-27T10:05:21.386Z</time></trkpt><trkpt lat="44.6064655" lon="15.6564007"><ele>640.0</ele><time>2026-04-27T10:05:23.386Z</time></trkpt><trkpt lat="44.6065294" lon="15.6564626"><ele>640.0</ele><time>2026-04-27T10:05:24.386Z</time></trkpt><trkpt lat="44.6066155" lon="15.6565238"><ele>640.0</ele><time>2026-04-27T10:05:25.387Z</time></trkpt><trkpt lat="44.6067138" lon="15.6565764"><ele>640.0</ele><time>2026-04-27T10:05:26.386Z</time></trkpt><trkpt lat="44.6067979" lon="15.6566366"><ele>640.0</ele><time>2026-04-27T10:05:27.387Z</time></trkpt><trkpt lat="44.6068844" lon="15.6567043"><ele>640.0</ele><time>2026-04-27T10:05:28.387Z</time></trkpt><trkpt lat="44.6069841" lon="15.6567545"><ele>640.0</ele><time>2026-04-27T10:05:29.386Z</time></trkpt><trkpt lat="44.6070881" lon="15.6567633"><ele>640.0</ele><time>2026-04-27T10:05:30.386Z</time></trkpt><trkpt lat="44.6071852" lon="15.6567873"><ele>640.0</ele><time>2026-04-27T10:05:31.387Z</time></trkpt><trkpt lat="44.6072904" lon="15.6567813"><ele>640.0</ele><time>2026-04-27T10:05:32.387Z</time></trkpt><trkpt lat="44.6073842" lon="15.6567817"><ele>639.2</ele><time>2026-04-27T10:05:33.386Z</time></trkpt><trkpt lat="44.6074617" lon="15.6568025"><ele>638.4</ele><time>2026-04-27T10:05:34.386Z</time></trkpt><trkpt lat="44.6075392" lon="15.6568462"><ele>637.6</ele><time>2026-04-27T10:05:35.386Z</time></trkpt><trkpt lat="44.6076223" lon="15.6569068"><ele>636.8</ele><time>2026-04-27T10:05:36.386Z</time></trkpt><trkpt lat="44.6077233" lon="15.6569737"><ele>636.0</ele><time>2026-04-27T10:05:37.387Z</time></trkpt><trkpt lat="44.6078212" lon="15.6570603"><ele>636.6</ele><time>2026-04-27T10:05:38.386Z</time></trkpt><trkpt lat="44.6078968" lon="15.6571373"><ele>637.2</ele><time>2026-04-27T10:05:39.386Z</time></trkpt><trkpt lat="44.6079741" lon="15.6572499"><ele>637.8</ele><time>2026-04-27T10:05:40.386Z</time></trkpt><trkpt lat="44.6080589" lon="15.657359"><ele>638.4</ele><time>2026-04-27T10:05:41.386Z</time></trkpt><trkpt lat="44.6081372" lon="15.6574671"><ele>639.0</ele><time>2026-04-27T10:05:42.387Z</time></trkpt><trkpt lat="44.6082131" lon="15.657579"><ele>639.0</ele><time>2026-04-27T10:05:43.386Z</time></trkpt><trkpt lat="44.6082994" lon="15.6577038"><ele>639.0</ele><time>2026-04-27T10:05:44.387Z</time></trkpt><trkpt lat="44.6083822" lon="15.6578054"><ele>639.0</ele><time>2026-04-27T10:05:45.386Z</time></trkpt><trkpt lat="44.6084614" lon="15.657899"><ele>639.0</ele><time>2026-04-27T10:05:46.386Z</time></trkpt><trkpt lat="44.60853" lon="15.6579947"><ele>639.0</ele><time>2026-04-27T10:05:47.386Z</time></trkpt><trkpt lat="44.6085888" lon="15.6580916"><ele>639.75</ele><time>2026-04-27T10:05:48.386Z</time></trkpt><trkpt lat="44.6087018" lon="15.6581962"><ele>640.5</ele><time>2026-04-27T10:05:49.387Z</time></trkpt><trkpt lat="44.6088036" lon="15.6582845"><ele>641.25</ele><time>2026-04-27T10:05:50.386Z</time></trkpt><trkpt lat="44.6088953" lon="15.6583709"><ele>642.0</ele><time>2026-04-27T10:05:51.386Z</time></trkpt><trkpt lat="44.6090118" lon="15.6584556"><ele>642.0</ele><time>2026-04-27T10:05:52.386Z</time></trkpt><trkpt lat="44.6091353" lon="15.6585492"><ele>642.0</ele><time>2026-04-27T10:05:53.386Z</time></trkpt><trkpt lat="44.6092478" lon="15.6586322"><ele>642.0</ele><time>2026-04-27T10:05:54.386Z</time></trkpt><trkpt lat="44.6093484" lon="15.6587109"><ele>642.0</ele><time>2026-04-27T10:05:55.386Z</time></trkpt><trkpt lat="44.6094259" lon="15.6587753"><ele>641.2</ele><time>2026-04-27T10:05:56.387Z</time></trkpt><trkpt lat="44.6095119" lon="15.6588438"><ele>640.4000000000001</ele><time>2026-04-27T10:05:57.386Z</time></trkpt><trkpt lat="44.6095955" lon="15.6589097"><ele>639.5999999999999</ele><time>2026-04-27T10:05:58.386Z</time></trkpt><trkpt lat="44.609681" lon="15.6589911"><ele>638.8</ele><time>2026-04-27T10:05:59.386Z</time></trkpt><trkpt lat="44.6097477" lon="15.6590501"><ele>638.0</ele><time>2026-04-27T10:06:00.386Z</time></trkpt><trkpt lat="44.6098168" lon="15.6591183"><ele>638.0</ele><time>2026-04-27T10:06:01.386Z</time></trkpt><trkpt lat="44.6098854" lon="15.6591595"><ele>638.0</ele><time>2026-04-27T10:06:02.386Z</time></trkpt><trkpt lat="44.6099541" lon="15.659191"><ele>638.0</ele><time>2026-04-27T10:06:03.386Z</time></trkpt><trkpt lat="44.6100187" lon="15.6592147"><ele>638.0</ele><time>2026-04-27T10:06:04.386Z</time></trkpt><trkpt lat="44.6101163" lon="15.6592912"><ele>638.0</ele><time>2026-04-27T10:06:06.386Z</time></trkpt><trkpt lat="44.6101818" lon="15.6594408"><ele>638.3333333333333</ele><time>2026-04-27T10:06:08.386Z</time></trkpt><trkpt lat="44.6102434" lon="15.6595353"><ele>638.6666666666666</ele><time>2026-04-27T10:06:09.386Z</time></trkpt><trkpt lat="44.6102929" lon="15.6596082"><ele>639.0</ele><time>2026-04-27T10:06:10.386Z</time></trkpt><trkpt lat="44.6103588" lon="15.6597034"><ele>639.3333333333334</ele><time>2026-04-27T10:06:11.386Z</time></trkpt><trkpt lat="44.6104112" lon="15.6597952"><ele>639.6666666666667</ele><time>2026-04-27T10:06:12.387Z</time></trkpt><trkpt lat="44.6104744" lon="15.659877"><ele>640.0</ele><time>2026-04-27T10:06:13.386Z</time></trkpt><trkpt lat="44.6105365" lon="15.6599622"><ele>640.0</ele><time>2026-04-27T10:06:14.386Z</time></trkpt><trkpt lat="44.6105934" lon="15.6600533"><ele>640.0</ele><time>2026-04-27T10:06:15.387Z</time></trkpt><trkpt lat="44.610655" lon="15.6601471"><ele>640.0</ele><time>2026-04-27T10:06:16.386Z</time></trkpt><trkpt lat="44.6107186" lon="15.6602375"><ele>640.0</ele><time>2026-04-27T10:06:17.386Z</time></trkpt><trkpt lat="44.6107742" lon="15.6603271"><ele>640.0</ele><time>2026-04-27T10:06:18.386Z</time></trkpt><trkpt lat="44.6108359" lon="15.6604198"><ele>640.0</ele><time>2026-04-27T10:06:19.386Z</time></trkpt><trkpt lat="44.6108975" lon="15.6605142"><ele>639.5</ele><time>2026-04-27T10:06:20.387Z</time></trkpt><trkpt lat="44.610953" lon="15.660605"><ele>639.0</ele><time>2026-04-27T10:06:21.386Z</time></trkpt><trkpt lat="44.6110216" lon="15.6607073"><ele>638.5</ele><time>2026-04-27T10:06:22.387Z</time></trkpt><trkpt lat="44.611075" lon="15.6608019"><ele>638.0</ele><time>2026-04-27T10:06:23.387Z</time></trkpt><trkpt lat="44.6111156" lon="15.6609032"><ele>637.5</ele><time>2026-04-27T10:06:24.387Z</time></trkpt><trkpt lat="44.6111548" lon="15.6610101"><ele>637.0</ele><time>2026-04-27T10:06:25.387Z</time></trkpt><trkpt lat="44.6111548" lon="15.6611054"><ele>637.6</ele><time>2026-04-27T10:06:26.387Z</time></trkpt><trkpt lat="44.6111888" lon="15.661217"><ele>638.2</ele><time>2026-04-27T10:06:27.386Z</time></trkpt><trkpt lat="44.6112268" lon="15.6613146"><ele>638.8</ele><time>2026-04-27T10:06:28.386Z</time></trkpt><trkpt lat="44.6112954" lon="15.6614262"><ele>639.4</ele><time>2026-04-27T10:06:29.387Z</time></trkpt><trkpt lat="44.6113772" lon="15.6615129"><ele>640.0</ele><time>2026-04-27T10:06:30.386Z</time></trkpt><trkpt lat="44.6114482" lon="15.6615944"><ele>640.0</ele><time>2026-04-27T10:06:31.386Z</time></trkpt><trkpt lat="44.6115295" lon="15.6616798"><ele>640.0</ele><time>2026-04-27T10:06:32.387Z</time></trkpt><trkpt lat="44.6115971" lon="15.6617539"><ele>640.0</ele><time>2026-04-27T10:06:33.386Z</time></trkpt><trkpt lat="44.6116513" lon="15.6618355"><ele>640.0</ele><time>2026-04-27T10:06:34.386Z</time></trkpt><trkpt lat="44.6117116" lon="15.6619293"><ele>640.0</ele><time>2026-04-27T10:06:35.386Z</time></trkpt><trkpt lat="44.6117634" lon="15.6620298"><ele>640.0</ele><time>2026-04-27T10:06:36.386Z</time></trkpt><trkpt lat="44.6118343" lon="15.6621381"><ele>640.3333333333334</ele><time>2026-04-27T10:06:37.386Z</time></trkpt><trkpt lat="44.6119059" lon="15.6622428"><ele>640.6666666666667</ele><time>2026-04-27T10:06:38.386Z</time></trkpt><trkpt lat="44.6119603" lon="15.6623354"><ele>641.0</ele><time>2026-04-27T10:06:39.386Z</time></trkpt><trkpt lat="44.6120202" lon="15.6624281"><ele>641.3333333333334</ele><time>2026-04-27T10:06:40.386Z</time></trkpt><trkpt lat="44.6120651" lon="15.6625151"><ele>641.6666666666666</ele><time>2026-04-27T10:06:41.386Z</time></trkpt><trkpt lat="44.6121059" lon="15.662604"><ele>642.0</ele><time>2026-04-27T10:06:42.386Z</time></trkpt><trkpt lat="44.6121406" lon="15.6626824"><ele>642.0</ele><time>2026-04-27T10:06:43.387Z</time></trkpt><trkpt lat="44.6121818" lon="15.6627693"><ele>642.0</ele><time>2026-04-27T10:06:44.386Z</time></trkpt><trkpt lat="44.612242" lon="15.6629724"><ele>642.0</ele><time>2026-04-27T10:06:46.386Z</time></trkpt><trkpt lat="44.612271" lon="15.6630927"><ele>642.0</ele><time>2026-04-27T10:06:47.386Z</time></trkpt><trkpt lat="44.6123042" lon="15.6631719"><ele>642.0</ele><time>2026-04-27T10:06:48.386Z</time></trkpt><trkpt lat="44.6123892" lon="15.6632985"><ele>640.8000000000001</ele><time>2026-04-27T10:06:50.386Z</time></trkpt><trkpt lat="44.6125027" lon="15.6633222"><ele>639.6</ele><time>2026-04-27T10:06:52.387Z</time></trkpt><trkpt lat="44.6126003" lon="15.6633874"><ele>638.4000000000001</ele><time>2026-04-27T10:06:54.386Z</time></trkpt><trkpt lat="44.6126392" lon="15.6634599"><ele>637.2</ele><time>2026-04-27T10:06:55.386Z</time></trkpt><trkpt lat="44.6126935" lon="15.663566"><ele>636.0</ele><time>2026-04-27T10:06:56.386Z</time></trkpt><trkpt lat="44.612758" lon="15.6636714"><ele>635.8333333333334</ele><time>2026-04-27T10:06:57.386Z</time></trkpt><trkpt lat="44.6128088" lon="15.6637758"><ele>635.6666666666666</ele><time>2026-04-27T10:06:58.386Z</time></trkpt><trkpt lat="44.6128667" lon="15.663875"><ele>635.5</ele><time>2026-04-27T10:06:59.386Z</time></trkpt><trkpt lat="44.6129136" lon="15.6639657"><ele>635.3333333333333</ele><time>2026-04-27T10:07:00.387Z</time></trkpt><trkpt lat="44.6129167" lon="15.6640564"><ele>635.1666666666666</ele><time>2026-04-27T10:07:01.386Z</time></trkpt><trkpt lat="44.6129282" lon="15.6641848"><ele>635.0</ele><time>2026-04-27T10:07:02.386Z</time></trkpt><trkpt lat="44.6129383" lon="15.6643215"><ele>636.0</ele><time>2026-04-27T10:07:03.386Z</time></trkpt><trkpt lat="44.6129475" lon="15.6644513"><ele>637.0</ele><time>2026-04-27T10:07:04.386Z</time></trkpt><trkpt lat="44.6129523" lon="15.6645722"><ele>638.0</ele><time>2026-04-27T10:07:05.386Z</time></trkpt><trkpt lat="44.6129382" lon="15.6647103"><ele>639.0</ele><time>2026-04-27T10:07:06.386Z</time></trkpt><trkpt lat="44.6129274" lon="15.664847"><ele>640.0</ele><time>2026-04-27T10:07:07.386Z</time></trkpt><trkpt lat="44.6129313" lon="15.6649518"><ele>640.0</ele><time>2026-04-27T10:07:08.386Z</time></trkpt><trkpt lat="44.6129516" lon="15.6650706"><ele>640.0</ele><time>2026-04-27T10:07:09.386Z</time></trkpt><trkpt lat="44.6129865" lon="15.6651905"><ele>640.0</ele><time>2026-04-27T10:07:10.387Z</time></trkpt><trkpt lat="44.6130327" lon="15.6653322"><ele>640.0</ele><time>2026-04-27T10:07:11.386Z</time></trkpt><trkpt lat="44.6130698" lon="15.6654587"><ele>640.0</ele><time>2026-04-27T10:07:12.386Z</time></trkpt><trkpt lat="44.6131041" lon="15.6655804"><ele>639.6</ele><time>2026-04-27T10:07:13.386Z</time></trkpt><trkpt lat="44.6131441" lon="15.6657082"><ele>639.2</ele><time>2026-04-27T10:07:14.386Z</time></trkpt><trkpt lat="44.6131769" lon="15.6658218"><ele>638.8</ele><time>2026-04-27T10:07:15.386Z</time></trkpt><trkpt lat="44.6132179" lon="15.6659438"><ele>638.4</ele><time>2026-04-27T10:07:16.386Z</time></trkpt><trkpt lat="44.6132438" lon="15.6660569"><ele>638.0</ele><time>2026-04-27T10:07:17.386Z</time></trkpt><trkpt lat="44.6132659" lon="15.6661708"><ele>638.0</ele><time>2026-04-27T10:07:18.386Z</time></trkpt><trkpt lat="44.6132896" lon="15.6663068"><ele>638.0</ele><time>2026-04-27T10:07:19.386Z</time></trkpt><trkpt lat="44.6132942" lon="15.6664368"><ele>638.0</ele><time>2026-04-27T10:07:20.386Z</time></trkpt><trkpt lat="44.6133047" lon="15.6665666"><ele>638.0</ele><time>2026-04-27T10:07:21.386Z</time></trkpt><trkpt lat="44.6133095" lon="15.6666952"><ele>638.0</ele><time>2026-04-27T10:07:22.386Z</time></trkpt><trkpt lat="44.6133066" lon="15.6668221"><ele>638.0</ele><time>2026-04-27T10:07:23.386Z</time></trkpt><trkpt lat="44.6133025" lon="15.6669464"><ele>638.0</ele><time>2026-04-27T10:07:24.387Z</time></trkpt><trkpt lat="44.6132988" lon="15.6670837"><ele>638.0</ele><time>2026-04-27T10:07:25.386Z</time></trkpt><trkpt lat="44.6132923" lon="15.6671936"><ele>638.0</ele><time>2026-04-27T10:07:26.386Z</time></trkpt><trkpt lat="44.6132772" lon="15.6673183"><ele>638.0</ele><time>2026-04-27T10:07:27.387Z</time></trkpt><trkpt lat="44.6132599" lon="15.667424"><ele>638.0</ele><time>2026-04-27T10:07:28.386Z</time></trkpt><trkpt lat="44.6132443" lon="15.6675206"><ele>638.0</ele><time>2026-04-27T10:07:29.387Z</time></trkpt><trkpt lat="44.6132228" lon="15.6676191"><ele>638.0</ele><time>2026-04-27T10:07:30.386Z</time></trkpt><trkpt lat="44.6131996" lon="15.6677151"><ele>638.0</ele><time>2026-04-27T10:07:31.386Z</time></trkpt><trkpt lat="44.6131722" lon="15.6677985"><ele>638.0</ele><time>2026-04-27T10:07:32.386Z</time></trkpt><trkpt lat="44.6131436" lon="15.6678824"><ele>638.0</ele><time>2026-04-27T10:07:33.386Z</time></trkpt><trkpt lat="44.6130954" lon="15.6680101"><ele>638.0</ele><time>2026-04-27T10:07:35.386Z</time></trkpt><trkpt lat="44.6130472" lon="15.6681108"><ele>638.0</ele><time>2026-04-27T10:07:37.386Z</time></trkpt><trkpt lat="44.6129768" lon="15.6682423"><ele>638.0</ele><time>2026-04-27T10:07:39.386Z</time></trkpt><trkpt lat="44.6129398" lon="15.6683441"><ele>638.0</ele><time>2026-04-27T10:07:40.386Z</time></trkpt><trkpt lat="44.6129123" lon="15.66846"><ele>638.0</ele><time>2026-04-27T10:07:41.386Z</time></trkpt><trkpt lat="44.6128987" lon="15.6685736"><ele>638.0</ele><time>2026-04-27T10:07:42.387Z</time></trkpt><trkpt lat="44.6128866" lon="15.6686865"><ele>638.0</ele><time>2026-04-27T10:07:43.387Z</time></trkpt><trkpt lat="44.6128783" lon="15.6687922"><ele>638.1999999999999</ele><time>2026-04-27T10:07:44.386Z</time></trkpt><trkpt lat="44.6128689" lon="15.6689186"><ele>638.4</ele><time>2026-04-27T10:07:45.387Z</time></trkpt><trkpt lat="44.6128598" lon="15.6690456"><ele>638.5999999999999</ele><time>2026-04-27T10:07:46.386Z</time></trkpt><trkpt lat="44.6128511" lon="15.6691751"><ele>638.8</ele><time>2026-04-27T10:07:47.386Z</time></trkpt><trkpt lat="44.6128396" lon="15.6693179"><ele>639.0</ele><time>2026-04-27T10:07:48.387Z</time></trkpt><trkpt lat="44.6128198" lon="15.6694592"><ele>637.6</ele><time>2026-04-27T10:07:49.386Z</time></trkpt><trkpt lat="44.6127993" lon="15.6695944"><ele>636.2</ele><time>2026-04-27T10:07:50.386Z</time></trkpt><trkpt lat="44.612776" lon="15.6697165"><ele>634.8000000000001</ele><time>2026-04-27T10:07:51.386Z</time></trkpt><trkpt lat="44.6127513" lon="15.66984"><ele>633.4</ele><time>2026-04-27T10:07:52.386Z</time></trkpt><trkpt lat="44.6127284" lon="15.6699555"><ele>632.0</ele><time>2026-04-27T10:07:53.386Z</time></trkpt><trkpt lat="44.6127055" lon="15.6700723"><ele>632.0</ele><time>2026-04-27T10:07:54.386Z</time></trkpt><trkpt lat="44.6126767" lon="15.6701894"><ele>632.0</ele><time>2026-04-27T10:07:55.386Z</time></trkpt><trkpt lat="44.6126434" lon="15.6702996"><ele>632.0</ele><time>2026-04-27T10:07:56.386Z</time></trkpt><trkpt lat="44.6126197" lon="15.6704156"><ele>632.0</ele><time>2026-04-27T10:07:57.386Z</time></trkpt><trkpt lat="44.6125978" lon="15.6705229"><ele>632.0</ele><time>2026-04-27T10:07:58.386Z</time></trkpt><trkpt lat="44.6125934" lon="15.6706426"><ele>632.0</ele><time>2026-04-27T10:07:59.387Z</time></trkpt><trkpt lat="44.6126084" lon="15.6707539"><ele>632.0</ele><time>2026-04-27T10:08:00.386Z</time></trkpt><trkpt lat="44.6126367" lon="15.670875"><ele>632.0</ele><time>2026-04-27T10:08:01.386Z</time></trkpt><trkpt lat="44.6126663" lon="15.6710039"><ele>632.0</ele><time>2026-04-27T10:08:02.386Z</time></trkpt><trkpt lat="44.6126991" lon="15.6711484"><ele>632.0</ele><time>2026-04-27T10:08:03.387Z</time></trkpt><trkpt lat="44.6127293" lon="15.6712893"><ele>632.0</ele><time>2026-04-27T10:08:04.387Z</time></trkpt><trkpt lat="44.612766" lon="15.6714376"><ele>632.0</ele><time>2026-04-27T10:08:05.386Z</time></trkpt><trkpt lat="44.6128014" lon="15.6715892"><ele>632.0</ele><time>2026-04-27T10:08:06.386Z</time></trkpt><trkpt lat="44.612846" lon="15.6717305"><ele>632.0</ele><time>2026-04-27T10:08:07.386Z</time></trkpt><trkpt lat="44.6128881" lon="15.6718744"><ele>632.0</ele><time>2026-04-27T10:08:08.386Z</time></trkpt><trkpt lat="44.6129306" lon="15.6720277"><ele>633.0</ele><time>2026-04-27T10:08:09.386Z</time></trkpt><trkpt lat="44.6129786" lon="15.6721945"><ele>634.0</ele><time>2026-04-27T10:08:10.386Z</time></trkpt><trkpt lat="44.6130213" lon="15.6723597"><ele>635.0</ele><time>2026-04-27T10:08:11.386Z</time></trkpt><trkpt lat="44.6130644" lon="15.6725161"><ele>636.0</ele><time>2026-04-27T10:08:12.387Z</time></trkpt><trkpt lat="44.6131173" lon="15.6726636"><ele>634.5</ele><time>2026-04-27T10:08:13.386Z</time></trkpt><trkpt lat="44.6131747" lon="15.6728075"><ele>633.0</ele><time>2026-04-27T10:08:14.386Z</time></trkpt><trkpt lat="44.6132348" lon="15.672955"><ele>631.5</ele><time>2026-04-27T10:08:15.386Z</time></trkpt><trkpt lat="44.6132943" lon="15.6731051"><ele>630.0</ele><time>2026-04-27T10:08:16.386Z</time></trkpt><trkpt lat="44.6133537" lon="15.6732489"><ele>630.0</ele><time>2026-04-27T10:08:17.386Z</time></trkpt><trkpt lat="44.6134123" lon="15.673393"><ele>630.0</ele><time>2026-04-27T10:08:18.386Z</time></trkpt><trkpt lat="44.6134586" lon="15.6735439"><ele>630.0</ele><time>2026-04-27T10:08:19.386Z</time></trkpt><trkpt lat="44.6135085" lon="15.6736939"><ele>630.0</ele><time>2026-04-27T10:08:20.386Z</time></trkpt><trkpt lat="44.6135575" lon="15.6738336"><ele>629.8</ele><time>2026-04-27T10:08:21.386Z</time></trkpt><trkpt lat="44.6136064" lon="15.6739563"><ele>629.6</ele><time>2026-04-27T10:08:22.386Z</time></trkpt><trkpt lat="44.6136601" lon="15.6740762"><ele>629.4</ele><time>2026-04-27T10:08:23.386Z</time></trkpt><trkpt lat="44.6137054" lon="15.6742011"><ele>629.2</ele><time>2026-04-27T10:08:24.387Z</time></trkpt><trkpt lat="44.6137483" lon="15.6743144"><ele>629.0</ele><time>2026-04-27T10:08:25.387Z</time></trkpt><trkpt lat="44.6137875" lon="15.6744083"><ele>629.0</ele><time>2026-04-27T10:08:26.386Z</time></trkpt><trkpt lat="44.6138348" lon="15.6745323"><ele>629.0</ele><time>2026-04-27T10:08:28.386Z</time></trkpt><trkpt lat="44.6138128" lon="15.6746375"><ele>629.0</ele><time>2026-04-27T10:08:31.386Z</time></trkpt><trkpt lat="44.6137625" lon="15.6747097"><ele>629.0</ele><time>2026-04-27T10:08:33.386Z</time></trkpt><trkpt lat="44.6136857" lon="15.6748471"><ele>629.0</ele><time>2026-04-27T10:08:35.386Z</time></trkpt><trkpt lat="44.6136339" lon="15.6749252"><ele>629.0</ele><time>2026-04-27T10:08:36.387Z</time></trkpt><trkpt lat="44.6135791" lon="15.6750088"><ele>629.0</ele><time>2026-04-27T10:08:37.387Z</time></trkpt><trkpt lat="44.6135199" lon="15.6750941"><ele>629.0</ele><time>2026-04-27T10:08:38.386Z</time></trkpt><trkpt lat="44.6134716" lon="15.6751849"><ele>629.0</ele><time>2026-04-27T10:08:39.387Z</time></trkpt><trkpt lat="44.6134219" lon="15.6752816"><ele>629.0</ele><time>2026-04-27T10:08:40.386Z</time></trkpt><trkpt lat="44.6133691" lon="15.6753767"><ele>629.0</ele><time>2026-04-27T10:08:41.386Z</time></trkpt><trkpt lat="44.6133135" lon="15.6754784"><ele>628.6666666666666</ele><time>2026-04-27T10:08:42.386Z</time></trkpt><trkpt lat="44.6132508" lon="15.6755656"><ele>628.3333333333333</ele><time>2026-04-27T10:08:43.386Z</time></trkpt><trkpt lat="44.6131921" lon="15.6756543"><ele>628.0</ele><time>2026-04-27T10:08:44.387Z</time></trkpt><trkpt lat="44.6131386" lon="15.675747"><ele>627.6666666666666</ele><time>2026-04-27T10:08:45.386Z</time></trkpt><trkpt lat="44.6130898" lon="15.6758353"><ele>627.3333333333334</ele><time>2026-04-27T10:08:46.386Z</time></trkpt><trkpt lat="44.6130323" lon="15.6759211"><ele>627.0</ele><time>2026-04-27T10:08:47.387Z</time></trkpt><trkpt lat="44.612961" lon="15.6759923"><ele>627.0</ele><time>2026-04-27T10:08:48.387Z</time></trkpt><trkpt lat="44.6128807" lon="15.6760594"><ele>627.0</ele><time>2026-04-27T10:08:49.386Z</time></trkpt><trkpt lat="44.61279" lon="15.6761228"><ele>627.0</ele><time>2026-04-27T10:08:50.386Z</time></trkpt><trkpt lat="44.6126969" lon="15.6761934"><ele>627.0</ele><time>2026-04-27T10:08:51.386Z</time></trkpt><trkpt lat="44.6125953" lon="15.6762694"><ele>627.0</ele><time>2026-04-27T10:08:52.386Z</time></trkpt><trkpt lat="44.6124881" lon="15.6763392"><ele>627.4</ele><time>2026-04-27T10:08:53.386Z</time></trkpt><trkpt lat="44.6123865" lon="15.6764057"><ele>627.8000000000001</ele><time>2026-04-27T10:08:54.386Z</time></trkpt><trkpt lat="44.612292" lon="15.6764775"><ele>628.2</ele><time>2026-04-27T10:08:55.386Z</time></trkpt><trkpt lat="44.6122104" lon="15.6765501"><ele>628.6</ele><time>2026-04-27T10:08:56.386Z</time></trkpt><trkpt lat="44.612121" lon="15.6766437"><ele>629.0</ele><time>2026-04-27T10:08:57.386Z</time></trkpt><trkpt lat="44.6120282" lon="15.6767266"><ele>628.8</ele><time>2026-04-27T10:08:58.387Z</time></trkpt><trkpt lat="44.6119283" lon="15.6767979"><ele>628.5999999999999</ele><time>2026-04-27T10:08:59.386Z</time></trkpt><trkpt lat="44.6118412" lon="15.6768728"><ele>628.4</ele><time>2026-04-27T10:09:00.386Z</time></trkpt><trkpt lat="44.6117511" lon="15.6769528"><ele>628.1999999999999</ele><time>2026-04-27T10:09:01.387Z</time></trkpt><trkpt lat="44.6116519" lon="15.6770201"><ele>628.0</ele><time>2026-04-27T10:09:02.386Z</time></trkpt><trkpt lat="44.6115385" lon="15.6770887"><ele>628.1999999999999</ele><time>2026-04-27T10:09:03.386Z</time></trkpt><trkpt lat="44.611437" lon="15.6771517"><ele>628.4</ele><time>2026-04-27T10:09:04.386Z</time></trkpt><trkpt lat="44.6113346" lon="15.6772171"><ele>628.5999999999999</ele><time>2026-04-27T10:09:05.386Z</time></trkpt><trkpt lat="44.6112379" lon="15.6772739"><ele>628.8</ele><time>2026-04-27T10:09:06.386Z</time></trkpt><trkpt lat="44.61113" lon="15.6773185"><ele>629.0</ele><time>2026-04-27T10:09:07.387Z</time></trkpt><trkpt lat="44.6110195" lon="15.6773606"><ele>629.0</ele><time>2026-04-27T10:09:08.386Z</time></trkpt><trkpt lat="44.6108983" lon="15.677394"><ele>629.0</ele><time>2026-04-27T10:09:09.386Z</time></trkpt><trkpt lat="44.6107749" lon="15.6774154"><ele>629.0</ele><time>2026-04-27T10:09:10.386Z</time></trkpt><trkpt lat="44.6106542" lon="15.6774439"><ele>629.0</ele><time>2026-04-27T10:09:11.386Z</time></trkpt><trkpt lat="44.6105337" lon="15.6774767"><ele>629.0</ele><time>2026-04-27T10:09:12.386Z</time></trkpt><trkpt lat="44.6104142" lon="15.6775063"><ele>629.0</ele><time>2026-04-27T10:09:13.387Z</time></trkpt><trkpt lat="44.6103033" lon="15.6775356"><ele>629.0</ele><time>2026-04-27T10:09:14.387Z</time></trkpt><trkpt lat="44.6101913" lon="15.6775689"><ele>629.0</ele><time>2026-04-27T10:09:15.386Z</time></trkpt><trkpt lat="44.6100762" lon="15.6775991"><ele>629.25</ele><time>2026-04-27T10:09:16.386Z</time></trkpt><trkpt lat="44.609953" lon="15.6776293"><ele>629.5</ele><time>2026-04-27T10:09:17.386Z</time></trkpt><trkpt lat="44.6098273" lon="15.6776533"><ele>629.75</ele><time>2026-04-27T10:09:18.386Z</time></trkpt><trkpt lat="44.6097023" lon="15.677681"><ele>630.0</ele><time>2026-04-27T10:09:19.386Z</time></trkpt><trkpt lat="44.6095721" lon="15.6777135"><ele>630.0</ele><time>2026-04-27T10:09:20.387Z</time></trkpt><trkpt lat="44.6094437" lon="15.6777523"><ele>630.0</ele><time>2026-04-27T10:09:21.387Z</time></trkpt><trkpt lat="44.6093154" lon="15.6777967"><ele>630.0</ele><time>2026-04-27T10:09:22.387Z</time></trkpt><trkpt lat="44.6091915" lon="15.6778558"><ele>630.0</ele><time>2026-04-27T10:09:23.386Z</time></trkpt><trkpt lat="44.6090679" lon="15.6779203"><ele>630.0</ele><time>2026-04-27T10:09:24.386Z</time></trkpt><trkpt lat="44.6089353" lon="15.6779905"><ele>630.0</ele><time>2026-04-27T10:09:25.386Z</time></trkpt><trkpt lat="44.6088164" lon="15.678064"><ele>630.0</ele><time>2026-04-27T10:09:26.386Z</time></trkpt><trkpt lat="44.6086944" lon="15.6781361"><ele>630.0</ele><time>2026-04-27T10:09:27.387Z</time></trkpt><trkpt lat="44.608574" lon="15.6782285"><ele>630.0</ele><time>2026-04-27T10:09:28.387Z</time></trkpt><trkpt lat="44.6084467" lon="15.6783222"><ele>630.0</ele><time>2026-04-27T10:09:29.387Z</time></trkpt><trkpt lat="44.6083186" lon="15.6784165"><ele>630.0</ele><time>2026-04-27T10:09:30.387Z</time></trkpt><trkpt lat="44.6081855" lon="15.6785164"><ele>630.0</ele><time>2026-04-27T10:09:31.386Z</time></trkpt><trkpt lat="44.6080558" lon="15.6786106"><ele>630.0</ele><time>2026-04-27T10:09:32.386Z</time></trkpt><trkpt lat="44.6079311" lon="15.6786939"><ele>630.0</ele><time>2026-04-27T10:09:33.387Z</time></trkpt><trkpt lat="44.6078177" lon="15.678756"><ele>630.0</ele><time>2026-04-27T10:09:34.386Z</time></trkpt><trkpt lat="44.6076967" lon="15.6788253"><ele>630.0</ele><time>2026-04-27T10:09:35.386Z</time></trkpt><trkpt lat="44.6075708" lon="15.6788936"><ele>630.75</ele><time>2026-04-27T10:09:36.386Z</time></trkpt><trkpt lat="44.6074302" lon="15.6789657"><ele>631.5</ele><time>2026-04-27T10:09:37.386Z</time></trkpt><trkpt lat="44.6073063" lon="15.6790265"><ele>632.25</ele><time>2026-04-27T10:09:38.386Z</time></trkpt><trkpt lat="44.6071686" lon="15.6790883"><ele>633.0</ele><time>2026-04-27T10:09:39.386Z</time></trkpt><trkpt lat="44.6070259" lon="15.6791349"><ele>633.0</ele><time>2026-04-27T10:09:40.386Z</time></trkpt><trkpt lat="44.6068824" lon="15.6791726"><ele>633.0</ele><time>2026-04-27T10:09:41.386Z</time></trkpt><trkpt lat="44.606756" lon="15.6792135"><ele>633.0</ele><time>2026-04-27T10:09:42.386Z</time></trkpt><trkpt lat="44.60663" lon="15.6792561"><ele>633.0</ele><time>2026-04-27T10:09:43.386Z</time></trkpt><trkpt lat="44.6065111" lon="15.6793147"><ele>633.0</ele><time>2026-04-27T10:09:44.386Z</time></trkpt><trkpt lat="44.6064048" lon="15.6793854"><ele>633.0</ele><time>2026-04-27T10:09:45.387Z</time></trkpt><trkpt lat="44.6063075" lon="15.6794571"><ele>633.0</ele><time>2026-04-27T10:09:46.387Z</time></trkpt><trkpt lat="44.6062078" lon="15.6795212"><ele>633.0</ele><time>2026-04-27T10:09:47.386Z</time></trkpt><trkpt lat="44.6060934" lon="15.6795851"><ele>633.3333333333334</ele><time>2026-04-27T10:09:48.386Z</time></trkpt><trkpt lat="44.6059701" lon="15.679671"><ele>633.6666666666667</ele><time>2026-04-27T10:09:49.386Z</time></trkpt><trkpt lat="44.6058339" lon="15.6797783"><ele>634.0</ele><time>2026-04-27T10:09:50.386Z</time></trkpt><trkpt lat="44.6056835" lon="15.6798918"><ele>634.0</ele><time>2026-04-27T10:09:51.386Z</time></trkpt><trkpt lat="44.6055314" lon="15.6800035"><ele>634.0</ele><time>2026-04-27T10:09:52.387Z</time></trkpt><trkpt lat="44.6053899" lon="15.6800955"><ele>634.0</ele><time>2026-04-27T10:09:53.386Z</time></trkpt><trkpt lat="44.6052599" lon="15.6801733"><ele>634.0</ele><time>2026-04-27T10:09:54.386Z</time></trkpt><trkpt lat="44.6051399" lon="15.6802404"><ele>634.0</ele><time>2026-04-27T10:09:55.386Z</time></trkpt><trkpt lat="44.6050219" lon="15.6803047"><ele>634.0</ele><time>2026-04-27T10:09:56.386Z</time></trkpt><trkpt lat="44.604913" lon="15.6803671"><ele>634.0</ele><time>2026-04-27T10:09:57.386Z</time></trkpt><trkpt lat="44.6048055" lon="15.6804146"><ele>634.0</ele><time>2026-04-27T10:09:58.387Z</time></trkpt><trkpt lat="44.6046967" lon="15.6804572"><ele>634.0</ele><time>2026-04-27T10:09:59.386Z</time></trkpt><trkpt lat="44.6045949" lon="15.6805045"><ele>634.0</ele><time>2026-04-27T10:10:00.387Z</time></trkpt><trkpt lat="44.6045067" lon="15.6805613"><ele>634.0</ele><time>2026-04-27T10:10:01.386Z</time></trkpt><trkpt lat="44.6044281" lon="15.6806094"><ele>634.0</ele><time>2026-04-27T10:10:02.386Z</time></trkpt><trkpt lat="44.60435" lon="15.6806582"><ele>634.0</ele><time>2026-04-27T10:10:03.386Z</time></trkpt><trkpt lat="44.604281" lon="15.6807102"><ele>634.0</ele><time>2026-04-27T10:10:04.387Z</time></trkpt><trkpt lat="44.6041815" lon="15.6807922"><ele>634.0</ele><time>2026-04-27T10:10:06.387Z</time></trkpt><trkpt lat="44.6040738" lon="15.6808615"><ele>634.0</ele><time>2026-04-27T10:10:08.386Z</time></trkpt><trkpt lat="44.6040144" lon="15.6808944"><ele>634.0</ele><time>2026-04-27T10:10:09.386Z</time></trkpt><trkpt lat="44.6038978" lon="15.6809461"><ele>634.0</ele><time>2026-04-27T10:10:11.387Z</time></trkpt><trkpt lat="44.603787" lon="15.6810156"><ele>634.0</ele><time>2026-04-27T10:10:13.386Z</time></trkpt><trkpt lat="44.6036845" lon="15.6810967"><ele>634.0</ele><time>2026-04-27T10:10:15.387Z</time></trkpt><trkpt lat="44.6035937" lon="15.6811803"><ele>634.0</ele><time>2026-04-27T10:10:17.386Z</time></trkpt><trkpt lat="44.6034901" lon="15.6812591"><ele>634.8</ele><time>2026-04-27T10:10:19.386Z</time></trkpt><trkpt lat="44.603402" lon="15.6813401"><ele>635.5999999999999</ele><time>2026-04-27T10:10:21.386Z</time></trkpt><trkpt lat="44.6033127" lon="15.681418"><ele>636.4</ele><time>2026-04-27T10:10:23.386Z</time></trkpt><trkpt lat="44.6032307" lon="15.681484"><ele>637.1999999999999</ele><time>2026-04-27T10:10:25.386Z</time></trkpt><trkpt lat="44.6031537" lon="15.6815474"><ele>638.0</ele><time>2026-04-27T10:10:27.386Z</time></trkpt><trkpt lat="44.6030783" lon="15.6816096"><ele>638.0</ele><time>2026-04-27T10:10:29.386Z</time></trkpt><trkpt lat="44.603001" lon="15.6816811"><ele>638.0</ele><time>2026-04-27T10:10:31.386Z</time></trkpt><trkpt lat="44.6029176" lon="15.681766"><ele>638.0</ele><time>2026-04-27T10:10:33.387Z</time></trkpt><trkpt lat="44.6028239" lon="15.6818575"><ele>638.0</ele><time>2026-04-27T10:10:35.386Z</time></trkpt><trkpt lat="44.6027702" lon="15.6819121"><ele>638.0</ele><time>2026-04-27T10:10:36.386Z</time></trkpt><trkpt lat="44.6026583" lon="15.6820189"><ele>637.6</ele><time>2026-04-27T10:10:38.387Z</time></trkpt><trkpt lat="44.602605" lon="15.6820764"><ele>637.1999999999999</ele><time>2026-04-27T10:10:39.386Z</time></trkpt><trkpt lat="44.6025172" lon="15.6821899"><ele>636.8</ele><time>2026-04-27T10:10:41.387Z</time></trkpt><trkpt lat="44.602454" lon="15.6822972"><ele>636.4</ele><time>2026-04-27T10:10:43.386Z</time></trkpt><trkpt lat="44.6023865" lon="15.6824215"><ele>636.0</ele><time>2026-04-27T10:10:45.386Z</time></trkpt><trkpt lat="44.602322" lon="15.6825462"><ele>636.0</ele><time>2026-04-27T10:10:47.387Z</time></trkpt><trkpt lat="44.6022609" lon="15.6826706"><ele>636.0</ele><time>2026-04-27T10:10:49.386Z</time></trkpt><trkpt lat="44.602191" lon="15.6828044"><ele>636.0</ele><time>2026-04-27T10:10:51.386Z</time></trkpt><trkpt lat="44.6021261" lon="15.6829262"><ele>636.0</ele><time>2026-04-27T10:10:53.386Z</time></trkpt><trkpt lat="44.6020627" lon="15.683054"><ele>636.0</ele><time>2026-04-27T10:10:55.386Z</time></trkpt><trkpt lat="44.6020094" lon="15.6831796"><ele>636.0</ele><time>2026-04-27T10:10:57.386Z</time></trkpt><trkpt lat="44.601952" lon="15.6832983"><ele>636.0</ele><time>2026-04-27T10:10:59.386Z</time></trkpt><trkpt lat="44.601901" lon="15.6834083"><ele>636.0</ele><time>2026-04-27T10:11:01.386Z</time></trkpt><trkpt lat="44.6018506" lon="15.6835244"><ele>636.0</ele><time>2026-04-27T10:11:03.386Z</time></trkpt><trkpt lat="44.6017949" lon="15.6836433"><ele>636.0</ele><time>2026-04-27T10:11:05.386Z</time></trkpt><trkpt lat="44.6017366" lon="15.683756"><ele>636.4</ele><time>2026-04-27T10:11:07.386Z</time></trkpt><trkpt lat="44.6016786" lon="15.6838868"><ele>636.8</ele><time>2026-04-27T10:11:09.386Z</time></trkpt><trkpt lat="44.6016196" lon="15.6840193"><ele>637.1999999999999</ele><time>2026-04-27T10:11:11.386Z</time></trkpt><trkpt lat="44.6015687" lon="15.6841694"><ele>637.6</ele><time>2026-04-27T10:11:13.386Z</time></trkpt><trkpt lat="44.6015343" lon="15.6842529"><ele>638.0</ele><time>2026-04-27T10:11:14.386Z</time></trkpt><trkpt lat="44.6014798" lon="15.6844158"><ele>637.5714285714286</ele><time>2026-04-27T10:11:16.386Z</time></trkpt><trkpt lat="44.6014524" lon="15.6845088"><ele>637.1428571428571</ele><time>2026-04-27T10:11:17.386Z</time></trkpt><trkpt lat="44.6014235" lon="15.6845946"><ele>636.7142857142857</ele><time>2026-04-27T10:11:18.386Z</time></trkpt><trkpt lat="44.6013945" lon="15.6846789"><ele>636.2857142857142</ele><time>2026-04-27T10:11:19.386Z</time></trkpt><trkpt lat="44.6013691" lon="15.6847742"><ele>635.8571428571429</ele><time>2026-04-27T10:11:20.387Z</time></trkpt><trkpt lat="44.6013446" lon="15.6848606"><ele>635.4285714285713</ele><time>2026-04-27T10:11:21.387Z</time></trkpt><trkpt lat="44.6013186" lon="15.6849417"><ele>635.0</ele><time>2026-04-27T10:11:22.386Z</time></trkpt><trkpt lat="44.6012663" lon="15.6851013"><ele>634.8</ele><time>2026-04-27T10:11:24.386Z</time></trkpt><trkpt lat="44.6012059" lon="15.6852658"><ele>634.6</ele><time>2026-04-27T10:11:26.386Z</time></trkpt><trkpt lat="44.601177" lon="15.6853692"><ele>634.4</ele><time>2026-04-27T10:11:27.386Z</time></trkpt><trkpt lat="44.6011386" lon="15.6854704"><ele>634.2</ele><time>2026-04-27T10:11:28.386Z</time></trkpt><trkpt lat="44.6010971" lon="15.685582"><ele>634.0</ele><time>2026-04-27T10:11:29.386Z</time></trkpt><trkpt lat="44.6010503" lon="15.685701"><ele>634.6</ele><time>2026-04-27T10:11:30.386Z</time></trkpt><trkpt lat="44.6010083" lon="15.6858145"><ele>635.2</ele><time>2026-04-27T10:11:31.386Z</time></trkpt><trkpt lat="44.6009679" lon="15.6859153"><ele>635.8000000000001</ele><time>2026-04-27T10:11:32.387Z</time></trkpt><trkpt lat="44.6009198" lon="15.6860205"><ele>636.4</ele><time>2026-04-27T10:11:33.386Z</time></trkpt><trkpt lat="44.6008669" lon="15.6861559"><ele>637.0</ele><time>2026-04-27T10:11:34.386Z</time></trkpt><trkpt lat="44.6008084" lon="15.6863304"><ele>637.0</ele><time>2026-04-27T10:11:35.386Z</time></trkpt><trkpt lat="44.6007344" lon="15.6865347"><ele>637.0</ele><time>2026-04-27T10:11:36.386Z</time></trkpt><trkpt lat="44.6006613" lon="15.6867299"><ele>637.0</ele><time>2026-04-27T10:11:37.386Z</time></trkpt><trkpt lat="44.6005847" lon="15.6869272"><ele>636.3333333333334</ele><time>2026-04-27T10:11:38.386Z</time></trkpt><trkpt lat="44.6005139" lon="15.6871138"><ele>635.6666666666666</ele><time>2026-04-27T10:11:39.387Z</time></trkpt><trkpt lat="44.6004424" lon="15.6872972"><ele>635.0</ele><time>2026-04-27T10:11:40.386Z</time></trkpt><trkpt lat="44.6003702" lon="15.6874914"><ele>635.6666666666666</ele><time>2026-04-27T10:11:41.386Z</time></trkpt><trkpt lat="44.6003011" lon="15.6876827"><ele>636.3333333333334</ele><time>2026-04-27T10:11:42.387Z</time></trkpt><trkpt lat="44.6002334" lon="15.6878838"><ele>637.0</ele><time>2026-04-27T10:11:43.386Z</time></trkpt><trkpt lat="44.6001574" lon="15.6881215"><ele>637.3333333333334</ele><time>2026-04-27T10:11:44.386Z</time></trkpt><trkpt lat="44.6000717" lon="15.6883945"><ele>637.6666666666666</ele><time>2026-04-27T10:11:45.387Z</time></trkpt><trkpt lat="44.5999833" lon="15.6886973"><ele>638.0</ele><time>2026-04-27T10:11:46.387Z</time></trkpt><trkpt lat="44.5999057" lon="15.6889778"><ele>637.3333333333333</ele><time>2026-04-27T10:11:47.386Z</time></trkpt><trkpt lat="44.5998362" lon="15.6892317"><ele>636.6666666666666</ele><time>2026-04-27T10:11:48.386Z</time></trkpt><trkpt lat="44.5997689" lon="15.6894696"><ele>636.0</ele><time>2026-04-27T10:11:49.386Z</time></trkpt><trkpt lat="44.5996991" lon="15.6897076"><ele>636.0</ele><time>2026-04-27T10:11:50.387Z</time></trkpt><trkpt lat="44.5996269" lon="15.6899338"><ele>636.0</ele><time>2026-04-27T10:11:51.386Z</time></trkpt><trkpt lat="44.5995639" lon="15.6901295"><ele>636.0</ele><time>2026-04-27T10:11:52.386Z</time></trkpt><trkpt lat="44.5994984" lon="15.6903192"><ele>637.5</ele><time>2026-04-27T10:11:53.386Z</time></trkpt><trkpt lat="44.5994384" lon="15.6904929"><ele>639.0</ele><time>2026-04-27T10:11:54.386Z</time></trkpt><trkpt lat="44.5993737" lon="15.6906553"><ele>640.5</ele><time>2026-04-27T10:11:55.386Z</time></trkpt><trkpt lat="44.5993045" lon="15.6908113"><ele>642.0</ele><time>2026-04-27T10:11:56.387Z</time></trkpt><trkpt lat="44.5992398" lon="15.6909398"><ele>642.0</ele><time>2026-04-27T10:11:57.387Z</time></trkpt><trkpt lat="44.5991782" lon="15.6910603"><ele>642.0</ele><time>2026-04-27T10:11:58.386Z</time></trkpt><trkpt lat="44.5991294" lon="15.6911789"><ele>642.0</ele><time>2026-04-27T10:11:59.386Z</time></trkpt><trkpt lat="44.5990846" lon="15.6912856"><ele>642.0</ele><time>2026-04-27T10:12:00.387Z</time></trkpt><trkpt lat="44.5990433" lon="15.6913872"><ele>642.0</ele><time>2026-04-27T10:12:01.386Z</time></trkpt><trkpt lat="44.5990008" lon="15.6914872"><ele>641.7142857142857</ele><time>2026-04-27T10:12:02.387Z</time></trkpt><trkpt lat="44.5989612" lon="15.6915814"><ele>641.4285714285714</ele><time>2026-04-27T10:12:03.386Z</time></trkpt><trkpt lat="44.5989215" lon="15.6916727"><ele>641.1428571428571</ele><time>2026-04-27T10:12:04.387Z</time></trkpt><trkpt lat="44.5988824" lon="15.6917532"><ele>640.8571428571429</ele><time>2026-04-27T10:12:05.387Z</time></trkpt><trkpt lat="44.5988464" lon="15.6918387"><ele>640.5714285714286</ele><time>2026-04-27T10:12:06.387Z</time></trkpt><trkpt lat="44.5988106" lon="15.6919283"><ele>640.2857142857142</ele><time>2026-04-27T10:12:07.386Z</time></trkpt><trkpt lat="44.5987702" lon="15.6920164"><ele>640.0</ele><time>2026-04-27T10:12:08.386Z</time></trkpt><trkpt lat="44.5987287" lon="15.6921082"><ele>640.0</ele><time>2026-04-27T10:12:09.386Z</time></trkpt><trkpt lat="44.5986181" lon="15.6923626"><ele>640.0</ele><time>2026-04-27T10:12:12.386Z</time></trkpt><trkpt lat="44.5985826" lon="15.692446"><ele>640.0</ele><time>2026-04-27T10:12:13.386Z</time></trkpt><trkpt lat="44.5985514" lon="15.6925421"><ele>640.0</ele><time>2026-04-27T10:12:14.386Z</time></trkpt><trkpt lat="44.5984645" lon="15.6928601"><ele>640.0</ele><time>2026-04-27T10:12:17.386Z</time></trkpt><trkpt lat="44.5984392" lon="15.6929558"><ele>640.0</ele><time>2026-04-27T10:12:18.386Z</time></trkpt><trkpt lat="44.5984115" lon="15.6930541"><ele>640.0</ele><time>2026-04-27T10:12:19.386Z</time></trkpt><trkpt lat="44.5983798" lon="15.6931539"><ele>640.0</ele><time>2026-04-27T10:12:20.387Z</time></trkpt><trkpt lat="44.5983493" lon="15.6932531"><ele>640.0</ele><time>2026-04-27T10:12:21.387Z</time></trkpt><trkpt lat="44.5983153" lon="15.6933594"><ele>640.0</ele><time>2026-04-27T10:12:22.387Z</time></trkpt><trkpt lat="44.5982827" lon="15.69347"><ele>640.0</ele><time>2026-04-27T10:12:23.386Z</time></trkpt><trkpt lat="44.5982471" lon="15.6935838"><ele>640.0</ele><time>2026-04-27T10:12:24.387Z</time></trkpt><trkpt lat="44.5982116" lon="15.6936944"><ele>640.0</ele><time>2026-04-27T10:12:25.386Z</time></trkpt><trkpt lat="44.5981768" lon="15.6938045"><ele>640.0</ele><time>2026-04-27T10:12:26.386Z</time></trkpt><trkpt lat="44.5981454" lon="15.6938992"><ele>640.0</ele><time>2026-04-27T10:12:27.387Z</time></trkpt><trkpt lat="44.5981136" lon="15.6939863"><ele>640.0</ele><time>2026-04-27T10:12:28.386Z</time></trkpt><trkpt lat="44.5980847" lon="15.6940659"><ele>640.3333333333334</ele><time>2026-04-27T10:12:29.386Z</time></trkpt><trkpt lat="44.598037" lon="15.6942082"><ele>640.6666666666667</ele><time>2026-04-27T10:12:31.386Z</time></trkpt><trkpt lat="44.598006" lon="15.6942933"><ele>641.0</ele><time>2026-04-27T10:12:32.386Z</time></trkpt><trkpt lat="44.5979712" lon="15.6943817"><ele>641.3333333333334</ele><time>2026-04-27T10:12:33.386Z</time></trkpt><trkpt lat="44.5979294" lon="15.6944798"><ele>641.6666666666666</ele><time>2026-04-27T10:12:34.386Z</time></trkpt><trkpt lat="44.5978838" lon="15.6945781"><ele>642.0</ele><time>2026-04-27T10:12:35.387Z</time></trkpt><trkpt lat="44.597841" lon="15.6946713"><ele>642.5</ele><time>2026-04-27T10:12:36.386Z</time></trkpt><trkpt lat="44.5978022" lon="15.694754"><ele>643.0</ele><time>2026-04-27T10:12:37.387Z</time></trkpt><trkpt lat="44.5977634" lon="15.6948416"><ele>643.5</ele><time>2026-04-27T10:12:38.386Z</time></trkpt><trkpt lat="44.5977206" lon="15.6949342"><ele>644.0</ele><time>2026-04-27T10:12:39.386Z</time></trkpt><trkpt lat="44.5976822" lon="15.6950243"><ele>644.5</ele><time>2026-04-27T10:12:40.387Z</time></trkpt><trkpt lat="44.5976398" lon="15.6951215"><ele>645.0</ele><time>2026-04-27T10:12:41.387Z</time></trkpt><trkpt lat="44.5975969" lon="15.6952159"><ele>645.0</ele><time>2026-04-27T10:12:42.386Z</time></trkpt><trkpt lat="44.5975644" lon="15.6953147"><ele>645.0</ele><time>2026-04-27T10:12:43.387Z</time></trkpt><trkpt lat="44.5975448" lon="15.6954149"><ele>645.0</ele><time>2026-04-27T10:12:44.387Z</time></trkpt><trkpt lat="44.59752" lon="15.695506"><ele>645.0</ele><time>2026-04-27T10:12:45.387Z</time></trkpt><trkpt lat="44.5974891" lon="15.6955851"><ele>645.0</ele><time>2026-04-27T10:12:46.386Z</time></trkpt><trkpt lat="44.5974576" lon="15.695689"><ele>645.0</ele><time>2026-04-27T10:12:47.386Z</time></trkpt><trkpt lat="44.5974163" lon="15.6958011"><ele>645.0</ele><time>2026-04-27T10:12:48.386Z</time></trkpt><trkpt lat="44.5973709" lon="15.6959255"><ele>645.0</ele><time>2026-04-27T10:12:49.387Z</time></trkpt><trkpt lat="44.5973229" lon="15.6960396"><ele>645.0</ele><time>2026-04-27T10:12:50.387Z</time></trkpt><trkpt lat="44.5972678" lon="15.6961595"><ele>645.0</ele><time>2026-04-27T10:12:51.387Z</time></trkpt><trkpt lat="44.5972273" lon="15.6962614"><ele>645.0</ele><time>2026-04-27T10:12:52.386Z</time></trkpt><trkpt lat="44.5971771" lon="15.696391"><ele>644.8</ele><time>2026-04-27T10:12:53.386Z</time></trkpt><trkpt lat="44.5971421" lon="15.6964976"><ele>644.6</ele><time>2026-04-27T10:12:54.386Z</time></trkpt><trkpt lat="44.5971032" lon="15.6965847"><ele>644.4000000000001</ele><time>2026-04-27T10:12:55.386Z</time></trkpt><trkpt lat="44.5970676" lon="15.6967253"><ele>644.2</ele><time>2026-04-27T10:12:56.386Z</time></trkpt><trkpt lat="44.5970213" lon="15.696874"><ele>644.0</ele><time>2026-04-27T10:12:57.386Z</time></trkpt><trkpt lat="44.5969785" lon="15.6970102"><ele>644.6</ele><time>2026-04-27T10:12:58.386Z</time></trkpt><trkpt lat="44.5969308" lon="15.6971371"><ele>645.2</ele><time>2026-04-27T10:12:59.386Z</time></trkpt><trkpt lat="44.5968807" lon="15.6972685"><ele>645.8000000000001</ele><time>2026-04-27T10:13:00.386Z</time></trkpt><trkpt lat="44.5968291" lon="15.6974037"><ele>646.4000000000001</ele><time>2026-04-27T10:13:01.386Z</time></trkpt><trkpt lat="44.5967819" lon="15.6975455"><ele>647.0</ele><time>2026-04-27T10:13:02.386Z</time></trkpt><trkpt lat="44.5967332" lon="15.6976856"><ele>647.0</ele><time>2026-04-27T10:13:03.386Z</time></trkpt><trkpt lat="44.5966828" lon="15.6978249"><ele>647.0</ele><time>2026-04-27T10:13:04.386Z</time></trkpt><trkpt lat="44.5966334" lon="15.697971"><ele>647.0</ele><time>2026-04-27T10:13:05.387Z</time></trkpt><trkpt lat="44.596584" lon="15.6981126"><ele>647.0</ele><time>2026-04-27T10:13:06.387Z</time></trkpt><trkpt lat="44.5965364" lon="15.6982515"><ele>647.0</ele><time>2026-04-27T10:13:07.387Z</time></trkpt><trkpt lat="44.596495" lon="15.69839"><ele>647.0</ele><time>2026-04-27T10:13:08.386Z</time></trkpt><trkpt lat="44.5964544" lon="15.6985143"><ele>647.0</ele><time>2026-04-27T10:13:09.386Z</time></trkpt><trkpt lat="44.5964172" lon="15.6986462"><ele>647.0</ele><time>2026-04-27T10:13:10.386Z</time></trkpt><trkpt lat="44.5963739" lon="15.6987737"><ele>647.0</ele><time>2026-04-27T10:13:11.386Z</time></trkpt><trkpt lat="44.5963265" lon="15.6989108"><ele>647.0</ele><time>2026-04-27T10:13:12.387Z</time></trkpt><trkpt lat="44.596284" lon="15.6990442"><ele>647.0</ele><time>2026-04-27T10:13:13.386Z</time></trkpt><trkpt lat="44.5962429" lon="15.6991773"><ele>647.0</ele><time>2026-04-27T10:13:14.387Z</time></trkpt><trkpt lat="44.5961949" lon="15.6993203"><ele>647.0</ele><time>2026-04-27T10:13:15.387Z</time></trkpt><trkpt lat="44.5961511" lon="15.6994448"><ele>647.0</ele><time>2026-04-27T10:13:16.386Z</time></trkpt><trkpt lat="44.5961092" lon="15.6995532"><ele>647.0</ele><time>2026-04-27T10:13:17.387Z</time></trkpt><trkpt lat="44.5960625" lon="15.6996761"><ele>646.8</ele><time>2026-04-27T10:13:18.386Z</time></trkpt><trkpt lat="44.5960118" lon="15.6998083"><ele>646.6</ele><time>2026-04-27T10:13:19.386Z</time></trkpt><trkpt lat="44.5959643" lon="15.6999301"><ele>646.4</ele><time>2026-04-27T10:13:20.387Z</time></trkpt><trkpt lat="44.5959114" lon="15.7000486"><ele>646.1999999999999</ele><time>2026-04-27T10:13:21.386Z</time></trkpt><trkpt lat="44.5958568" lon="15.7001662"><ele>646.0</ele><time>2026-04-27T10:13:22.387Z</time></trkpt><trkpt lat="44.5957995" lon="15.7002812"><ele>646.0</ele><time>2026-04-27T10:13:23.386Z</time></trkpt><trkpt lat="44.5957477" lon="15.7003886"><ele>646.0</ele><time>2026-04-27T10:13:24.386Z</time></trkpt><trkpt lat="44.5956936" lon="15.7005022"><ele>646.0</ele><time>2026-04-27T10:13:25.386Z</time></trkpt><trkpt lat="44.5956433" lon="15.7006243"><ele>646.0</ele><time>2026-04-27T10:13:26.387Z</time></trkpt><trkpt lat="44.5955943" lon="15.7007455"><ele>646.0</ele><time>2026-04-27T10:13:27.386Z</time></trkpt><trkpt lat="44.5955456" lon="15.7008771"><ele>646.0</ele><time>2026-04-27T10:13:28.387Z</time></trkpt><trkpt lat="44.5954926" lon="15.7010031"><ele>646.0</ele><time>2026-04-27T10:13:29.386Z</time></trkpt><trkpt lat="44.5954347" lon="15.7011307"><ele>646.0</ele><time>2026-04-27T10:13:30.386Z</time></trkpt><trkpt lat="44.5953863" lon="15.7012514"><ele>646.0</ele><time>2026-04-27T10:13:31.386Z</time></trkpt><trkpt lat="44.5953391" lon="15.7013642"><ele>646.0</ele><time>2026-04-27T10:13:32.386Z</time></trkpt><trkpt lat="44.5952877" lon="15.7014813"><ele>646.1999999999999</ele><time>2026-04-27T10:13:33.387Z</time></trkpt><trkpt lat="44.595236" lon="15.7015976"><ele>646.4</ele><time>2026-04-27T10:13:34.386Z</time></trkpt><trkpt lat="44.5951806" lon="15.7017221"><ele>646.6</ele><time>2026-04-27T10:13:35.387Z</time></trkpt><trkpt lat="44.5951249" lon="15.7018427"><ele>646.8</ele><time>2026-04-27T10:13:36.386Z</time></trkpt><trkpt lat="44.5950647" lon="15.7019749"><ele>647.0</ele><time>2026-04-27T10:13:37.386Z</time></trkpt><trkpt lat="44.594999" lon="15.7021088"><ele>647.5</ele><time>2026-04-27T10:13:38.386Z</time></trkpt><trkpt lat="44.5949345" lon="15.7022372"><ele>648.0</ele><time>2026-04-27T10:13:39.386Z</time></trkpt><trkpt lat="44.594863" lon="15.7023554"><ele>648.5</ele><time>2026-04-27T10:13:40.386Z</time></trkpt><trkpt lat="44.5947822" lon="15.7024807"><ele>649.0</ele><time>2026-04-27T10:13:41.386Z</time></trkpt><trkpt lat="44.5946987" lon="15.7026044"><ele>649.0</ele><time>2026-04-27T10:13:42.386Z</time></trkpt><trkpt lat="44.59462" lon="15.7027352"><ele>649.0</ele><time>2026-04-27T10:13:43.386Z</time></trkpt><trkpt lat="44.5945523" lon="15.702854"><ele>649.0</ele><time>2026-04-27T10:13:44.386Z</time></trkpt><trkpt lat="44.59448" lon="15.7029753"><ele>649.0</ele><time>2026-04-27T10:13:45.386Z</time></trkpt><trkpt lat="44.5944005" lon="15.7031009"><ele>648.75</ele><time>2026-04-27T10:13:46.386Z</time></trkpt><trkpt lat="44.5943173" lon="15.7032185"><ele>648.5</ele><time>2026-04-27T10:13:47.386Z</time></trkpt><trkpt lat="44.594226" lon="15.7033307"><ele>648.25</ele><time>2026-04-27T10:13:48.386Z</time></trkpt><trkpt lat="44.5941333" lon="15.7034363"><ele>648.0</ele><time>2026-04-27T10:13:49.387Z</time></trkpt><trkpt lat="44.5940392" lon="15.7035391"><ele>647.75</ele><time>2026-04-27T10:13:50.386Z</time></trkpt><trkpt lat="44.593938" lon="15.70364"><ele>647.5</ele><time>2026-04-27T10:13:51.386Z</time></trkpt><trkpt lat="44.5938257" lon="15.7037419"><ele>647.25</ele><time>2026-04-27T10:13:52.387Z</time></trkpt><trkpt lat="44.5937185" lon="15.7038399"><ele>647.0</ele><time>2026-04-27T10:13:53.386Z</time></trkpt><trkpt lat="44.5936061" lon="15.7039411"><ele>646.5</ele><time>2026-04-27T10:13:54.386Z</time></trkpt><trkpt lat="44.5934965" lon="15.704038"><ele>646.0</ele><time>2026-04-27T10:13:55.387Z</time></trkpt><trkpt lat="44.5933846" lon="15.7041262"><ele>645.5</ele><time>2026-04-27T10:13:56.387Z</time></trkpt><trkpt lat="44.593275" lon="15.7041939"><ele>645.0</ele><time>2026-04-27T10:13:57.387Z</time></trkpt><trkpt lat="44.593166" lon="15.7042643"><ele>645.0</ele><time>2026-04-27T10:13:58.386Z</time></trkpt><trkpt lat="44.5930629" lon="15.7043409"><ele>645.0</ele><time>2026-04-27T10:13:59.386Z</time></trkpt><trkpt lat="44.5929635" lon="15.704398"><ele>645.0</ele><time>2026-04-27T10:14:00.386Z</time></trkpt><trkpt lat="44.5928692" lon="15.7044381"><ele>645.0</ele><time>2026-04-27T10:14:01.386Z</time></trkpt><trkpt lat="44.5927865" lon="15.7044953"><ele>645.0</ele><time>2026-04-27T10:14:02.386Z</time></trkpt><trkpt lat="44.5926969" lon="15.7045624"><ele>645.75</ele><time>2026-04-27T10:14:03.387Z</time></trkpt><trkpt lat="44.5926047" lon="15.7046244"><ele>646.5</ele><time>2026-04-27T10:14:04.387Z</time></trkpt><trkpt lat="44.5925031" lon="15.7046852"><ele>647.25</ele><time>2026-04-27T10:14:05.386Z</time></trkpt><trkpt lat="44.5923976" lon="15.7047507"><ele>648.0</ele><time>2026-04-27T10:14:06.386Z</time></trkpt><trkpt lat="44.59229" lon="15.7048317"><ele>648.0</ele><time>2026-04-27T10:14:07.387Z</time></trkpt><trkpt lat="44.5921821" lon="15.7049186"><ele>648.0</ele><time>2026-04-27T10:14:08.386Z</time></trkpt><trkpt lat="44.5920682" lon="15.7050083"><ele>648.0</ele><time>2026-04-27T10:14:09.387Z</time></trkpt><trkpt lat="44.5919499" lon="15.7050864"><ele>648.0</ele><time>2026-04-27T10:14:10.386Z</time></trkpt><trkpt lat="44.5918278" lon="15.7051692"><ele>648.25</ele><time>2026-04-27T10:14:11.386Z</time></trkpt><trkpt lat="44.5917056" lon="15.7052512"><ele>648.5</ele><time>2026-04-27T10:14:12.387Z</time></trkpt><trkpt lat="44.5915983" lon="15.7053323"><ele>648.75</ele><time>2026-04-27T10:14:13.386Z</time></trkpt><trkpt lat="44.5915098" lon="15.7054073"><ele>649.0</ele><time>2026-04-27T10:14:14.387Z</time></trkpt><trkpt lat="44.5914243" lon="15.705477"><ele>649.0</ele><time>2026-04-27T10:14:15.386Z</time></trkpt><trkpt lat="44.5913347" lon="15.7055481"><ele>649.0</ele><time>2026-04-27T10:14:16.386Z</time></trkpt><trkpt lat="44.5912393" lon="15.7056217"><ele>649.0</ele><time>2026-04-27T10:14:17.386Z</time></trkpt><trkpt lat="44.5911395" lon="15.7057043"><ele>649.0</ele><time>2026-04-27T10:14:18.386Z</time></trkpt><trkpt lat="44.5910402" lon="15.7058007"><ele>649.0</ele><time>2026-04-27T10:14:19.386Z</time></trkpt><trkpt lat="44.5909366" lon="15.7059049"><ele>649.0</ele><time>2026-04-27T10:14:20.386Z</time></trkpt><trkpt lat="44.5908456" lon="15.7059988"><ele>649.0</ele><time>2026-04-27T10:14:21.387Z</time></trkpt><trkpt lat="44.590759" lon="15.7060986"><ele>649.0</ele><time>2026-04-27T10:14:22.386Z</time></trkpt><trkpt lat="44.5906766" lon="15.706196"><ele>649.0</ele><time>2026-04-27T10:14:23.387Z</time></trkpt><trkpt lat="44.5905938" lon="15.7063086"><ele>649.0</ele><time>2026-04-27T10:14:24.386Z</time></trkpt><trkpt lat="44.5905111" lon="15.706421"><ele>649.0</ele><time>2026-04-27T10:14:25.387Z</time></trkpt><trkpt lat="44.5904147" lon="15.7065407"><ele>649.0</ele><time>2026-04-27T10:14:26.386Z</time></trkpt><trkpt lat="44.5903096" lon="15.7066457"><ele>649.0</ele><time>2026-04-27T10:14:27.386Z</time></trkpt><trkpt lat="44.5902033" lon="15.7067522"><ele>649.0</ele><time>2026-04-27T10:14:28.386Z</time></trkpt><trkpt lat="44.5900969" lon="15.7068601"><ele>649.0</ele><time>2026-04-27T10:14:29.386Z</time></trkpt><trkpt lat="44.5899885" lon="15.7069615"><ele>649.0</ele><time>2026-04-27T10:14:30.386Z</time></trkpt><trkpt lat="44.5898815" lon="15.707061"><ele>649.0</ele><time>2026-04-27T10:14:31.386Z</time></trkpt><trkpt lat="44.5897773" lon="15.7071742"><ele>649.0</ele><time>2026-04-27T10:14:32.387Z</time></trkpt><trkpt lat="44.5896797" lon="15.7072898"><ele>649.0</ele><time>2026-04-27T10:14:33.386Z</time></trkpt><trkpt lat="44.5895759" lon="15.7074113"><ele>649.0</ele><time>2026-04-27T10:14:34.387Z</time></trkpt><trkpt lat="44.5894796" lon="15.7075183"><ele>649.0</ele><time>2026-04-27T10:14:35.387Z</time></trkpt><trkpt lat="44.5893795" lon="15.707619"><ele>649.0</ele><time>2026-04-27T10:14:36.386Z</time></trkpt><trkpt lat="44.589277" lon="15.7077103"><ele>648.75</ele><time>2026-04-27T10:14:37.386Z</time></trkpt><trkpt lat="44.5891734" lon="15.7077996"><ele>648.5</ele><time>2026-04-27T10:14:38.386Z</time></trkpt><trkpt lat="44.5890671" lon="15.7078843"><ele>648.25</ele><time>2026-04-27T10:14:39.386Z</time></trkpt><trkpt lat="44.5889571" lon="15.7079633"><ele>648.0</ele><time>2026-04-27T10:14:40.387Z</time></trkpt><trkpt lat="44.5888475" lon="15.7080454"><ele>648.0</ele><time>2026-04-27T10:14:41.387Z</time></trkpt><trkpt lat="44.5887258" lon="15.7081258"><ele>648.0</ele><time>2026-04-27T10:14:42.387Z</time></trkpt><trkpt lat="44.5886155" lon="15.7081957"><ele>648.0</ele><time>2026-04-27T10:14:43.386Z</time></trkpt><trkpt lat="44.588524" lon="15.7082576"><ele>648.0</ele><time>2026-04-27T10:14:44.387Z</time></trkpt><trkpt lat="44.5884422" lon="15.7083157"><ele>648.0</ele><time>2026-04-27T10:14:45.386Z</time></trkpt><trkpt lat="44.5883637" lon="15.7083825"><ele>647.5999999999999</ele><time>2026-04-27T10:14:46.386Z</time></trkpt><trkpt lat="44.5882843" lon="15.7084701"><ele>647.1999999999999</ele><time>2026-04-27T10:14:47.386Z</time></trkpt><trkpt lat="44.5881995" lon="15.7085629"><ele>646.8</ele><time>2026-04-27T10:14:48.386Z</time></trkpt><trkpt lat="44.588118" lon="15.7086557"><ele>646.4</ele><time>2026-04-27T10:14:49.386Z</time></trkpt><trkpt lat="44.5880398" lon="15.7087472"><ele>646.0</ele><time>2026-04-27T10:14:50.386Z</time></trkpt><trkpt lat="44.5879605" lon="15.7088347"><ele>646.0</ele><time>2026-04-27T10:14:51.386Z</time></trkpt><trkpt lat="44.5878792" lon="15.7089226"><ele>646.0</ele><time>2026-04-27T10:14:52.386Z</time></trkpt><trkpt lat="44.5877974" lon="15.7090102"><ele>646.0</ele><time>2026-04-27T10:14:53.386Z</time></trkpt><trkpt lat="44.5877237" lon="15.7090994"><ele>646.0</ele><time>2026-04-27T10:14:54.386Z</time></trkpt><trkpt lat="44.5876538" lon="15.7091977"><ele>646.0</ele><time>2026-04-27T10:14:55.386Z</time></trkpt><trkpt lat="44.5875745" lon="15.7092722"><ele>645.8</ele><time>2026-04-27T10:14:56.387Z</time></trkpt><trkpt lat="44.5874788" lon="15.709339"><ele>645.5999999999999</ele><time>2026-04-27T10:14:57.386Z</time></trkpt><trkpt lat="44.5873752" lon="15.7093966"><ele>645.4</ele><time>2026-04-27T10:14:58.386Z</time></trkpt><trkpt lat="44.587263" lon="15.7094375"><ele>645.2</ele><time>2026-04-27T10:14:59.386Z</time></trkpt><trkpt lat="44.5871616" lon="15.7094801"><ele>645.0</ele><time>2026-04-27T10:15:00.386Z</time></trkpt><trkpt lat="44.5870644" lon="15.7095373"><ele>645.0</ele><time>2026-04-27T10:15:01.386Z</time></trkpt><trkpt lat="44.5869684" lon="15.7095944"><ele>645.0</ele><time>2026-04-27T10:15:02.386Z</time></trkpt><trkpt lat="44.5868738" lon="15.7096521"><ele>645.0</ele><time>2026-04-27T10:15:03.386Z</time></trkpt><trkpt lat="44.5867735" lon="15.7097007"><ele>645.0</ele><time>2026-04-27T10:15:04.386Z</time></trkpt><trkpt lat="44.586681" lon="15.7097351"><ele>645.0</ele><time>2026-04-27T10:15:05.386Z</time></trkpt><trkpt lat="44.5865936" lon="15.7097868"><ele>645.0</ele><time>2026-04-27T10:15:06.386Z</time></trkpt><trkpt lat="44.5864999" lon="15.7098524"><ele>645.0</ele><time>2026-04-27T10:15:07.386Z</time></trkpt><trkpt lat="44.5864038" lon="15.7099207"><ele>645.0</ele><time>2026-04-27T10:15:08.386Z</time></trkpt><trkpt lat="44.5862927" lon="15.7099947"><ele>645.0</ele><time>2026-04-27T10:15:09.386Z</time></trkpt><trkpt lat="44.5861892" lon="15.7100668"><ele>644.8</ele><time>2026-04-27T10:15:10.386Z</time></trkpt><trkpt lat="44.5860871" lon="15.710139"><ele>644.6</ele><time>2026-04-27T10:15:11.387Z</time></trkpt><trkpt lat="44.5859879" lon="15.7102008"><ele>644.4000000000001</ele><time>2026-04-27T10:15:12.386Z</time></trkpt><trkpt lat="44.5858997" lon="15.7102725"><ele>644.2</ele><time>2026-04-27T10:15:13.386Z</time></trkpt><trkpt lat="44.585811" lon="15.7103469"><ele>644.0</ele><time>2026-04-27T10:15:14.387Z</time></trkpt><trkpt lat="44.5857225" lon="15.7104129"><ele>644.0</ele><time>2026-04-27T10:15:15.386Z</time></trkpt><trkpt lat="44.5856374" lon="15.7104799"><ele>644.0</ele><time>2026-04-27T10:15:16.386Z</time></trkpt><trkpt lat="44.5855448" lon="15.7105433"><ele>644.0</ele><time>2026-04-27T10:15:17.386Z</time></trkpt><trkpt lat="44.5854479" lon="15.7105989"><ele>644.0</ele><time>2026-04-27T10:15:18.386Z</time></trkpt><trkpt lat="44.5853445" lon="15.710644"><ele>644.0</ele><time>2026-04-27T10:15:19.386Z</time></trkpt><trkpt lat="44.5852278" lon="15.7106913"><ele>644.2</ele><time>2026-04-27T10:15:20.386Z</time></trkpt><trkpt lat="44.585122" lon="15.710733"><ele>644.4000000000001</ele><time>2026-04-27T10:15:21.386Z</time></trkpt><trkpt lat="44.5850141" lon="15.710782"><ele>644.6</ele><time>2026-04-27T10:15:22.386Z</time></trkpt><trkpt lat="44.5849074" lon="15.7108324"><ele>644.8</ele><time>2026-04-27T10:15:23.387Z</time></trkpt><trkpt lat="44.5848093" lon="15.7108849"><ele>645.0</ele><time>2026-04-27T10:15:24.386Z</time></trkpt><trkpt lat="44.5847103" lon="15.7109361"><ele>645.0</ele><time>2026-04-27T10:15:25.386Z</time></trkpt><trkpt lat="44.5846141" lon="15.7109785"><ele>645.0</ele><time>2026-04-27T10:15:26.387Z</time></trkpt><trkpt lat="44.5845237" lon="15.7110271"><ele>645.0</ele><time>2026-04-27T10:15:27.386Z</time></trkpt><trkpt lat="44.5844299" lon="15.7110886"><ele>645.0</ele><time>2026-04-27T10:15:28.387Z</time></trkpt><trkpt lat="44.5843355" lon="15.711152"><ele>645.0</ele><time>2026-04-27T10:15:29.386Z</time></trkpt><trkpt lat="44.5842456" lon="15.7112222"><ele>645.4</ele><time>2026-04-27T10:15:30.386Z</time></trkpt><trkpt lat="44.5841525" lon="15.711286"><ele>645.8</ele><time>2026-04-27T10:15:31.386Z</time></trkpt><trkpt lat="44.5840526" lon="15.7113526"><ele>646.2</ele><time>2026-04-27T10:15:32.386Z</time></trkpt><trkpt lat="44.5839723" lon="15.7114118"><ele>646.6</ele><time>2026-04-27T10:15:33.386Z</time></trkpt><trkpt lat="44.5838854" lon="15.7114746"><ele>647.0</ele><time>2026-04-27T10:15:34.386Z</time></trkpt><trkpt lat="44.5837849" lon="15.7115316"><ele>646.5</ele><time>2026-04-27T10:15:35.386Z</time></trkpt><trkpt lat="44.5836784" lon="15.711581"><ele>646.0</ele><time>2026-04-27T10:15:36.386Z</time></trkpt><trkpt lat="44.5835596" lon="15.7116271"><ele>645.5</ele><time>2026-04-27T10:15:37.386Z</time></trkpt><trkpt lat="44.5834452" lon="15.7116743"><ele>645.0</ele><time>2026-04-27T10:15:38.386Z</time></trkpt><trkpt lat="44.5833261" lon="15.7117272"><ele>645.0</ele><time>2026-04-27T10:15:39.386Z</time></trkpt><trkpt lat="44.5832107" lon="15.71179"><ele>645.0</ele><time>2026-04-27T10:15:40.386Z</time></trkpt><trkpt lat="44.583101" lon="15.7118468"><ele>645.0</ele><time>2026-04-27T10:15:41.386Z</time></trkpt><trkpt lat="44.5829904" lon="15.7119117"><ele>645.0</ele><time>2026-04-27T10:15:42.387Z</time></trkpt><trkpt lat="44.5828771" lon="15.7119805"><ele>644.6</ele><time>2026-04-27T10:15:43.386Z</time></trkpt><trkpt lat="44.5827689" lon="15.7120537"><ele>644.2</ele><time>2026-04-27T10:15:44.387Z</time></trkpt><trkpt lat="44.5826632" lon="15.7121348"><ele>643.8</ele><time>2026-04-27T10:15:45.386Z</time></trkpt><trkpt lat="44.5825638" lon="15.7122058"><ele>643.4</ele><time>2026-04-27T10:15:46.386Z</time></trkpt><trkpt lat="44.582481" lon="15.7122708"><ele>643.0</ele><time>2026-04-27T10:15:47.386Z</time></trkpt><trkpt lat="44.5823858" lon="15.7123455"><ele>643.0</ele><time>2026-04-27T10:15:48.386Z</time></trkpt><trkpt lat="44.582287" lon="15.7124218"><ele>643.0</ele><time>2026-04-27T10:15:49.386Z</time></trkpt><trkpt lat="44.5821869" lon="15.7124938"><ele>643.0</ele><time>2026-04-27T10:15:50.387Z</time></trkpt><trkpt lat="44.5820891" lon="15.7125702"><ele>643.0</ele><time>2026-04-27T10:15:51.386Z</time></trkpt><trkpt lat="44.5819914" lon="15.7126336"><ele>643.0</ele><time>2026-04-27T10:15:52.386Z</time></trkpt><trkpt lat="44.5818851" lon="15.7127033"><ele>643.5</ele><time>2026-04-27T10:15:53.387Z</time></trkpt><trkpt lat="44.5817845" lon="15.712776"><ele>644.0</ele><time>2026-04-27T10:15:54.387Z</time></trkpt><trkpt lat="44.5816796" lon="15.7128477"><ele>644.5</ele><time>2026-04-27T10:15:55.386Z</time></trkpt><trkpt lat="44.5815731" lon="15.7129208"><ele>645.0</ele><time>2026-04-27T10:15:56.387Z</time></trkpt><trkpt lat="44.5814611" lon="15.7129955"><ele>645.0</ele><time>2026-04-27T10:15:57.386Z</time></trkpt><trkpt lat="44.5813412" lon="15.7130741"><ele>645.0</ele><time>2026-04-27T10:15:58.387Z</time></trkpt><trkpt lat="44.58122" lon="15.7131604"><ele>645.0</ele><time>2026-04-27T10:15:59.386Z</time></trkpt><trkpt lat="44.5811019" lon="15.7132478"><ele>645.0</ele><time>2026-04-27T10:16:00.386Z</time></trkpt><trkpt lat="44.5809765" lon="15.7133432"><ele>645.25</ele><time>2026-04-27T10:16:01.386Z</time></trkpt><trkpt lat="44.5808421" lon="15.7134352"><ele>645.5</ele><time>2026-04-27T10:16:02.386Z</time></trkpt><trkpt lat="44.5807055" lon="15.7135216"><ele>645.75</ele><time>2026-04-27T10:16:03.386Z</time></trkpt><trkpt lat="44.5805746" lon="15.7136096"><ele>646.0</ele><time>2026-04-27T10:16:04.386Z</time></trkpt><trkpt lat="44.5804533" lon="15.7136955"><ele>647.25</ele><time>2026-04-27T10:16:05.387Z</time></trkpt><trkpt lat="44.580332" lon="15.7137805"><ele>648.5</ele><time>2026-04-27T10:16:06.386Z</time></trkpt><trkpt lat="44.5802088" lon="15.7138611"><ele>649.75</ele><time>2026-04-27T10:16:07.387Z</time></trkpt><trkpt lat="44.580084" lon="15.7139434"><ele>651.0</ele><time>2026-04-27T10:16:08.386Z</time></trkpt><trkpt lat="44.579964" lon="15.714029"><ele>651.0</ele><time>2026-04-27T10:16:09.387Z</time></trkpt><trkpt lat="44.5798395" lon="15.7141147"><ele>651.0</ele><time>2026-04-27T10:16:10.386Z</time></trkpt><trkpt lat="44.5797252" lon="15.7142004"><ele>651.0</ele><time>2026-04-27T10:16:11.386Z</time></trkpt><trkpt lat="44.5796076" lon="15.7142975"><ele>651.0</ele><time>2026-04-27T10:16:12.386Z</time></trkpt><trkpt lat="44.5794894" lon="15.7144113"><ele>650.5</ele><time>2026-04-27T10:16:13.386Z</time></trkpt><trkpt lat="44.5793778" lon="15.7145106"><ele>650.0</ele><time>2026-04-27T10:16:14.386Z</time></trkpt><trkpt lat="44.5792684" lon="15.7145957"><ele>649.5</ele><time>2026-04-27T10:16:15.387Z</time></trkpt><trkpt lat="44.5791591" lon="15.7146857"><ele>649.0</ele><time>2026-04-27T10:16:16.386Z</time></trkpt><trkpt lat="44.5790528" lon="15.714775"><ele>649.0</ele><time>2026-04-27T10:16:17.386Z</time></trkpt><trkpt lat="44.578954" lon="15.7148601"><ele>649.0</ele><time>2026-04-27T10:16:18.386Z</time></trkpt><trkpt lat="44.5788617" lon="15.7149513"><ele>649.0</ele><time>2026-04-27T10:16:19.386Z</time></trkpt><trkpt lat="44.578768" lon="15.7150505"><ele>649.0</ele><time>2026-04-27T10:16:20.387Z</time></trkpt><trkpt lat="44.5786716" lon="15.715156"><ele>649.25</ele><time>2026-04-27T10:16:21.386Z</time></trkpt><trkpt lat="44.5785722" lon="15.715262"><ele>649.5</ele><time>2026-04-27T10:16:22.387Z</time></trkpt><trkpt lat="44.5784745" lon="15.7153643"><ele>649.75</ele><time>2026-04-27T10:16:23.386Z</time></trkpt><trkpt lat="44.5783681" lon="15.7154749"><ele>650.0</ele><time>2026-04-27T10:16:24.386Z</time></trkpt><trkpt lat="44.5782641" lon="15.7155866"><ele>650.0</ele><time>2026-04-27T10:16:25.387Z</time></trkpt><trkpt lat="44.5781561" lon="15.7156956"><ele>650.0</ele><time>2026-04-27T10:16:26.386Z</time></trkpt><trkpt lat="44.5780546" lon="15.7157961"><ele>650.0</ele><time>2026-04-27T10:16:27.386Z</time></trkpt><trkpt lat="44.5779561" lon="15.7158884"><ele>650.0</ele><time>2026-04-27T10:16:28.386Z</time></trkpt><trkpt lat="44.5778617" lon="15.7159681"><ele>649.6</ele><time>2026-04-27T10:16:29.386Z</time></trkpt><trkpt lat="44.5777684" lon="15.7160568"><ele>649.2</ele><time>2026-04-27T10:16:30.386Z</time></trkpt><trkpt lat="44.5776774" lon="15.7161469"><ele>648.8</ele><time>2026-04-27T10:16:31.386Z</time></trkpt><trkpt lat="44.5775818" lon="15.7162337"><ele>648.4</ele><time>2026-04-27T10:16:32.387Z</time></trkpt><trkpt lat="44.5774914" lon="15.7163247"><ele>648.0</ele><time>2026-04-27T10:16:33.386Z</time></trkpt><trkpt lat="44.5774056" lon="15.7164034"><ele>647.5</ele><time>2026-04-27T10:16:34.386Z</time></trkpt><trkpt lat="44.5773047" lon="15.716502"><ele>647.0</ele><time>2026-04-27T10:16:35.386Z</time></trkpt><trkpt lat="44.5772145" lon="15.7165893"><ele>646.5</ele><time>2026-04-27T10:16:36.386Z</time></trkpt><trkpt lat="44.5771256" lon="15.7166736"><ele>646.0</ele><time>2026-04-27T10:16:37.387Z</time></trkpt><trkpt lat="44.577034" lon="15.7167616"><ele>646.25</ele><time>2026-04-27T10:16:38.386Z</time></trkpt><trkpt lat="44.5769492" lon="15.7168424"><ele>646.5</ele><time>2026-04-27T10:16:39.386Z</time></trkpt><trkpt lat="44.5768513" lon="15.7169471"><ele>646.75</ele><time>2026-04-27T10:16:40.386Z</time></trkpt><trkpt lat="44.5767493" lon="15.7170495"><ele>647.0</ele><time>2026-04-27T10:16:41.386Z</time></trkpt><trkpt lat="44.5766444" lon="15.7171452"><ele>647.0</ele><time>2026-04-27T10:16:42.386Z</time></trkpt><trkpt lat="44.5765422" lon="15.717251"><ele>647.0</ele><time>2026-04-27T10:16:43.386Z</time></trkpt><trkpt lat="44.5764376" lon="15.7173603"><ele>647.0</ele><time>2026-04-27T10:16:44.387Z</time></trkpt><trkpt lat="44.5763265" lon="15.7174724"><ele>647.0</ele><time>2026-04-27T10:16:45.387Z</time></trkpt><trkpt lat="44.5762239" lon="15.7175742"><ele>647.25</ele><time>2026-04-27T10:16:46.386Z</time></trkpt><trkpt lat="44.5761248" lon="15.7176826"><ele>647.5</ele><time>2026-04-27T10:16:47.386Z</time></trkpt><trkpt lat="44.5760227" lon="15.717788"><ele>647.75</ele><time>2026-04-27T10:16:48.386Z</time></trkpt><trkpt lat="44.5759261" lon="15.7178938"><ele>648.0</ele><time>2026-04-27T10:16:49.387Z</time></trkpt><trkpt lat="44.5758309" lon="15.7180026"><ele>648.0</ele><time>2026-04-27T10:16:50.386Z</time></trkpt><trkpt lat="44.575734" lon="15.7181075"><ele>648.0</ele><time>2026-04-27T10:16:51.387Z</time></trkpt><trkpt lat="44.5756319" lon="15.7182023"><ele>648.0</ele><time>2026-04-27T10:16:52.386Z</time></trkpt><trkpt lat="44.5755217" lon="15.7183114"><ele>648.0</ele><time>2026-04-27T10:16:53.386Z</time></trkpt><trkpt lat="44.5754114" lon="15.7184074"><ele>647.5</ele><time>2026-04-27T10:16:54.386Z</time></trkpt><trkpt lat="44.5753011" lon="15.7185193"><ele>647.0</ele><time>2026-04-27T10:16:55.386Z</time></trkpt><trkpt lat="44.5751923" lon="15.7186195"><ele>646.5</ele><time>2026-04-27T10:16:56.387Z</time></trkpt><trkpt lat="44.5750783" lon="15.7187082"><ele>646.0</ele><time>2026-04-27T10:16:57.386Z</time></trkpt><trkpt lat="44.574959" lon="15.7187813"><ele>646.0</ele><time>2026-04-27T10:16:58.386Z</time></trkpt><trkpt lat="44.574833" lon="15.7188534"><ele>646.0</ele><time>2026-04-27T10:16:59.386Z</time></trkpt><trkpt lat="44.5747153" lon="15.7189178"><ele>646.0</ele><time>2026-04-27T10:17:00.386Z</time></trkpt><trkpt lat="44.5745935" lon="15.7189934"><ele>646.0</ele><time>2026-04-27T10:17:01.387Z</time></trkpt><trkpt lat="44.5744686" lon="15.7190666"><ele>646.25</ele><time>2026-04-27T10:17:02.386Z</time></trkpt><trkpt lat="44.5743429" lon="15.7191364"><ele>646.5</ele><time>2026-04-27T10:17:03.387Z</time></trkpt><trkpt lat="44.5742227" lon="15.719205"><ele>646.75</ele><time>2026-04-27T10:17:04.386Z</time></trkpt><trkpt lat="44.5741028" lon="15.7192706"><ele>647.0</ele><time>2026-04-27T10:17:05.386Z</time></trkpt><trkpt lat="44.5739734" lon="15.7193421"><ele>647.0</ele><time>2026-04-27T10:17:06.386Z</time></trkpt><trkpt lat="44.5738505" lon="15.7194136"><ele>647.0</ele><time>2026-04-27T10:17:07.387Z</time></trkpt><trkpt lat="44.57372" lon="15.7194805"><ele>647.0</ele><time>2026-04-27T10:17:08.386Z</time></trkpt><trkpt lat="44.5735927" lon="15.7195519"><ele>647.0</ele><time>2026-04-27T10:17:09.386Z</time></trkpt><trkpt lat="44.5734679" lon="15.7196146"><ele>647.0</ele><time>2026-04-27T10:17:10.386Z</time></trkpt><trkpt lat="44.573341" lon="15.7196678"><ele>647.0</ele><time>2026-04-27T10:17:11.386Z</time></trkpt><trkpt lat="44.5732274" lon="15.7197143"><ele>647.0</ele><time>2026-04-27T10:17:12.387Z</time></trkpt><trkpt lat="44.5731081" lon="15.7197712"><ele>647.0</ele><time>2026-04-27T10:17:13.386Z</time></trkpt><trkpt lat="44.5729896" lon="15.7198379"><ele>647.0</ele><time>2026-04-27T10:17:14.387Z</time></trkpt><trkpt lat="44.572866" lon="15.7198936"><ele>647.0</ele><time>2026-04-27T10:17:15.386Z</time></trkpt><trkpt lat="44.5727502" lon="15.7199473"><ele>647.0</ele><time>2026-04-27T10:17:16.386Z</time></trkpt><trkpt lat="44.5726309" lon="15.7199895"><ele>647.0</ele><time>2026-04-27T10:17:17.386Z</time></trkpt><trkpt lat="44.5725089" lon="15.7200319"><ele>647.25</ele><time>2026-04-27T10:17:18.387Z</time></trkpt><trkpt lat="44.5723829" lon="15.7200612"><ele>647.5</ele><time>2026-04-27T10:17:19.387Z</time></trkpt><trkpt lat="44.5722574" lon="15.7200835"><ele>647.75</ele><time>2026-04-27T10:17:20.386Z</time></trkpt><trkpt lat="44.5721335" lon="15.7201126"><ele>648.0</ele><time>2026-04-27T10:17:21.386Z</time></trkpt><trkpt lat="44.5720164" lon="15.7201604"><ele>648.0</ele><time>2026-04-27T10:17:22.386Z</time></trkpt><trkpt lat="44.5718963" lon="15.7202138"><ele>648.0</ele><time>2026-04-27T10:17:23.386Z</time></trkpt><trkpt lat="44.5717725" lon="15.7202699"><ele>648.0</ele><time>2026-04-27T10:17:24.386Z</time></trkpt><trkpt lat="44.5716502" lon="15.7203226"><ele>648.0</ele><time>2026-04-27T10:17:25.386Z</time></trkpt><trkpt lat="44.571526" lon="15.7203924"><ele>648.25</ele><time>2026-04-27T10:17:26.386Z</time></trkpt><trkpt lat="44.5714029" lon="15.7204598"><ele>648.5</ele><time>2026-04-27T10:17:27.386Z</time></trkpt><trkpt lat="44.5712884" lon="15.7205408"><ele>648.75</ele><time>2026-04-27T10:17:28.387Z</time></trkpt><trkpt lat="44.5711682" lon="15.7206148"><ele>649.0</ele><time>2026-04-27T10:17:29.386Z</time></trkpt><trkpt lat="44.5710513" lon="15.7206933"><ele>649.0</ele><time>2026-04-27T10:17:30.386Z</time></trkpt><trkpt lat="44.5709348" lon="15.7207789"><ele>649.0</ele><time>2026-04-27T10:17:31.387Z</time></trkpt><trkpt lat="44.5708145" lon="15.7208654"><ele>649.0</ele><time>2026-04-27T10:17:32.386Z</time></trkpt><trkpt lat="44.5706961" lon="15.7209483"><ele>649.0</ele><time>2026-04-27T10:17:33.386Z</time></trkpt><trkpt lat="44.5705786" lon="15.7210378"><ele>649.0</ele><time>2026-04-27T10:17:34.387Z</time></trkpt><trkpt lat="44.5704569" lon="15.7211199"><ele>649.0</ele><time>2026-04-27T10:17:35.386Z</time></trkpt><trkpt lat="44.5703325" lon="15.7212075"><ele>649.0</ele><time>2026-04-27T10:17:36.386Z</time></trkpt><trkpt lat="44.5702148" lon="15.7212956"><ele>649.0</ele><time>2026-04-27T10:17:37.386Z</time></trkpt><trkpt lat="44.5701025" lon="15.7213795"><ele>648.75</ele><time>2026-04-27T10:17:38.386Z</time></trkpt><trkpt lat="44.5699914" lon="15.7214644"><ele>648.5</ele><time>2026-04-27T10:17:39.386Z</time></trkpt><trkpt lat="44.5698753" lon="15.7215484"><ele>648.25</ele><time>2026-04-27T10:17:40.386Z</time></trkpt><trkpt lat="44.5697576" lon="15.7216332"><ele>648.0</ele><time>2026-04-27T10:17:41.386Z</time></trkpt><trkpt lat="44.5696408" lon="15.7217206"><ele>648.0</ele><time>2026-04-27T10:17:42.386Z</time></trkpt><trkpt lat="44.5695268" lon="15.7218102"><ele>648.0</ele><time>2026-04-27T10:17:43.386Z</time></trkpt><trkpt lat="44.5694065" lon="15.7219034"><ele>648.0</ele><time>2026-04-27T10:17:44.387Z</time></trkpt><trkpt lat="44.5692836" lon="15.7219919"><ele>648.0</ele><time>2026-04-27T10:17:45.386Z</time></trkpt><trkpt lat="44.5691611" lon="15.7220856"><ele>648.75</ele><time>2026-04-27T10:17:46.386Z</time></trkpt><trkpt lat="44.5690377" lon="15.7221831"><ele>649.5</ele><time>2026-04-27T10:17:47.386Z</time></trkpt><trkpt lat="44.568915" lon="15.7222873"><ele>650.25</ele><time>2026-04-27T10:17:48.387Z</time></trkpt><trkpt lat="44.5687972" lon="15.7224009"><ele>651.0</ele><time>2026-04-27T10:17:49.386Z</time></trkpt><trkpt lat="44.5686809" lon="15.7225175"><ele>651.0</ele><time>2026-04-27T10:17:50.386Z</time></trkpt><trkpt lat="44.5685648" lon="15.7226407"><ele>651.0</ele><time>2026-04-27T10:17:51.386Z</time></trkpt><trkpt lat="44.5684531" lon="15.7227709"><ele>651.0</ele><time>2026-04-27T10:17:52.387Z</time></trkpt><trkpt lat="44.5683473" lon="15.7229049"><ele>651.0</ele><time>2026-04-27T10:17:53.386Z</time></trkpt><trkpt lat="44.5682416" lon="15.723039"><ele>650.75</ele><time>2026-04-27T10:17:54.386Z</time></trkpt><trkpt lat="44.5681326" lon="15.7231685"><ele>650.5</ele><time>2026-04-27T10:17:55.387Z</time></trkpt><trkpt lat="44.5680337" lon="15.7232962"><ele>650.25</ele><time>2026-04-27T10:17:56.386Z</time></trkpt><trkpt lat="44.5679462" lon="15.7234181"><ele>650.0</ele><time>2026-04-27T10:17:57.386Z</time></trkpt><trkpt lat="44.5678649" lon="15.7235299"><ele>650.2</ele><time>2026-04-27T10:17:58.387Z</time></trkpt><trkpt lat="44.5677895" lon="15.7236346"><ele>650.4</ele><time>2026-04-27T10:17:59.387Z</time></trkpt><trkpt lat="44.5677175" lon="15.7237365"><ele>650.5999999999999</ele><time>2026-04-27T10:18:00.386Z</time></trkpt><trkpt lat="44.5676403" lon="15.7238426"><ele>650.8</ele><time>2026-04-27T10:18:01.387Z</time></trkpt><trkpt lat="44.5675675" lon="15.7239423"><ele>651.0</ele><time>2026-04-27T10:18:02.386Z</time></trkpt><trkpt lat="44.5675003" lon="15.7240329"><ele>651.0</ele><time>2026-04-27T10:18:03.387Z</time></trkpt><trkpt lat="44.5674262" lon="15.7241297"><ele>651.0</ele><time>2026-04-27T10:18:04.386Z</time></trkpt><trkpt lat="44.567357" lon="15.7242241"><ele>651.0</ele><time>2026-04-27T10:18:05.386Z</time></trkpt><trkpt lat="44.5672919" lon="15.7243162"><ele>651.0</ele><time>2026-04-27T10:18:06.386Z</time></trkpt><trkpt lat="44.5672208" lon="15.724415"><ele>651.0</ele><time>2026-04-27T10:18:07.387Z</time></trkpt><trkpt lat="44.5671496" lon="15.7245156"><ele>650.8</ele><time>2026-04-27T10:18:08.386Z</time></trkpt><trkpt lat="44.5670789" lon="15.7246129"><ele>650.5999999999999</ele><time>2026-04-27T10:18:09.386Z</time></trkpt><trkpt lat="44.5669984" lon="15.724715"><ele>650.4</ele><time>2026-04-27T10:18:10.386Z</time></trkpt><trkpt lat="44.5669173" lon="15.7248078"><ele>650.2</ele><time>2026-04-27T10:18:11.386Z</time></trkpt><trkpt lat="44.5668306" lon="15.7249021"><ele>650.0</ele><time>2026-04-27T10:18:12.387Z</time></trkpt><trkpt lat="44.5667379" lon="15.7249945"><ele>650.2</ele><time>2026-04-27T10:18:13.386Z</time></trkpt><trkpt lat="44.5666432" lon="15.7250832"><ele>650.4</ele><time>2026-04-27T10:18:14.386Z</time></trkpt><trkpt lat="44.5665551" lon="15.7251581"><ele>650.5999999999999</ele><time>2026-04-27T10:18:15.386Z</time></trkpt><trkpt lat="44.5664744" lon="15.7252263"><ele>650.8</ele><time>2026-04-27T10:18:16.386Z</time></trkpt><trkpt lat="44.5664028" lon="15.7252985"><ele>651.0</ele><time>2026-04-27T10:18:17.386Z</time></trkpt><trkpt lat="44.5663363" lon="15.7253783"><ele>651.0</ele><time>2026-04-27T10:18:18.386Z</time></trkpt><trkpt lat="44.5662675" lon="15.7254568"><ele>651.0</ele><time>2026-04-27T10:18:19.386Z</time></trkpt><trkpt lat="44.5661925" lon="15.725535"><ele>651.0</ele><time>2026-04-27T10:18:20.387Z</time></trkpt><trkpt lat="44.56612" lon="15.7256137"><ele>651.0</ele><time>2026-04-27T10:18:21.386Z</time></trkpt><trkpt lat="44.5660525" lon="15.7257029"><ele>651.0</ele><time>2026-04-27T10:18:22.387Z</time></trkpt><trkpt lat="44.5659806" lon="15.7257971"><ele>651.5999999999999</ele><time>2026-04-27T10:18:23.386Z</time></trkpt><trkpt lat="44.565913" lon="15.7258896"><ele>652.2</ele><time>2026-04-27T10:18:24.387Z</time></trkpt><trkpt lat="44.5658467" lon="15.725989"><ele>652.8</ele><time>2026-04-27T10:18:25.387Z</time></trkpt><trkpt lat="44.5657763" lon="15.7260835"><ele>653.4000000000001</ele><time>2026-04-27T10:18:26.386Z</time></trkpt><trkpt lat="44.5657043" lon="15.7261701"><ele>654.0</ele><time>2026-04-27T10:18:27.386Z</time></trkpt><trkpt lat="44.5656307" lon="15.7262674"><ele>654.0</ele><time>2026-04-27T10:18:28.386Z</time></trkpt><trkpt lat="44.5655566" lon="15.7263695"><ele>654.0</ele><time>2026-04-27T10:18:29.387Z</time></trkpt><trkpt lat="44.5654854" lon="15.7264679"><ele>654.0</ele><time>2026-04-27T10:18:30.387Z</time></trkpt><trkpt lat="44.5654111" lon="15.7265523"><ele>654.0</ele><time>2026-04-27T10:18:31.387Z</time></trkpt><trkpt lat="44.5653362" lon="15.7266426"><ele>654.0</ele><time>2026-04-27T10:18:32.386Z</time></trkpt><trkpt lat="44.5652563" lon="15.7267317"><ele>654.0</ele><time>2026-04-27T10:18:33.386Z</time></trkpt><trkpt lat="44.5651827" lon="15.7268133"><ele>654.0</ele><time>2026-04-27T10:18:34.386Z</time></trkpt><trkpt lat="44.5651008" lon="15.7268987"><ele>654.0</ele><time>2026-04-27T10:18:35.386Z</time></trkpt><trkpt lat="44.5650202" lon="15.7269718"><ele>654.0</ele><time>2026-04-27T10:18:36.386Z</time></trkpt><trkpt lat="44.5649313" lon="15.7270516"><ele>654.0</ele><time>2026-04-27T10:18:37.386Z</time></trkpt><trkpt lat="44.5648439" lon="15.7271329"><ele>654.2</ele><time>2026-04-27T10:18:38.386Z</time></trkpt><trkpt lat="44.5647547" lon="15.7272286"><ele>654.4000000000001</ele><time>2026-04-27T10:18:39.386Z</time></trkpt><trkpt lat="44.5646656" lon="15.7273222"><ele>654.6</ele><time>2026-04-27T10:18:40.386Z</time></trkpt><trkpt lat="44.5645788" lon="15.7274214"><ele>654.8</ele><time>2026-04-27T10:18:41.386Z</time></trkpt><trkpt lat="44.5645049" lon="15.7275174"><ele>655.0</ele><time>2026-04-27T10:18:42.386Z</time></trkpt><trkpt lat="44.5644421" lon="15.7276104"><ele>655.0</ele><time>2026-04-27T10:18:43.386Z</time></trkpt><trkpt lat="44.5643835" lon="15.7276918"><ele>655.0</ele><time>2026-04-27T10:18:44.386Z</time></trkpt><trkpt lat="44.5643203" lon="15.727769"><ele>655.0</ele><time>2026-04-27T10:18:45.386Z</time></trkpt><trkpt lat="44.5642636" lon="15.7278407"><ele>655.0</ele><time>2026-04-27T10:18:46.386Z</time></trkpt><trkpt lat="44.5641878" lon="15.7279481"><ele>655.0</ele><time>2026-04-27T10:18:48.386Z</time></trkpt><trkpt lat="44.5641636" lon="15.7280418"><ele>655.0</ele><time>2026-04-27T10:18:50.386Z</time></trkpt><trkpt lat="44.5641884" lon="15.7281388"><ele>655.0</ele><time>2026-04-27T10:18:52.386Z</time></trkpt><trkpt lat="44.564256" lon="15.7282795"><ele>655.0</ele><time>2026-04-27T10:18:54.386Z</time></trkpt><trkpt lat="44.564297" lon="15.7283549"><ele>655.0</ele><time>2026-04-27T10:18:55.386Z</time></trkpt><trkpt lat="44.5643469" lon="15.728438"><ele>655.0</ele><time>2026-04-27T10:18:56.386Z</time></trkpt><trkpt lat="44.5644014" lon="15.7285257"><ele>655.0</ele><time>2026-04-27T10:18:57.386Z</time></trkpt><trkpt lat="44.5644663" lon="15.7286142"><ele>655.0</ele><time>2026-04-27T10:18:58.386Z</time></trkpt><trkpt lat="44.5645339" lon="15.7287128"><ele>655.6</ele><time>2026-04-27T10:18:59.386Z</time></trkpt><trkpt lat="44.5646032" lon="15.7288274"><ele>656.2</ele><time>2026-04-27T10:19:00.387Z</time></trkpt><trkpt lat="44.5646726" lon="15.7289387"><ele>656.8</ele><time>2026-04-27T10:19:01.387Z</time></trkpt><trkpt lat="44.5647368" lon="15.7290364"><ele>657.4</ele><time>2026-04-27T10:19:02.387Z</time></trkpt><trkpt lat="44.5648034" lon="15.7291256"><ele>658.0</ele><time>2026-04-27T10:19:03.386Z</time></trkpt><trkpt lat="44.5648613" lon="15.7292241"><ele>658.0</ele><time>2026-04-27T10:19:04.387Z</time></trkpt><trkpt lat="44.5649147" lon="15.729328"><ele>658.0</ele><time>2026-04-27T10:19:05.387Z</time></trkpt><trkpt lat="44.5649759" lon="15.7294444"><ele>658.0</ele><time>2026-04-27T10:19:06.386Z</time></trkpt><trkpt lat="44.5650347" lon="15.7295565"><ele>658.0</ele><time>2026-04-27T10:19:07.386Z</time></trkpt><trkpt lat="44.5650981" lon="15.7296545"><ele>658.0</ele><time>2026-04-27T10:19:08.386Z</time></trkpt><trkpt lat="44.5651675" lon="15.7297625"><ele>657.8</ele><time>2026-04-27T10:19:09.387Z</time></trkpt><trkpt lat="44.5652432" lon="15.7298738"><ele>657.5999999999999</ele><time>2026-04-27T10:19:10.387Z</time></trkpt><trkpt lat="44.5653215" lon="15.7299862"><ele>657.4000000000001</ele><time>2026-04-27T10:19:11.386Z</time></trkpt><trkpt lat="44.5653985" lon="15.7301043"><ele>657.2</ele><time>2026-04-27T10:19:12.386Z</time></trkpt><trkpt lat="44.5654676" lon="15.7302193"><ele>657.0</ele><time>2026-04-27T10:19:13.386Z</time></trkpt><trkpt lat="44.5655415" lon="15.7303302"><ele>657.0</ele><time>2026-04-27T10:19:14.387Z</time></trkpt><trkpt lat="44.5656101" lon="15.7304421"><ele>657.0</ele><time>2026-04-27T10:19:15.387Z</time></trkpt><trkpt lat="44.5656799" lon="15.7305643"><ele>657.0</ele><time>2026-04-27T10:19:16.386Z</time></trkpt><trkpt lat="44.5657498" lon="15.7306815"><ele>657.0</ele><time>2026-04-27T10:19:17.387Z</time></trkpt><trkpt lat="44.5658223" lon="15.7307878"><ele>657.0</ele><time>2026-04-27T10:19:18.386Z</time></trkpt><trkpt lat="44.5658919" lon="15.730892"><ele>657.0</ele><time>2026-04-27T10:19:19.387Z</time></trkpt><trkpt lat="44.5659583" lon="15.7309967"><ele>657.0</ele><time>2026-04-27T10:19:20.386Z</time></trkpt><trkpt lat="44.5660175" lon="15.7311096"><ele>657.0</ele><time>2026-04-27T10:19:21.386Z</time></trkpt><trkpt lat="44.5660721" lon="15.7312288"><ele>657.0</ele><time>2026-04-27T10:19:22.386Z</time></trkpt><trkpt lat="44.5661237" lon="15.7313104"><ele>657.0</ele><time>2026-04-27T10:19:23.386Z</time></trkpt><trkpt lat="44.5661605" lon="15.7313921"><ele>657.0</ele><time>2026-04-27T10:19:24.386Z</time></trkpt><trkpt lat="44.5662004" lon="15.7314702"><ele>657.4000000000001</ele><time>2026-04-27T10:19:25.387Z</time></trkpt><trkpt lat="44.5662488" lon="15.7315667"><ele>657.8000000000001</ele><time>2026-04-27T10:19:26.386Z</time></trkpt><trkpt lat="44.5662918" lon="15.7316605"><ele>658.2</ele><time>2026-04-27T10:19:27.386Z</time></trkpt><trkpt lat="44.5663448" lon="15.7317787"><ele>658.6</ele><time>2026-04-27T10:19:28.386Z</time></trkpt><trkpt lat="44.5663997" lon="15.7319054"><ele>659.0</ele><time>2026-04-27T10:19:29.386Z</time></trkpt><trkpt lat="44.5664612" lon="15.7320431"><ele>659.0</ele><time>2026-04-27T10:19:30.386Z</time></trkpt><trkpt lat="44.5665266" lon="15.7321659"><ele>659.0</ele><time>2026-04-27T10:19:31.386Z</time></trkpt><trkpt lat="44.5666027" lon="15.7322813"><ele>659.0</ele><time>2026-04-27T10:19:32.386Z</time></trkpt><trkpt lat="44.5666818" lon="15.7324054"><ele>659.0</ele><time>2026-04-27T10:19:33.386Z</time></trkpt><trkpt lat="44.566755" lon="15.7325377"><ele>659.0</ele><time>2026-04-27T10:19:34.386Z</time></trkpt><trkpt lat="44.5668326" lon="15.7326778"><ele>659.0</ele><time>2026-04-27T10:19:35.386Z</time></trkpt><trkpt lat="44.5669096" lon="15.7328167"><ele>659.0</ele><time>2026-04-27T10:19:36.386Z</time></trkpt><trkpt lat="44.5669957" lon="15.7329564"><ele>659.0</ele><time>2026-04-27T10:19:37.386Z</time></trkpt><trkpt lat="44.5670879" lon="15.7331006"><ele>658.75</ele><time>2026-04-27T10:19:38.386Z</time></trkpt><trkpt lat="44.567185" lon="15.7332454"><ele>658.5</ele><time>2026-04-27T10:19:39.386Z</time></trkpt><trkpt lat="44.5672754" lon="15.7333847"><ele>658.25</ele><time>2026-04-27T10:19:40.386Z</time></trkpt><trkpt lat="44.5673642" lon="15.7335284"><ele>658.0</ele><time>2026-04-27T10:19:41.386Z</time></trkpt><trkpt lat="44.5674523" lon="15.7336642"><ele>657.75</ele><time>2026-04-27T10:19:42.386Z</time></trkpt><trkpt lat="44.5675382" lon="15.733795"><ele>657.5</ele><time>2026-04-27T10:19:43.386Z</time></trkpt><trkpt lat="44.5676295" lon="15.7339363"><ele>657.25</ele><time>2026-04-27T10:19:44.387Z</time></trkpt><trkpt lat="44.5677206" lon="15.7340742"><ele>657.0</ele><time>2026-04-27T10:19:45.386Z</time></trkpt><trkpt lat="44.5678165" lon="15.7342125"><ele>657.0</ele><time>2026-04-27T10:19:46.386Z</time></trkpt><trkpt lat="44.5679008" lon="15.734356"><ele>657.0</ele><time>2026-04-27T10:19:47.386Z</time></trkpt><trkpt lat="44.567993" lon="15.7345019"><ele>657.0</ele><time>2026-04-27T10:19:48.386Z</time></trkpt><trkpt lat="44.5680803" lon="15.7346469"><ele>657.0</ele><time>2026-04-27T10:19:49.386Z</time></trkpt><trkpt lat="44.5681639" lon="15.7347877"><ele>657.0</ele><time>2026-04-27T10:19:50.386Z</time></trkpt><trkpt lat="44.5682458" lon="15.7349287"><ele>657.0</ele><time>2026-04-27T10:19:51.387Z</time></trkpt><trkpt lat="44.5683311" lon="15.7350645"><ele>657.0</ele><time>2026-04-27T10:19:52.387Z</time></trkpt><trkpt lat="44.5684202" lon="15.7352024"><ele>657.0</ele><time>2026-04-27T10:19:53.387Z</time></trkpt><trkpt lat="44.5685151" lon="15.7353399"><ele>657.0</ele><time>2026-04-27T10:19:54.386Z</time></trkpt><trkpt lat="44.5686113" lon="15.7354818"><ele>657.0</ele><time>2026-04-27T10:19:55.386Z</time></trkpt><trkpt lat="44.568706" lon="15.7356127"><ele>657.0</ele><time>2026-04-27T10:19:56.387Z</time></trkpt><trkpt lat="44.5687935" lon="15.7357478"><ele>657.0</ele><time>2026-04-27T10:19:57.387Z</time></trkpt><trkpt lat="44.5688825" lon="15.7358889"><ele>656.75</ele><time>2026-04-27T10:19:58.387Z</time></trkpt><trkpt lat="44.5689741" lon="15.7360317"><ele>656.5</ele><time>2026-04-27T10:19:59.386Z</time></trkpt><trkpt lat="44.5690637" lon="15.7361739"><ele>656.25</ele><time>2026-04-27T10:20:00.386Z</time></trkpt><trkpt lat="44.5691657" lon="15.736319"><ele>656.0</ele><time>2026-04-27T10:20:01.386Z</time></trkpt><trkpt lat="44.5692622" lon="15.7364723"><ele>656.0</ele><time>2026-04-27T10:20:02.387Z</time></trkpt><trkpt lat="44.5693707" lon="15.7366273"><ele>656.0</ele><time>2026-04-27T10:20:03.386Z</time></trkpt><trkpt lat="44.5694695" lon="15.7367922"><ele>656.0</ele><time>2026-04-27T10:20:04.386Z</time></trkpt><trkpt lat="44.5695691" lon="15.7369559"><ele>655.6666666666666</ele><time>2026-04-27T10:20:05.387Z</time></trkpt><trkpt lat="44.5696794" lon="15.7371228"><ele>655.3333333333334</ele><time>2026-04-27T10:20:06.387Z</time></trkpt><trkpt lat="44.5697814" lon="15.7372925"><ele>655.0</ele><time>2026-04-27T10:20:07.386Z</time></trkpt><trkpt lat="44.569884" lon="15.7374562"><ele>655.0</ele><time>2026-04-27T10:20:08.386Z</time></trkpt><trkpt lat="44.5699895" lon="15.7376165"><ele>655.0</ele><time>2026-04-27T10:20:09.386Z</time></trkpt><trkpt lat="44.570096" lon="15.7377811"><ele>655.0</ele><time>2026-04-27T10:20:10.387Z</time></trkpt><trkpt lat="44.5702035" lon="15.7379453"><ele>655.0</ele><time>2026-04-27T10:20:11.386Z</time></trkpt><trkpt lat="44.5703133" lon="15.7381101"><ele>655.0</ele><time>2026-04-27T10:20:12.386Z</time></trkpt><trkpt lat="44.5704232" lon="15.7382766"><ele>655.0</ele><time>2026-04-27T10:20:13.386Z</time></trkpt><trkpt lat="44.5705307" lon="15.7384396"><ele>654.75</ele><time>2026-04-27T10:20:14.386Z</time></trkpt><trkpt lat="44.5706273" lon="15.7385895"><ele>654.5</ele><time>2026-04-27T10:20:15.387Z</time></trkpt><trkpt lat="44.5707239" lon="15.7387399"><ele>654.25</ele><time>2026-04-27T10:20:16.386Z</time></trkpt><trkpt lat="44.5708203" lon="15.7388798"><ele>654.0</ele><time>2026-04-27T10:20:17.386Z</time></trkpt><trkpt lat="44.5709091" lon="15.7390125"><ele>654.0</ele><time>2026-04-27T10:20:18.386Z</time></trkpt><trkpt lat="44.5709891" lon="15.73914"><ele>654.0</ele><time>2026-04-27T10:20:19.386Z</time></trkpt><trkpt lat="44.5710716" lon="15.7392648"><ele>654.0</ele><time>2026-04-27T10:20:20.386Z</time></trkpt><trkpt lat="44.5711526" lon="15.7393938"><ele>654.0</ele><time>2026-04-27T10:20:21.386Z</time></trkpt><trkpt lat="44.5712459" lon="15.7395245"><ele>654.0</ele><time>2026-04-27T10:20:22.386Z</time></trkpt><trkpt lat="44.5713354" lon="15.7396661"><ele>654.0</ele><time>2026-04-27T10:20:23.386Z</time></trkpt><trkpt lat="44.5714139" lon="15.7398117"><ele>654.0</ele><time>2026-04-27T10:20:24.386Z</time></trkpt><trkpt lat="44.5714906" lon="15.7399555"><ele>654.0</ele><time>2026-04-27T10:20:25.386Z</time></trkpt><trkpt lat="44.5715669" lon="15.740104"><ele>654.25</ele><time>2026-04-27T10:20:26.387Z</time></trkpt><trkpt lat="44.571644" lon="15.7402613"><ele>654.5</ele><time>2026-04-27T10:20:27.387Z</time></trkpt><trkpt lat="44.5717141" lon="15.7404226"><ele>654.75</ele><time>2026-04-27T10:20:28.387Z</time></trkpt><trkpt lat="44.5717825" lon="15.7405946"><ele>655.0</ele><time>2026-04-27T10:20:29.386Z</time></trkpt><trkpt lat="44.5718456" lon="15.7407612"><ele>655.0</ele><time>2026-04-27T10:20:30.386Z</time></trkpt><trkpt lat="44.5719123" lon="15.7409314"><ele>655.0</ele><time>2026-04-27T10:20:31.387Z</time></trkpt><trkpt lat="44.5719773" lon="15.741104"><ele>655.0</ele><time>2026-04-27T10:20:32.386Z</time></trkpt><trkpt lat="44.5720442" lon="15.7412635"><ele>655.0</ele><time>2026-04-27T10:20:33.386Z</time></trkpt><trkpt lat="44.5721135" lon="15.7414289"><ele>655.5</ele><time>2026-04-27T10:20:34.386Z</time></trkpt><trkpt lat="44.5721847" lon="15.7415948"><ele>656.0</ele><time>2026-04-27T10:20:35.386Z</time></trkpt><trkpt lat="44.5722603" lon="15.7417521"><ele>656.5</ele><time>2026-04-27T10:20:36.386Z</time></trkpt><trkpt lat="44.5723379" lon="15.7419119"><ele>657.0</ele><time>2026-04-27T10:20:37.386Z</time></trkpt><trkpt lat="44.572411" lon="15.7420775"><ele>657.25</ele><time>2026-04-27T10:20:38.386Z</time></trkpt><trkpt lat="44.572484" lon="15.7422365"><ele>657.5</ele><time>2026-04-27T10:20:39.386Z</time></trkpt><trkpt lat="44.5725651" lon="15.7423912"><ele>657.75</ele><time>2026-04-27T10:20:40.386Z</time></trkpt><trkpt lat="44.5726467" lon="15.742562"><ele>658.0</ele><time>2026-04-27T10:20:41.387Z</time></trkpt><trkpt lat="44.5727205" lon="15.7427315"><ele>658.0</ele><time>2026-04-27T10:20:42.386Z</time></trkpt><trkpt lat="44.5727929" lon="15.742901"><ele>658.0</ele><time>2026-04-27T10:20:43.386Z</time></trkpt><trkpt lat="44.5728605" lon="15.7430668"><ele>658.0</ele><time>2026-04-27T10:20:44.387Z</time></trkpt><trkpt lat="44.5729322" lon="15.7432202"><ele>658.0</ele><time>2026-04-27T10:20:45.386Z</time></trkpt><trkpt lat="44.5730033" lon="15.7433695"><ele>658.0</ele><time>2026-04-27T10:20:46.387Z</time></trkpt><trkpt lat="44.5730598" lon="15.7435151"><ele>658.0</ele><time>2026-04-27T10:20:47.387Z</time></trkpt><trkpt lat="44.5731252" lon="15.7436756"><ele>658.0</ele><time>2026-04-27T10:20:48.387Z</time></trkpt><trkpt lat="44.573192" lon="15.7438325"><ele>658.0</ele><time>2026-04-27T10:20:49.386Z</time></trkpt><trkpt lat="44.5732668" lon="15.743995"><ele>658.25</ele><time>2026-04-27T10:20:50.387Z</time></trkpt><trkpt lat="44.5733465" lon="15.7441561"><ele>658.5</ele><time>2026-04-27T10:20:51.386Z</time></trkpt><trkpt lat="44.5734232" lon="15.7443079"><ele>658.75</ele><time>2026-04-27T10:20:52.387Z</time></trkpt><trkpt lat="44.5734937" lon="15.7444659"><ele>659.0</ele><time>2026-04-27T10:20:53.386Z</time></trkpt><trkpt lat="44.5735684" lon="15.7446267"><ele>659.0</ele><time>2026-04-27T10:20:54.386Z</time></trkpt><trkpt lat="44.5736539" lon="15.7447815"><ele>659.0</ele><time>2026-04-27T10:20:55.386Z</time></trkpt><trkpt lat="44.5737362" lon="15.7449357"><ele>659.0</ele><time>2026-04-27T10:20:56.386Z</time></trkpt><trkpt lat="44.5738182" lon="15.7450859"><ele>659.0</ele><time>2026-04-27T10:20:57.386Z</time></trkpt><trkpt lat="44.5739011" lon="15.7452327"><ele>659.0</ele><time>2026-04-27T10:20:58.387Z</time></trkpt><trkpt lat="44.5739804" lon="15.7453821"><ele>659.0</ele><time>2026-04-27T10:20:59.386Z</time></trkpt><trkpt lat="44.5740715" lon="15.7455341"><ele>659.0</ele><time>2026-04-27T10:21:00.387Z</time></trkpt><trkpt lat="44.5741598" lon="15.7456902"><ele>659.0</ele><time>2026-04-27T10:21:01.387Z</time></trkpt><trkpt lat="44.5742497" lon="15.7458446"><ele>659.0</ele><time>2026-04-27T10:21:02.386Z</time></trkpt><trkpt lat="44.574333" lon="15.7459961"><ele>659.0</ele><time>2026-04-27T10:21:03.386Z</time></trkpt><trkpt lat="44.574419" lon="15.7461555"><ele>659.0</ele><time>2026-04-27T10:21:04.386Z</time></trkpt><trkpt lat="44.5744889" lon="15.7463122"><ele>659.0</ele><time>2026-04-27T10:21:05.386Z</time></trkpt><trkpt lat="44.5745504" lon="15.7464503"><ele>658.8000000000001</ele><time>2026-04-27T10:21:06.386Z</time></trkpt><trkpt lat="44.5746024" lon="15.7465679"><ele>658.6</ele><time>2026-04-27T10:21:07.386Z</time></trkpt><trkpt lat="44.5746573" lon="15.7466859"><ele>658.4</ele><time>2026-04-27T10:21:08.386Z</time></trkpt><trkpt lat="44.5747098" lon="15.746801"><ele>658.2</ele><time>2026-04-27T10:21:09.386Z</time></trkpt><trkpt lat="44.5747555" lon="15.7469164"><ele>658.0</ele><time>2026-04-27T10:21:10.386Z</time></trkpt><trkpt lat="44.5748122" lon="15.7470271"><ele>658.4</ele><time>2026-04-27T10:21:11.386Z</time></trkpt><trkpt lat="44.5748733" lon="15.7471491"><ele>658.8</ele><time>2026-04-27T10:21:12.387Z</time></trkpt><trkpt lat="44.5749271" lon="15.7472758"><ele>659.2</ele><time>2026-04-27T10:21:13.386Z</time></trkpt><trkpt lat="44.5749851" lon="15.7473922"><ele>659.6</ele><time>2026-04-27T10:21:14.386Z</time></trkpt><trkpt lat="44.5750473" lon="15.7475113"><ele>660.0</ele><time>2026-04-27T10:21:15.386Z</time></trkpt><trkpt lat="44.5751169" lon="15.7476294"><ele>660.4</ele><time>2026-04-27T10:21:16.386Z</time></trkpt><trkpt lat="44.5751866" lon="15.7477376"><ele>660.8</ele><time>2026-04-27T10:21:17.386Z</time></trkpt><trkpt lat="44.5752554" lon="15.7478481"><ele>661.2</ele><time>2026-04-27T10:21:18.386Z</time></trkpt><trkpt lat="44.5753238" lon="15.7479495"><ele>661.6</ele><time>2026-04-27T10:21:19.386Z</time></trkpt><trkpt lat="44.5753929" lon="15.748051"><ele>662.0</ele><time>2026-04-27T10:21:20.386Z</time></trkpt><trkpt lat="44.5754564" lon="15.7481518"><ele>662.6</ele><time>2026-04-27T10:21:21.386Z</time></trkpt><trkpt lat="44.575525" lon="15.7482584"><ele>663.2</ele><time>2026-04-27T10:21:22.386Z</time></trkpt><trkpt lat="44.5755852" lon="15.7483683"><ele>663.8</ele><time>2026-04-27T10:21:23.386Z</time></trkpt><trkpt lat="44.5756512" lon="15.7484788"><ele>664.4</ele><time>2026-04-27T10:21:24.386Z</time></trkpt><trkpt lat="44.5757114" lon="15.7485761"><ele>665.0</ele><time>2026-04-27T10:21:25.386Z</time></trkpt><trkpt lat="44.5757699" lon="15.7486642"><ele>666.2</ele><time>2026-04-27T10:21:26.387Z</time></trkpt><trkpt lat="44.5758154" lon="15.7487348"><ele>667.4</ele><time>2026-04-27T10:21:27.387Z</time></trkpt><trkpt lat="44.5758904" lon="15.748835"><ele>668.5999999999999</ele><time>2026-04-27T10:21:29.386Z</time></trkpt><trkpt lat="44.575938" lon="15.7489035"><ele>669.8</ele><time>2026-04-27T10:21:32.386Z</time></trkpt><trkpt lat="44.5760131" lon="15.7489063"><ele>671.0</ele><time>2026-04-27T10:23:03.386Z</time></trkpt><trkpt lat="44.5761384" lon="15.7488175"><ele>671.1999999999999</ele><time>2026-04-27T10:23:05.386Z</time></trkpt><trkpt lat="44.5762187" lon="15.74875"><ele>671.4</ele><time>2026-04-27T10:23:06.386Z</time></trkpt><trkpt lat="44.5763016" lon="15.7486581"><ele>671.6</ele><time>2026-04-27T10:23:07.386Z</time></trkpt><trkpt lat="44.5763973" lon="15.7485619"><ele>671.8</ele><time>2026-04-27T10:23:08.387Z</time></trkpt><trkpt lat="44.5764988" lon="15.7484593"><ele>672.0</ele><time>2026-04-27T10:23:09.387Z</time></trkpt><trkpt lat="44.5766086" lon="15.7483529"><ele>670.0</ele><time>2026-04-27T10:23:10.386Z</time></trkpt><trkpt lat="44.5767217" lon="15.748246"><ele>668.0</ele><time>2026-04-27T10:23:11.386Z</time></trkpt><trkpt lat="44.5768337" lon="15.7481301"><ele>666.0</ele><time>2026-04-27T10:23:12.387Z</time></trkpt><trkpt lat="44.5769553" lon="15.7480014"><ele>664.0</ele><time>2026-04-27T10:23:13.386Z</time></trkpt><trkpt lat="44.5770791" lon="15.7478716"><ele>664.0</ele><time>2026-04-27T10:23:14.386Z</time></trkpt><trkpt lat="44.5772097" lon="15.7477274"><ele>664.0</ele><time>2026-04-27T10:23:15.386Z</time></trkpt><trkpt lat="44.5773364" lon="15.7475784"><ele>664.0</ele><time>2026-04-27T10:23:16.387Z</time></trkpt><trkpt lat="44.5774651" lon="15.7474148"><ele>663.0</ele><time>2026-04-27T10:23:17.387Z</time></trkpt><trkpt lat="44.5775878" lon="15.7472428"><ele>662.0</ele><time>2026-04-27T10:23:18.386Z</time></trkpt><trkpt lat="44.5777111" lon="15.7470677"><ele>661.0</ele><time>2026-04-27T10:23:19.386Z</time></trkpt><trkpt lat="44.5778328" lon="15.7468982"><ele>661.0</ele><time>2026-04-27T10:23:20.386Z</time></trkpt><trkpt lat="44.5779521" lon="15.7467254"><ele>661.0</ele><time>2026-04-27T10:23:21.387Z</time></trkpt><trkpt lat="44.5780739" lon="15.7465589"><ele>661.0</ele><time>2026-04-27T10:23:22.386Z</time></trkpt><trkpt lat="44.5781965" lon="15.7463892"><ele>661.0</ele><time>2026-04-27T10:23:23.387Z</time></trkpt><trkpt lat="44.5783104" lon="15.7462377"><ele>661.0</ele><time>2026-04-27T10:23:24.386Z</time></trkpt><trkpt lat="44.5784014" lon="15.7461189"><ele>661.0</ele><time>2026-04-27T10:23:25.386Z</time></trkpt><trkpt lat="44.5784738" lon="15.7460279"><ele>661.0</ele><time>2026-04-27T10:23:26.386Z</time></trkpt><trkpt lat="44.5785578" lon="15.7459576"><ele>661.0</ele><time>2026-04-27T10:23:28.387Z</time></trkpt><trkpt lat="44.578619" lon="15.7460022"><ele>661.0</ele><time>2026-04-27T10:23:31.387Z</time></trkpt><trkpt lat="44.5786618" lon="15.7461329"><ele>661.0</ele><time>2026-04-27T10:23:33.386Z</time></trkpt><trkpt lat="44.5786987" lon="15.7462272"><ele>661.0</ele><time>2026-04-27T10:23:34.386Z</time></trkpt><trkpt lat="44.5787476" lon="15.746341"><ele>661.0</ele><time>2026-04-27T10:23:35.386Z</time></trkpt><trkpt lat="44.5788033" lon="15.746469"><ele>661.25</ele><time>2026-04-27T10:23:36.386Z</time></trkpt><trkpt lat="44.5788634" lon="15.746607"><ele>661.5</ele><time>2026-04-27T10:23:37.387Z</time></trkpt><trkpt lat="44.5789203" lon="15.7467372"><ele>661.75</ele><time>2026-04-27T10:23:38.387Z</time></trkpt><trkpt lat="44.5789827" lon="15.7468735"><ele>662.0</ele><time>2026-04-27T10:23:39.386Z</time></trkpt><trkpt lat="44.5790481" lon="15.7470148"><ele>663.0</ele><time>2026-04-27T10:23:40.386Z</time></trkpt><trkpt lat="44.5791208" lon="15.7471605"><ele>664.0</ele><time>2026-04-27T10:23:41.386Z</time></trkpt><trkpt lat="44.5791901" lon="15.7473074"><ele>665.0</ele><time>2026-04-27T10:23:42.386Z</time></trkpt><trkpt lat="44.5792635" lon="15.747462"><ele>666.0</ele><time>2026-04-27T10:23:43.386Z</time></trkpt><trkpt lat="44.5793327" lon="15.7476181"><ele>666.5</ele><time>2026-04-27T10:23:44.387Z</time></trkpt><trkpt lat="44.5794062" lon="15.7477812"><ele>667.0</ele><time>2026-04-27T10:23:45.386Z</time></trkpt><trkpt lat="44.5794878" lon="15.747944"><ele>667.5</ele><time>2026-04-27T10:23:46.386Z</time></trkpt><trkpt lat="44.5795682" lon="15.7481061"><ele>668.0</ele><time>2026-04-27T10:23:47.386Z</time></trkpt><trkpt lat="44.5796521" lon="15.7482728"><ele>669.0</ele><time>2026-04-27T10:23:48.387Z</time></trkpt><trkpt lat="44.5797278" lon="15.7484335"><ele>670.0</ele><time>2026-04-27T10:23:49.386Z</time></trkpt><trkpt lat="44.5798052" lon="15.7485958"><ele>671.0</ele><time>2026-04-27T10:23:50.386Z</time></trkpt><trkpt lat="44.5798793" lon="15.7487539"><ele>672.0</ele><time>2026-04-27T10:23:51.386Z</time></trkpt><trkpt lat="44.5799444" lon="15.7488908"><ele>672.8</ele><time>2026-04-27T10:23:52.386Z</time></trkpt><trkpt lat="44.5800034" lon="15.7490205"><ele>673.6</ele><time>2026-04-27T10:23:53.386Z</time></trkpt><trkpt lat="44.5800599" lon="15.7491412"><ele>674.4</ele><time>2026-04-27T10:23:54.386Z</time></trkpt><trkpt lat="44.5801103" lon="15.7492644"><ele>675.1999999999999</ele><time>2026-04-27T10:23:55.387Z</time></trkpt><trkpt lat="44.5801629" lon="15.7493872"><ele>676.0</ele><time>2026-04-27T10:23:56.387Z</time></trkpt><trkpt lat="44.5802115" lon="15.7495036"><ele>677.6666666666667</ele><time>2026-04-27T10:23:57.387Z</time></trkpt><trkpt lat="44.5802604" lon="15.7496122"><ele>679.3333333333334</ele><time>2026-04-27T10:23:58.387Z</time></trkpt><trkpt lat="44.5803085" lon="15.7497077"><ele>681.0</ele><time>2026-04-27T10:23:59.386Z</time></trkpt><trkpt lat="44.580355" lon="15.7497982"><ele>682.6666666666666</ele><time>2026-04-27T10:24:00.386Z</time></trkpt><trkpt lat="44.5804078" lon="15.7498964"><ele>684.3333333333333</ele><time>2026-04-27T10:24:01.386Z</time></trkpt><trkpt lat="44.5804495" lon="15.7499831"><ele>686.0</ele><time>2026-04-27T10:24:02.386Z</time></trkpt><trkpt lat="44.5804996" lon="15.750095"><ele>686.8</ele><time>2026-04-27T10:24:03.387Z</time></trkpt><trkpt lat="44.5805507" lon="15.750196"><ele>687.5999999999999</ele><time>2026-04-27T10:24:04.387Z</time></trkpt><trkpt lat="44.5806103" lon="15.7503083"><ele>688.4</ele><time>2026-04-27T10:24:05.387Z</time></trkpt><trkpt lat="44.5806651" lon="15.7504204"><ele>689.2</ele><time>2026-04-27T10:24:06.387Z</time></trkpt><trkpt lat="44.5807304" lon="15.7505384"><ele>690.0</ele><time>2026-04-27T10:24:07.386Z</time></trkpt><trkpt lat="44.580785" lon="15.7506597"><ele>690.6666666666666</ele><time>2026-04-27T10:24:08.386Z</time></trkpt><trkpt lat="44.5808383" lon="15.7507532"><ele>691.3333333333334</ele><time>2026-04-27T10:24:09.386Z</time></trkpt><trkpt lat="44.5808886" lon="15.7508319"><ele>692.0</ele><time>2026-04-27T10:24:10.387Z</time></trkpt><trkpt lat="44.5809377" lon="15.7509069"><ele>692.6666666666667</ele><time>2026-04-27T10:24:11.386Z</time></trkpt><trkpt lat="44.5809893" lon="15.7509939"><ele>693.3333333333334</ele><time>2026-04-27T10:24:12.387Z</time></trkpt><trkpt lat="44.5810238" lon="15.7510717"><ele>694.0</ele><time>2026-04-27T10:24:13.386Z</time></trkpt><trkpt lat="44.5810526" lon="15.7511825"><ele>695.3333333333334</ele><time>2026-04-27T10:24:14.386Z</time></trkpt><trkpt lat="44.5810788" lon="15.7513031"><ele>696.6666666666667</ele><time>2026-04-27T10:24:15.386Z</time></trkpt><trkpt lat="44.5811011" lon="15.7514188"><ele>698.0</ele><time>2026-04-27T10:24:16.386Z</time></trkpt><trkpt lat="44.5811142" lon="15.7515377"><ele>699.3333333333334</ele><time>2026-04-27T10:24:17.386Z</time></trkpt><trkpt lat="44.5811265" lon="15.7516557"><ele>700.6666666666666</ele><time>2026-04-27T10:24:18.386Z</time></trkpt><trkpt lat="44.5811291" lon="15.7517637"><ele>702.0</ele><time>2026-04-27T10:24:19.386Z</time></trkpt><trkpt lat="44.5811377" lon="15.7518949"><ele>703.8</ele><time>2026-04-27T10:24:20.386Z</time></trkpt><trkpt lat="44.5811677" lon="15.7520278"><ele>705.6</ele><time>2026-04-27T10:24:21.387Z</time></trkpt><trkpt lat="44.5811927" lon="15.7521534"><ele>707.4</ele><time>2026-04-27T10:24:22.387Z</time></trkpt><trkpt lat="44.581227" lon="15.752299"><ele>709.1999999999999</ele><time>2026-04-27T10:24:23.386Z</time></trkpt><trkpt lat="44.5812482" lon="15.7524431"><ele>711.0</ele><time>2026-04-27T10:24:24.386Z</time></trkpt><trkpt lat="44.5812647" lon="15.7526029"><ele>716.4</ele><time>2026-04-27T10:24:25.386Z</time></trkpt><trkpt lat="44.5812755" lon="15.7527541"><ele>721.8</ele><time>2026-04-27T10:24:26.386Z</time></trkpt><trkpt lat="44.5812813" lon="15.7529135"><ele>727.1999999999999</ele><time>2026-04-27T10:24:27.386Z</time></trkpt><trkpt lat="44.5812815" lon="15.7530676"><ele>732.5999999999999</ele><time>2026-04-27T10:24:28.387Z</time></trkpt><trkpt lat="44.5812584" lon="15.7532147"><ele>738.0</ele><time>2026-04-27T10:24:29.387Z</time></trkpt><trkpt lat="44.5812336" lon="15.7533654"><ele>738.0</ele><time>2026-04-27T10:24:30.386Z</time></trkpt><trkpt lat="44.5812195" lon="15.7535224"><ele>738.0</ele><time>2026-04-27T10:24:31.387Z</time></trkpt><trkpt lat="44.5812028" lon="15.7536809"><ele>738.0</ele><time>2026-04-27T10:24:32.386Z</time></trkpt><trkpt lat="44.5811803" lon="15.7538283"><ele>738.0</ele><time>2026-04-27T10:24:33.387Z</time></trkpt><trkpt lat="44.5811506" lon="15.7539482"><ele>738.0</ele><time>2026-04-27T10:24:34.386Z</time></trkpt><trkpt lat="44.5811242" lon="15.7540635"><ele>737.6666666666666</ele><time>2026-04-27T10:24:35.386Z</time></trkpt><trkpt lat="44.5810958" lon="15.7541471"><ele>737.3333333333334</ele><time>2026-04-27T10:24:36.386Z</time></trkpt><trkpt lat="44.5810586" lon="15.7542191"><ele>737.0</ele><time>2026-04-27T10:24:37.386Z</time></trkpt><trkpt lat="44.580986" lon="15.7542861"><ele>736.6666666666667</ele><time>2026-04-27T10:24:39.386Z</time></trkpt><trkpt lat="44.5809076" lon="15.7542424"><ele>736.3333333333334</ele><time>2026-04-27T10:24:41.386Z</time></trkpt><trkpt lat="44.5808777" lon="15.7541015"><ele>736.0</ele><time>2026-04-27T10:24:43.386Z</time></trkpt><trkpt lat="44.580854" lon="15.7539481"><ele>736.0</ele><time>2026-04-27T10:24:45.386Z</time></trkpt><trkpt lat="44.5807806" lon="15.7538741"><ele>736.0</ele><time>2026-04-27T10:24:47.386Z</time></trkpt><trkpt lat="44.58067" lon="15.7538805"><ele>736.0</ele><time>2026-04-27T10:24:49.387Z</time></trkpt><trkpt lat="44.5806504" lon="15.7540012"><ele>736.0</ele><time>2026-04-27T10:24:52.386Z</time></trkpt><trkpt lat="44.5806898" lon="15.7541154"><ele>736.0</ele><time>2026-04-27T10:24:54.386Z</time></trkpt><trkpt lat="44.5807177" lon="15.7542534"><ele>738.8</ele><time>2026-04-27T10:24:56.386Z</time></trkpt><trkpt lat="44.5807504" lon="15.754427"><ele>741.5999999999999</ele><time>2026-04-27T10:24:58.386Z</time></trkpt><trkpt lat="44.5807739" lon="15.7545394"><ele>744.4</ele><time>2026-04-27T10:24:59.386Z</time></trkpt><trkpt lat="44.5807991" lon="15.7546526"><ele>747.2</ele><time>2026-04-27T10:25:00.386Z</time></trkpt><trkpt lat="44.5808246" lon="15.7547598"><ele>750.0</ele><time>2026-04-27T10:25:01.386Z</time></trkpt><trkpt lat="44.5808569" lon="15.7548752"><ele>750.0</ele><time>2026-04-27T10:25:02.386Z</time></trkpt><trkpt lat="44.5808903" lon="15.7549947"><ele>750.0</ele><time>2026-04-27T10:25:03.386Z</time></trkpt><trkpt lat="44.5809194" lon="15.7551065"><ele>750.0</ele><time>2026-04-27T10:25:04.386Z</time></trkpt><trkpt lat="44.5809474" lon="15.7552328"><ele>750.0</ele><time>2026-04-27T10:25:05.386Z</time></trkpt><trkpt lat="44.580967" lon="15.7553532"><ele>750.0</ele><time>2026-04-27T10:25:06.387Z</time></trkpt><trkpt lat="44.5809796" lon="15.7554675"><ele>750.0</ele><time>2026-04-27T10:25:07.386Z</time></trkpt><trkpt lat="44.5810025" lon="15.7556095"><ele>752.0</ele><time>2026-04-27T10:25:08.386Z</time></trkpt><trkpt lat="44.5810153" lon="15.7557441"><ele>754.0</ele><time>2026-04-27T10:25:09.386Z</time></trkpt><trkpt lat="44.5810151" lon="15.7558777"><ele>756.0</ele><time>2026-04-27T10:25:10.387Z</time></trkpt><trkpt lat="44.5810194" lon="15.7560098"><ele>758.0</ele><time>2026-04-27T10:25:11.386Z</time></trkpt><trkpt lat="44.5810166" lon="15.756158"><ele>760.0</ele><time>2026-04-27T10:25:12.387Z</time></trkpt><trkpt lat="44.5810273" lon="15.7563175"><ele>761.8</ele><time>2026-04-27T10:25:13.387Z</time></trkpt><trkpt lat="44.5810476" lon="15.7564724"><ele>763.6</ele><time>2026-04-27T10:25:14.386Z</time></trkpt><trkpt lat="44.5810721" lon="15.7566289"><ele>765.4000000000001</ele><time>2026-04-27T10:25:15.387Z</time></trkpt><trkpt lat="44.5810817" lon="15.756752"><ele>767.2</ele><time>2026-04-27T10:25:16.387Z</time></trkpt><trkpt lat="44.5810845" lon="15.7568602"><ele>769.0</ele><time>2026-04-27T10:25:17.386Z</time></trkpt><trkpt lat="44.5810715" lon="15.7569516"><ele>771.4999999999999</ele><time>2026-04-27T10:25:18.386Z</time></trkpt><trkpt lat="44.5810626" lon="15.7570476"><ele>774.0</ele><time>2026-04-27T10:25:19.386Z</time></trkpt><trkpt lat="44.5810376" lon="15.7571719"><ele>776.5</ele><time>2026-04-27T10:25:20.386Z</time></trkpt><trkpt lat="44.5810264" lon="15.7573"><ele>779.0</ele><time>2026-04-27T10:25:21.387Z</time></trkpt><trkpt lat="44.5810197" lon="15.7574435"><ele>781.4999999999999</ele><time>2026-04-27T10:25:22.386Z</time></trkpt><trkpt lat="44.5810258" lon="15.7575683"><ele>784.0</ele><time>2026-04-27T10:25:23.386Z</time></trkpt><trkpt lat="44.5810305" lon="15.7577098"><ele>785.0</ele><time>2026-04-27T10:25:24.387Z</time></trkpt><trkpt lat="44.5810372" lon="15.7578554"><ele>786.0</ele><time>2026-04-27T10:25:25.386Z</time></trkpt><trkpt lat="44.5810489" lon="15.7580056"><ele>787.0</ele><time>2026-04-27T10:25:26.387Z</time></trkpt><trkpt lat="44.5810666" lon="15.7581509"><ele>788.0</ele><time>2026-04-27T10:25:27.387Z</time></trkpt><trkpt lat="44.5810818" lon="15.7582785"><ele>789.0</ele><time>2026-04-27T10:25:28.386Z</time></trkpt><trkpt lat="44.5810952" lon="15.7583932"><ele>789.0</ele><time>2026-04-27T10:25:29.387Z</time></trkpt><trkpt lat="44.5811213" lon="15.7585043"><ele>789.0</ele><time>2026-04-27T10:25:30.387Z</time></trkpt><trkpt lat="44.5811461" lon="15.758619"><ele>789.0</ele><time>2026-04-27T10:25:31.387Z</time></trkpt><trkpt lat="44.5812011" lon="15.7587213"><ele>789.0</ele><time>2026-04-27T10:25:32.386Z</time></trkpt><trkpt lat="44.5812522" lon="15.7588337"><ele>789.0</ele><time>2026-04-27T10:25:33.386Z</time></trkpt><trkpt lat="44.5813044" lon="15.7589553"><ele>788.75</ele><time>2026-04-27T10:25:34.387Z</time></trkpt><trkpt lat="44.5813494" lon="15.7590877"><ele>788.5</ele><time>2026-04-27T10:25:35.386Z</time></trkpt><trkpt lat="44.5813959" lon="15.7592454"><ele>788.25</ele><time>2026-04-27T10:25:36.386Z</time></trkpt><trkpt lat="44.5814249" lon="15.7594003"><ele>788.0</ele><time>2026-04-27T10:25:37.386Z</time></trkpt><trkpt lat="44.5814476" lon="15.7595538"><ele>789.0</ele><time>2026-04-27T10:25:38.386Z</time></trkpt><trkpt lat="44.5814794" lon="15.7596993"><ele>790.0</ele><time>2026-04-27T10:25:39.386Z</time></trkpt><trkpt lat="44.5815173" lon="15.7598325"><ele>791.0</ele><time>2026-04-27T10:25:40.386Z</time></trkpt><trkpt lat="44.5815459" lon="15.75998"><ele>792.0</ele><time>2026-04-27T10:25:41.386Z</time></trkpt><trkpt lat="44.5815648" lon="15.7601032"><ele>793.0</ele><time>2026-04-27T10:25:42.386Z</time></trkpt><trkpt lat="44.581595" lon="15.760243"><ele>794.5</ele><time>2026-04-27T10:25:43.386Z</time></trkpt><trkpt lat="44.5816384" lon="15.7604064"><ele>796.0</ele><time>2026-04-27T10:25:44.386Z</time></trkpt><trkpt lat="44.5816842" lon="15.7605713"><ele>797.5</ele><time>2026-04-27T10:25:45.386Z</time></trkpt><trkpt lat="44.5817312" lon="15.7607132"><ele>799.0</ele><time>2026-04-27T10:25:46.387Z</time></trkpt><trkpt lat="44.5817858" lon="15.7608507"><ele>798.9999999999999</ele><time>2026-04-27T10:25:47.386Z</time></trkpt><trkpt lat="44.5818351" lon="15.7609833"><ele>799.0</ele><time>2026-04-27T10:25:48.387Z</time></trkpt><trkpt lat="44.5818737" lon="15.7611006"><ele>799.0</ele><time>2026-04-27T10:25:49.386Z</time></trkpt><trkpt lat="44.5819085" lon="15.7611999"><ele>799.0</ele><time>2026-04-27T10:25:50.386Z</time></trkpt><trkpt lat="44.5819496" lon="15.7612794"><ele>798.9999999999999</ele><time>2026-04-27T10:25:51.386Z</time></trkpt><trkpt lat="44.5819961" lon="15.7613411"><ele>799.0</ele><time>2026-04-27T10:25:52.386Z</time></trkpt><trkpt lat="44.582053" lon="15.7613949"><ele>800.8333333333333</ele><time>2026-04-27T10:25:53.386Z</time></trkpt><trkpt lat="44.5821196" lon="15.7614484"><ele>802.6666666666666</ele><time>2026-04-27T10:25:54.386Z</time></trkpt><trkpt lat="44.5821918" lon="15.7615068"><ele>804.5</ele><time>2026-04-27T10:25:55.386Z</time></trkpt><trkpt lat="44.5822713" lon="15.7615666"><ele>806.3333333333333</ele><time>2026-04-27T10:25:56.386Z</time></trkpt><trkpt lat="44.5823554" lon="15.7616133"><ele>808.1666666666666</ele><time>2026-04-27T10:25:57.387Z</time></trkpt><trkpt lat="44.5824426" lon="15.761658"><ele>810.0</ele><time>2026-04-27T10:25:58.387Z</time></trkpt><trkpt lat="44.5825238" lon="15.7617166"><ele>810.0</ele><time>2026-04-27T10:25:59.386Z</time></trkpt><trkpt lat="44.5826126" lon="15.7617765"><ele>810.0</ele><time>2026-04-27T10:26:00.386Z</time></trkpt><trkpt lat="44.5827003" lon="15.7618547"><ele>810.0</ele><time>2026-04-27T10:26:01.387Z</time></trkpt><trkpt lat="44.5827935" lon="15.7619342"><ele>810.0</ele><time>2026-04-27T10:26:02.386Z</time></trkpt><trkpt lat="44.5829006" lon="15.7620359"><ele>810.0</ele><time>2026-04-27T10:26:03.386Z</time></trkpt><trkpt lat="44.5830089" lon="15.7621398"><ele>812.2</ele><time>2026-04-27T10:26:04.386Z</time></trkpt><trkpt lat="44.5830983" lon="15.7622301"><ele>814.4</ele><time>2026-04-27T10:26:05.386Z</time></trkpt><trkpt lat="44.5831897" lon="15.7623119"><ele>816.5999999999999</ele><time>2026-04-27T10:26:06.386Z</time></trkpt><trkpt lat="44.5832803" lon="15.7623757"><ele>818.8</ele><time>2026-04-27T10:26:07.387Z</time></trkpt><trkpt lat="44.5833681" lon="15.7624275"><ele>821.0</ele><time>2026-04-27T10:26:08.386Z</time></trkpt><trkpt lat="44.5834549" lon="15.7624776"><ele>821.0</ele><time>2026-04-27T10:26:09.386Z</time></trkpt><trkpt lat="44.5835429" lon="15.7625336"><ele>821.0</ele><time>2026-04-27T10:26:10.386Z</time></trkpt><trkpt lat="44.5836215" lon="15.7625973"><ele>821.0</ele><time>2026-04-27T10:26:11.386Z</time></trkpt><trkpt lat="44.5837045" lon="15.7626866"><ele>821.0</ele><time>2026-04-27T10:26:12.387Z</time></trkpt><trkpt lat="44.583784" lon="15.7627833"><ele>821.0</ele><time>2026-04-27T10:26:13.386Z</time></trkpt><trkpt lat="44.5838684" lon="15.7628854"><ele>824.25</ele><time>2026-04-27T10:26:14.387Z</time></trkpt><trkpt lat="44.58396" lon="15.7629847"><ele>827.5</ele><time>2026-04-27T10:26:15.386Z</time></trkpt><trkpt lat="44.5840443" lon="15.7630916"><ele>830.75</ele><time>2026-04-27T10:26:16.386Z</time></trkpt><trkpt lat="44.5841323" lon="15.7632009"><ele>834.0</ele><time>2026-04-27T10:26:17.386Z</time></trkpt><trkpt lat="44.5842109" lon="15.7633083"><ele>834.0</ele><time>2026-04-27T10:26:18.386Z</time></trkpt><trkpt lat="44.5842801" lon="15.7633952"><ele>834.0</ele><time>2026-04-27T10:26:19.386Z</time></trkpt><trkpt lat="44.5843574" lon="15.763465"><ele>834.0</ele><time>2026-04-27T10:26:20.386Z</time></trkpt><trkpt lat="44.5844462" lon="15.7635157"><ele>834.0</ele><time>2026-04-27T10:26:21.387Z</time></trkpt><trkpt lat="44.5845653" lon="15.7635708"><ele>834.0</ele><time>2026-04-27T10:26:22.387Z</time></trkpt><trkpt lat="44.5847059" lon="15.7636325"><ele>834.5</ele><time>2026-04-27T10:26:23.387Z</time></trkpt><trkpt lat="44.5848368" lon="15.7636832"><ele>835.0</ele><time>2026-04-27T10:26:24.386Z</time></trkpt><trkpt lat="44.5849601" lon="15.7637356"><ele>835.5</ele><time>2026-04-27T10:26:25.387Z</time></trkpt><trkpt lat="44.5850678" lon="15.7637761"><ele>836.0</ele><time>2026-04-27T10:26:26.386Z</time></trkpt><trkpt lat="44.5851788" lon="15.7638039"><ele>836.0</ele><time>2026-04-27T10:26:27.386Z</time></trkpt><trkpt lat="44.5852784" lon="15.7638328"><ele>836.0</ele><time>2026-04-27T10:26:28.387Z</time></trkpt><trkpt lat="44.5853723" lon="15.7638738"><ele>836.0</ele><time>2026-04-27T10:26:29.386Z</time></trkpt><trkpt lat="44.5854621" lon="15.7639313"><ele>836.0</ele><time>2026-04-27T10:26:30.387Z</time></trkpt><trkpt lat="44.5855406" lon="15.7640115"><ele>836.0</ele><time>2026-04-27T10:26:31.386Z</time></trkpt><trkpt lat="44.5856167" lon="15.7641099"><ele>838.0</ele><time>2026-04-27T10:26:32.387Z</time></trkpt><trkpt lat="44.5857004" lon="15.7642386"><ele>840.0</ele><time>2026-04-27T10:26:33.387Z</time></trkpt><trkpt lat="44.5857994" lon="15.7643919"><ele>842.0</ele><time>2026-04-27T10:26:34.386Z</time></trkpt><trkpt lat="44.585916" lon="15.7645717"><ele>844.0</ele><time>2026-04-27T10:26:35.387Z</time></trkpt><trkpt lat="44.5860528" lon="15.764771"><ele>844.0</ele><time>2026-04-27T10:26:36.387Z</time></trkpt><trkpt lat="44.5861733" lon="15.7649514"><ele>844.0</ele><time>2026-04-27T10:26:37.386Z</time></trkpt><trkpt lat="44.5862843" lon="15.7651138"><ele>844.0</ele><time>2026-04-27T10:26:38.386Z</time></trkpt><trkpt lat="44.5863814" lon="15.7652639"><ele>846.75</ele><time>2026-04-27T10:26:39.387Z</time></trkpt><trkpt lat="44.5864667" lon="15.7653966"><ele>849.5</ele><time>2026-04-27T10:26:40.386Z</time></trkpt><trkpt lat="44.5865434" lon="15.7655203"><ele>852.25</ele><time>2026-04-27T10:26:41.386Z</time></trkpt><trkpt lat="44.5866146" lon="15.7656451"><ele>855.0</ele><time>2026-04-27T10:26:42.387Z</time></trkpt><trkpt lat="44.5866831" lon="15.7657646"><ele>855.0</ele><time>2026-04-27T10:26:43.386Z</time></trkpt><trkpt lat="44.5867563" lon="15.7658792"><ele>855.0</ele><time>2026-04-27T10:26:44.387Z</time></trkpt><trkpt lat="44.5868355" lon="15.7659849"><ele>855.0</ele><time>2026-04-27T10:26:45.386Z</time></trkpt><trkpt lat="44.586915" lon="15.7660931"><ele>855.0</ele><time>2026-04-27T10:26:46.386Z</time></trkpt><trkpt lat="44.5870005" lon="15.7662029"><ele>855.0</ele><time>2026-04-27T10:26:47.386Z</time></trkpt><trkpt lat="44.5870949" lon="15.7663022"><ele>856.5</ele><time>2026-04-27T10:26:48.386Z</time></trkpt><trkpt lat="44.5871946" lon="15.7663967"><ele>858.0</ele><time>2026-04-27T10:26:49.386Z</time></trkpt><trkpt lat="44.5873064" lon="15.7664866"><ele>859.5</ele><time>2026-04-27T10:26:50.386Z</time></trkpt><trkpt lat="44.5874159" lon="15.7665725"><ele>861.0</ele><time>2026-04-27T10:26:51.386Z</time></trkpt><trkpt lat="44.5875284" lon="15.766666"><ele>861.0</ele><time>2026-04-27T10:26:52.386Z</time></trkpt><trkpt lat="44.5876448" lon="15.7667656"><ele>861.0</ele><time>2026-04-27T10:26:53.386Z</time></trkpt><trkpt lat="44.5877619" lon="15.7668666"><ele>861.0</ele><time>2026-04-27T10:26:54.386Z</time></trkpt><trkpt lat="44.5878836" lon="15.7669785"><ele>861.0</ele><time>2026-04-27T10:26:55.386Z</time></trkpt><trkpt lat="44.5880084" lon="15.7670869"><ele>862.25</ele><time>2026-04-27T10:26:56.386Z</time></trkpt><trkpt lat="44.5881288" lon="15.767191"><ele>863.5</ele><time>2026-04-27T10:26:57.387Z</time></trkpt><trkpt lat="44.5882361" lon="15.7672852"><ele>864.75</ele><time>2026-04-27T10:26:58.386Z</time></trkpt><trkpt lat="44.5883427" lon="15.7673793"><ele>866.0</ele><time>2026-04-27T10:26:59.387Z</time></trkpt><trkpt lat="44.5884561" lon="15.7674703"><ele>866.0</ele><time>2026-04-27T10:27:00.386Z</time></trkpt><trkpt lat="44.5885819" lon="15.7675666"><ele>866.0</ele><time>2026-04-27T10:27:01.386Z</time></trkpt><trkpt lat="44.5887128" lon="15.7676583"><ele>866.0</ele><time>2026-04-27T10:27:02.386Z</time></trkpt><trkpt lat="44.588847" lon="15.7677522"><ele>866.0</ele><time>2026-04-27T10:27:03.386Z</time></trkpt><trkpt lat="44.5889819" lon="15.7678466"><ele>867.75</ele><time>2026-04-27T10:27:04.386Z</time></trkpt><trkpt lat="44.5891163" lon="15.7679441"><ele>869.5</ele><time>2026-04-27T10:27:05.386Z</time></trkpt><trkpt lat="44.5892369" lon="15.7680302"><ele>871.25</ele><time>2026-04-27T10:27:06.386Z</time></trkpt><trkpt lat="44.5893497" lon="15.7681059"><ele>873.0</ele><time>2026-04-27T10:27:07.386Z</time></trkpt><trkpt lat="44.5894553" lon="15.7681836"><ele>876.25</ele><time>2026-04-27T10:27:08.386Z</time></trkpt><trkpt lat="44.5895595" lon="15.7682556"><ele>879.5</ele><time>2026-04-27T10:27:09.386Z</time></trkpt><trkpt lat="44.5896629" lon="15.7683372"><ele>882.75</ele><time>2026-04-27T10:27:10.386Z</time></trkpt><trkpt lat="44.5897634" lon="15.7684248"><ele>886.0</ele><time>2026-04-27T10:27:11.386Z</time></trkpt><trkpt lat="44.5898617" lon="15.7685143"><ele>885.3333333333333</ele><time>2026-04-27T10:27:12.386Z</time></trkpt><trkpt lat="44.5899433" lon="15.7685978"><ele>884.6666666666666</ele><time>2026-04-27T10:27:13.386Z</time></trkpt><trkpt lat="44.5900148" lon="15.7686661"><ele>884.0</ele><time>2026-04-27T10:27:14.386Z</time></trkpt><trkpt lat="44.590072" lon="15.7687149"><ele>883.3333333333333</ele><time>2026-04-27T10:27:15.386Z</time></trkpt><trkpt lat="44.59013" lon="15.7687536"><ele>882.6666666666666</ele><time>2026-04-27T10:27:16.386Z</time></trkpt><trkpt lat="44.5902458" lon="15.768766"><ele>882.0</ele><time>2026-04-27T10:27:18.386Z</time></trkpt><trkpt lat="44.5903587" lon="15.7687194"><ele>881.5</ele><time>2026-04-27T10:27:20.386Z</time></trkpt><trkpt lat="44.5904159" lon="15.7686653"><ele>881.0</ele><time>2026-04-27T10:27:21.386Z</time></trkpt><trkpt lat="44.5904725" lon="15.7686031"><ele>880.5</ele><time>2026-04-27T10:27:22.386Z</time></trkpt><trkpt lat="44.5905328" lon="15.7685232"><ele>880.0</ele><time>2026-04-27T10:27:23.386Z</time></trkpt><trkpt lat="44.590598" lon="15.7684424"><ele>879.5</ele><time>2026-04-27T10:27:24.387Z</time></trkpt><trkpt lat="44.590672" lon="15.7683306"><ele>879.0</ele><time>2026-04-27T10:27:25.386Z</time></trkpt><trkpt lat="44.5907427" lon="15.7682349"><ele>880.5</ele><time>2026-04-27T10:27:26.387Z</time></trkpt><trkpt lat="44.5908145" lon="15.7681172"><ele>882.0</ele><time>2026-04-27T10:27:27.387Z</time></trkpt><trkpt lat="44.5909015" lon="15.7679891"><ele>883.5</ele><time>2026-04-27T10:27:28.386Z</time></trkpt><trkpt lat="44.5909794" lon="15.7678654"><ele>885.0</ele><time>2026-04-27T10:27:29.386Z</time></trkpt><trkpt lat="44.5910669" lon="15.7677665"><ele>886.0</ele><time>2026-04-27T10:27:30.387Z</time></trkpt><trkpt lat="44.5911573" lon="15.7676775"><ele>887.0</ele><time>2026-04-27T10:27:31.386Z</time></trkpt><trkpt lat="44.5912666" lon="15.7675848"><ele>888.0</ele><time>2026-04-27T10:27:32.387Z</time></trkpt><trkpt lat="44.5913568" lon="15.7675143"><ele>889.0</ele><time>2026-04-27T10:27:33.387Z</time></trkpt><trkpt lat="44.5914578" lon="15.7674328"><ele>889.0</ele><time>2026-04-27T10:27:34.386Z</time></trkpt><trkpt lat="44.5915567" lon="15.7673427"><ele>889.0</ele><time>2026-04-27T10:27:35.386Z</time></trkpt><trkpt lat="44.5916584" lon="15.7672337"><ele>889.0</ele><time>2026-04-27T10:27:36.387Z</time></trkpt><trkpt lat="44.5917573" lon="15.7671402"><ele>889.0</ele><time>2026-04-27T10:27:37.386Z</time></trkpt><trkpt lat="44.5918444" lon="15.7670645"><ele>889.0</ele><time>2026-04-27T10:27:38.386Z</time></trkpt><trkpt lat="44.5919381" lon="15.7670062"><ele>889.0000000000001</ele><time>2026-04-27T10:27:39.386Z</time></trkpt><trkpt lat="44.5920272" lon="15.7669629"><ele>889.0000000000001</ele><time>2026-04-27T10:27:40.386Z</time></trkpt><trkpt lat="44.5921159" lon="15.7669174"><ele>889.0</ele><time>2026-04-27T10:27:41.386Z</time></trkpt><trkpt lat="44.5922122" lon="15.7668707"><ele>889.0</ele><time>2026-04-27T10:27:42.387Z</time></trkpt><trkpt lat="44.592311" lon="15.7668183"><ele>890.5</ele><time>2026-04-27T10:27:43.386Z</time></trkpt><trkpt lat="44.592417" lon="15.7667593"><ele>892.0</ele><time>2026-04-27T10:27:44.386Z</time></trkpt><trkpt lat="44.5925224" lon="15.7667087"><ele>893.5</ele><time>2026-04-27T10:27:45.387Z</time></trkpt><trkpt lat="44.5926303" lon="15.7666142"><ele>895.0</ele><time>2026-04-27T10:27:46.387Z</time></trkpt><trkpt lat="44.5927395" lon="15.7665616"><ele>893.5</ele><time>2026-04-27T10:27:47.386Z</time></trkpt><trkpt lat="44.5928414" lon="15.7664969"><ele>892.0</ele><time>2026-04-27T10:27:48.386Z</time></trkpt><trkpt lat="44.5929447" lon="15.7664326"><ele>890.5</ele><time>2026-04-27T10:27:49.387Z</time></trkpt><trkpt lat="44.593058" lon="15.766361"><ele>889.0</ele><time>2026-04-27T10:27:50.386Z</time></trkpt><trkpt lat="44.5931717" lon="15.7662921"><ele>889.0</ele><time>2026-04-27T10:27:51.387Z</time></trkpt><trkpt lat="44.5932898" lon="15.7662252"><ele>889.0</ele><time>2026-04-27T10:27:52.386Z</time></trkpt><trkpt lat="44.5934066" lon="15.7661623"><ele>889.0</ele><time>2026-04-27T10:27:53.386Z</time></trkpt><trkpt lat="44.593506" lon="15.7661004"><ele>889.0</ele><time>2026-04-27T10:27:54.386Z</time></trkpt><trkpt lat="44.5936059" lon="15.7660287"><ele>890.0</ele><time>2026-04-27T10:27:55.386Z</time></trkpt><trkpt lat="44.5937064" lon="15.7659525"><ele>891.0</ele><time>2026-04-27T10:27:56.386Z</time></trkpt><trkpt lat="44.5938136" lon="15.7658684"><ele>892.0</ele><time>2026-04-27T10:27:57.386Z</time></trkpt><trkpt lat="44.5939225" lon="15.765791"><ele>893.0</ele><time>2026-04-27T10:27:58.386Z</time></trkpt><trkpt lat="44.5940374" lon="15.7657349"><ele>893.0</ele><time>2026-04-27T10:27:59.386Z</time></trkpt><trkpt lat="44.5941578" lon="15.765682"><ele>893.0</ele><time>2026-04-27T10:28:00.386Z</time></trkpt><trkpt lat="44.5942749" lon="15.7656281"><ele>893.0</ele><time>2026-04-27T10:28:01.387Z</time></trkpt><trkpt lat="44.5943939" lon="15.7655858"><ele>893.0</ele><time>2026-04-27T10:28:02.387Z</time></trkpt><trkpt lat="44.594508" lon="15.7655476"><ele>891.8</ele><time>2026-04-27T10:28:03.387Z</time></trkpt><trkpt lat="44.5946111" lon="15.765502"><ele>890.5999999999999</ele><time>2026-04-27T10:28:04.387Z</time></trkpt><trkpt lat="44.5947054" lon="15.7654596"><ele>889.4000000000001</ele><time>2026-04-27T10:28:05.386Z</time></trkpt><trkpt lat="44.5947866" lon="15.7654031"><ele>888.2</ele><time>2026-04-27T10:28:06.386Z</time></trkpt><trkpt lat="44.5948666" lon="15.7653271"><ele>887.0</ele><time>2026-04-27T10:28:07.387Z</time></trkpt><trkpt lat="44.5949453" lon="15.7652339"><ele>890.75</ele><time>2026-04-27T10:28:08.386Z</time></trkpt><trkpt lat="44.5950199" lon="15.765128"><ele>894.5</ele><time>2026-04-27T10:28:09.386Z</time></trkpt><trkpt lat="44.5951091" lon="15.7649901"><ele>898.25</ele><time>2026-04-27T10:28:10.387Z</time></trkpt><trkpt lat="44.5951957" lon="15.7648577"><ele>902.0</ele><time>2026-04-27T10:28:11.387Z</time></trkpt><trkpt lat="44.5952839" lon="15.7647196"><ele>902.5</ele><time>2026-04-27T10:28:12.386Z</time></trkpt><trkpt lat="44.5953687" lon="15.7646069"><ele>903.0</ele><time>2026-04-27T10:28:13.386Z</time></trkpt><trkpt lat="44.5954767" lon="15.7644998"><ele>903.5</ele><time>2026-04-27T10:28:14.386Z</time></trkpt><trkpt lat="44.5955813" lon="15.7644208"><ele>904.0</ele><time>2026-04-27T10:28:15.387Z</time></trkpt><trkpt lat="44.5956961" lon="15.7643307"><ele>904.0</ele><time>2026-04-27T10:28:16.386Z</time></trkpt><trkpt lat="44.5958091" lon="15.7642351"><ele>904.0</ele><time>2026-04-27T10:28:17.387Z</time></trkpt><trkpt lat="44.5959058" lon="15.7641686"><ele>904.0</ele><time>2026-04-27T10:28:18.386Z</time></trkpt><trkpt lat="44.5960005" lon="15.7641035"><ele>904.0</ele><time>2026-04-27T10:28:19.387Z</time></trkpt><trkpt lat="44.5960943" lon="15.7640188"><ele>904.6</ele><time>2026-04-27T10:28:20.387Z</time></trkpt><trkpt lat="44.5961787" lon="15.7639343"><ele>905.2</ele><time>2026-04-27T10:28:21.386Z</time></trkpt><trkpt lat="44.5962626" lon="15.7638304"><ele>905.8000000000001</ele><time>2026-04-27T10:28:22.387Z</time></trkpt><trkpt lat="44.5963534" lon="15.763721"><ele>906.4000000000001</ele><time>2026-04-27T10:28:23.386Z</time></trkpt><trkpt lat="44.5964343" lon="15.7636245"><ele>907.0</ele><time>2026-04-27T10:28:24.387Z</time></trkpt><trkpt lat="44.5965283" lon="15.7635158"><ele>907.0</ele><time>2026-04-27T10:28:25.386Z</time></trkpt><trkpt lat="44.5966125" lon="15.7634239"><ele>907.0</ele><time>2026-04-27T10:28:26.386Z</time></trkpt><trkpt lat="44.596701" lon="15.7633212"><ele>907.0</ele><time>2026-04-27T10:28:27.386Z</time></trkpt><trkpt lat="44.5967874" lon="15.7632242"><ele>907.0</ele><time>2026-04-27T10:28:28.387Z</time></trkpt><trkpt lat="44.5968923" lon="15.7631112"><ele>907.0</ele><time>2026-04-27T10:28:29.386Z</time></trkpt><trkpt lat="44.5969859" lon="15.763033"><ele>907.0</ele><time>2026-04-27T10:28:30.387Z</time></trkpt><trkpt lat="44.5970837" lon="15.7629463"><ele>907.0</ele><time>2026-04-27T10:28:31.386Z</time></trkpt><trkpt lat="44.5971846" lon="15.7628503"><ele>907.0</ele><time>2026-04-27T10:28:32.386Z</time></trkpt><trkpt lat="44.5972844" lon="15.7627556"><ele>908.8</ele><time>2026-04-27T10:28:33.387Z</time></trkpt><trkpt lat="44.5973804" lon="15.7626755"><ele>910.6</ele><time>2026-04-27T10:28:34.386Z</time></trkpt><trkpt lat="44.5974603" lon="15.7626043"><ele>912.3999999999999</ele><time>2026-04-27T10:28:35.386Z</time></trkpt><trkpt lat="44.5975339" lon="15.7625286"><ele>914.1999999999999</ele><time>2026-04-27T10:28:36.386Z</time></trkpt><trkpt lat="44.5975958" lon="15.7624351"><ele>916.0</ele><time>2026-04-27T10:28:37.386Z</time></trkpt><trkpt lat="44.5976498" lon="15.7623486"><ele>916.0</ele><time>2026-04-27T10:28:38.386Z</time></trkpt><trkpt lat="44.597658" lon="15.7622091"><ele>915.9999999999999</ele><time>2026-04-27T10:28:39.386Z</time></trkpt><trkpt lat="44.5977084" lon="15.7620818"><ele>915.9999999999999</ele><time>2026-04-27T10:28:40.386Z</time></trkpt><trkpt lat="44.597746" lon="15.761953"><ele>916.0</ele><time>2026-04-27T10:28:41.387Z</time></trkpt><trkpt lat="44.5977917" lon="15.7618334"><ele>916.0</ele><time>2026-04-27T10:28:42.386Z</time></trkpt><trkpt lat="44.5978549" lon="15.7617352"><ele>916.8</ele><time>2026-04-27T10:28:43.387Z</time></trkpt><trkpt lat="44.5979403" lon="15.761648"><ele>917.5999999999999</ele><time>2026-04-27T10:28:44.386Z</time></trkpt><trkpt lat="44.598045" lon="15.7615417"><ele>918.4</ele><time>2026-04-27T10:28:45.386Z</time></trkpt><trkpt lat="44.5981447" lon="15.7614534"><ele>919.2</ele><time>2026-04-27T10:28:46.386Z</time></trkpt><trkpt lat="44.5982214" lon="15.7613879"><ele>920.0</ele><time>2026-04-27T10:28:47.386Z</time></trkpt><trkpt lat="44.5982854" lon="15.7613376"><ele>920.0000000000001</ele><time>2026-04-27T10:28:48.386Z</time></trkpt><trkpt lat="44.5983517" lon="15.7612937"><ele>920.0</ele><time>2026-04-27T10:28:49.386Z</time></trkpt><trkpt lat="44.5984379" lon="15.7613622"><ele>920.0</ele><time>2026-04-27T10:28:51.386Z</time></trkpt><trkpt lat="44.5984496" lon="15.7615107"><ele>920.0</ele><time>2026-04-27T10:28:53.386Z</time></trkpt><trkpt lat="44.5984491" lon="15.7616254"><ele>920.0000000000001</ele><time>2026-04-27T10:28:54.387Z</time></trkpt><trkpt lat="44.5984633" lon="15.7617173"><ele>920.0</ele><time>2026-04-27T10:28:55.386Z</time></trkpt><trkpt lat="44.5985396" lon="15.7618592"><ele>917.8</ele><time>2026-04-27T10:28:57.386Z</time></trkpt><trkpt lat="44.5986229" lon="15.7618844"><ele>915.6</ele><time>2026-04-27T10:28:58.386Z</time></trkpt><trkpt lat="44.5987004" lon="15.7619115"><ele>913.4000000000001</ele><time>2026-04-27T10:28:59.386Z</time></trkpt><trkpt lat="44.598804" lon="15.7619371"><ele>911.2</ele><time>2026-04-27T10:29:00.386Z</time></trkpt><trkpt lat="44.5989148" lon="15.7619524"><ele>909.0</ele><time>2026-04-27T10:29:01.386Z</time></trkpt><trkpt lat="44.5990189" lon="15.761965"><ele>908.6666666666666</ele><time>2026-04-27T10:29:02.386Z</time></trkpt><trkpt lat="44.5991178" lon="15.7619726"><ele>908.3333333333333</ele><time>2026-04-27T10:29:03.386Z</time></trkpt><trkpt lat="44.5992111" lon="15.7619705"><ele>908.0</ele><time>2026-04-27T10:29:04.386Z</time></trkpt><trkpt lat="44.5993066" lon="15.7619656"><ele>907.6666666666666</ele><time>2026-04-27T10:29:05.386Z</time></trkpt><trkpt lat="44.5993897" lon="15.7619438"><ele>907.3333333333333</ele><time>2026-04-27T10:29:06.386Z</time></trkpt><trkpt lat="44.5994554" lon="15.7619589"><ele>907.0</ele><time>2026-04-27T10:29:07.386Z</time></trkpt><trkpt lat="44.5995441" lon="15.7620256"><ele>906.9999999999999</ele><time>2026-04-27T10:29:09.386Z</time></trkpt><trkpt lat="44.5995902" lon="15.7621269"><ele>907.0</ele><time>2026-04-27T10:29:11.386Z</time></trkpt><trkpt lat="44.5995934" lon="15.7622281"><ele>907.0</ele><time>2026-04-27T10:29:13.386Z</time></trkpt><trkpt lat="44.5995765" lon="15.7623202"><ele>907.0</ele><time>2026-04-27T10:29:16.386Z</time></trkpt><trkpt lat="44.5995365" lon="15.7624585"><ele>906.9999999999999</ele><time>2026-04-27T10:29:27.387Z</time></trkpt><trkpt lat="44.5994947" lon="15.7625941"><ele>907.0</ele><time>2026-04-27T10:29:29.386Z</time></trkpt><trkpt lat="44.5994967" lon="15.7627435"><ele>908.2</ele><time>2026-04-27T10:29:31.386Z</time></trkpt><trkpt lat="44.5995127" lon="15.7628297"><ele>909.4000000000001</ele><time>2026-04-27T10:29:32.386Z</time></trkpt><trkpt lat="44.5995507" lon="15.7629242"><ele>910.5999999999999</ele><time>2026-04-27T10:29:33.387Z</time></trkpt><trkpt lat="44.5996119" lon="15.7630437"><ele>911.8</ele><time>2026-04-27T10:29:34.387Z</time></trkpt><trkpt lat="44.5996736" lon="15.7631685"><ele>913.0</ele><time>2026-04-27T10:29:35.386Z</time></trkpt><trkpt lat="44.5997329" lon="15.7632844"><ele>913.0</ele><time>2026-04-27T10:29:36.386Z</time></trkpt><trkpt lat="44.5997894" lon="15.7633943"><ele>913.0</ele><time>2026-04-27T10:29:37.386Z</time></trkpt><trkpt lat="44.5998471" lon="15.7634944"><ele>913.0</ele><time>2026-04-27T10:29:38.386Z</time></trkpt><trkpt lat="44.5999045" lon="15.763583"><ele>913.0</ele><time>2026-04-27T10:29:39.386Z</time></trkpt><trkpt lat="44.5999633" lon="15.7636638"><ele>913.0</ele><time>2026-04-27T10:29:40.386Z</time></trkpt><trkpt lat="44.6000359" lon="15.7637511"><ele>913.0</ele><time>2026-04-27T10:29:41.386Z</time></trkpt><trkpt lat="44.6001118" lon="15.7638327"><ele>913.0</ele><time>2026-04-27T10:29:42.387Z</time></trkpt><trkpt lat="44.6001951" lon="15.7639056"><ele>913.0</ele><time>2026-04-27T10:29:43.387Z</time></trkpt><trkpt lat="44.6002845" lon="15.7639628"><ele>913.0</ele><time>2026-04-27T10:29:44.386Z</time></trkpt><trkpt lat="44.6003856" lon="15.7640099"><ele>913.0</ele><time>2026-04-27T10:29:45.386Z</time></trkpt><trkpt lat="44.6004824" lon="15.7640545"><ele>913.0</ele><time>2026-04-27T10:29:46.386Z</time></trkpt><trkpt lat="44.600586" lon="15.764085"><ele>913.0</ele><time>2026-04-27T10:29:47.387Z</time></trkpt><trkpt lat="44.6006919" lon="15.7641088"><ele>913.0</ele><time>2026-04-27T10:29:48.386Z</time></trkpt><trkpt lat="44.6007988" lon="15.7641318"><ele>913.0</ele><time>2026-04-27T10:29:49.386Z</time></trkpt><trkpt lat="44.600908" lon="15.7641514"><ele>913.0</ele><time>2026-04-27T10:29:50.386Z</time></trkpt><trkpt lat="44.6010128" lon="15.7641745"><ele>913.0</ele><time>2026-04-27T10:29:51.386Z</time></trkpt><trkpt lat="44.6011194" lon="15.7641897"><ele>913.0</ele><time>2026-04-27T10:29:52.386Z</time></trkpt><trkpt lat="44.6012438" lon="15.7642123"><ele>913.0</ele><time>2026-04-27T10:29:53.387Z</time></trkpt><trkpt lat="44.6013501" lon="15.7642427"><ele>913.0</ele><time>2026-04-27T10:29:54.387Z</time></trkpt><trkpt lat="44.6014522" lon="15.7642677"><ele>913.0</ele><time>2026-04-27T10:29:55.386Z</time></trkpt><trkpt lat="44.6015446" lon="15.7642739"><ele>913.8</ele><time>2026-04-27T10:29:56.386Z</time></trkpt><trkpt lat="44.6016422" lon="15.7642664"><ele>914.5999999999999</ele><time>2026-04-27T10:29:57.386Z</time></trkpt><trkpt lat="44.6017414" lon="15.7642616"><ele>915.4000000000001</ele><time>2026-04-27T10:29:58.386Z</time></trkpt><trkpt lat="44.6018649" lon="15.76422"><ele>916.2</ele><time>2026-04-27T10:29:59.387Z</time></trkpt><trkpt lat="44.6019717" lon="15.7642117"><ele>917.0</ele><time>2026-04-27T10:30:00.386Z</time></trkpt><trkpt lat="44.6020876" lon="15.7642062"><ele>918.2</ele><time>2026-04-27T10:30:01.386Z</time></trkpt><trkpt lat="44.6022024" lon="15.7642102"><ele>919.4000000000001</ele><time>2026-04-27T10:30:02.387Z</time></trkpt><trkpt lat="44.6023216" lon="15.7642064"><ele>920.5999999999999</ele><time>2026-04-27T10:30:03.386Z</time></trkpt><trkpt lat="44.6024264" lon="15.7641928"><ele>921.8</ele><time>2026-04-27T10:30:04.386Z</time></trkpt><trkpt lat="44.6025292" lon="15.764163"><ele>923.0</ele><time>2026-04-27T10:30:05.386Z</time></trkpt><trkpt lat="44.6026443" lon="15.764116"><ele>923.0</ele><time>2026-04-27T10:30:06.387Z</time></trkpt><trkpt lat="44.6027543" lon="15.764076"><ele>923.0</ele><time>2026-04-27T10:30:07.386Z</time></trkpt><trkpt lat="44.6028723" lon="15.7640482"><ele>923.0</ele><time>2026-04-27T10:30:08.387Z</time></trkpt><trkpt lat="44.6029968" lon="15.76404"><ele>923.0</ele><time>2026-04-27T10:30:09.386Z</time></trkpt><trkpt lat="44.6031291" lon="15.7640441"><ele>922.75</ele><time>2026-04-27T10:30:10.386Z</time></trkpt><trkpt lat="44.6032634" lon="15.7640643"><ele>922.5</ele><time>2026-04-27T10:30:11.387Z</time></trkpt><trkpt lat="44.6033995" lon="15.764077"><ele>922.25</ele><time>2026-04-27T10:30:12.386Z</time></trkpt><trkpt lat="44.6035402" lon="15.7640912"><ele>922.0</ele><time>2026-04-27T10:30:13.386Z</time></trkpt><trkpt lat="44.6036816" lon="15.7641079"><ele>923.75</ele><time>2026-04-27T10:30:14.386Z</time></trkpt><trkpt lat="44.6038096" lon="15.7641154"><ele>925.5</ele><time>2026-04-27T10:30:15.386Z</time></trkpt><trkpt lat="44.6039371" lon="15.7641317"><ele>927.25</ele><time>2026-04-27T10:30:16.386Z</time></trkpt><trkpt lat="44.6040538" lon="15.7641366"><ele>929.0</ele><time>2026-04-27T10:30:17.387Z</time></trkpt><trkpt lat="44.6041701" lon="15.7641315"><ele>929.0</ele><time>2026-04-27T10:30:18.386Z</time></trkpt><trkpt lat="44.6042755" lon="15.764127"><ele>929.0000000000001</ele><time>2026-04-27T10:30:19.386Z</time></trkpt><trkpt lat="44.6043834" lon="15.7641066"><ele>929.0000000000001</ele><time>2026-04-27T10:30:20.387Z</time></trkpt><trkpt lat="44.6044886" lon="15.7640723"><ele>929.0</ele><time>2026-04-27T10:30:21.386Z</time></trkpt><trkpt lat="44.6045936" lon="15.7640104"><ele>929.0</ele><time>2026-04-27T10:30:22.387Z</time></trkpt><trkpt lat="44.6047015" lon="15.7639536"><ele>929.0</ele><time>2026-04-27T10:30:23.387Z</time></trkpt><trkpt lat="44.6048005" lon="15.7638587"><ele>929.0000000000001</ele><time>2026-04-27T10:30:24.386Z</time></trkpt><trkpt lat="44.6048974" lon="15.7637876"><ele>929.0000000000001</ele><time>2026-04-27T10:30:25.386Z</time></trkpt><trkpt lat="44.6049993" lon="15.7637465"><ele>929.0</ele><time>2026-04-27T10:30:26.386Z</time></trkpt><trkpt lat="44.6050958" lon="15.7637116"><ele>929.0</ele><time>2026-04-27T10:30:27.386Z</time></trkpt><trkpt lat="44.6051977" lon="15.763704"><ele>929.0</ele><time>2026-04-27T10:30:28.386Z</time></trkpt><trkpt lat="44.6053236" lon="15.7637228"><ele>929.0</ele><time>2026-04-27T10:30:29.386Z</time></trkpt><trkpt lat="44.6054421" lon="15.7637202"><ele>929.0</ele><time>2026-04-27T10:30:30.386Z</time></trkpt><trkpt lat="44.6055576" lon="15.7637089"><ele>929.0</ele><time>2026-04-27T10:30:31.387Z</time></trkpt><trkpt lat="44.6056729" lon="15.7636856"><ele>928.75</ele><time>2026-04-27T10:30:32.387Z</time></trkpt><trkpt lat="44.6057891" lon="15.7636461"><ele>928.5</ele><time>2026-04-27T10:30:33.386Z</time></trkpt><trkpt lat="44.6059072" lon="15.7635914"><ele>928.25</ele><time>2026-04-27T10:30:34.386Z</time></trkpt><trkpt lat="44.6060151" lon="15.7635231"><ele>928.0</ele><time>2026-04-27T10:30:35.387Z</time></trkpt><trkpt lat="44.6061143" lon="15.7634369"><ele>929.75</ele><time>2026-04-27T10:30:36.386Z</time></trkpt><trkpt lat="44.6062075" lon="15.7633237"><ele>931.5</ele><time>2026-04-27T10:30:37.387Z</time></trkpt><trkpt lat="44.6063079" lon="15.7631797"><ele>933.25</ele><time>2026-04-27T10:30:38.386Z</time></trkpt><trkpt lat="44.60641" lon="15.7630201"><ele>935.0</ele><time>2026-04-27T10:30:39.386Z</time></trkpt><trkpt lat="44.6065289" lon="15.7628643"><ele>935.0</ele><time>2026-04-27T10:30:40.386Z</time></trkpt><trkpt lat="44.6066474" lon="15.7627026"><ele>935.0</ele><time>2026-04-27T10:30:41.387Z</time></trkpt><trkpt lat="44.6067599" lon="15.7625531"><ele>935.0</ele><time>2026-04-27T10:30:42.387Z</time></trkpt><trkpt lat="44.606858" lon="15.7624124"><ele>935.25</ele><time>2026-04-27T10:30:43.386Z</time></trkpt><trkpt lat="44.6069525" lon="15.7622873"><ele>935.5</ele><time>2026-04-27T10:30:44.386Z</time></trkpt><trkpt lat="44.6070409" lon="15.7621712"><ele>935.75</ele><time>2026-04-27T10:30:45.386Z</time></trkpt><trkpt lat="44.6071257" lon="15.7620531"><ele>936.0</ele><time>2026-04-27T10:30:46.387Z</time></trkpt><trkpt lat="44.607205" lon="15.761923"><ele>936.0</ele><time>2026-04-27T10:30:47.386Z</time></trkpt><trkpt lat="44.6072798" lon="15.7617947"><ele>936.0</ele><time>2026-04-27T10:30:48.386Z</time></trkpt><trkpt lat="44.6073622" lon="15.7616882"><ele>936.0</ele><time>2026-04-27T10:30:49.386Z</time></trkpt><trkpt lat="44.6074569" lon="15.7615987"><ele>936.0</ele><time>2026-04-27T10:30:50.386Z</time></trkpt><trkpt lat="44.6075621" lon="15.7615258"><ele>936.0</ele><time>2026-04-27T10:30:51.386Z</time></trkpt><trkpt lat="44.6076713" lon="15.7614644"><ele>935.9999999999999</ele><time>2026-04-27T10:30:52.387Z</time></trkpt><trkpt lat="44.6077802" lon="15.7614078"><ele>935.9999999999999</ele><time>2026-04-27T10:30:53.386Z</time></trkpt><trkpt lat="44.6078859" lon="15.7613777"><ele>936.0</ele><time>2026-04-27T10:30:54.386Z</time></trkpt><trkpt lat="44.6079784" lon="15.7613563"><ele>936.0</ele><time>2026-04-27T10:30:55.387Z</time></trkpt><trkpt lat="44.6080655" lon="15.7613324"><ele>936.0</ele><time>2026-04-27T10:30:56.386Z</time></trkpt><trkpt lat="44.608125" lon="15.76124"><ele>935.9999999999999</ele><time>2026-04-27T10:30:57.386Z</time></trkpt><trkpt lat="44.6081897" lon="15.7611295"><ele>935.9999999999999</ele><time>2026-04-27T10:30:58.386Z</time></trkpt><trkpt lat="44.6082455" lon="15.7610172"><ele>936.0</ele><time>2026-04-27T10:30:59.386Z</time></trkpt><trkpt lat="44.6083008" lon="15.7608811"><ele>936.0</ele><time>2026-04-27T10:31:00.386Z</time></trkpt><trkpt lat="44.6083711" lon="15.7607763"><ele>936.0</ele><time>2026-04-27T10:31:01.387Z</time></trkpt><trkpt lat="44.6084473" lon="15.7606784"><ele>936.0</ele><time>2026-04-27T10:31:02.386Z</time></trkpt><trkpt lat="44.608532" lon="15.7606109"><ele>936.0</ele><time>2026-04-27T10:31:03.386Z</time></trkpt><trkpt lat="44.6086256" lon="15.7605533"><ele>936.0</ele><time>2026-04-27T10:31:04.386Z</time></trkpt><trkpt lat="44.6087634" lon="15.760478"><ele>938.0</ele><time>2026-04-27T10:31:05.386Z</time></trkpt><trkpt lat="44.6089251" lon="15.7604825"><ele>940.0</ele><time>2026-04-27T10:31:06.386Z</time></trkpt><trkpt lat="44.6090684" lon="15.7604632"><ele>942.0</ele><time>2026-04-27T10:31:07.386Z</time></trkpt><trkpt lat="44.6092075" lon="15.7604498"><ele>944.0</ele><time>2026-04-27T10:31:08.387Z</time></trkpt><trkpt lat="44.6093422" lon="15.7604594"><ele>944.0</ele><time>2026-04-27T10:31:09.386Z</time></trkpt><trkpt lat="44.6094688" lon="15.7604745"><ele>944.0</ele><time>2026-04-27T10:31:10.386Z</time></trkpt><trkpt lat="44.6096001" lon="15.7605286"><ele>944.0</ele><time>2026-04-27T10:31:11.387Z</time></trkpt><trkpt lat="44.6097274" lon="15.7605492"><ele>944.0</ele><time>2026-04-27T10:31:12.387Z</time></trkpt><trkpt lat="44.609844" lon="15.760578"><ele>944.2</ele><time>2026-04-27T10:31:13.386Z</time></trkpt><trkpt lat="44.6099661" lon="15.7606012"><ele>944.4000000000001</ele><time>2026-04-27T10:31:14.386Z</time></trkpt><trkpt lat="44.6100748" lon="15.7606327"><ele>944.6</ele><time>2026-04-27T10:31:15.387Z</time></trkpt><trkpt lat="44.6101636" lon="15.7606616"><ele>944.8</ele><time>2026-04-27T10:31:16.387Z</time></trkpt><trkpt lat="44.6102614" lon="15.7607006"><ele>945.0</ele><time>2026-04-27T10:31:17.387Z</time></trkpt><trkpt lat="44.610363" lon="15.7607561"><ele>946.3333333333334</ele><time>2026-04-27T10:31:18.386Z</time></trkpt><trkpt lat="44.6104582" lon="15.7608148"><ele>947.6666666666667</ele><time>2026-04-27T10:31:19.386Z</time></trkpt><trkpt lat="44.6105321" lon="15.7608804"><ele>949.0</ele><time>2026-04-27T10:31:20.387Z</time></trkpt><trkpt lat="44.6105772" lon="15.7609621"><ele>950.3333333333334</ele><time>2026-04-27T10:31:21.387Z</time></trkpt><trkpt lat="44.6106146" lon="15.7610527"><ele>951.6666666666667</ele><time>2026-04-27T10:31:22.386Z</time></trkpt><trkpt lat="44.6106419" lon="15.7611504"><ele>953.0</ele><time>2026-04-27T10:31:23.387Z</time></trkpt><trkpt lat="44.6106566" lon="15.7612641"><ele>953.5000000000001</ele><time>2026-04-27T10:31:24.386Z</time></trkpt><trkpt lat="44.6106951" lon="15.7613452"><ele>954.0</ele><time>2026-04-27T10:31:25.386Z</time></trkpt><trkpt lat="44.6107418" lon="15.7614257"><ele>954.5</ele><time>2026-04-27T10:31:26.386Z</time></trkpt><trkpt lat="44.6108225" lon="15.7614852"><ele>955.0</ele><time>2026-04-27T10:31:27.387Z</time></trkpt><trkpt lat="44.6108859" lon="15.7615459"><ele>955.5000000000001</ele><time>2026-04-27T10:31:28.386Z</time></trkpt><trkpt lat="44.6109716" lon="15.7616067"><ele>956.0</ele><time>2026-04-27T10:31:29.386Z</time></trkpt><trkpt lat="44.6110446" lon="15.7616612"><ele>956.0</ele><time>2026-04-27T10:31:30.386Z</time></trkpt><trkpt lat="44.611115" lon="15.7616827"><ele>955.9999999999999</ele><time>2026-04-27T10:31:31.386Z</time></trkpt><trkpt lat="44.6112109" lon="15.7616924"><ele>955.9999999999999</ele><time>2026-04-27T10:31:32.386Z</time></trkpt><trkpt lat="44.6113104" lon="15.7616839"><ele>956.0</ele><time>2026-04-27T10:31:33.387Z</time></trkpt><trkpt lat="44.6114114" lon="15.7616956"><ele>956.0</ele><time>2026-04-27T10:31:34.386Z</time></trkpt><trkpt lat="44.6115173" lon="15.7617021"><ele>958.25</ele><time>2026-04-27T10:31:35.386Z</time></trkpt><trkpt lat="44.6116318" lon="15.7616933"><ele>960.5</ele><time>2026-04-27T10:31:36.387Z</time></trkpt><trkpt lat="44.6117591" lon="15.7616914"><ele>962.75</ele><time>2026-04-27T10:31:37.387Z</time></trkpt><trkpt lat="44.6118819" lon="15.7616955"><ele>965.0</ele><time>2026-04-27T10:31:38.386Z</time></trkpt><trkpt lat="44.6120034" lon="15.7617067"><ele>967.0</ele><time>2026-04-27T10:31:39.386Z</time></trkpt><trkpt lat="44.6121225" lon="15.7617166"><ele>969.0</ele><time>2026-04-27T10:31:40.386Z</time></trkpt><trkpt lat="44.6122416" lon="15.7617232"><ele>971.0</ele><time>2026-04-27T10:31:41.386Z</time></trkpt><trkpt lat="44.6123545" lon="15.7617031"><ele>973.0</ele><time>2026-04-27T10:31:42.386Z</time></trkpt><trkpt lat="44.6124801" lon="15.7616743"><ele>973.0</ele><time>2026-04-27T10:31:43.387Z</time></trkpt><trkpt lat="44.6126057" lon="15.7616403"><ele>973.0</ele><time>2026-04-27T10:31:44.386Z</time></trkpt><trkpt lat="44.612726" lon="15.7616141"><ele>973.0</ele><time>2026-04-27T10:31:45.386Z</time></trkpt><trkpt lat="44.6128352" lon="15.7615818"><ele>973.0</ele><time>2026-04-27T10:31:46.387Z</time></trkpt><trkpt lat="44.6129381" lon="15.7615487"><ele>973.0</ele><time>2026-04-27T10:31:47.386Z</time></trkpt><trkpt lat="44.61304" lon="15.7615146"><ele>973.0</ele><time>2026-04-27T10:31:48.387Z</time></trkpt><trkpt lat="44.6131328" lon="15.7614643"><ele>973.0</ele><time>2026-04-27T10:31:49.386Z</time></trkpt><trkpt lat="44.6132358" lon="15.7613859"><ele>973.0</ele><time>2026-04-27T10:31:50.387Z</time></trkpt><trkpt lat="44.6133377" lon="15.7613243"><ele>973.0</ele><time>2026-04-27T10:31:51.387Z</time></trkpt><trkpt lat="44.6134397" lon="15.7612487"><ele>973.0</ele><time>2026-04-27T10:31:52.386Z</time></trkpt><trkpt lat="44.6135508" lon="15.7611845"><ele>973.0</ele><time>2026-04-27T10:31:53.386Z</time></trkpt><trkpt lat="44.6136703" lon="15.7611157"><ele>973.0</ele><time>2026-04-27T10:31:54.386Z</time></trkpt><trkpt lat="44.6137765" lon="15.7610399"><ele>973.0</ele><time>2026-04-27T10:31:55.387Z</time></trkpt><trkpt lat="44.6138841" lon="15.7609752"><ele>972.8</ele><time>2026-04-27T10:31:56.386Z</time></trkpt><trkpt lat="44.6139802" lon="15.7609103"><ele>972.5999999999999</ele><time>2026-04-27T10:31:57.386Z</time></trkpt><trkpt lat="44.6140695" lon="15.7608241"><ele>972.4000000000001</ele><time>2026-04-27T10:31:58.386Z</time></trkpt><trkpt lat="44.614142" lon="15.7607289"><ele>972.2</ele><time>2026-04-27T10:31:59.386Z</time></trkpt><trkpt lat="44.6142123" lon="15.7606622"><ele>972.0</ele><time>2026-04-27T10:32:00.386Z</time></trkpt><trkpt lat="44.6142845" lon="15.7605849"><ele>972.0</ele><time>2026-04-27T10:32:01.386Z</time></trkpt><trkpt lat="44.6143454" lon="15.7605532"><ele>972.0</ele><time>2026-04-27T10:32:02.386Z</time></trkpt><trkpt lat="44.6144421" lon="15.7605106"><ele>972.0</ele><time>2026-04-27T10:32:03.387Z</time></trkpt><trkpt lat="44.6145445" lon="15.7604938"><ele>972.0</ele><time>2026-04-27T10:32:04.386Z</time></trkpt><trkpt lat="44.614646" lon="15.7604813"><ele>972.0</ele><time>2026-04-27T10:32:05.387Z</time></trkpt><trkpt lat="44.614747" lon="15.7604646"><ele>971.6666666666666</ele><time>2026-04-27T10:32:06.386Z</time></trkpt><trkpt lat="44.6148329" lon="15.7604559"><ele>971.3333333333333</ele><time>2026-04-27T10:32:07.387Z</time></trkpt><trkpt lat="44.614905" lon="15.760452"><ele>971.0</ele><time>2026-04-27T10:32:08.386Z</time></trkpt><trkpt lat="44.6149689" lon="15.7604803"><ele>970.6666666666666</ele><time>2026-04-27T10:32:09.386Z</time></trkpt><trkpt lat="44.615034" lon="15.7605325"><ele>970.3333333333333</ele><time>2026-04-27T10:32:10.386Z</time></trkpt><trkpt lat="44.6151016" lon="15.7605984"><ele>970.0</ele><time>2026-04-27T10:32:11.386Z</time></trkpt><trkpt lat="44.6151736" lon="15.7606631"><ele>970.0</ele><time>2026-04-27T10:32:12.386Z</time></trkpt><trkpt lat="44.615258" lon="15.7607277"><ele>970.0</ele><time>2026-04-27T10:32:13.386Z</time></trkpt><trkpt lat="44.6153548" lon="15.7608004"><ele>970.0</ele><time>2026-04-27T10:32:14.386Z</time></trkpt><trkpt lat="44.615459" lon="15.7608645"><ele>970.0</ele><time>2026-04-27T10:32:15.386Z</time></trkpt><trkpt lat="44.6155571" lon="15.760939"><ele>970.0</ele><time>2026-04-27T10:32:16.387Z</time></trkpt><trkpt lat="44.6156583" lon="15.761001"><ele>969.4</ele><time>2026-04-27T10:32:17.386Z</time></trkpt><trkpt lat="44.6157515" lon="15.7610846"><ele>968.8</ele><time>2026-04-27T10:32:18.386Z</time></trkpt><trkpt lat="44.6158284" lon="15.76117"><ele>968.2</ele><time>2026-04-27T10:32:19.386Z</time></trkpt><trkpt lat="44.6159015" lon="15.7612513"><ele>967.6</ele><time>2026-04-27T10:32:20.386Z</time></trkpt><trkpt lat="44.6159608" lon="15.7613708"><ele>967.0</ele><time>2026-04-27T10:32:21.386Z</time></trkpt><trkpt lat="44.6160213" lon="15.7614744"><ele>967.0</ele><time>2026-04-27T10:32:22.386Z</time></trkpt><trkpt lat="44.6160943" lon="15.7615818"><ele>967.0</ele><time>2026-04-27T10:32:23.386Z</time></trkpt><trkpt lat="44.6161771" lon="15.761692"><ele>967.0</ele><time>2026-04-27T10:32:24.387Z</time></trkpt><trkpt lat="44.6162665" lon="15.7618026"><ele>967.0</ele><time>2026-04-27T10:32:25.386Z</time></trkpt><trkpt lat="44.6163395" lon="15.7619142"><ele>967.0</ele><time>2026-04-27T10:32:26.386Z</time></trkpt><trkpt lat="44.616418" lon="15.7620162"><ele>966.4000000000001</ele><time>2026-04-27T10:32:27.387Z</time></trkpt><trkpt lat="44.6164637" lon="15.7621567"><ele>965.8000000000001</ele><time>2026-04-27T10:32:28.386Z</time></trkpt><trkpt lat="44.6165174" lon="15.7622685"><ele>965.2</ele><time>2026-04-27T10:32:29.386Z</time></trkpt><trkpt lat="44.6165812" lon="15.7623725"><ele>964.6</ele><time>2026-04-27T10:32:30.386Z</time></trkpt><trkpt lat="44.6166546" lon="15.7624527"><ele>964.0</ele><time>2026-04-27T10:32:31.387Z</time></trkpt><trkpt lat="44.6167247" lon="15.7625102"><ele>964.0</ele><time>2026-04-27T10:32:32.386Z</time></trkpt><trkpt lat="44.6168158" lon="15.7625511"><ele>964.0000000000001</ele><time>2026-04-27T10:32:33.387Z</time></trkpt><trkpt lat="44.6169148" lon="15.7625675"><ele>964.0000000000001</ele><time>2026-04-27T10:32:34.386Z</time></trkpt><trkpt lat="44.6170207" lon="15.7625674"><ele>964.0</ele><time>2026-04-27T10:32:35.386Z</time></trkpt><trkpt lat="44.6171273" lon="15.7625124"><ele>964.0</ele><time>2026-04-27T10:32:36.386Z</time></trkpt><trkpt lat="44.617229" lon="15.7624536"><ele>964.25</ele><time>2026-04-27T10:32:37.387Z</time></trkpt><trkpt lat="44.6173353" lon="15.7623656"><ele>964.5</ele><time>2026-04-27T10:32:38.387Z</time></trkpt><trkpt lat="44.6174481" lon="15.7622634"><ele>964.75</ele><time>2026-04-27T10:32:39.386Z</time></trkpt><trkpt lat="44.6175418" lon="15.7621603"><ele>965.0</ele><time>2026-04-27T10:32:40.387Z</time></trkpt><trkpt lat="44.6176382" lon="15.7620685"><ele>965.0</ele><time>2026-04-27T10:32:41.387Z</time></trkpt><trkpt lat="44.6177271" lon="15.7619839"><ele>965.0</ele><time>2026-04-27T10:32:42.387Z</time></trkpt><trkpt lat="44.6178074" lon="15.761895"><ele>965.0</ele><time>2026-04-27T10:32:43.386Z</time></trkpt><trkpt lat="44.6178765" lon="15.7617954"><ele>965.0</ele><time>2026-04-27T10:32:44.386Z</time></trkpt><trkpt lat="44.6179412" lon="15.7616739"><ele>965.0</ele><time>2026-04-27T10:32:45.387Z</time></trkpt><trkpt lat="44.6180189" lon="15.7615643"><ele>967.4</ele><time>2026-04-27T10:32:46.386Z</time></trkpt><trkpt lat="44.6181001" lon="15.7614714"><ele>969.8</ele><time>2026-04-27T10:32:47.387Z</time></trkpt><trkpt lat="44.6182105" lon="15.761386"><ele>972.2</ele><time>2026-04-27T10:32:48.386Z</time></trkpt><trkpt lat="44.618311" lon="15.7613016"><ele>974.6</ele><time>2026-04-27T10:32:49.386Z</time></trkpt><trkpt lat="44.61839" lon="15.7612274"><ele>977.0</ele><time>2026-04-27T10:32:50.387Z</time></trkpt><trkpt lat="44.6184629" lon="15.7611371"><ele>976.0</ele><time>2026-04-27T10:32:51.386Z</time></trkpt><trkpt lat="44.618531" lon="15.7610313"><ele>975.0</ele><time>2026-04-27T10:32:52.386Z</time></trkpt><trkpt lat="44.6185872" lon="15.7609193"><ele>974.0</ele><time>2026-04-27T10:32:53.386Z</time></trkpt><trkpt lat="44.6186489" lon="15.7608154"><ele>973.0</ele><time>2026-04-27T10:32:54.386Z</time></trkpt><trkpt lat="44.6187153" lon="15.7607317"><ele>972.0</ele><time>2026-04-27T10:32:55.386Z</time></trkpt><trkpt lat="44.6187917" lon="15.7606608"><ele>974.0</ele><time>2026-04-27T10:32:56.386Z</time></trkpt><trkpt lat="44.6188766" lon="15.7606105"><ele>976.0</ele><time>2026-04-27T10:32:57.386Z</time></trkpt><trkpt lat="44.6189742" lon="15.7605965"><ele>978.0</ele><time>2026-04-27T10:32:58.386Z</time></trkpt><trkpt lat="44.6190521" lon="15.7605869"><ele>980.0</ele><time>2026-04-27T10:32:59.386Z</time></trkpt><trkpt lat="44.6191511" lon="15.7606028"><ele>982.0</ele><time>2026-04-27T10:33:00.386Z</time></trkpt><trkpt lat="44.6192419" lon="15.7606064"><ele>981.9999999999999</ele><time>2026-04-27T10:33:01.386Z</time></trkpt><trkpt lat="44.6193394" lon="15.7606349"><ele>982.0</ele><time>2026-04-27T10:33:02.386Z</time></trkpt><trkpt lat="44.6194252" lon="15.7606716"><ele>982.0</ele><time>2026-04-27T10:33:03.386Z</time></trkpt><trkpt lat="44.6194935" lon="15.7607043"><ele>982.0</ele><time>2026-04-27T10:33:04.386Z</time></trkpt><trkpt lat="44.6195534" lon="15.7607566"><ele>981.9999999999999</ele><time>2026-04-27T10:33:05.386Z</time></trkpt><trkpt lat="44.6195951" lon="15.7608235"><ele>982.0</ele><time>2026-04-27T10:33:06.387Z</time></trkpt><trkpt lat="44.6196292" lon="15.760982"><ele>984.4999999999999</ele><time>2026-04-27T10:33:08.386Z</time></trkpt><trkpt lat="44.6196287" lon="15.7610949"><ele>987.0</ele><time>2026-04-27T10:33:09.386Z</time></trkpt><trkpt lat="44.619626" lon="15.761212"><ele>989.5</ele><time>2026-04-27T10:33:10.387Z</time></trkpt><trkpt lat="44.6196209" lon="15.7613485"><ele>992.0</ele><time>2026-04-27T10:33:11.386Z</time></trkpt><trkpt lat="44.6196159" lon="15.7614843"><ele>994.4999999999999</ele><time>2026-04-27T10:33:12.386Z</time></trkpt><trkpt lat="44.6196236" lon="15.7615982"><ele>997.0</ele><time>2026-04-27T10:33:13.387Z</time></trkpt><trkpt lat="44.6196283" lon="15.7617253"><ele>997.0</ele><time>2026-04-27T10:33:14.386Z</time></trkpt><trkpt lat="44.6196513" lon="15.7618365"><ele>997.0</ele><time>2026-04-27T10:33:15.386Z</time></trkpt><trkpt lat="44.6196915" lon="15.7619474"><ele>997.0</ele><time>2026-04-27T10:33:16.386Z</time></trkpt><trkpt lat="44.6197482" lon="15.762065"><ele>997.0</ele><time>2026-04-27T10:33:17.386Z</time></trkpt><trkpt lat="44.6198074" lon="15.7621964"><ele>997.0</ele><time>2026-04-27T10:33:18.386Z</time></trkpt><trkpt lat="44.6198654" lon="15.7623293"><ele>997.75</ele><time>2026-04-27T10:33:19.386Z</time></trkpt><trkpt lat="44.6199324" lon="15.7624701"><ele>998.5</ele><time>2026-04-27T10:33:20.387Z</time></trkpt><trkpt lat="44.6199881" lon="15.7626027"><ele>999.25</ele><time>2026-04-27T10:33:21.386Z</time></trkpt><trkpt lat="44.6200401" lon="15.7627319"><ele>1000.0</ele><time>2026-04-27T10:33:22.387Z</time></trkpt><trkpt lat="44.6200952" lon="15.7628752"><ele>1000.0</ele><time>2026-04-27T10:33:23.386Z</time></trkpt><trkpt lat="44.6201453" lon="15.7630253"><ele>1000.0</ele><time>2026-04-27T10:33:24.387Z</time></trkpt><trkpt lat="44.6201962" lon="15.7631709"><ele>1000.0</ele><time>2026-04-27T10:33:25.386Z</time></trkpt><trkpt lat="44.6202388" lon="15.7633133"><ele>1000.0</ele><time>2026-04-27T10:33:26.386Z</time></trkpt><trkpt lat="44.6202771" lon="15.7634374"><ele>1000.0</ele><time>2026-04-27T10:33:27.387Z</time></trkpt><trkpt lat="44.6203075" lon="15.763565"><ele>1000.6</ele><time>2026-04-27T10:33:28.386Z</time></trkpt><trkpt lat="44.6203265" lon="15.7636911"><ele>1001.2</ele><time>2026-04-27T10:33:29.386Z</time></trkpt><trkpt lat="44.620343" lon="15.763821"><ele>1001.8</ele><time>2026-04-27T10:33:30.386Z</time></trkpt><trkpt lat="44.6203434" lon="15.7639436"><ele>1002.4</ele><time>2026-04-27T10:33:31.387Z</time></trkpt><trkpt lat="44.6203249" lon="15.7640661"><ele>1003.0</ele><time>2026-04-27T10:33:32.386Z</time></trkpt><trkpt lat="44.6202854" lon="15.7641817"><ele>1003.0</ele><time>2026-04-27T10:33:33.386Z</time></trkpt><trkpt lat="44.6202343" lon="15.7643009"><ele>1003.0</ele><time>2026-04-27T10:33:34.386Z</time></trkpt><trkpt lat="44.6201884" lon="15.7644318"><ele>1003.0</ele><time>2026-04-27T10:33:35.386Z</time></trkpt><trkpt lat="44.6201483" lon="15.7645512"><ele>1003.0</ele><time>2026-04-27T10:33:36.387Z</time></trkpt><trkpt lat="44.6201226" lon="15.7646443"><ele>1003.0</ele><time>2026-04-27T10:33:37.387Z</time></trkpt><trkpt lat="44.6201269" lon="15.764782"><ele>1004.4</ele><time>2026-04-27T10:33:39.386Z</time></trkpt><trkpt lat="44.6202014" lon="15.764913"><ele>1005.8</ele><time>2026-04-27T10:33:41.386Z</time></trkpt><trkpt lat="44.6203232" lon="15.7649794"><ele>1007.2</ele><time>2026-04-27T10:33:43.386Z</time></trkpt><trkpt lat="44.6204062" lon="15.7650037"><ele>1008.6</ele><time>2026-04-27T10:33:44.387Z</time></trkpt><trkpt lat="44.6205018" lon="15.7650162"><ele>1010.0</ele><time>2026-04-27T10:33:45.386Z</time></trkpt><trkpt lat="44.6206013" lon="15.7650215"><ele>1010.8333333333334</ele><time>2026-04-27T10:33:46.386Z</time></trkpt><trkpt lat="44.6207025" lon="15.7650237"><ele>1011.6666666666667</ele><time>2026-04-27T10:33:47.387Z</time></trkpt><trkpt lat="44.6207928" lon="15.7650385"><ele>1012.5</ele><time>2026-04-27T10:33:48.386Z</time></trkpt><trkpt lat="44.6208754" lon="15.7650568"><ele>1013.3333333333333</ele><time>2026-04-27T10:33:49.386Z</time></trkpt><trkpt lat="44.6209457" lon="15.765065"><ele>1014.1666666666666</ele><time>2026-04-27T10:33:50.386Z</time></trkpt><trkpt lat="44.6210106" lon="15.7650884"><ele>1015.0</ele><time>2026-04-27T10:33:51.386Z</time></trkpt><trkpt lat="44.621131" lon="15.7651618"><ele>1015.4</ele><time>2026-04-27T10:33:53.386Z</time></trkpt><trkpt lat="44.6211957" lon="15.7652251"><ele>1015.8</ele><time>2026-04-27T10:33:54.386Z</time></trkpt><trkpt lat="44.6212148" lon="15.7653346"><ele>1016.2</ele><time>2026-04-27T10:33:55.387Z</time></trkpt><trkpt lat="44.6212297" lon="15.7655167"><ele>1016.6</ele><time>2026-04-27T10:33:57.386Z</time></trkpt><trkpt lat="44.6212161" lon="15.7656216"><ele>1017.0</ele><time>2026-04-27T10:33:58.387Z</time></trkpt><trkpt lat="44.6211573" lon="15.7657317"><ele>1019.0</ele><time>2026-04-27T10:33:59.386Z</time></trkpt><trkpt lat="44.621118" lon="15.7658558"><ele>1021.0</ele><time>2026-04-27T10:34:00.386Z</time></trkpt><trkpt lat="44.6210296" lon="15.7659816"><ele>1023.0</ele><time>2026-04-27T10:34:01.386Z</time></trkpt><trkpt lat="44.6209518" lon="15.7661116"><ele>1025.0</ele><time>2026-04-27T10:34:02.386Z</time></trkpt><trkpt lat="44.6208847" lon="15.7662334"><ele>1026.0</ele><time>2026-04-27T10:34:03.386Z</time></trkpt><trkpt lat="44.6208233" lon="15.7663533"><ele>1027.0</ele><time>2026-04-27T10:34:04.387Z</time></trkpt><trkpt lat="44.6207598" lon="15.7664772"><ele>1028.0</ele><time>2026-04-27T10:34:05.386Z</time></trkpt><trkpt lat="44.6207016" lon="15.7665837"><ele>1029.0</ele><time>2026-04-27T10:34:06.386Z</time></trkpt><trkpt lat="44.6206327" lon="15.7666984"><ele>1030.0</ele><time>2026-04-27T10:34:07.387Z</time></trkpt><trkpt lat="44.6205673" lon="15.7668191"><ele>1030.0</ele><time>2026-04-27T10:34:08.387Z</time></trkpt><trkpt lat="44.6205059" lon="15.7669359"><ele>1030.0</ele><time>2026-04-27T10:34:09.386Z</time></trkpt><trkpt lat="44.6204532" lon="15.7670648"><ele>1030.0</ele><time>2026-04-27T10:34:10.386Z</time></trkpt><trkpt lat="44.6204042" lon="15.7671852"><ele>1030.0</ele><time>2026-04-27T10:34:11.386Z</time></trkpt><trkpt lat="44.6203566" lon="15.7673003"><ele>1030.0</ele><time>2026-04-27T10:34:12.386Z</time></trkpt><trkpt lat="44.6203068" lon="15.7674124"><ele>1031.6</ele><time>2026-04-27T10:34:13.387Z</time></trkpt><trkpt lat="44.6202626" lon="15.7675408"><ele>1033.2</ele><time>2026-04-27T10:34:14.386Z</time></trkpt><trkpt lat="44.6202202" lon="15.7676553"><ele>1034.8</ele><time>2026-04-27T10:34:15.386Z</time></trkpt><trkpt lat="44.6201703" lon="15.7677668"><ele>1036.4</ele><time>2026-04-27T10:34:16.387Z</time></trkpt><trkpt lat="44.6201254" lon="15.7678913"><ele>1038.0</ele><time>2026-04-27T10:34:17.386Z</time></trkpt><trkpt lat="44.6200982" lon="15.7679843"><ele>1039.0</ele><time>2026-04-27T10:34:18.386Z</time></trkpt><trkpt lat="44.6200594" lon="15.7681059"><ele>1040.0</ele><time>2026-04-27T10:34:19.386Z</time></trkpt><trkpt lat="44.6200203" lon="15.7682235"><ele>1041.0</ele><time>2026-04-27T10:34:20.387Z</time></trkpt><trkpt lat="44.6199806" lon="15.7683319"><ele>1042.0</ele><time>2026-04-27T10:34:21.386Z</time></trkpt><trkpt lat="44.6199679" lon="15.76847"><ele>1043.0</ele><time>2026-04-27T10:34:22.386Z</time></trkpt><trkpt lat="44.6199668" lon="15.7685881"><ele>1044.4</ele><time>2026-04-27T10:34:23.386Z</time></trkpt><trkpt lat="44.6199709" lon="15.768716"><ele>1045.8</ele><time>2026-04-27T10:34:24.386Z</time></trkpt><trkpt lat="44.6199669" lon="15.7688552"><ele>1047.2</ele><time>2026-04-27T10:34:25.386Z</time></trkpt><trkpt lat="44.6199571" lon="15.7689924"><ele>1048.6</ele><time>2026-04-27T10:34:26.387Z</time></trkpt><trkpt lat="44.6199384" lon="15.7691112"><ele>1050.0</ele><time>2026-04-27T10:34:27.386Z</time></trkpt><trkpt lat="44.6199206" lon="15.7692138"><ele>1050.0</ele><time>2026-04-27T10:34:28.386Z</time></trkpt><trkpt lat="44.6198761" lon="15.7693205"><ele>1050.0</ele><time>2026-04-27T10:34:29.386Z</time></trkpt><trkpt lat="44.6198378" lon="15.769439"><ele>1050.0</ele><time>2026-04-27T10:34:30.386Z</time></trkpt><trkpt lat="44.6197718" lon="15.7695175"><ele>1050.0</ele><time>2026-04-27T10:34:31.387Z</time></trkpt><trkpt lat="44.619697" lon="15.7695958"><ele>1050.0</ele><time>2026-04-27T10:34:32.386Z</time></trkpt><trkpt lat="44.6196258" lon="15.7696483"><ele>1050.0</ele><time>2026-04-27T10:34:33.387Z</time></trkpt><trkpt lat="44.6195632" lon="15.769708"><ele>1051.4</ele><time>2026-04-27T10:34:34.386Z</time></trkpt><trkpt lat="44.6195052" lon="15.7698456"><ele>1052.8</ele><time>2026-04-27T10:34:36.386Z</time></trkpt><trkpt lat="44.6194947" lon="15.7699933"><ele>1054.2</ele><time>2026-04-27T10:34:38.386Z</time></trkpt><trkpt lat="44.6195242" lon="15.770121"><ele>1055.6</ele><time>2026-04-27T10:34:39.386Z</time></trkpt><trkpt lat="44.619557" lon="15.770248"><ele>1057.0</ele><time>2026-04-27T10:34:40.386Z</time></trkpt><trkpt lat="44.6195991" lon="15.7703875"><ele>1058.8</ele><time>2026-04-27T10:34:41.387Z</time></trkpt><trkpt lat="44.6196245" lon="15.7705239"><ele>1060.6</ele><time>2026-04-27T10:34:42.386Z</time></trkpt><trkpt lat="44.6196482" lon="15.7706667"><ele>1062.3999999999999</ele><time>2026-04-27T10:34:43.387Z</time></trkpt><trkpt lat="44.6196638" lon="15.770803"><ele>1064.2</ele><time>2026-04-27T10:34:44.386Z</time></trkpt><trkpt lat="44.6196755" lon="15.7709254"><ele>1066.0</ele><time>2026-04-27T10:34:45.386Z</time></trkpt><trkpt lat="44.6196988" lon="15.7710427"><ele>1067.3333333333333</ele><time>2026-04-27T10:34:46.387Z</time></trkpt><trkpt lat="44.6197416" lon="15.7711552"><ele>1068.6666666666665</ele><time>2026-04-27T10:34:47.387Z</time></trkpt><trkpt lat="44.6197701" lon="15.7712692"><ele>1070.0</ele><time>2026-04-27T10:34:48.386Z</time></trkpt><trkpt lat="44.6198064" lon="15.7713633"><ele>1071.3333333333333</ele><time>2026-04-27T10:34:49.386Z</time></trkpt><trkpt lat="44.6198236" lon="15.7714491"><ele>1072.6666666666667</ele><time>2026-04-27T10:34:50.386Z</time></trkpt><trkpt lat="44.6198245" lon="15.7715499"><ele>1074.0</ele><time>2026-04-27T10:34:51.386Z</time></trkpt><trkpt lat="44.6197796" lon="15.7717035"><ele>1074.0</ele><time>2026-04-27T10:34:53.386Z</time></trkpt><trkpt lat="44.6197099" lon="15.7718247"><ele>1074.0</ele><time>2026-04-27T10:34:54.386Z</time></trkpt><trkpt lat="44.6196522" lon="15.7719232"><ele>1074.0</ele><time>2026-04-27T10:34:55.386Z</time></trkpt><trkpt lat="44.6195954" lon="15.772043"><ele>1074.0</ele><time>2026-04-27T10:34:56.386Z</time></trkpt><trkpt lat="44.6195661" lon="15.7721303"><ele>1074.0</ele><time>2026-04-27T10:34:57.387Z</time></trkpt><trkpt lat="44.6195502" lon="15.77222"><ele>1074.0</ele><time>2026-04-27T10:34:58.386Z</time></trkpt><trkpt lat="44.6195592" lon="15.7723236"><ele>1074.5</ele><time>2026-04-27T10:34:59.386Z</time></trkpt><trkpt lat="44.6195687" lon="15.7724504"><ele>1075.0</ele><time>2026-04-27T10:35:00.386Z</time></trkpt><trkpt lat="44.6195911" lon="15.7725591"><ele>1075.5</ele><time>2026-04-27T10:35:01.386Z</time></trkpt><trkpt lat="44.6196058" lon="15.7726672"><ele>1076.0</ele><time>2026-04-27T10:35:02.387Z</time></trkpt><trkpt lat="44.6196058" lon="15.7727906"><ele>1076.5</ele><time>2026-04-27T10:35:03.386Z</time></trkpt><trkpt lat="44.619584" lon="15.7729344"><ele>1077.0</ele><time>2026-04-27T10:35:04.386Z</time></trkpt><trkpt lat="44.6195471" lon="15.7730933"><ele>1077.0</ele><time>2026-04-27T10:35:05.386Z</time></trkpt><trkpt lat="44.6195151" lon="15.7732435"><ele>1077.0</ele><time>2026-04-27T10:35:06.386Z</time></trkpt><trkpt lat="44.6194762" lon="15.7733701"><ele>1077.0</ele><time>2026-04-27T10:35:07.386Z</time></trkpt><trkpt lat="44.6194523" lon="15.7735187"><ele>1077.0</ele><time>2026-04-27T10:35:08.386Z</time></trkpt><trkpt lat="44.6194113" lon="15.7736505"><ele>1077.0</ele><time>2026-04-27T10:35:09.386Z</time></trkpt><trkpt lat="44.6193737" lon="15.7738048"><ele>1083.25</ele><time>2026-04-27T10:35:10.386Z</time></trkpt><trkpt lat="44.6193343" lon="15.7739706"><ele>1089.5</ele><time>2026-04-27T10:35:11.386Z</time></trkpt><trkpt lat="44.6192768" lon="15.7741242"><ele>1095.75</ele><time>2026-04-27T10:35:12.386Z</time></trkpt><trkpt lat="44.6192299" lon="15.7742738"><ele>1102.0</ele><time>2026-04-27T10:35:13.386Z</time></trkpt><trkpt lat="44.6191817" lon="15.7744294"><ele>1102.6</ele><time>2026-04-27T10:35:14.386Z</time></trkpt><trkpt lat="44.6191312" lon="15.7745752"><ele>1103.2</ele><time>2026-04-27T10:35:15.386Z</time></trkpt><trkpt lat="44.6190776" lon="15.774712"><ele>1103.8</ele><time>2026-04-27T10:35:16.386Z</time></trkpt><trkpt lat="44.6190152" lon="15.7748254"><ele>1104.4</ele><time>2026-04-27T10:35:17.386Z</time></trkpt><trkpt lat="44.6189663" lon="15.7749159"><ele>1105.0</ele><time>2026-04-27T10:35:18.387Z</time></trkpt><trkpt lat="44.6189241" lon="15.7750254"><ele>1105.0</ele><time>2026-04-27T10:35:19.386Z</time></trkpt><trkpt lat="44.6188813" lon="15.775122"><ele>1105.0</ele><time>2026-04-27T10:35:20.386Z</time></trkpt><trkpt lat="44.6188759" lon="15.7752787"><ele>1105.0</ele><time>2026-04-27T10:35:21.386Z</time></trkpt><trkpt lat="44.6188621" lon="15.7754092"><ele>1105.0</ele><time>2026-04-27T10:35:22.386Z</time></trkpt><trkpt lat="44.6188394" lon="15.7755607"><ele>1105.0</ele><time>2026-04-27T10:35:23.386Z</time></trkpt><trkpt lat="44.6187995" lon="15.7757287"><ele>1105.4</ele><time>2026-04-27T10:35:24.386Z</time></trkpt><trkpt lat="44.6187633" lon="15.7758741"><ele>1105.8</ele><time>2026-04-27T10:35:25.386Z</time></trkpt><trkpt lat="44.6187192" lon="15.7760204"><ele>1106.2</ele><time>2026-04-27T10:35:26.387Z</time></trkpt><trkpt lat="44.618689" lon="15.7761478"><ele>1106.6</ele><time>2026-04-27T10:35:27.386Z</time></trkpt><trkpt lat="44.618655" lon="15.7762295"><ele>1107.0</ele><time>2026-04-27T10:35:28.386Z</time></trkpt><trkpt lat="44.6186155" lon="15.7763299"><ele>1111.2</ele><time>2026-04-27T10:35:29.386Z</time></trkpt><trkpt lat="44.61856" lon="15.7764183"><ele>1115.4</ele><time>2026-04-27T10:35:30.386Z</time></trkpt><trkpt lat="44.6184996" lon="15.7765092"><ele>1119.6</ele><time>2026-04-27T10:35:31.386Z</time></trkpt><trkpt lat="44.6184321" lon="15.7766191"><ele>1123.8</ele><time>2026-04-27T10:35:32.387Z</time></trkpt><trkpt lat="44.6183715" lon="15.7767159"><ele>1128.0</ele><time>2026-04-27T10:35:33.386Z</time></trkpt><trkpt lat="44.6183197" lon="15.7768257"><ele>1128.1666666666667</ele><time>2026-04-27T10:35:34.386Z</time></trkpt><trkpt lat="44.6182748" lon="15.7769314"><ele>1128.3333333333333</ele><time>2026-04-27T10:35:35.386Z</time></trkpt><trkpt lat="44.6182543" lon="15.7770314"><ele>1128.5</ele><time>2026-04-27T10:35:36.386Z</time></trkpt><trkpt lat="44.6182263" lon="15.7771346"><ele>1128.6666666666665</ele><time>2026-04-27T10:35:37.387Z</time></trkpt><trkpt lat="44.6182207" lon="15.7772384"><ele>1128.8333333333333</ele><time>2026-04-27T10:35:38.387Z</time></trkpt><trkpt lat="44.6182204" lon="15.7773848"><ele>1129.0</ele><time>2026-04-27T10:35:39.386Z</time></trkpt><trkpt lat="44.6182414" lon="15.7775306"><ele>1130.6000000000001</ele><time>2026-04-27T10:35:40.386Z</time></trkpt><trkpt lat="44.6182443" lon="15.7776966"><ele>1132.2</ele><time>2026-04-27T10:35:41.386Z</time></trkpt><trkpt lat="44.6182492" lon="15.7778156"><ele>1133.8000000000002</ele><time>2026-04-27T10:35:42.387Z</time></trkpt><trkpt lat="44.6182712" lon="15.7779415"><ele>1135.4</ele><time>2026-04-27T10:35:43.387Z</time></trkpt><trkpt lat="44.6182982" lon="15.7780577"><ele>1137.0</ele><time>2026-04-27T10:35:44.387Z</time></trkpt><trkpt lat="44.6183561" lon="15.7781483"><ele>1137.0</ele><time>2026-04-27T10:35:45.386Z</time></trkpt><trkpt lat="44.6184125" lon="15.7782511"><ele>1137.0</ele><time>2026-04-27T10:35:46.386Z</time></trkpt><trkpt lat="44.618502" lon="15.7783431"><ele>1137.0</ele><time>2026-04-27T10:35:47.387Z</time></trkpt><trkpt lat="44.6185819" lon="15.7784322"><ele>1137.0</ele><time>2026-04-27T10:35:48.387Z</time></trkpt><trkpt lat="44.6186808" lon="15.7785176"><ele>1137.0</ele><time>2026-04-27T10:35:49.386Z</time></trkpt><trkpt lat="44.6187769" lon="15.7786074"><ele>1137.2</ele><time>2026-04-27T10:35:50.386Z</time></trkpt><trkpt lat="44.6188877" lon="15.7786717"><ele>1137.4</ele><time>2026-04-27T10:35:51.387Z</time></trkpt><trkpt lat="44.6189962" lon="15.7787394"><ele>1137.6</ele><time>2026-04-27T10:35:52.386Z</time></trkpt><trkpt lat="44.6191003" lon="15.7787915"><ele>1137.8</ele><time>2026-04-27T10:35:53.386Z</time></trkpt><trkpt lat="44.619194" lon="15.778819"><ele>1138.0</ele><time>2026-04-27T10:35:54.386Z</time></trkpt><trkpt lat="44.6192793" lon="15.7788184"><ele>1138.0</ele><time>2026-04-27T10:35:55.386Z</time></trkpt><trkpt lat="44.6193693" lon="15.7788142"><ele>1138.0</ele><time>2026-04-27T10:35:56.386Z</time></trkpt><trkpt lat="44.6194566" lon="15.7788143"><ele>1138.0</ele><time>2026-04-27T10:35:57.386Z</time></trkpt><trkpt lat="44.6195252" lon="15.7788372"><ele>1138.0</ele><time>2026-04-27T10:35:58.386Z</time></trkpt><trkpt lat="44.6195829" lon="15.7788809"><ele>1138.0</ele><time>2026-04-27T10:35:59.386Z</time></trkpt><trkpt lat="44.6196325" lon="15.779025"><ele>1138.0</ele><time>2026-04-27T10:36:01.386Z</time></trkpt><trkpt lat="44.6195953" lon="15.7791539"><ele>1136.4</ele><time>2026-04-27T10:36:03.386Z</time></trkpt><trkpt lat="44.6195069" lon="15.7792771"><ele>1134.8</ele><time>2026-04-27T10:36:05.387Z</time></trkpt><trkpt lat="44.6194454" lon="15.779358"><ele>1133.2</ele><time>2026-04-27T10:36:06.387Z</time></trkpt><trkpt lat="44.6193827" lon="15.7794565"><ele>1131.6</ele><time>2026-04-27T10:36:07.386Z</time></trkpt><trkpt lat="44.6193194" lon="15.7795676"><ele>1130.0</ele><time>2026-04-27T10:36:08.386Z</time></trkpt><trkpt lat="44.6192743" lon="15.7796919"><ele>1133.8333333333335</ele><time>2026-04-27T10:36:09.386Z</time></trkpt><trkpt lat="44.619235" lon="15.7798105"><ele>1137.6666666666667</ele><time>2026-04-27T10:36:10.386Z</time></trkpt><trkpt lat="44.6192073" lon="15.779902"><ele>1141.5</ele><time>2026-04-27T10:36:11.387Z</time></trkpt><trkpt lat="44.6192029" lon="15.7800093"><ele>1145.3333333333333</ele><time>2026-04-27T10:36:12.386Z</time></trkpt><trkpt lat="44.6192114" lon="15.7801099"><ele>1149.1666666666665</ele><time>2026-04-27T10:36:13.386Z</time></trkpt><trkpt lat="44.6192307" lon="15.7802107"><ele>1153.0</ele><time>2026-04-27T10:36:14.386Z</time></trkpt><trkpt lat="44.6192728" lon="15.7802942"><ele>1153.1666666666665</ele><time>2026-04-27T10:36:15.387Z</time></trkpt><trkpt lat="44.6193217" lon="15.780366"><ele>1153.3333333333333</ele><time>2026-04-27T10:36:16.386Z</time></trkpt><trkpt lat="44.6193817" lon="15.7804327"><ele>1153.5</ele><time>2026-04-27T10:36:17.386Z</time></trkpt><trkpt lat="44.619446" lon="15.7804955"><ele>1153.6666666666667</ele><time>2026-04-27T10:36:18.387Z</time></trkpt><trkpt lat="44.619522" lon="15.7805405"><ele>1153.8333333333335</ele><time>2026-04-27T10:36:19.386Z</time></trkpt><trkpt lat="44.6196033" lon="15.7806052"><ele>1154.0</ele><time>2026-04-27T10:36:20.387Z</time></trkpt><trkpt lat="44.6196884" lon="15.7806846"><ele>1154.0</ele><time>2026-04-27T10:36:21.386Z</time></trkpt><trkpt lat="44.619764" lon="15.7807818"><ele>1154.0</ele><time>2026-04-27T10:36:22.386Z</time></trkpt><trkpt lat="44.6198528" lon="15.7808712"><ele>1154.0</ele><time>2026-04-27T10:36:23.386Z</time></trkpt><trkpt lat="44.6199317" lon="15.7809612"><ele>1154.0</ele><time>2026-04-27T10:36:24.386Z</time></trkpt><trkpt lat="44.6200155" lon="15.7810325"><ele>1154.0</ele><time>2026-04-27T10:36:25.386Z</time></trkpt><trkpt lat="44.6201069" lon="15.7810996"><ele>1155.6000000000001</ele><time>2026-04-27T10:36:26.387Z</time></trkpt><trkpt lat="44.6201904" lon="15.7811702"><ele>1157.2</ele><time>2026-04-27T10:36:27.386Z</time></trkpt><trkpt lat="44.6202581" lon="15.7812499"><ele>1158.8000000000002</ele><time>2026-04-27T10:36:28.387Z</time></trkpt><trkpt lat="44.6203218" lon="15.7813502"><ele>1160.4</ele><time>2026-04-27T10:36:29.387Z</time></trkpt><trkpt lat="44.620384" lon="15.7814593"><ele>1162.0</ele><time>2026-04-27T10:36:30.387Z</time></trkpt><trkpt lat="44.6204458" lon="15.7815438"><ele>1162.0</ele><time>2026-04-27T10:36:31.386Z</time></trkpt><trkpt lat="44.6205197" lon="15.7816166"><ele>1162.0</ele><time>2026-04-27T10:36:32.386Z</time></trkpt><trkpt lat="44.6206148" lon="15.7816486"><ele>1162.0</ele><time>2026-04-27T10:36:33.386Z</time></trkpt><trkpt lat="44.6207188" lon="15.7816718"><ele>1162.0</ele><time>2026-04-27T10:36:34.386Z</time></trkpt><trkpt lat="44.6208636" lon="15.7816861"><ele>1162.0</ele><time>2026-04-27T10:36:35.386Z</time></trkpt><trkpt lat="44.6209896" lon="15.7816976"><ele>1162.0</ele><time>2026-04-27T10:36:36.387Z</time></trkpt><trkpt lat="44.6211018" lon="15.7817306"><ele>1162.0</ele><time>2026-04-27T10:36:37.386Z</time></trkpt><trkpt lat="44.6212083" lon="15.7817795"><ele>1162.0</ele><time>2026-04-27T10:36:38.386Z</time></trkpt><trkpt lat="44.6213191" lon="15.7818449"><ele>1162.0</ele><time>2026-04-27T10:36:39.386Z</time></trkpt><trkpt lat="44.6214499" lon="15.7819187"><ele>1164.4</ele><time>2026-04-27T10:36:40.386Z</time></trkpt><trkpt lat="44.6215712" lon="15.7819871"><ele>1166.8000000000002</ele><time>2026-04-27T10:36:41.386Z</time></trkpt><trkpt lat="44.6216761" lon="15.7820423"><ele>1169.2</ele><time>2026-04-27T10:36:42.386Z</time></trkpt><trkpt lat="44.6217703" lon="15.7820819"><ele>1171.6000000000001</ele><time>2026-04-27T10:36:43.387Z</time></trkpt><trkpt lat="44.6218596" lon="15.7821049"><ele>1174.0</ele><time>2026-04-27T10:36:44.387Z</time></trkpt><trkpt lat="44.6219563" lon="15.782098"><ele>1175.0</ele><time>2026-04-27T10:36:45.386Z</time></trkpt><trkpt lat="44.6220579" lon="15.7820755"><ele>1176.0</ele><time>2026-04-27T10:36:46.386Z</time></trkpt><trkpt lat="44.622166" lon="15.7820775"><ele>1177.0</ele><time>2026-04-27T10:36:47.386Z</time></trkpt><trkpt lat="44.6222646" lon="15.7820927"><ele>1178.0</ele><time>2026-04-27T10:36:48.386Z</time></trkpt><trkpt lat="44.6223482" lon="15.782102"><ele>1179.0</ele><time>2026-04-27T10:36:49.386Z</time></trkpt><trkpt lat="44.6224188" lon="15.7821222"><ele>1179.0</ele><time>2026-04-27T10:36:50.386Z</time></trkpt><trkpt lat="44.6224965" lon="15.7822182"><ele>1179.0</ele><time>2026-04-27T10:36:52.386Z</time></trkpt><trkpt lat="44.6225239" lon="15.7823106"><ele>1179.0</ele><time>2026-04-27T10:36:53.386Z</time></trkpt><trkpt lat="44.6225361" lon="15.7824101"><ele>1179.0</ele><time>2026-04-27T10:36:54.386Z</time></trkpt><trkpt lat="44.6225379" lon="15.7825102"><ele>1179.0</ele><time>2026-04-27T10:36:55.386Z</time></trkpt><trkpt lat="44.6225276" lon="15.7826292"><ele>1179.0</ele><time>2026-04-27T10:36:56.386Z</time></trkpt><trkpt lat="44.6225054" lon="15.7827443"><ele>1181.0</ele><time>2026-04-27T10:36:57.387Z</time></trkpt><trkpt lat="44.6224624" lon="15.7828405"><ele>1183.0</ele><time>2026-04-27T10:36:58.386Z</time></trkpt><trkpt lat="44.6224149" lon="15.7829339"><ele>1185.0</ele><time>2026-04-27T10:36:59.387Z</time></trkpt><trkpt lat="44.6223565" lon="15.7830293"><ele>1187.0</ele><time>2026-04-27T10:37:00.386Z</time></trkpt><trkpt lat="44.6222967" lon="15.7831443"><ele>1189.0</ele><time>2026-04-27T10:37:01.387Z</time></trkpt><trkpt lat="44.6222356" lon="15.7832606"><ele>1189.0</ele><time>2026-04-27T10:37:02.386Z</time></trkpt><trkpt lat="44.6221452" lon="15.7833741"><ele>1189.0</ele><time>2026-04-27T10:37:03.386Z</time></trkpt><trkpt lat="44.622061" lon="15.7834784"><ele>1189.0</ele><time>2026-04-27T10:37:04.386Z</time></trkpt><trkpt lat="44.6219494" lon="15.7835738"><ele>1189.0</ele><time>2026-04-27T10:37:05.386Z</time></trkpt><trkpt lat="44.6218059" lon="15.7836893"><ele>1190.25</ele><time>2026-04-27T10:37:06.386Z</time></trkpt><trkpt lat="44.6216658" lon="15.7838117"><ele>1191.5</ele><time>2026-04-27T10:37:07.386Z</time></trkpt><trkpt lat="44.6215391" lon="15.783931"><ele>1192.75</ele><time>2026-04-27T10:37:08.386Z</time></trkpt><trkpt lat="44.6214309" lon="15.7840312"><ele>1194.0</ele><time>2026-04-27T10:37:09.386Z</time></trkpt><trkpt lat="44.6213349" lon="15.7841059"><ele>1194.0</ele><time>2026-04-27T10:37:10.386Z</time></trkpt><trkpt lat="44.6212539" lon="15.7841609"><ele>1194.0</ele><time>2026-04-27T10:37:11.386Z</time></trkpt><trkpt lat="44.621187" lon="15.7842107"><ele>1194.0</ele><time>2026-04-27T10:37:12.387Z</time></trkpt><trkpt lat="44.6211279" lon="15.7842657"><ele>1194.0</ele><time>2026-04-27T10:37:13.386Z</time></trkpt><trkpt lat="44.6210826" lon="15.78434"><ele>1194.0</ele><time>2026-04-27T10:37:14.386Z</time></trkpt><trkpt lat="44.6210429" lon="15.7844389"><ele>1194.0</ele><time>2026-04-27T10:37:15.386Z</time></trkpt><trkpt lat="44.6209939" lon="15.7845634"><ele>1195.0</ele><time>2026-04-27T10:37:16.387Z</time></trkpt><trkpt lat="44.6209335" lon="15.7846933"><ele>1196.0</ele><time>2026-04-27T10:37:17.386Z</time></trkpt><trkpt lat="44.6208553" lon="15.7848162"><ele>1197.0</ele><time>2026-04-27T10:37:18.386Z</time></trkpt><trkpt lat="44.6207591" lon="15.7849431"><ele>1198.0</ele><time>2026-04-27T10:37:19.386Z</time></trkpt><trkpt lat="44.620662" lon="15.7850529"><ele>1198.0</ele><time>2026-04-27T10:37:20.386Z</time></trkpt><trkpt lat="44.6205803" lon="15.785139"><ele>1198.0</ele><time>2026-04-27T10:37:21.386Z</time></trkpt><trkpt lat="44.6205196" lon="15.7852199"><ele>1198.0</ele><time>2026-04-27T10:37:22.387Z</time></trkpt><trkpt lat="44.6204845" lon="15.7853017"><ele>1198.0</ele><time>2026-04-27T10:37:23.386Z</time></trkpt><trkpt lat="44.6204891" lon="15.7854854"><ele>1198.0</ele><time>2026-04-27T10:37:25.387Z</time></trkpt><trkpt lat="44.6205347" lon="15.7856082"><ele>1198.75</ele><time>2026-04-27T10:37:26.386Z</time></trkpt><trkpt lat="44.6206031" lon="15.7857557"><ele>1199.5</ele><time>2026-04-27T10:37:27.386Z</time></trkpt><trkpt lat="44.6206811" lon="15.785915"><ele>1200.25</ele><time>2026-04-27T10:37:28.386Z</time></trkpt><trkpt lat="44.6207408" lon="15.7860554"><ele>1201.0</ele><time>2026-04-27T10:37:29.386Z</time></trkpt><trkpt lat="44.6207836" lon="15.786184"><ele>1201.2</ele><time>2026-04-27T10:37:30.387Z</time></trkpt><trkpt lat="44.6208089" lon="15.7863186"><ele>1201.3999999999999</ele><time>2026-04-27T10:37:31.387Z</time></trkpt><trkpt lat="44.6208217" lon="15.7864589"><ele>1201.6</ele><time>2026-04-27T10:37:32.387Z</time></trkpt><trkpt lat="44.6208176" lon="15.7865992"><ele>1201.8</ele><time>2026-04-27T10:37:33.387Z</time></trkpt><trkpt lat="44.6208077" lon="15.7867404"><ele>1202.0</ele><time>2026-04-27T10:37:34.387Z</time></trkpt><trkpt lat="44.620798" lon="15.7868884"><ele>1202.0</ele><time>2026-04-27T10:37:35.386Z</time></trkpt><trkpt lat="44.6207802" lon="15.7870371"><ele>1202.0</ele><time>2026-04-27T10:37:36.386Z</time></trkpt><trkpt lat="44.6207494" lon="15.7871642"><ele>1202.0</ele><time>2026-04-27T10:37:37.386Z</time></trkpt><trkpt lat="44.6207017" lon="15.7872716"><ele>1202.0</ele><time>2026-04-27T10:37:38.387Z</time></trkpt><trkpt lat="44.6206377" lon="15.7873737"><ele>1202.0</ele><time>2026-04-27T10:37:39.386Z</time></trkpt><trkpt lat="44.6205594" lon="15.7874712"><ele>1202.0</ele><time>2026-04-27T10:37:40.386Z</time></trkpt><trkpt lat="44.6204747" lon="15.7875574"><ele>1202.0</ele><time>2026-04-27T10:37:41.386Z</time></trkpt><trkpt lat="44.6203861" lon="15.7876366"><ele>1202.0</ele><time>2026-04-27T10:37:42.387Z</time></trkpt><trkpt lat="44.6203034" lon="15.7877165"><ele>1202.0</ele><time>2026-04-27T10:37:43.386Z</time></trkpt><trkpt lat="44.6202302" lon="15.7878164"><ele>1202.0</ele><time>2026-04-27T10:37:44.386Z</time></trkpt><trkpt lat="44.6201652" lon="15.7879347"><ele>1201.8</ele><time>2026-04-27T10:37:45.386Z</time></trkpt><trkpt lat="44.6200952" lon="15.7880573"><ele>1201.6</ele><time>2026-04-27T10:37:46.387Z</time></trkpt><trkpt lat="44.6200245" lon="15.7881756"><ele>1201.3999999999999</ele><time>2026-04-27T10:37:47.386Z</time></trkpt><trkpt lat="44.6199498" lon="15.7882809"><ele>1201.2</ele><time>2026-04-27T10:37:48.387Z</time></trkpt><trkpt lat="44.6198705" lon="15.7883784"><ele>1201.0</ele><time>2026-04-27T10:37:49.386Z</time></trkpt><trkpt lat="44.6197963" lon="15.7884814"><ele>1199.3999999999999</ele><time>2026-04-27T10:37:50.387Z</time></trkpt><trkpt lat="44.6197281" lon="15.7885858"><ele>1197.8</ele><time>2026-04-27T10:37:51.386Z</time></trkpt><trkpt lat="44.6196737" lon="15.7886984"><ele>1196.1999999999998</ele><time>2026-04-27T10:37:52.386Z</time></trkpt><trkpt lat="44.6196248" lon="15.78883"><ele>1194.6</ele><time>2026-04-27T10:37:53.386Z</time></trkpt><trkpt lat="44.6195909" lon="15.7889701"><ele>1193.0</ele><time>2026-04-27T10:37:54.386Z</time></trkpt><trkpt lat="44.6195715" lon="15.7891121"><ele>1193.0</ele><time>2026-04-27T10:37:55.386Z</time></trkpt><trkpt lat="44.6195617" lon="15.7892599"><ele>1193.0</ele><time>2026-04-27T10:37:56.387Z</time></trkpt><trkpt lat="44.6195504" lon="15.7894027"><ele>1193.0</ele><time>2026-04-27T10:37:57.386Z</time></trkpt><trkpt lat="44.6195239" lon="15.7895514"><ele>1193.0</ele><time>2026-04-27T10:37:58.387Z</time></trkpt><trkpt lat="44.619489" lon="15.7896741"><ele>1193.0</ele><time>2026-04-27T10:37:59.387Z</time></trkpt><trkpt lat="44.6194705" lon="15.7898278"><ele>1193.0</ele><time>2026-04-27T10:38:00.386Z</time></trkpt><trkpt lat="44.6194667" lon="15.7899913"><ele>1193.0</ele><time>2026-04-27T10:38:01.387Z</time></trkpt><trkpt lat="44.6194721" lon="15.7901361"><ele>1193.0</ele><time>2026-04-27T10:38:02.386Z</time></trkpt><trkpt lat="44.6194795" lon="15.7902767"><ele>1193.0</ele><time>2026-04-27T10:38:03.387Z</time></trkpt><trkpt lat="44.6194775" lon="15.7903999"><ele>1193.0</ele><time>2026-04-27T10:38:04.386Z</time></trkpt><trkpt lat="44.6194932" lon="15.7905238"><ele>1191.0</ele><time>2026-04-27T10:38:05.386Z</time></trkpt><trkpt lat="44.6195065" lon="15.7906374"><ele>1189.0</ele><time>2026-04-27T10:38:06.386Z</time></trkpt><trkpt lat="44.6195254" lon="15.7907507"><ele>1187.0</ele><time>2026-04-27T10:38:07.387Z</time></trkpt><trkpt lat="44.6195556" lon="15.7908629"><ele>1185.0</ele><time>2026-04-27T10:38:08.386Z</time></trkpt><trkpt lat="44.619578" lon="15.7909722"><ele>1183.0</ele><time>2026-04-27T10:38:09.386Z</time></trkpt><trkpt lat="44.6196033" lon="15.7910757"><ele>1181.0</ele><time>2026-04-27T10:38:10.387Z</time></trkpt><trkpt lat="44.6196426" lon="15.7911503"><ele>1180.0</ele><time>2026-04-27T10:38:11.387Z</time></trkpt><trkpt lat="44.6196556" lon="15.7912419"><ele>1179.0</ele><time>2026-04-27T10:38:12.386Z</time></trkpt><trkpt lat="44.6196696" lon="15.7913317"><ele>1178.0</ele><time>2026-04-27T10:38:13.387Z</time></trkpt><trkpt lat="44.6196822" lon="15.7914881"><ele>1177.0</ele><time>2026-04-27T10:38:15.387Z</time></trkpt><trkpt lat="44.6196362" lon="15.7916202"><ele>1176.0</ele><time>2026-04-27T10:38:17.386Z</time></trkpt><trkpt lat="44.619529" lon="15.7917419"><ele>1176.3333333333333</ele><time>2026-04-27T10:38:19.386Z</time></trkpt><trkpt lat="44.619455" lon="15.7918133"><ele>1176.6666666666667</ele><time>2026-04-27T10:38:20.386Z</time></trkpt><trkpt lat="44.6193872" lon="15.7918771"><ele>1177.0</ele><time>2026-04-27T10:38:21.386Z</time></trkpt><trkpt lat="44.6193176" lon="15.7919397"><ele>1177.3333333333335</ele><time>2026-04-27T10:38:22.386Z</time></trkpt><trkpt lat="44.6192616" lon="15.7920152"><ele>1177.6666666666667</ele><time>2026-04-27T10:38:23.386Z</time></trkpt><trkpt lat="44.6192159" lon="15.7921364"><ele>1178.0</ele><time>2026-04-27T10:38:24.386Z</time></trkpt><trkpt lat="44.6191768" lon="15.7922706"><ele>1178.0</ele><time>2026-04-27T10:38:25.386Z</time></trkpt><trkpt lat="44.619134" lon="15.7923951"><ele>1178.0</ele><time>2026-04-27T10:38:26.386Z</time></trkpt><trkpt lat="44.6190787" lon="15.7925095"><ele>1178.0</ele><time>2026-04-27T10:38:27.386Z</time></trkpt><trkpt lat="44.6190044" lon="15.7926279"><ele>1178.0</ele><time>2026-04-27T10:38:28.386Z</time></trkpt><trkpt lat="44.6189198" lon="15.7927329"><ele>1178.0</ele><time>2026-04-27T10:38:29.387Z</time></trkpt><trkpt lat="44.6188279" lon="15.7928214"><ele>1176.4</ele><time>2026-04-27T10:38:30.386Z</time></trkpt><trkpt lat="44.6187365" lon="15.7928983"><ele>1174.8</ele><time>2026-04-27T10:38:31.386Z</time></trkpt><trkpt lat="44.618636" lon="15.7929667"><ele>1173.2</ele><time>2026-04-27T10:38:32.387Z</time></trkpt><trkpt lat="44.6185395" lon="15.7930351"><ele>1171.6</ele><time>2026-04-27T10:38:33.386Z</time></trkpt><trkpt lat="44.6184477" lon="15.7931004"><ele>1170.0</ele><time>2026-04-27T10:38:34.386Z</time></trkpt><trkpt lat="44.6183732" lon="15.7931807"><ele>1173.0</ele><time>2026-04-27T10:38:35.386Z</time></trkpt><trkpt lat="44.6183143" lon="15.7932662"><ele>1176.0</ele><time>2026-04-27T10:38:36.386Z</time></trkpt><trkpt lat="44.6182556" lon="15.793375"><ele>1179.0</ele><time>2026-04-27T10:38:37.386Z</time></trkpt><trkpt lat="44.6181934" lon="15.7934696"><ele>1182.0</ele><time>2026-04-27T10:38:38.386Z</time></trkpt><trkpt lat="44.6181303" lon="15.7935668"><ele>1185.0</ele><time>2026-04-27T10:38:39.387Z</time></trkpt><trkpt lat="44.6180644" lon="15.7936775"><ele>1185.0</ele><time>2026-04-27T10:38:40.386Z</time></trkpt><trkpt lat="44.6180176" lon="15.79377"><ele>1185.0</ele><time>2026-04-27T10:38:41.386Z</time></trkpt><trkpt lat="44.6179933" lon="15.7938906"><ele>1185.0</ele><time>2026-04-27T10:38:42.386Z</time></trkpt><trkpt lat="44.6179877" lon="15.7940131"><ele>1185.0</ele><time>2026-04-27T10:38:43.386Z</time></trkpt><trkpt lat="44.6180039" lon="15.7941327"><ele>1185.0</ele><time>2026-04-27T10:38:44.386Z</time></trkpt><trkpt lat="44.6180241" lon="15.7942451"><ele>1185.0</ele><time>2026-04-27T10:38:45.386Z</time></trkpt><trkpt lat="44.6180361" lon="15.7943335"><ele>1185.6666666666667</ele><time>2026-04-27T10:38:46.386Z</time></trkpt><trkpt lat="44.6180182" lon="15.7944291"><ele>1186.3333333333333</ele><time>2026-04-27T10:38:48.386Z</time></trkpt><trkpt lat="44.6179697" lon="15.7944944"><ele>1187.0</ele><time>2026-04-27T10:38:50.386Z</time></trkpt><trkpt lat="44.6178696" lon="15.7945016"><ele>1187.6666666666665</ele><time>2026-04-27T10:38:52.387Z</time></trkpt><trkpt lat="44.6177643" lon="15.7944586"><ele>1188.3333333333333</ele><time>2026-04-27T10:38:54.387Z</time></trkpt><trkpt lat="44.6177092" lon="15.7944031"><ele>1189.0</ele><time>2026-04-27T10:38:55.386Z</time></trkpt><trkpt lat="44.6176684" lon="15.7943336"><ele>1190.8333333333333</ele><time>2026-04-27T10:38:56.386Z</time></trkpt><trkpt lat="44.6176364" lon="15.7942453"><ele>1192.6666666666665</ele><time>2026-04-27T10:38:57.386Z</time></trkpt><trkpt lat="44.6175955" lon="15.7941169"><ele>1194.5</ele><time>2026-04-27T10:38:58.387Z</time></trkpt><trkpt lat="44.6175591" lon="15.7940071"><ele>1196.3333333333333</ele><time>2026-04-27T10:38:59.386Z</time></trkpt><trkpt lat="44.6175099" lon="15.7938813"><ele>1198.1666666666667</ele><time>2026-04-27T10:39:00.386Z</time></trkpt><trkpt lat="44.6174828" lon="15.7937878"><ele>1200.0</ele><time>2026-04-27T10:39:01.387Z</time></trkpt><trkpt lat="44.6174425" lon="15.7937054"><ele>1200.0</ele><time>2026-04-27T10:39:02.386Z</time></trkpt><trkpt lat="44.6173741" lon="15.7936369"><ele>1200.0</ele><time>2026-04-27T10:39:03.386Z</time></trkpt><trkpt lat="44.6173159" lon="15.7935819"><ele>1200.0</ele><time>2026-04-27T10:39:04.386Z</time></trkpt><trkpt lat="44.6172039" lon="15.7935321"><ele>1200.0</ele><time>2026-04-27T10:39:05.387Z</time></trkpt><trkpt lat="44.6171164" lon="15.7934767"><ele>1200.0</ele><time>2026-04-27T10:39:06.386Z</time></trkpt><trkpt lat="44.617003" lon="15.7933902"><ele>1199.0</ele><time>2026-04-27T10:39:07.386Z</time></trkpt><trkpt lat="44.6169004" lon="15.7932929"><ele>1198.0</ele><time>2026-04-27T10:39:08.386Z</time></trkpt><trkpt lat="44.6168105" lon="15.7931998"><ele>1197.0</ele><time>2026-04-27T10:39:09.386Z</time></trkpt><trkpt lat="44.6167202" lon="15.793097"><ele>1196.0</ele><time>2026-04-27T10:39:10.386Z</time></trkpt><trkpt lat="44.6166295" lon="15.7929886"><ele>1196.0</ele><time>2026-04-27T10:39:11.387Z</time></trkpt><trkpt lat="44.6165565" lon="15.7928827"><ele>1196.0</ele><time>2026-04-27T10:39:12.387Z</time></trkpt><trkpt lat="44.6164936" lon="15.7927594"><ele>1196.0</ele><time>2026-04-27T10:39:13.386Z</time></trkpt><trkpt lat="44.6164348" lon="15.7926158"><ele>1196.0</ele><time>2026-04-27T10:39:14.386Z</time></trkpt><trkpt lat="44.6163768" lon="15.7924657"><ele>1196.3999999999999</ele><time>2026-04-27T10:39:15.387Z</time></trkpt><trkpt lat="44.6163196" lon="15.7923215"><ele>1196.8</ele><time>2026-04-27T10:39:16.386Z</time></trkpt><trkpt lat="44.6162679" lon="15.79219"><ele>1197.1999999999998</ele><time>2026-04-27T10:39:17.386Z</time></trkpt><trkpt lat="44.6162177" lon="15.792077"><ele>1197.6</ele><time>2026-04-27T10:39:18.386Z</time></trkpt><trkpt lat="44.6161484" lon="15.7919748"><ele>1198.0</ele><time>2026-04-27T10:39:19.386Z</time></trkpt><trkpt lat="44.6160893" lon="15.7918727"><ele>1196.2</ele><time>2026-04-27T10:39:20.386Z</time></trkpt><trkpt lat="44.6160197" lon="15.7917802"><ele>1194.4</ele><time>2026-04-27T10:39:21.386Z</time></trkpt><trkpt lat="44.6159214" lon="15.7917099"><ele>1192.6000000000001</ele><time>2026-04-27T10:39:22.386Z</time></trkpt><trkpt lat="44.6158332" lon="15.7916456"><ele>1190.8</ele><time>2026-04-27T10:39:23.386Z</time></trkpt><trkpt lat="44.6157457" lon="15.7915964"><ele>1189.0</ele><time>2026-04-27T10:39:24.386Z</time></trkpt><trkpt lat="44.6156623" lon="15.791546"><ele>1189.0</ele><time>2026-04-27T10:39:25.386Z</time></trkpt><trkpt lat="44.6155789" lon="15.7915144"><ele>1189.0</ele><time>2026-04-27T10:39:26.386Z</time></trkpt><trkpt lat="44.6154796" lon="15.7915049"><ele>1189.0</ele><time>2026-04-27T10:39:27.387Z</time></trkpt><trkpt lat="44.6153738" lon="15.7915086"><ele>1189.0</ele><time>2026-04-27T10:39:28.386Z</time></trkpt><trkpt lat="44.6152596" lon="15.7915127"><ele>1189.0</ele><time>2026-04-27T10:39:29.387Z</time></trkpt><trkpt lat="44.6151517" lon="15.7915191"><ele>1187.4</ele><time>2026-04-27T10:39:30.386Z</time></trkpt><trkpt lat="44.6150452" lon="15.7915157"><ele>1185.8000000000002</ele><time>2026-04-27T10:39:31.387Z</time></trkpt><trkpt lat="44.6149412" lon="15.7915185"><ele>1184.1999999999998</ele><time>2026-04-27T10:39:32.386Z</time></trkpt><trkpt lat="44.6148368" lon="15.7915096"><ele>1182.6</ele><time>2026-04-27T10:39:33.386Z</time></trkpt><trkpt lat="44.6147324" lon="15.7915134"><ele>1181.0</ele><time>2026-04-27T10:39:34.386Z</time></trkpt><trkpt lat="44.6146178" lon="15.7915316"><ele>1181.0</ele><time>2026-04-27T10:39:35.386Z</time></trkpt><trkpt lat="44.6145009" lon="15.7915536"><ele>1181.0</ele><time>2026-04-27T10:39:36.387Z</time></trkpt><trkpt lat="44.6143808" lon="15.7915773"><ele>1181.0</ele><time>2026-04-27T10:39:37.386Z</time></trkpt><trkpt lat="44.6142596" lon="15.7916021"><ele>1181.0</ele><time>2026-04-27T10:39:38.386Z</time></trkpt><trkpt lat="44.6141423" lon="15.7916221"><ele>1179.75</ele><time>2026-04-27T10:39:39.386Z</time></trkpt><trkpt lat="44.6140179" lon="15.7916616"><ele>1178.5</ele><time>2026-04-27T10:39:40.386Z</time></trkpt><trkpt lat="44.6138941" lon="15.7917063"><ele>1177.25</ele><time>2026-04-27T10:39:41.386Z</time></trkpt><trkpt lat="44.6137784" lon="15.7917458"><ele>1176.0</ele><time>2026-04-27T10:39:42.386Z</time></trkpt><trkpt lat="44.6136807" lon="15.7918088"><ele>1173.2</ele><time>2026-04-27T10:39:43.386Z</time></trkpt><trkpt lat="44.6135697" lon="15.7918559"><ele>1170.3999999999999</ele><time>2026-04-27T10:39:44.387Z</time></trkpt><trkpt lat="44.6134859" lon="15.7919206"><ele>1167.6</ele><time>2026-04-27T10:39:45.386Z</time></trkpt><trkpt lat="44.6134075" lon="15.7919967"><ele>1164.8</ele><time>2026-04-27T10:39:46.386Z</time></trkpt><trkpt lat="44.6133468" lon="15.7920545"><ele>1162.0</ele><time>2026-04-27T10:39:47.387Z</time></trkpt><trkpt lat="44.6132786" lon="15.7921171"><ele>1162.0</ele><time>2026-04-27T10:39:48.386Z</time></trkpt><trkpt lat="44.6131921" lon="15.7922156"><ele>1162.0</ele><time>2026-04-27T10:39:50.386Z</time></trkpt><trkpt lat="44.6131745" lon="15.7923035"><ele>1162.0</ele><time>2026-04-27T10:39:52.386Z</time></trkpt><trkpt lat="44.6132057" lon="15.7923868"><ele>1162.0</ele><time>2026-04-27T10:39:54.387Z</time></trkpt><trkpt lat="44.6132722" lon="15.7924026"><ele>1162.0</ele><time>2026-04-27T10:39:55.386Z</time></trkpt><trkpt lat="44.6133878" lon="15.792413"><ele>1162.0</ele><time>2026-04-27T10:39:57.386Z</time></trkpt><trkpt lat="44.6134582" lon="15.7924153"><ele>1162.0</ele><time>2026-04-27T10:39:58.386Z</time></trkpt><trkpt lat="44.6135594" lon="15.792446"><ele>1162.0</ele><time>2026-04-27T10:40:00.386Z</time></trkpt><trkpt lat="44.6135824" lon="15.7925324"><ele>1162.0</ele><time>2026-04-27T10:40:02.386Z</time></trkpt><trkpt lat="44.6135547" lon="15.7926225"><ele>1162.0</ele><time>2026-04-27T10:40:04.386Z</time></trkpt><trkpt lat="44.6134971" lon="15.7926706"><ele>1162.0</ele><time>2026-04-27T10:40:05.386Z</time></trkpt><trkpt lat="44.6134374" lon="15.7927238"><ele>1162.0</ele><time>2026-04-27T10:40:06.386Z</time></trkpt><trkpt lat="44.6133558" lon="15.7927706"><ele>1160.1666666666665</ele><time>2026-04-27T10:40:07.386Z</time></trkpt><trkpt lat="44.6132606" lon="15.792815"><ele>1158.3333333333333</ele><time>2026-04-27T10:40:08.386Z</time></trkpt><trkpt lat="44.6131762" lon="15.7928396"><ele>1156.5</ele><time>2026-04-27T10:40:09.386Z</time></trkpt><trkpt lat="44.6130901" lon="15.7928771"><ele>1154.6666666666667</ele><time>2026-04-27T10:40:10.386Z</time></trkpt><trkpt lat="44.6130077" lon="15.792887"><ele>1152.8333333333335</ele><time>2026-04-27T10:40:11.387Z</time></trkpt><trkpt lat="44.6129319" lon="15.7929183"><ele>1151.0</ele><time>2026-04-27T10:40:12.386Z</time></trkpt><trkpt lat="44.6128399" lon="15.7929412"><ele>1151.0</ele><time>2026-04-27T10:40:13.386Z</time></trkpt><trkpt lat="44.6127451" lon="15.7929798"><ele>1151.0</ele><time>2026-04-27T10:40:14.386Z</time></trkpt><trkpt lat="44.6126473" lon="15.793002"><ele>1151.0</ele><time>2026-04-27T10:40:15.386Z</time></trkpt><trkpt lat="44.6125353" lon="15.7930192"><ele>1151.0</ele><time>2026-04-27T10:40:16.386Z</time></trkpt><trkpt lat="44.6124193" lon="15.7930205"><ele>1151.0</ele><time>2026-04-27T10:40:17.386Z</time></trkpt><trkpt lat="44.6123302" lon="15.7930171"><ele>1151.0</ele><time>2026-04-27T10:40:18.387Z</time></trkpt><trkpt lat="44.6122248" lon="15.7930076"><ele>1151.0</ele><time>2026-04-27T10:40:19.387Z</time></trkpt><trkpt lat="44.6121148" lon="15.7930227"><ele>1151.0</ele><time>2026-04-27T10:40:20.386Z</time></trkpt><trkpt lat="44.612024" lon="15.7930028"><ele>1151.0</ele><time>2026-04-27T10:40:21.386Z</time></trkpt><trkpt lat="44.6119338" lon="15.7929925"><ele>1151.0</ele><time>2026-04-27T10:40:22.386Z</time></trkpt><trkpt lat="44.6118457" lon="15.7929906"><ele>1151.25</ele><time>2026-04-27T10:40:23.386Z</time></trkpt><trkpt lat="44.6117157" lon="15.7930537"><ele>1151.5</ele><time>2026-04-27T10:40:25.386Z</time></trkpt><trkpt lat="44.6116382" lon="15.7931273"><ele>1151.75</ele><time>2026-04-27T10:40:26.386Z</time></trkpt><trkpt lat="44.6115405" lon="15.7932305"><ele>1152.0</ele><time>2026-04-27T10:40:27.386Z</time></trkpt><trkpt lat="44.611455" lon="15.7933006"><ele>1152.0</ele><time>2026-04-27T10:40:28.387Z</time></trkpt><trkpt lat="44.6113632" lon="15.7933712"><ele>1152.0</ele><time>2026-04-27T10:40:29.386Z</time></trkpt><trkpt lat="44.6112662" lon="15.7934228"><ele>1152.0</ele><time>2026-04-27T10:40:30.387Z</time></trkpt><trkpt lat="44.6111856" lon="15.7934543"><ele>1152.0</ele><time>2026-04-27T10:40:31.386Z</time></trkpt><trkpt lat="44.6110962" lon="15.7934843"><ele>1152.0</ele><time>2026-04-27T10:40:32.387Z</time></trkpt><trkpt lat="44.6110302" lon="15.7935178"><ele>1152.4</ele><time>2026-04-27T10:40:33.386Z</time></trkpt><trkpt lat="44.6109563" lon="15.7936082"><ele>1152.8000000000002</ele><time>2026-04-27T10:40:35.386Z</time></trkpt><trkpt lat="44.6109551" lon="15.7938175"><ele>1153.2</ele><time>2026-04-27T10:40:37.386Z</time></trkpt><trkpt lat="44.6109606" lon="15.7939423"><ele>1153.6000000000001</ele><time>2026-04-27T10:40:38.386Z</time></trkpt><trkpt lat="44.6109591" lon="15.7940548"><ele>1154.0</ele><time>2026-04-27T10:40:39.386Z</time></trkpt><trkpt lat="44.6109055" lon="15.7941987"><ele>1154.0</ele><time>2026-04-27T10:40:41.386Z</time></trkpt><trkpt lat="44.6108535" lon="15.7942671"><ele>1154.0</ele><time>2026-04-27T10:40:42.387Z</time></trkpt><trkpt lat="44.610785" lon="15.7943142"><ele>1154.0</ele><time>2026-04-27T10:40:43.386Z</time></trkpt><trkpt lat="44.6106909" lon="15.7943689"><ele>1154.0</ele><time>2026-04-27T10:40:44.386Z</time></trkpt><trkpt lat="44.6105916" lon="15.7944169"><ele>1154.0</ele><time>2026-04-27T10:40:45.387Z</time></trkpt><trkpt lat="44.6104978" lon="15.7944766"><ele>1155.0</ele><time>2026-04-27T10:40:46.386Z</time></trkpt><trkpt lat="44.6104185" lon="15.7945336"><ele>1156.0</ele><time>2026-04-27T10:40:47.386Z</time></trkpt><trkpt lat="44.6103517" lon="15.7946149"><ele>1157.0</ele><time>2026-04-27T10:40:48.386Z</time></trkpt><trkpt lat="44.61028" lon="15.7946898"><ele>1158.0</ele><time>2026-04-27T10:40:49.387Z</time></trkpt><trkpt lat="44.6102093" lon="15.7947767"><ele>1159.0</ele><time>2026-04-27T10:40:50.387Z</time></trkpt><trkpt lat="44.6101384" lon="15.7948552"><ele>1159.0</ele><time>2026-04-27T10:40:51.386Z</time></trkpt><trkpt lat="44.6100654" lon="15.7949509"><ele>1159.0</ele><time>2026-04-27T10:40:52.386Z</time></trkpt><trkpt lat="44.609985" lon="15.7950372"><ele>1159.0</ele><time>2026-04-27T10:40:53.386Z</time></trkpt><trkpt lat="44.6099127" lon="15.7951103"><ele>1159.0</ele><time>2026-04-27T10:40:54.387Z</time></trkpt><trkpt lat="44.6098198" lon="15.79519"><ele>1159.0</ele><time>2026-04-27T10:40:55.386Z</time></trkpt><trkpt lat="44.6097473" lon="15.7952768"><ele>1159.8</ele><time>2026-04-27T10:40:56.387Z</time></trkpt><trkpt lat="44.6096566" lon="15.7953522"><ele>1160.6000000000001</ele><time>2026-04-27T10:40:57.386Z</time></trkpt><trkpt lat="44.6095648" lon="15.7954439"><ele>1161.4</ele><time>2026-04-27T10:40:58.386Z</time></trkpt><trkpt lat="44.6094783" lon="15.7955077"><ele>1162.2</ele><time>2026-04-27T10:40:59.386Z</time></trkpt><trkpt lat="44.6093871" lon="15.7955784"><ele>1163.0</ele><time>2026-04-27T10:41:00.387Z</time></trkpt><trkpt lat="44.6092926" lon="15.7956468"><ele>1163.0</ele><time>2026-04-27T10:41:01.386Z</time></trkpt><trkpt lat="44.609205" lon="15.7957075"><ele>1163.0</ele><time>2026-04-27T10:41:02.386Z</time></trkpt><trkpt lat="44.6091208" lon="15.795798"><ele>1163.0</ele><time>2026-04-27T10:41:03.386Z</time></trkpt><trkpt lat="44.6090393" lon="15.7958894"><ele>1163.0</ele><time>2026-04-27T10:41:04.386Z</time></trkpt><trkpt lat="44.6089677" lon="15.7959991"><ele>1163.0</ele><time>2026-04-27T10:41:05.387Z</time></trkpt><trkpt lat="44.608901" lon="15.7961141"><ele>1161.8</ele><time>2026-04-27T10:41:06.386Z</time></trkpt><trkpt lat="44.608839" lon="15.7962258"><ele>1160.6</ele><time>2026-04-27T10:41:07.386Z</time></trkpt><trkpt lat="44.6087783" lon="15.7963396"><ele>1159.4</ele><time>2026-04-27T10:41:08.386Z</time></trkpt><trkpt lat="44.6087209" lon="15.7964431"><ele>1158.2</ele><time>2026-04-27T10:41:09.386Z</time></trkpt><trkpt lat="44.6086649" lon="15.7965354"><ele>1157.0</ele><time>2026-04-27T10:41:10.387Z</time></trkpt><trkpt lat="44.6086141" lon="15.7966107"><ele>1158.0</ele><time>2026-04-27T10:41:11.386Z</time></trkpt><trkpt lat="44.6085508" lon="15.7967063"><ele>1159.0</ele><time>2026-04-27T10:41:12.386Z</time></trkpt><trkpt lat="44.6084843" lon="15.7968102"><ele>1160.0</ele><time>2026-04-27T10:41:13.387Z</time></trkpt><trkpt lat="44.6084314" lon="15.7969163"><ele>1161.0</ele><time>2026-04-27T10:41:14.386Z</time></trkpt><trkpt lat="44.6083786" lon="15.7970216"><ele>1162.0</ele><time>2026-04-27T10:41:15.387Z</time></trkpt><trkpt lat="44.6083188" lon="15.7971319"><ele>1162.0</ele><time>2026-04-27T10:41:16.386Z</time></trkpt><trkpt lat="44.608224" lon="15.7972333"><ele>1162.0</ele><time>2026-04-27T10:41:17.387Z</time></trkpt><trkpt lat="44.608134" lon="15.797333"><ele>1162.0</ele><time>2026-04-27T10:41:18.386Z</time></trkpt><trkpt lat="44.6080365" lon="15.7974383"><ele>1162.0</ele><time>2026-04-27T10:41:19.386Z</time></trkpt><trkpt lat="44.6079367" lon="15.797546"><ele>1162.0</ele><time>2026-04-27T10:41:20.387Z</time></trkpt><trkpt lat="44.6078572" lon="15.7976457"><ele>1162.0</ele><time>2026-04-27T10:41:21.386Z</time></trkpt><trkpt lat="44.6077895" lon="15.7977459"><ele>1162.0</ele><time>2026-04-27T10:41:22.386Z</time></trkpt><trkpt lat="44.6077282" lon="15.7978733"><ele>1162.0</ele><time>2026-04-27T10:41:23.386Z</time></trkpt><trkpt lat="44.6076781" lon="15.7979796"><ele>1162.0</ele><time>2026-04-27T10:41:24.386Z</time></trkpt><trkpt lat="44.607601" lon="15.7980872"><ele>1164.5</ele><time>2026-04-27T10:41:25.387Z</time></trkpt><trkpt lat="44.6075121" lon="15.7981855"><ele>1167.0</ele><time>2026-04-27T10:41:26.386Z</time></trkpt><trkpt lat="44.6074277" lon="15.7982784"><ele>1169.5</ele><time>2026-04-27T10:41:27.387Z</time></trkpt><trkpt lat="44.6073262" lon="15.7983971"><ele>1172.0</ele><time>2026-04-27T10:41:28.387Z</time></trkpt><trkpt lat="44.6072432" lon="15.7984745"><ele>1170.8</ele><time>2026-04-27T10:41:29.386Z</time></trkpt><trkpt lat="44.6071665" lon="15.7985571"><ele>1169.6</ele><time>2026-04-27T10:41:30.386Z</time></trkpt><trkpt lat="44.6071041" lon="15.7986231"><ele>1168.3999999999999</ele><time>2026-04-27T10:41:31.387Z</time></trkpt><trkpt lat="44.6070275" lon="15.798707"><ele>1167.2</ele><time>2026-04-27T10:41:32.386Z</time></trkpt><trkpt lat="44.6069601" lon="15.7988171"><ele>1166.0</ele><time>2026-04-27T10:41:33.386Z</time></trkpt><trkpt lat="44.606899" lon="15.7989235"><ele>1168.3999999999999</ele><time>2026-04-27T10:41:34.387Z</time></trkpt><trkpt lat="44.606846" lon="15.7990353"><ele>1170.8</ele><time>2026-04-27T10:41:35.387Z</time></trkpt><trkpt lat="44.6067865" lon="15.7991594"><ele>1173.1999999999998</ele><time>2026-04-27T10:41:36.386Z</time></trkpt><trkpt lat="44.6067461" lon="15.7993007"><ele>1175.6</ele><time>2026-04-27T10:41:37.386Z</time></trkpt><trkpt lat="44.6067081" lon="15.7994173"><ele>1178.0</ele><time>2026-04-27T10:41:38.386Z</time></trkpt><trkpt lat="44.6066805" lon="15.7995161"><ele>1178.0</ele><time>2026-04-27T10:41:39.386Z</time></trkpt><trkpt lat="44.6066497" lon="15.799609"><ele>1178.0</ele><time>2026-04-27T10:41:40.386Z</time></trkpt><trkpt lat="44.6066049" lon="15.799696"><ele>1178.0</ele><time>2026-04-27T10:41:41.386Z</time></trkpt><trkpt lat="44.6065748" lon="15.7997774"><ele>1178.0</ele><time>2026-04-27T10:41:42.386Z</time></trkpt><trkpt lat="44.6065513" lon="15.7999022"><ele>1178.0</ele><time>2026-04-27T10:41:43.386Z</time></trkpt><trkpt lat="44.6065631" lon="15.8000688"><ele>1178.0</ele><time>2026-04-27T10:41:44.386Z</time></trkpt><trkpt lat="44.6065498" lon="15.8001998"><ele>1177.0</ele><time>2026-04-27T10:41:45.387Z</time></trkpt><trkpt lat="44.6065383" lon="15.800337"><ele>1176.0</ele><time>2026-04-27T10:41:46.386Z</time></trkpt><trkpt lat="44.6065282" lon="15.8004612"><ele>1175.0</ele><time>2026-04-27T10:41:47.386Z</time></trkpt><trkpt lat="44.606486" lon="15.8005981"><ele>1174.0</ele><time>2026-04-27T10:41:48.386Z</time></trkpt><trkpt lat="44.6064673" lon="15.8007474"><ele>1173.0</ele><time>2026-04-27T10:41:49.386Z</time></trkpt><trkpt lat="44.6064276" lon="15.8009144"><ele>1172.6</ele><time>2026-04-27T10:41:50.386Z</time></trkpt><trkpt lat="44.6063833" lon="15.801085"><ele>1172.1999999999998</ele><time>2026-04-27T10:41:51.386Z</time></trkpt><trkpt lat="44.6063464" lon="15.8012255"><ele>1171.8</ele><time>2026-04-27T10:41:52.387Z</time></trkpt><trkpt lat="44.6063116" lon="15.8013665"><ele>1171.3999999999999</ele><time>2026-04-27T10:41:53.387Z</time></trkpt><trkpt lat="44.6062877" lon="15.8015073"><ele>1171.0</ele><time>2026-04-27T10:41:54.387Z</time></trkpt><trkpt lat="44.6062507" lon="15.8016399"><ele>1171.0</ele><time>2026-04-27T10:41:55.386Z</time></trkpt><trkpt lat="44.6062131" lon="15.80177"><ele>1171.0</ele><time>2026-04-27T10:41:56.386Z</time></trkpt><trkpt lat="44.6061982" lon="15.8019155"><ele>1171.0</ele><time>2026-04-27T10:41:57.386Z</time></trkpt><trkpt lat="44.6061997" lon="15.8020611"><ele>1171.0</ele><time>2026-04-27T10:41:58.386Z</time></trkpt><trkpt lat="44.6062049" lon="15.8022116"><ele>1171.0</ele><time>2026-04-27T10:41:59.386Z</time></trkpt><trkpt lat="44.6062075" lon="15.8023761"><ele>1172.0</ele><time>2026-04-27T10:42:00.386Z</time></trkpt><trkpt lat="44.6062094" lon="15.8025511"><ele>1173.0</ele><time>2026-04-27T10:42:01.386Z</time></trkpt><trkpt lat="44.6062161" lon="15.8026698"><ele>1174.0</ele><time>2026-04-27T10:42:02.387Z</time></trkpt><trkpt lat="44.6062166" lon="15.8028338"><ele>1175.0</ele><time>2026-04-27T10:42:03.387Z</time></trkpt><trkpt lat="44.6062265" lon="15.802999"><ele>1176.0</ele><time>2026-04-27T10:42:04.387Z</time></trkpt><trkpt lat="44.6062239" lon="15.8031234"><ele>1177.8</ele><time>2026-04-27T10:42:05.386Z</time></trkpt><trkpt lat="44.6062428" lon="15.8032655"><ele>1179.6</ele><time>2026-04-27T10:42:06.386Z</time></trkpt><trkpt lat="44.6062709" lon="15.8034049"><ele>1181.4</ele><time>2026-04-27T10:42:07.386Z</time></trkpt><trkpt lat="44.6063189" lon="15.8035343"><ele>1183.2</ele><time>2026-04-27T10:42:08.386Z</time></trkpt><trkpt lat="44.6063676" lon="15.8036789"><ele>1185.0</ele><time>2026-04-27T10:42:09.386Z</time></trkpt><trkpt lat="44.6064162" lon="15.803825"><ele>1185.2</ele><time>2026-04-27T10:42:10.386Z</time></trkpt><trkpt lat="44.6064379" lon="15.8039475"><ele>1185.4</ele><time>2026-04-27T10:42:11.386Z</time></trkpt><trkpt lat="44.6064403" lon="15.8040725"><ele>1185.6</ele><time>2026-04-27T10:42:12.386Z</time></trkpt><trkpt lat="44.6064342" lon="15.8041703"><ele>1185.8</ele><time>2026-04-27T10:42:13.386Z</time></trkpt><trkpt lat="44.6064183" lon="15.8043274"><ele>1186.0</ele><time>2026-04-27T10:42:14.386Z</time></trkpt><trkpt lat="44.6064152" lon="15.8044754"><ele>1186.5</ele><time>2026-04-27T10:42:15.386Z</time></trkpt><trkpt lat="44.6064" lon="15.8046091"><ele>1187.0</ele><time>2026-04-27T10:42:16.386Z</time></trkpt><trkpt lat="44.606406" lon="15.8047162"><ele>1187.5</ele><time>2026-04-27T10:42:17.386Z</time></trkpt><trkpt lat="44.6063971" lon="15.8048196"><ele>1188.0</ele><time>2026-04-27T10:42:18.386Z</time></trkpt><trkpt lat="44.606431" lon="15.804922"><ele>1188.5</ele><time>2026-04-27T10:42:19.386Z</time></trkpt><trkpt lat="44.6064639" lon="15.8050208"><ele>1189.0</ele><time>2026-04-27T10:42:20.387Z</time></trkpt><trkpt lat="44.6065045" lon="15.8051094"><ele>1189.2</ele><time>2026-04-27T10:42:21.387Z</time></trkpt><trkpt lat="44.6065503" lon="15.8052428"><ele>1189.4</ele><time>2026-04-27T10:42:23.386Z</time></trkpt><trkpt lat="44.6065698" lon="15.8054361"><ele>1189.6</ele><time>2026-04-27T10:42:25.386Z</time></trkpt><trkpt lat="44.6065933" lon="15.8055496"><ele>1189.8</ele><time>2026-04-27T10:42:26.387Z</time></trkpt><trkpt lat="44.6066123" lon="15.8056917"><ele>1190.0</ele><time>2026-04-27T10:42:27.386Z</time></trkpt><trkpt lat="44.6066248" lon="15.8058085"><ele>1190.0</ele><time>2026-04-27T10:42:28.386Z</time></trkpt><trkpt lat="44.6066506" lon="15.8059187"><ele>1190.0</ele><time>2026-04-27T10:42:29.386Z</time></trkpt><trkpt lat="44.6066834" lon="15.8060236"><ele>1190.0</ele><time>2026-04-27T10:42:30.386Z</time></trkpt><trkpt lat="44.6067535" lon="15.8061294"><ele>1190.0</ele><time>2026-04-27T10:42:31.386Z</time></trkpt><trkpt lat="44.6068223" lon="15.8062412"><ele>1190.0</ele><time>2026-04-27T10:42:32.386Z</time></trkpt><trkpt lat="44.6068986" lon="15.8063567"><ele>1190.8</ele><time>2026-04-27T10:42:33.386Z</time></trkpt><trkpt lat="44.6069712" lon="15.8064662"><ele>1191.6</ele><time>2026-04-27T10:42:34.386Z</time></trkpt><trkpt lat="44.6070422" lon="15.8065742"><ele>1192.4</ele><time>2026-04-27T10:42:35.387Z</time></trkpt><trkpt lat="44.6071258" lon="15.8066701"><ele>1193.2</ele><time>2026-04-27T10:42:36.386Z</time></trkpt><trkpt lat="44.6071968" lon="15.8067563"><ele>1194.0</ele><time>2026-04-27T10:42:37.386Z</time></trkpt><trkpt lat="44.6073286" lon="15.8068629"><ele>1196.6000000000001</ele><time>2026-04-27T10:42:39.386Z</time></trkpt><trkpt lat="44.6074036" lon="15.806907"><ele>1199.2</ele><time>2026-04-27T10:42:40.386Z</time></trkpt><trkpt lat="44.6075017" lon="15.8068837"><ele>1201.8000000000002</ele><time>2026-04-27T10:42:41.386Z</time></trkpt><trkpt lat="44.6075912" lon="15.8068895"><ele>1204.4</ele><time>2026-04-27T10:42:42.386Z</time></trkpt><trkpt lat="44.6076848" lon="15.8068962"><ele>1207.0</ele><time>2026-04-27T10:42:43.386Z</time></trkpt><trkpt lat="44.6077921" lon="15.8068945"><ele>1206.0</ele><time>2026-04-27T10:42:44.386Z</time></trkpt><trkpt lat="44.607905" lon="15.8069053"><ele>1205.0</ele><time>2026-04-27T10:42:45.386Z</time></trkpt><trkpt lat="44.6080087" lon="15.8069531"><ele>1204.0</ele><time>2026-04-27T10:42:46.386Z</time></trkpt><trkpt lat="44.6081198" lon="15.8069673"><ele>1203.0</ele><time>2026-04-27T10:42:47.386Z</time></trkpt><trkpt lat="44.6082164" lon="15.8070015"><ele>1202.0</ele><time>2026-04-27T10:42:48.386Z</time></trkpt><trkpt lat="44.6083108" lon="15.8070168"><ele>1202.0</ele><time>2026-04-27T10:42:49.386Z</time></trkpt><trkpt lat="44.6083955" lon="15.8070069"><ele>1202.0</ele><time>2026-04-27T10:42:50.387Z</time></trkpt><trkpt lat="44.6084852" lon="15.8069612"><ele>1202.0</ele><time>2026-04-27T10:42:51.387Z</time></trkpt><trkpt lat="44.6085716" lon="15.806922"><ele>1202.0</ele><time>2026-04-27T10:42:52.387Z</time></trkpt><trkpt lat="44.6086489" lon="15.806861"><ele>1202.0</ele><time>2026-04-27T10:42:53.387Z</time></trkpt><trkpt lat="44.6087566" lon="15.8067925"><ele>1202.4</ele><time>2026-04-27T10:42:54.387Z</time></trkpt><trkpt lat="44.6088466" lon="15.806738"><ele>1202.8000000000002</ele><time>2026-04-27T10:42:55.386Z</time></trkpt><trkpt lat="44.6089467" lon="15.8066873"><ele>1203.2</ele><time>2026-04-27T10:42:56.386Z</time></trkpt><trkpt lat="44.6090218" lon="15.8066503"><ele>1203.6000000000001</ele><time>2026-04-27T10:42:57.386Z</time></trkpt><trkpt lat="44.6091213" lon="15.8066086"><ele>1204.0</ele><time>2026-04-27T10:42:58.387Z</time></trkpt><trkpt lat="44.6092121" lon="15.8065947"><ele>1204.0</ele><time>2026-04-27T10:42:59.386Z</time></trkpt><trkpt lat="44.6092966" lon="15.8065778"><ele>1204.0</ele><time>2026-04-27T10:43:00.386Z</time></trkpt><trkpt lat="44.609386" lon="15.8065822"><ele>1204.0</ele><time>2026-04-27T10:43:01.387Z</time></trkpt><trkpt lat="44.6095092" lon="15.806591"><ele>1204.0</ele><time>2026-04-27T10:43:03.386Z</time></trkpt><trkpt lat="44.6096154" lon="15.8066091"><ele>1204.0</ele><time>2026-04-27T10:43:05.386Z</time></trkpt><trkpt lat="44.6096796" lon="15.8066954"><ele>1205.8333333333333</ele><time>2026-04-27T10:43:07.386Z</time></trkpt><trkpt lat="44.6097209" lon="15.8067866"><ele>1207.6666666666665</ele><time>2026-04-27T10:43:08.386Z</time></trkpt><trkpt lat="44.6097619" lon="15.8068727"><ele>1209.5</ele><time>2026-04-27T10:43:09.386Z</time></trkpt><trkpt lat="44.6097979" lon="15.8069641"><ele>1211.3333333333333</ele><time>2026-04-27T10:43:10.386Z</time></trkpt><trkpt lat="44.6098233" lon="15.8070592"><ele>1213.1666666666667</ele><time>2026-04-27T10:43:11.386Z</time></trkpt><trkpt lat="44.6097952" lon="15.8071636"><ele>1215.0</ele><time>2026-04-27T10:43:13.386Z</time></trkpt><trkpt lat="44.6097613" lon="15.8073386"><ele>1217.0</ele><time>2026-04-27T10:43:15.387Z</time></trkpt><trkpt lat="44.6096855" lon="15.8074512"><ele>1219.0</ele><time>2026-04-27T10:43:16.386Z</time></trkpt><trkpt lat="44.6096563" lon="15.8075551"><ele>1221.0</ele><time>2026-04-27T10:43:17.386Z</time></trkpt><trkpt lat="44.6096498" lon="15.8076807"><ele>1223.0</ele><time>2026-04-27T10:43:18.386Z</time></trkpt><trkpt lat="44.609639" lon="15.807808"><ele>1225.0</ele><time>2026-04-27T10:43:19.386Z</time></trkpt><trkpt lat="44.609641" lon="15.8079258"><ele>1228.0</ele><time>2026-04-27T10:43:20.387Z</time></trkpt><trkpt lat="44.6096448" lon="15.808041"><ele>1231.0</ele><time>2026-04-27T10:43:21.386Z</time></trkpt><trkpt lat="44.6096479" lon="15.8081486"><ele>1234.0</ele><time>2026-04-27T10:43:22.387Z</time></trkpt><trkpt lat="44.6096371" lon="15.8082615"><ele>1237.0</ele><time>2026-04-27T10:43:23.386Z</time></trkpt><trkpt lat="44.6095521" lon="15.8084112"><ele>1240.0</ele><time>2026-04-27T10:43:25.386Z</time></trkpt><trkpt lat="44.609513" lon="15.8085392"><ele>1239.0</ele><time>2026-04-27T10:43:26.386Z</time></trkpt><trkpt lat="44.6094448" lon="15.8086515"><ele>1238.0</ele><time>2026-04-27T10:43:27.387Z</time></trkpt><trkpt lat="44.6093825" lon="15.8087402"><ele>1237.0</ele><time>2026-04-27T10:43:28.386Z</time></trkpt><trkpt lat="44.609312" lon="15.8088719"><ele>1236.0</ele><time>2026-04-27T10:43:29.387Z</time></trkpt><trkpt lat="44.609252" lon="15.8090031"><ele>1235.0</ele><time>2026-04-27T10:43:30.386Z</time></trkpt><trkpt lat="44.6091869" lon="15.8091289"><ele>1235.0</ele><time>2026-04-27T10:43:31.387Z</time></trkpt><trkpt lat="44.609115" lon="15.8092483"><ele>1235.0</ele><time>2026-04-27T10:43:32.386Z</time></trkpt><trkpt lat="44.6090369" lon="15.8093568"><ele>1235.0</ele><time>2026-04-27T10:43:33.386Z</time></trkpt><trkpt lat="44.6089445" lon="15.8094336"><ele>1235.0</ele><time>2026-04-27T10:43:34.386Z</time></trkpt><trkpt lat="44.6088649" lon="15.8095035"><ele>1235.0</ele><time>2026-04-27T10:43:35.386Z</time></trkpt><trkpt lat="44.6087698" lon="15.8095733"><ele>1236.2</ele><time>2026-04-27T10:43:36.386Z</time></trkpt><trkpt lat="44.6086796" lon="15.8096716"><ele>1237.4</ele><time>2026-04-27T10:43:37.386Z</time></trkpt><trkpt lat="44.6085868" lon="15.8097049"><ele>1238.6</ele><time>2026-04-27T10:43:38.386Z</time></trkpt><trkpt lat="44.6085212" lon="15.8097624"><ele>1239.8</ele><time>2026-04-27T10:43:39.386Z</time></trkpt><trkpt lat="44.6084473" lon="15.8098367"><ele>1241.0</ele><time>2026-04-27T10:43:40.386Z</time></trkpt><trkpt lat="44.6083793" lon="15.8099365"><ele>1241.0</ele><time>2026-04-27T10:43:41.387Z</time></trkpt><trkpt lat="44.6083047" lon="15.8100495"><ele>1241.0</ele><time>2026-04-27T10:43:42.386Z</time></trkpt><trkpt lat="44.6082246" lon="15.8101778"><ele>1241.0</ele><time>2026-04-27T10:43:43.387Z</time></trkpt><trkpt lat="44.6081606" lon="15.8102961"><ele>1241.0</ele><time>2026-04-27T10:43:44.386Z</time></trkpt><trkpt lat="44.6080794" lon="15.8103947"><ele>1241.0</ele><time>2026-04-27T10:43:45.386Z</time></trkpt><trkpt lat="44.6079965" lon="15.8104864"><ele>1241.8333333333335</ele><time>2026-04-27T10:43:46.386Z</time></trkpt><trkpt lat="44.6079223" lon="15.8105555"><ele>1242.6666666666667</ele><time>2026-04-27T10:43:47.386Z</time></trkpt><trkpt lat="44.6078551" lon="15.8106189"><ele>1243.5</ele><time>2026-04-27T10:43:48.387Z</time></trkpt><trkpt lat="44.6077914" lon="15.810681"><ele>1244.3333333333333</ele><time>2026-04-27T10:43:49.386Z</time></trkpt><trkpt lat="44.6077328" lon="15.8107508"><ele>1245.1666666666665</ele><time>2026-04-27T10:43:50.386Z</time></trkpt><trkpt lat="44.6076995" lon="15.810839"><ele>1246.0</ele><time>2026-04-27T10:43:51.386Z</time></trkpt><trkpt lat="44.6076856" lon="15.811012"><ele>1246.6666666666665</ele><time>2026-04-27T10:43:53.387Z</time></trkpt><trkpt lat="44.6076811" lon="15.8111106"><ele>1247.3333333333333</ele><time>2026-04-27T10:43:54.386Z</time></trkpt><trkpt lat="44.6076926" lon="15.8112113"><ele>1248.0</ele><time>2026-04-27T10:43:55.386Z</time></trkpt><trkpt lat="44.6077191" lon="15.8113032"><ele>1248.6666666666667</ele><time>2026-04-27T10:43:56.386Z</time></trkpt><trkpt lat="44.6077619" lon="15.8113876"><ele>1249.3333333333335</ele><time>2026-04-27T10:43:57.386Z</time></trkpt><trkpt lat="44.6078152" lon="15.8114609"><ele>1250.0</ele><time>2026-04-27T10:43:58.386Z</time></trkpt><trkpt lat="44.6078938" lon="15.8115221"><ele>1250.0</ele><time>2026-04-27T10:43:59.386Z</time></trkpt><trkpt lat="44.6079609" lon="15.811579"><ele>1250.0</ele><time>2026-04-27T10:44:00.387Z</time></trkpt><trkpt lat="44.6080191" lon="15.8116434"><ele>1250.0</ele><time>2026-04-27T10:44:01.386Z</time></trkpt><trkpt lat="44.6080131" lon="15.8117732"><ele>1250.0</ele><time>2026-04-27T10:44:04.386Z</time></trkpt><trkpt lat="44.6079291" lon="15.8118811"><ele>1250.0</ele><time>2026-04-27T10:44:06.386Z</time></trkpt><trkpt lat="44.607858" lon="15.8119204"><ele>1250.0</ele><time>2026-04-27T10:44:07.386Z</time></trkpt><trkpt lat="44.6077516" lon="15.8120268"><ele>1251.4</ele><time>2026-04-27T10:44:09.387Z</time></trkpt><trkpt lat="44.6076656" lon="15.8121618"><ele>1252.8</ele><time>2026-04-27T10:44:11.386Z</time></trkpt><trkpt lat="44.6076302" lon="15.8122992"><ele>1254.2</ele><time>2026-04-27T10:44:12.386Z</time></trkpt><trkpt lat="44.6076009" lon="15.8124135"><ele>1255.6</ele><time>2026-04-27T10:44:13.386Z</time></trkpt><trkpt lat="44.6075871" lon="15.8125821"><ele>1257.0</ele><time>2026-04-27T10:44:14.386Z</time></trkpt><trkpt lat="44.607569" lon="15.8127146"><ele>1259.2</ele><time>2026-04-27T10:44:15.386Z</time></trkpt><trkpt lat="44.6074773" lon="15.8128514"><ele>1261.4</ele><time>2026-04-27T10:44:16.386Z</time></trkpt><trkpt lat="44.6074211" lon="15.8129805"><ele>1263.6</ele><time>2026-04-27T10:44:17.386Z</time></trkpt><trkpt lat="44.6073551" lon="15.8130803"><ele>1265.8</ele><time>2026-04-27T10:44:18.386Z</time></trkpt><trkpt lat="44.6072866" lon="15.8131687"><ele>1268.0</ele><time>2026-04-27T10:44:19.386Z</time></trkpt><trkpt lat="44.607222" lon="15.8132164"><ele>1268.0</ele><time>2026-04-27T10:44:20.386Z</time></trkpt><trkpt lat="44.6071427" lon="15.8132611"><ele>1268.0</ele><time>2026-04-27T10:44:21.386Z</time></trkpt><trkpt lat="44.6070314" lon="15.8132954"><ele>1268.0</ele><time>2026-04-27T10:44:22.386Z</time></trkpt><trkpt lat="44.6069253" lon="15.813348"><ele>1268.0</ele><time>2026-04-27T10:44:23.386Z</time></trkpt><trkpt lat="44.6068182" lon="15.8133958"><ele>1268.0</ele><time>2026-04-27T10:44:24.386Z</time></trkpt><trkpt lat="44.6067402" lon="15.8134458"><ele>1270.0</ele><time>2026-04-27T10:44:25.386Z</time></trkpt><trkpt lat="44.6066654" lon="15.8135134"><ele>1272.0</ele><time>2026-04-27T10:44:26.387Z</time></trkpt><trkpt lat="44.6066028" lon="15.8136045"><ele>1274.0</ele><time>2026-04-27T10:44:27.387Z</time></trkpt><trkpt lat="44.6065375" lon="15.8136847"><ele>1276.0</ele><time>2026-04-27T10:44:28.386Z</time></trkpt><trkpt lat="44.6064807" lon="15.8137907"><ele>1278.0</ele><time>2026-04-27T10:44:29.386Z</time></trkpt><trkpt lat="44.6064314" lon="15.8138977"><ele>1278.0</ele><time>2026-04-27T10:44:30.386Z</time></trkpt><trkpt lat="44.6064058" lon="15.8139827"><ele>1278.0</ele><time>2026-04-27T10:44:31.386Z</time></trkpt><trkpt lat="44.6063173" lon="15.8140471"><ele>1278.0</ele><time>2026-04-27T10:44:32.387Z</time></trkpt><trkpt lat="44.6062429" lon="15.8141403"><ele>1278.0</ele><time>2026-04-27T10:44:33.386Z</time></trkpt><trkpt lat="44.6061124" lon="15.8142036"><ele>1278.0</ele><time>2026-04-27T10:44:34.387Z</time></trkpt><trkpt lat="44.6059915" lon="15.8143065"><ele>1277.0</ele><time>2026-04-27T10:44:35.386Z</time></trkpt><trkpt lat="44.6058507" lon="15.8143952"><ele>1276.0</ele><time>2026-04-27T10:44:36.386Z</time></trkpt><trkpt lat="44.6057346" lon="15.8144882"><ele>1275.0</ele><time>2026-04-27T10:44:37.386Z</time></trkpt><trkpt lat="44.6056303" lon="15.8145634"><ele>1274.0</ele><time>2026-04-27T10:44:38.386Z</time></trkpt><trkpt lat="44.6055378" lon="15.814648"><ele>1274.0</ele><time>2026-04-27T10:44:39.387Z</time></trkpt><trkpt lat="44.6054689" lon="15.8146975"><ele>1274.0</ele><time>2026-04-27T10:44:40.386Z</time></trkpt><trkpt lat="44.6053995" lon="15.8147547"><ele>1274.0</ele><time>2026-04-27T10:44:41.386Z</time></trkpt><trkpt lat="44.6053391" lon="15.8148328"><ele>1274.0</ele><time>2026-04-27T10:44:42.386Z</time></trkpt><trkpt lat="44.6052936" lon="15.8149445"><ele>1274.0</ele><time>2026-04-27T10:44:43.387Z</time></trkpt><trkpt lat="44.6052413" lon="15.8150652"><ele>1274.0</ele><time>2026-04-27T10:44:44.387Z</time></trkpt><trkpt lat="44.6052118" lon="15.8151758"><ele>1273.0</ele><time>2026-04-27T10:44:45.386Z</time></trkpt><trkpt lat="44.6051561" lon="15.8152831"><ele>1272.0</ele><time>2026-04-27T10:44:46.386Z</time></trkpt><trkpt lat="44.6051218" lon="15.8153737"><ele>1271.0</ele><time>2026-04-27T10:44:47.386Z</time></trkpt><trkpt lat="44.6050862" lon="15.8154709"><ele>1270.0</ele><time>2026-04-27T10:44:48.386Z</time></trkpt><trkpt lat="44.6050363" lon="15.8155743"><ele>1269.0</ele><time>2026-04-27T10:44:49.386Z</time></trkpt><trkpt lat="44.6049602" lon="15.8156448"><ele>1268.0</ele><time>2026-04-27T10:44:50.386Z</time></trkpt><trkpt lat="44.6048896" lon="15.8157015"><ele>1268.0</ele><time>2026-04-27T10:44:51.386Z</time></trkpt><trkpt lat="44.6048037" lon="15.8157914"><ele>1268.0</ele><time>2026-04-27T10:44:52.386Z</time></trkpt><trkpt lat="44.6047461" lon="15.8158789"><ele>1268.0</ele><time>2026-04-27T10:44:53.386Z</time></trkpt><trkpt lat="44.6046791" lon="15.8159732"><ele>1268.0</ele><time>2026-04-27T10:44:54.386Z</time></trkpt><trkpt lat="44.6046437" lon="15.8160851"><ele>1268.0</ele><time>2026-04-27T10:44:55.386Z</time></trkpt><trkpt lat="44.6046047" lon="15.816193"><ele>1268.0</ele><time>2026-04-27T10:44:56.386Z</time></trkpt><trkpt lat="44.6045684" lon="15.8163611"><ele>1268.0</ele><time>2026-04-27T10:44:58.386Z</time></trkpt><trkpt lat="44.6045649" lon="15.816484"><ele>1268.0</ele><time>2026-04-27T10:44:59.386Z</time></trkpt><trkpt lat="44.6045743" lon="15.8166024"><ele>1268.0</ele><time>2026-04-27T10:45:00.386Z</time></trkpt><trkpt lat="44.6045993" lon="15.8167199"><ele>1268.0</ele><time>2026-04-27T10:45:01.386Z</time></trkpt><trkpt lat="44.6046239" lon="15.8168104"><ele>1267.8333333333335</ele><time>2026-04-27T10:45:02.387Z</time></trkpt><trkpt lat="44.6046648" lon="15.8169251"><ele>1267.6666666666667</ele><time>2026-04-27T10:45:03.386Z</time></trkpt><trkpt lat="44.6047153" lon="15.8170151"><ele>1267.5</ele><time>2026-04-27T10:45:04.387Z</time></trkpt><trkpt lat="44.6047673" lon="15.8171087"><ele>1267.3333333333333</ele><time>2026-04-27T10:45:05.386Z</time></trkpt><trkpt lat="44.6048227" lon="15.8171887"><ele>1267.1666666666665</ele><time>2026-04-27T10:45:06.386Z</time></trkpt><trkpt lat="44.6048961" lon="15.817288"><ele>1267.0</ele><time>2026-04-27T10:45:07.386Z</time></trkpt><trkpt lat="44.6049447" lon="15.8173912"><ele>1267.0</ele><time>2026-04-27T10:45:08.387Z</time></trkpt><trkpt lat="44.6050043" lon="15.8174621"><ele>1267.0</ele><time>2026-04-27T10:45:09.387Z</time></trkpt><trkpt lat="44.6050457" lon="15.817536"><ele>1267.0</ele><time>2026-04-27T10:45:10.386Z</time></trkpt><trkpt lat="44.6050965" lon="15.8176164"><ele>1267.0</ele><time>2026-04-27T10:45:11.386Z</time></trkpt><trkpt lat="44.6051469" lon="15.8177983"><ele>1267.0</ele><time>2026-04-27T10:45:13.386Z</time></trkpt><trkpt lat="44.6051636" lon="15.8178987"><ele>1267.0</ele><time>2026-04-27T10:45:14.387Z</time></trkpt><trkpt lat="44.605165" lon="15.8180748"><ele>1266.8333333333333</ele><time>2026-04-27T10:45:16.386Z</time></trkpt><trkpt lat="44.6051589" lon="15.8181695"><ele>1266.6666666666665</ele><time>2026-04-27T10:45:17.387Z</time></trkpt><trkpt lat="44.6051477" lon="15.8182692"><ele>1266.5</ele><time>2026-04-27T10:45:18.386Z</time></trkpt><trkpt lat="44.6051391" lon="15.8184029"><ele>1266.3333333333333</ele><time>2026-04-27T10:45:19.386Z</time></trkpt><trkpt lat="44.6051204" lon="15.818535"><ele>1266.1666666666667</ele><time>2026-04-27T10:45:20.386Z</time></trkpt><trkpt lat="44.6051034" lon="15.8186566"><ele>1266.0</ele><time>2026-04-27T10:45:21.386Z</time></trkpt><trkpt lat="44.6050821" lon="15.8187581"><ele>1264.6</ele><time>2026-04-27T10:45:22.387Z</time></trkpt><trkpt lat="44.6050658" lon="15.8188605"><ele>1263.1999999999998</ele><time>2026-04-27T10:45:23.386Z</time></trkpt><trkpt lat="44.6050489" lon="15.8189643"><ele>1261.8000000000002</ele><time>2026-04-27T10:45:24.386Z</time></trkpt><trkpt lat="44.6050206" lon="15.8190911"><ele>1260.4</ele><time>2026-04-27T10:45:25.386Z</time></trkpt><trkpt lat="44.6049718" lon="15.819293"><ele>1259.0</ele><time>2026-04-27T10:45:26.387Z</time></trkpt><trkpt lat="44.6048769" lon="15.8193947"><ele>1257.6000000000001</ele><time>2026-04-27T10:45:27.386Z</time></trkpt><trkpt lat="44.604823" lon="15.8195242"><ele>1256.2</ele><time>2026-04-27T10:45:28.386Z</time></trkpt><trkpt lat="44.604764" lon="15.81964"><ele>1254.8000000000002</ele><time>2026-04-27T10:45:29.387Z</time></trkpt><trkpt lat="44.6047076" lon="15.8197546"><ele>1253.4</ele><time>2026-04-27T10:45:30.387Z</time></trkpt><trkpt lat="44.6046502" lon="15.8198719"><ele>1252.0</ele><time>2026-04-27T10:45:31.386Z</time></trkpt><trkpt lat="44.6046177" lon="15.8199701"><ele>1252.0</ele><time>2026-04-27T10:45:32.386Z</time></trkpt><trkpt lat="44.6045922" lon="15.8200984"><ele>1252.0</ele><time>2026-04-27T10:45:33.387Z</time></trkpt><trkpt lat="44.6045768" lon="15.8202225"><ele>1252.0</ele><time>2026-04-27T10:45:34.387Z</time></trkpt><trkpt lat="44.6045775" lon="15.8203326"><ele>1252.0</ele><time>2026-04-27T10:45:35.386Z</time></trkpt><trkpt lat="44.6045862" lon="15.8204222"><ele>1252.0</ele><time>2026-04-27T10:45:36.387Z</time></trkpt><trkpt lat="44.6046089" lon="15.8205382"><ele>1252.0</ele><time>2026-04-27T10:45:37.386Z</time></trkpt><trkpt lat="44.6046522" lon="15.8206765"><ele>1251.3333333333333</ele><time>2026-04-27T10:45:38.386Z</time></trkpt><trkpt lat="44.6046968" lon="15.8207708"><ele>1250.6666666666665</ele><time>2026-04-27T10:45:39.386Z</time></trkpt><trkpt lat="44.6047344" lon="15.8209005"><ele>1250.0</ele><time>2026-04-27T10:45:40.386Z</time></trkpt><trkpt lat="44.6047789" lon="15.8209769"><ele>1249.3333333333333</ele><time>2026-04-27T10:45:41.387Z</time></trkpt><trkpt lat="44.6048049" lon="15.8211013"><ele>1248.6666666666667</ele><time>2026-04-27T10:45:42.386Z</time></trkpt><trkpt lat="44.6047913" lon="15.8212046"><ele>1248.0</ele><time>2026-04-27T10:45:43.387Z</time></trkpt><trkpt lat="44.604795" lon="15.8213089"><ele>1247.0</ele><time>2026-04-27T10:45:44.387Z</time></trkpt><trkpt lat="44.6047826" lon="15.8214363"><ele>1246.0</ele><time>2026-04-27T10:45:45.386Z</time></trkpt><trkpt lat="44.6047761" lon="15.8215247"><ele>1245.0</ele><time>2026-04-27T10:45:46.386Z</time></trkpt><trkpt lat="44.6047387" lon="15.8216475"><ele>1244.0</ele><time>2026-04-27T10:45:47.386Z</time></trkpt><trkpt lat="44.6047103" lon="15.8217806"><ele>1243.0</ele><time>2026-04-27T10:45:48.386Z</time></trkpt><trkpt lat="44.6046512" lon="15.8218542"><ele>1242.0</ele><time>2026-04-27T10:45:49.386Z</time></trkpt><trkpt lat="44.6046046" lon="15.821962"><ele>1241.0</ele><time>2026-04-27T10:45:50.386Z</time></trkpt><trkpt lat="44.6045628" lon="15.8220552"><ele>1240.0</ele><time>2026-04-27T10:45:51.386Z</time></trkpt><trkpt lat="44.604523" lon="15.8221661"><ele>1239.0</ele><time>2026-04-27T10:45:52.386Z</time></trkpt><trkpt lat="44.6044866" lon="15.8222697"><ele>1238.0</ele><time>2026-04-27T10:45:53.386Z</time></trkpt><trkpt lat="44.6044537" lon="15.8223809"><ele>1237.0</ele><time>2026-04-27T10:45:54.386Z</time></trkpt><trkpt lat="44.6044423" lon="15.8225221"><ele>1236.0</ele><time>2026-04-27T10:45:55.386Z</time></trkpt><trkpt lat="44.6044311" lon="15.8226357"><ele>1237.1666666666667</ele><time>2026-04-27T10:45:56.386Z</time></trkpt><trkpt lat="44.6044227" lon="15.8227449"><ele>1238.3333333333333</ele><time>2026-04-27T10:45:57.386Z</time></trkpt><trkpt lat="44.6043942" lon="15.8228897"><ele>1239.5</ele><time>2026-04-27T10:45:59.386Z</time></trkpt><trkpt lat="44.6043772" lon="15.8229769"><ele>1240.6666666666665</ele><time>2026-04-27T10:46:00.386Z</time></trkpt><trkpt lat="44.6043375" lon="15.8230809"><ele>1241.8333333333333</ele><time>2026-04-27T10:46:01.386Z</time></trkpt><trkpt lat="44.6043127" lon="15.8231752"><ele>1243.0</ele><time>2026-04-27T10:46:02.386Z</time></trkpt><trkpt lat="44.60429" lon="15.8233285"><ele>1243.0</ele><time>2026-04-27T10:46:04.386Z</time></trkpt><trkpt lat="44.6043262" lon="15.823452"><ele>1243.0</ele><time>2026-04-27T10:46:05.386Z</time></trkpt><trkpt lat="44.6043807" lon="15.8235609"><ele>1243.0</ele><time>2026-04-27T10:46:06.386Z</time></trkpt><trkpt lat="44.6044551" lon="15.8236468"><ele>1243.0</ele><time>2026-04-27T10:46:07.386Z</time></trkpt><trkpt lat="44.6045108" lon="15.8237249"><ele>1243.0</ele><time>2026-04-27T10:46:08.386Z</time></trkpt><trkpt lat="44.6045684" lon="15.8238107"><ele>1243.0</ele><time>2026-04-27T10:46:09.386Z</time></trkpt><trkpt lat="44.6046086" lon="15.8238971"><ele>1241.25</ele><time>2026-04-27T10:46:10.386Z</time></trkpt><trkpt lat="44.6046531" lon="15.8240914"><ele>1239.5</ele><time>2026-04-27T10:46:12.386Z</time></trkpt><trkpt lat="44.6047" lon="15.8241804"><ele>1237.75</ele><time>2026-04-27T10:46:13.386Z</time></trkpt><trkpt lat="44.6047504" lon="15.8243416"><ele>1236.0</ele><time>2026-04-27T10:46:14.386Z</time></trkpt><trkpt lat="44.6048195" lon="15.8244605"><ele>1236.0</ele><time>2026-04-27T10:46:15.386Z</time></trkpt><trkpt lat="44.6048947" lon="15.8245515"><ele>1236.0</ele><time>2026-04-27T10:46:16.386Z</time></trkpt><trkpt lat="44.6049439" lon="15.8246665"><ele>1236.0</ele><time>2026-04-27T10:46:17.387Z</time></trkpt><trkpt lat="44.6049769" lon="15.8247691"><ele>1236.0</ele><time>2026-04-27T10:46:18.386Z</time></trkpt><trkpt lat="44.6050075" lon="15.824869"><ele>1236.0</ele><time>2026-04-27T10:46:19.386Z</time></trkpt><trkpt lat="44.6050413" lon="15.8249994"><ele>1235.3999999999999</ele><time>2026-04-27T10:46:20.387Z</time></trkpt><trkpt lat="44.6050838" lon="15.8251516"><ele>1234.8</ele><time>2026-04-27T10:46:21.386Z</time></trkpt><trkpt lat="44.6050975" lon="15.8252966"><ele>1234.1999999999998</ele><time>2026-04-27T10:46:22.386Z</time></trkpt><trkpt lat="44.6050897" lon="15.8254104"><ele>1233.6</ele><time>2026-04-27T10:46:23.386Z</time></trkpt><trkpt lat="44.6050708" lon="15.8255107"><ele>1233.0</ele><time>2026-04-27T10:46:24.386Z</time></trkpt><trkpt lat="44.6050336" lon="15.8256281"><ele>1233.0</ele><time>2026-04-27T10:46:25.386Z</time></trkpt><trkpt lat="44.6049911" lon="15.8257326"><ele>1233.0</ele><time>2026-04-27T10:46:26.386Z</time></trkpt><trkpt lat="44.60492" lon="15.8258445"><ele>1233.0</ele><time>2026-04-27T10:46:27.386Z</time></trkpt><trkpt lat="44.6048644" lon="15.825986"><ele>1233.0</ele><time>2026-04-27T10:46:28.386Z</time></trkpt><trkpt lat="44.6047944" lon="15.8261096"><ele>1233.0</ele><time>2026-04-27T10:46:29.386Z</time></trkpt><trkpt lat="44.6047345" lon="15.8262382"><ele>1232.4</ele><time>2026-04-27T10:46:30.386Z</time></trkpt><trkpt lat="44.6046785" lon="15.8263636"><ele>1231.8</ele><time>2026-04-27T10:46:31.386Z</time></trkpt><trkpt lat="44.6046304" lon="15.8264926"><ele>1231.2</ele><time>2026-04-27T10:46:32.387Z</time></trkpt><trkpt lat="44.6045736" lon="15.8265868"><ele>1230.6</ele><time>2026-04-27T10:46:33.387Z</time></trkpt><trkpt lat="44.6044637" lon="15.8266743"><ele>1230.0</ele><time>2026-04-27T10:46:34.386Z</time></trkpt><trkpt lat="44.6043786" lon="15.8267182"><ele>1230.0</ele><time>2026-04-27T10:46:35.386Z</time></trkpt><trkpt lat="44.6042693" lon="15.8267731"><ele>1230.0</ele><time>2026-04-27T10:46:36.386Z</time></trkpt><trkpt lat="44.6041528" lon="15.8268339"><ele>1230.0</ele><time>2026-04-27T10:46:37.386Z</time></trkpt><trkpt lat="44.6040146" lon="15.8268705"><ele>1230.0</ele><time>2026-04-27T10:46:38.386Z</time></trkpt><trkpt lat="44.6038925" lon="15.8268592"><ele>1230.0</ele><time>2026-04-27T10:46:39.386Z</time></trkpt><trkpt lat="44.6037678" lon="15.8268775"><ele>1230.0</ele><time>2026-04-27T10:46:40.386Z</time></trkpt><trkpt lat="44.6036296" lon="15.8269073"><ele>1230.0</ele><time>2026-04-27T10:46:41.386Z</time></trkpt><trkpt lat="44.6034725" lon="15.8269764"><ele>1230.0</ele><time>2026-04-27T10:46:42.386Z</time></trkpt><trkpt lat="44.603327" lon="15.8270383"><ele>1229.0</ele><time>2026-04-27T10:46:43.386Z</time></trkpt><trkpt lat="44.6032043" lon="15.827143"><ele>1228.0</ele><time>2026-04-27T10:46:44.386Z</time></trkpt><trkpt lat="44.6030836" lon="15.8272281"><ele>1227.0</ele><time>2026-04-27T10:46:45.386Z</time></trkpt><trkpt lat="44.6029798" lon="15.8273226"><ele>1226.0</ele><time>2026-04-27T10:46:46.387Z</time></trkpt><trkpt lat="44.6028804" lon="15.8274455"><ele>1226.25</ele><time>2026-04-27T10:46:47.386Z</time></trkpt><trkpt lat="44.6027691" lon="15.8275428"><ele>1226.5</ele><time>2026-04-27T10:46:48.386Z</time></trkpt><trkpt lat="44.602661" lon="15.8276028"><ele>1226.75</ele><time>2026-04-27T10:46:49.386Z</time></trkpt><trkpt lat="44.602561" lon="15.8276201"><ele>1227.0</ele><time>2026-04-27T10:46:50.386Z</time></trkpt><trkpt lat="44.6024576" lon="15.8276106"><ele>1227.0</ele><time>2026-04-27T10:46:51.386Z</time></trkpt><trkpt lat="44.6023537" lon="15.827581"><ele>1227.0</ele><time>2026-04-27T10:46:52.386Z</time></trkpt><trkpt lat="44.6022466" lon="15.8275449"><ele>1227.0</ele><time>2026-04-27T10:46:53.386Z</time></trkpt><trkpt lat="44.6021653" lon="15.8274545"><ele>1227.0</ele><time>2026-04-27T10:46:54.386Z</time></trkpt><trkpt lat="44.6021021" lon="15.8273153"><ele>1227.0</ele><time>2026-04-27T10:46:55.386Z</time></trkpt><trkpt lat="44.6020434" lon="15.827161"><ele>1225.75</ele><time>2026-04-27T10:46:56.386Z</time></trkpt><trkpt lat="44.6019973" lon="15.8269969"><ele>1224.5</ele><time>2026-04-27T10:46:57.386Z</time></trkpt><trkpt lat="44.6019526" lon="15.8268306"><ele>1223.25</ele><time>2026-04-27T10:46:58.387Z</time></trkpt><trkpt lat="44.6018875" lon="15.8266846"><ele>1222.0</ele><time>2026-04-27T10:46:59.386Z</time></trkpt><trkpt lat="44.6018155" lon="15.8265492"><ele>1222.0</ele><time>2026-04-27T10:47:00.386Z</time></trkpt><trkpt lat="44.6017194" lon="15.8264407"><ele>1222.0</ele><time>2026-04-27T10:47:01.386Z</time></trkpt><trkpt lat="44.6016026" lon="15.8263356"><ele>1222.0</ele><time>2026-04-27T10:47:02.387Z</time></trkpt><trkpt lat="44.6014738" lon="15.8262409"><ele>1222.0</ele><time>2026-04-27T10:47:03.387Z</time></trkpt><trkpt lat="44.6013541" lon="15.8261527"><ele>1222.0</ele><time>2026-04-27T10:47:04.386Z</time></trkpt><trkpt lat="44.6012335" lon="15.8260711"><ele>1222.0</ele><time>2026-04-27T10:47:05.387Z</time></trkpt><trkpt lat="44.6011026" lon="15.8259976"><ele>1222.0</ele><time>2026-04-27T10:47:06.386Z</time></trkpt><trkpt lat="44.6009633" lon="15.8259063"><ele>1222.0</ele><time>2026-04-27T10:47:07.387Z</time></trkpt><trkpt lat="44.6008175" lon="15.8258185"><ele>1221.0</ele><time>2026-04-27T10:47:08.386Z</time></trkpt><trkpt lat="44.6006649" lon="15.8257307"><ele>1220.0</ele><time>2026-04-27T10:47:09.386Z</time></trkpt><trkpt lat="44.6005236" lon="15.8256484"><ele>1219.0</ele><time>2026-04-27T10:47:10.386Z</time></trkpt><trkpt lat="44.6003955" lon="15.8255801"><ele>1217.6000000000001</ele><time>2026-04-27T10:47:11.386Z</time></trkpt><trkpt lat="44.6002828" lon="15.8255296"><ele>1216.2</ele><time>2026-04-27T10:47:12.387Z</time></trkpt><trkpt lat="44.600189" lon="15.8254947"><ele>1214.8000000000002</ele><time>2026-04-27T10:47:13.386Z</time></trkpt><trkpt lat="44.6000848" lon="15.8254818"><ele>1213.4</ele><time>2026-04-27T10:47:14.386Z</time></trkpt><trkpt lat="44.5999717" lon="15.8254952"><ele>1212.0</ele><time>2026-04-27T10:47:15.387Z</time></trkpt><trkpt lat="44.5998569" lon="15.8255513"><ele>1212.0</ele><time>2026-04-27T10:47:16.387Z</time></trkpt><trkpt lat="44.5997412" lon="15.8256329"><ele>1212.0</ele><time>2026-04-27T10:47:17.386Z</time></trkpt><trkpt lat="44.5996343" lon="15.8257306"><ele>1212.0</ele><time>2026-04-27T10:47:18.387Z</time></trkpt><trkpt lat="44.5995456" lon="15.8258401"><ele>1212.0</ele><time>2026-04-27T10:47:19.387Z</time></trkpt><trkpt lat="44.5994669" lon="15.8259789"><ele>1211.0</ele><time>2026-04-27T10:47:20.386Z</time></trkpt><trkpt lat="44.5994007" lon="15.8261426"><ele>1210.0</ele><time>2026-04-27T10:47:21.387Z</time></trkpt><trkpt lat="44.5993222" lon="15.8263397"><ele>1209.0</ele><time>2026-04-27T10:47:22.387Z</time></trkpt><trkpt lat="44.599224" lon="15.8265612"><ele>1209.0</ele><time>2026-04-27T10:47:23.386Z</time></trkpt><trkpt lat="44.5991398" lon="15.8267752"><ele>1209.0</ele><time>2026-04-27T10:47:24.387Z</time></trkpt><trkpt lat="44.5990341" lon="15.8269328"><ele>1209.0</ele><time>2026-04-27T10:47:25.386Z</time></trkpt><trkpt lat="44.5989283" lon="15.8271186"><ele>1209.0</ele><time>2026-04-27T10:47:26.387Z</time></trkpt><trkpt lat="44.598811" lon="15.8272961"><ele>1209.0</ele><time>2026-04-27T10:47:27.386Z</time></trkpt><trkpt lat="44.5986942" lon="15.8274851"><ele>1209.0</ele><time>2026-04-27T10:47:28.386Z</time></trkpt><trkpt lat="44.5985589" lon="15.8276489"><ele>1209.6666666666667</ele><time>2026-04-27T10:47:29.386Z</time></trkpt><trkpt lat="44.5983749" lon="15.8277973"><ele>1210.3333333333335</ele><time>2026-04-27T10:47:30.387Z</time></trkpt><trkpt lat="44.5982109" lon="15.8279833"><ele>1211.0</ele><time>2026-04-27T10:47:31.386Z</time></trkpt><trkpt lat="44.5980359" lon="15.8281556"><ele>1211.0</ele><time>2026-04-27T10:47:32.386Z</time></trkpt><trkpt lat="44.5978771" lon="15.8283392"><ele>1211.0</ele><time>2026-04-27T10:47:33.386Z</time></trkpt><trkpt lat="44.5977321" lon="15.8285098"><ele>1211.0</ele><time>2026-04-27T10:47:34.386Z</time></trkpt><trkpt lat="44.5975732" lon="15.828663"><ele>1212.0</ele><time>2026-04-27T10:47:35.386Z</time></trkpt><trkpt lat="44.5974404" lon="15.8288157"><ele>1213.0</ele><time>2026-04-27T10:47:36.387Z</time></trkpt><trkpt lat="44.5972999" lon="15.8289461"><ele>1214.0</ele><time>2026-04-27T10:47:37.387Z</time></trkpt><trkpt lat="44.5971785" lon="15.8290937"><ele>1214.0</ele><time>2026-04-27T10:47:38.386Z</time></trkpt><trkpt lat="44.5970274" lon="15.8292433"><ele>1214.0</ele><time>2026-04-27T10:47:39.386Z</time></trkpt><trkpt lat="44.59689" lon="15.8293875"><ele>1214.0</ele><time>2026-04-27T10:47:40.386Z</time></trkpt><trkpt lat="44.5967622" lon="15.8295181"><ele>1215.5</ele><time>2026-04-27T10:47:41.386Z</time></trkpt><trkpt lat="44.5966385" lon="15.8296461"><ele>1217.0</ele><time>2026-04-27T10:47:42.387Z</time></trkpt><trkpt lat="44.5965345" lon="15.8297597"><ele>1218.5</ele><time>2026-04-27T10:47:43.387Z</time></trkpt><trkpt lat="44.5964537" lon="15.8298593"><ele>1220.0</ele><time>2026-04-27T10:47:44.387Z</time></trkpt><trkpt lat="44.5963579" lon="15.8299906"><ele>1220.0</ele><time>2026-04-27T10:47:45.387Z</time></trkpt><trkpt lat="44.5962822" lon="15.8301398"><ele>1220.0</ele><time>2026-04-27T10:47:46.387Z</time></trkpt><trkpt lat="44.5962088" lon="15.8303062"><ele>1220.0</ele><time>2026-04-27T10:47:47.387Z</time></trkpt><trkpt lat="44.5961316" lon="15.8304829"><ele>1220.0</ele><time>2026-04-27T10:47:48.387Z</time></trkpt><trkpt lat="44.5960549" lon="15.830676"><ele>1220.0</ele><time>2026-04-27T10:47:49.386Z</time></trkpt><trkpt lat="44.5959798" lon="15.8308595"><ele>1220.0</ele><time>2026-04-27T10:47:50.386Z</time></trkpt><trkpt lat="44.5958933" lon="15.8310312"><ele>1220.0</ele><time>2026-04-27T10:47:51.386Z</time></trkpt><trkpt lat="44.595817" lon="15.8311749"><ele>1220.0</ele><time>2026-04-27T10:47:52.387Z</time></trkpt><trkpt lat="44.5957154" lon="15.8313291"><ele>1222.3333333333335</ele><time>2026-04-27T10:47:53.387Z</time></trkpt><trkpt lat="44.595622" lon="15.8314791"><ele>1224.6666666666667</ele><time>2026-04-27T10:47:54.386Z</time></trkpt><trkpt lat="44.5955028" lon="15.8316285"><ele>1227.0</ele><time>2026-04-27T10:47:55.387Z</time></trkpt><trkpt lat="44.5954012" lon="15.8317807"><ele>1229.75</ele><time>2026-04-27T10:47:56.386Z</time></trkpt><trkpt lat="44.5952846" lon="15.8319122"><ele>1232.5</ele><time>2026-04-27T10:47:57.387Z</time></trkpt><trkpt lat="44.5951834" lon="15.8320357"><ele>1235.25</ele><time>2026-04-27T10:47:58.387Z</time></trkpt><trkpt lat="44.5950953" lon="15.8321625"><ele>1238.0</ele><time>2026-04-27T10:47:59.386Z</time></trkpt><trkpt lat="44.5950246" lon="15.8322891"><ele>1238.0</ele><time>2026-04-27T10:48:00.386Z</time></trkpt><trkpt lat="44.5949572" lon="15.8324231"><ele>1238.0</ele><time>2026-04-27T10:48:01.386Z</time></trkpt><trkpt lat="44.5948898" lon="15.8325669"><ele>1238.0</ele><time>2026-04-27T10:48:02.387Z</time></trkpt><trkpt lat="44.5948567" lon="15.8327468"><ele>1238.0</ele><time>2026-04-27T10:48:03.386Z</time></trkpt><trkpt lat="44.5948367" lon="15.8329391"><ele>1240.3333333333335</ele><time>2026-04-27T10:48:04.386Z</time></trkpt><trkpt lat="44.5948317" lon="15.8331979"><ele>1242.6666666666667</ele><time>2026-04-27T10:48:05.386Z</time></trkpt><trkpt lat="44.5948308" lon="15.8334517"><ele>1245.0</ele><time>2026-04-27T10:48:06.386Z</time></trkpt><trkpt lat="44.594835" lon="15.8336892"><ele>1247.0</ele><time>2026-04-27T10:48:07.386Z</time></trkpt><trkpt lat="44.5948376" lon="15.8339167"><ele>1249.0</ele><time>2026-04-27T10:48:08.386Z</time></trkpt><trkpt lat="44.5948268" lon="15.8341406"><ele>1251.0</ele><time>2026-04-27T10:48:09.386Z</time></trkpt><trkpt lat="44.5948095" lon="15.8343392"><ele>1252.5</ele><time>2026-04-27T10:48:10.387Z</time></trkpt><trkpt lat="44.5947862" lon="15.8345274"><ele>1254.0</ele><time>2026-04-27T10:48:11.386Z</time></trkpt><trkpt lat="44.5947597" lon="15.8347034"><ele>1255.5</ele><time>2026-04-27T10:48:12.386Z</time></trkpt><trkpt lat="44.5947009" lon="15.8348776"><ele>1257.0</ele><time>2026-04-27T10:48:13.386Z</time></trkpt><trkpt lat="44.5946194" lon="15.8350494"><ele>1258.3333333333333</ele><time>2026-04-27T10:48:14.386Z</time></trkpt><trkpt lat="44.5944908" lon="15.8352591"><ele>1259.6666666666665</ele><time>2026-04-27T10:48:15.386Z</time></trkpt><trkpt lat="44.5943469" lon="15.8354734"><ele>1261.0</ele><time>2026-04-27T10:48:16.386Z</time></trkpt><trkpt lat="44.5942197" lon="15.8356634"><ele>1261.0</ele><time>2026-04-27T10:48:17.387Z</time></trkpt><trkpt lat="44.5941094" lon="15.8357743"><ele>1261.0</ele><time>2026-04-27T10:48:18.387Z</time></trkpt><trkpt lat="44.5940209" lon="15.8358666"><ele>1261.0</ele><time>2026-04-27T10:48:19.387Z</time></trkpt><trkpt lat="44.5939505" lon="15.8359307"><ele>1261.0</ele><time>2026-04-27T10:48:20.386Z</time></trkpt><trkpt lat="44.5938981" lon="15.8360018"><ele>1261.0</ele><time>2026-04-27T10:48:21.386Z</time></trkpt><trkpt lat="44.5938444" lon="15.8360979"><ele>1261.2</ele><time>2026-04-27T10:48:22.386Z</time></trkpt><trkpt lat="44.5937816" lon="15.8362094"><ele>1261.3999999999999</ele><time>2026-04-27T10:48:23.386Z</time></trkpt><trkpt lat="44.5937244" lon="15.8363296"><ele>1261.6</ele><time>2026-04-27T10:48:24.386Z</time></trkpt><trkpt lat="44.593676" lon="15.8364477"><ele>1261.8</ele><time>2026-04-27T10:48:25.386Z</time></trkpt><trkpt lat="44.5936349" lon="15.8366276"><ele>1262.0</ele><time>2026-04-27T10:48:26.387Z</time></trkpt><trkpt lat="44.5935713" lon="15.8368493"><ele>1262.0</ele><time>2026-04-27T10:48:27.386Z</time></trkpt><trkpt lat="44.5935057" lon="15.8370722"><ele>1262.0</ele><time>2026-04-27T10:48:28.386Z</time></trkpt><trkpt lat="44.5934229" lon="15.8372874"><ele>1262.0</ele><time>2026-04-27T10:48:29.386Z</time></trkpt><trkpt lat="44.5933392" lon="15.8374602"><ele>1262.0</ele><time>2026-04-27T10:48:30.386Z</time></trkpt><trkpt lat="44.5932603" lon="15.8376051"><ele>1262.0</ele><time>2026-04-27T10:48:31.387Z</time></trkpt><trkpt lat="44.5932061" lon="15.837707"><ele>1262.0</ele><time>2026-04-27T10:48:32.387Z</time></trkpt><trkpt lat="44.5931601" lon="15.8378023"><ele>1262.0</ele><time>2026-04-27T10:48:33.387Z</time></trkpt><trkpt lat="44.5930927" lon="15.837901"><ele>1262.0</ele><time>2026-04-27T10:48:35.386Z</time></trkpt><trkpt lat="44.5930016" lon="15.8379936"><ele>1262.75</ele><time>2026-04-27T10:48:37.387Z</time></trkpt><trkpt lat="44.5928898" lon="15.8380941"><ele>1263.5</ele><time>2026-04-27T10:48:38.387Z</time></trkpt><trkpt lat="44.5927824" lon="15.8381866"><ele>1264.25</ele><time>2026-04-27T10:48:39.387Z</time></trkpt><trkpt lat="44.5926617" lon="15.8382879"><ele>1265.0</ele><time>2026-04-27T10:48:40.386Z</time></trkpt><trkpt lat="44.5925297" lon="15.8383925"><ele>1264.0</ele><time>2026-04-27T10:48:41.386Z</time></trkpt><trkpt lat="44.5923863" lon="15.8385045"><ele>1263.0</ele><time>2026-04-27T10:48:42.387Z</time></trkpt><trkpt lat="44.5922235" lon="15.8385973"><ele>1262.0</ele><time>2026-04-27T10:48:43.386Z</time></trkpt><trkpt lat="44.5920536" lon="15.8386994"><ele>1263.6666666666667</ele><time>2026-04-27T10:48:44.386Z</time></trkpt><trkpt lat="44.5918674" lon="15.8388095"><ele>1265.3333333333333</ele><time>2026-04-27T10:48:45.387Z</time></trkpt><trkpt lat="44.591684" lon="15.8389231"><ele>1267.0</ele><time>2026-04-27T10:48:46.387Z</time></trkpt><trkpt lat="44.5915038" lon="15.8390347"><ele>1267.0</ele><time>2026-04-27T10:48:47.386Z</time></trkpt><trkpt lat="44.5913495" lon="15.8391361"><ele>1267.0</ele><time>2026-04-27T10:48:48.386Z</time></trkpt><trkpt lat="44.5911846" lon="15.8392441"><ele>1267.0</ele><time>2026-04-27T10:48:49.386Z</time></trkpt><trkpt lat="44.5910341" lon="15.8393433"><ele>1268.0</ele><time>2026-04-27T10:48:50.386Z</time></trkpt><trkpt lat="44.5908864" lon="15.8394521"><ele>1269.0</ele><time>2026-04-27T10:48:51.387Z</time></trkpt><trkpt lat="44.5906031" lon="15.8396724"><ele>1269.0</ele><time>2026-04-27T10:48:53.386Z</time></trkpt><trkpt lat="44.5904816" lon="15.8397708"><ele>1269.0</ele><time>2026-04-27T10:48:54.386Z</time></trkpt><trkpt lat="44.5902424" lon="15.8399722"><ele>1269.0</ele><time>2026-04-27T10:48:56.386Z</time></trkpt><trkpt lat="44.5901187" lon="15.8400708"><ele>1270.5</ele><time>2026-04-27T10:48:57.386Z</time></trkpt><trkpt lat="44.5899953" lon="15.8401636"><ele>1272.0</ele><time>2026-04-27T10:48:58.386Z</time></trkpt><trkpt lat="44.5898777" lon="15.8402492"><ele>1273.5</ele><time>2026-04-27T10:48:59.386Z</time></trkpt><trkpt lat="44.5897726" lon="15.8403177"><ele>1275.0</ele><time>2026-04-27T10:49:00.386Z</time></trkpt><trkpt lat="44.5896798" lon="15.8403782"><ele>1275.0</ele><time>2026-04-27T10:49:01.386Z</time></trkpt><trkpt lat="44.5895934" lon="15.8404318"><ele>1275.0</ele><time>2026-04-27T10:49:02.386Z</time></trkpt><trkpt lat="44.5895145" lon="15.8404782"><ele>1275.0</ele><time>2026-04-27T10:49:03.386Z</time></trkpt><trkpt lat="44.5894105" lon="15.8405311"><ele>1275.0</ele><time>2026-04-27T10:49:05.386Z</time></trkpt><trkpt lat="44.5894793" lon="15.840558"><ele>1275.0</ele><time>2026-04-27T10:49:19.386Z</time></trkpt><trkpt lat="44.589541" lon="15.8405018"><ele>1275.0</ele><time>2026-04-27T10:49:20.386Z</time></trkpt><trkpt lat="44.589637" lon="15.8403947"><ele>1275.0</ele><time>2026-04-27T10:49:22.386Z</time></trkpt><trkpt lat="44.5897405" lon="15.8403337"><ele>1275.0</ele><time>2026-04-27T10:49:23.386Z</time></trkpt><trkpt lat="44.5898081" lon="15.8402874"><ele>1275.0</ele><time>2026-04-27T10:49:24.386Z</time></trkpt><trkpt lat="44.5898867" lon="15.840241"><ele>1275.0</ele><time>2026-04-27T10:49:25.386Z</time></trkpt><trkpt lat="44.5899681" lon="15.8401872"><ele>1275.0</ele><time>2026-04-27T10:49:26.386Z</time></trkpt><trkpt lat="44.5900757" lon="15.8401166"><ele>1274.25</ele><time>2026-04-27T10:49:27.386Z</time></trkpt><trkpt lat="44.5901702" lon="15.840038"><ele>1273.5</ele><time>2026-04-27T10:49:28.386Z</time></trkpt><trkpt lat="44.5902837" lon="15.8399511"><ele>1272.75</ele><time>2026-04-27T10:49:29.386Z</time></trkpt><trkpt lat="44.5904099" lon="15.8398426"><ele>1272.0</ele><time>2026-04-27T10:49:30.386Z</time></trkpt><trkpt lat="44.5905446" lon="15.839728"><ele>1271.25</ele><time>2026-04-27T10:49:31.387Z</time></trkpt><trkpt lat="44.5906694" lon="15.839619"><ele>1270.5</ele><time>2026-04-27T10:49:32.386Z</time></trkpt><trkpt lat="44.5908005" lon="15.8395219"><ele>1269.75</ele><time>2026-04-27T10:49:33.386Z</time></trkpt><trkpt lat="44.5909259" lon="15.8394319"><ele>1269.0</ele><time>2026-04-27T10:49:34.387Z</time></trkpt><trkpt lat="44.5910458" lon="15.8393506"><ele>1269.6666666666667</ele><time>2026-04-27T10:49:35.386Z</time></trkpt><trkpt lat="44.5911637" lon="15.8392675"><ele>1270.3333333333335</ele><time>2026-04-27T10:49:36.387Z</time></trkpt><trkpt lat="44.5914276" lon="15.8391069"><ele>1271.0</ele><time>2026-04-27T10:49:38.386Z</time></trkpt><trkpt lat="44.5915584" lon="15.8390425"><ele>1270.0</ele><time>2026-04-27T10:49:39.387Z</time></trkpt><trkpt lat="44.5916828" lon="15.8389465"><ele>1269.0</ele><time>2026-04-27T10:49:40.387Z</time></trkpt><trkpt lat="44.5918078" lon="15.8388618"><ele>1268.0</ele><time>2026-04-27T10:49:41.386Z</time></trkpt><trkpt lat="44.5919257" lon="15.8387939"><ele>1267.0</ele><time>2026-04-27T10:49:42.386Z</time></trkpt><trkpt lat="44.5920529" lon="15.8387166"><ele>1266.75</ele><time>2026-04-27T10:49:43.386Z</time></trkpt><trkpt lat="44.5921929" lon="15.8386389"><ele>1266.5</ele><time>2026-04-27T10:49:44.386Z</time></trkpt><trkpt lat="44.5923248" lon="15.8385615"><ele>1266.25</ele><time>2026-04-27T10:49:45.386Z</time></trkpt><trkpt lat="44.5924214" lon="15.8384892"><ele>1266.0</ele><time>2026-04-27T10:49:46.386Z</time></trkpt><trkpt lat="44.5925312" lon="15.8384301"><ele>1266.0</ele><time>2026-04-27T10:49:47.387Z</time></trkpt><trkpt lat="44.5926359" lon="15.8383541"><ele>1266.0</ele><time>2026-04-27T10:49:48.386Z</time></trkpt><trkpt lat="44.5927557" lon="15.8382391"><ele>1266.0</ele><time>2026-04-27T10:49:49.386Z</time></trkpt><trkpt lat="44.5928695" lon="15.8381426"><ele>1266.0</ele><time>2026-04-27T10:49:50.386Z</time></trkpt><trkpt lat="44.5929717" lon="15.838065"><ele>1265.8</ele><time>2026-04-27T10:49:51.387Z</time></trkpt><trkpt lat="44.5930685" lon="15.837999"><ele>1265.6</ele><time>2026-04-27T10:49:52.386Z</time></trkpt><trkpt lat="44.5931805" lon="15.8379335"><ele>1265.4</ele><time>2026-04-27T10:49:54.387Z</time></trkpt><trkpt lat="44.593277" lon="15.8379621"><ele>1265.2</ele><time>2026-04-27T10:49:56.387Z</time></trkpt><trkpt lat="44.5933451" lon="15.8380218"><ele>1265.0</ele><time>2026-04-27T10:49:57.386Z</time></trkpt><trkpt lat="44.5934258" lon="15.8381113"><ele>1265.0</ele><time>2026-04-27T10:49:58.386Z</time></trkpt><trkpt lat="44.5935198" lon="15.838234"><ele>1265.0</ele><time>2026-04-27T10:49:59.387Z</time></trkpt><trkpt lat="44.593609" lon="15.8383575"><ele>1265.0</ele><time>2026-04-27T10:50:00.386Z</time></trkpt><trkpt lat="44.5936938" lon="15.838449"><ele>1265.0</ele><time>2026-04-27T10:50:01.387Z</time></trkpt><trkpt lat="44.5937999" lon="15.8385399"><ele>1266.3333333333335</ele><time>2026-04-27T10:50:02.386Z</time></trkpt><trkpt lat="44.5939274" lon="15.8386448"><ele>1267.6666666666667</ele><time>2026-04-27T10:50:03.386Z</time></trkpt><trkpt lat="44.59406" lon="15.8387667"><ele>1269.0</ele><time>2026-04-27T10:50:04.386Z</time></trkpt><trkpt lat="44.5941809" lon="15.8388879"><ele>1269.0</ele><time>2026-04-27T10:50:05.386Z</time></trkpt><trkpt lat="44.5942982" lon="15.8390036"><ele>1269.0</ele><time>2026-04-27T10:50:06.387Z</time></trkpt><trkpt lat="44.5944072" lon="15.8391246"><ele>1269.0</ele><time>2026-04-27T10:50:07.386Z</time></trkpt><trkpt lat="44.594501" lon="15.8392391"><ele>1269.0</ele><time>2026-04-27T10:50:08.386Z</time></trkpt><trkpt lat="44.5945754" lon="15.8393465"><ele>1270.4</ele><time>2026-04-27T10:50:09.386Z</time></trkpt><trkpt lat="44.5946412" lon="15.8394535"><ele>1271.8000000000002</ele><time>2026-04-27T10:50:10.386Z</time></trkpt><trkpt lat="44.5946835" lon="15.8395718"><ele>1273.1999999999998</ele><time>2026-04-27T10:50:11.386Z</time></trkpt><trkpt lat="44.5947055" lon="15.8397126"><ele>1274.6</ele><time>2026-04-27T10:50:12.386Z</time></trkpt><trkpt lat="44.5947253" lon="15.8398612"><ele>1276.0</ele><time>2026-04-27T10:50:13.386Z</time></trkpt><trkpt lat="44.5947485" lon="15.840003"><ele>1276.0</ele><time>2026-04-27T10:50:14.386Z</time></trkpt><trkpt lat="44.5947693" lon="15.8401215"><ele>1276.0</ele><time>2026-04-27T10:50:15.386Z</time></trkpt><trkpt lat="44.5947893" lon="15.8402411"><ele>1276.0</ele><time>2026-04-27T10:50:16.387Z</time></trkpt><trkpt lat="44.5948105" lon="15.8403625"><ele>1276.0</ele><time>2026-04-27T10:50:17.386Z</time></trkpt><trkpt lat="44.5948196" lon="15.8404526"><ele>1276.0</ele><time>2026-04-27T10:50:18.386Z</time></trkpt><trkpt lat="44.5948273" lon="15.840543"><ele>1276.0</ele><time>2026-04-27T10:50:19.386Z</time></trkpt><trkpt lat="44.5948189" lon="15.8406332"><ele>1276.0</ele><time>2026-04-27T10:50:20.386Z</time></trkpt><trkpt lat="44.5948073" lon="15.8407378"><ele>1276.0</ele><time>2026-04-27T10:50:21.387Z</time></trkpt><trkpt lat="44.5947888" lon="15.8408504"><ele>1276.0</ele><time>2026-04-27T10:50:22.386Z</time></trkpt><trkpt lat="44.5947658" lon="15.8409607"><ele>1276.0</ele><time>2026-04-27T10:50:23.387Z</time></trkpt><trkpt lat="44.5947432" lon="15.8410633"><ele>1276.0</ele><time>2026-04-27T10:50:24.387Z</time></trkpt><trkpt lat="44.5947296" lon="15.8411669"><ele>1276.0</ele><time>2026-04-27T10:50:25.387Z</time></trkpt><trkpt lat="44.594728" lon="15.8412641"><ele>1276.2</ele><time>2026-04-27T10:50:26.387Z</time></trkpt><trkpt lat="44.5947572" lon="15.8414344"><ele>1276.3999999999999</ele><time>2026-04-27T10:50:28.386Z</time></trkpt><trkpt lat="44.5948013" lon="15.8415346"><ele>1276.6</ele><time>2026-04-27T10:50:29.387Z</time></trkpt><trkpt lat="44.5948748" lon="15.8416412"><ele>1276.8</ele><time>2026-04-27T10:50:30.387Z</time></trkpt><trkpt lat="44.5949507" lon="15.8417245"><ele>1277.0</ele><time>2026-04-27T10:50:31.386Z</time></trkpt><trkpt lat="44.5950494" lon="15.8418013"><ele>1276.4</ele><time>2026-04-27T10:50:32.386Z</time></trkpt><trkpt lat="44.5951447" lon="15.8418797"><ele>1275.8000000000002</ele><time>2026-04-27T10:50:33.387Z</time></trkpt><trkpt lat="44.5952419" lon="15.8419687"><ele>1275.2</ele><time>2026-04-27T10:50:34.386Z</time></trkpt><trkpt lat="44.5953281" lon="15.8420518"><ele>1274.6000000000001</ele><time>2026-04-27T10:50:35.386Z</time></trkpt><trkpt lat="44.595396" lon="15.8421252"><ele>1274.0</ele><time>2026-04-27T10:50:36.387Z</time></trkpt><trkpt lat="44.5954779" lon="15.8421717"><ele>1274.0</ele><time>2026-04-27T10:50:37.386Z</time></trkpt><trkpt lat="44.5955482" lon="15.8422277"><ele>1274.0</ele><time>2026-04-27T10:50:38.387Z</time></trkpt><trkpt lat="44.5956085" lon="15.842287"><ele>1274.0</ele><time>2026-04-27T10:50:39.387Z</time></trkpt><trkpt lat="44.5956095" lon="15.8423972"><ele>1274.0</ele><time>2026-04-27T10:50:41.386Z</time></trkpt><trkpt lat="44.5955589" lon="15.8424554"><ele>1274.0</ele><time>2026-04-27T10:50:44.386Z</time></trkpt><trkpt lat="44.5954615" lon="15.8424322"><ele>1274.0</ele><time>2026-04-27T10:50:46.387Z</time></trkpt><trkpt lat="44.5953339" lon="15.8422885"><ele>1274.0</ele><time>2026-04-27T10:50:47.386Z</time></trkpt><trkpt lat="44.5952639" lon="15.8422173"><ele>1274.0</ele><time>2026-04-27T10:50:48.386Z</time></trkpt><trkpt lat="44.5951774" lon="15.8421851"><ele>1274.0</ele><time>2026-04-27T10:50:49.386Z</time></trkpt><trkpt lat="44.5950527" lon="15.8421517"><ele>1274.0</ele><time>2026-04-27T10:50:50.386Z</time></trkpt><trkpt lat="44.5949271" lon="15.8421847"><ele>1274.0</ele><time>2026-04-27T10:50:51.386Z</time></trkpt><trkpt lat="44.5948038" lon="15.8421994"><ele>1274.0</ele><time>2026-04-27T10:50:52.386Z</time></trkpt><trkpt lat="44.5946997" lon="15.8422403"><ele>1274.0</ele><time>2026-04-27T10:50:53.386Z</time></trkpt><trkpt lat="44.5945827" lon="15.842279"><ele>1274.0</ele><time>2026-04-27T10:50:54.386Z</time></trkpt><trkpt lat="44.5944668" lon="15.8422918"><ele>1274.0</ele><time>2026-04-27T10:50:55.386Z</time></trkpt><trkpt lat="44.5943285" lon="15.8422862"><ele>1273.0</ele><time>2026-04-27T10:50:56.387Z</time></trkpt><trkpt lat="44.5941977" lon="15.8422924"><ele>1272.0</ele><time>2026-04-27T10:50:57.386Z</time></trkpt><trkpt lat="44.5941132" lon="15.842303"><ele>1271.0</ele><time>2026-04-27T10:50:58.386Z</time></trkpt><trkpt lat="44.593998" lon="15.8422998"><ele>1270.0</ele><time>2026-04-27T10:50:59.386Z</time></trkpt><trkpt lat="44.5938995" lon="15.8422966"><ele>1269.0</ele><time>2026-04-27T10:51:00.386Z</time></trkpt><trkpt lat="44.5937885" lon="15.8423278"><ele>1269.0</ele><time>2026-04-27T10:51:01.387Z</time></trkpt><trkpt lat="44.5936844" lon="15.8423981"><ele>1269.0</ele><time>2026-04-27T10:51:02.386Z</time></trkpt><trkpt lat="44.5935804" lon="15.8424575"><ele>1269.0</ele><time>2026-04-27T10:51:03.387Z</time></trkpt><trkpt lat="44.5934999" lon="15.8425204"><ele>1269.0</ele><time>2026-04-27T10:51:04.386Z</time></trkpt><trkpt lat="44.5934122" lon="15.8425817"><ele>1269.0</ele><time>2026-04-27T10:51:05.386Z</time></trkpt><trkpt lat="44.5933137" lon="15.8426728"><ele>1266.0</ele><time>2026-04-27T10:51:06.386Z</time></trkpt><trkpt lat="44.5932178" lon="15.8427673"><ele>1263.0</ele><time>2026-04-27T10:51:07.386Z</time></trkpt><trkpt lat="44.593121" lon="15.8428674"><ele>1260.0</ele><time>2026-04-27T10:51:08.386Z</time></trkpt><trkpt lat="44.5930379" lon="15.8429961"><ele>1257.0</ele><time>2026-04-27T10:51:09.386Z</time></trkpt><trkpt lat="44.592983" lon="15.8431025"><ele>1257.0</ele><time>2026-04-27T10:51:10.386Z</time></trkpt><trkpt lat="44.5929361" lon="15.8431948"><ele>1257.0</ele><time>2026-04-27T10:51:11.386Z</time></trkpt><trkpt lat="44.592882" lon="15.8432777"><ele>1257.0</ele><time>2026-04-27T10:51:12.386Z</time></trkpt><trkpt lat="44.5928261" lon="15.8433581"><ele>1257.0</ele><time>2026-04-27T10:51:13.387Z</time></trkpt><trkpt lat="44.5927662" lon="15.8434336"><ele>1257.0</ele><time>2026-04-27T10:51:14.386Z</time></trkpt><trkpt lat="44.5927053" lon="15.8435053"><ele>1257.0</ele><time>2026-04-27T10:51:15.386Z</time></trkpt><trkpt lat="44.5926286" lon="15.843638"><ele>1255.0</ele><time>2026-04-27T10:51:17.386Z</time></trkpt><trkpt lat="44.5925739" lon="15.8437821"><ele>1253.0</ele><time>2026-04-27T10:51:19.386Z</time></trkpt><trkpt lat="44.5925226" lon="15.8439211"><ele>1251.0</ele><time>2026-04-27T10:51:21.386Z</time></trkpt><trkpt lat="44.5924962" lon="15.8440083"><ele>1249.0</ele><time>2026-04-27T10:51:22.386Z</time></trkpt><trkpt lat="44.5924643" lon="15.8441185"><ele>1247.0</ele><time>2026-04-27T10:51:23.386Z</time></trkpt><trkpt lat="44.5924275" lon="15.8442517"><ele>1245.3333333333335</ele><time>2026-04-27T10:51:24.386Z</time></trkpt><trkpt lat="44.5924041" lon="15.8443867"><ele>1243.6666666666667</ele><time>2026-04-27T10:51:25.387Z</time></trkpt><trkpt lat="44.5923826" lon="15.8445207"><ele>1242.0</ele><time>2026-04-27T10:51:26.386Z</time></trkpt><trkpt lat="44.5923688" lon="15.8446524"><ele>1240.3333333333333</ele><time>2026-04-27T10:51:27.387Z</time></trkpt><trkpt lat="44.5923613" lon="15.8447602"><ele>1238.6666666666665</ele><time>2026-04-27T10:51:28.386Z</time></trkpt><trkpt lat="44.5923494" lon="15.8448642"><ele>1237.0</ele><time>2026-04-27T10:51:29.386Z</time></trkpt><trkpt lat="44.5923289" lon="15.8449505"><ele>1237.0</ele><time>2026-04-27T10:51:30.386Z</time></trkpt><trkpt lat="44.5922736" lon="15.8449998"><ele>1237.0</ele><time>2026-04-27T10:51:31.386Z</time></trkpt><trkpt lat="44.5922051" lon="15.8450304"><ele>1237.0</ele><time>2026-04-27T10:51:32.386Z</time></trkpt><trkpt lat="44.5921359" lon="15.845036"><ele>1237.0</ele><time>2026-04-27T10:51:33.387Z</time></trkpt><trkpt lat="44.5920668" lon="15.8450299"><ele>1237.0</ele><time>2026-04-27T10:51:34.387Z</time></trkpt><trkpt lat="44.5919871" lon="15.8450649"><ele>1237.0</ele><time>2026-04-27T10:51:36.386Z</time></trkpt><trkpt lat="44.5919645" lon="15.8451602"><ele>1237.0</ele><time>2026-04-27T10:51:38.387Z</time></trkpt><trkpt lat="44.5920714" lon="15.8452275"><ele>1237.1666666666665</ele><time>2026-04-27T10:51:40.387Z</time></trkpt><trkpt lat="44.5921404" lon="15.8452625"><ele>1237.3333333333333</ele><time>2026-04-27T10:51:41.386Z</time></trkpt><trkpt lat="44.5922306" lon="15.8453023"><ele>1237.5</ele><time>2026-04-27T10:51:42.386Z</time></trkpt><trkpt lat="44.5923226" lon="15.8453338"><ele>1237.6666666666667</ele><time>2026-04-27T10:51:43.386Z</time></trkpt><trkpt lat="44.5924023" lon="15.8453566"><ele>1237.8333333333335</ele><time>2026-04-27T10:51:44.386Z</time></trkpt><trkpt lat="44.5924741" lon="15.8453737"><ele>1238.0</ele><time>2026-04-27T10:51:45.386Z</time></trkpt><trkpt lat="44.5925722" lon="15.845422"><ele>1238.0</ele><time>2026-04-27T10:51:47.386Z</time></trkpt><trkpt lat="44.592634" lon="15.8455415"><ele>1238.0</ele><time>2026-04-27T10:51:49.386Z</time></trkpt><trkpt lat="44.5926724" lon="15.84562"><ele>1238.0</ele><time>2026-04-27T10:51:50.386Z</time></trkpt><trkpt lat="44.5927172" lon="15.8457125"><ele>1238.0</ele><time>2026-04-27T10:51:51.386Z</time></trkpt><trkpt lat="44.5927607" lon="15.8458042"><ele>1238.0</ele><time>2026-04-27T10:51:52.386Z</time></trkpt><trkpt lat="44.5928058" lon="15.8459122"><ele>1238.0</ele><time>2026-04-27T10:51:53.386Z</time></trkpt><trkpt lat="44.5928427" lon="15.8460168"><ele>1235.7142857142858</ele><time>2026-04-27T10:51:54.387Z</time></trkpt><trkpt lat="44.5928723" lon="15.8461234"><ele>1233.4285714285716</ele><time>2026-04-27T10:51:55.387Z</time></trkpt><trkpt lat="44.5928806" lon="15.8462254"><ele>1231.1428571428573</ele><time>2026-04-27T10:51:56.386Z</time></trkpt><trkpt lat="44.5928877" lon="15.8463136"><ele>1228.857142857143</ele><time>2026-04-27T10:51:57.386Z</time></trkpt><trkpt lat="44.592882" lon="15.8464142"><ele>1226.5714285714287</ele><time>2026-04-27T10:51:58.387Z</time></trkpt><trkpt lat="44.5928803" lon="15.846522"><ele>1224.2857142857144</ele><time>2026-04-27T10:51:59.386Z</time></trkpt><trkpt lat="44.5928753" lon="15.8466301"><ele>1222.0</ele><time>2026-04-27T10:52:00.386Z</time></trkpt><trkpt lat="44.5928548" lon="15.8467347"><ele>1220.4285714285716</ele><time>2026-04-27T10:52:01.386Z</time></trkpt><trkpt lat="44.5928251" lon="15.8468402"><ele>1218.857142857143</ele><time>2026-04-27T10:52:02.386Z</time></trkpt><trkpt lat="44.5927706" lon="15.8469196"><ele>1217.2857142857142</ele><time>2026-04-27T10:52:03.386Z</time></trkpt><trkpt lat="44.5927156" lon="15.8469985"><ele>1215.7142857142858</ele><time>2026-04-27T10:52:04.386Z</time></trkpt><trkpt lat="44.5926675" lon="15.8470764"><ele>1214.142857142857</ele><time>2026-04-27T10:52:05.386Z</time></trkpt><trkpt lat="44.5926248" lon="15.8471522"><ele>1212.5714285714287</ele><time>2026-04-27T10:52:06.387Z</time></trkpt><trkpt lat="44.5925802" lon="15.8472204"><ele>1211.0</ele><time>2026-04-27T10:52:07.386Z</time></trkpt><trkpt lat="44.5925303" lon="15.8472832"><ele>1211.0</ele><time>2026-04-27T10:52:08.387Z</time></trkpt><trkpt lat="44.5924815" lon="15.8473488"><ele>1211.0</ele><time>2026-04-27T10:52:09.386Z</time></trkpt><trkpt lat="44.5924317" lon="15.847409"><ele>1211.0</ele><time>2026-04-27T10:52:10.387Z</time></trkpt><trkpt lat="44.5923872" lon="15.8474762"><ele>1211.0</ele><time>2026-04-27T10:52:11.386Z</time></trkpt><trkpt lat="44.5923261" lon="15.8476229"><ele>1211.0</ele><time>2026-04-27T10:52:13.387Z</time></trkpt><trkpt lat="44.592294" lon="15.8478092"><ele>1209.6666666666667</ele><time>2026-04-27T10:52:15.386Z</time></trkpt><trkpt lat="44.5922787" lon="15.8479227"><ele>1208.3333333333335</ele><time>2026-04-27T10:52:16.386Z</time></trkpt><trkpt lat="44.5922713" lon="15.8480296"><ele>1207.0</ele><time>2026-04-27T10:52:17.386Z</time></trkpt><trkpt lat="44.5922682" lon="15.8481299"><ele>1205.6666666666667</ele><time>2026-04-27T10:52:18.386Z</time></trkpt><trkpt lat="44.5922658" lon="15.8482288"><ele>1204.3333333333333</ele><time>2026-04-27T10:52:19.386Z</time></trkpt><trkpt lat="44.5922728" lon="15.8483342"><ele>1203.0</ele><time>2026-04-27T10:52:20.386Z</time></trkpt><trkpt lat="44.5922844" lon="15.8484463"><ele>1203.2</ele><time>2026-04-27T10:52:21.386Z</time></trkpt><trkpt lat="44.5923238" lon="15.8485729"><ele>1203.4</ele><time>2026-04-27T10:52:22.386Z</time></trkpt><trkpt lat="44.5923692" lon="15.8487032"><ele>1203.6000000000001</ele><time>2026-04-27T10:52:23.387Z</time></trkpt><trkpt lat="44.5924278" lon="15.8488283"><ele>1203.8</ele><time>2026-04-27T10:52:24.386Z</time></trkpt><trkpt lat="44.5924927" lon="15.8489355"><ele>1204.0</ele><time>2026-04-27T10:52:25.386Z</time></trkpt><trkpt lat="44.5925549" lon="15.849036"><ele>1204.0</ele><time>2026-04-27T10:52:26.387Z</time></trkpt><trkpt lat="44.5926011" lon="15.849121"><ele>1204.0</ele><time>2026-04-27T10:52:27.387Z</time></trkpt><trkpt lat="44.5926936" lon="15.8492081"><ele>1204.0</ele><time>2026-04-27T10:52:29.386Z</time></trkpt><trkpt lat="44.592761" lon="15.8492279"><ele>1204.0</ele><time>2026-04-27T10:52:30.386Z</time></trkpt><trkpt lat="44.5928375" lon="15.8492333"><ele>1204.0</ele><time>2026-04-27T10:52:31.386Z</time></trkpt><trkpt lat="44.5929256" lon="15.8492356"><ele>1204.0</ele><time>2026-04-27T10:52:32.386Z</time></trkpt><trkpt lat="44.593015" lon="15.8492455"><ele>1205.5</ele><time>2026-04-27T10:52:33.386Z</time></trkpt><trkpt lat="44.5931182" lon="15.8492778"><ele>1207.0</ele><time>2026-04-27T10:52:34.387Z</time></trkpt><trkpt lat="44.5932266" lon="15.8493211"><ele>1208.5</ele><time>2026-04-27T10:52:35.387Z</time></trkpt><trkpt lat="44.5933391" lon="15.8493821"><ele>1210.0</ele><time>2026-04-27T10:52:36.387Z</time></trkpt><trkpt lat="44.5934613" lon="15.84946"><ele>1209.5</ele><time>2026-04-27T10:52:37.387Z</time></trkpt><trkpt lat="44.5935844" lon="15.8495356"><ele>1209.0</ele><time>2026-04-27T10:52:38.387Z</time></trkpt><trkpt lat="44.5937083" lon="15.8495997"><ele>1208.5</ele><time>2026-04-27T10:52:39.386Z</time></trkpt><trkpt lat="44.5938205" lon="15.8496614"><ele>1208.0</ele><time>2026-04-27T10:52:40.386Z</time></trkpt><trkpt lat="44.5939198" lon="15.8497201"><ele>1208.0</ele><time>2026-04-27T10:52:41.386Z</time></trkpt><trkpt lat="44.5940222" lon="15.849762"><ele>1208.0</ele><time>2026-04-27T10:52:42.386Z</time></trkpt><trkpt lat="44.5941345" lon="15.8498062"><ele>1208.0</ele><time>2026-04-27T10:52:43.387Z</time></trkpt><trkpt lat="44.5942534" lon="15.8498634"><ele>1208.0</ele><time>2026-04-27T10:52:44.387Z</time></trkpt><trkpt lat="44.594381" lon="15.8499478"><ele>1208.0</ele><time>2026-04-27T10:52:45.387Z</time></trkpt><trkpt lat="44.5945034" lon="15.8500237"><ele>1208.0</ele><time>2026-04-27T10:52:46.386Z</time></trkpt><trkpt lat="44.5946293" lon="15.8501117"><ele>1208.0</ele><time>2026-04-27T10:52:47.386Z</time></trkpt><trkpt lat="44.5947515" lon="15.8502056"><ele>1208.0</ele><time>2026-04-27T10:52:48.387Z</time></trkpt><trkpt lat="44.5948701" lon="15.8502847"><ele>1207.75</ele><time>2026-04-27T10:52:49.386Z</time></trkpt><trkpt lat="44.5949849" lon="15.8503633"><ele>1207.5</ele><time>2026-04-27T10:52:50.387Z</time></trkpt><trkpt lat="44.5951044" lon="15.8504555"><ele>1207.25</ele><time>2026-04-27T10:52:51.386Z</time></trkpt><trkpt lat="44.595225" lon="15.8505605"><ele>1207.0</ele><time>2026-04-27T10:52:52.386Z</time></trkpt><trkpt lat="44.5953398" lon="15.8506622"><ele>1205.75</ele><time>2026-04-27T10:52:53.387Z</time></trkpt><trkpt lat="44.5954459" lon="15.8507363"><ele>1204.5</ele><time>2026-04-27T10:52:54.387Z</time></trkpt><trkpt lat="44.5955475" lon="15.8508178"><ele>1203.25</ele><time>2026-04-27T10:52:55.386Z</time></trkpt><trkpt lat="44.5956515" lon="15.8509085"><ele>1202.0</ele><time>2026-04-27T10:52:56.387Z</time></trkpt><trkpt lat="44.5957542" lon="15.8510045"><ele>1204.75</ele><time>2026-04-27T10:52:57.386Z</time></trkpt><trkpt lat="44.5958538" lon="15.8510896"><ele>1207.5</ele><time>2026-04-27T10:52:58.386Z</time></trkpt><trkpt lat="44.5959646" lon="15.8511737"><ele>1210.25</ele><time>2026-04-27T10:52:59.387Z</time></trkpt><trkpt lat="44.5960711" lon="15.8512394"><ele>1213.0</ele><time>2026-04-27T10:53:00.387Z</time></trkpt><trkpt lat="44.596177" lon="15.8513088"><ele>1213.0</ele><time>2026-04-27T10:53:01.386Z</time></trkpt><trkpt lat="44.596319" lon="15.8513485"><ele>1213.0</ele><time>2026-04-27T10:53:02.386Z</time></trkpt><trkpt lat="44.5964448" lon="15.8513899"><ele>1213.0</ele><time>2026-04-27T10:53:03.386Z</time></trkpt><trkpt lat="44.5965878" lon="15.8514075"><ele>1213.0</ele><time>2026-04-27T10:53:04.386Z</time></trkpt><trkpt lat="44.5967369" lon="15.8514094"><ele>1213.0</ele><time>2026-04-27T10:53:05.387Z</time></trkpt><trkpt lat="44.5968687" lon="15.85141"><ele>1213.0</ele><time>2026-04-27T10:53:06.386Z</time></trkpt><trkpt lat="44.5970058" lon="15.8513971"><ele>1213.0</ele><time>2026-04-27T10:53:07.386Z</time></trkpt><trkpt lat="44.5971485" lon="15.851375"><ele>1213.0</ele><time>2026-04-27T10:53:08.386Z</time></trkpt><trkpt lat="44.5972698" lon="15.8513427"><ele>1211.0</ele><time>2026-04-27T10:53:09.386Z</time></trkpt><trkpt lat="44.5973656" lon="15.8512396"><ele>1209.0</ele><time>2026-04-27T10:53:10.386Z</time></trkpt><trkpt lat="44.5974559" lon="15.851137"><ele>1207.0</ele><time>2026-04-27T10:53:11.387Z</time></trkpt><trkpt lat="44.5975531" lon="15.8510375"><ele>1205.0</ele><time>2026-04-27T10:53:12.387Z</time></trkpt><trkpt lat="44.597657" lon="15.8509241"><ele>1202.8</ele><time>2026-04-27T10:53:13.387Z</time></trkpt><trkpt lat="44.5977331" lon="15.8508121"><ele>1200.6</ele><time>2026-04-27T10:53:14.386Z</time></trkpt><trkpt lat="44.5977764" lon="15.8506567"><ele>1198.4</ele><time>2026-04-27T10:53:15.386Z</time></trkpt><trkpt lat="44.5978428" lon="15.8505418"><ele>1196.2</ele><time>2026-04-27T10:53:16.387Z</time></trkpt><trkpt lat="44.5979086" lon="15.8504697"><ele>1194.0</ele><time>2026-04-27T10:53:17.386Z</time></trkpt><trkpt lat="44.5979755" lon="15.8504103"><ele>1193.8</ele><time>2026-04-27T10:53:18.386Z</time></trkpt><trkpt lat="44.5980494" lon="15.8503975"><ele>1193.6000000000001</ele><time>2026-04-27T10:53:19.386Z</time></trkpt><trkpt lat="44.5981245" lon="15.8503546"><ele>1193.4</ele><time>2026-04-27T10:53:20.386Z</time></trkpt><trkpt lat="44.5982228" lon="15.8503061"><ele>1193.2</ele><time>2026-04-27T10:53:21.387Z</time></trkpt><trkpt lat="44.5983346" lon="15.8502799"><ele>1193.0</ele><time>2026-04-27T10:53:22.387Z</time></trkpt><trkpt lat="44.5984419" lon="15.8502532"><ele>1193.0</ele><time>2026-04-27T10:53:23.386Z</time></trkpt><trkpt lat="44.598543" lon="15.8502158"><ele>1193.0</ele><time>2026-04-27T10:53:24.386Z</time></trkpt><trkpt lat="44.598645" lon="15.8501778"><ele>1193.0</ele><time>2026-04-27T10:53:25.386Z</time></trkpt><trkpt lat="44.5987464" lon="15.850152"><ele>1193.0</ele><time>2026-04-27T10:53:26.387Z</time></trkpt><trkpt lat="44.598847" lon="15.8501264"><ele>1193.0</ele><time>2026-04-27T10:53:27.386Z</time></trkpt><trkpt lat="44.5989462" lon="15.8500994"><ele>1192.6</ele><time>2026-04-27T10:53:28.386Z</time></trkpt><trkpt lat="44.5990485" lon="15.8501059"><ele>1192.1999999999998</ele><time>2026-04-27T10:53:29.387Z</time></trkpt><trkpt lat="44.5991522" lon="15.8501166"><ele>1191.8</ele><time>2026-04-27T10:53:30.387Z</time></trkpt><trkpt lat="44.5992589" lon="15.8501548"><ele>1191.3999999999999</ele><time>2026-04-27T10:53:31.386Z</time></trkpt><trkpt lat="44.599367" lon="15.8502161"><ele>1191.0</ele><time>2026-04-27T10:53:32.386Z</time></trkpt><trkpt lat="44.5994782" lon="15.8502745"><ele>1189.75</ele><time>2026-04-27T10:53:33.386Z</time></trkpt><trkpt lat="44.5996019" lon="15.850341"><ele>1188.5</ele><time>2026-04-27T10:53:34.387Z</time></trkpt><trkpt lat="44.5997353" lon="15.8503931"><ele>1187.25</ele><time>2026-04-27T10:53:35.386Z</time></trkpt><trkpt lat="44.5998704" lon="15.8504404"><ele>1186.0</ele><time>2026-04-27T10:53:36.386Z</time></trkpt><trkpt lat="44.6000103" lon="15.8504999"><ele>1186.0</ele><time>2026-04-27T10:53:37.386Z</time></trkpt><trkpt lat="44.6001531" lon="15.8505597"><ele>1186.0</ele><time>2026-04-27T10:53:38.386Z</time></trkpt><trkpt lat="44.6002966" lon="15.8506089"><ele>1186.0</ele><time>2026-04-27T10:53:39.386Z</time></trkpt><trkpt lat="44.6004393" lon="15.8506604"><ele>1186.0</ele><time>2026-04-27T10:53:40.386Z</time></trkpt><trkpt lat="44.6005824" lon="15.8507256"><ele>1185.0</ele><time>2026-04-27T10:53:41.386Z</time></trkpt><trkpt lat="44.6007279" lon="15.8507906"><ele>1184.0</ele><time>2026-04-27T10:53:42.386Z</time></trkpt><trkpt lat="44.6008732" lon="15.8508487"><ele>1183.0</ele><time>2026-04-27T10:53:43.386Z</time></trkpt><trkpt lat="44.6010175" lon="15.8508888"><ele>1183.0</ele><time>2026-04-27T10:53:44.386Z</time></trkpt><trkpt lat="44.6011634" lon="15.8509188"><ele>1183.0</ele><time>2026-04-27T10:53:45.386Z</time></trkpt><trkpt lat="44.6013115" lon="15.8509478"><ele>1183.0</ele><time>2026-04-27T10:53:46.386Z</time></trkpt><trkpt lat="44.6014417" lon="15.8509709"><ele>1183.0</ele><time>2026-04-27T10:53:47.386Z</time></trkpt><trkpt lat="44.6015661" lon="15.8509856"><ele>1181.5</ele><time>2026-04-27T10:53:48.386Z</time></trkpt><trkpt lat="44.6017006" lon="15.8510024"><ele>1180.0</ele><time>2026-04-27T10:53:49.387Z</time></trkpt><trkpt lat="44.6018385" lon="15.85103"><ele>1178.5</ele><time>2026-04-27T10:53:50.386Z</time></trkpt><trkpt lat="44.6019786" lon="15.8510705"><ele>1177.0</ele><time>2026-04-27T10:53:51.386Z</time></trkpt><trkpt lat="44.6021154" lon="15.8511223"><ele>1177.0</ele><time>2026-04-27T10:53:52.386Z</time></trkpt><trkpt lat="44.6022454" lon="15.8511697"><ele>1177.0</ele><time>2026-04-27T10:53:53.386Z</time></trkpt><trkpt lat="44.6023749" lon="15.8512218"><ele>1177.0</ele><time>2026-04-27T10:53:54.386Z</time></trkpt><trkpt lat="44.6025034" lon="15.8512846"><ele>1177.0</ele><time>2026-04-27T10:53:55.386Z</time></trkpt><trkpt lat="44.6026295" lon="15.8513428"><ele>1177.0</ele><time>2026-04-27T10:53:56.386Z</time></trkpt><trkpt lat="44.6027505" lon="15.8514073"><ele>1177.0</ele><time>2026-04-27T10:53:57.386Z</time></trkpt><trkpt lat="44.6028667" lon="15.8514776"><ele>1177.0</ele><time>2026-04-27T10:53:58.386Z</time></trkpt><trkpt lat="44.602985" lon="15.8515571"><ele>1177.0</ele><time>2026-04-27T10:53:59.387Z</time></trkpt><trkpt lat="44.603102" lon="15.8516312"><ele>1177.0</ele><time>2026-04-27T10:54:00.386Z</time></trkpt><trkpt lat="44.6032233" lon="15.8516938"><ele>1177.0</ele><time>2026-04-27T10:54:01.387Z</time></trkpt><trkpt lat="44.6033566" lon="15.8517413"><ele>1177.0</ele><time>2026-04-27T10:54:02.386Z</time></trkpt><trkpt lat="44.6034926" lon="15.8517771"><ele>1177.0</ele><time>2026-04-27T10:54:03.386Z</time></trkpt><trkpt lat="44.6036407" lon="15.8518075"><ele>1179.0</ele><time>2026-04-27T10:54:04.387Z</time></trkpt><trkpt lat="44.6037696" lon="15.851838"><ele>1181.0</ele><time>2026-04-27T10:54:05.386Z</time></trkpt><trkpt lat="44.6038839" lon="15.8518599"><ele>1183.0</ele><time>2026-04-27T10:54:06.386Z</time></trkpt><trkpt lat="44.6039811" lon="15.851874"><ele>1185.0</ele><time>2026-04-27T10:54:07.386Z</time></trkpt><trkpt lat="44.6040636" lon="15.8519137"><ele>1187.0</ele><time>2026-04-27T10:54:08.386Z</time></trkpt><trkpt lat="44.6041673" lon="15.8519695"><ele>1187.0</ele><time>2026-04-27T10:54:09.386Z</time></trkpt><trkpt lat="44.6042852" lon="15.8520413"><ele>1187.0</ele><time>2026-04-27T10:54:10.386Z</time></trkpt><trkpt lat="44.604399" lon="15.8521157"><ele>1187.0</ele><time>2026-04-27T10:54:11.386Z</time></trkpt><trkpt lat="44.6045238" lon="15.8521923"><ele>1187.0</ele><time>2026-04-27T10:54:12.386Z</time></trkpt><trkpt lat="44.6046533" lon="15.8522916"><ele>1184.75</ele><time>2026-04-27T10:54:13.386Z</time></trkpt><trkpt lat="44.6047891" lon="15.8523846"><ele>1182.5</ele><time>2026-04-27T10:54:14.386Z</time></trkpt><trkpt lat="44.6049197" lon="15.8524736"><ele>1180.25</ele><time>2026-04-27T10:54:15.387Z</time></trkpt><trkpt lat="44.6050425" lon="15.8525411"><ele>1178.0</ele><time>2026-04-27T10:54:16.386Z</time></trkpt><trkpt lat="44.6051709" lon="15.8525911"><ele>1178.0</ele><time>2026-04-27T10:54:17.386Z</time></trkpt><trkpt lat="44.6053067" lon="15.8526135"><ele>1178.0</ele><time>2026-04-27T10:54:18.387Z</time></trkpt><trkpt lat="44.605444" lon="15.8526183"><ele>1178.0</ele><time>2026-04-27T10:54:19.386Z</time></trkpt><trkpt lat="44.6055813" lon="15.8526141"><ele>1178.0</ele><time>2026-04-27T10:54:20.386Z</time></trkpt><trkpt lat="44.6057181" lon="15.8526006"><ele>1177.25</ele><time>2026-04-27T10:54:21.386Z</time></trkpt><trkpt lat="44.6058584" lon="15.8525458"><ele>1176.5</ele><time>2026-04-27T10:54:22.387Z</time></trkpt><trkpt lat="44.605974" lon="15.8524899"><ele>1175.75</ele><time>2026-04-27T10:54:23.386Z</time></trkpt><trkpt lat="44.6060991" lon="15.8524342"><ele>1175.0</ele><time>2026-04-27T10:54:24.387Z</time></trkpt><trkpt lat="44.6062198" lon="15.8523987"><ele>1174.0</ele><time>2026-04-27T10:54:25.387Z</time></trkpt><trkpt lat="44.6063607" lon="15.8523696"><ele>1173.0</ele><time>2026-04-27T10:54:26.386Z</time></trkpt><trkpt lat="44.6065045" lon="15.8523737"><ele>1172.0</ele><time>2026-04-27T10:54:27.386Z</time></trkpt><trkpt lat="44.606649" lon="15.8523816"><ele>1171.0</ele><time>2026-04-27T10:54:28.386Z</time></trkpt><trkpt lat="44.6067885" lon="15.8523844"><ele>1171.0</ele><time>2026-04-27T10:54:29.387Z</time></trkpt><trkpt lat="44.606914" lon="15.8523452"><ele>1171.0</ele><time>2026-04-27T10:54:30.387Z</time></trkpt><trkpt lat="44.6070454" lon="15.8522899"><ele>1171.0</ele><time>2026-04-27T10:54:31.386Z</time></trkpt><trkpt lat="44.6071668" lon="15.8522357"><ele>1171.0</ele><time>2026-04-27T10:54:32.387Z</time></trkpt><trkpt lat="44.6072736" lon="15.8521711"><ele>1169.75</ele><time>2026-04-27T10:54:33.387Z</time></trkpt><trkpt lat="44.6073672" lon="15.8520814"><ele>1168.5</ele><time>2026-04-27T10:54:34.386Z</time></trkpt><trkpt lat="44.6074494" lon="15.8519693"><ele>1167.25</ele><time>2026-04-27T10:54:35.387Z</time></trkpt><trkpt lat="44.6075294" lon="15.8518422"><ele>1166.0</ele><time>2026-04-27T10:54:36.386Z</time></trkpt><trkpt lat="44.6076108" lon="15.8517116"><ele>1166.0</ele><time>2026-04-27T10:54:37.386Z</time></trkpt><trkpt lat="44.6077007" lon="15.8515698"><ele>1166.0</ele><time>2026-04-27T10:54:38.386Z</time></trkpt><trkpt lat="44.6078032" lon="15.8514572"><ele>1166.0</ele><time>2026-04-27T10:54:39.386Z</time></trkpt><trkpt lat="44.6079207" lon="15.8513468"><ele>1166.0</ele><time>2026-04-27T10:54:40.386Z</time></trkpt><trkpt lat="44.6080536" lon="15.8512277"><ele>1165.0</ele><time>2026-04-27T10:54:41.387Z</time></trkpt><trkpt lat="44.6081785" lon="15.8511093"><ele>1164.0</ele><time>2026-04-27T10:54:42.386Z</time></trkpt><trkpt lat="44.6082659" lon="15.8509786"><ele>1163.0</ele><time>2026-04-27T10:54:43.386Z</time></trkpt><trkpt lat="44.608334" lon="15.8508393"><ele>1162.0</ele><time>2026-04-27T10:54:44.387Z</time></trkpt><trkpt lat="44.6083963" lon="15.8506926"><ele>1162.0</ele><time>2026-04-27T10:54:45.386Z</time></trkpt><trkpt lat="44.608455" lon="15.8505543"><ele>1162.0</ele><time>2026-04-27T10:54:46.387Z</time></trkpt><trkpt lat="44.608515" lon="15.8504472"><ele>1162.0</ele><time>2026-04-27T10:54:47.386Z</time></trkpt><trkpt lat="44.6085838" lon="15.8503689"><ele>1162.0</ele><time>2026-04-27T10:54:48.386Z</time></trkpt><trkpt lat="44.6086433" lon="15.850312"><ele>1162.0</ele><time>2026-04-27T10:54:49.386Z</time></trkpt><trkpt lat="44.6087175" lon="15.8502785"><ele>1164.0</ele><time>2026-04-27T10:54:50.386Z</time></trkpt><trkpt lat="44.6088037" lon="15.8502632"><ele>1166.0</ele><time>2026-04-27T10:54:51.386Z</time></trkpt><trkpt lat="44.6088991" lon="15.8502514"><ele>1168.0</ele><time>2026-04-27T10:54:52.386Z</time></trkpt><trkpt lat="44.6090126" lon="15.8502655"><ele>1170.0</ele><time>2026-04-27T10:54:53.387Z</time></trkpt><trkpt lat="44.6091187" lon="15.8502764"><ele>1172.0</ele><time>2026-04-27T10:54:54.386Z</time></trkpt><trkpt lat="44.6092186" lon="15.8502859"><ele>1172.0</ele><time>2026-04-27T10:54:55.386Z</time></trkpt><trkpt lat="44.6093241" lon="15.8502606"><ele>1172.0</ele><time>2026-04-27T10:54:56.386Z</time></trkpt><trkpt lat="44.6094291" lon="15.8502129"><ele>1172.0</ele><time>2026-04-27T10:54:57.386Z</time></trkpt><trkpt lat="44.6095277" lon="15.8501379"><ele>1172.0</ele><time>2026-04-27T10:54:58.386Z</time></trkpt><trkpt lat="44.6096271" lon="15.8500146"><ele>1170.3333333333335</ele><time>2026-04-27T10:54:59.386Z</time></trkpt><trkpt lat="44.6097465" lon="15.8499023"><ele>1168.6666666666667</ele><time>2026-04-27T10:55:00.386Z</time></trkpt><trkpt lat="44.6098694" lon="15.8497724"><ele>1167.0</ele><time>2026-04-27T10:55:01.386Z</time></trkpt><trkpt lat="44.6100037" lon="15.8496278"><ele>1167.0</ele><time>2026-04-27T10:55:02.386Z</time></trkpt><trkpt lat="44.6100756" lon="15.849565"><ele>1167.0</ele><time>2026-04-27T10:55:03.387Z</time></trkpt><trkpt lat="44.6101642" lon="15.8494821"><ele>1167.0</ele><time>2026-04-27T10:55:04.387Z</time></trkpt><trkpt lat="44.6102514" lon="15.8494295"><ele>1167.0</ele><time>2026-04-27T10:55:05.386Z</time></trkpt><trkpt lat="44.6103368" lon="15.8493557"><ele>1167.0</ele><time>2026-04-27T10:55:06.387Z</time></trkpt><trkpt lat="44.61044" lon="15.8493234"><ele>1166.0</ele><time>2026-04-27T10:55:07.386Z</time></trkpt><trkpt lat="44.610542" lon="15.8493065"><ele>1165.0</ele><time>2026-04-27T10:55:08.386Z</time></trkpt><trkpt lat="44.6106407" lon="15.8492986"><ele>1164.0</ele><time>2026-04-27T10:55:09.386Z</time></trkpt><trkpt lat="44.6107252" lon="15.84928"><ele>1163.0</ele><time>2026-04-27T10:55:10.386Z</time></trkpt><trkpt lat="44.6108126" lon="15.8492959"><ele>1162.0</ele><time>2026-04-27T10:55:11.386Z</time></trkpt><trkpt lat="44.6108981" lon="15.8493335"><ele>1164.75</ele><time>2026-04-27T10:55:12.386Z</time></trkpt><trkpt lat="44.6109929" lon="15.8493796"><ele>1167.5</ele><time>2026-04-27T10:55:13.386Z</time></trkpt><trkpt lat="44.6110924" lon="15.8493996"><ele>1170.25</ele><time>2026-04-27T10:55:14.387Z</time></trkpt><trkpt lat="44.611233" lon="15.8494185"><ele>1173.0</ele><time>2026-04-27T10:55:15.386Z</time></trkpt><trkpt lat="44.6113719" lon="15.8493999"><ele>1175.6666666666667</ele><time>2026-04-27T10:55:16.386Z</time></trkpt><trkpt lat="44.6115397" lon="15.8493997"><ele>1178.3333333333335</ele><time>2026-04-27T10:55:17.386Z</time></trkpt><trkpt lat="44.6116903" lon="15.8493729"><ele>1181.0</ele><time>2026-04-27T10:55:18.387Z</time></trkpt><trkpt lat="44.6118283" lon="15.8493358"><ele>1181.0</ele><time>2026-04-27T10:55:19.387Z</time></trkpt><trkpt lat="44.6119654" lon="15.849307"><ele>1181.0</ele><time>2026-04-27T10:55:20.386Z</time></trkpt><trkpt lat="44.6120775" lon="15.849254"><ele>1181.0</ele><time>2026-04-27T10:55:21.387Z</time></trkpt><trkpt lat="44.6122096" lon="15.8492099"><ele>1181.0</ele><time>2026-04-27T10:55:22.386Z</time></trkpt><trkpt lat="44.6123211" lon="15.8491505"><ele>1177.2</ele><time>2026-04-27T10:55:23.386Z</time></trkpt><trkpt lat="44.6124325" lon="15.8490912"><ele>1173.3999999999999</ele><time>2026-04-27T10:55:24.386Z</time></trkpt><trkpt lat="44.6125204" lon="15.8490476"><ele>1169.6</ele><time>2026-04-27T10:55:25.386Z</time></trkpt><trkpt lat="44.6125944" lon="15.8488889"><ele>1165.8</ele><time>2026-04-27T10:55:27.386Z</time></trkpt><trkpt lat="44.6126187" lon="15.848788"><ele>1162.0</ele><time>2026-04-27T10:55:28.386Z</time></trkpt><trkpt lat="44.6126302" lon="15.8486747"><ele>1162.0</ele><time>2026-04-27T10:55:29.386Z</time></trkpt><trkpt lat="44.6126525" lon="15.8485787"><ele>1162.0</ele><time>2026-04-27T10:55:30.386Z</time></trkpt><trkpt lat="44.6126908" lon="15.8485004"><ele>1162.0</ele><time>2026-04-27T10:55:31.386Z</time></trkpt><trkpt lat="44.6127763" lon="15.8483767"><ele>1162.0</ele><time>2026-04-27T10:55:33.386Z</time></trkpt><trkpt lat="44.612893" lon="15.8483684"><ele>1162.0</ele><time>2026-04-27T10:55:34.386Z</time></trkpt><trkpt lat="44.612985" lon="15.8483601"><ele>1161.5</ele><time>2026-04-27T10:55:35.386Z</time></trkpt><trkpt lat="44.613092" lon="15.8483475"><ele>1161.0</ele><time>2026-04-27T10:55:36.387Z</time></trkpt><trkpt lat="44.61323" lon="15.848443"><ele>1160.5</ele><time>2026-04-27T10:55:37.386Z</time></trkpt><trkpt lat="44.6133495" lon="15.8484807"><ele>1160.0</ele><time>2026-04-27T10:55:38.386Z</time></trkpt><trkpt lat="44.6134539" lon="15.8485246"><ele>1161.0</ele><time>2026-04-27T10:55:39.386Z</time></trkpt><trkpt lat="44.6135533" lon="15.8485472"><ele>1162.0</ele><time>2026-04-27T10:55:40.386Z</time></trkpt><trkpt lat="44.6136355" lon="15.8485776"><ele>1163.0</ele><time>2026-04-27T10:55:41.386Z</time></trkpt><trkpt lat="44.6137564" lon="15.8486768"><ele>1164.0</ele><time>2026-04-27T10:55:43.386Z</time></trkpt><trkpt lat="44.6138247" lon="15.8487443"><ele>1165.0</ele><time>2026-04-27T10:55:44.386Z</time></trkpt><trkpt lat="44.6139228" lon="15.8488045"><ele>1165.0</ele><time>2026-04-27T10:55:45.387Z</time></trkpt><trkpt lat="44.6140147" lon="15.8488561"><ele>1165.0</ele><time>2026-04-27T10:55:46.386Z</time></trkpt><trkpt lat="44.614096" lon="15.8489007"><ele>1165.0</ele><time>2026-04-27T10:55:47.386Z</time></trkpt><trkpt lat="44.6141721" lon="15.8489185"><ele>1165.0</ele><time>2026-04-27T10:55:48.386Z</time></trkpt><trkpt lat="44.6142441" lon="15.8489398"><ele>1165.0</ele><time>2026-04-27T10:55:49.387Z</time></trkpt><trkpt lat="44.6143033" lon="15.848981"><ele>1165.0</ele><time>2026-04-27T10:55:50.386Z</time></trkpt><trkpt lat="44.6143769" lon="15.8490158"><ele>1165.0</ele><time>2026-04-27T10:55:51.386Z</time></trkpt><trkpt lat="44.6144859" lon="15.8491448"><ele>1165.0</ele><time>2026-04-27T10:55:52.387Z</time></trkpt><trkpt lat="44.614587" lon="15.8492168"><ele>1165.0</ele><time>2026-04-27T10:55:53.386Z</time></trkpt><trkpt lat="44.6146867" lon="15.8492725"><ele>1165.0</ele><time>2026-04-27T10:55:54.386Z</time></trkpt><trkpt lat="44.614796" lon="15.8493138"><ele>1167.25</ele><time>2026-04-27T10:55:55.386Z</time></trkpt><trkpt lat="44.6149101" lon="15.8493257"><ele>1169.5</ele><time>2026-04-27T10:55:56.387Z</time></trkpt><trkpt lat="44.615033" lon="15.8493286"><ele>1171.75</ele><time>2026-04-27T10:55:57.386Z</time></trkpt><trkpt lat="44.6151467" lon="15.8493142"><ele>1174.0</ele><time>2026-04-27T10:55:58.386Z</time></trkpt><trkpt lat="44.6152753" lon="15.849303"><ele>1169.0</ele><time>2026-04-27T10:55:59.386Z</time></trkpt><trkpt lat="44.6153975" lon="15.8492843"><ele>1164.0</ele><time>2026-04-27T10:56:00.387Z</time></trkpt><trkpt lat="44.6155148" lon="15.849263"><ele>1159.0</ele><time>2026-04-27T10:56:01.387Z</time></trkpt><trkpt lat="44.6156303" lon="15.8492453"><ele>1154.0</ele><time>2026-04-27T10:56:02.386Z</time></trkpt><trkpt lat="44.6157531" lon="15.8492281"><ele>1154.0</ele><time>2026-04-27T10:56:03.387Z</time></trkpt><trkpt lat="44.6158802" lon="15.8492119"><ele>1154.0</ele><time>2026-04-27T10:56:04.387Z</time></trkpt><trkpt lat="44.6160075" lon="15.8492359"><ele>1154.0</ele><time>2026-04-27T10:56:05.386Z</time></trkpt><trkpt lat="44.6161365" lon="15.8492503"><ele>1154.0</ele><time>2026-04-27T10:56:06.386Z</time></trkpt><trkpt lat="44.6162658" lon="15.8492373"><ele>1152.5</ele><time>2026-04-27T10:56:07.386Z</time></trkpt><trkpt lat="44.6164017" lon="15.8492381"><ele>1151.0</ele><time>2026-04-27T10:56:08.386Z</time></trkpt><trkpt lat="44.6165325" lon="15.8492181"><ele>1149.5</ele><time>2026-04-27T10:56:09.386Z</time></trkpt><trkpt lat="44.6166324" lon="15.8492086"><ele>1148.0</ele><time>2026-04-27T10:56:10.386Z</time></trkpt><trkpt lat="44.6167254" lon="15.8492123"><ele>1148.0</ele><time>2026-04-27T10:56:11.387Z</time></trkpt><trkpt lat="44.6168344" lon="15.8492317"><ele>1148.0</ele><time>2026-04-27T10:56:12.386Z</time></trkpt><trkpt lat="44.6169413" lon="15.8492402"><ele>1148.0</ele><time>2026-04-27T10:56:13.386Z</time></trkpt><trkpt lat="44.6170507" lon="15.8492455"><ele>1148.0</ele><time>2026-04-27T10:56:14.387Z</time></trkpt><trkpt lat="44.6171761" lon="15.8492251"><ele>1148.25</ele><time>2026-04-27T10:56:15.386Z</time></trkpt><trkpt lat="44.617264" lon="15.8491422"><ele>1148.5</ele><time>2026-04-27T10:56:16.387Z</time></trkpt><trkpt lat="44.6173623" lon="15.8490747"><ele>1148.75</ele><time>2026-04-27T10:56:17.386Z</time></trkpt><trkpt lat="44.6174634" lon="15.8489738"><ele>1149.0</ele><time>2026-04-27T10:56:18.386Z</time></trkpt><trkpt lat="44.6175597" lon="15.8488938"><ele>1149.0</ele><time>2026-04-27T10:56:19.386Z</time></trkpt><trkpt lat="44.6176573" lon="15.8487986"><ele>1149.0</ele><time>2026-04-27T10:56:20.386Z</time></trkpt><trkpt lat="44.6177599" lon="15.8487627"><ele>1149.0</ele><time>2026-04-27T10:56:21.386Z</time></trkpt><trkpt lat="44.6178567" lon="15.8487151"><ele>1149.0</ele><time>2026-04-27T10:56:22.386Z</time></trkpt><trkpt lat="44.6179599" lon="15.8486622"><ele>1149.0</ele><time>2026-04-27T10:56:23.386Z</time></trkpt><trkpt lat="44.6180784" lon="15.8486479"><ele>1152.25</ele><time>2026-04-27T10:56:24.387Z</time></trkpt><trkpt lat="44.6182117" lon="15.8486354"><ele>1155.5</ele><time>2026-04-27T10:56:25.386Z</time></trkpt><trkpt lat="44.6183452" lon="15.8486432"><ele>1158.75</ele><time>2026-04-27T10:56:26.386Z</time></trkpt><trkpt lat="44.6184714" lon="15.8486415"><ele>1162.0</ele><time>2026-04-27T10:56:27.387Z</time></trkpt><trkpt lat="44.6185787" lon="15.8486334"><ele>1158.0</ele><time>2026-04-27T10:56:28.386Z</time></trkpt><trkpt lat="44.6186935" lon="15.8486015"><ele>1154.0</ele><time>2026-04-27T10:56:29.386Z</time></trkpt><trkpt lat="44.6187884" lon="15.8485375"><ele>1150.0</ele><time>2026-04-27T10:56:30.386Z</time></trkpt><trkpt lat="44.618888" lon="15.8484727"><ele>1146.0</ele><time>2026-04-27T10:56:31.386Z</time></trkpt><trkpt lat="44.6189702" lon="15.8483382"><ele>1146.0</ele><time>2026-04-27T10:56:32.386Z</time></trkpt><trkpt lat="44.6190583" lon="15.8481892"><ele>1146.0</ele><time>2026-04-27T10:56:33.386Z</time></trkpt><trkpt lat="44.6191432" lon="15.8480064"><ele>1146.0</ele><time>2026-04-27T10:56:34.386Z</time></trkpt><trkpt lat="44.6192216" lon="15.8478783"><ele>1146.0</ele><time>2026-04-27T10:56:35.387Z</time></trkpt><trkpt lat="44.6192726" lon="15.847719"><ele>1143.0</ele><time>2026-04-27T10:56:36.386Z</time></trkpt><trkpt lat="44.6193286" lon="15.8475676"><ele>1140.0</ele><time>2026-04-27T10:56:37.386Z</time></trkpt><trkpt lat="44.6193766" lon="15.8473638"><ele>1137.0</ele><time>2026-04-27T10:56:38.386Z</time></trkpt><trkpt lat="44.6194299" lon="15.8472149"><ele>1134.0</ele><time>2026-04-27T10:56:39.386Z</time></trkpt><trkpt lat="44.6194832" lon="15.8470785"><ele>1133.25</ele><time>2026-04-27T10:56:40.387Z</time></trkpt><trkpt lat="44.6195393" lon="15.8469645"><ele>1132.5</ele><time>2026-04-27T10:56:41.386Z</time></trkpt><trkpt lat="44.6196136" lon="15.8468779"><ele>1131.75</ele><time>2026-04-27T10:56:42.387Z</time></trkpt><trkpt lat="44.6197181" lon="15.8467794"><ele>1131.0</ele><time>2026-04-27T10:56:43.386Z</time></trkpt><trkpt lat="44.6198276" lon="15.8466837"><ele>1131.0</ele><time>2026-04-27T10:56:44.386Z</time></trkpt><trkpt lat="44.6199975" lon="15.8466063"><ele>1131.0</ele><time>2026-04-27T10:56:45.386Z</time></trkpt><trkpt lat="44.6201387" lon="15.8465302"><ele>1131.0</ele><time>2026-04-27T10:56:46.386Z</time></trkpt><trkpt lat="44.6202792" lon="15.8464612"><ele>1136.3333333333333</ele><time>2026-04-27T10:56:47.386Z</time></trkpt><trkpt lat="44.6204091" lon="15.8463867"><ele>1141.6666666666665</ele><time>2026-04-27T10:56:48.386Z</time></trkpt><trkpt lat="44.6205408" lon="15.8462756"><ele>1147.0</ele><time>2026-04-27T10:56:49.386Z</time></trkpt><trkpt lat="44.6206899" lon="15.8461676"><ele>1147.0</ele><time>2026-04-27T10:56:50.384Z</time></trkpt><trkpt lat="44.6208281" lon="15.8460693"><ele>1147.0</ele><time>2026-04-27T10:56:51.387Z</time></trkpt><trkpt lat="44.6209678" lon="15.8459693"><ele>1147.0</ele><time>2026-04-27T10:56:52.386Z</time></trkpt><trkpt lat="44.6211229" lon="15.8458766"><ele>1144.0</ele><time>2026-04-27T10:56:53.386Z</time></trkpt><trkpt lat="44.6212759" lon="15.8457732"><ele>1141.0</ele><time>2026-04-27T10:56:54.386Z</time></trkpt><trkpt lat="44.6214286" lon="15.8456691"><ele>1138.0</ele><time>2026-04-27T10:56:55.386Z</time></trkpt><trkpt lat="44.6215876" lon="15.845558"><ele>1138.0</ele><time>2026-04-27T10:56:56.387Z</time></trkpt><trkpt lat="44.6217259" lon="15.8454602"><ele>1138.0</ele><time>2026-04-27T10:56:57.386Z</time></trkpt><trkpt lat="44.6218603" lon="15.8453524"><ele>1138.0</ele><time>2026-04-27T10:56:58.387Z</time></trkpt><trkpt lat="44.6219811" lon="15.8452603"><ele>1138.0</ele><time>2026-04-27T10:56:59.386Z</time></trkpt><trkpt lat="44.6220978" lon="15.8451885"><ele>1135.75</ele><time>2026-04-27T10:57:00.386Z</time></trkpt><trkpt lat="44.6222233" lon="15.8451153"><ele>1133.5</ele><time>2026-04-27T10:57:01.386Z</time></trkpt><trkpt lat="44.6223447" lon="15.8450599"><ele>1131.25</ele><time>2026-04-27T10:57:02.386Z</time></trkpt><trkpt lat="44.6224875" lon="15.8450728"><ele>1129.0</ele><time>2026-04-27T10:57:03.386Z</time></trkpt><trkpt lat="44.6226531" lon="15.8450644"><ele>1129.0</ele><time>2026-04-27T10:57:04.386Z</time></trkpt><trkpt lat="44.6228054" lon="15.845071"><ele>1129.0</ele><time>2026-04-27T10:57:05.386Z</time></trkpt><trkpt lat="44.6229519" lon="15.8450758"><ele>1129.0</ele><time>2026-04-27T10:57:06.386Z</time></trkpt><trkpt lat="44.6230804" lon="15.8450776"><ele>1129.0</ele><time>2026-04-27T10:57:07.386Z</time></trkpt><trkpt lat="44.623195" lon="15.8450922"><ele>1128.0</ele><time>2026-04-27T10:57:08.387Z</time></trkpt><trkpt lat="44.6233096" lon="15.8451122"><ele>1127.0</ele><time>2026-04-27T10:57:09.386Z</time></trkpt><trkpt lat="44.6234198" lon="15.8451425"><ele>1126.0</ele><time>2026-04-27T10:57:10.386Z</time></trkpt><trkpt lat="44.6235694" lon="15.8452096"><ele>1125.0</ele><time>2026-04-27T10:57:11.386Z</time></trkpt><trkpt lat="44.6236861" lon="15.845285"><ele>1124.75</ele><time>2026-04-27T10:57:12.386Z</time></trkpt><trkpt lat="44.623831" lon="15.8453519"><ele>1124.5</ele><time>2026-04-27T10:57:13.387Z</time></trkpt><trkpt lat="44.6239569" lon="15.8454077"><ele>1124.25</ele><time>2026-04-27T10:57:14.387Z</time></trkpt><trkpt lat="44.6240985" lon="15.8454698"><ele>1124.0</ele><time>2026-04-27T10:57:15.386Z</time></trkpt><trkpt lat="44.6242338" lon="15.8455401"><ele>1124.0</ele><time>2026-04-27T10:57:16.386Z</time></trkpt><trkpt lat="44.6243619" lon="15.8456004"><ele>1124.0</ele><time>2026-04-27T10:57:17.387Z</time></trkpt><trkpt lat="44.6245" lon="15.845675"><ele>1124.0</ele><time>2026-04-27T10:57:18.385Z</time></trkpt><trkpt lat="44.6246449" lon="15.8457439"><ele>1124.0</ele><time>2026-04-27T10:57:19.386Z</time></trkpt><trkpt lat="44.6247845" lon="15.8457959"><ele>1123.75</ele><time>2026-04-27T10:57:20.386Z</time></trkpt><trkpt lat="44.624928" lon="15.8458353"><ele>1123.5</ele><time>2026-04-27T10:57:21.386Z</time></trkpt><trkpt lat="44.6250638" lon="15.8458618"><ele>1123.25</ele><time>2026-04-27T10:57:22.386Z</time></trkpt><trkpt lat="44.6251743" lon="15.845873"><ele>1123.0</ele><time>2026-04-27T10:57:23.387Z</time></trkpt><trkpt lat="44.6252551" lon="15.845893"><ele>1124.0</ele><time>2026-04-27T10:57:24.386Z</time></trkpt><trkpt lat="44.6253179" lon="15.8459337"><ele>1125.0</ele><time>2026-04-27T10:57:25.386Z</time></trkpt><trkpt lat="44.6253752" lon="15.8460001"><ele>1126.0</ele><time>2026-04-27T10:57:26.386Z</time></trkpt><trkpt lat="44.6254312" lon="15.8460995"><ele>1127.0</ele><time>2026-04-27T10:57:27.387Z</time></trkpt><trkpt lat="44.6254916" lon="15.8462227"><ele>1128.0</ele><time>2026-04-27T10:57:28.386Z</time></trkpt><trkpt lat="44.6255556" lon="15.8463452"><ele>1129.0</ele><time>2026-04-27T10:57:29.386Z</time></trkpt><trkpt lat="44.6256215" lon="15.8464587"><ele>1129.0</ele><time>2026-04-27T10:57:30.386Z</time></trkpt><trkpt lat="44.6256938" lon="15.8465465"><ele>1129.0</ele><time>2026-04-27T10:57:31.386Z</time></trkpt><trkpt lat="44.6257852" lon="15.8465872"><ele>1129.0</ele><time>2026-04-27T10:57:32.386Z</time></trkpt><trkpt lat="44.6258971" lon="15.8465954"><ele>1129.0</ele><time>2026-04-27T10:57:33.386Z</time></trkpt><trkpt lat="44.6260154" lon="15.8465955"><ele>1129.0</ele><time>2026-04-27T10:57:34.386Z</time></trkpt><trkpt lat="44.6261331" lon="15.8465975"><ele>1128.25</ele><time>2026-04-27T10:57:35.386Z</time></trkpt><trkpt lat="44.6262506" lon="15.8465902"><ele>1127.5</ele><time>2026-04-27T10:57:36.386Z</time></trkpt><trkpt lat="44.6263775" lon="15.8465564"><ele>1126.75</ele><time>2026-04-27T10:57:37.386Z</time></trkpt><trkpt lat="44.6264808" lon="15.8465006"><ele>1126.0</ele><time>2026-04-27T10:57:38.386Z</time></trkpt><trkpt lat="44.6265795" lon="15.8464425"><ele>1126.0</ele><time>2026-04-27T10:57:39.386Z</time></trkpt><trkpt lat="44.6266759" lon="15.8463811"><ele>1126.0</ele><time>2026-04-27T10:57:40.387Z</time></trkpt><trkpt lat="44.6267701" lon="15.8463198"><ele>1126.0</ele><time>2026-04-27T10:57:41.387Z</time></trkpt><trkpt lat="44.6268614" lon="15.8462458"><ele>1126.0</ele><time>2026-04-27T10:57:42.386Z</time></trkpt><trkpt lat="44.6269328" lon="15.8461775"><ele>1126.0</ele><time>2026-04-27T10:57:43.386Z</time></trkpt><trkpt lat="44.6269936" lon="15.8461235"><ele>1124.8</ele><time>2026-04-27T10:57:44.387Z</time></trkpt><trkpt lat="44.6270683" lon="15.8461291"><ele>1123.6</ele><time>2026-04-27T10:57:45.386Z</time></trkpt><trkpt lat="44.6271492" lon="15.8461721"><ele>1122.4</ele><time>2026-04-27T10:57:46.386Z</time></trkpt><trkpt lat="44.6272513" lon="15.8462335"><ele>1121.2</ele><time>2026-04-27T10:57:47.387Z</time></trkpt><trkpt lat="44.627366" lon="15.8463042"><ele>1120.0</ele><time>2026-04-27T10:57:48.386Z</time></trkpt><trkpt lat="44.6274814" lon="15.8463634"><ele>1120.0</ele><time>2026-04-27T10:57:49.386Z</time></trkpt><trkpt lat="44.6275997" lon="15.8464243"><ele>1120.0</ele><time>2026-04-27T10:57:50.386Z</time></trkpt><trkpt lat="44.6277262" lon="15.8465297"><ele>1120.0</ele><time>2026-04-27T10:57:51.387Z</time></trkpt><trkpt lat="44.6279007" lon="15.8466337"><ele>1117.6666666666665</ele><time>2026-04-27T10:57:52.386Z</time></trkpt><trkpt lat="44.6280348" lon="15.8467109"><ele>1115.3333333333333</ele><time>2026-04-27T10:57:53.386Z</time></trkpt><trkpt lat="44.6281698" lon="15.8467801"><ele>1113.0</ele><time>2026-04-27T10:57:54.386Z</time></trkpt><trkpt lat="44.6283281" lon="15.8468582"><ele>1114.3333333333333</ele><time>2026-04-27T10:57:55.386Z</time></trkpt><trkpt lat="44.6284917" lon="15.8469399"><ele>1115.6666666666665</ele><time>2026-04-27T10:57:56.387Z</time></trkpt><trkpt lat="44.6286293" lon="15.8470333"><ele>1117.0</ele><time>2026-04-27T10:57:57.386Z</time></trkpt><trkpt lat="44.6287617" lon="15.8471147"><ele>1117.0</ele><time>2026-04-27T10:57:58.386Z</time></trkpt><trkpt lat="44.6289154" lon="15.8472055"><ele>1117.0</ele><time>2026-04-27T10:57:59.386Z</time></trkpt><trkpt lat="44.6290425" lon="15.8472774"><ele>1117.0</ele><time>2026-04-27T10:58:00.386Z</time></trkpt><trkpt lat="44.6291863" lon="15.8473504"><ele>1117.0</ele><time>2026-04-27T10:58:01.386Z</time></trkpt><trkpt lat="44.6293216" lon="15.8474449"><ele>1117.0</ele><time>2026-04-27T10:58:02.387Z</time></trkpt><trkpt lat="44.6294599" lon="15.8475242"><ele>1117.0</ele><time>2026-04-27T10:58:03.386Z</time></trkpt><trkpt lat="44.6295953" lon="15.8475911"><ele>1117.0</ele><time>2026-04-27T10:58:04.386Z</time></trkpt><trkpt lat="44.6297269" lon="15.8476602"><ele>1117.5</ele><time>2026-04-27T10:58:05.387Z</time></trkpt><trkpt lat="44.6298507" lon="15.8477409"><ele>1118.0</ele><time>2026-04-27T10:58:06.386Z</time></trkpt><trkpt lat="44.6299665" lon="15.8478157"><ele>1118.5</ele><time>2026-04-27T10:58:07.386Z</time></trkpt><trkpt lat="44.6300853" lon="15.8479118"><ele>1119.0</ele><time>2026-04-27T10:58:08.386Z</time></trkpt><trkpt lat="44.6301968" lon="15.847957"><ele>1117.25</ele><time>2026-04-27T10:58:09.386Z</time></trkpt><trkpt lat="44.6303186" lon="15.8480451"><ele>1115.5</ele><time>2026-04-27T10:58:10.387Z</time></trkpt><trkpt lat="44.6304327" lon="15.848123"><ele>1113.75</ele><time>2026-04-27T10:58:11.386Z</time></trkpt><trkpt lat="44.6305593" lon="15.8481923"><ele>1112.0</ele><time>2026-04-27T10:58:12.386Z</time></trkpt><trkpt lat="44.6306089" lon="15.8482558"><ele>1112.0</ele><time>2026-04-27T10:58:13.387Z</time></trkpt><trkpt lat="44.6306944" lon="15.8483295"><ele>1112.0</ele><time>2026-04-27T10:58:14.386Z</time></trkpt><trkpt lat="44.6307391" lon="15.8484408"><ele>1112.0</ele><time>2026-04-27T10:58:15.386Z</time></trkpt><trkpt lat="44.6307978" lon="15.8485499"><ele>1112.0</ele><time>2026-04-27T10:58:16.386Z</time></trkpt><trkpt lat="44.6308489" lon="15.848684"><ele>1112.0</ele><time>2026-04-27T10:58:17.386Z</time></trkpt><trkpt lat="44.6308594" lon="15.8488061"><ele>1112.0</ele><time>2026-04-27T10:58:18.386Z</time></trkpt><trkpt lat="44.630874" lon="15.848957"><ele>1112.0</ele><time>2026-04-27T10:58:19.386Z</time></trkpt><trkpt lat="44.6308872" lon="15.8491281"><ele>1112.0</ele><time>2026-04-27T10:58:20.386Z</time></trkpt><trkpt lat="44.6308896" lon="15.8492765"><ele>1112.0</ele><time>2026-04-27T10:58:21.386Z</time></trkpt><trkpt lat="44.6309181" lon="15.8494484"><ele>1112.0</ele><time>2026-04-27T10:58:22.386Z</time></trkpt><trkpt lat="44.6309458" lon="15.8496154"><ele>1112.0</ele><time>2026-04-27T10:58:23.387Z</time></trkpt><trkpt lat="44.6309888" lon="15.8497627"><ele>1112.0</ele><time>2026-04-27T10:58:24.387Z</time></trkpt><trkpt lat="44.6310486" lon="15.8499163"><ele>1112.0</ele><time>2026-04-27T10:58:25.386Z</time></trkpt><trkpt lat="44.6310911" lon="15.850031"><ele>1110.8</ele><time>2026-04-27T10:58:26.386Z</time></trkpt><trkpt lat="44.6311734" lon="15.8500814"><ele>1109.6</ele><time>2026-04-27T10:58:27.386Z</time></trkpt><trkpt lat="44.6312662" lon="15.8501469"><ele>1108.3999999999999</ele><time>2026-04-27T10:58:28.386Z</time></trkpt><trkpt lat="44.6313882" lon="15.8501515"><ele>1107.2</ele><time>2026-04-27T10:58:29.386Z</time></trkpt><trkpt lat="44.6314776" lon="15.8501829"><ele>1106.0</ele><time>2026-04-27T10:58:30.386Z</time></trkpt><trkpt lat="44.631559" lon="15.8502616"><ele>1105.2</ele><time>2026-04-27T10:58:31.387Z</time></trkpt><trkpt lat="44.6316459" lon="15.8503246"><ele>1104.3999999999999</ele><time>2026-04-27T10:58:32.387Z</time></trkpt><trkpt lat="44.6317043" lon="15.8504084"><ele>1103.6</ele><time>2026-04-27T10:58:33.386Z</time></trkpt><trkpt lat="44.6317741" lon="15.8504973"><ele>1102.8</ele><time>2026-04-27T10:58:34.387Z</time></trkpt><trkpt lat="44.6318267" lon="15.8506367"><ele>1102.0</ele><time>2026-04-27T10:58:36.386Z</time></trkpt><trkpt lat="44.6318653" lon="15.8507182"><ele>1102.0</ele><time>2026-04-27T10:58:37.386Z</time></trkpt><trkpt lat="44.631931" lon="15.8508085"><ele>1102.0</ele><time>2026-04-27T10:58:39.386Z</time></trkpt><trkpt lat="44.6320259" lon="15.8508584"><ele>1102.0</ele><time>2026-04-27T10:58:41.386Z</time></trkpt><trkpt lat="44.6321607" lon="15.8508566"><ele>1102.0</ele><time>2026-04-27T10:58:43.387Z</time></trkpt><trkpt lat="44.632273" lon="15.8508439"><ele>1102.0</ele><time>2026-04-27T10:58:44.386Z</time></trkpt><trkpt lat="44.6323811" lon="15.8508273"><ele>1103.3333333333333</ele><time>2026-04-27T10:58:45.386Z</time></trkpt><trkpt lat="44.632474" lon="15.850792"><ele>1104.6666666666665</ele><time>2026-04-27T10:58:46.386Z</time></trkpt><trkpt lat="44.6325612" lon="15.8507812"><ele>1106.0</ele><time>2026-04-27T10:58:47.386Z</time></trkpt><trkpt lat="44.632642" lon="15.8507771"><ele>1107.3333333333333</ele><time>2026-04-27T10:58:48.387Z</time></trkpt><trkpt lat="44.6327062" lon="15.8507893"><ele>1108.6666666666667</ele><time>2026-04-27T10:58:49.386Z</time></trkpt><trkpt lat="44.6327762" lon="15.8508333"><ele>1110.0</ele><time>2026-04-27T10:58:50.387Z</time></trkpt><trkpt lat="44.6328346" lon="15.8508954"><ele>1111.1666666666667</ele><time>2026-04-27T10:58:51.386Z</time></trkpt><trkpt lat="44.6329272" lon="15.850993"><ele>1112.3333333333333</ele><time>2026-04-27T10:58:52.387Z</time></trkpt><trkpt lat="44.6330085" lon="15.8510193"><ele>1113.5</ele><time>2026-04-27T10:58:53.386Z</time></trkpt><trkpt lat="44.6330872" lon="15.8510394"><ele>1114.6666666666665</ele><time>2026-04-27T10:58:54.386Z</time></trkpt><trkpt lat="44.6331604" lon="15.8510639"><ele>1115.8333333333333</ele><time>2026-04-27T10:58:55.387Z</time></trkpt><trkpt lat="44.633218" lon="15.8510004"><ele>1117.0</ele><time>2026-04-27T10:58:56.386Z</time></trkpt><trkpt lat="44.6332651" lon="15.8509349"><ele>1117.0</ele><time>2026-04-27T10:58:57.386Z</time></trkpt><trkpt lat="44.6333283" lon="15.850815"><ele>1117.0</ele><time>2026-04-27T10:58:58.387Z</time></trkpt><trkpt lat="44.6333996" lon="15.8507221"><ele>1117.0</ele><time>2026-04-27T10:58:59.386Z</time></trkpt><trkpt lat="44.6334944" lon="15.8506442"><ele>1117.0</ele><time>2026-04-27T10:59:00.387Z</time></trkpt><trkpt lat="44.63358" lon="15.85058"><ele>1117.0</ele><time>2026-04-27T10:59:01.387Z</time></trkpt><trkpt lat="44.6336731" lon="15.8505088"><ele>1119.6</ele><time>2026-04-27T10:59:02.386Z</time></trkpt><trkpt lat="44.6337758" lon="15.8504569"><ele>1122.2</ele><time>2026-04-27T10:59:03.387Z</time></trkpt><trkpt lat="44.6338485" lon="15.8504024"><ele>1124.8</ele><time>2026-04-27T10:59:04.386Z</time></trkpt><trkpt lat="44.633929" lon="15.8503353"><ele>1127.4</ele><time>2026-04-27T10:59:05.386Z</time></trkpt><trkpt lat="44.634011" lon="15.8502582"><ele>1130.0</ele><time>2026-04-27T10:59:06.386Z</time></trkpt><trkpt lat="44.6340772" lon="15.8502247"><ele>1130.0</ele><time>2026-04-27T10:59:07.386Z</time></trkpt><trkpt lat="44.6341871" lon="15.8501879"><ele>1130.0</ele><time>2026-04-27T10:59:09.386Z</time></trkpt><trkpt lat="44.634173" lon="15.8500681"><ele>1130.0</ele><time>2026-04-27T10:59:11.386Z</time></trkpt><trkpt lat="44.6341116" lon="15.8499608"><ele>1130.0</ele><time>2026-04-27T10:59:14.386Z</time></trkpt><trkpt lat="44.6339927" lon="15.8500225"><ele>1130.0</ele><time>2026-04-27T10:59:15.386Z</time></trkpt><trkpt lat="44.6339162" lon="15.8500592"><ele>1130.0</ele><time>2026-04-27T10:59:16.387Z</time></trkpt><trkpt lat="44.6338218" lon="15.8501215"><ele>1130.0</ele><time>2026-04-27T10:59:17.386Z</time></trkpt><trkpt lat="44.6337238" lon="15.8501562"><ele>1130.0</ele><time>2026-04-27T10:59:18.386Z</time></trkpt><trkpt lat="44.6336343" lon="15.8501712"><ele>1130.0</ele><time>2026-04-27T10:59:19.386Z</time></trkpt><trkpt lat="44.6335452" lon="15.8501662"><ele>1130.0</ele><time>2026-04-27T10:59:20.386Z</time></trkpt><trkpt lat="44.633432" lon="15.8501073"><ele>1127.4</ele><time>2026-04-27T10:59:22.386Z</time></trkpt><trkpt lat="44.6333345" lon="15.8499852"><ele>1124.8</ele><time>2026-04-27T10:59:24.386Z</time></trkpt><trkpt lat="44.6333078" lon="15.8498967"><ele>1122.2</ele><time>2026-04-27T10:59:25.386Z</time></trkpt><trkpt lat="44.6332353" lon="15.8497616"><ele>1119.6</ele><time>2026-04-27T10:59:26.386Z</time></trkpt><trkpt lat="44.6331719" lon="15.8496189"><ele>1117.0</ele><time>2026-04-27T10:59:27.386Z</time></trkpt><trkpt lat="44.633125" lon="15.8494866"><ele>1117.0</ele><time>2026-04-27T10:59:28.387Z</time></trkpt><trkpt lat="44.6330569" lon="15.8494045"><ele>1117.0</ele><time>2026-04-27T10:59:29.387Z</time></trkpt><trkpt lat="44.6329901" lon="15.8493331"><ele>1117.0</ele><time>2026-04-27T10:59:30.386Z</time></trkpt><trkpt lat="44.632882" lon="15.8492329"><ele>1117.0</ele><time>2026-04-27T10:59:31.387Z</time></trkpt><trkpt lat="44.6327951" lon="15.8491733"><ele>1117.0</ele><time>2026-04-27T10:59:32.387Z</time></trkpt><trkpt lat="44.632638" lon="15.8491579"><ele>1120.25</ele><time>2026-04-27T10:59:33.387Z</time></trkpt><trkpt lat="44.63252" lon="15.8491101"><ele>1123.5</ele><time>2026-04-27T10:59:34.386Z</time></trkpt><trkpt lat="44.6323797" lon="15.8490759"><ele>1126.75</ele><time>2026-04-27T10:59:35.386Z</time></trkpt><trkpt lat="44.6322709" lon="15.8490442"><ele>1130.0</ele><time>2026-04-27T10:59:36.386Z</time></trkpt><trkpt lat="44.6321559" lon="15.8490078"><ele>1130.0</ele><time>2026-04-27T10:59:37.386Z</time></trkpt><trkpt lat="44.6320705" lon="15.8489672"><ele>1130.0</ele><time>2026-04-27T10:59:38.386Z</time></trkpt><trkpt lat="44.632007" lon="15.8489107"><ele>1130.0</ele><time>2026-04-27T10:59:39.386Z</time></trkpt><trkpt lat="44.6319429" lon="15.8488106"><ele>1130.0</ele><time>2026-04-27T10:59:41.386Z</time></trkpt><trkpt lat="44.6319844" lon="15.8486882"><ele>1130.0</ele><time>2026-04-27T10:59:43.387Z</time></trkpt><trkpt lat="44.6320731" lon="15.8486359"><ele>1130.0</ele><time>2026-04-27T10:59:45.386Z</time></trkpt><trkpt lat="44.6321799" lon="15.8486128"><ele>1130.0</ele><time>2026-04-27T10:59:46.386Z</time></trkpt><trkpt lat="44.6322728" lon="15.8485799"><ele>1130.0</ele><time>2026-04-27T10:59:47.386Z</time></trkpt><trkpt lat="44.6323697" lon="15.8485697"><ele>1130.0</ele><time>2026-04-27T10:59:48.387Z</time></trkpt><trkpt lat="44.6324821" lon="15.848521"><ele>1130.0</ele><time>2026-04-27T10:59:49.387Z</time></trkpt><trkpt lat="44.6325835" lon="15.848465"><ele>1132.0</ele><time>2026-04-27T10:59:50.386Z</time></trkpt><trkpt lat="44.6326633" lon="15.848395"><ele>1134.0</ele><time>2026-04-27T10:59:51.386Z</time></trkpt><trkpt lat="44.6327506" lon="15.848322"><ele>1136.0</ele><time>2026-04-27T10:59:52.386Z</time></trkpt><trkpt lat="44.6328084" lon="15.8482572"><ele>1138.0</ele><time>2026-04-27T10:59:53.386Z</time></trkpt><trkpt lat="44.6329019" lon="15.848207"><ele>1140.0</ele><time>2026-04-27T10:59:54.386Z</time></trkpt><trkpt lat="44.6329957" lon="15.8481694"><ele>1141.0</ele><time>2026-04-27T10:59:55.387Z</time></trkpt><trkpt lat="44.6330874" lon="15.8481491"><ele>1142.0</ele><time>2026-04-27T10:59:56.387Z</time></trkpt><trkpt lat="44.6331731" lon="15.848115"><ele>1143.0</ele><time>2026-04-27T10:59:57.386Z</time></trkpt><trkpt lat="44.633226" lon="15.8480548"><ele>1144.0</ele><time>2026-04-27T10:59:58.387Z</time></trkpt><trkpt lat="44.6333009" lon="15.8479725"><ele>1145.0</ele><time>2026-04-27T10:59:59.386Z</time></trkpt><trkpt lat="44.6333602" lon="15.8478499"><ele>1145.0</ele><time>2026-04-27T11:00:00.386Z</time></trkpt><trkpt lat="44.6334274" lon="15.8477454"><ele>1145.0</ele><time>2026-04-27T11:00:01.386Z</time></trkpt><trkpt lat="44.6334747" lon="15.8476041"><ele>1145.0</ele><time>2026-04-27T11:00:02.386Z</time></trkpt><trkpt lat="44.6335273" lon="15.8474889"><ele>1145.0</ele><time>2026-04-27T11:00:03.386Z</time></trkpt><trkpt lat="44.6335741" lon="15.8473639"><ele>1145.0</ele><time>2026-04-27T11:00:04.386Z</time></trkpt><trkpt lat="44.6336156" lon="15.8472693"><ele>1145.25</ele><time>2026-04-27T11:00:05.386Z</time></trkpt><trkpt lat="44.6336955" lon="15.8471693"><ele>1145.5</ele><time>2026-04-27T11:00:07.386Z</time></trkpt><trkpt lat="44.6338323" lon="15.8471776"><ele>1145.75</ele><time>2026-04-27T11:00:09.387Z</time></trkpt><trkpt lat="44.6339413" lon="15.847214"><ele>1146.0</ele><time>2026-04-27T11:00:10.387Z</time></trkpt><trkpt lat="44.6340655" lon="15.8472768"><ele>1146.0</ele><time>2026-04-27T11:00:11.387Z</time></trkpt><trkpt lat="44.6342031" lon="15.8473424"><ele>1146.0</ele><time>2026-04-27T11:00:12.386Z</time></trkpt><trkpt lat="44.634334" lon="15.8474128"><ele>1146.0</ele><time>2026-04-27T11:00:13.387Z</time></trkpt><trkpt lat="44.634479" lon="15.8474839"><ele>1146.0</ele><time>2026-04-27T11:00:14.386Z</time></trkpt><trkpt lat="44.6345978" lon="15.8475457"><ele>1145.75</ele><time>2026-04-27T11:00:15.386Z</time></trkpt><trkpt lat="44.6347137" lon="15.8476188"><ele>1145.5</ele><time>2026-04-27T11:00:16.386Z</time></trkpt><trkpt lat="44.6348301" lon="15.8476599"><ele>1145.25</ele><time>2026-04-27T11:00:17.386Z</time></trkpt><trkpt lat="44.6349476" lon="15.8477009"><ele>1145.0</ele><time>2026-04-27T11:00:18.387Z</time></trkpt><trkpt lat="44.6350617" lon="15.8477218"><ele>1145.0</ele><time>2026-04-27T11:00:19.386Z</time></trkpt><trkpt lat="44.6351761" lon="15.8476877"><ele>1145.0</ele><time>2026-04-27T11:00:20.386Z</time></trkpt><trkpt lat="44.6352898" lon="15.847686"><ele>1145.0</ele><time>2026-04-27T11:00:21.386Z</time></trkpt><trkpt lat="44.6354145" lon="15.8477243"><ele>1145.0</ele><time>2026-04-27T11:00:22.386Z</time></trkpt><trkpt lat="44.6355269" lon="15.8477639"><ele>1145.0</ele><time>2026-04-27T11:00:23.386Z</time></trkpt><trkpt lat="44.6356219" lon="15.8478456"><ele>1145.0</ele><time>2026-04-27T11:00:24.386Z</time></trkpt><trkpt lat="44.6357121" lon="15.8479278"><ele>1145.0</ele><time>2026-04-27T11:00:25.386Z</time></trkpt><trkpt lat="44.6357845" lon="15.8480184"><ele>1145.0</ele><time>2026-04-27T11:00:26.387Z</time></trkpt><trkpt lat="44.6358585" lon="15.8481197"><ele>1145.0</ele><time>2026-04-27T11:00:27.387Z</time></trkpt><trkpt lat="44.6359162" lon="15.8482065"><ele>1145.0</ele><time>2026-04-27T11:00:28.386Z</time></trkpt><trkpt lat="44.6359721" lon="15.8483008"><ele>1145.0</ele><time>2026-04-27T11:00:29.387Z</time></trkpt><trkpt lat="44.6360235" lon="15.8483722"><ele>1145.0</ele><time>2026-04-27T11:00:30.387Z</time></trkpt><trkpt lat="44.6360762" lon="15.8484407"><ele>1145.0</ele><time>2026-04-27T11:00:31.386Z</time></trkpt><trkpt lat="44.6361825" lon="15.8485389"><ele>1145.0</ele><time>2026-04-27T11:00:33.386Z</time></trkpt><trkpt lat="44.6362812" lon="15.8485817"><ele>1146.75</ele><time>2026-04-27T11:00:35.386Z</time></trkpt><trkpt lat="44.6363703" lon="15.8486048"><ele>1148.5</ele><time>2026-04-27T11:00:37.386Z</time></trkpt><trkpt lat="44.6364768" lon="15.848559"><ele>1150.25</ele><time>2026-04-27T11:00:39.386Z</time></trkpt><trkpt lat="44.6365599" lon="15.8485508"><ele>1152.0</ele><time>2026-04-27T11:00:41.386Z</time></trkpt><trkpt lat="44.6367689" lon="15.8484938"><ele>1150.25</ele><time>2026-04-27T11:00:46.386Z</time></trkpt><trkpt lat="44.636864" lon="15.8484574"><ele>1148.5</ele><time>2026-04-27T11:00:48.386Z</time></trkpt><trkpt lat="44.6369557" lon="15.8484391"><ele>1146.75</ele><time>2026-04-27T11:00:50.386Z</time></trkpt><trkpt lat="44.6370657" lon="15.8484183"><ele>1145.0</ele><time>2026-04-27T11:00:52.386Z</time></trkpt><trkpt lat="44.6372308" lon="15.8483515"><ele>1144.2</ele><time>2026-04-27T11:00:56.386Z</time></trkpt><trkpt lat="44.6373107" lon="15.8483387"><ele>1143.4</ele><time>2026-04-27T11:00:58.386Z</time></trkpt><trkpt lat="44.637407" lon="15.8483085"><ele>1142.6</ele><time>2026-04-27T11:01:00.386Z</time></trkpt><trkpt lat="44.637506" lon="15.8482771"><ele>1141.8</ele><time>2026-04-27T11:01:02.387Z</time></trkpt><trkpt lat="44.6375912" lon="15.8482519"><ele>1141.0</ele><time>2026-04-27T11:01:04.386Z</time></trkpt><trkpt lat="44.6376901" lon="15.8482395"><ele>1141.0</ele><time>2026-04-27T11:01:06.386Z</time></trkpt><trkpt lat="44.6377771" lon="15.8482212"><ele>1141.0</ele><time>2026-04-27T11:01:08.386Z</time></trkpt><trkpt lat="44.637881" lon="15.8481878"><ele>1141.0</ele><time>2026-04-27T11:01:10.386Z</time></trkpt><trkpt lat="44.6379889" lon="15.8481797"><ele>1141.0</ele><time>2026-04-27T11:01:12.386Z</time></trkpt><trkpt lat="44.6381067" lon="15.848164"><ele>1141.0</ele><time>2026-04-27T11:01:14.386Z</time></trkpt><trkpt lat="44.6382027" lon="15.848161"><ele>1141.2</ele><time>2026-04-27T11:01:16.387Z</time></trkpt><trkpt lat="44.6383029" lon="15.8481547"><ele>1141.3999999999999</ele><time>2026-04-27T11:01:18.386Z</time></trkpt><trkpt lat="44.6383939" lon="15.848158"><ele>1141.6</ele><time>2026-04-27T11:01:20.387Z</time></trkpt><trkpt lat="44.6385012" lon="15.8481546"><ele>1141.8</ele><time>2026-04-27T11:01:22.387Z</time></trkpt><trkpt lat="44.6386241" lon="15.8481648"><ele>1142.0</ele><time>2026-04-27T11:01:24.386Z</time></trkpt><trkpt lat="44.6387021" lon="15.8481837"><ele>1142.0</ele><time>2026-04-27T11:01:26.386Z</time></trkpt><trkpt lat="44.6387916" lon="15.8482187"><ele>1142.0</ele><time>2026-04-27T11:01:28.387Z</time></trkpt><trkpt lat="44.6388856" lon="15.8482639"><ele>1142.0</ele><time>2026-04-27T11:01:30.386Z</time></trkpt><trkpt lat="44.6390025" lon="15.8483056"><ele>1142.0</ele><time>2026-04-27T11:01:32.386Z</time></trkpt><trkpt lat="44.6390673" lon="15.8483193"><ele>1142.0</ele><time>2026-04-27T11:01:33.386Z</time></trkpt><trkpt lat="44.6391298" lon="15.8483466"><ele>1142.0</ele><time>2026-04-27T11:01:34.387Z</time></trkpt><trkpt lat="44.6391986" lon="15.848369"><ele>1142.0</ele><time>2026-04-27T11:01:35.386Z</time></trkpt><trkpt lat="44.6393165" lon="15.8484035"><ele>1142.0</ele><time>2026-04-27T11:01:37.386Z</time></trkpt><trkpt lat="44.6393984" lon="15.8484548"><ele>1142.0</ele><time>2026-04-27T11:01:39.386Z</time></trkpt><trkpt lat="44.6392991" lon="15.8483989"><ele>1142.0</ele><time>2026-04-27T11:02:42.386Z</time></trkpt><trkpt lat="44.6392203" lon="15.8483876"><ele>1142.0</ele><time>2026-04-27T11:02:43.386Z</time></trkpt><trkpt lat="44.6391375" lon="15.8483498"><ele>1142.0</ele><time>2026-04-27T11:02:44.386Z</time></trkpt><trkpt lat="44.6390052" lon="15.8482768"><ele>1142.0</ele><time>2026-04-27T11:02:45.387Z</time></trkpt><trkpt lat="44.6388868" lon="15.8482395"><ele>1142.0</ele><time>2026-04-27T11:02:46.386Z</time></trkpt><trkpt lat="44.6387579" lon="15.8481913"><ele>1142.0</ele><time>2026-04-27T11:02:47.386Z</time></trkpt><trkpt lat="44.6386403" lon="15.8481657"><ele>1142.5</ele><time>2026-04-27T11:02:48.386Z</time></trkpt><trkpt lat="44.6385365" lon="15.8481514"><ele>1143.0</ele><time>2026-04-27T11:02:49.386Z</time></trkpt><trkpt lat="44.6384162" lon="15.8481428"><ele>1143.5</ele><time>2026-04-27T11:02:50.387Z</time></trkpt><trkpt lat="44.6382826" lon="15.8481566"><ele>1144.0</ele><time>2026-04-27T11:02:51.386Z</time></trkpt><trkpt lat="44.6380203" lon="15.8481667"><ele>1144.0</ele><time>2026-04-27T11:02:53.387Z</time></trkpt><trkpt lat="44.6378893" lon="15.8481771"><ele>1144.0</ele><time>2026-04-27T11:02:54.386Z</time></trkpt><trkpt lat="44.6377668" lon="15.8481934"><ele>1144.0</ele><time>2026-04-27T11:02:55.386Z</time></trkpt><trkpt lat="44.6376304" lon="15.8482268"><ele>1144.0</ele><time>2026-04-27T11:02:56.386Z</time></trkpt><trkpt lat="44.6374933" lon="15.8482625"><ele>1143.25</ele><time>2026-04-27T11:02:57.386Z</time></trkpt><trkpt lat="44.6373506" lon="15.8483063"><ele>1142.5</ele><time>2026-04-27T11:02:58.386Z</time></trkpt><trkpt lat="44.6372244" lon="15.8483417"><ele>1141.75</ele><time>2026-04-27T11:02:59.386Z</time></trkpt><trkpt lat="44.6370986" lon="15.8483665"><ele>1141.0</ele><time>2026-04-27T11:03:00.386Z</time></trkpt><trkpt lat="44.6369937" lon="15.848382"><ele>1141.8</ele><time>2026-04-27T11:03:01.386Z</time></trkpt><trkpt lat="44.6368918" lon="15.8484079"><ele>1142.6</ele><time>2026-04-27T11:03:02.386Z</time></trkpt><trkpt lat="44.6367957" lon="15.848432"><ele>1143.4</ele><time>2026-04-27T11:03:03.386Z</time></trkpt><trkpt lat="44.6366929" lon="15.8484654"><ele>1144.2</ele><time>2026-04-27T11:03:04.387Z</time></trkpt><trkpt lat="44.6365972" lon="15.8484945"><ele>1145.0</ele><time>2026-04-27T11:03:05.387Z</time></trkpt><trkpt lat="44.6364994" lon="15.8485256"><ele>1145.0</ele><time>2026-04-27T11:03:06.386Z</time></trkpt><trkpt lat="44.6363577" lon="15.8485507"><ele>1145.0</ele><time>2026-04-27T11:03:08.386Z</time></trkpt><trkpt lat="44.6362909" lon="15.8485476"><ele>1145.0</ele><time>2026-04-27T11:03:09.387Z</time></trkpt><trkpt lat="44.6362064" lon="15.8484849"><ele>1145.0</ele><time>2026-04-27T11:03:10.386Z</time></trkpt><trkpt lat="44.6361282" lon="15.8484092"><ele>1145.0</ele><time>2026-04-27T11:03:11.386Z</time></trkpt><trkpt lat="44.6360349" lon="15.8483031"><ele>1145.0</ele><time>2026-04-27T11:03:12.386Z</time></trkpt><trkpt lat="44.6359515" lon="15.8482"><ele>1145.0</ele><time>2026-04-27T11:03:13.386Z</time></trkpt><trkpt lat="44.6358727" lon="15.8480871"><ele>1145.0</ele><time>2026-04-27T11:03:14.386Z</time></trkpt><trkpt lat="44.6357896" lon="15.8479768"><ele>1145.0</ele><time>2026-04-27T11:03:15.386Z</time></trkpt><trkpt lat="44.6357036" lon="15.8478673"><ele>1145.0</ele><time>2026-04-27T11:03:16.386Z</time></trkpt><trkpt lat="44.6356125" lon="15.8477847"><ele>1145.0</ele><time>2026-04-27T11:03:17.386Z</time></trkpt><trkpt lat="44.6355295" lon="15.8477251"><ele>1145.0</ele><time>2026-04-27T11:03:18.387Z</time></trkpt><trkpt lat="44.6354362" lon="15.847691"><ele>1145.0</ele><time>2026-04-27T11:03:19.387Z</time></trkpt><trkpt lat="44.6353477" lon="15.8476518"><ele>1145.0</ele><time>2026-04-27T11:03:20.386Z</time></trkpt><trkpt lat="44.6352389" lon="15.8476553"><ele>1145.0</ele><time>2026-04-27T11:03:21.387Z</time></trkpt><trkpt lat="44.635132" lon="15.847655"><ele>1145.0</ele><time>2026-04-27T11:03:22.386Z</time></trkpt><trkpt lat="44.635031" lon="15.8476484"><ele>1145.0</ele><time>2026-04-27T11:03:23.386Z</time></trkpt><trkpt lat="44.6349312" lon="15.8476326"><ele>1145.0</ele><time>2026-04-27T11:03:24.386Z</time></trkpt><trkpt lat="44.6348182" lon="15.847593"><ele>1145.0</ele><time>2026-04-27T11:03:25.386Z</time></trkpt><trkpt lat="44.6346957" lon="15.8475509"><ele>1145.0</ele><time>2026-04-27T11:03:26.387Z</time></trkpt><trkpt lat="44.6345805" lon="15.8474719"><ele>1145.0</ele><time>2026-04-27T11:03:27.386Z</time></trkpt><trkpt lat="44.634451" lon="15.8473885"><ele>1145.0</ele><time>2026-04-27T11:03:28.387Z</time></trkpt><trkpt lat="44.6342983" lon="15.8473211"><ele>1145.0</ele><time>2026-04-27T11:03:29.386Z</time></trkpt><trkpt lat="44.6341745" lon="15.8472519"><ele>1145.3333333333335</ele><time>2026-04-27T11:03:30.386Z</time></trkpt><trkpt lat="44.6339636" lon="15.8471431"><ele>1145.6666666666667</ele><time>2026-04-27T11:03:32.387Z</time></trkpt><trkpt lat="44.633815" lon="15.8470895"><ele>1146.0</ele><time>2026-04-27T11:03:34.386Z</time></trkpt><trkpt lat="44.6337221" lon="15.8470399"><ele>1146.0</ele><time>2026-04-27T11:03:36.387Z</time></trkpt><trkpt lat="44.6336427" lon="15.8471071"><ele>1146.0</ele><time>2026-04-27T11:03:40.386Z</time></trkpt><trkpt lat="44.6338492" lon="15.8471712"><ele>1146.0</ele><time>2026-04-27T11:04:30.386Z</time></trkpt><trkpt lat="44.633927" lon="15.847227"><ele>1146.0</ele><time>2026-04-27T11:04:31.386Z</time></trkpt><trkpt lat="44.6340242" lon="15.8472654"><ele>1146.0</ele><time>2026-04-27T11:04:32.386Z</time></trkpt><trkpt lat="44.6341239" lon="15.8473109"><ele>1146.0</ele><time>2026-04-27T11:04:33.386Z</time></trkpt><trkpt lat="44.634251" lon="15.8473528"><ele>1146.0</ele><time>2026-04-27T11:04:34.386Z</time></trkpt><trkpt lat="44.6343749" lon="15.8473924"><ele>1146.0</ele><time>2026-04-27T11:04:35.386Z</time></trkpt><trkpt lat="44.6344754" lon="15.8474559"><ele>1145.8</ele><time>2026-04-27T11:04:36.386Z</time></trkpt><trkpt lat="44.6345911" lon="15.8475174"><ele>1145.6</ele><time>2026-04-27T11:04:37.386Z</time></trkpt><trkpt lat="44.6346876" lon="15.8475746"><ele>1145.4</ele><time>2026-04-27T11:04:38.386Z</time></trkpt><trkpt lat="44.6347788" lon="15.8476192"><ele>1145.2</ele><time>2026-04-27T11:04:39.386Z</time></trkpt><trkpt lat="44.6348796" lon="15.8476523"><ele>1145.0</ele><time>2026-04-27T11:04:40.387Z</time></trkpt><trkpt lat="44.634988" lon="15.8476752"><ele>1145.0</ele><time>2026-04-27T11:04:41.386Z</time></trkpt><trkpt lat="44.6350942" lon="15.847683"><ele>1145.0</ele><time>2026-04-27T11:04:42.386Z</time></trkpt><trkpt lat="44.6351964" lon="15.8476879"><ele>1145.0</ele><time>2026-04-27T11:04:43.386Z</time></trkpt><trkpt lat="44.6352949" lon="15.8476975"><ele>1145.0</ele><time>2026-04-27T11:04:44.386Z</time></trkpt><trkpt lat="44.6353815" lon="15.8477079"><ele>1145.0</ele><time>2026-04-27T11:04:45.386Z</time></trkpt><trkpt lat="44.6354688" lon="15.8477249"><ele>1145.0</ele><time>2026-04-27T11:04:46.386Z</time></trkpt><trkpt lat="44.6355588" lon="15.847771"><ele>1145.0</ele><time>2026-04-27T11:04:47.387Z</time></trkpt><trkpt lat="44.6356488" lon="15.8478403"><ele>1145.0</ele><time>2026-04-27T11:04:48.386Z</time></trkpt><trkpt lat="44.6357321" lon="15.8479235"><ele>1145.0</ele><time>2026-04-27T11:04:49.386Z</time></trkpt><trkpt lat="44.6358216" lon="15.848014"><ele>1145.0</ele><time>2026-04-27T11:04:50.387Z</time></trkpt><trkpt lat="44.6359132" lon="15.8481097"><ele>1145.0</ele><time>2026-04-27T11:04:51.386Z</time></trkpt><trkpt lat="44.6359984" lon="15.8482258"><ele>1145.0</ele><time>2026-04-27T11:04:52.386Z</time></trkpt><trkpt lat="44.6360665" lon="15.8483475"><ele>1145.0</ele><time>2026-04-27T11:04:53.387Z</time></trkpt><trkpt lat="44.6361357" lon="15.8484621"><ele>1145.0</ele><time>2026-04-27T11:04:54.387Z</time></trkpt><trkpt lat="44.6362189" lon="15.8485245"><ele>1145.0</ele><time>2026-04-27T11:04:55.386Z</time></trkpt><trkpt lat="44.6363005" lon="15.8485613"><ele>1146.4</ele><time>2026-04-27T11:04:56.386Z</time></trkpt><trkpt lat="44.6363819" lon="15.8485776"><ele>1147.8</ele><time>2026-04-27T11:04:57.386Z</time></trkpt><trkpt lat="44.6364686" lon="15.8485762"><ele>1149.2</ele><time>2026-04-27T11:04:58.387Z</time></trkpt><trkpt lat="44.636556" lon="15.8485559"><ele>1150.6</ele><time>2026-04-27T11:04:59.386Z</time></trkpt><trkpt lat="44.6366419" lon="15.848527"><ele>1152.0</ele><time>2026-04-27T11:05:00.386Z</time></trkpt><trkpt lat="44.6367587" lon="15.8484884"><ele>1150.25</ele><time>2026-04-27T11:05:01.386Z</time></trkpt><trkpt lat="44.636875" lon="15.8484432"><ele>1148.5</ele><time>2026-04-27T11:05:02.386Z</time></trkpt><trkpt lat="44.6369886" lon="15.848397"><ele>1146.75</ele><time>2026-04-27T11:05:03.386Z</time></trkpt><trkpt lat="44.6370968" lon="15.8483708"><ele>1145.0</ele><time>2026-04-27T11:05:04.386Z</time></trkpt><trkpt lat="44.6372053" lon="15.8483501"><ele>1144.0</ele><time>2026-04-27T11:05:05.386Z</time></trkpt><trkpt lat="44.637315" lon="15.848329"><ele>1143.0</ele><time>2026-04-27T11:05:06.386Z</time></trkpt><trkpt lat="44.6374283" lon="15.8482973"><ele>1142.0</ele><time>2026-04-27T11:05:07.387Z</time></trkpt><trkpt lat="44.6375487" lon="15.848257"><ele>1141.0</ele><time>2026-04-27T11:05:08.386Z</time></trkpt><trkpt lat="44.6376771" lon="15.8482171"><ele>1141.75</ele><time>2026-04-27T11:05:09.386Z</time></trkpt><trkpt lat="44.6378034" lon="15.8481869"><ele>1142.5</ele><time>2026-04-27T11:05:10.387Z</time></trkpt><trkpt lat="44.6379227" lon="15.8481733"><ele>1143.25</ele><time>2026-04-27T11:05:11.386Z</time></trkpt><trkpt lat="44.6380269" lon="15.848152"><ele>1144.0</ele><time>2026-04-27T11:05:12.386Z</time></trkpt><trkpt lat="44.638128" lon="15.8481444"><ele>1144.0</ele><time>2026-04-27T11:05:13.386Z</time></trkpt><trkpt lat="44.6382393" lon="15.8481465"><ele>1144.0</ele><time>2026-04-27T11:05:14.387Z</time></trkpt><trkpt lat="44.6383509" lon="15.8481525"><ele>1144.0</ele><time>2026-04-27T11:05:15.386Z</time></trkpt><trkpt lat="44.6384702" lon="15.8481505"><ele>1144.0</ele><time>2026-04-27T11:05:16.386Z</time></trkpt><trkpt lat="44.6385936" lon="15.848163"><ele>1143.5</ele><time>2026-04-27T11:05:17.387Z</time></trkpt><trkpt lat="44.6387281" lon="15.8481741"><ele>1143.0</ele><time>2026-04-27T11:05:18.387Z</time></trkpt><trkpt lat="44.6388505" lon="15.848214"><ele>1142.5</ele><time>2026-04-27T11:05:19.387Z</time></trkpt><trkpt lat="44.6389883" lon="15.8482568"><ele>1142.0</ele><time>2026-04-27T11:05:20.386Z</time></trkpt><trkpt lat="44.6391098" lon="15.8483285"><ele>1142.0</ele><time>2026-04-27T11:05:21.386Z</time></trkpt><trkpt lat="44.6392295" lon="15.8483716"><ele>1142.0</ele><time>2026-04-27T11:05:22.386Z</time></trkpt><trkpt lat="44.6393642" lon="15.848396"><ele>1142.0</ele><time>2026-04-27T11:05:23.387Z</time></trkpt><trkpt lat="44.6394908" lon="15.8484011"><ele>1142.0</ele><time>2026-04-27T11:05:24.386Z</time></trkpt><trkpt lat="44.6396098" lon="15.8483994"><ele>1140.75</ele><time>2026-04-27T11:05:25.386Z</time></trkpt><trkpt lat="44.6397368" lon="15.8483455"><ele>1139.5</ele><time>2026-04-27T11:05:26.387Z</time></trkpt><trkpt lat="44.6398634" lon="15.8483155"><ele>1138.25</ele><time>2026-04-27T11:05:27.387Z</time></trkpt><trkpt lat="44.6399962" lon="15.8482586"><ele>1137.0</ele><time>2026-04-27T11:05:28.386Z</time></trkpt><trkpt lat="44.6401487" lon="15.8481995"><ele>1136.5</ele><time>2026-04-27T11:05:29.387Z</time></trkpt><trkpt lat="44.6403012" lon="15.8481532"><ele>1136.0</ele><time>2026-04-27T11:05:30.387Z</time></trkpt><trkpt lat="44.6404394" lon="15.8480995"><ele>1135.5</ele><time>2026-04-27T11:05:31.386Z</time></trkpt><trkpt lat="44.6405738" lon="15.8480511"><ele>1135.0</ele><time>2026-04-27T11:05:32.386Z</time></trkpt><trkpt lat="44.6406991" lon="15.8480034"><ele>1135.0</ele><time>2026-04-27T11:05:33.387Z</time></trkpt><trkpt lat="44.6408215" lon="15.8479666"><ele>1135.0</ele><time>2026-04-27T11:05:34.386Z</time></trkpt><trkpt lat="44.6409532" lon="15.8479202"><ele>1135.0</ele><time>2026-04-27T11:05:35.386Z</time></trkpt><trkpt lat="44.6410827" lon="15.8478431"><ele>1135.0</ele><time>2026-04-27T11:05:36.386Z</time></trkpt><trkpt lat="44.6411985" lon="15.8477977"><ele>1132.75</ele><time>2026-04-27T11:05:37.386Z</time></trkpt><trkpt lat="44.6413222" lon="15.8477627"><ele>1130.5</ele><time>2026-04-27T11:05:38.386Z</time></trkpt><trkpt lat="44.6414522" lon="15.8477226"><ele>1128.25</ele><time>2026-04-27T11:05:39.386Z</time></trkpt><trkpt lat="44.6415813" lon="15.8476849"><ele>1126.0</ele><time>2026-04-27T11:05:40.387Z</time></trkpt><trkpt lat="44.6417057" lon="15.8476434"><ele>1125.75</ele><time>2026-04-27T11:05:41.386Z</time></trkpt><trkpt lat="44.6418341" lon="15.8476029"><ele>1125.5</ele><time>2026-04-27T11:05:42.386Z</time></trkpt><trkpt lat="44.6419675" lon="15.8475595"><ele>1125.25</ele><time>2026-04-27T11:05:43.386Z</time></trkpt><trkpt lat="44.6420961" lon="15.847524"><ele>1125.0</ele><time>2026-04-27T11:05:44.387Z</time></trkpt><trkpt lat="44.642225" lon="15.8474983"><ele>1124.6</ele><time>2026-04-27T11:05:45.387Z</time></trkpt><trkpt lat="44.642341" lon="15.8474714"><ele>1124.2</ele><time>2026-04-27T11:05:46.386Z</time></trkpt><trkpt lat="44.6424518" lon="15.8474403"><ele>1123.8</ele><time>2026-04-27T11:05:47.387Z</time></trkpt><trkpt lat="44.6425576" lon="15.8474203"><ele>1123.4</ele><time>2026-04-27T11:05:48.386Z</time></trkpt><trkpt lat="44.6426607" lon="15.8474221"><ele>1123.0</ele><time>2026-04-27T11:05:49.387Z</time></trkpt><trkpt lat="44.6427637" lon="15.8474384"><ele>1123.25</ele><time>2026-04-27T11:05:50.387Z</time></trkpt><trkpt lat="44.6428729" lon="15.8474829"><ele>1123.5</ele><time>2026-04-27T11:05:51.386Z</time></trkpt><trkpt lat="44.6429815" lon="15.8475479"><ele>1123.75</ele><time>2026-04-27T11:05:52.386Z</time></trkpt><trkpt lat="44.643096" lon="15.8476209"><ele>1124.0</ele><time>2026-04-27T11:05:53.386Z</time></trkpt><trkpt lat="44.6432093" lon="15.8476999"><ele>1124.0</ele><time>2026-04-27T11:05:54.386Z</time></trkpt><trkpt lat="44.6433256" lon="15.8477784"><ele>1124.0</ele><time>2026-04-27T11:05:55.386Z</time></trkpt><trkpt lat="44.643442" lon="15.8478512"><ele>1124.0</ele><time>2026-04-27T11:05:56.386Z</time></trkpt><trkpt lat="44.643553" lon="15.8479237"><ele>1124.0</ele><time>2026-04-27T11:05:57.386Z</time></trkpt><trkpt lat="44.6436533" lon="15.8480025"><ele>1124.6000000000001</ele><time>2026-04-27T11:05:58.386Z</time></trkpt><trkpt lat="44.6437318" lon="15.848087"><ele>1125.2</ele><time>2026-04-27T11:05:59.386Z</time></trkpt><trkpt lat="44.6437994" lon="15.8481895"><ele>1125.8000000000002</ele><time>2026-04-27T11:06:00.387Z</time></trkpt><trkpt lat="44.6438602" lon="15.8483092"><ele>1126.4</ele><time>2026-04-27T11:06:01.386Z</time></trkpt><trkpt lat="44.6439155" lon="15.8484516"><ele>1127.0</ele><time>2026-04-27T11:06:02.386Z</time></trkpt><trkpt lat="44.6439699" lon="15.848613"><ele>1127.0</ele><time>2026-04-27T11:06:03.386Z</time></trkpt><trkpt lat="44.6440348" lon="15.8487956"><ele>1127.0</ele><time>2026-04-27T11:06:04.386Z</time></trkpt><trkpt lat="44.6441033" lon="15.8489834"><ele>1127.0</ele><time>2026-04-27T11:06:05.387Z</time></trkpt><trkpt lat="44.6441675" lon="15.8491607"><ele>1127.0</ele><time>2026-04-27T11:06:06.386Z</time></trkpt><trkpt lat="44.6442237" lon="15.849318"><ele>1127.0</ele><time>2026-04-27T11:06:07.386Z</time></trkpt><trkpt lat="44.6442707" lon="15.8494664"><ele>1127.0</ele><time>2026-04-27T11:06:08.386Z</time></trkpt><trkpt lat="44.6443063" lon="15.8496142"><ele>1127.0</ele><time>2026-04-27T11:06:09.387Z</time></trkpt><trkpt lat="44.6443363" lon="15.8497651"><ele>1127.0</ele><time>2026-04-27T11:06:10.386Z</time></trkpt><trkpt lat="44.6443579" lon="15.8499295"><ele>1127.0</ele><time>2026-04-27T11:06:11.386Z</time></trkpt><trkpt lat="44.6443828" lon="15.8501022"><ele>1127.0</ele><time>2026-04-27T11:06:12.386Z</time></trkpt><trkpt lat="44.6444105" lon="15.8502815"><ele>1127.0</ele><time>2026-04-27T11:06:13.386Z</time></trkpt><trkpt lat="44.644435" lon="15.85046"><ele>1127.0</ele><time>2026-04-27T11:06:14.382Z</time></trkpt><trkpt lat="44.6444662" lon="15.8506321"><ele>1127.5</ele><time>2026-04-27T11:06:15.387Z</time></trkpt><trkpt lat="44.6444901" lon="15.8508074"><ele>1128.0</ele><time>2026-04-27T11:06:16.386Z</time></trkpt><trkpt lat="44.6445128" lon="15.8509794"><ele>1128.5</ele><time>2026-04-27T11:06:17.387Z</time></trkpt><trkpt lat="44.6445412" lon="15.8511434"><ele>1129.0</ele><time>2026-04-27T11:06:18.386Z</time></trkpt><trkpt lat="44.6445651" lon="15.8513149"><ele>1129.5</ele><time>2026-04-27T11:06:19.387Z</time></trkpt><trkpt lat="44.6445906" lon="15.8514842"><ele>1130.0</ele><time>2026-04-27T11:06:20.386Z</time></trkpt><trkpt lat="44.6446225" lon="15.8516545"><ele>1130.5</ele><time>2026-04-27T11:06:21.387Z</time></trkpt><trkpt lat="44.6446573" lon="15.851811"><ele>1131.0</ele><time>2026-04-27T11:06:22.386Z</time></trkpt><trkpt lat="44.6446916" lon="15.8519595"><ele>1132.0</ele><time>2026-04-27T11:06:23.387Z</time></trkpt><trkpt lat="44.6447465" lon="15.8521151"><ele>1133.0</ele><time>2026-04-27T11:06:24.386Z</time></trkpt><trkpt lat="44.644806" lon="15.8522622"><ele>1134.0</ele><time>2026-04-27T11:06:25.386Z</time></trkpt><trkpt lat="44.644865" lon="15.8524198"><ele>1135.0</ele><time>2026-04-27T11:06:26.386Z</time></trkpt><trkpt lat="44.6449309" lon="15.8525734"><ele>1135.75</ele><time>2026-04-27T11:06:27.386Z</time></trkpt><trkpt lat="44.6449948" lon="15.8527215"><ele>1136.5</ele><time>2026-04-27T11:06:28.386Z</time></trkpt><trkpt lat="44.645062" lon="15.8528714"><ele>1137.25</ele><time>2026-04-27T11:06:29.386Z</time></trkpt><trkpt lat="44.6451297" lon="15.8530239"><ele>1138.0</ele><time>2026-04-27T11:06:30.386Z</time></trkpt><trkpt lat="44.6451939" lon="15.8531791"><ele>1138.0</ele><time>2026-04-27T11:06:31.386Z</time></trkpt><trkpt lat="44.6452601" lon="15.8533332"><ele>1138.0</ele><time>2026-04-27T11:06:32.387Z</time></trkpt><trkpt lat="44.6453272" lon="15.8534953"><ele>1138.0</ele><time>2026-04-27T11:06:33.387Z</time></trkpt><trkpt lat="44.6453991" lon="15.8536525"><ele>1138.0</ele><time>2026-04-27T11:06:34.386Z</time></trkpt><trkpt lat="44.6454649" lon="15.8538073"><ele>1136.75</ele><time>2026-04-27T11:06:35.386Z</time></trkpt><trkpt lat="44.6455383" lon="15.8539765"><ele>1135.5</ele><time>2026-04-27T11:06:36.386Z</time></trkpt><trkpt lat="44.6456008" lon="15.8541284"><ele>1134.25</ele><time>2026-04-27T11:06:37.386Z</time></trkpt><trkpt lat="44.6456573" lon="15.8542888"><ele>1133.0</ele><time>2026-04-27T11:06:38.386Z</time></trkpt><trkpt lat="44.6457213" lon="15.8544499"><ele>1133.0</ele><time>2026-04-27T11:06:39.386Z</time></trkpt><trkpt lat="44.6457841" lon="15.8546057"><ele>1133.0</ele><time>2026-04-27T11:06:40.386Z</time></trkpt><trkpt lat="44.6458459" lon="15.8547628"><ele>1133.0</ele><time>2026-04-27T11:06:41.387Z</time></trkpt><trkpt lat="44.6459065" lon="15.8548908"><ele>1133.0</ele><time>2026-04-27T11:06:42.386Z</time></trkpt><trkpt lat="44.6459919" lon="15.8550192"><ele>1133.0</ele><time>2026-04-27T11:06:43.387Z</time></trkpt><trkpt lat="44.6460853" lon="15.8551385"><ele>1133.0</ele><time>2026-04-27T11:06:44.386Z</time></trkpt><trkpt lat="44.6461777" lon="15.8552519"><ele>1133.0</ele><time>2026-04-27T11:06:45.386Z</time></trkpt><trkpt lat="44.6462793" lon="15.8553648"><ele>1133.0</ele><time>2026-04-27T11:06:46.386Z</time></trkpt><trkpt lat="44.6463713" lon="15.8554666"><ele>1133.0</ele><time>2026-04-27T11:06:47.386Z</time></trkpt><trkpt lat="44.6464558" lon="15.8555642"><ele>1133.0</ele><time>2026-04-27T11:06:48.386Z</time></trkpt><trkpt lat="44.6465437" lon="15.855655"><ele>1133.0</ele><time>2026-04-27T11:06:49.386Z</time></trkpt><trkpt lat="44.6466276" lon="15.8557533"><ele>1133.0</ele><time>2026-04-27T11:06:50.387Z</time></trkpt><trkpt lat="44.646712" lon="15.8558449"><ele>1133.0</ele><time>2026-04-27T11:06:51.386Z</time></trkpt><trkpt lat="44.6467925" lon="15.8559357"><ele>1133.8</ele><time>2026-04-27T11:06:52.386Z</time></trkpt><trkpt lat="44.646875" lon="15.8560339"><ele>1134.6</ele><time>2026-04-27T11:06:53.386Z</time></trkpt><trkpt lat="44.6469659" lon="15.8561192"><ele>1135.4</ele><time>2026-04-27T11:06:54.386Z</time></trkpt><trkpt lat="44.6470606" lon="15.8562071"><ele>1136.2</ele><time>2026-04-27T11:06:55.387Z</time></trkpt><trkpt lat="44.6471407" lon="15.8562799"><ele>1137.0</ele><time>2026-04-27T11:06:56.387Z</time></trkpt><trkpt lat="44.6472216" lon="15.8563459"><ele>1137.6666666666667</ele><time>2026-04-27T11:06:57.386Z</time></trkpt><trkpt lat="44.6473021" lon="15.8564022"><ele>1138.3333333333333</ele><time>2026-04-27T11:06:58.386Z</time></trkpt><trkpt lat="44.647398" lon="15.8564613"><ele>1139.0</ele><time>2026-04-27T11:07:00.386Z</time></trkpt><trkpt lat="44.6474715" lon="15.8564844"><ele>1139.6666666666665</ele><time>2026-04-27T11:07:02.386Z</time></trkpt><trkpt lat="44.6475466" lon="15.8564874"><ele>1140.3333333333333</ele><time>2026-04-27T11:07:03.387Z</time></trkpt><trkpt lat="44.6476178" lon="15.8565133"><ele>1141.0</ele><time>2026-04-27T11:07:04.387Z</time></trkpt><trkpt lat="44.6477037" lon="15.8565035"><ele>1141.0</ele><time>2026-04-27T11:07:05.386Z</time></trkpt><trkpt lat="44.6477912" lon="15.8564992"><ele>1141.0</ele><time>2026-04-27T11:07:06.386Z</time></trkpt><trkpt lat="44.6478779" lon="15.8564977"><ele>1141.0</ele><time>2026-04-27T11:07:07.386Z</time></trkpt><trkpt lat="44.6479903" lon="15.8565049"><ele>1141.0</ele><time>2026-04-27T11:07:08.386Z</time></trkpt><trkpt lat="44.6480994" lon="15.8565056"><ele>1141.0</ele><time>2026-04-27T11:07:09.386Z</time></trkpt><trkpt lat="44.6482199" lon="15.8564848"><ele>1140.75</ele><time>2026-04-27T11:07:10.386Z</time></trkpt><trkpt lat="44.6483477" lon="15.8564931"><ele>1140.5</ele><time>2026-04-27T11:07:11.386Z</time></trkpt><trkpt lat="44.6484872" lon="15.8564855"><ele>1140.25</ele><time>2026-04-27T11:07:12.386Z</time></trkpt><trkpt lat="44.6486277" lon="15.8564867"><ele>1140.0</ele><time>2026-04-27T11:07:13.387Z</time></trkpt><trkpt lat="44.6487646" lon="15.8564727"><ele>1138.25</ele><time>2026-04-27T11:07:14.386Z</time></trkpt><trkpt lat="44.6489105" lon="15.8564808"><ele>1136.5</ele><time>2026-04-27T11:07:15.387Z</time></trkpt><trkpt lat="44.649051" lon="15.8564834"><ele>1134.75</ele><time>2026-04-27T11:07:16.386Z</time></trkpt><trkpt lat="44.6491885" lon="15.8564812"><ele>1133.0</ele><time>2026-04-27T11:07:17.386Z</time></trkpt><trkpt lat="44.6493275" lon="15.8564708"><ele>1134.5</ele><time>2026-04-27T11:07:18.387Z</time></trkpt><trkpt lat="44.6494641" lon="15.8564581"><ele>1136.0</ele><time>2026-04-27T11:07:19.386Z</time></trkpt><trkpt lat="44.6496004" lon="15.8564321"><ele>1137.5</ele><time>2026-04-27T11:07:20.386Z</time></trkpt><trkpt lat="44.6497379" lon="15.8563869"><ele>1139.0</ele><time>2026-04-27T11:07:21.387Z</time></trkpt><trkpt lat="44.6498691" lon="15.8563242"><ele>1139.0</ele><time>2026-04-27T11:07:22.386Z</time></trkpt><trkpt lat="44.650002" lon="15.8562487"><ele>1139.0</ele><time>2026-04-27T11:07:23.386Z</time></trkpt><trkpt lat="44.650136" lon="15.8561576"><ele>1139.0</ele><time>2026-04-27T11:07:24.386Z</time></trkpt><trkpt lat="44.6502674" lon="15.8560492"><ele>1139.0</ele><time>2026-04-27T11:07:25.386Z</time></trkpt><trkpt lat="44.6504051" lon="15.8559444"><ele>1139.6666666666667</ele><time>2026-04-27T11:07:26.386Z</time></trkpt><trkpt lat="44.6505534" lon="15.8558299"><ele>1140.3333333333333</ele><time>2026-04-27T11:07:27.386Z</time></trkpt><trkpt lat="44.6507029" lon="15.855727"><ele>1141.0</ele><time>2026-04-27T11:07:28.387Z</time></trkpt><trkpt lat="44.6508546" lon="15.8556217"><ele>1141.0</ele><time>2026-04-27T11:07:29.386Z</time></trkpt><trkpt lat="44.6509969" lon="15.8555156"><ele>1141.0</ele><time>2026-04-27T11:07:30.386Z</time></trkpt><trkpt lat="44.6511294" lon="15.8554158"><ele>1141.0</ele><time>2026-04-27T11:07:31.386Z</time></trkpt><trkpt lat="44.6512509" lon="15.8553006"><ele>1144.0</ele><time>2026-04-27T11:07:32.386Z</time></trkpt><trkpt lat="44.6513631" lon="15.8551592"><ele>1147.0</ele><time>2026-04-27T11:07:33.386Z</time></trkpt><trkpt lat="44.6514668" lon="15.8550011"><ele>1150.0</ele><time>2026-04-27T11:07:34.386Z</time></trkpt><trkpt lat="44.6515533" lon="15.8548146"><ele>1150.0</ele><time>2026-04-27T11:07:35.387Z</time></trkpt><trkpt lat="44.6516466" lon="15.8546082"><ele>1150.0</ele><time>2026-04-27T11:07:36.386Z</time></trkpt><trkpt lat="44.6517351" lon="15.8543906"><ele>1150.0</ele><time>2026-04-27T11:07:37.386Z</time></trkpt><trkpt lat="44.6518311" lon="15.8541741"><ele>1148.3333333333333</ele><time>2026-04-27T11:07:38.387Z</time></trkpt><trkpt lat="44.6519248" lon="15.8539515"><ele>1146.6666666666667</ele><time>2026-04-27T11:07:39.386Z</time></trkpt><trkpt lat="44.6520244" lon="15.8537442"><ele>1145.0</ele><time>2026-04-27T11:07:40.386Z</time></trkpt><trkpt lat="44.652104" lon="15.8535411"><ele>1150.0</ele><time>2026-04-27T11:07:41.387Z</time></trkpt><trkpt lat="44.6521891" lon="15.8533388"><ele>1155.0</ele><time>2026-04-27T11:07:42.386Z</time></trkpt><trkpt lat="44.6522743" lon="15.8531389"><ele>1160.0</ele><time>2026-04-27T11:07:43.387Z</time></trkpt><trkpt lat="44.6523475" lon="15.8529471"><ele>1160.0</ele><time>2026-04-27T11:07:44.386Z</time></trkpt><trkpt lat="44.652429" lon="15.8527567"><ele>1160.0</ele><time>2026-04-27T11:07:45.386Z</time></trkpt><trkpt lat="44.6525126" lon="15.8525722"><ele>1160.0</ele><time>2026-04-27T11:07:46.387Z</time></trkpt><trkpt lat="44.6526011" lon="15.8523897"><ele>1159.0</ele><time>2026-04-27T11:07:47.387Z</time></trkpt><trkpt lat="44.6526884" lon="15.8522226"><ele>1158.0</ele><time>2026-04-27T11:07:48.386Z</time></trkpt><trkpt lat="44.652803" lon="15.8520678"><ele>1157.0</ele><time>2026-04-27T11:07:49.386Z</time></trkpt><trkpt lat="44.6529205" lon="15.8519306"><ele>1161.0</ele><time>2026-04-27T11:07:50.386Z</time></trkpt><trkpt lat="44.6530496" lon="15.8517945"><ele>1165.0</ele><time>2026-04-27T11:07:51.387Z</time></trkpt><trkpt lat="44.6531833" lon="15.8516738"><ele>1169.0</ele><time>2026-04-27T11:07:52.387Z</time></trkpt><trkpt lat="44.6533175" lon="15.8515531"><ele>1169.0</ele><time>2026-04-27T11:07:53.387Z</time></trkpt><trkpt lat="44.6534603" lon="15.8514365"><ele>1169.0</ele><time>2026-04-27T11:07:54.386Z</time></trkpt><trkpt lat="44.6536116" lon="15.8513313"><ele>1169.0</ele><time>2026-04-27T11:07:55.386Z</time></trkpt><trkpt lat="44.6537512" lon="15.8512116"><ele>1170.6666666666667</ele><time>2026-04-27T11:07:56.386Z</time></trkpt><trkpt lat="44.6538831" lon="15.8510876"><ele>1172.3333333333333</ele><time>2026-04-27T11:07:57.386Z</time></trkpt><trkpt lat="44.6540323" lon="15.8509738"><ele>1174.0</ele><time>2026-04-27T11:07:58.386Z</time></trkpt><trkpt lat="44.6541689" lon="15.8508482"><ele>1174.0</ele><time>2026-04-27T11:07:59.386Z</time></trkpt><trkpt lat="44.6543175" lon="15.8507344"><ele>1174.0</ele><time>2026-04-27T11:08:00.386Z</time></trkpt><trkpt lat="44.6544724" lon="15.8506255"><ele>1174.0</ele><time>2026-04-27T11:08:01.386Z</time></trkpt><trkpt lat="44.6546418" lon="15.8505384"><ele>1178.3333333333333</ele><time>2026-04-27T11:08:02.386Z</time></trkpt><trkpt lat="44.6548117" lon="15.8504483"><ele>1182.6666666666667</ele><time>2026-04-27T11:08:03.386Z</time></trkpt><trkpt lat="44.6549883" lon="15.8503808"><ele>1187.0</ele><time>2026-04-27T11:08:04.386Z</time></trkpt><trkpt lat="44.6551843" lon="15.8503266"><ele>1186.0</ele><time>2026-04-27T11:08:05.386Z</time></trkpt><trkpt lat="44.6553721" lon="15.8502545"><ele>1185.0</ele><time>2026-04-27T11:08:06.386Z</time></trkpt><trkpt lat="44.6555402" lon="15.850134"><ele>1184.0</ele><time>2026-04-27T11:08:07.387Z</time></trkpt><trkpt lat="44.6557102" lon="15.8500102"><ele>1184.0</ele><time>2026-04-27T11:08:08.386Z</time></trkpt><trkpt lat="44.6558744" lon="15.8498782"><ele>1184.0</ele><time>2026-04-27T11:08:09.386Z</time></trkpt><trkpt lat="44.6560394" lon="15.8497728"><ele>1184.0</ele><time>2026-04-27T11:08:10.386Z</time></trkpt><trkpt lat="44.6561962" lon="15.8496773"><ele>1188.5</ele><time>2026-04-27T11:08:11.386Z</time></trkpt><trkpt lat="44.656329" lon="15.8495806"><ele>1193.0</ele><time>2026-04-27T11:08:12.386Z</time></trkpt><trkpt lat="44.6564383" lon="15.8494856"><ele>1197.5</ele><time>2026-04-27T11:08:13.386Z</time></trkpt><trkpt lat="44.6565216" lon="15.8494022"><ele>1202.0</ele><time>2026-04-27T11:08:14.386Z</time></trkpt><trkpt lat="44.656592" lon="15.8493049"><ele>1198.6666666666667</ele><time>2026-04-27T11:08:15.386Z</time></trkpt><trkpt lat="44.6566493" lon="15.8491997"><ele>1195.3333333333335</ele><time>2026-04-27T11:08:16.386Z</time></trkpt><trkpt lat="44.6567013" lon="15.8490991"><ele>1192.0</ele><time>2026-04-27T11:08:17.386Z</time></trkpt><trkpt lat="44.6567554" lon="15.8489981"><ele>1188.6666666666667</ele><time>2026-04-27T11:08:18.386Z</time></trkpt><trkpt lat="44.6568144" lon="15.8489034"><ele>1185.3333333333333</ele><time>2026-04-27T11:08:19.387Z</time></trkpt><trkpt lat="44.6568809" lon="15.8488245"><ele>1182.0</ele><time>2026-04-27T11:08:20.386Z</time></trkpt><trkpt lat="44.6569493" lon="15.8487494"><ele>1181.0</ele><time>2026-04-27T11:08:21.386Z</time></trkpt><trkpt lat="44.6570616" lon="15.8486846"><ele>1180.0</ele><time>2026-04-27T11:08:22.386Z</time></trkpt><trkpt lat="44.657163" lon="15.8486105"><ele>1179.0</ele><time>2026-04-27T11:08:23.387Z</time></trkpt><trkpt lat="44.6572673" lon="15.8485225"><ele>1178.0</ele><time>2026-04-27T11:08:24.387Z</time></trkpt><trkpt lat="44.6573832" lon="15.8484227"><ele>1178.0</ele><time>2026-04-27T11:08:25.386Z</time></trkpt><trkpt lat="44.657506" lon="15.8483059"><ele>1178.0</ele><time>2026-04-27T11:08:26.386Z</time></trkpt><trkpt lat="44.6576243" lon="15.8481844"><ele>1178.0</ele><time>2026-04-27T11:08:27.387Z</time></trkpt><trkpt lat="44.6577254" lon="15.8480588"><ele>1178.0</ele><time>2026-04-27T11:08:28.387Z</time></trkpt><trkpt lat="44.6578128" lon="15.8479334"><ele>1176.8</ele><time>2026-04-27T11:08:29.386Z</time></trkpt><trkpt lat="44.6578851" lon="15.8478328"><ele>1175.6</ele><time>2026-04-27T11:08:30.386Z</time></trkpt><trkpt lat="44.6579656" lon="15.8477338"><ele>1174.4</ele><time>2026-04-27T11:08:31.386Z</time></trkpt><trkpt lat="44.6580305" lon="15.8476211"><ele>1173.2</ele><time>2026-04-27T11:08:32.386Z</time></trkpt><trkpt lat="44.6581091" lon="15.8475106"><ele>1172.0</ele><time>2026-04-27T11:08:33.386Z</time></trkpt><trkpt lat="44.6581974" lon="15.8473694"><ele>1172.0</ele><time>2026-04-27T11:08:34.386Z</time></trkpt><trkpt lat="44.658306" lon="15.8472451"><ele>1172.0</ele><time>2026-04-27T11:08:35.387Z</time></trkpt><trkpt lat="44.6584204" lon="15.8471264"><ele>1172.0</ele><time>2026-04-27T11:08:36.386Z</time></trkpt><trkpt lat="44.6585567" lon="15.8470131"><ele>1172.0</ele><time>2026-04-27T11:08:37.386Z</time></trkpt><trkpt lat="44.6586961" lon="15.8469059"><ele>1169.0</ele><time>2026-04-27T11:08:38.386Z</time></trkpt><trkpt lat="44.6588257" lon="15.8468031"><ele>1166.0</ele><time>2026-04-27T11:08:39.386Z</time></trkpt><trkpt lat="44.6589259" lon="15.8467032"><ele>1163.0</ele><time>2026-04-27T11:08:40.387Z</time></trkpt><trkpt lat="44.6590072" lon="15.8465721"><ele>1160.0</ele><time>2026-04-27T11:08:41.387Z</time></trkpt><trkpt lat="44.6590643" lon="15.8464577"><ele>1160.0</ele><time>2026-04-27T11:08:42.386Z</time></trkpt><trkpt lat="44.659143" lon="15.8462689"><ele>1160.0</ele><time>2026-04-27T11:08:44.387Z</time></trkpt><trkpt lat="44.6591216" lon="15.846183"><ele>1160.0</ele><time>2026-04-27T11:08:47.386Z</time></trkpt><trkpt lat="44.6590798" lon="15.8463227"><ele>1160.0</ele><time>2026-04-27T11:08:50.387Z</time></trkpt><trkpt lat="44.6590493" lon="15.8464246"><ele>1160.0</ele><time>2026-04-27T11:08:51.386Z</time></trkpt><trkpt lat="44.6589917" lon="15.846542"><ele>1160.0</ele><time>2026-04-27T11:08:52.386Z</time></trkpt><trkpt lat="44.6589086" lon="15.8466694"><ele>1160.0</ele><time>2026-04-27T11:08:53.386Z</time></trkpt><trkpt lat="44.6587953" lon="15.8467926"><ele>1160.0</ele><time>2026-04-27T11:08:54.387Z</time></trkpt><trkpt lat="44.6586389" lon="15.8469113"><ele>1160.0</ele><time>2026-04-27T11:08:55.386Z</time></trkpt><trkpt lat="44.6584751" lon="15.8470563"><ele>1164.0</ele><time>2026-04-27T11:08:56.386Z</time></trkpt><trkpt lat="44.6583134" lon="15.8472395"><ele>1168.0</ele><time>2026-04-27T11:08:57.386Z</time></trkpt><trkpt lat="44.6581457" lon="15.8474492"><ele>1172.0</ele><time>2026-04-27T11:08:58.386Z</time></trkpt><trkpt lat="44.6579611" lon="15.8476924"><ele>1175.0</ele><time>2026-04-27T11:08:59.386Z</time></trkpt><trkpt lat="44.6577705" lon="15.847941"><ele>1178.0</ele><time>2026-04-27T11:09:00.386Z</time></trkpt><trkpt lat="44.6575926" lon="15.8481471"><ele>1178.0</ele><time>2026-04-27T11:09:01.386Z</time></trkpt><trkpt lat="44.6574221" lon="15.8483225"><ele>1178.0</ele><time>2026-04-27T11:09:02.386Z</time></trkpt><trkpt lat="44.6572632" lon="15.848466"><ele>1178.0</ele><time>2026-04-27T11:09:03.386Z</time></trkpt><trkpt lat="44.6571209" lon="15.8485701"><ele>1179.0</ele><time>2026-04-27T11:09:04.386Z</time></trkpt><trkpt lat="44.6569963" lon="15.8486683"><ele>1180.0</ele><time>2026-04-27T11:09:05.386Z</time></trkpt><trkpt lat="44.6568869" lon="15.8487744"><ele>1181.0</ele><time>2026-04-27T11:09:06.386Z</time></trkpt><trkpt lat="44.6567946" lon="15.8489002"><ele>1182.0</ele><time>2026-04-27T11:09:07.387Z</time></trkpt><trkpt lat="44.6567136" lon="15.8490368"><ele>1182.0</ele><time>2026-04-27T11:09:08.386Z</time></trkpt><trkpt lat="44.6566426" lon="15.8491582"><ele>1182.0</ele><time>2026-04-27T11:09:09.386Z</time></trkpt><trkpt lat="44.6565823" lon="15.8492599"><ele>1182.0</ele><time>2026-04-27T11:09:10.387Z</time></trkpt><trkpt lat="44.6565257" lon="15.8493679"><ele>1182.0</ele><time>2026-04-27T11:09:12.387Z</time></trkpt><trkpt lat="44.6565714" lon="15.849448"><ele>1182.0</ele><time>2026-04-27T11:09:15.387Z</time></trkpt><trkpt lat="44.6566419" lon="15.8494259"><ele>1182.0</ele><time>2026-04-27T11:09:17.386Z</time></trkpt><trkpt lat="44.6566923" lon="15.8493666"><ele>1182.0</ele><time>2026-04-27T11:09:37.386Z</time></trkpt><trkpt lat="44.6567749" lon="15.8492367"><ele>1182.0</ele><time>2026-04-27T11:09:39.386Z</time></trkpt><trkpt lat="44.6568225" lon="15.8491587"><ele>1182.0</ele><time>2026-04-27T11:09:40.386Z</time></trkpt><trkpt lat="44.6568763" lon="15.8490752"><ele>1182.0</ele><time>2026-04-27T11:09:41.386Z</time></trkpt><trkpt lat="44.6569302" lon="15.8489898"><ele>1182.0</ele><time>2026-04-27T11:09:42.387Z</time></trkpt><trkpt lat="44.6569938" lon="15.8489448"><ele>1182.0</ele><time>2026-04-27T11:09:43.386Z</time></trkpt><trkpt lat="44.657066" lon="15.8489374"><ele>1184.4</ele><time>2026-04-27T11:09:44.386Z</time></trkpt><trkpt lat="44.6571535" lon="15.8489185"><ele>1186.8000000000002</ele><time>2026-04-27T11:09:45.386Z</time></trkpt><trkpt lat="44.6572666" lon="15.8489258"><ele>1189.2</ele><time>2026-04-27T11:09:46.386Z</time></trkpt><trkpt lat="44.6573739" lon="15.8489466"><ele>1191.6000000000001</ele><time>2026-04-27T11:09:47.386Z</time></trkpt><trkpt lat="44.6574846" lon="15.8489749"><ele>1194.0</ele><time>2026-04-27T11:09:48.386Z</time></trkpt><trkpt lat="44.657587" lon="15.8490079"><ele>1194.0000000000002</ele><time>2026-04-27T11:09:49.387Z</time></trkpt><trkpt lat="44.6576782" lon="15.8490397"><ele>1194.0</ele><time>2026-04-27T11:09:50.386Z</time></trkpt><trkpt lat="44.6577366" lon="15.8490778"><ele>1194.0</ele><time>2026-04-27T11:09:51.386Z</time></trkpt><trkpt lat="44.6577939" lon="15.8491329"><ele>1194.0</ele><time>2026-04-27T11:09:52.386Z</time></trkpt><trkpt lat="44.6578516" lon="15.8492089"><ele>1194.0</ele><time>2026-04-27T11:09:53.387Z</time></trkpt><trkpt lat="44.6578768" lon="15.8492943"><ele>1194.0000000000002</ele><time>2026-04-27T11:09:54.386Z</time></trkpt><trkpt lat="44.6578966" lon="15.8493854"><ele>1194.0</ele><time>2026-04-27T11:09:55.386Z</time></trkpt><trkpt lat="44.65792" lon="15.8495324"><ele>1193.8</ele><time>2026-04-27T11:09:56.387Z</time></trkpt><trkpt lat="44.6579372" lon="15.8496734"><ele>1193.6000000000001</ele><time>2026-04-27T11:09:57.387Z</time></trkpt><trkpt lat="44.657955" lon="15.849802"><ele>1193.4</ele><time>2026-04-27T11:09:58.387Z</time></trkpt><trkpt lat="44.6579693" lon="15.849931"><ele>1193.2</ele><time>2026-04-27T11:09:59.387Z</time></trkpt><trkpt lat="44.6579779" lon="15.8500575"><ele>1193.0</ele><time>2026-04-27T11:10:00.386Z</time></trkpt><trkpt lat="44.6579849" lon="15.8501954"><ele>1192.75</ele><time>2026-04-27T11:10:01.386Z</time></trkpt><trkpt lat="44.6579932" lon="15.8503588"><ele>1192.5</ele><time>2026-04-27T11:10:02.387Z</time></trkpt><trkpt lat="44.6580073" lon="15.8505169"><ele>1192.25</ele><time>2026-04-27T11:10:03.386Z</time></trkpt><trkpt lat="44.6580245" lon="15.8506749"><ele>1192.0</ele><time>2026-04-27T11:10:04.386Z</time></trkpt><trkpt lat="44.6580533" lon="15.8508346"><ele>1192.0</ele><time>2026-04-27T11:10:05.386Z</time></trkpt><trkpt lat="44.6580894" lon="15.8509931"><ele>1192.0</ele><time>2026-04-27T11:10:06.386Z</time></trkpt><trkpt lat="44.6581275" lon="15.8511338"><ele>1192.0</ele><time>2026-04-27T11:10:07.387Z</time></trkpt><trkpt lat="44.6581684" lon="15.8512647"><ele>1192.0</ele><time>2026-04-27T11:10:08.386Z</time></trkpt><trkpt lat="44.6582137" lon="15.8514072"><ele>1192.0</ele><time>2026-04-27T11:10:09.387Z</time></trkpt><trkpt lat="44.6582663" lon="15.8515639"><ele>1192.0</ele><time>2026-04-27T11:10:10.386Z</time></trkpt><trkpt lat="44.6583063" lon="15.8517196"><ele>1192.0</ele><time>2026-04-27T11:10:11.386Z</time></trkpt><trkpt lat="44.6583601" lon="15.8518557"><ele>1192.0</ele><time>2026-04-27T11:10:12.386Z</time></trkpt><trkpt lat="44.6583947" lon="15.8519716"><ele>1192.0</ele><time>2026-04-27T11:10:13.386Z</time></trkpt><trkpt lat="44.6584267" lon="15.8520978"><ele>1192.0</ele><time>2026-04-27T11:10:14.386Z</time></trkpt><trkpt lat="44.6584536" lon="15.8522156"><ele>1192.2</ele><time>2026-04-27T11:10:15.386Z</time></trkpt><trkpt lat="44.6584867" lon="15.8523351"><ele>1192.4</ele><time>2026-04-27T11:10:16.386Z</time></trkpt><trkpt lat="44.6585077" lon="15.8524498"><ele>1192.6</ele><time>2026-04-27T11:10:17.386Z</time></trkpt><trkpt lat="44.658536" lon="15.8525822"><ele>1192.8</ele><time>2026-04-27T11:10:18.387Z</time></trkpt><trkpt lat="44.6585634" lon="15.8527156"><ele>1193.0</ele><time>2026-04-27T11:10:19.387Z</time></trkpt><trkpt lat="44.658585" lon="15.8528392"><ele>1193.1666666666667</ele><time>2026-04-27T11:10:20.386Z</time></trkpt><trkpt lat="44.6586144" lon="15.8529625"><ele>1193.3333333333335</ele><time>2026-04-27T11:10:21.386Z</time></trkpt><trkpt lat="44.6586366" lon="15.8530654"><ele>1193.5</ele><time>2026-04-27T11:10:22.387Z</time></trkpt><trkpt lat="44.6586688" lon="15.8531756"><ele>1193.6666666666667</ele><time>2026-04-27T11:10:23.386Z</time></trkpt><trkpt lat="44.6586986" lon="15.8532815"><ele>1193.8333333333333</ele><time>2026-04-27T11:10:24.387Z</time></trkpt><trkpt lat="44.6587233" lon="15.8533918"><ele>1194.0</ele><time>2026-04-27T11:10:25.387Z</time></trkpt><trkpt lat="44.6587486" lon="15.8534828"><ele>1191.6000000000001</ele><time>2026-04-27T11:10:26.386Z</time></trkpt><trkpt lat="44.6587819" lon="15.8536259"><ele>1189.2</ele><time>2026-04-27T11:10:28.386Z</time></trkpt><trkpt lat="44.6588259" lon="15.8538127"><ele>1186.8000000000002</ele><time>2026-04-27T11:10:30.386Z</time></trkpt><trkpt lat="44.6588526" lon="15.8539237"><ele>1184.4</ele><time>2026-04-27T11:10:31.387Z</time></trkpt><trkpt lat="44.6588812" lon="15.854027"><ele>1182.0</ele><time>2026-04-27T11:10:32.387Z</time></trkpt><trkpt lat="44.6588987" lon="15.8541249"><ele>1182.0</ele><time>2026-04-27T11:10:33.386Z</time></trkpt><trkpt lat="44.658915" lon="15.8542168"><ele>1182.0</ele><time>2026-04-27T11:10:34.387Z</time></trkpt><trkpt lat="44.6589488" lon="15.8543079"><ele>1182.0</ele><time>2026-04-27T11:10:35.386Z</time></trkpt><trkpt lat="44.6589869" lon="15.8543991"><ele>1182.0</ele><time>2026-04-27T11:10:36.386Z</time></trkpt><trkpt lat="44.6590161" lon="15.8544836"><ele>1182.0</ele><time>2026-04-27T11:10:37.386Z</time></trkpt><trkpt lat="44.6590422" lon="15.8545689"><ele>1182.0</ele><time>2026-04-27T11:10:38.387Z</time></trkpt><trkpt lat="44.6590645" lon="15.854664"><ele>1182.0</ele><time>2026-04-27T11:10:39.386Z</time></trkpt><trkpt lat="44.6590955" lon="15.8547591"><ele>1181.4</ele><time>2026-04-27T11:10:40.386Z</time></trkpt><trkpt lat="44.6591385" lon="15.8548478"><ele>1180.8000000000002</ele><time>2026-04-27T11:10:41.387Z</time></trkpt><trkpt lat="44.6591976" lon="15.8549221"><ele>1180.2</ele><time>2026-04-27T11:10:42.387Z</time></trkpt><trkpt lat="44.6592716" lon="15.8549829"><ele>1179.6000000000001</ele><time>2026-04-27T11:10:43.387Z</time></trkpt><trkpt lat="44.6593561" lon="15.8550487"><ele>1179.0</ele><time>2026-04-27T11:10:44.387Z</time></trkpt><trkpt lat="44.6594573" lon="15.8551163"><ele>1177.75</ele><time>2026-04-27T11:10:45.387Z</time></trkpt><trkpt lat="44.6595733" lon="15.8551728"><ele>1176.5</ele><time>2026-04-27T11:10:46.386Z</time></trkpt><trkpt lat="44.65969" lon="15.8552336"><ele>1175.25</ele><time>2026-04-27T11:10:47.387Z</time></trkpt><trkpt lat="44.6598207" lon="15.8553029"><ele>1174.0</ele><time>2026-04-27T11:10:48.386Z</time></trkpt><trkpt lat="44.6599368" lon="15.8553668"><ele>1174.0</ele><time>2026-04-27T11:10:49.386Z</time></trkpt><trkpt lat="44.6600368" lon="15.8554321"><ele>1174.0</ele><time>2026-04-27T11:10:50.386Z</time></trkpt><trkpt lat="44.6601337" lon="15.8555163"><ele>1174.0</ele><time>2026-04-27T11:10:51.386Z</time></trkpt><trkpt lat="44.6602384" lon="15.8556101"><ele>1174.0</ele><time>2026-04-27T11:10:52.386Z</time></trkpt><trkpt lat="44.6603308" lon="15.8557094"><ele>1173.5</ele><time>2026-04-27T11:10:53.386Z</time></trkpt><trkpt lat="44.660422" lon="15.8558136"><ele>1173.0</ele><time>2026-04-27T11:10:54.387Z</time></trkpt><trkpt lat="44.6605074" lon="15.8559166"><ele>1172.5</ele><time>2026-04-27T11:10:55.386Z</time></trkpt><trkpt lat="44.660591" lon="15.8560164"><ele>1172.0</ele><time>2026-04-27T11:10:56.386Z</time></trkpt><trkpt lat="44.6606777" lon="15.8561143"><ele>1171.2</ele><time>2026-04-27T11:10:57.386Z</time></trkpt><trkpt lat="44.6607476" lon="15.8562011"><ele>1170.4</ele><time>2026-04-27T11:10:58.386Z</time></trkpt><trkpt lat="44.6608255" lon="15.8562821"><ele>1169.6</ele><time>2026-04-27T11:10:59.386Z</time></trkpt><trkpt lat="44.6609131" lon="15.8563579"><ele>1168.8</ele><time>2026-04-27T11:11:00.387Z</time></trkpt><trkpt lat="44.6610118" lon="15.856426"><ele>1168.0</ele><time>2026-04-27T11:11:01.386Z</time></trkpt><trkpt lat="44.6611134" lon="15.8564877"><ele>1168.0</ele><time>2026-04-27T11:11:02.386Z</time></trkpt><trkpt lat="44.6612178" lon="15.8565453"><ele>1168.0</ele><time>2026-04-27T11:11:03.386Z</time></trkpt><trkpt lat="44.6613299" lon="15.8566038"><ele>1168.0</ele><time>2026-04-27T11:11:04.387Z</time></trkpt><trkpt lat="44.6614422" lon="15.8566605"><ele>1168.0</ele><time>2026-04-27T11:11:05.387Z</time></trkpt><trkpt lat="44.661554" lon="15.8567161"><ele>1168.0</ele><time>2026-04-27T11:11:06.386Z</time></trkpt><trkpt lat="44.6616733" lon="15.8567731"><ele>1168.0</ele><time>2026-04-27T11:11:07.386Z</time></trkpt><trkpt lat="44.6617967" lon="15.8568409"><ele>1168.0</ele><time>2026-04-27T11:11:08.387Z</time></trkpt><trkpt lat="44.6619183" lon="15.8569083"><ele>1168.0</ele><time>2026-04-27T11:11:09.386Z</time></trkpt><trkpt lat="44.6620429" lon="15.8569696"><ele>1166.5</ele><time>2026-04-27T11:11:10.386Z</time></trkpt><trkpt lat="44.6621645" lon="15.8570186"><ele>1165.0</ele><time>2026-04-27T11:11:11.386Z</time></trkpt><trkpt lat="44.662283" lon="15.8570599"><ele>1163.5</ele><time>2026-04-27T11:11:12.386Z</time></trkpt><trkpt lat="44.6624087" lon="15.857108"><ele>1162.0</ele><time>2026-04-27T11:11:13.386Z</time></trkpt><trkpt lat="44.6625348" lon="15.8571661"><ele>1162.0</ele><time>2026-04-27T11:11:14.386Z</time></trkpt><trkpt lat="44.6626538" lon="15.857214"><ele>1162.0</ele><time>2026-04-27T11:11:15.387Z</time></trkpt><trkpt lat="44.662759" lon="15.8572523"><ele>1162.0</ele><time>2026-04-27T11:11:16.387Z</time></trkpt><trkpt lat="44.6628533" lon="15.8572953"><ele>1162.0</ele><time>2026-04-27T11:11:17.386Z</time></trkpt><trkpt lat="44.6629547" lon="15.8573556"><ele>1162.0</ele><time>2026-04-27T11:11:18.387Z</time></trkpt><trkpt lat="44.6630417" lon="15.8574413"><ele>1161.25</ele><time>2026-04-27T11:11:19.386Z</time></trkpt><trkpt lat="44.6631254" lon="15.8575497"><ele>1160.5</ele><time>2026-04-27T11:11:20.386Z</time></trkpt><trkpt lat="44.6631983" lon="15.8576726"><ele>1159.75</ele><time>2026-04-27T11:11:21.386Z</time></trkpt><trkpt lat="44.6632828" lon="15.8578451"><ele>1159.0</ele><time>2026-04-27T11:11:22.386Z</time></trkpt><trkpt lat="44.6633695" lon="15.8580084"><ele>1159.0</ele><time>2026-04-27T11:11:23.386Z</time></trkpt><trkpt lat="44.6634468" lon="15.8581794"><ele>1159.0</ele><time>2026-04-27T11:11:24.386Z</time></trkpt><trkpt lat="44.663519" lon="15.85835"><ele>1159.0</ele><time>2026-04-27T11:11:25.386Z</time></trkpt><trkpt lat="44.6635978" lon="15.8585166"><ele>1159.0</ele><time>2026-04-27T11:11:26.386Z</time></trkpt><trkpt lat="44.6636709" lon="15.8586602"><ele>1157.5</ele><time>2026-04-27T11:11:27.386Z</time></trkpt><trkpt lat="44.6637408" lon="15.8588024"><ele>1156.0</ele><time>2026-04-27T11:11:28.386Z</time></trkpt><trkpt lat="44.6638143" lon="15.8589344"><ele>1154.5</ele><time>2026-04-27T11:11:29.386Z</time></trkpt><trkpt lat="44.6638627" lon="15.8590707"><ele>1153.0</ele><time>2026-04-27T11:11:30.386Z</time></trkpt><trkpt lat="44.6638952" lon="15.8592069"><ele>1152.8</ele><time>2026-04-27T11:11:31.386Z</time></trkpt><trkpt lat="44.663923" lon="15.8593491"><ele>1152.6</ele><time>2026-04-27T11:11:32.386Z</time></trkpt><trkpt lat="44.663947" lon="15.8595018"><ele>1152.4</ele><time>2026-04-27T11:11:33.386Z</time></trkpt><trkpt lat="44.663958" lon="15.8596287"><ele>1152.2</ele><time>2026-04-27T11:11:34.387Z</time></trkpt><trkpt lat="44.6639546" lon="15.8597356"><ele>1152.0</ele><time>2026-04-27T11:11:35.387Z</time></trkpt><trkpt lat="44.6639422" lon="15.8598489"><ele>1152.0</ele><time>2026-04-27T11:11:36.386Z</time></trkpt><trkpt lat="44.6639227" lon="15.8599612"><ele>1152.0</ele><time>2026-04-27T11:11:37.386Z</time></trkpt><trkpt lat="44.6639026" lon="15.8600837"><ele>1152.0</ele><time>2026-04-27T11:11:38.386Z</time></trkpt><trkpt lat="44.6638729" lon="15.8602163"><ele>1152.0</ele><time>2026-04-27T11:11:39.386Z</time></trkpt><trkpt lat="44.6638328" lon="15.8603744"><ele>1152.0</ele><time>2026-04-27T11:11:40.386Z</time></trkpt><trkpt lat="44.6637883" lon="15.8605326"><ele>1152.25</ele><time>2026-04-27T11:11:41.387Z</time></trkpt><trkpt lat="44.6637399" lon="15.8606759"><ele>1152.5</ele><time>2026-04-27T11:11:42.387Z</time></trkpt><trkpt lat="44.6636819" lon="15.8608147"><ele>1152.75</ele><time>2026-04-27T11:11:43.386Z</time></trkpt><trkpt lat="44.66362" lon="15.8609507"><ele>1153.0</ele><time>2026-04-27T11:11:44.386Z</time></trkpt><trkpt lat="44.6635656" lon="15.8610945"><ele>1152.25</ele><time>2026-04-27T11:11:45.386Z</time></trkpt><trkpt lat="44.663514" lon="15.8612432"><ele>1151.5</ele><time>2026-04-27T11:11:46.386Z</time></trkpt><trkpt lat="44.6634657" lon="15.861394"><ele>1150.75</ele><time>2026-04-27T11:11:47.386Z</time></trkpt><trkpt lat="44.6634217" lon="15.8615424"><ele>1150.0</ele><time>2026-04-27T11:11:48.386Z</time></trkpt><trkpt lat="44.6633856" lon="15.8616886"><ele>1149.0</ele><time>2026-04-27T11:11:49.386Z</time></trkpt><trkpt lat="44.6633438" lon="15.861835"><ele>1148.0</ele><time>2026-04-27T11:11:50.387Z</time></trkpt><trkpt lat="44.6633049" lon="15.8619751"><ele>1147.0</ele><time>2026-04-27T11:11:51.387Z</time></trkpt><trkpt lat="44.6632651" lon="15.8621189"><ele>1146.0</ele><time>2026-04-27T11:11:52.386Z</time></trkpt><trkpt lat="44.6632246" lon="15.862259"><ele>1145.0</ele><time>2026-04-27T11:11:53.386Z</time></trkpt><trkpt lat="44.663189" lon="15.8624024"><ele>1145.0</ele><time>2026-04-27T11:11:54.387Z</time></trkpt><trkpt lat="44.6631569" lon="15.8625375"><ele>1145.0</ele><time>2026-04-27T11:11:55.386Z</time></trkpt><trkpt lat="44.6631326" lon="15.8626641"><ele>1145.0</ele><time>2026-04-27T11:11:56.387Z</time></trkpt><trkpt lat="44.6631039" lon="15.8628034"><ele>1145.0</ele><time>2026-04-27T11:11:57.386Z</time></trkpt><trkpt lat="44.6630712" lon="15.8629551"><ele>1145.0</ele><time>2026-04-27T11:11:58.386Z</time></trkpt><trkpt lat="44.6630427" lon="15.8631139"><ele>1145.0</ele><time>2026-04-27T11:11:59.387Z</time></trkpt><trkpt lat="44.6630157" lon="15.8632694"><ele>1145.0</ele><time>2026-04-27T11:12:00.386Z</time></trkpt><trkpt lat="44.6629893" lon="15.8634146"><ele>1145.0</ele><time>2026-04-27T11:12:01.386Z</time></trkpt><trkpt lat="44.6629597" lon="15.8635415"><ele>1145.0</ele><time>2026-04-27T11:12:02.386Z</time></trkpt><trkpt lat="44.6629296" lon="15.8636421"><ele>1145.0</ele><time>2026-04-27T11:12:03.386Z</time></trkpt><trkpt lat="44.6629107" lon="15.863743"><ele>1145.0</ele><time>2026-04-27T11:12:04.386Z</time></trkpt><trkpt lat="44.6628127" lon="15.8638465"><ele>1145.0</ele><time>2026-04-27T11:12:06.386Z</time></trkpt><trkpt lat="44.6626987" lon="15.863904"><ele>1145.0</ele><time>2026-04-27T11:12:07.387Z</time></trkpt><trkpt lat="44.6625655" lon="15.8639419"><ele>1145.0</ele><time>2026-04-27T11:12:08.386Z</time></trkpt><trkpt lat="44.6624492" lon="15.8639946"><ele>1143.4</ele><time>2026-04-27T11:12:09.386Z</time></trkpt><trkpt lat="44.66234" lon="15.8640463"><ele>1141.8</ele><time>2026-04-27T11:12:10.386Z</time></trkpt><trkpt lat="44.6622429" lon="15.8640965"><ele>1140.2</ele><time>2026-04-27T11:12:11.386Z</time></trkpt><trkpt lat="44.6621604" lon="15.8641503"><ele>1138.6</ele><time>2026-04-27T11:12:12.387Z</time></trkpt><trkpt lat="44.6620904" lon="15.8642059"><ele>1137.0</ele><time>2026-04-27T11:12:13.386Z</time></trkpt><trkpt lat="44.6620743" lon="15.8643563"><ele>1135.8</ele><time>2026-04-27T11:12:15.386Z</time></trkpt><trkpt lat="44.6620754" lon="15.8644536"><ele>1134.6</ele><time>2026-04-27T11:12:16.386Z</time></trkpt><trkpt lat="44.662077" lon="15.8645793"><ele>1133.3999999999999</ele><time>2026-04-27T11:12:17.387Z</time></trkpt><trkpt lat="44.6620848" lon="15.864738"><ele>1132.2</ele><time>2026-04-27T11:12:18.386Z</time></trkpt><trkpt lat="44.6620839" lon="15.8648928"><ele>1131.0</ele><time>2026-04-27T11:12:19.386Z</time></trkpt><trkpt lat="44.6620836" lon="15.8650416"><ele>1129.8</ele><time>2026-04-27T11:12:20.387Z</time></trkpt><trkpt lat="44.6620905" lon="15.8651752"><ele>1128.6</ele><time>2026-04-27T11:12:21.386Z</time></trkpt><trkpt lat="44.6621072" lon="15.8652927"><ele>1127.4</ele><time>2026-04-27T11:12:22.387Z</time></trkpt><trkpt lat="44.6621258" lon="15.8654159"><ele>1126.2</ele><time>2026-04-27T11:12:23.386Z</time></trkpt><trkpt lat="44.6621766" lon="15.8655478"><ele>1125.0</ele><time>2026-04-27T11:12:24.386Z</time></trkpt><trkpt lat="44.6622101" lon="15.865688"><ele>1125.0</ele><time>2026-04-27T11:12:25.387Z</time></trkpt><trkpt lat="44.662236" lon="15.8658261"><ele>1125.0</ele><time>2026-04-27T11:12:26.386Z</time></trkpt><trkpt lat="44.6622459" lon="15.8659707"><ele>1125.0</ele><time>2026-04-27T11:12:27.386Z</time></trkpt><trkpt lat="44.6622317" lon="15.8661401"><ele>1125.0</ele><time>2026-04-27T11:12:28.386Z</time></trkpt><trkpt lat="44.6622086" lon="15.8663207"><ele>1126.0</ele><time>2026-04-27T11:12:29.386Z</time></trkpt><trkpt lat="44.6621666" lon="15.8664947"><ele>1127.0</ele><time>2026-04-27T11:12:30.387Z</time></trkpt><trkpt lat="44.662119" lon="15.8666545"><ele>1128.0</ele><time>2026-04-27T11:12:31.386Z</time></trkpt><trkpt lat="44.6620561" lon="15.8668156"><ele>1129.0</ele><time>2026-04-27T11:12:32.386Z</time></trkpt><trkpt lat="44.6619965" lon="15.8669508"><ele>1127.2</ele><time>2026-04-27T11:12:33.387Z</time></trkpt><trkpt lat="44.6619347" lon="15.8670706"><ele>1125.4</ele><time>2026-04-27T11:12:34.386Z</time></trkpt><trkpt lat="44.6618618" lon="15.86717"><ele>1123.6</ele><time>2026-04-27T11:12:35.386Z</time></trkpt><trkpt lat="44.6617787" lon="15.8672534"><ele>1121.8</ele><time>2026-04-27T11:12:36.386Z</time></trkpt><trkpt lat="44.6616835" lon="15.8673232"><ele>1120.0</ele><time>2026-04-27T11:12:37.386Z</time></trkpt><trkpt lat="44.6616004" lon="15.8673774"><ele>1120.0</ele><time>2026-04-27T11:12:38.386Z</time></trkpt><trkpt lat="44.6615246" lon="15.8674174"><ele>1120.0</ele><time>2026-04-27T11:12:39.386Z</time></trkpt><trkpt lat="44.6614555" lon="15.8674903"><ele>1120.0</ele><time>2026-04-27T11:12:40.386Z</time></trkpt><trkpt lat="44.6613733" lon="15.8675662"><ele>1120.0</ele><time>2026-04-27T11:12:41.386Z</time></trkpt><trkpt lat="44.6612956" lon="15.8676665"><ele>1120.0</ele><time>2026-04-27T11:12:42.386Z</time></trkpt><trkpt lat="44.6612" lon="15.8677903"><ele>1117.75</ele><time>2026-04-27T11:12:43.386Z</time></trkpt><trkpt lat="44.6611041" lon="15.8679239"><ele>1115.5</ele><time>2026-04-27T11:12:44.386Z</time></trkpt><trkpt lat="44.6610124" lon="15.86803"><ele>1113.25</ele><time>2026-04-27T11:12:45.386Z</time></trkpt><trkpt lat="44.6609272" lon="15.8681437"><ele>1111.0</ele><time>2026-04-27T11:12:46.386Z</time></trkpt><trkpt lat="44.6608531" lon="15.8682425"><ele>1111.0</ele><time>2026-04-27T11:12:47.386Z</time></trkpt><trkpt lat="44.6607828" lon="15.8683609"><ele>1111.0</ele><time>2026-04-27T11:12:48.387Z</time></trkpt><trkpt lat="44.6607292" lon="15.868487"><ele>1111.0</ele><time>2026-04-27T11:12:49.386Z</time></trkpt><trkpt lat="44.6606865" lon="15.8686049"><ele>1111.0</ele><time>2026-04-27T11:12:50.386Z</time></trkpt><trkpt lat="44.6606399" lon="15.8687219"><ele>1111.0</ele><time>2026-04-27T11:12:51.386Z</time></trkpt><trkpt lat="44.6605846" lon="15.868821"><ele>1110.6666666666665</ele><time>2026-04-27T11:12:52.386Z</time></trkpt><trkpt lat="44.6605226" lon="15.8689186"><ele>1110.3333333333333</ele><time>2026-04-27T11:12:53.387Z</time></trkpt><trkpt lat="44.6604522" lon="15.8689763"><ele>1110.0</ele><time>2026-04-27T11:12:54.386Z</time></trkpt><trkpt lat="44.6603654" lon="15.8689943"><ele>1109.6666666666667</ele><time>2026-04-27T11:12:55.387Z</time></trkpt><trkpt lat="44.6602946" lon="15.8690573"><ele>1109.3333333333335</ele><time>2026-04-27T11:12:56.386Z</time></trkpt><trkpt lat="44.66022" lon="15.8691326"><ele>1109.0</ele><time>2026-04-27T11:12:57.386Z</time></trkpt><trkpt lat="44.6601686" lon="15.8692438"><ele>1107.8</ele><time>2026-04-27T11:12:58.386Z</time></trkpt><trkpt lat="44.6601428" lon="15.8693861"><ele>1106.6000000000001</ele><time>2026-04-27T11:12:59.386Z</time></trkpt><trkpt lat="44.6601167" lon="15.8695342"><ele>1105.4</ele><time>2026-04-27T11:13:00.386Z</time></trkpt><trkpt lat="44.6601151" lon="15.8696806"><ele>1104.2</ele><time>2026-04-27T11:13:01.386Z</time></trkpt><trkpt lat="44.6601056" lon="15.8698086"><ele>1103.0</ele><time>2026-04-27T11:13:02.386Z</time></trkpt><trkpt lat="44.6600784" lon="15.8699281"><ele>1103.0</ele><time>2026-04-27T11:13:03.386Z</time></trkpt><trkpt lat="44.660071" lon="15.8700359"><ele>1103.0</ele><time>2026-04-27T11:13:04.387Z</time></trkpt><trkpt lat="44.6600778" lon="15.8701264"><ele>1103.0</ele><time>2026-04-27T11:13:05.386Z</time></trkpt><trkpt lat="44.660086" lon="15.8702153"><ele>1103.0</ele><time>2026-04-27T11:13:06.386Z</time></trkpt><trkpt lat="44.6601784" lon="15.8702846"><ele>1103.0</ele><time>2026-04-27T11:13:07.386Z</time></trkpt><trkpt lat="44.6602325" lon="15.8703509"><ele>1103.0</ele><time>2026-04-27T11:13:08.387Z</time></trkpt><trkpt lat="44.6603267" lon="15.8703743"><ele>1100.5</ele><time>2026-04-27T11:13:09.387Z</time></trkpt><trkpt lat="44.6604037" lon="15.8704231"><ele>1098.0</ele><time>2026-04-27T11:13:10.386Z</time></trkpt><trkpt lat="44.6604711" lon="15.8704902"><ele>1095.5</ele><time>2026-04-27T11:13:11.386Z</time></trkpt><trkpt lat="44.660543" lon="15.8705595"><ele>1093.0</ele><time>2026-04-27T11:13:12.387Z</time></trkpt><trkpt lat="44.6606091" lon="15.8706232"><ele>1090.5</ele><time>2026-04-27T11:13:13.386Z</time></trkpt><trkpt lat="44.6606969" lon="15.8706487"><ele>1088.0</ele><time>2026-04-27T11:13:14.386Z</time></trkpt><trkpt lat="44.6607899" lon="15.8706508"><ele>1088.0</ele><time>2026-04-27T11:13:15.387Z</time></trkpt><trkpt lat="44.6608686" lon="15.8706739"><ele>1088.0</ele><time>2026-04-27T11:13:16.386Z</time></trkpt><trkpt lat="44.6609704" lon="15.8707802"><ele>1088.0</ele><time>2026-04-27T11:13:18.386Z</time></trkpt><trkpt lat="44.6609969" lon="15.8708668"><ele>1088.0</ele><time>2026-04-27T11:13:19.387Z</time></trkpt><trkpt lat="44.6609971" lon="15.8709793"><ele>1088.0</ele><time>2026-04-27T11:13:20.386Z</time></trkpt><trkpt lat="44.6609878" lon="15.8711186"><ele>1086.75</ele><time>2026-04-27T11:13:21.387Z</time></trkpt><trkpt lat="44.6609528" lon="15.8712706"><ele>1085.5</ele><time>2026-04-27T11:13:22.386Z</time></trkpt><trkpt lat="44.6609162" lon="15.8714262"><ele>1084.25</ele><time>2026-04-27T11:13:23.386Z</time></trkpt><trkpt lat="44.6608865" lon="15.8715843"><ele>1083.0</ele><time>2026-04-27T11:13:24.386Z</time></trkpt><trkpt lat="44.660862" lon="15.8717398"><ele>1081.25</ele><time>2026-04-27T11:13:25.386Z</time></trkpt><trkpt lat="44.6608054" lon="15.8718974"><ele>1079.5</ele><time>2026-04-27T11:13:26.387Z</time></trkpt><trkpt lat="44.6607468" lon="15.8720624"><ele>1077.75</ele><time>2026-04-27T11:13:27.387Z</time></trkpt><trkpt lat="44.6606972" lon="15.8722168"><ele>1076.0</ele><time>2026-04-27T11:13:28.386Z</time></trkpt><trkpt lat="44.6606515" lon="15.8723613"><ele>1076.0</ele><time>2026-04-27T11:13:29.386Z</time></trkpt><trkpt lat="44.6606066" lon="15.8725023"><ele>1076.0</ele><time>2026-04-27T11:13:30.386Z</time></trkpt><trkpt lat="44.6605672" lon="15.8726315"><ele>1076.0</ele><time>2026-04-27T11:13:31.386Z</time></trkpt><trkpt lat="44.6605282" lon="15.8727556"><ele>1076.0</ele><time>2026-04-27T11:13:32.387Z</time></trkpt><trkpt lat="44.6604899" lon="15.8729077"><ele>1076.0</ele><time>2026-04-27T11:13:33.386Z</time></trkpt><trkpt lat="44.660445" lon="15.873072"><ele>1075.0</ele><time>2026-04-27T11:13:34.387Z</time></trkpt><trkpt lat="44.6604021" lon="15.8732494"><ele>1074.0</ele><time>2026-04-27T11:13:35.386Z</time></trkpt><trkpt lat="44.660361" lon="15.8734403"><ele>1073.0</ele><time>2026-04-27T11:13:36.386Z</time></trkpt><trkpt lat="44.6603287" lon="15.8736301"><ele>1072.0</ele><time>2026-04-27T11:13:37.386Z</time></trkpt><trkpt lat="44.6602979" lon="15.8738201"><ele>1072.5</ele><time>2026-04-27T11:13:38.386Z</time></trkpt><trkpt lat="44.6602721" lon="15.8740008"><ele>1073.0</ele><time>2026-04-27T11:13:39.387Z</time></trkpt><trkpt lat="44.6602526" lon="15.874187"><ele>1073.5</ele><time>2026-04-27T11:13:40.386Z</time></trkpt><trkpt lat="44.6602348" lon="15.8743805"><ele>1074.0</ele><time>2026-04-27T11:13:41.386Z</time></trkpt><trkpt lat="44.6602145" lon="15.8745747"><ele>1072.25</ele><time>2026-04-27T11:13:42.386Z</time></trkpt><trkpt lat="44.6601884" lon="15.874762"><ele>1070.5</ele><time>2026-04-27T11:13:43.386Z</time></trkpt><trkpt lat="44.6601657" lon="15.8749399"><ele>1068.75</ele><time>2026-04-27T11:13:44.386Z</time></trkpt><trkpt lat="44.6601484" lon="15.8751005"><ele>1067.0</ele><time>2026-04-27T11:13:45.386Z</time></trkpt><trkpt lat="44.6601401" lon="15.875236"><ele>1066.3333333333335</ele><time>2026-04-27T11:13:46.386Z</time></trkpt><trkpt lat="44.660152" lon="15.8753436"><ele>1065.6666666666667</ele><time>2026-04-27T11:13:47.386Z</time></trkpt><trkpt lat="44.6601707" lon="15.8754476"><ele>1065.0</ele><time>2026-04-27T11:13:48.386Z</time></trkpt><trkpt lat="44.6601935" lon="15.875562"><ele>1064.3333333333333</ele><time>2026-04-27T11:13:49.386Z</time></trkpt><trkpt lat="44.6602205" lon="15.8757004"><ele>1063.6666666666665</ele><time>2026-04-27T11:13:50.387Z</time></trkpt><trkpt lat="44.6602565" lon="15.8758281"><ele>1063.0</ele><time>2026-04-27T11:13:51.386Z</time></trkpt><trkpt lat="44.6602935" lon="15.8759468"><ele>1063.0</ele><time>2026-04-27T11:13:52.386Z</time></trkpt><trkpt lat="44.6603196" lon="15.8760692"><ele>1063.0</ele><time>2026-04-27T11:13:53.386Z</time></trkpt><trkpt lat="44.6603401" lon="15.8761832"><ele>1063.0</ele><time>2026-04-27T11:13:54.386Z</time></trkpt><trkpt lat="44.6603573" lon="15.8762839"><ele>1063.0</ele><time>2026-04-27T11:13:55.387Z</time></trkpt><trkpt lat="44.6603717" lon="15.8763925"><ele>1063.0</ele><time>2026-04-27T11:13:56.386Z</time></trkpt><trkpt lat="44.6603954" lon="15.8765336"><ele>1063.0</ele><time>2026-04-27T11:13:57.386Z</time></trkpt><trkpt lat="44.6604196" lon="15.8767091"><ele>1062.5</ele><time>2026-04-27T11:13:58.386Z</time></trkpt><trkpt lat="44.6604433" lon="15.8768858"><ele>1062.0</ele><time>2026-04-27T11:13:59.386Z</time></trkpt><trkpt lat="44.6604624" lon="15.8770577"><ele>1061.5</ele><time>2026-04-27T11:14:00.386Z</time></trkpt><trkpt lat="44.6604782" lon="15.8772256"><ele>1061.0</ele><time>2026-04-27T11:14:01.386Z</time></trkpt><trkpt lat="44.6604903" lon="15.8774087"><ele>1061.0</ele><time>2026-04-27T11:14:02.387Z</time></trkpt><trkpt lat="44.6605015" lon="15.8775838"><ele>1061.0</ele><time>2026-04-27T11:14:03.386Z</time></trkpt><trkpt lat="44.6605243" lon="15.8777512"><ele>1061.0</ele><time>2026-04-27T11:14:04.387Z</time></trkpt><trkpt lat="44.6605612" lon="15.87791"><ele>1061.0</ele><time>2026-04-27T11:14:05.387Z</time></trkpt><trkpt lat="44.6605937" lon="15.8780447"><ele>1060.3333333333335</ele><time>2026-04-27T11:14:06.386Z</time></trkpt><trkpt lat="44.6606145" lon="15.8781672"><ele>1059.6666666666667</ele><time>2026-04-27T11:14:07.386Z</time></trkpt><trkpt lat="44.6606277" lon="15.8782844"><ele>1059.0</ele><time>2026-04-27T11:14:08.386Z</time></trkpt><trkpt lat="44.6606383" lon="15.878408"><ele>1058.3333333333333</ele><time>2026-04-27T11:14:09.386Z</time></trkpt><trkpt lat="44.6606496" lon="15.8785269"><ele>1057.6666666666665</ele><time>2026-04-27T11:14:10.386Z</time></trkpt><trkpt lat="44.6606753" lon="15.8786226"><ele>1057.0</ele><time>2026-04-27T11:14:11.386Z</time></trkpt><trkpt lat="44.6607275" lon="15.878722"><ele>1055.5</ele><time>2026-04-27T11:14:12.387Z</time></trkpt><trkpt lat="44.6608054" lon="15.8788461"><ele>1054.0</ele><time>2026-04-27T11:14:13.386Z</time></trkpt><trkpt lat="44.6609064" lon="15.8789824"><ele>1052.5</ele><time>2026-04-27T11:14:14.386Z</time></trkpt><trkpt lat="44.6610132" lon="15.8791101"><ele>1051.0</ele><time>2026-04-27T11:14:15.386Z</time></trkpt><trkpt lat="44.6611034" lon="15.8792166"><ele>1050.3999999999999</ele><time>2026-04-27T11:14:16.386Z</time></trkpt><trkpt lat="44.6611938" lon="15.8792889"><ele>1049.8</ele><time>2026-04-27T11:14:17.387Z</time></trkpt><trkpt lat="44.6612807" lon="15.8793375"><ele>1049.1999999999998</ele><time>2026-04-27T11:14:18.387Z</time></trkpt><trkpt lat="44.6613697" lon="15.8793355"><ele>1048.6</ele><time>2026-04-27T11:14:19.386Z</time></trkpt><trkpt lat="44.6614755" lon="15.8793296"><ele>1048.0</ele><time>2026-04-27T11:14:20.386Z</time></trkpt><trkpt lat="44.6615836" lon="15.8792851"><ele>1048.0</ele><time>2026-04-27T11:14:21.386Z</time></trkpt><trkpt lat="44.6617051" lon="15.8792597"><ele>1048.0</ele><time>2026-04-27T11:14:22.386Z</time></trkpt><trkpt lat="44.6618217" lon="15.8792615"><ele>1048.0</ele><time>2026-04-27T11:14:23.387Z</time></trkpt><trkpt lat="44.6619139" lon="15.8792962"><ele>1048.0</ele><time>2026-04-27T11:14:24.386Z</time></trkpt><trkpt lat="44.6619904" lon="15.8793394"><ele>1048.0</ele><time>2026-04-27T11:14:25.386Z</time></trkpt><trkpt lat="44.6620639" lon="15.8793823"><ele>1049.0</ele><time>2026-04-27T11:14:26.386Z</time></trkpt><trkpt lat="44.6621405" lon="15.8794318"><ele>1050.0</ele><time>2026-04-27T11:14:27.387Z</time></trkpt><trkpt lat="44.6622075" lon="15.8794925"><ele>1051.0</ele><time>2026-04-27T11:14:28.387Z</time></trkpt><trkpt lat="44.6622721" lon="15.8795542"><ele>1052.0</ele><time>2026-04-27T11:14:29.386Z</time></trkpt><trkpt lat="44.662362" lon="15.8795851"><ele>1053.0</ele><time>2026-04-27T11:14:30.387Z</time></trkpt><trkpt lat="44.6624459" lon="15.8796475"><ele>1054.0</ele><time>2026-04-27T11:14:31.386Z</time></trkpt><trkpt lat="44.6625448" lon="15.8797302"><ele>1054.0</ele><time>2026-04-27T11:14:32.386Z</time></trkpt><trkpt lat="44.6626348" lon="15.8798174"><ele>1054.0</ele><time>2026-04-27T11:14:33.386Z</time></trkpt><trkpt lat="44.662714" lon="15.8798923"><ele>1054.0</ele><time>2026-04-27T11:14:34.386Z</time></trkpt><trkpt lat="44.6627687" lon="15.8800023"><ele>1054.0</ele><time>2026-04-27T11:14:35.386Z</time></trkpt><trkpt lat="44.6628024" lon="15.8801107"><ele>1054.0</ele><time>2026-04-27T11:14:36.386Z</time></trkpt><trkpt lat="44.6628326" lon="15.8802656"><ele>1053.8</ele><time>2026-04-27T11:14:37.386Z</time></trkpt><trkpt lat="44.6628909" lon="15.8804025"><ele>1053.6000000000001</ele><time>2026-04-27T11:14:38.386Z</time></trkpt><trkpt lat="44.6629486" lon="15.8805359"><ele>1053.4</ele><time>2026-04-27T11:14:39.386Z</time></trkpt><trkpt lat="44.6629995" lon="15.880655"><ele>1053.2</ele><time>2026-04-27T11:14:40.386Z</time></trkpt><trkpt lat="44.6630734" lon="15.8807192"><ele>1053.0</ele><time>2026-04-27T11:14:41.386Z</time></trkpt><trkpt lat="44.6631475" lon="15.8807659"><ele>1053.0</ele><time>2026-04-27T11:14:42.386Z</time></trkpt><trkpt lat="44.6632142" lon="15.8808237"><ele>1053.0</ele><time>2026-04-27T11:14:43.387Z</time></trkpt><trkpt lat="44.6633217" lon="15.8808386"><ele>1053.0</ele><time>2026-04-27T11:14:44.386Z</time></trkpt><trkpt lat="44.6634215" lon="15.8808576"><ele>1053.0</ele><time>2026-04-27T11:14:45.386Z</time></trkpt><trkpt lat="44.6635241" lon="15.8808535"><ele>1053.0</ele><time>2026-04-27T11:14:46.386Z</time></trkpt><trkpt lat="44.6636307" lon="15.8808631"><ele>1052.5</ele><time>2026-04-27T11:14:47.386Z</time></trkpt><trkpt lat="44.6637254" lon="15.8808659"><ele>1052.0</ele><time>2026-04-27T11:14:48.386Z</time></trkpt><trkpt lat="44.6637885" lon="15.8809008"><ele>1051.5</ele><time>2026-04-27T11:14:49.386Z</time></trkpt><trkpt lat="44.6638762" lon="15.8809421"><ele>1051.0</ele><time>2026-04-27T11:14:50.386Z</time></trkpt><trkpt lat="44.663953" lon="15.8810227"><ele>1050.5</ele><time>2026-04-27T11:14:51.386Z</time></trkpt><trkpt lat="44.6640276" lon="15.8811016"><ele>1050.0</ele><time>2026-04-27T11:14:52.387Z</time></trkpt><trkpt lat="44.6641205" lon="15.881202"><ele>1050.0</ele><time>2026-04-27T11:14:53.386Z</time></trkpt><trkpt lat="44.6642102" lon="15.8812937"><ele>1050.0</ele><time>2026-04-27T11:14:54.386Z</time></trkpt><trkpt lat="44.6643643" lon="15.8813802"><ele>1050.0</ele><time>2026-04-27T11:14:55.386Z</time></trkpt><trkpt lat="44.6645101" lon="15.8814579"><ele>1050.0</ele><time>2026-04-27T11:14:56.386Z</time></trkpt><trkpt lat="44.6646576" lon="15.8815445"><ele>1051.4</ele><time>2026-04-27T11:14:57.386Z</time></trkpt><trkpt lat="44.6647782" lon="15.8815986"><ele>1052.8</ele><time>2026-04-27T11:14:58.387Z</time></trkpt><trkpt lat="44.6648866" lon="15.8816398"><ele>1054.2</ele><time>2026-04-27T11:14:59.386Z</time></trkpt><trkpt lat="44.6649847" lon="15.881678"><ele>1055.6</ele><time>2026-04-27T11:15:00.386Z</time></trkpt><trkpt lat="44.6650662" lon="15.8816807"><ele>1057.0</ele><time>2026-04-27T11:15:01.386Z</time></trkpt><trkpt lat="44.6651623" lon="15.8816561"><ele>1057.0</ele><time>2026-04-27T11:15:02.386Z</time></trkpt><trkpt lat="44.6652555" lon="15.8816211"><ele>1057.0</ele><time>2026-04-27T11:15:03.387Z</time></trkpt><trkpt lat="44.6653468" lon="15.8815733"><ele>1057.0</ele><time>2026-04-27T11:15:04.386Z</time></trkpt><trkpt lat="44.6654443" lon="15.8815353"><ele>1057.0</ele><time>2026-04-27T11:15:05.386Z</time></trkpt><trkpt lat="44.6655342" lon="15.881515"><ele>1057.0</ele><time>2026-04-27T11:15:06.387Z</time></trkpt><trkpt lat="44.665629" lon="15.8815082"><ele>1057.2</ele><time>2026-04-27T11:15:07.386Z</time></trkpt><trkpt lat="44.6657168" lon="15.8815351"><ele>1057.4</ele><time>2026-04-27T11:15:08.386Z</time></trkpt><trkpt lat="44.6657888" lon="15.8815887"><ele>1057.6</ele><time>2026-04-27T11:15:09.386Z</time></trkpt><trkpt lat="44.6658485" lon="15.8816697"><ele>1057.8</ele><time>2026-04-27T11:15:10.386Z</time></trkpt><trkpt lat="44.6659067" lon="15.8817786"><ele>1058.0</ele><time>2026-04-27T11:15:11.386Z</time></trkpt><trkpt lat="44.6659332" lon="15.881925"><ele>1055.4</ele><time>2026-04-27T11:15:12.386Z</time></trkpt><trkpt lat="44.6659925" lon="15.8820986"><ele>1052.8</ele><time>2026-04-27T11:15:13.386Z</time></trkpt><trkpt lat="44.6659986" lon="15.8822364"><ele>1050.2</ele><time>2026-04-27T11:15:14.386Z</time></trkpt><trkpt lat="44.6660321" lon="15.8823472"><ele>1047.6</ele><time>2026-04-27T11:15:15.387Z</time></trkpt><trkpt lat="44.6660546" lon="15.8824798"><ele>1045.0</ele><time>2026-04-27T11:15:16.387Z</time></trkpt><trkpt lat="44.6660761" lon="15.8826193"><ele>1041.75</ele><time>2026-04-27T11:15:17.386Z</time></trkpt><trkpt lat="44.6661007" lon="15.8827823"><ele>1038.5</ele><time>2026-04-27T11:15:18.387Z</time></trkpt><trkpt lat="44.6661022" lon="15.8829526"><ele>1035.25</ele><time>2026-04-27T11:15:19.387Z</time></trkpt><trkpt lat="44.6661165" lon="15.8831314"><ele>1032.0</ele><time>2026-04-27T11:15:20.386Z</time></trkpt><trkpt lat="44.6661369" lon="15.8832786"><ele>1036.0</ele><time>2026-04-27T11:15:21.386Z</time></trkpt><trkpt lat="44.6661415" lon="15.8834361"><ele>1040.0</ele><time>2026-04-27T11:15:22.386Z</time></trkpt><trkpt lat="44.666154" lon="15.8835928"><ele>1044.0</ele><time>2026-04-27T11:15:23.386Z</time></trkpt><trkpt lat="44.6661673" lon="15.883733"><ele>1048.0</ele><time>2026-04-27T11:15:24.386Z</time></trkpt><trkpt lat="44.666186" lon="15.8839005"><ele>1052.0</ele><time>2026-04-27T11:15:25.386Z</time></trkpt><trkpt lat="44.6662176" lon="15.884085"><ele>1051.25</ele><time>2026-04-27T11:15:26.386Z</time></trkpt><trkpt lat="44.6662511" lon="15.8842738"><ele>1050.5</ele><time>2026-04-27T11:15:27.387Z</time></trkpt><trkpt lat="44.6662733" lon="15.8844652"><ele>1049.75</ele><time>2026-04-27T11:15:28.387Z</time></trkpt><trkpt lat="44.6662993" lon="15.8846397"><ele>1049.0</ele><time>2026-04-27T11:15:29.386Z</time></trkpt><trkpt lat="44.6662951" lon="15.8848064"><ele>1049.0</ele><time>2026-04-27T11:15:30.386Z</time></trkpt><trkpt lat="44.666264" lon="15.8850067"><ele>1049.0</ele><time>2026-04-27T11:15:31.386Z</time></trkpt><trkpt lat="44.6662373" lon="15.8851961"><ele>1049.0</ele><time>2026-04-27T11:15:32.386Z</time></trkpt><trkpt lat="44.6662238" lon="15.8853542"><ele>1049.0</ele><time>2026-04-27T11:15:33.386Z</time></trkpt><trkpt lat="44.6662185" lon="15.8854926"><ele>1049.2</ele><time>2026-04-27T11:15:34.387Z</time></trkpt><trkpt lat="44.6662148" lon="15.885635"><ele>1049.4</ele><time>2026-04-27T11:15:35.386Z</time></trkpt><trkpt lat="44.6662273" lon="15.885805"><ele>1049.6</ele><time>2026-04-27T11:15:36.386Z</time></trkpt><trkpt lat="44.6662435" lon="15.8859433"><ele>1049.8</ele><time>2026-04-27T11:15:37.386Z</time></trkpt><trkpt lat="44.6662541" lon="15.8860891"><ele>1050.0</ele><time>2026-04-27T11:15:38.386Z</time></trkpt><trkpt lat="44.6662655" lon="15.8862291"><ele>1050.0</ele><time>2026-04-27T11:15:39.386Z</time></trkpt><trkpt lat="44.6662251" lon="15.8864137"><ele>1050.0</ele><time>2026-04-27T11:15:40.387Z</time></trkpt><trkpt lat="44.6661806" lon="15.8866017"><ele>1050.0</ele><time>2026-04-27T11:15:41.386Z</time></trkpt><trkpt lat="44.6661488" lon="15.886788"><ele>1050.0</ele><time>2026-04-27T11:15:42.387Z</time></trkpt><trkpt lat="44.66611" lon="15.886942"><ele>1037.75</ele><time>2026-04-27T11:15:43.386Z</time></trkpt><trkpt lat="44.6660762" lon="15.8870908"><ele>1025.5</ele><time>2026-04-27T11:15:44.386Z</time></trkpt><trkpt lat="44.6660403" lon="15.887278"><ele>1013.25</ele><time>2026-04-27T11:15:45.387Z</time></trkpt><trkpt lat="44.6660199" lon="15.8874374"><ele>1001.0</ele><time>2026-04-27T11:15:46.386Z</time></trkpt><trkpt lat="44.6660013" lon="15.8875725"><ele>1000.8</ele><time>2026-04-27T11:15:47.387Z</time></trkpt><trkpt lat="44.6659848" lon="15.8876961"><ele>1000.5999999999999</ele><time>2026-04-27T11:15:48.386Z</time></trkpt><trkpt lat="44.6659733" lon="15.8878486"><ele>1000.4</ele><time>2026-04-27T11:15:49.386Z</time></trkpt><trkpt lat="44.6659589" lon="15.8879965"><ele>1000.2</ele><time>2026-04-27T11:15:50.386Z</time></trkpt><trkpt lat="44.6659399" lon="15.8881336"><ele>1000.0</ele><time>2026-04-27T11:15:51.386Z</time></trkpt><trkpt lat="44.6659127" lon="15.8882958"><ele>998.6</ele><time>2026-04-27T11:15:52.386Z</time></trkpt><trkpt lat="44.6658997" lon="15.8884368"><ele>997.2</ele><time>2026-04-27T11:15:53.386Z</time></trkpt><trkpt lat="44.6658906" lon="15.8885757"><ele>995.8</ele><time>2026-04-27T11:15:54.387Z</time></trkpt><trkpt lat="44.6658912" lon="15.8887121"><ele>994.4</ele><time>2026-04-27T11:15:55.386Z</time></trkpt><trkpt lat="44.6659153" lon="15.8888413"><ele>993.0</ele><time>2026-04-27T11:15:56.386Z</time></trkpt><trkpt lat="44.6659589" lon="15.8889643"><ele>993.0</ele><time>2026-04-27T11:15:57.386Z</time></trkpt><trkpt lat="44.6660124" lon="15.8890817"><ele>993.0</ele><time>2026-04-27T11:15:58.386Z</time></trkpt><trkpt lat="44.666097" lon="15.8892024"><ele>993.0</ele><time>2026-04-27T11:15:59.386Z</time></trkpt><trkpt lat="44.6661817" lon="15.8893251"><ele>993.0</ele><time>2026-04-27T11:16:00.386Z</time></trkpt><trkpt lat="44.6662679" lon="15.8894495"><ele>999.0</ele><time>2026-04-27T11:16:01.386Z</time></trkpt><trkpt lat="44.666352" lon="15.8895896"><ele>1005.0</ele><time>2026-04-27T11:16:02.386Z</time></trkpt><trkpt lat="44.6664705" lon="15.8897267"><ele>1011.0</ele><time>2026-04-27T11:16:03.386Z</time></trkpt><trkpt lat="44.6665795" lon="15.8898724"><ele>1017.0</ele><time>2026-04-27T11:16:04.386Z</time></trkpt><trkpt lat="44.6666941" lon="15.890012"><ele>1018.0</ele><time>2026-04-27T11:16:05.387Z</time></trkpt><trkpt lat="44.6668081" lon="15.8901465"><ele>1019.0</ele><time>2026-04-27T11:16:06.386Z</time></trkpt><trkpt lat="44.6669305" lon="15.8902767"><ele>1020.0</ele><time>2026-04-27T11:16:07.386Z</time></trkpt><trkpt lat="44.6670525" lon="15.8903956"><ele>1020.0</ele><time>2026-04-27T11:16:08.386Z</time></trkpt><trkpt lat="44.6671885" lon="15.8905081"><ele>1020.0</ele><time>2026-04-27T11:16:09.386Z</time></trkpt><trkpt lat="44.6673305" lon="15.890624"><ele>1020.0</ele><time>2026-04-27T11:16:10.386Z</time></trkpt><trkpt lat="44.6674717" lon="15.8907366"><ele>1020.0</ele><time>2026-04-27T11:16:11.386Z</time></trkpt><trkpt lat="44.6676143" lon="15.8908432"><ele>1020.0</ele><time>2026-04-27T11:16:12.386Z</time></trkpt><trkpt lat="44.6677623" lon="15.8909233"><ele>1020.0</ele><time>2026-04-27T11:16:13.386Z</time></trkpt><trkpt lat="44.6679089" lon="15.8909867"><ele>1019.0</ele><time>2026-04-27T11:16:14.386Z</time></trkpt><trkpt lat="44.6680518" lon="15.8910639"><ele>1018.0</ele><time>2026-04-27T11:16:15.386Z</time></trkpt><trkpt lat="44.6681983" lon="15.8911383"><ele>1017.0</ele><time>2026-04-27T11:16:16.386Z</time></trkpt><trkpt lat="44.6682987" lon="15.8912415"><ele>1016.0</ele><time>2026-04-27T11:16:17.386Z</time></trkpt><trkpt lat="44.6684011" lon="15.8913328"><ele>1016.0</ele><time>2026-04-27T11:16:18.386Z</time></trkpt><trkpt lat="44.6685208" lon="15.891469"><ele>1016.0</ele><time>2026-04-27T11:16:19.386Z</time></trkpt><trkpt lat="44.6686262" lon="15.8915853"><ele>1016.0</ele><time>2026-04-27T11:16:20.387Z</time></trkpt><trkpt lat="44.6687378" lon="15.8917054"><ele>1016.0</ele><time>2026-04-27T11:16:21.386Z</time></trkpt><trkpt lat="44.6688347" lon="15.8918179"><ele>1016.75</ele><time>2026-04-27T11:16:22.387Z</time></trkpt><trkpt lat="44.6689417" lon="15.8919023"><ele>1017.5</ele><time>2026-04-27T11:16:23.386Z</time></trkpt><trkpt lat="44.6690452" lon="15.8919643"><ele>1018.25</ele><time>2026-04-27T11:16:24.387Z</time></trkpt><trkpt lat="44.6691642" lon="15.8920119"><ele>1019.0</ele><time>2026-04-27T11:16:25.386Z</time></trkpt><trkpt lat="44.6693005" lon="15.8920505"><ele>1020.25</ele><time>2026-04-27T11:16:26.386Z</time></trkpt><trkpt lat="44.6694446" lon="15.8920802"><ele>1021.5</ele><time>2026-04-27T11:16:27.386Z</time></trkpt><trkpt lat="44.6695811" lon="15.8921077"><ele>1022.75</ele><time>2026-04-27T11:16:28.386Z</time></trkpt><trkpt lat="44.669657" lon="15.892104"><ele>1024.0</ele><time>2026-04-27T11:16:29.387Z</time></trkpt><trkpt lat="44.6697748" lon="15.8921052"><ele>1024.0</ele><time>2026-04-27T11:16:30.386Z</time></trkpt><trkpt lat="44.66991" lon="15.8920813"><ele>1024.0</ele><time>2026-04-27T11:16:31.386Z</time></trkpt><trkpt lat="44.6700539" lon="15.8920568"><ele>1024.0</ele><time>2026-04-27T11:16:32.386Z</time></trkpt><trkpt lat="44.6702211" lon="15.8920153"><ele>1023.5</ele><time>2026-04-27T11:16:33.386Z</time></trkpt><trkpt lat="44.6703382" lon="15.8920127"><ele>1023.0</ele><time>2026-04-27T11:16:34.387Z</time></trkpt><trkpt lat="44.6704595" lon="15.891951"><ele>1022.5</ele><time>2026-04-27T11:16:35.386Z</time></trkpt><trkpt lat="44.6705808" lon="15.8918755"><ele>1022.0</ele><time>2026-04-27T11:16:36.386Z</time></trkpt><trkpt lat="44.6706903" lon="15.8918063"><ele>1024.8</ele><time>2026-04-27T11:16:37.386Z</time></trkpt><trkpt lat="44.6707961" lon="15.8917413"><ele>1027.6</ele><time>2026-04-27T11:16:38.386Z</time></trkpt><trkpt lat="44.6709008" lon="15.8916849"><ele>1030.3999999999999</ele><time>2026-04-27T11:16:39.386Z</time></trkpt><trkpt lat="44.6709831" lon="15.8916615"><ele>1033.2</ele><time>2026-04-27T11:16:40.386Z</time></trkpt><trkpt lat="44.6710879" lon="15.8916693"><ele>1036.0</ele><time>2026-04-27T11:16:41.386Z</time></trkpt><trkpt lat="44.6711841" lon="15.8917022"><ele>1036.0</ele><time>2026-04-27T11:16:42.386Z</time></trkpt><trkpt lat="44.6712946" lon="15.8917459"><ele>1036.0</ele><time>2026-04-27T11:16:43.386Z</time></trkpt><trkpt lat="44.671445" lon="15.8917897"><ele>1036.0</ele><time>2026-04-27T11:16:44.386Z</time></trkpt><trkpt lat="44.6715879" lon="15.8918224"><ele>1036.0</ele><time>2026-04-27T11:16:45.386Z</time></trkpt><trkpt lat="44.671722" lon="15.8918773"><ele>1034.75</ele><time>2026-04-27T11:16:46.386Z</time></trkpt><trkpt lat="44.6718607" lon="15.8919342"><ele>1033.5</ele><time>2026-04-27T11:16:47.386Z</time></trkpt><trkpt lat="44.6720091" lon="15.89198"><ele>1032.25</ele><time>2026-04-27T11:16:48.387Z</time></trkpt><trkpt lat="44.6721515" lon="15.892043"><ele>1031.0</ele><time>2026-04-27T11:16:49.387Z</time></trkpt><trkpt lat="44.672288" lon="15.8921034"><ele>1031.0</ele><time>2026-04-27T11:16:50.387Z</time></trkpt><trkpt lat="44.6724361" lon="15.8921566"><ele>1031.0</ele><time>2026-04-27T11:16:51.387Z</time></trkpt><trkpt lat="44.6725643" lon="15.89221"><ele>1031.0</ele><time>2026-04-27T11:16:52.386Z</time></trkpt><trkpt lat="44.6726816" lon="15.8922805"><ele>1031.0</ele><time>2026-04-27T11:16:53.386Z</time></trkpt><trkpt lat="44.6727878" lon="15.8923434"><ele>1031.0</ele><time>2026-04-27T11:16:54.386Z</time></trkpt><trkpt lat="44.6729027" lon="15.8924066"><ele>1031.0</ele><time>2026-04-27T11:16:55.387Z</time></trkpt><trkpt lat="44.673012" lon="15.8924572"><ele>1031.0</ele><time>2026-04-27T11:16:56.386Z</time></trkpt><trkpt lat="44.6731038" lon="15.8924821"><ele>1031.0</ele><time>2026-04-27T11:16:57.386Z</time></trkpt><trkpt lat="44.6732028" lon="15.8924819"><ele>1031.0</ele><time>2026-04-27T11:16:58.387Z</time></trkpt><trkpt lat="44.6732931" lon="15.8924521"><ele>1031.0</ele><time>2026-04-27T11:16:59.386Z</time></trkpt><trkpt lat="44.6733973" lon="15.8924129"><ele>1031.0</ele><time>2026-04-27T11:17:00.386Z</time></trkpt><trkpt lat="44.6734938" lon="15.8924064"><ele>1031.0</ele><time>2026-04-27T11:17:01.386Z</time></trkpt><trkpt lat="44.6735981" lon="15.8924359"><ele>1031.0</ele><time>2026-04-27T11:17:02.386Z</time></trkpt><trkpt lat="44.6736837" lon="15.8924785"><ele>1031.0</ele><time>2026-04-27T11:17:03.386Z</time></trkpt><trkpt lat="44.6738101" lon="15.8925183"><ele>1031.0</ele><time>2026-04-27T11:17:04.386Z</time></trkpt><trkpt lat="44.6739338" lon="15.8925614"><ele>1031.0</ele><time>2026-04-27T11:17:05.387Z</time></trkpt><trkpt lat="44.6740873" lon="15.8926158"><ele>1031.0</ele><time>2026-04-27T11:17:06.387Z</time></trkpt><trkpt lat="44.6742605" lon="15.8926173"><ele>1030.25</ele><time>2026-04-27T11:17:07.386Z</time></trkpt><trkpt lat="44.6744183" lon="15.8925979"><ele>1029.5</ele><time>2026-04-27T11:17:08.386Z</time></trkpt><trkpt lat="44.6745584" lon="15.892583"><ele>1028.75</ele><time>2026-04-27T11:17:09.386Z</time></trkpt><trkpt lat="44.6746873" lon="15.8925894"><ele>1028.0</ele><time>2026-04-27T11:17:10.386Z</time></trkpt><trkpt lat="44.6748064" lon="15.8925854"><ele>1028.0</ele><time>2026-04-27T11:17:11.386Z</time></trkpt><trkpt lat="44.6749104" lon="15.8925581"><ele>1028.0</ele><time>2026-04-27T11:17:12.386Z</time></trkpt><trkpt lat="44.6750134" lon="15.8925225"><ele>1028.0</ele><time>2026-04-27T11:17:13.387Z</time></trkpt><trkpt lat="44.6751133" lon="15.8924832"><ele>1028.0</ele><time>2026-04-27T11:17:14.386Z</time></trkpt><trkpt lat="44.6751906" lon="15.8924181"><ele>1028.0</ele><time>2026-04-27T11:17:15.387Z</time></trkpt><trkpt lat="44.6752667" lon="15.8923382"><ele>1027.0</ele><time>2026-04-27T11:17:16.387Z</time></trkpt><trkpt lat="44.6753328" lon="15.892254"><ele>1026.0</ele><time>2026-04-27T11:17:17.386Z</time></trkpt><trkpt lat="44.6754319" lon="15.8921632"><ele>1025.0</ele><time>2026-04-27T11:17:18.386Z</time></trkpt><trkpt lat="44.6755285" lon="15.8920806"><ele>1024.0</ele><time>2026-04-27T11:17:19.386Z</time></trkpt><trkpt lat="44.6756478" lon="15.8920128"><ele>1023.0</ele><time>2026-04-27T11:17:20.387Z</time></trkpt><trkpt lat="44.675774" lon="15.8919378"><ele>1023.0</ele><time>2026-04-27T11:17:21.386Z</time></trkpt><trkpt lat="44.6758864" lon="15.8918814"><ele>1023.0</ele><time>2026-04-27T11:17:22.386Z</time></trkpt><trkpt lat="44.675983" lon="15.891808"><ele>1023.0</ele><time>2026-04-27T11:17:23.386Z</time></trkpt><trkpt lat="44.6760723" lon="15.8917277"><ele>1023.0</ele><time>2026-04-27T11:17:24.386Z</time></trkpt><trkpt lat="44.676148" lon="15.8916698"><ele>1023.0</ele><time>2026-04-27T11:17:25.386Z</time></trkpt><trkpt lat="44.6762313" lon="15.8916103"><ele>1025.5</ele><time>2026-04-27T11:17:26.386Z</time></trkpt><trkpt lat="44.6763431" lon="15.8915549"><ele>1028.0</ele><time>2026-04-27T11:17:27.387Z</time></trkpt><trkpt lat="44.6764413" lon="15.8914963"><ele>1030.5</ele><time>2026-04-27T11:17:28.386Z</time></trkpt><trkpt lat="44.6765881" lon="15.8914503"><ele>1033.0</ele><time>2026-04-27T11:17:29.386Z</time></trkpt><trkpt lat="44.6767105" lon="15.8914105"><ele>1033.0</ele><time>2026-04-27T11:17:30.386Z</time></trkpt><trkpt lat="44.6768144" lon="15.8913673"><ele>1033.0</ele><time>2026-04-27T11:17:31.386Z</time></trkpt><trkpt lat="44.6768885" lon="15.891386"><ele>1033.0</ele><time>2026-04-27T11:17:32.386Z</time></trkpt><trkpt lat="44.6769838" lon="15.8913882"><ele>1033.0</ele><time>2026-04-27T11:17:33.386Z</time></trkpt><trkpt lat="44.6770569" lon="15.8914223"><ele>1033.0</ele><time>2026-04-27T11:17:34.386Z</time></trkpt><trkpt lat="44.6771112" lon="15.8914766"><ele>1033.0</ele><time>2026-04-27T11:17:35.386Z</time></trkpt><trkpt lat="44.6771647" lon="15.8915972"><ele>1031.3333333333333</ele><time>2026-04-27T11:17:37.386Z</time></trkpt><trkpt lat="44.6771718" lon="15.8917032"><ele>1029.6666666666665</ele><time>2026-04-27T11:17:39.387Z</time></trkpt><trkpt lat="44.6771491" lon="15.8917865"><ele>1028.0</ele><time>2026-04-27T11:17:41.386Z</time></trkpt><trkpt lat="44.6770944" lon="15.8918758"><ele>1026.3333333333333</ele><time>2026-04-27T11:17:43.386Z</time></trkpt><trkpt lat="44.6770326" lon="15.8919877"><ele>1024.6666666666667</ele><time>2026-04-27T11:17:46.386Z</time></trkpt><trkpt lat="44.6769733" lon="15.8921404"><ele>1023.0</ele><time>2026-04-27T11:18:43.386Z</time></trkpt><trkpt lat="44.6769292" lon="15.8923154"><ele>1023.0</ele><time>2026-04-27T11:18:45.386Z</time></trkpt><trkpt lat="44.6768944" lon="15.8924531"><ele>1023.0</ele><time>2026-04-27T11:18:46.386Z</time></trkpt><trkpt lat="44.6768662" lon="15.8926188"><ele>1023.0</ele><time>2026-04-27T11:18:47.386Z</time></trkpt><trkpt lat="44.6768286" lon="15.8927736"><ele>1023.0</ele><time>2026-04-27T11:18:48.386Z</time></trkpt><trkpt lat="44.676796" lon="15.8929398"><ele>1023.0</ele><time>2026-04-27T11:18:49.386Z</time></trkpt><trkpt lat="44.6767404" lon="15.8931021"><ele>1023.0</ele><time>2026-04-27T11:18:50.386Z</time></trkpt><trkpt lat="44.6766917" lon="15.8932693"><ele>1023.0</ele><time>2026-04-27T11:18:51.387Z</time></trkpt><trkpt lat="44.6766358" lon="15.8934394"><ele>1023.0</ele><time>2026-04-27T11:18:52.386Z</time></trkpt><trkpt lat="44.676574" lon="15.8936132"><ele>1024.75</ele><time>2026-04-27T11:18:53.386Z</time></trkpt><trkpt lat="44.6765003" lon="15.8937604"><ele>1026.5</ele><time>2026-04-27T11:18:54.387Z</time></trkpt><trkpt lat="44.6764069" lon="15.8939177"><ele>1028.25</ele><time>2026-04-27T11:18:55.386Z</time></trkpt><trkpt lat="44.676317" lon="15.8940526"><ele>1030.0</ele><time>2026-04-27T11:18:56.386Z</time></trkpt><trkpt lat="44.6762282" lon="15.8941742"><ele>1032.25</ele><time>2026-04-27T11:18:57.386Z</time></trkpt><trkpt lat="44.676137" lon="15.8943139"><ele>1034.5</ele><time>2026-04-27T11:18:58.386Z</time></trkpt><trkpt lat="44.6760564" lon="15.8944543"><ele>1036.75</ele><time>2026-04-27T11:18:59.386Z</time></trkpt><trkpt lat="44.675971" lon="15.8946284"><ele>1039.0</ele><time>2026-04-27T11:19:00.387Z</time></trkpt><trkpt lat="44.6758941" lon="15.8948164"><ele>1033.0</ele><time>2026-04-27T11:19:01.387Z</time></trkpt><trkpt lat="44.6758157" lon="15.8949726"><ele>1027.0</ele><time>2026-04-27T11:19:02.386Z</time></trkpt><trkpt lat="44.6757497" lon="15.8951307"><ele>1021.0</ele><time>2026-04-27T11:19:03.386Z</time></trkpt><trkpt lat="44.6756863" lon="15.8952741"><ele>1015.0</ele><time>2026-04-27T11:19:04.387Z</time></trkpt><trkpt lat="44.6756106" lon="15.8954365"><ele>1015.0</ele><time>2026-04-27T11:19:05.386Z</time></trkpt><trkpt lat="44.6755507" lon="15.8955621"><ele>1015.0</ele><time>2026-04-27T11:19:06.386Z</time></trkpt><trkpt lat="44.6754952" lon="15.8957152"><ele>1015.0</ele><time>2026-04-27T11:19:07.387Z</time></trkpt><trkpt lat="44.6754659" lon="15.8958471"><ele>1015.0</ele><time>2026-04-27T11:19:08.386Z</time></trkpt><trkpt lat="44.6754469" lon="15.8959603"><ele>1015.0</ele><time>2026-04-27T11:19:09.387Z</time></trkpt><trkpt lat="44.6754298" lon="15.8960543"><ele>1014.9999999999999</ele><time>2026-04-27T11:19:10.387Z</time></trkpt><trkpt lat="44.6754555" lon="15.8961901"><ele>1015.0</ele><time>2026-04-27T11:19:11.387Z</time></trkpt><trkpt lat="44.675474" lon="15.8963073"><ele>1015.0</ele><time>2026-04-27T11:19:12.387Z</time></trkpt><trkpt lat="44.675494" lon="15.8964385"><ele>1015.0</ele><time>2026-04-27T11:19:13.386Z</time></trkpt><trkpt lat="44.6754865" lon="15.8965602"><ele>1014.9999999999999</ele><time>2026-04-27T11:19:14.386Z</time></trkpt><trkpt lat="44.6754742" lon="15.8966631"><ele>1015.0</ele><time>2026-04-27T11:19:15.386Z</time></trkpt><trkpt lat="44.6754091" lon="15.8968467"><ele>1014.0</ele><time>2026-04-27T11:19:16.386Z</time></trkpt><trkpt lat="44.6753614" lon="15.8970197"><ele>1013.0</ele><time>2026-04-27T11:19:17.386Z</time></trkpt><trkpt lat="44.6753193" lon="15.8971664"><ele>1012.0</ele><time>2026-04-27T11:19:18.386Z</time></trkpt><trkpt lat="44.6752801" lon="15.8973363"><ele>1011.0</ele><time>2026-04-27T11:19:19.386Z</time></trkpt><trkpt lat="44.6752369" lon="15.8975302"><ele>1008.5</ele><time>2026-04-27T11:19:20.386Z</time></trkpt><trkpt lat="44.6752034" lon="15.8977352"><ele>1006.0</ele><time>2026-04-27T11:19:21.387Z</time></trkpt><trkpt lat="44.6751723" lon="15.8978875"><ele>1003.5</ele><time>2026-04-27T11:19:22.387Z</time></trkpt><trkpt lat="44.6751412" lon="15.8980789"><ele>1001.0</ele><time>2026-04-27T11:19:23.386Z</time></trkpt><trkpt lat="44.6750838" lon="15.8982572"><ele>1000.0</ele><time>2026-04-27T11:19:24.386Z</time></trkpt><trkpt lat="44.6750376" lon="15.8984427"><ele>999.0</ele><time>2026-04-27T11:19:25.387Z</time></trkpt><trkpt lat="44.6749901" lon="15.8986036"><ele>998.0</ele><time>2026-04-27T11:19:26.387Z</time></trkpt><trkpt lat="44.674953" lon="15.8987618"><ele>997.0</ele><time>2026-04-27T11:19:27.386Z</time></trkpt><trkpt lat="44.6749394" lon="15.898908"><ele>997.0</ele><time>2026-04-27T11:19:28.386Z</time></trkpt><trkpt lat="44.6749394" lon="15.8990542"><ele>997.0</ele><time>2026-04-27T11:19:29.386Z</time></trkpt><trkpt lat="44.6749487" lon="15.8992025"><ele>997.0</ele><time>2026-04-27T11:19:30.386Z</time></trkpt><trkpt lat="44.6749513" lon="15.8993324"><ele>997.0</ele><time>2026-04-27T11:19:31.387Z</time></trkpt><trkpt lat="44.674923" lon="15.8994662"><ele>997.0</ele><time>2026-04-27T11:19:32.387Z</time></trkpt><trkpt lat="44.6748947" lon="15.8995992"><ele>996.25</ele><time>2026-04-27T11:19:33.386Z</time></trkpt><trkpt lat="44.6748828" lon="15.8997403"><ele>995.5</ele><time>2026-04-27T11:19:34.387Z</time></trkpt><trkpt lat="44.6748752" lon="15.8999008"><ele>994.75</ele><time>2026-04-27T11:19:35.386Z</time></trkpt><trkpt lat="44.674872" lon="15.9000647"><ele>994.0</ele><time>2026-04-27T11:19:36.386Z</time></trkpt><trkpt lat="44.674898" lon="15.9002601"><ele>993.6</ele><time>2026-04-27T11:19:37.386Z</time></trkpt><trkpt lat="44.6749244" lon="15.900436"><ele>993.2</ele><time>2026-04-27T11:19:38.386Z</time></trkpt><trkpt lat="44.6749275" lon="15.900576"><ele>992.8000000000001</ele><time>2026-04-27T11:19:39.386Z</time></trkpt><trkpt lat="44.6749263" lon="15.9007053"><ele>992.4000000000001</ele><time>2026-04-27T11:19:40.386Z</time></trkpt><trkpt lat="44.6749066" lon="15.9008019"><ele>992.0</ele><time>2026-04-27T11:19:41.387Z</time></trkpt><trkpt lat="44.6748775" lon="15.9009499"><ele>990.6666666666667</ele><time>2026-04-27T11:19:42.386Z</time></trkpt><trkpt lat="44.6748424" lon="15.9010734"><ele>989.3333333333334</ele><time>2026-04-27T11:19:43.387Z</time></trkpt><trkpt lat="44.6748165" lon="15.9011848"><ele>988.0</ele><time>2026-04-27T11:19:44.386Z</time></trkpt><trkpt lat="44.6748031" lon="15.9012899"><ele>986.6666666666667</ele><time>2026-04-27T11:19:45.386Z</time></trkpt><trkpt lat="44.6748172" lon="15.9014099"><ele>985.3333333333334</ele><time>2026-04-27T11:19:46.386Z</time></trkpt><trkpt lat="44.674844" lon="15.9015449"><ele>984.0</ele><time>2026-04-27T11:19:47.386Z</time></trkpt><trkpt lat="44.6749032" lon="15.9016748"><ele>983.0</ele><time>2026-04-27T11:19:48.386Z</time></trkpt><trkpt lat="44.6749747" lon="15.9018199"><ele>982.0</ele><time>2026-04-27T11:19:49.386Z</time></trkpt><trkpt lat="44.6750591" lon="15.9019566"><ele>981.0</ele><time>2026-04-27T11:19:50.386Z</time></trkpt><trkpt lat="44.6751465" lon="15.9020858"><ele>980.0</ele><time>2026-04-27T11:19:51.387Z</time></trkpt><trkpt lat="44.6752437" lon="15.9021941"><ele>980.6</ele><time>2026-04-27T11:19:52.386Z</time></trkpt><trkpt lat="44.6753222" lon="15.9023139"><ele>981.2</ele><time>2026-04-27T11:19:53.386Z</time></trkpt><trkpt lat="44.6754057" lon="15.9024064"><ele>981.8</ele><time>2026-04-27T11:19:54.386Z</time></trkpt><trkpt lat="44.675477" lon="15.9025041"><ele>982.4</ele><time>2026-04-27T11:19:55.386Z</time></trkpt><trkpt lat="44.6754862" lon="15.902599"><ele>983.0</ele><time>2026-04-27T11:19:56.386Z</time></trkpt><trkpt lat="44.675525" lon="15.9027129"><ele>983.0</ele><time>2026-04-27T11:19:57.386Z</time></trkpt><trkpt lat="44.6755584" lon="15.9028892"><ele>983.0</ele><time>2026-04-27T11:19:58.386Z</time></trkpt><trkpt lat="44.6755853" lon="15.9030408"><ele>983.0</ele><time>2026-04-27T11:19:59.386Z</time></trkpt><trkpt lat="44.6756192" lon="15.9031837"><ele>983.0</ele><time>2026-04-27T11:20:00.386Z</time></trkpt><trkpt lat="44.675667" lon="15.9033119"><ele>980.0</ele><time>2026-04-27T11:20:01.386Z</time></trkpt><trkpt lat="44.6757259" lon="15.903434"><ele>977.0</ele><time>2026-04-27T11:20:02.387Z</time></trkpt><trkpt lat="44.6757968" lon="15.9035716"><ele>974.0</ele><time>2026-04-27T11:20:03.386Z</time></trkpt><trkpt lat="44.6758694" lon="15.9037248"><ele>971.0</ele><time>2026-04-27T11:20:04.386Z</time></trkpt><trkpt lat="44.6759553" lon="15.9038759"><ele>971.0</ele><time>2026-04-27T11:20:05.386Z</time></trkpt><trkpt lat="44.6760331" lon="15.9040158"><ele>971.0</ele><time>2026-04-27T11:20:06.386Z</time></trkpt><trkpt lat="44.6760826" lon="15.9041651"><ele>971.0</ele><time>2026-04-27T11:20:07.386Z</time></trkpt><trkpt lat="44.6761439" lon="15.9043049"><ele>971.0</ele><time>2026-04-27T11:20:08.386Z</time></trkpt><trkpt lat="44.6762097" lon="15.9044101"><ele>970.5</ele><time>2026-04-27T11:20:09.386Z</time></trkpt><trkpt lat="44.6762729" lon="15.904503"><ele>970.0</ele><time>2026-04-27T11:20:10.386Z</time></trkpt><trkpt lat="44.6763459" lon="15.9046098"><ele>969.5</ele><time>2026-04-27T11:20:11.387Z</time></trkpt><trkpt lat="44.6764546" lon="15.9047067"><ele>969.0</ele><time>2026-04-27T11:20:12.387Z</time></trkpt><trkpt lat="44.6765602" lon="15.9048065"><ele>969.0</ele><time>2026-04-27T11:20:13.386Z</time></trkpt><trkpt lat="44.6766666" lon="15.9049108"><ele>969.0</ele><time>2026-04-27T11:20:14.386Z</time></trkpt><trkpt lat="44.676767" lon="15.9050018"><ele>969.0</ele><time>2026-04-27T11:20:15.387Z</time></trkpt><trkpt lat="44.6768762" lon="15.9050847"><ele>969.0</ele><time>2026-04-27T11:20:16.386Z</time></trkpt><trkpt lat="44.6770168" lon="15.9051524"><ele>967.0</ele><time>2026-04-27T11:20:17.386Z</time></trkpt><trkpt lat="44.6771303" lon="15.9052245"><ele>965.0</ele><time>2026-04-27T11:20:18.386Z</time></trkpt><trkpt lat="44.6772509" lon="15.9052945"><ele>963.0</ele><time>2026-04-27T11:20:19.387Z</time></trkpt><trkpt lat="44.6773609" lon="15.9053556"><ele>961.0</ele><time>2026-04-27T11:20:20.387Z</time></trkpt><trkpt lat="44.6774795" lon="15.905402"><ele>961.0</ele><time>2026-04-27T11:20:21.386Z</time></trkpt><trkpt lat="44.6776015" lon="15.9054271"><ele>960.9999999999999</ele><time>2026-04-27T11:20:22.386Z</time></trkpt><trkpt lat="44.677709" lon="15.9054456"><ele>960.9999999999999</ele><time>2026-04-27T11:20:23.386Z</time></trkpt><trkpt lat="44.6778063" lon="15.9054692"><ele>961.0</ele><time>2026-04-27T11:20:24.386Z</time></trkpt><trkpt lat="44.6778984" lon="15.9054925"><ele>961.0</ele><time>2026-04-27T11:20:25.386Z</time></trkpt><trkpt lat="44.6779645" lon="15.9054818"><ele>959.1999999999999</ele><time>2026-04-27T11:20:26.386Z</time></trkpt><trkpt lat="44.6780385" lon="15.9054539"><ele>957.3999999999999</ele><time>2026-04-27T11:20:27.386Z</time></trkpt><trkpt lat="44.6781181" lon="15.9054194"><ele>955.6</ele><time>2026-04-27T11:20:28.386Z</time></trkpt><trkpt lat="44.6781894" lon="15.9053428"><ele>953.8</ele><time>2026-04-27T11:20:29.386Z</time></trkpt><trkpt lat="44.6782736" lon="15.9052554"><ele>952.0</ele><time>2026-04-27T11:20:30.386Z</time></trkpt><trkpt lat="44.6783591" lon="15.9051265"><ele>951.5</ele><time>2026-04-27T11:20:31.386Z</time></trkpt><trkpt lat="44.6784644" lon="15.9050024"><ele>951.0</ele><time>2026-04-27T11:20:32.386Z</time></trkpt><trkpt lat="44.678585" lon="15.9049029"><ele>950.5</ele><time>2026-04-27T11:20:33.386Z</time></trkpt><trkpt lat="44.6787075" lon="15.9047821"><ele>950.0</ele><time>2026-04-27T11:20:34.386Z</time></trkpt><trkpt lat="44.6788149" lon="15.9046781"><ele>950.0</ele><time>2026-04-27T11:20:35.386Z</time></trkpt><trkpt lat="44.6789371" lon="15.9045792"><ele>950.0</ele><time>2026-04-27T11:20:36.386Z</time></trkpt><trkpt lat="44.6790561" lon="15.9045054"><ele>950.0</ele><time>2026-04-27T11:20:37.386Z</time></trkpt><trkpt lat="44.6791439" lon="15.9044349"><ele>950.0</ele><time>2026-04-27T11:20:38.386Z</time></trkpt><trkpt lat="44.6792349" lon="15.9043548"><ele>950.0</ele><time>2026-04-27T11:20:39.386Z</time></trkpt><trkpt lat="44.6793206" lon="15.9042548"><ele>950.0</ele><time>2026-04-27T11:20:40.386Z</time></trkpt><trkpt lat="44.6794099" lon="15.9041698"><ele>950.0</ele><time>2026-04-27T11:20:41.387Z</time></trkpt><trkpt lat="44.679484" lon="15.9041224"><ele>950.0</ele><time>2026-04-27T11:20:42.386Z</time></trkpt><trkpt lat="44.6795872" lon="15.9041061"><ele>950.0</ele><time>2026-04-27T11:20:43.387Z</time></trkpt><trkpt lat="44.6796996" lon="15.9041057"><ele>951.25</ele><time>2026-04-27T11:20:44.386Z</time></trkpt><trkpt lat="44.6798064" lon="15.9041052"><ele>952.5</ele><time>2026-04-27T11:20:45.386Z</time></trkpt><trkpt lat="44.6799349" lon="15.9041143"><ele>953.75</ele><time>2026-04-27T11:20:46.386Z</time></trkpt><trkpt lat="44.6800557" lon="15.9040946"><ele>955.0</ele><time>2026-04-27T11:20:47.386Z</time></trkpt><trkpt lat="44.6801844" lon="15.9041133"><ele>953.6</ele><time>2026-04-27T11:20:48.387Z</time></trkpt><trkpt lat="44.6802833" lon="15.9041498"><ele>952.2</ele><time>2026-04-27T11:20:49.387Z</time></trkpt><trkpt lat="44.6803922" lon="15.9041824"><ele>950.8</ele><time>2026-04-27T11:20:50.386Z</time></trkpt><trkpt lat="44.6805058" lon="15.9042283"><ele>949.4</ele><time>2026-04-27T11:20:51.386Z</time></trkpt><trkpt lat="44.680574" lon="15.9042657"><ele>948.0</ele><time>2026-04-27T11:20:52.386Z</time></trkpt><trkpt lat="44.6807236" lon="15.9042619"><ele>948.0</ele><time>2026-04-27T11:20:54.386Z</time></trkpt><trkpt lat="44.6808124" lon="15.9042328"><ele>948.0</ele><time>2026-04-27T11:20:55.386Z</time></trkpt><trkpt lat="44.6809217" lon="15.9041483"><ele>948.0</ele><time>2026-04-27T11:20:56.386Z</time></trkpt><trkpt lat="44.6810147" lon="15.9040847"><ele>948.0</ele><time>2026-04-27T11:20:57.387Z</time></trkpt><trkpt lat="44.6810988" lon="15.9039322"><ele>947.0</ele><time>2026-04-27T11:20:58.386Z</time></trkpt><trkpt lat="44.6811744" lon="15.9037975"><ele>946.0</ele><time>2026-04-27T11:20:59.386Z</time></trkpt><trkpt lat="44.6812359" lon="15.9036793"><ele>945.0</ele><time>2026-04-27T11:21:00.386Z</time></trkpt><trkpt lat="44.681297" lon="15.9035253"><ele>944.0</ele><time>2026-04-27T11:21:01.387Z</time></trkpt><trkpt lat="44.6813191" lon="15.9033822"><ele>944.0</ele><time>2026-04-27T11:21:02.387Z</time></trkpt><trkpt lat="44.6813819" lon="15.9032507"><ele>944.0</ele><time>2026-04-27T11:21:03.387Z</time></trkpt><trkpt lat="44.6814302" lon="15.9031297"><ele>944.0</ele><time>2026-04-27T11:21:04.386Z</time></trkpt><trkpt lat="44.6814951" lon="15.9029649"><ele>944.0</ele><time>2026-04-27T11:21:05.386Z</time></trkpt><trkpt lat="44.6816034" lon="15.9029094"><ele>944.0</ele><time>2026-04-27T11:21:06.387Z</time></trkpt><trkpt lat="44.681696" lon="15.902899"><ele>944.0000000000001</ele><time>2026-04-27T11:21:07.387Z</time></trkpt><trkpt lat="44.6817848" lon="15.9028512"><ele>944.0000000000001</ele><time>2026-04-27T11:21:08.386Z</time></trkpt><trkpt lat="44.68187" lon="15.9027494"><ele>944.0</ele><time>2026-04-27T11:21:09.386Z</time></trkpt><trkpt lat="44.6819498" lon="15.9026407"><ele>944.0</ele><time>2026-04-27T11:21:10.386Z</time></trkpt><trkpt lat="44.6820403" lon="15.9025774"><ele>943.8000000000001</ele><time>2026-04-27T11:21:11.386Z</time></trkpt><trkpt lat="44.6821204" lon="15.9025342"><ele>943.6000000000001</ele><time>2026-04-27T11:21:12.387Z</time></trkpt><trkpt lat="44.6822172" lon="15.9024765"><ele>943.4</ele><time>2026-04-27T11:21:13.386Z</time></trkpt><trkpt lat="44.6823255" lon="15.9024388"><ele>943.2</ele><time>2026-04-27T11:21:14.386Z</time></trkpt><trkpt lat="44.6824133" lon="15.902429"><ele>943.0</ele><time>2026-04-27T11:21:15.386Z</time></trkpt><trkpt lat="44.6824915" lon="15.9024504"><ele>943.0</ele><time>2026-04-27T11:21:16.386Z</time></trkpt><trkpt lat="44.6825536" lon="15.9025092"><ele>943.0</ele><time>2026-04-27T11:21:17.386Z</time></trkpt><trkpt lat="44.6826041" lon="15.9025927"><ele>943.0</ele><time>2026-04-27T11:21:18.386Z</time></trkpt><trkpt lat="44.6826766" lon="15.9027293"><ele>943.0</ele><time>2026-04-27T11:21:19.386Z</time></trkpt><trkpt lat="44.682741" lon="15.9028902"><ele>943.0</ele><time>2026-04-27T11:21:20.386Z</time></trkpt><trkpt lat="44.6827951" lon="15.903063"><ele>945.0</ele><time>2026-04-27T11:21:21.387Z</time></trkpt><trkpt lat="44.6828391" lon="15.9032266"><ele>947.0</ele><time>2026-04-27T11:21:22.386Z</time></trkpt><trkpt lat="44.682882" lon="15.9034085"><ele>949.0</ele><time>2026-04-27T11:21:23.386Z</time></trkpt><trkpt lat="44.6829169" lon="15.9036009"><ele>951.0</ele><time>2026-04-27T11:21:24.386Z</time></trkpt><trkpt lat="44.6829337" lon="15.9037628"><ele>951.0</ele><time>2026-04-27T11:21:25.386Z</time></trkpt><trkpt lat="44.6829551" lon="15.9039109"><ele>950.9999999999999</ele><time>2026-04-27T11:21:26.386Z</time></trkpt><trkpt lat="44.6829676" lon="15.9040419"><ele>950.9999999999999</ele><time>2026-04-27T11:21:27.387Z</time></trkpt><trkpt lat="44.683009" lon="15.9041894"><ele>951.0</ele><time>2026-04-27T11:21:28.387Z</time></trkpt><trkpt lat="44.6830558" lon="15.9043666"><ele>951.0</ele><time>2026-04-27T11:21:29.387Z</time></trkpt><trkpt lat="44.6831207" lon="15.9045361"><ele>949.25</ele><time>2026-04-27T11:21:30.386Z</time></trkpt><trkpt lat="44.6831715" lon="15.9047207"><ele>947.5</ele><time>2026-04-27T11:21:31.386Z</time></trkpt><trkpt lat="44.6832305" lon="15.9049107"><ele>945.75</ele><time>2026-04-27T11:21:32.386Z</time></trkpt><trkpt lat="44.683294" lon="15.9050637"><ele>944.0</ele><time>2026-04-27T11:21:33.386Z</time></trkpt><trkpt lat="44.6833523" lon="15.9052081"><ele>943.0</ele><time>2026-04-27T11:21:34.386Z</time></trkpt><trkpt lat="44.6834037" lon="15.9053761"><ele>942.0</ele><time>2026-04-27T11:21:35.386Z</time></trkpt><trkpt lat="44.6834658" lon="15.905537"><ele>941.0</ele><time>2026-04-27T11:21:36.387Z</time></trkpt><trkpt lat="44.683529" lon="15.9056891"><ele>940.0</ele><time>2026-04-27T11:21:37.386Z</time></trkpt><trkpt lat="44.6835977" lon="15.9058466"><ele>940.5</ele><time>2026-04-27T11:21:38.387Z</time></trkpt><trkpt lat="44.6836646" lon="15.9059976"><ele>941.0</ele><time>2026-04-27T11:21:39.386Z</time></trkpt><trkpt lat="44.6837436" lon="15.9061407"><ele>941.5</ele><time>2026-04-27T11:21:40.386Z</time></trkpt><trkpt lat="44.683823" lon="15.9062717"><ele>942.0</ele><time>2026-04-27T11:21:41.386Z</time></trkpt><trkpt lat="44.6839224" lon="15.9064187"><ele>942.0</ele><time>2026-04-27T11:21:42.386Z</time></trkpt><trkpt lat="44.684023" lon="15.9065304"><ele>942.0</ele><time>2026-04-27T11:21:43.386Z</time></trkpt><trkpt lat="44.6841088" lon="15.9066581"><ele>942.0</ele><time>2026-04-27T11:21:44.386Z</time></trkpt><trkpt lat="44.6841965" lon="15.9067641"><ele>942.0</ele><time>2026-04-27T11:21:45.386Z</time></trkpt><trkpt lat="44.684292" lon="15.9068631"><ele>938.6666666666666</ele><time>2026-04-27T11:21:46.386Z</time></trkpt><trkpt lat="44.6843617" lon="15.9069378"><ele>935.3333333333333</ele><time>2026-04-27T11:21:47.386Z</time></trkpt><trkpt lat="44.6844351" lon="15.906985"><ele>932.0</ele><time>2026-04-27T11:21:48.387Z</time></trkpt><trkpt lat="44.6845159" lon="15.9070038"><ele>928.6666666666666</ele><time>2026-04-27T11:21:49.387Z</time></trkpt><trkpt lat="44.6846268" lon="15.907005"><ele>925.3333333333333</ele><time>2026-04-27T11:21:50.386Z</time></trkpt><trkpt lat="44.6847083" lon="15.9070243"><ele>922.0</ele><time>2026-04-27T11:21:51.387Z</time></trkpt><trkpt lat="44.684809" lon="15.9069451"><ele>922.0</ele><time>2026-04-27T11:21:52.386Z</time></trkpt><trkpt lat="44.6849016" lon="15.9069069"><ele>922.0</ele><time>2026-04-27T11:21:53.386Z</time></trkpt><trkpt lat="44.6849815" lon="15.9068594"><ele>922.0</ele><time>2026-04-27T11:21:54.386Z</time></trkpt><trkpt lat="44.685048" lon="15.9067749"><ele>922.0</ele><time>2026-04-27T11:21:55.386Z</time></trkpt><trkpt lat="44.6851153" lon="15.9066789"><ele>922.0</ele><time>2026-04-27T11:21:56.386Z</time></trkpt><trkpt lat="44.6851693" lon="15.9065611"><ele>920.8</ele><time>2026-04-27T11:21:57.386Z</time></trkpt><trkpt lat="44.685208" lon="15.906418"><ele>919.6</ele><time>2026-04-27T11:21:58.386Z</time></trkpt><trkpt lat="44.6852543" lon="15.9062774"><ele>918.3999999999999</ele><time>2026-04-27T11:21:59.387Z</time></trkpt><trkpt lat="44.6853007" lon="15.90615"><ele>917.1999999999999</ele><time>2026-04-27T11:22:00.386Z</time></trkpt><trkpt lat="44.685343" lon="15.906037"><ele>916.0</ele><time>2026-04-27T11:22:01.386Z</time></trkpt><trkpt lat="44.6854008" lon="15.9059332"><ele>918.75</ele><time>2026-04-27T11:22:02.386Z</time></trkpt><trkpt lat="44.6855052" lon="15.9058305"><ele>921.5</ele><time>2026-04-27T11:22:03.386Z</time></trkpt><trkpt lat="44.6855929" lon="15.9057343"><ele>924.25</ele><time>2026-04-27T11:22:04.386Z</time></trkpt><trkpt lat="44.6856713" lon="15.9056653"><ele>927.0</ele><time>2026-04-27T11:22:05.386Z</time></trkpt><trkpt lat="44.6857605" lon="15.9055456"><ele>927.0</ele><time>2026-04-27T11:22:06.386Z</time></trkpt><trkpt lat="44.6858123" lon="15.9054346"><ele>927.0</ele><time>2026-04-27T11:22:07.386Z</time></trkpt><trkpt lat="44.685897" lon="15.9053021"><ele>927.0</ele><time>2026-04-27T11:22:08.386Z</time></trkpt><trkpt lat="44.685961" lon="15.9051605"><ele>927.0</ele><time>2026-04-27T11:22:09.386Z</time></trkpt><trkpt lat="44.6860148" lon="15.9050161"><ele>929.5</ele><time>2026-04-27T11:22:10.386Z</time></trkpt><trkpt lat="44.6860739" lon="15.9048624"><ele>932.0</ele><time>2026-04-27T11:22:11.387Z</time></trkpt><trkpt lat="44.6861392" lon="15.904698"><ele>934.5</ele><time>2026-04-27T11:22:12.386Z</time></trkpt><trkpt lat="44.6861908" lon="15.904559"><ele>937.0</ele><time>2026-04-27T11:22:13.386Z</time></trkpt><trkpt lat="44.6862321" lon="15.9044085"><ele>933.0</ele><time>2026-04-27T11:22:14.387Z</time></trkpt><trkpt lat="44.6862707" lon="15.9042716"><ele>929.0</ele><time>2026-04-27T11:22:15.387Z</time></trkpt><trkpt lat="44.6862908" lon="15.904095"><ele>925.0</ele><time>2026-04-27T11:22:16.387Z</time></trkpt><trkpt lat="44.6863103" lon="15.9039671"><ele>921.0</ele><time>2026-04-27T11:22:17.387Z</time></trkpt><trkpt lat="44.6863314" lon="15.9038018"><ele>917.0</ele><time>2026-04-27T11:22:18.386Z</time></trkpt><trkpt lat="44.6863285" lon="15.9036535"><ele>917.0000000000001</ele><time>2026-04-27T11:22:19.386Z</time></trkpt><trkpt lat="44.6863584" lon="15.9035359"><ele>917.0</ele><time>2026-04-27T11:22:20.387Z</time></trkpt><trkpt lat="44.6863953" lon="15.9034264"><ele>917.0</ele><time>2026-04-27T11:22:21.386Z</time></trkpt><trkpt lat="44.6864324" lon="15.9033137"><ele>917.0</ele><time>2026-04-27T11:22:22.386Z</time></trkpt><trkpt lat="44.6864847" lon="15.9032312"><ele>917.0000000000001</ele><time>2026-04-27T11:22:23.386Z</time></trkpt><trkpt lat="44.6865619" lon="15.9031456"><ele>917.0</ele><time>2026-04-27T11:22:24.387Z</time></trkpt><trkpt lat="44.6866463" lon="15.9030553"><ele>916.2</ele><time>2026-04-27T11:22:25.386Z</time></trkpt><trkpt lat="44.686747" lon="15.9029476"><ele>915.4000000000001</ele><time>2026-04-27T11:22:26.386Z</time></trkpt><trkpt lat="44.6868195" lon="15.9028429"><ele>914.5999999999999</ele><time>2026-04-27T11:22:27.386Z</time></trkpt><trkpt lat="44.6868887" lon="15.902762"><ele>913.8</ele><time>2026-04-27T11:22:28.387Z</time></trkpt><trkpt lat="44.6869537" lon="15.9027386"><ele>913.0</ele><time>2026-04-27T11:22:29.386Z</time></trkpt><trkpt lat="44.687017" lon="15.9027427"><ele>912.9999999999999</ele><time>2026-04-27T11:22:30.386Z</time></trkpt><trkpt lat="44.6870871" lon="15.9028459"><ele>913.0</ele><time>2026-04-27T11:22:31.386Z</time></trkpt><trkpt lat="44.6871725" lon="15.9029225"><ele>913.0</ele><time>2026-04-27T11:22:32.386Z</time></trkpt><trkpt lat="44.687232" lon="15.902965"><ele>913.0</ele><time>2026-04-27T11:22:33.386Z</time></trkpt><trkpt lat="44.6873001" lon="15.9029713"><ele>912.9999999999999</ele><time>2026-04-27T11:22:34.386Z</time></trkpt><trkpt lat="44.687367" lon="15.9029559"><ele>913.0</ele><time>2026-04-27T11:22:35.386Z</time></trkpt><trkpt lat="44.6874481" lon="15.9028791"><ele>913.0</ele><time>2026-04-27T11:22:36.387Z</time></trkpt><trkpt lat="44.687515" lon="15.9028105"><ele>913.0</ele><time>2026-04-27T11:22:37.386Z</time></trkpt><trkpt lat="44.6876204" lon="15.9026927"><ele>913.0</ele><time>2026-04-27T11:22:38.386Z</time></trkpt><trkpt lat="44.6877257" lon="15.9026111"><ele>913.0</ele><time>2026-04-27T11:22:39.386Z</time></trkpt><trkpt lat="44.6878572" lon="15.9025466"><ele>913.3333333333333</ele><time>2026-04-27T11:22:40.387Z</time></trkpt><trkpt lat="44.6879936" lon="15.9024687"><ele>913.6666666666667</ele><time>2026-04-27T11:22:41.387Z</time></trkpt><trkpt lat="44.6881375" lon="15.9023807"><ele>914.0</ele><time>2026-04-27T11:22:42.386Z</time></trkpt><trkpt lat="44.6882722" lon="15.9022855"><ele>914.0</ele><time>2026-04-27T11:22:43.386Z</time></trkpt><trkpt lat="44.6884121" lon="15.9022569"><ele>914.0</ele><time>2026-04-27T11:22:44.386Z</time></trkpt><trkpt lat="44.6885318" lon="15.9022152"><ele>914.0</ele><time>2026-04-27T11:22:45.387Z</time></trkpt><trkpt lat="44.6886808" lon="15.9021734"><ele>914.0</ele><time>2026-04-27T11:22:46.387Z</time></trkpt><trkpt lat="44.6888194" lon="15.9020805"><ele>913.25</ele><time>2026-04-27T11:22:47.386Z</time></trkpt><trkpt lat="44.6889183" lon="15.9020152"><ele>912.5</ele><time>2026-04-27T11:22:48.386Z</time></trkpt><trkpt lat="44.689023" lon="15.9019196"><ele>911.75</ele><time>2026-04-27T11:22:49.386Z</time></trkpt><trkpt lat="44.6891287" lon="15.9017902"><ele>911.0</ele><time>2026-04-27T11:22:50.386Z</time></trkpt><trkpt lat="44.6892545" lon="15.9016684"><ele>911.0</ele><time>2026-04-27T11:22:51.386Z</time></trkpt><trkpt lat="44.6893885" lon="15.9015841"><ele>911.0</ele><time>2026-04-27T11:22:52.386Z</time></trkpt><trkpt lat="44.6895224" lon="15.9015096"><ele>911.0</ele><time>2026-04-27T11:22:53.386Z</time></trkpt><trkpt lat="44.6896385" lon="15.901442"><ele>911.0</ele><time>2026-04-27T11:22:54.387Z</time></trkpt><trkpt lat="44.689735" lon="15.9013781"><ele>910.0</ele><time>2026-04-27T11:22:55.386Z</time></trkpt><trkpt lat="44.689822" lon="15.9013187"><ele>908.9999999999999</ele><time>2026-04-27T11:22:56.386Z</time></trkpt><trkpt lat="44.6899026" lon="15.9012355"><ele>907.9999999999999</ele><time>2026-04-27T11:22:57.387Z</time></trkpt><trkpt lat="44.6899841" lon="15.9011463"><ele>907.0</ele><time>2026-04-27T11:22:58.386Z</time></trkpt><trkpt lat="44.6900598" lon="15.9010568"><ele>906.0</ele><time>2026-04-27T11:22:59.386Z</time></trkpt><trkpt lat="44.690121" lon="15.900964"><ele>906.0</ele><time>2026-04-27T11:23:00.386Z</time></trkpt><trkpt lat="44.6901891" lon="15.9009423"><ele>906.0</ele><time>2026-04-27T11:23:01.387Z</time></trkpt><trkpt lat="44.690263" lon="15.900901"><ele>906.0</ele><time>2026-04-27T11:23:02.386Z</time></trkpt><trkpt lat="44.6903296" lon="15.9009047"><ele>906.0</ele><time>2026-04-27T11:23:03.386Z</time></trkpt><trkpt lat="44.6904472" lon="15.9008897"><ele>906.0</ele><time>2026-04-27T11:23:04.386Z</time></trkpt><trkpt lat="44.6905153" lon="15.9008931"><ele>906.0</ele><time>2026-04-27T11:23:05.387Z</time></trkpt><trkpt lat="44.690599" lon="15.9009006"><ele>904.5999999999999</ele><time>2026-04-27T11:23:06.386Z</time></trkpt><trkpt lat="44.6906252" lon="15.9007704"><ele>903.1999999999999</ele><time>2026-04-27T11:23:07.386Z</time></trkpt><trkpt lat="44.6906737" lon="15.9006611"><ele>901.8000000000001</ele><time>2026-04-27T11:23:08.387Z</time></trkpt><trkpt lat="44.6907392" lon="15.9005529"><ele>900.4000000000001</ele><time>2026-04-27T11:23:09.386Z</time></trkpt><trkpt lat="44.6908116" lon="15.9004944"><ele>899.0</ele><time>2026-04-27T11:23:10.386Z</time></trkpt><trkpt lat="44.690929" lon="15.9003801"><ele>899.0</ele><time>2026-04-27T11:23:11.386Z</time></trkpt><trkpt lat="44.6910456" lon="15.900291"><ele>899.0000000000001</ele><time>2026-04-27T11:23:12.387Z</time></trkpt><trkpt lat="44.6911305" lon="15.9002145"><ele>899.0000000000001</ele><time>2026-04-27T11:23:13.386Z</time></trkpt><trkpt lat="44.6912207" lon="15.9001305"><ele>899.0</ele><time>2026-04-27T11:23:14.387Z</time></trkpt><trkpt lat="44.6913084" lon="15.9000479"><ele>899.0</ele><time>2026-04-27T11:23:15.386Z</time></trkpt><trkpt lat="44.6913866" lon="15.9000196"><ele>900.4000000000001</ele><time>2026-04-27T11:23:16.386Z</time></trkpt><trkpt lat="44.6915178" lon="15.9000435"><ele>901.8000000000001</ele><time>2026-04-27T11:23:18.386Z</time></trkpt><trkpt lat="44.6915973" lon="15.9000833"><ele>903.1999999999999</ele><time>2026-04-27T11:23:19.387Z</time></trkpt><trkpt lat="44.691697" lon="15.9001643"><ele>904.5999999999999</ele><time>2026-04-27T11:23:20.386Z</time></trkpt><trkpt lat="44.6917993" lon="15.900229"><ele>906.0</ele><time>2026-04-27T11:23:21.386Z</time></trkpt><trkpt lat="44.6919024" lon="15.9003144"><ele>902.0</ele><time>2026-04-27T11:23:22.386Z</time></trkpt><trkpt lat="44.6920329" lon="15.9004049"><ele>898.0</ele><time>2026-04-27T11:23:23.386Z</time></trkpt><trkpt lat="44.6921611" lon="15.9005028"><ele>894.0</ele><time>2026-04-27T11:23:24.386Z</time></trkpt><trkpt lat="44.6922789" lon="15.9005822"><ele>890.0</ele><time>2026-04-27T11:23:25.386Z</time></trkpt><trkpt lat="44.6923919" lon="15.9006681"><ele>890.0</ele><time>2026-04-27T11:23:26.386Z</time></trkpt><trkpt lat="44.6925454" lon="15.9007038"><ele>890.0</ele><time>2026-04-27T11:23:27.386Z</time></trkpt><trkpt lat="44.692643" lon="15.9007616"><ele>890.0</ele><time>2026-04-27T11:23:28.386Z</time></trkpt><trkpt lat="44.6927526" lon="15.9008407"><ele>890.0</ele><time>2026-04-27T11:23:29.387Z</time></trkpt><trkpt lat="44.6928303" lon="15.9009009"><ele>887.4</ele><time>2026-04-27T11:23:30.386Z</time></trkpt><trkpt lat="44.6929131" lon="15.9009525"><ele>884.8</ele><time>2026-04-27T11:23:31.386Z</time></trkpt><trkpt lat="44.6930105" lon="15.9010185"><ele>882.2</ele><time>2026-04-27T11:23:32.386Z</time></trkpt><trkpt lat="44.6931155" lon="15.9010566"><ele>879.6</ele><time>2026-04-27T11:23:33.386Z</time></trkpt><trkpt lat="44.6932273" lon="15.9010895"><ele>877.0</ele><time>2026-04-27T11:23:34.386Z</time></trkpt><trkpt lat="44.6933416" lon="15.9011075"><ele>877.0</ele><time>2026-04-27T11:23:35.386Z</time></trkpt><trkpt lat="44.6934604" lon="15.9011195"><ele>877.0</ele><time>2026-04-27T11:23:36.386Z</time></trkpt><trkpt lat="44.6935748" lon="15.9011351"><ele>877.0</ele><time>2026-04-27T11:23:37.386Z</time></trkpt><trkpt lat="44.6936837" lon="15.9011372"><ele>877.0</ele><time>2026-04-27T11:23:38.386Z</time></trkpt><trkpt lat="44.6937879" lon="15.9011653"><ele>877.0</ele><time>2026-04-27T11:23:39.386Z</time></trkpt><trkpt lat="44.6938547" lon="15.9012431"><ele>876.2</ele><time>2026-04-27T11:23:40.386Z</time></trkpt><trkpt lat="44.6939012" lon="15.9013758"><ele>875.4000000000001</ele><time>2026-04-27T11:23:41.387Z</time></trkpt><trkpt lat="44.69399" lon="15.9014888"><ele>874.5999999999999</ele><time>2026-04-27T11:23:42.386Z</time></trkpt><trkpt lat="44.6940425" lon="15.9015844"><ele>873.8</ele><time>2026-04-27T11:23:43.386Z</time></trkpt><trkpt lat="44.694104" lon="15.9016695"><ele>873.0</ele><time>2026-04-27T11:23:44.386Z</time></trkpt><trkpt lat="44.6941531" lon="15.9017665"><ele>873.0</ele><time>2026-04-27T11:23:45.386Z</time></trkpt><trkpt lat="44.6942388" lon="15.9017902"><ele>873.0</ele><time>2026-04-27T11:23:46.386Z</time></trkpt><trkpt lat="44.6943269" lon="15.9018531"><ele>873.0</ele><time>2026-04-27T11:23:47.386Z</time></trkpt><trkpt lat="44.6944372" lon="15.9019122"><ele>873.0</ele><time>2026-04-27T11:23:48.386Z</time></trkpt><trkpt lat="44.6945139" lon="15.9019585"><ele>873.0</ele><time>2026-04-27T11:23:49.386Z</time></trkpt><trkpt lat="44.6945725" lon="15.9020175"><ele>874.5999999999999</ele><time>2026-04-27T11:23:50.387Z</time></trkpt><trkpt lat="44.6946053" lon="15.9021048"><ele>876.1999999999999</ele><time>2026-04-27T11:23:51.386Z</time></trkpt><trkpt lat="44.6946498" lon="15.9022166"><ele>877.8</ele><time>2026-04-27T11:23:52.386Z</time></trkpt><trkpt lat="44.6946863" lon="15.902368"><ele>879.4</ele><time>2026-04-27T11:23:53.386Z</time></trkpt><trkpt lat="44.6947396" lon="15.9025399"><ele>881.0</ele><time>2026-04-27T11:23:54.386Z</time></trkpt><trkpt lat="44.6947906" lon="15.9027082"><ele>881.0</ele><time>2026-04-27T11:23:55.386Z</time></trkpt><trkpt lat="44.6948436" lon="15.9028782"><ele>881.0</ele><time>2026-04-27T11:23:56.386Z</time></trkpt><trkpt lat="44.694877" lon="15.903081"><ele>881.0</ele><time>2026-04-27T11:23:57.386Z</time></trkpt><trkpt lat="44.6949208" lon="15.903278"><ele>881.0</ele><time>2026-04-27T11:23:58.386Z</time></trkpt><trkpt lat="44.6949589" lon="15.9034664"><ele>879.25</ele><time>2026-04-27T11:23:59.386Z</time></trkpt><trkpt lat="44.6950193" lon="15.9036625"><ele>877.5</ele><time>2026-04-27T11:24:00.386Z</time></trkpt><trkpt lat="44.6950723" lon="15.9038316"><ele>875.75</ele><time>2026-04-27T11:24:01.386Z</time></trkpt><trkpt lat="44.6951177" lon="15.9039953"><ele>874.0</ele><time>2026-04-27T11:24:02.386Z</time></trkpt><trkpt lat="44.6951579" lon="15.9041679"><ele>872.75</ele><time>2026-04-27T11:24:03.386Z</time></trkpt><trkpt lat="44.6951695" lon="15.9043492"><ele>871.5</ele><time>2026-04-27T11:24:04.386Z</time></trkpt><trkpt lat="44.6951709" lon="15.9045268"><ele>870.25</ele><time>2026-04-27T11:24:05.386Z</time></trkpt><trkpt lat="44.6951881" lon="15.9046975"><ele>869.0</ele><time>2026-04-27T11:24:06.387Z</time></trkpt><trkpt lat="44.6952047" lon="15.9048445"><ele>869.0</ele><time>2026-04-27T11:24:07.387Z</time></trkpt><trkpt lat="44.6952124" lon="15.9049561"><ele>869.0000000000001</ele><time>2026-04-27T11:24:08.387Z</time></trkpt><trkpt lat="44.6952239" lon="15.9051199"><ele>869.0000000000001</ele><time>2026-04-27T11:24:09.387Z</time></trkpt><trkpt lat="44.6952979" lon="15.9052324"><ele>869.0</ele><time>2026-04-27T11:24:10.387Z</time></trkpt><trkpt lat="44.6953371" lon="15.9053599"><ele>869.0</ele><time>2026-04-27T11:24:11.386Z</time></trkpt><trkpt lat="44.6953634" lon="15.9054745"><ele>869.8333333333334</ele><time>2026-04-27T11:24:12.386Z</time></trkpt><trkpt lat="44.6953585" lon="15.9055644"><ele>870.6666666666667</ele><time>2026-04-27T11:24:13.386Z</time></trkpt><trkpt lat="44.6953669" lon="15.9056736"><ele>871.5</ele><time>2026-04-27T11:24:14.387Z</time></trkpt><trkpt lat="44.6953507" lon="15.9058303"><ele>872.3333333333333</ele><time>2026-04-27T11:24:16.386Z</time></trkpt><trkpt lat="44.6953439" lon="15.905977"><ele>873.1666666666666</ele><time>2026-04-27T11:24:18.386Z</time></trkpt><trkpt lat="44.6953446" lon="15.9060787"><ele>874.0</ele><time>2026-04-27T11:24:21.387Z</time></trkpt><trkpt lat="44.6953224" lon="15.9061905"><ele>872.0</ele><time>2026-04-27T11:24:49.386Z</time></trkpt><trkpt lat="44.6953587" lon="15.9063012"><ele>870.0000000000001</ele><time>2026-04-27T11:24:50.386Z</time></trkpt><trkpt lat="44.695407" lon="15.906432"><ele>868.0000000000001</ele><time>2026-04-27T11:24:51.386Z</time></trkpt><trkpt lat="44.6954703" lon="15.9065622"><ele>866.0</ele><time>2026-04-27T11:24:52.386Z</time></trkpt><trkpt lat="44.695525" lon="15.9066871"><ele>864.0</ele><time>2026-04-27T11:24:53.386Z</time></trkpt><trkpt lat="44.6955938" lon="15.9067646"><ele>861.6</ele><time>2026-04-27T11:24:54.387Z</time></trkpt><trkpt lat="44.6956569" lon="15.9068713"><ele>859.2</ele><time>2026-04-27T11:24:55.387Z</time></trkpt><trkpt lat="44.695744" lon="15.9069355"><ele>856.8000000000001</ele><time>2026-04-27T11:24:56.387Z</time></trkpt><trkpt lat="44.6958376" lon="15.9070129"><ele>854.4000000000001</ele><time>2026-04-27T11:24:57.387Z</time></trkpt><trkpt lat="44.6959594" lon="15.9070318"><ele>852.0</ele><time>2026-04-27T11:24:58.386Z</time></trkpt><trkpt lat="44.6960899" lon="15.9070586"><ele>850.75</ele><time>2026-04-27T11:24:59.386Z</time></trkpt><trkpt lat="44.6962083" lon="15.9071154"><ele>849.5</ele><time>2026-04-27T11:25:00.387Z</time></trkpt><trkpt lat="44.6963382" lon="15.9071175"><ele>848.25</ele><time>2026-04-27T11:25:01.386Z</time></trkpt><trkpt lat="44.6964607" lon="15.907113"><ele>847.0</ele><time>2026-04-27T11:25:02.386Z</time></trkpt><trkpt lat="44.69657" lon="15.9071161"><ele>847.0</ele><time>2026-04-27T11:25:03.386Z</time></trkpt><trkpt lat="44.6966755" lon="15.9071125"><ele>847.0</ele><time>2026-04-27T11:25:04.386Z</time></trkpt><trkpt lat="44.6967972" lon="15.9071"><ele>847.0</ele><time>2026-04-27T11:25:05.387Z</time></trkpt><trkpt lat="44.6969191" lon="15.9070792"><ele>847.0</ele><time>2026-04-27T11:25:06.386Z</time></trkpt><trkpt lat="44.6970346" lon="15.9070287"><ele>846.2</ele><time>2026-04-27T11:25:07.386Z</time></trkpt><trkpt lat="44.6971412" lon="15.906985"><ele>845.4000000000001</ele><time>2026-04-27T11:25:08.386Z</time></trkpt><trkpt lat="44.6972461" lon="15.9069474"><ele>844.5999999999999</ele><time>2026-04-27T11:25:09.386Z</time></trkpt><trkpt lat="44.6973512" lon="15.9069159"><ele>843.8</ele><time>2026-04-27T11:25:10.386Z</time></trkpt><trkpt lat="44.6974436" lon="15.9069041"><ele>843.0</ele><time>2026-04-27T11:25:11.386Z</time></trkpt><trkpt lat="44.6975373" lon="15.9068625"><ele>843.0</ele><time>2026-04-27T11:25:12.386Z</time></trkpt><trkpt lat="44.6976338" lon="15.9068375"><ele>843.0</ele><time>2026-04-27T11:25:13.386Z</time></trkpt><trkpt lat="44.6977369" lon="15.9067713"><ele>843.0</ele><time>2026-04-27T11:25:14.386Z</time></trkpt><trkpt lat="44.6978223" lon="15.9067091"><ele>843.0</ele><time>2026-04-27T11:25:15.386Z</time></trkpt><trkpt lat="44.697902" lon="15.9066522"><ele>843.0</ele><time>2026-04-27T11:25:16.386Z</time></trkpt><trkpt lat="44.6979726" lon="15.9065944"><ele>841.8</ele><time>2026-04-27T11:25:17.386Z</time></trkpt><trkpt lat="44.6980484" lon="15.9065814"><ele>840.5999999999999</ele><time>2026-04-27T11:25:18.386Z</time></trkpt><trkpt lat="44.698116" lon="15.9065939"><ele>839.4000000000001</ele><time>2026-04-27T11:25:19.386Z</time></trkpt><trkpt lat="44.6982126" lon="15.9066515"><ele>838.2</ele><time>2026-04-27T11:25:20.386Z</time></trkpt><trkpt lat="44.6983342" lon="15.9067091"><ele>837.0</ele><time>2026-04-27T11:25:21.387Z</time></trkpt><trkpt lat="44.6984446" lon="15.9068105"><ele>837.0</ele><time>2026-04-27T11:25:22.386Z</time></trkpt><trkpt lat="44.6985615" lon="15.9068838"><ele>837.0</ele><time>2026-04-27T11:25:23.386Z</time></trkpt><trkpt lat="44.6986742" lon="15.9069667"><ele>837.0</ele><time>2026-04-27T11:25:24.386Z</time></trkpt><trkpt lat="44.6987689" lon="15.9070463"><ele>837.0</ele><time>2026-04-27T11:25:25.386Z</time></trkpt><trkpt lat="44.6988867" lon="15.9070892"><ele>837.0</ele><time>2026-04-27T11:25:26.386Z</time></trkpt><trkpt lat="44.6989954" lon="15.9071383"><ele>837.0</ele><time>2026-04-27T11:25:27.386Z</time></trkpt><trkpt lat="44.6991104" lon="15.9071507"><ele>837.0</ele><time>2026-04-27T11:25:28.386Z</time></trkpt><trkpt lat="44.6992394" lon="15.9071629"><ele>837.0</ele><time>2026-04-27T11:25:29.386Z</time></trkpt><trkpt lat="44.6993318" lon="15.907153"><ele>836.0</ele><time>2026-04-27T11:25:30.387Z</time></trkpt><trkpt lat="44.6994572" lon="15.9071476"><ele>835.0</ele><time>2026-04-27T11:25:31.387Z</time></trkpt><trkpt lat="44.6995888" lon="15.9071444"><ele>834.0</ele><time>2026-04-27T11:25:32.387Z</time></trkpt><trkpt lat="44.699733" lon="15.9071131"><ele>833.0</ele><time>2026-04-27T11:25:33.387Z</time></trkpt><trkpt lat="44.6998906" lon="15.9070539"><ele>833.0</ele><time>2026-04-27T11:25:34.386Z</time></trkpt><trkpt lat="44.7000173" lon="15.9070256"><ele>833.0</ele><time>2026-04-27T11:25:35.386Z</time></trkpt><trkpt lat="44.7001509" lon="15.9069804"><ele>833.0</ele><time>2026-04-27T11:25:36.386Z</time></trkpt><trkpt lat="44.700284" lon="15.9069441"><ele>833.0</ele><time>2026-04-27T11:25:37.386Z</time></trkpt><trkpt lat="44.7004182" lon="15.9069422"><ele>832.25</ele><time>2026-04-27T11:25:38.386Z</time></trkpt><trkpt lat="44.7005609" lon="15.9069441"><ele>831.5</ele><time>2026-04-27T11:25:39.387Z</time></trkpt><trkpt lat="44.7007306" lon="15.9069852"><ele>830.75</ele><time>2026-04-27T11:25:40.387Z</time></trkpt><trkpt lat="44.7008597" lon="15.9070153"><ele>830.0</ele><time>2026-04-27T11:25:41.387Z</time></trkpt><trkpt lat="44.7009971" lon="15.9070695"><ele>829.0</ele><time>2026-04-27T11:25:42.386Z</time></trkpt><trkpt lat="44.7011328" lon="15.9071424"><ele>828.0</ele><time>2026-04-27T11:25:43.386Z</time></trkpt><trkpt lat="44.7012649" lon="15.9072437"><ele>827.0</ele><time>2026-04-27T11:25:44.386Z</time></trkpt><trkpt lat="44.7013968" lon="15.90737"><ele>827.0</ele><time>2026-04-27T11:25:45.386Z</time></trkpt><trkpt lat="44.7015104" lon="15.9074946"><ele>827.0</ele><time>2026-04-27T11:25:46.386Z</time></trkpt><trkpt lat="44.7016158" lon="15.9075976"><ele>827.0</ele><time>2026-04-27T11:25:47.386Z</time></trkpt><trkpt lat="44.701701" lon="15.9077214"><ele>827.0</ele><time>2026-04-27T11:25:48.386Z</time></trkpt><trkpt lat="44.70179" lon="15.9078553"><ele>828.0</ele><time>2026-04-27T11:25:49.386Z</time></trkpt><trkpt lat="44.7018734" lon="15.908025"><ele>829.0</ele><time>2026-04-27T11:25:50.386Z</time></trkpt><trkpt lat="44.7019472" lon="15.908226"><ele>830.0</ele><time>2026-04-27T11:25:51.386Z</time></trkpt><trkpt lat="44.7020214" lon="15.9084063"><ele>827.6666666666667</ele><time>2026-04-27T11:25:52.386Z</time></trkpt><trkpt lat="44.7020972" lon="15.9086052"><ele>825.3333333333333</ele><time>2026-04-27T11:25:53.387Z</time></trkpt><trkpt lat="44.7021749" lon="15.9088013"><ele>823.0</ele><time>2026-04-27T11:25:54.386Z</time></trkpt><trkpt lat="44.7022322" lon="15.9090165"><ele>823.0</ele><time>2026-04-27T11:25:55.386Z</time></trkpt><trkpt lat="44.7022777" lon="15.9092406"><ele>823.0</ele><time>2026-04-27T11:25:56.386Z</time></trkpt><trkpt lat="44.7023214" lon="15.9094667"><ele>823.0</ele><time>2026-04-27T11:25:57.387Z</time></trkpt><trkpt lat="44.7023597" lon="15.9097014"><ele>821.0</ele><time>2026-04-27T11:25:58.387Z</time></trkpt><trkpt lat="44.7023899" lon="15.9099349"><ele>819.0</ele><time>2026-04-27T11:25:59.387Z</time></trkpt><trkpt lat="44.7024061" lon="15.9101801"><ele>817.0</ele><time>2026-04-27T11:26:00.386Z</time></trkpt><trkpt lat="44.7024278" lon="15.9104104"><ele>816.6666666666666</ele><time>2026-04-27T11:26:01.386Z</time></trkpt><trkpt lat="44.702455" lon="15.9106439"><ele>816.3333333333333</ele><time>2026-04-27T11:26:02.386Z</time></trkpt><trkpt lat="44.7024849" lon="15.9108756"><ele>816.0</ele><time>2026-04-27T11:26:03.386Z</time></trkpt><trkpt lat="44.7025129" lon="15.9110826"><ele>814.75</ele><time>2026-04-27T11:26:04.386Z</time></trkpt><trkpt lat="44.7025375" lon="15.911269"><ele>813.5</ele><time>2026-04-27T11:26:05.386Z</time></trkpt><trkpt lat="44.7025576" lon="15.9114407"><ele>812.25</ele><time>2026-04-27T11:26:06.386Z</time></trkpt><trkpt lat="44.7025761" lon="15.9115983"><ele>811.0</ele><time>2026-04-27T11:26:07.386Z</time></trkpt><trkpt lat="44.7026068" lon="15.9117506"><ele>810.1999999999999</ele><time>2026-04-27T11:26:08.386Z</time></trkpt><trkpt lat="44.7026525" lon="15.9118948"><ele>809.4</ele><time>2026-04-27T11:26:09.387Z</time></trkpt><trkpt lat="44.7027219" lon="15.9120048"><ele>808.6</ele><time>2026-04-27T11:26:10.386Z</time></trkpt><trkpt lat="44.7027964" lon="15.9121073"><ele>807.8</ele><time>2026-04-27T11:26:11.386Z</time></trkpt><trkpt lat="44.7028712" lon="15.9121958"><ele>807.0</ele><time>2026-04-27T11:26:12.387Z</time></trkpt><trkpt lat="44.7029442" lon="15.9122515"><ele>807.0</ele><time>2026-04-27T11:26:13.386Z</time></trkpt><trkpt lat="44.7030025" lon="15.9123415"><ele>807.0</ele><time>2026-04-27T11:26:15.386Z</time></trkpt><trkpt lat="44.7029371" lon="15.912372"><ele>807.0</ele><time>2026-04-27T11:26:17.387Z</time></trkpt><trkpt lat="44.7028298" lon="15.9123116"><ele>807.0</ele><time>2026-04-27T11:26:19.387Z</time></trkpt><trkpt lat="44.7027594" lon="15.9122588"><ele>807.0</ele><time>2026-04-27T11:26:20.386Z</time></trkpt><trkpt lat="44.7026462" lon="15.9121919"><ele>804.75</ele><time>2026-04-27T11:26:21.387Z</time></trkpt><trkpt lat="44.7025216" lon="15.9121328"><ele>802.5</ele><time>2026-04-27T11:26:22.386Z</time></trkpt><trkpt lat="44.702394" lon="15.9120633"><ele>800.25</ele><time>2026-04-27T11:26:23.386Z</time></trkpt><trkpt lat="44.7022675" lon="15.9119827"><ele>798.0</ele><time>2026-04-27T11:26:24.386Z</time></trkpt><trkpt lat="44.7021513" lon="15.9118926"><ele>798.0</ele><time>2026-04-27T11:26:25.386Z</time></trkpt><trkpt lat="44.7020378" lon="15.9118087"><ele>798.0</ele><time>2026-04-27T11:26:26.386Z</time></trkpt><trkpt lat="44.7019129" lon="15.9117187"><ele>798.0</ele><time>2026-04-27T11:26:27.386Z</time></trkpt><trkpt lat="44.7017978" lon="15.9116259"><ele>798.0</ele><time>2026-04-27T11:26:28.386Z</time></trkpt><trkpt lat="44.7016939" lon="15.9115306"><ele>797.5</ele><time>2026-04-27T11:26:29.387Z</time></trkpt><trkpt lat="44.7016028" lon="15.9114425"><ele>797.0</ele><time>2026-04-27T11:26:30.386Z</time></trkpt><trkpt lat="44.7015158" lon="15.9113476"><ele>796.5</ele><time>2026-04-27T11:26:31.386Z</time></trkpt><trkpt lat="44.701444" lon="15.9112268"><ele>796.0</ele><time>2026-04-27T11:26:32.387Z</time></trkpt><trkpt lat="44.7013738" lon="15.9110803"><ele>796.0</ele><time>2026-04-27T11:26:33.386Z</time></trkpt><trkpt lat="44.7013172" lon="15.9109444"><ele>796.0</ele><time>2026-04-27T11:26:34.386Z</time></trkpt><trkpt lat="44.7012538" lon="15.910841"><ele>796.0</ele><time>2026-04-27T11:26:35.387Z</time></trkpt><trkpt lat="44.7011847" lon="15.9107706"><ele>796.0</ele><time>2026-04-27T11:26:36.386Z</time></trkpt><trkpt lat="44.7010992" lon="15.9107238"><ele>796.0</ele><time>2026-04-27T11:26:37.386Z</time></trkpt><trkpt lat="44.7009919" lon="15.9106922"><ele>794.5</ele><time>2026-04-27T11:26:38.386Z</time></trkpt><trkpt lat="44.7008727" lon="15.9106864"><ele>793.0</ele><time>2026-04-27T11:26:39.386Z</time></trkpt><trkpt lat="44.7007524" lon="15.9107074"><ele>791.5</ele><time>2026-04-27T11:26:40.386Z</time></trkpt><trkpt lat="44.7006385" lon="15.9107331"><ele>790.0</ele><time>2026-04-27T11:26:41.386Z</time></trkpt><trkpt lat="44.7004918" lon="15.9107839"><ele>790.0</ele><time>2026-04-27T11:26:42.386Z</time></trkpt><trkpt lat="44.7003332" lon="15.9108435"><ele>790.0</ele><time>2026-04-27T11:26:43.386Z</time></trkpt><trkpt lat="44.7001677" lon="15.9109073"><ele>790.0</ele><time>2026-04-27T11:26:44.387Z</time></trkpt><trkpt lat="44.7000125" lon="15.9109761"><ele>787.5</ele><time>2026-04-27T11:26:45.387Z</time></trkpt><trkpt lat="44.6998709" lon="15.9110503"><ele>785.0</ele><time>2026-04-27T11:26:46.386Z</time></trkpt><trkpt lat="44.6997393" lon="15.9111267"><ele>782.5</ele><time>2026-04-27T11:26:47.386Z</time></trkpt><trkpt lat="44.6996021" lon="15.9111892"><ele>780.0</ele><time>2026-04-27T11:26:48.386Z</time></trkpt><trkpt lat="44.6994824" lon="15.9112587"><ele>778.75</ele><time>2026-04-27T11:26:49.387Z</time></trkpt><trkpt lat="44.6993785" lon="15.911321"><ele>777.5</ele><time>2026-04-27T11:26:50.386Z</time></trkpt><trkpt lat="44.6992634" lon="15.9113781"><ele>776.25</ele><time>2026-04-27T11:26:51.386Z</time></trkpt><trkpt lat="44.6991548" lon="15.9114137"><ele>775.0</ele><time>2026-04-27T11:26:52.386Z</time></trkpt><trkpt lat="44.6990435" lon="15.9114399"><ele>774.9999999999999</ele><time>2026-04-27T11:26:53.386Z</time></trkpt><trkpt lat="44.698935" lon="15.911444"><ele>775.0</ele><time>2026-04-27T11:26:54.386Z</time></trkpt><trkpt lat="44.6988567" lon="15.9114266"><ele>775.0</ele><time>2026-04-27T11:26:55.386Z</time></trkpt><trkpt lat="44.6987785" lon="15.9113923"><ele>775.0</ele><time>2026-04-27T11:26:56.386Z</time></trkpt><trkpt lat="44.6987021" lon="15.9113357"><ele>774.9999999999999</ele><time>2026-04-27T11:26:57.386Z</time></trkpt><trkpt lat="44.6986423" lon="15.9112567"><ele>775.0</ele><time>2026-04-27T11:26:58.386Z</time></trkpt><trkpt lat="44.6985845" lon="15.9111873"><ele>774.1666666666666</ele><time>2026-04-27T11:26:59.386Z</time></trkpt><trkpt lat="44.6985269" lon="15.911132"><ele>773.3333333333333</ele><time>2026-04-27T11:27:00.386Z</time></trkpt><trkpt lat="44.6984551" lon="15.9110969"><ele>772.5</ele><time>2026-04-27T11:27:01.386Z</time></trkpt><trkpt lat="44.6983837" lon="15.9110917"><ele>771.6666666666667</ele><time>2026-04-27T11:27:02.386Z</time></trkpt><trkpt lat="44.6982983" lon="15.9111198"><ele>770.8333333333334</ele><time>2026-04-27T11:27:03.387Z</time></trkpt><trkpt lat="44.698193" lon="15.9112245"><ele>770.0</ele><time>2026-04-27T11:27:04.386Z</time></trkpt><trkpt lat="44.6981038" lon="15.9113352"><ele>770.0000000000001</ele><time>2026-04-27T11:27:05.386Z</time></trkpt><trkpt lat="44.6980195" lon="15.9114251"><ele>770.0</ele><time>2026-04-27T11:27:06.386Z</time></trkpt><trkpt lat="44.697947" lon="15.9114921"><ele>770.0</ele><time>2026-04-27T11:27:07.386Z</time></trkpt><trkpt lat="44.6978818" lon="15.9115506"><ele>770.0</ele><time>2026-04-27T11:27:08.387Z</time></trkpt><trkpt lat="44.6978213" lon="15.9115843"><ele>770.0000000000001</ele><time>2026-04-27T11:27:09.386Z</time></trkpt><trkpt lat="44.6977583" lon="15.9116157"><ele>770.0</ele><time>2026-04-27T11:27:10.386Z</time></trkpt><trkpt lat="44.6976917" lon="15.9116482"><ele>769.4</ele><time>2026-04-27T11:27:11.386Z</time></trkpt><trkpt lat="44.6976115" lon="15.9116858"><ele>768.8</ele><time>2026-04-27T11:27:12.386Z</time></trkpt><trkpt lat="44.6974946" lon="15.9117233"><ele>768.2</ele><time>2026-04-27T11:27:13.387Z</time></trkpt><trkpt lat="44.6973787" lon="15.911758"><ele>767.6</ele><time>2026-04-27T11:27:14.386Z</time></trkpt><trkpt lat="44.6972848" lon="15.9117697"><ele>767.0</ele><time>2026-04-27T11:27:15.386Z</time></trkpt><trkpt lat="44.6972052" lon="15.9117652"><ele>767.0</ele><time>2026-04-27T11:27:16.386Z</time></trkpt><trkpt lat="44.6971281" lon="15.9117616"><ele>767.0</ele><time>2026-04-27T11:27:17.386Z</time></trkpt><trkpt lat="44.6970626" lon="15.9117326"><ele>767.0</ele><time>2026-04-27T11:27:18.386Z</time></trkpt><trkpt lat="44.6969921" lon="15.911683"><ele>767.0</ele><time>2026-04-27T11:27:19.386Z</time></trkpt><trkpt lat="44.6969016" lon="15.9115978"><ele>767.0</ele><time>2026-04-27T11:27:20.387Z</time></trkpt><trkpt lat="44.6968257" lon="15.9115458"><ele>767.0</ele><time>2026-04-27T11:27:21.386Z</time></trkpt><trkpt lat="44.6967527" lon="15.9115039"><ele>765.8</ele><time>2026-04-27T11:27:22.386Z</time></trkpt><trkpt lat="44.6966851" lon="15.9115193"><ele>764.6</ele><time>2026-04-27T11:27:23.387Z</time></trkpt><trkpt lat="44.6966177" lon="15.9115897"><ele>763.4</ele><time>2026-04-27T11:27:24.387Z</time></trkpt><trkpt lat="44.6965297" lon="15.9116769"><ele>762.1999999999999</ele><time>2026-04-27T11:27:25.387Z</time></trkpt><trkpt lat="44.696452" lon="15.91176"><ele>761.0</ele><time>2026-04-27T11:27:26.386Z</time></trkpt><trkpt lat="44.6963595" lon="15.9118433"><ele>758.0</ele><time>2026-04-27T11:27:27.386Z</time></trkpt><trkpt lat="44.6962429" lon="15.9119037"><ele>755.0</ele><time>2026-04-27T11:27:28.386Z</time></trkpt><trkpt lat="44.6961435" lon="15.9119884"><ele>752.0</ele><time>2026-04-27T11:27:29.387Z</time></trkpt><trkpt lat="44.6960421" lon="15.9120873"><ele>749.0</ele><time>2026-04-27T11:27:30.386Z</time></trkpt><trkpt lat="44.6959295" lon="15.91219"><ele>748.8000000000001</ele><time>2026-04-27T11:27:31.386Z</time></trkpt><trkpt lat="44.6958243" lon="15.912278"><ele>748.6</ele><time>2026-04-27T11:27:32.387Z</time></trkpt><trkpt lat="44.6957308" lon="15.9123504"><ele>748.4</ele><time>2026-04-27T11:27:33.386Z</time></trkpt><trkpt lat="44.6956285" lon="15.9123888"><ele>748.2</ele><time>2026-04-27T11:27:34.386Z</time></trkpt><trkpt lat="44.6955213" lon="15.9124301"><ele>748.0</ele><time>2026-04-27T11:27:35.386Z</time></trkpt><trkpt lat="44.6953883" lon="15.9124767"><ele>748.0</ele><time>2026-04-27T11:27:36.386Z</time></trkpt><trkpt lat="44.6952648" lon="15.9125187"><ele>748.0</ele><time>2026-04-27T11:27:37.386Z</time></trkpt><trkpt lat="44.6951504" lon="15.9125763"><ele>748.0</ele><time>2026-04-27T11:27:38.386Z</time></trkpt><trkpt lat="44.6950799" lon="15.9126479"><ele>748.0</ele><time>2026-04-27T11:27:39.386Z</time></trkpt><trkpt lat="44.6949869" lon="15.9127451"><ele>746.25</ele><time>2026-04-27T11:27:40.387Z</time></trkpt><trkpt lat="44.6949386" lon="15.9129347"><ele>744.5</ele><time>2026-04-27T11:27:41.386Z</time></trkpt><trkpt lat="44.6948736" lon="15.9131066"><ele>742.75</ele><time>2026-04-27T11:27:42.387Z</time></trkpt><trkpt lat="44.6948154" lon="15.9132871"><ele>741.0</ele><time>2026-04-27T11:27:43.387Z</time></trkpt><trkpt lat="44.6947707" lon="15.9134517"><ele>739.4</ele><time>2026-04-27T11:27:44.387Z</time></trkpt><trkpt lat="44.6947241" lon="15.9136258"><ele>737.8</ele><time>2026-04-27T11:27:45.386Z</time></trkpt><trkpt lat="44.6946708" lon="15.9137361"><ele>736.1999999999999</ele><time>2026-04-27T11:27:46.386Z</time></trkpt><trkpt lat="44.6945987" lon="15.9138331"><ele>734.5999999999999</ele><time>2026-04-27T11:27:47.387Z</time></trkpt><trkpt lat="44.6945077" lon="15.9138989"><ele>733.0</ele><time>2026-04-27T11:27:48.386Z</time></trkpt><trkpt lat="44.6944349" lon="15.9139852"><ele>734.0</ele><time>2026-04-27T11:27:49.387Z</time></trkpt><trkpt lat="44.6943292" lon="15.9140821"><ele>735.0</ele><time>2026-04-27T11:27:50.386Z</time></trkpt><trkpt lat="44.6942305" lon="15.9141938"><ele>736.0</ele><time>2026-04-27T11:27:51.386Z</time></trkpt><trkpt lat="44.6941223" lon="15.9143115"><ele>737.0</ele><time>2026-04-27T11:27:52.386Z</time></trkpt><trkpt lat="44.6940085" lon="15.9144368"><ele>734.75</ele><time>2026-04-27T11:27:53.386Z</time></trkpt><trkpt lat="44.6938816" lon="15.9145816"><ele>732.5</ele><time>2026-04-27T11:27:54.386Z</time></trkpt><trkpt lat="44.6937672" lon="15.9146931"><ele>730.25</ele><time>2026-04-27T11:27:55.386Z</time></trkpt><trkpt lat="44.6936461" lon="15.9148061"><ele>728.0</ele><time>2026-04-27T11:27:56.387Z</time></trkpt><trkpt lat="44.6935247" lon="15.9149234"><ele>728.0</ele><time>2026-04-27T11:27:57.386Z</time></trkpt><trkpt lat="44.6934" lon="15.9150411"><ele>728.0</ele><time>2026-04-27T11:27:58.387Z</time></trkpt><trkpt lat="44.6932717" lon="15.9151472"><ele>728.0</ele><time>2026-04-27T11:27:59.386Z</time></trkpt><trkpt lat="44.693142" lon="15.9152518"><ele>728.0</ele><time>2026-04-27T11:28:00.386Z</time></trkpt><trkpt lat="44.6930044" lon="15.9153543"><ele>726.25</ele><time>2026-04-27T11:28:01.386Z</time></trkpt><trkpt lat="44.6928709" lon="15.9154518"><ele>724.5</ele><time>2026-04-27T11:28:02.386Z</time></trkpt><trkpt lat="44.6927535" lon="15.9155338"><ele>722.75</ele><time>2026-04-27T11:28:03.387Z</time></trkpt><trkpt lat="44.6926322" lon="15.9156015"><ele>721.0</ele><time>2026-04-27T11:28:04.387Z</time></trkpt><trkpt lat="44.6924959" lon="15.9156769"><ele>721.0</ele><time>2026-04-27T11:28:05.386Z</time></trkpt><trkpt lat="44.69237" lon="15.9157591"><ele>721.0</ele><time>2026-04-27T11:28:06.386Z</time></trkpt><trkpt lat="44.6922497" lon="15.9158408"><ele>721.0</ele><time>2026-04-27T11:28:07.386Z</time></trkpt><trkpt lat="44.6921342" lon="15.9159295"><ele>721.0</ele><time>2026-04-27T11:28:08.386Z</time></trkpt><trkpt lat="44.6920148" lon="15.9160382"><ele>718.5999999999999</ele><time>2026-04-27T11:28:09.386Z</time></trkpt><trkpt lat="44.691896" lon="15.9161478"><ele>716.2</ele><time>2026-04-27T11:28:10.386Z</time></trkpt><trkpt lat="44.6917974" lon="15.9162331"><ele>713.8</ele><time>2026-04-27T11:28:11.387Z</time></trkpt><trkpt lat="44.6917142" lon="15.9163043"><ele>711.4000000000001</ele><time>2026-04-27T11:28:12.386Z</time></trkpt><trkpt lat="44.6916523" lon="15.9163431"><ele>709.0</ele><time>2026-04-27T11:28:13.386Z</time></trkpt><trkpt lat="44.6915733" lon="15.916391"><ele>709.0</ele><time>2026-04-27T11:28:15.386Z</time></trkpt><trkpt lat="44.691537" lon="15.9163168"><ele>709.0</ele><time>2026-04-27T11:28:20.386Z</time></trkpt><trkpt lat="44.6914607" lon="15.9162396"><ele>709.0</ele><time>2026-04-27T11:28:29.387Z</time></trkpt><trkpt lat="44.6913747" lon="15.9162816"><ele>709.0</ele><time>2026-04-27T11:28:31.386Z</time></trkpt><trkpt lat="44.6913003" lon="15.9163237"><ele>709.0</ele><time>2026-04-27T11:28:32.386Z</time></trkpt><trkpt lat="44.6911851" lon="15.9163657"><ele>709.0</ele><time>2026-04-27T11:28:33.387Z</time></trkpt><trkpt lat="44.691081" lon="15.916408"><ele>709.75</ele><time>2026-04-27T11:28:34.386Z</time></trkpt><trkpt lat="44.6909405" lon="15.9164048"><ele>710.5</ele><time>2026-04-27T11:28:35.387Z</time></trkpt><trkpt lat="44.6908282" lon="15.9164122"><ele>711.25</ele><time>2026-04-27T11:28:36.387Z</time></trkpt><trkpt lat="44.6906998" lon="15.9164259"><ele>712.0</ele><time>2026-04-27T11:28:37.386Z</time></trkpt><trkpt lat="44.6905656" lon="15.9164411"><ele>712.0</ele><time>2026-04-27T11:28:38.386Z</time></trkpt><trkpt lat="44.6904297" lon="15.9164523"><ele>712.0</ele><time>2026-04-27T11:28:39.386Z</time></trkpt><trkpt lat="44.6902948" lon="15.9164353"><ele>712.0</ele><time>2026-04-27T11:28:40.386Z</time></trkpt><trkpt lat="44.6901741" lon="15.9164419"><ele>712.0</ele><time>2026-04-27T11:28:41.386Z</time></trkpt><trkpt lat="44.6900396" lon="15.9164437"><ele>713.4000000000001</ele><time>2026-04-27T11:28:42.386Z</time></trkpt><trkpt lat="44.6899472" lon="15.9164229"><ele>714.8000000000001</ele><time>2026-04-27T11:28:43.386Z</time></trkpt><trkpt lat="44.6898378" lon="15.9164113"><ele>716.2</ele><time>2026-04-27T11:28:44.386Z</time></trkpt><trkpt lat="44.6897268" lon="15.9163844"><ele>717.6</ele><time>2026-04-27T11:28:45.386Z</time></trkpt><trkpt lat="44.6896019" lon="15.9163623"><ele>719.0</ele><time>2026-04-27T11:28:46.386Z</time></trkpt><trkpt lat="44.6894767" lon="15.9163151"><ele>720.25</ele><time>2026-04-27T11:28:47.386Z</time></trkpt><trkpt lat="44.6893593" lon="15.9162719"><ele>721.5</ele><time>2026-04-27T11:28:48.387Z</time></trkpt><trkpt lat="44.6892375" lon="15.9162252"><ele>722.75</ele><time>2026-04-27T11:28:49.387Z</time></trkpt><trkpt lat="44.6891064" lon="15.9161753"><ele>724.0</ele><time>2026-04-27T11:28:50.386Z</time></trkpt><trkpt lat="44.688986" lon="15.9161214"><ele>724.0</ele><time>2026-04-27T11:28:51.386Z</time></trkpt><trkpt lat="44.6888863" lon="15.9160755"><ele>724.0</ele><time>2026-04-27T11:28:52.386Z</time></trkpt><trkpt lat="44.6888082" lon="15.9160524"><ele>724.0</ele><time>2026-04-27T11:28:53.386Z</time></trkpt><trkpt lat="44.6887112" lon="15.9160224"><ele>724.0</ele><time>2026-04-27T11:28:54.386Z</time></trkpt><trkpt lat="44.6886232" lon="15.9160281"><ele>724.0</ele><time>2026-04-27T11:28:55.386Z</time></trkpt><trkpt lat="44.6885151" lon="15.9160371"><ele>725.75</ele><time>2026-04-27T11:28:56.386Z</time></trkpt><trkpt lat="44.6884147" lon="15.9160913"><ele>727.5</ele><time>2026-04-27T11:28:57.387Z</time></trkpt><trkpt lat="44.6883022" lon="15.9161429"><ele>729.25</ele><time>2026-04-27T11:28:58.386Z</time></trkpt><trkpt lat="44.6881944" lon="15.9161993"><ele>731.0</ele><time>2026-04-27T11:28:59.386Z</time></trkpt><trkpt lat="44.6880792" lon="15.9162276"><ele>731.0</ele><time>2026-04-27T11:29:00.387Z</time></trkpt><trkpt lat="44.6879736" lon="15.9162445"><ele>731.0</ele><time>2026-04-27T11:29:01.386Z</time></trkpt><trkpt lat="44.6878635" lon="15.9162728"><ele>731.0</ele><time>2026-04-27T11:29:02.386Z</time></trkpt><trkpt lat="44.6877516" lon="15.9162827"><ele>731.0</ele><time>2026-04-27T11:29:03.386Z</time></trkpt><trkpt lat="44.6876318" lon="15.9162985"><ele>733.5999999999999</ele><time>2026-04-27T11:29:04.386Z</time></trkpt><trkpt lat="44.6875526" lon="15.9163476"><ele>736.2</ele><time>2026-04-27T11:29:05.386Z</time></trkpt><trkpt lat="44.6874306" lon="15.916397"><ele>738.8</ele><time>2026-04-27T11:29:06.387Z</time></trkpt><trkpt lat="44.6873301" lon="15.9164608"><ele>741.4000000000001</ele><time>2026-04-27T11:29:07.387Z</time></trkpt><trkpt lat="44.687215" lon="15.9165103"><ele>744.0</ele><time>2026-04-27T11:29:08.387Z</time></trkpt><trkpt lat="44.6870656" lon="15.9165941"><ele>744.0</ele><time>2026-04-27T11:29:09.386Z</time></trkpt><trkpt lat="44.6869549" lon="15.9166331"><ele>744.0</ele><time>2026-04-27T11:29:10.386Z</time></trkpt><trkpt lat="44.6868157" lon="15.9166867"><ele>744.0</ele><time>2026-04-27T11:29:11.386Z</time></trkpt><trkpt lat="44.6867212" lon="15.9167621"><ele>744.0</ele><time>2026-04-27T11:29:12.386Z</time></trkpt><trkpt lat="44.6866242" lon="15.9168221"><ele>745.2</ele><time>2026-04-27T11:29:13.387Z</time></trkpt><trkpt lat="44.6865238" lon="15.9169116"><ele>746.4000000000001</ele><time>2026-04-27T11:29:14.387Z</time></trkpt><trkpt lat="44.6864819" lon="15.917042"><ele>747.6</ele><time>2026-04-27T11:29:15.386Z</time></trkpt><trkpt lat="44.6864293" lon="15.9171751"><ele>748.8</ele><time>2026-04-27T11:29:16.387Z</time></trkpt><trkpt lat="44.6863747" lon="15.9172859"><ele>750.0</ele><time>2026-04-27T11:29:17.387Z</time></trkpt><trkpt lat="44.6863435" lon="15.9174361"><ele>748.8</ele><time>2026-04-27T11:29:18.386Z</time></trkpt><trkpt lat="44.6862993" lon="15.9175766"><ele>747.6</ele><time>2026-04-27T11:29:19.387Z</time></trkpt><trkpt lat="44.6862734" lon="15.9177187"><ele>746.4000000000001</ele><time>2026-04-27T11:29:20.386Z</time></trkpt><trkpt lat="44.6862317" lon="15.9178321"><ele>745.2</ele><time>2026-04-27T11:29:21.386Z</time></trkpt><trkpt lat="44.6862061" lon="15.9179603"><ele>744.0</ele><time>2026-04-27T11:29:22.387Z</time></trkpt><trkpt lat="44.6861303" lon="15.9180576"><ele>747.3333333333334</ele><time>2026-04-27T11:29:23.386Z</time></trkpt><trkpt lat="44.6860855" lon="15.9181431"><ele>750.6666666666666</ele><time>2026-04-27T11:29:24.386Z</time></trkpt><trkpt lat="44.686015" lon="15.9182186"><ele>754.0</ele><time>2026-04-27T11:29:25.387Z</time></trkpt><trkpt lat="44.6859327" lon="15.9182807"><ele>757.3333333333333</ele><time>2026-04-27T11:29:26.387Z</time></trkpt><trkpt lat="44.6858332" lon="15.9183066"><ele>760.6666666666666</ele><time>2026-04-27T11:29:27.386Z</time></trkpt><trkpt lat="44.6857512" lon="15.9183461"><ele>764.0</ele><time>2026-04-27T11:29:28.386Z</time></trkpt><trkpt lat="44.6856764" lon="15.9183906"><ele>764.1666666666666</ele><time>2026-04-27T11:29:29.386Z</time></trkpt><trkpt lat="44.6856193" lon="15.918435"><ele>764.3333333333333</ele><time>2026-04-27T11:29:30.386Z</time></trkpt><trkpt lat="44.6855424" lon="15.9185062"><ele>764.5</ele><time>2026-04-27T11:29:31.386Z</time></trkpt><trkpt lat="44.6854512" lon="15.918565"><ele>764.6666666666666</ele><time>2026-04-27T11:29:32.386Z</time></trkpt><trkpt lat="44.6853784" lon="15.9186043"><ele>764.8333333333334</ele><time>2026-04-27T11:29:33.387Z</time></trkpt><trkpt lat="44.6853032" lon="15.9186148"><ele>765.0</ele><time>2026-04-27T11:29:34.386Z</time></trkpt><trkpt lat="44.6852337" lon="15.9186"><ele>765.0</ele><time>2026-04-27T11:29:35.386Z</time></trkpt><trkpt lat="44.6851061" lon="15.9185555"><ele>765.0</ele><time>2026-04-27T11:29:37.386Z</time></trkpt><trkpt lat="44.6850324" lon="15.9185483"><ele>765.0</ele><time>2026-04-27T11:29:39.386Z</time></trkpt><trkpt lat="44.6849503" lon="15.9185263"><ele>765.0</ele><time>2026-04-27T11:29:41.386Z</time></trkpt><trkpt lat="44.6848837" lon="15.9184864"><ele>765.0</ele><time>2026-04-27T11:29:43.387Z</time></trkpt><trkpt lat="44.684765" lon="15.9184979"><ele>765.0</ele><time>2026-04-27T11:30:08.387Z</time></trkpt><trkpt lat="44.6846774" lon="15.9184769"><ele>765.0</ele><time>2026-04-27T11:30:11.386Z</time></trkpt><trkpt lat="44.6846127" lon="15.9184588"><ele>765.0</ele><time>2026-04-27T11:31:41.387Z</time></trkpt><trkpt lat="44.6845271" lon="15.9184511"><ele>765.0</ele><time>2026-04-27T11:36:46.386Z</time></trkpt><trkpt lat="44.6844931" lon="15.9183438"><ele>765.0</ele><time>2026-04-27T11:36:48.387Z</time></trkpt><trkpt lat="44.684468" lon="15.9182046"><ele>765.0</ele><time>2026-04-27T11:36:50.387Z</time></trkpt><trkpt lat="44.6844764" lon="15.9181091"><ele>767.2</ele><time>2026-04-27T11:36:51.386Z</time></trkpt><trkpt lat="44.6844811" lon="15.9179958"><ele>769.4</ele><time>2026-04-27T11:36:52.387Z</time></trkpt><trkpt lat="44.6845134" lon="15.9178363"><ele>771.5999999999999</ele><time>2026-04-27T11:36:53.386Z</time></trkpt><trkpt lat="44.6845675" lon="15.9177365"><ele>773.8</ele><time>2026-04-27T11:36:55.387Z</time></trkpt><trkpt lat="44.6846541" lon="15.9176464"><ele>776.0</ele><time>2026-04-27T11:36:57.387Z</time></trkpt><trkpt lat="44.6847051" lon="15.9175825"><ele>776.0</ele><time>2026-04-27T11:36:58.386Z</time></trkpt><trkpt lat="44.6848059" lon="15.917734"><ele>776.0</ele><time>2026-04-27T11:37:00.386Z</time></trkpt><trkpt lat="44.6848773" lon="15.917764"><ele>776.0</ele><time>2026-04-27T11:37:01.386Z</time></trkpt><trkpt lat="44.684969" lon="15.9177394"><ele>776.0</ele><time>2026-04-27T11:37:03.386Z</time></trkpt><trkpt lat="44.6850526" lon="15.9175805"><ele>778.0</ele><time>2026-04-27T11:37:05.386Z</time></trkpt><trkpt lat="44.6850598" lon="15.9174627"><ele>780.0</ele><time>2026-04-27T11:37:06.386Z</time></trkpt><trkpt lat="44.6850491" lon="15.9172995"><ele>782.0</ele><time>2026-04-27T11:37:07.386Z</time></trkpt><trkpt lat="44.685031" lon="15.9171633"><ele>784.0</ele><time>2026-04-27T11:37:08.386Z</time></trkpt><trkpt lat="44.684999" lon="15.9170076"><ele>786.0</ele><time>2026-04-27T11:37:09.386Z</time></trkpt><trkpt lat="44.6849744" lon="15.9168759"><ele>786.0</ele><time>2026-04-27T11:37:10.386Z</time></trkpt><trkpt lat="44.6849415" lon="15.9167486"><ele>786.0</ele><time>2026-04-27T11:37:11.387Z</time></trkpt><trkpt lat="44.6849021" lon="15.9166194"><ele>786.0</ele><time>2026-04-27T11:37:12.386Z</time></trkpt><trkpt lat="44.6848426" lon="15.9164743"><ele>786.0</ele><time>2026-04-27T11:37:13.387Z</time></trkpt><trkpt lat="44.6847853" lon="15.9163586"><ele>786.0</ele><time>2026-04-27T11:37:14.386Z</time></trkpt><trkpt lat="44.6847146" lon="15.916229"><ele>787.4</ele><time>2026-04-27T11:37:15.386Z</time></trkpt><trkpt lat="44.6846491" lon="15.9161204"><ele>788.8</ele><time>2026-04-27T11:37:16.386Z</time></trkpt><trkpt lat="44.6846022" lon="15.916007"><ele>790.1999999999999</ele><time>2026-04-27T11:37:17.386Z</time></trkpt><trkpt lat="44.6845295" lon="15.9158869"><ele>791.5999999999999</ele><time>2026-04-27T11:37:18.386Z</time></trkpt><trkpt lat="44.6844696" lon="15.9157927"><ele>793.0</ele><time>2026-04-27T11:37:19.387Z</time></trkpt><trkpt lat="44.6844091" lon="15.9157303"><ele>795.0</ele><time>2026-04-27T11:37:20.386Z</time></trkpt><trkpt lat="44.6843335" lon="15.9156754"><ele>797.0</ele><time>2026-04-27T11:37:21.386Z</time></trkpt><trkpt lat="44.6842505" lon="15.9156419"><ele>799.0</ele><time>2026-04-27T11:37:22.386Z</time></trkpt><trkpt lat="44.6841599" lon="15.9155989"><ele>801.0</ele><time>2026-04-27T11:37:23.386Z</time></trkpt><trkpt lat="44.6840535" lon="15.9155791"><ele>803.0</ele><time>2026-04-27T11:37:24.386Z</time></trkpt><trkpt lat="44.6839688" lon="15.9155464"><ele>803.0</ele><time>2026-04-27T11:37:25.386Z</time></trkpt><trkpt lat="44.6838996" lon="15.9155264"><ele>803.0</ele><time>2026-04-27T11:37:26.386Z</time></trkpt><trkpt lat="44.6837982" lon="15.9154608"><ele>803.0</ele><time>2026-04-27T11:37:27.386Z</time></trkpt><trkpt lat="44.6837261" lon="15.9153759"><ele>803.0</ele><time>2026-04-27T11:37:28.386Z</time></trkpt><trkpt lat="44.6836432" lon="15.9152958"><ele>803.0</ele><time>2026-04-27T11:37:29.387Z</time></trkpt><trkpt lat="44.68357" lon="15.9151888"><ele>803.5999999999999</ele><time>2026-04-27T11:37:30.386Z</time></trkpt><trkpt lat="44.6834977" lon="15.9151011"><ele>804.1999999999999</ele><time>2026-04-27T11:37:31.386Z</time></trkpt><trkpt lat="44.6834394" lon="15.9149847"><ele>804.8</ele><time>2026-04-27T11:37:32.386Z</time></trkpt><trkpt lat="44.6833521" lon="15.9149078"><ele>805.4</ele><time>2026-04-27T11:37:33.387Z</time></trkpt><trkpt lat="44.6832722" lon="15.9148306"><ele>806.0</ele><time>2026-04-27T11:37:34.386Z</time></trkpt><trkpt lat="44.6831842" lon="15.9147738"><ele>807.5999999999999</ele><time>2026-04-27T11:37:35.386Z</time></trkpt><trkpt lat="44.6830802" lon="15.9146978"><ele>809.2</ele><time>2026-04-27T11:37:36.387Z</time></trkpt><trkpt lat="44.6829956" lon="15.9146371"><ele>810.8</ele><time>2026-04-27T11:37:37.386Z</time></trkpt><trkpt lat="44.6828854" lon="15.9145658"><ele>812.4000000000001</ele><time>2026-04-27T11:37:38.386Z</time></trkpt><trkpt lat="44.682803" lon="15.9145004"><ele>814.0</ele><time>2026-04-27T11:37:39.386Z</time></trkpt><trkpt lat="44.6827151" lon="15.9144344"><ele>814.2</ele><time>2026-04-27T11:37:40.386Z</time></trkpt><trkpt lat="44.6826652" lon="15.9143632"><ele>814.4000000000001</ele><time>2026-04-27T11:37:41.386Z</time></trkpt><trkpt lat="44.6826068" lon="15.9142704"><ele>814.6</ele><time>2026-04-27T11:37:42.386Z</time></trkpt><trkpt lat="44.682545" lon="15.9141556"><ele>814.8</ele><time>2026-04-27T11:37:43.386Z</time></trkpt><trkpt lat="44.6824844" lon="15.9140575"><ele>815.0</ele><time>2026-04-27T11:37:44.386Z</time></trkpt><trkpt lat="44.6824151" lon="15.9139501"><ele>816.75</ele><time>2026-04-27T11:37:45.387Z</time></trkpt><trkpt lat="44.6823573" lon="15.9138373"><ele>818.5</ele><time>2026-04-27T11:37:46.386Z</time></trkpt><trkpt lat="44.6822894" lon="15.9137214"><ele>820.25</ele><time>2026-04-27T11:37:47.387Z</time></trkpt><trkpt lat="44.6821806" lon="15.9135529"><ele>822.0</ele><time>2026-04-27T11:37:48.386Z</time></trkpt><trkpt lat="44.6821056" lon="15.9134298"><ele>823.2</ele><time>2026-04-27T11:37:49.386Z</time></trkpt><trkpt lat="44.6820187" lon="15.9132668"><ele>824.4000000000001</ele><time>2026-04-27T11:37:50.386Z</time></trkpt><trkpt lat="44.6819658" lon="15.9131593"><ele>825.5999999999999</ele><time>2026-04-27T11:37:51.386Z</time></trkpt><trkpt lat="44.6818842" lon="15.9130362"><ele>826.8</ele><time>2026-04-27T11:37:52.386Z</time></trkpt><trkpt lat="44.6818534" lon="15.9129372"><ele>828.0</ele><time>2026-04-27T11:37:53.386Z</time></trkpt><trkpt lat="44.6818162" lon="15.9128227"><ele>828.0</ele><time>2026-04-27T11:37:54.387Z</time></trkpt><trkpt lat="44.6817977" lon="15.9126735"><ele>828.0</ele><time>2026-04-27T11:37:55.386Z</time></trkpt><trkpt lat="44.6817606" lon="15.9125229"><ele>828.0</ele><time>2026-04-27T11:37:56.386Z</time></trkpt><trkpt lat="44.6817246" lon="15.9123708"><ele>828.0</ele><time>2026-04-27T11:37:57.386Z</time></trkpt><trkpt lat="44.6817032" lon="15.9122644"><ele>828.0</ele><time>2026-04-27T11:37:58.387Z</time></trkpt><trkpt lat="44.6816667" lon="15.9121694"><ele>830.5999999999999</ele><time>2026-04-27T11:37:59.386Z</time></trkpt><trkpt lat="44.6816007" lon="15.912073"><ele>833.1999999999999</ele><time>2026-04-27T11:38:01.387Z</time></trkpt><trkpt lat="44.6815002" lon="15.9121008"><ele>835.8</ele><time>2026-04-27T11:38:03.386Z</time></trkpt><trkpt lat="44.6814331" lon="15.912187"><ele>838.4</ele><time>2026-04-27T11:38:05.386Z</time></trkpt><trkpt lat="44.6813524" lon="15.9123067"><ele>841.0</ele><time>2026-04-27T11:38:06.386Z</time></trkpt><trkpt lat="44.6812854" lon="15.912388"><ele>841.0</ele><time>2026-04-27T11:38:07.386Z</time></trkpt><trkpt lat="44.6811736" lon="15.9124592"><ele>841.0</ele><time>2026-04-27T11:38:08.386Z</time></trkpt><trkpt lat="44.6810898" lon="15.9125568"><ele>841.0</ele><time>2026-04-27T11:38:09.386Z</time></trkpt><trkpt lat="44.6810188" lon="15.9126342"><ele>841.0</ele><time>2026-04-27T11:38:10.386Z</time></trkpt><trkpt lat="44.6809579" lon="15.9127176"><ele>841.0</ele><time>2026-04-27T11:38:11.386Z</time></trkpt><trkpt lat="44.6808966" lon="15.9127929"><ele>841.5999999999999</ele><time>2026-04-27T11:38:12.386Z</time></trkpt><trkpt lat="44.6808337" lon="15.91286"><ele>842.2</ele><time>2026-04-27T11:38:13.386Z</time></trkpt><trkpt lat="44.6807385" lon="15.9129275"><ele>842.8</ele><time>2026-04-27T11:38:14.387Z</time></trkpt><trkpt lat="44.6806492" lon="15.9129767"><ele>843.4000000000001</ele><time>2026-04-27T11:38:15.387Z</time></trkpt><trkpt lat="44.6805533" lon="15.9130368"><ele>844.0</ele><time>2026-04-27T11:38:16.386Z</time></trkpt><trkpt lat="44.6804654" lon="15.9131111"><ele>844.0</ele><time>2026-04-27T11:38:17.387Z</time></trkpt><trkpt lat="44.6803622" lon="15.9131838"><ele>844.0</ele><time>2026-04-27T11:38:18.386Z</time></trkpt><trkpt lat="44.6802819" lon="15.9132474"><ele>844.0</ele><time>2026-04-27T11:38:19.386Z</time></trkpt><trkpt lat="44.6802111" lon="15.9133497"><ele>844.0</ele><time>2026-04-27T11:38:20.386Z</time></trkpt><trkpt lat="44.6801421" lon="15.9134443"><ele>844.0</ele><time>2026-04-27T11:38:21.386Z</time></trkpt><trkpt lat="44.680071" lon="15.9135725"><ele>847.5</ele><time>2026-04-27T11:38:22.387Z</time></trkpt><trkpt lat="44.6800004" lon="15.9136931"><ele>851.0</ele><time>2026-04-27T11:38:23.386Z</time></trkpt><trkpt lat="44.6799217" lon="15.9138139"><ele>854.5</ele><time>2026-04-27T11:38:24.386Z</time></trkpt><trkpt lat="44.6798482" lon="15.9139414"><ele>858.0</ele><time>2026-04-27T11:38:25.386Z</time></trkpt><trkpt lat="44.6797797" lon="15.9140715"><ele>858.0</ele><time>2026-04-27T11:38:26.386Z</time></trkpt><trkpt lat="44.6797078" lon="15.9141897"><ele>858.0</ele><time>2026-04-27T11:38:27.386Z</time></trkpt><trkpt lat="44.679642" lon="15.9142881"><ele>858.0</ele><time>2026-04-27T11:38:28.386Z</time></trkpt><trkpt lat="44.6795764" lon="15.9143854"><ele>858.0</ele><time>2026-04-27T11:38:29.386Z</time></trkpt><trkpt lat="44.6795025" lon="15.9144774"><ele>858.0</ele><time>2026-04-27T11:38:30.386Z</time></trkpt><trkpt lat="44.6794404" lon="15.914551"><ele>859.8333333333334</ele><time>2026-04-27T11:38:31.386Z</time></trkpt><trkpt lat="44.679385" lon="15.9146233"><ele>861.6666666666667</ele><time>2026-04-27T11:38:32.387Z</time></trkpt><trkpt lat="44.6793211" lon="15.9146834"><ele>863.5</ele><time>2026-04-27T11:38:33.387Z</time></trkpt><trkpt lat="44.6792517" lon="15.9147201"><ele>865.3333333333334</ele><time>2026-04-27T11:38:34.387Z</time></trkpt><trkpt lat="44.6791896" lon="15.9147591"><ele>867.1666666666667</ele><time>2026-04-27T11:38:35.386Z</time></trkpt><trkpt lat="44.6791178" lon="15.914815"><ele>869.0</ele><time>2026-04-27T11:38:36.386Z</time></trkpt><trkpt lat="44.6790515" lon="15.9148886"><ele>869.0</ele><time>2026-04-27T11:38:37.386Z</time></trkpt><trkpt lat="44.6789662" lon="15.9149765"><ele>869.0000000000001</ele><time>2026-04-27T11:38:38.387Z</time></trkpt><trkpt lat="44.6788761" lon="15.9150281"><ele>869.0000000000001</ele><time>2026-04-27T11:38:39.386Z</time></trkpt><trkpt lat="44.6788057" lon="15.9150976"><ele>869.0</ele><time>2026-04-27T11:38:40.387Z</time></trkpt><trkpt lat="44.678701" lon="15.9151817"><ele>869.0</ele><time>2026-04-27T11:38:41.387Z</time></trkpt><trkpt lat="44.6786173" lon="15.9152591"><ele>871.0</ele><time>2026-04-27T11:38:42.386Z</time></trkpt><trkpt lat="44.6785254" lon="15.9153395"><ele>873.0000000000001</ele><time>2026-04-27T11:38:43.387Z</time></trkpt><trkpt lat="44.6784417" lon="15.9154324"><ele>875.0000000000001</ele><time>2026-04-27T11:38:44.386Z</time></trkpt><trkpt lat="44.6783524" lon="15.9155283"><ele>877.0</ele><time>2026-04-27T11:38:45.386Z</time></trkpt><trkpt lat="44.6782637" lon="15.915621"><ele>879.0</ele><time>2026-04-27T11:38:46.387Z</time></trkpt><trkpt lat="44.678185" lon="15.915728"><ele>879.0</ele><time>2026-04-27T11:38:47.386Z</time></trkpt><trkpt lat="44.6781054" lon="15.9158344"><ele>879.0000000000001</ele><time>2026-04-27T11:38:48.386Z</time></trkpt><trkpt lat="44.6780457" lon="15.9159468"><ele>879.0000000000001</ele><time>2026-04-27T11:38:49.386Z</time></trkpt><trkpt lat="44.6779705" lon="15.916057"><ele>879.0</ele><time>2026-04-27T11:38:50.386Z</time></trkpt><trkpt lat="44.6778981" lon="15.916152"><ele>879.0</ele><time>2026-04-27T11:38:51.387Z</time></trkpt><trkpt lat="44.6778141" lon="15.9162372"><ele>881.0</ele><time>2026-04-27T11:38:52.386Z</time></trkpt><trkpt lat="44.6777219" lon="15.9163232"><ele>883.0</ele><time>2026-04-27T11:38:53.386Z</time></trkpt><trkpt lat="44.6776152" lon="15.9163925"><ele>885.0</ele><time>2026-04-27T11:38:54.386Z</time></trkpt><trkpt lat="44.6775097" lon="15.9164409"><ele>887.0</ele><time>2026-04-27T11:38:55.387Z</time></trkpt><trkpt lat="44.6774078" lon="15.9165089"><ele>887.0</ele><time>2026-04-27T11:38:56.386Z</time></trkpt><trkpt lat="44.6773044" lon="15.9165721"><ele>887.0</ele><time>2026-04-27T11:38:57.386Z</time></trkpt><trkpt lat="44.6772239" lon="15.9166593"><ele>887.0</ele><time>2026-04-27T11:38:58.386Z</time></trkpt><trkpt lat="44.6771417" lon="15.9167486"><ele>887.0</ele><time>2026-04-27T11:38:59.387Z</time></trkpt><trkpt lat="44.6770715" lon="15.9168755"><ele>887.0</ele><time>2026-04-27T11:39:00.386Z</time></trkpt><trkpt lat="44.6770188" lon="15.9170181"><ele>887.25</ele><time>2026-04-27T11:39:01.386Z</time></trkpt><trkpt lat="44.676965" lon="15.9171419"><ele>887.5</ele><time>2026-04-27T11:39:02.386Z</time></trkpt><trkpt lat="44.6769203" lon="15.9172575"><ele>887.75</ele><time>2026-04-27T11:39:03.386Z</time></trkpt><trkpt lat="44.676865" lon="15.9174284"><ele>888.0</ele><time>2026-04-27T11:39:04.386Z</time></trkpt><trkpt lat="44.6768107" lon="15.917578"><ele>888.4</ele><time>2026-04-27T11:39:05.387Z</time></trkpt><trkpt lat="44.6767539" lon="15.9177048"><ele>888.8</ele><time>2026-04-27T11:39:06.386Z</time></trkpt><trkpt lat="44.6766881" lon="15.9178409"><ele>889.2</ele><time>2026-04-27T11:39:07.386Z</time></trkpt><trkpt lat="44.6766299" lon="15.917967"><ele>889.6</ele><time>2026-04-27T11:39:08.386Z</time></trkpt><trkpt lat="44.6765905" lon="15.9181121"><ele>890.0</ele><time>2026-04-27T11:39:09.387Z</time></trkpt><trkpt lat="44.6765675" lon="15.9182429"><ele>890.0</ele><time>2026-04-27T11:39:10.386Z</time></trkpt><trkpt lat="44.6765312" lon="15.9183882"><ele>890.0</ele><time>2026-04-27T11:39:11.386Z</time></trkpt><trkpt lat="44.6765168" lon="15.9185295"><ele>890.0</ele><time>2026-04-27T11:39:12.386Z</time></trkpt><trkpt lat="44.6764869" lon="15.9187238"><ele>890.0</ele><time>2026-04-27T11:39:13.387Z</time></trkpt><trkpt lat="44.6764595" lon="15.9189129"><ele>890.25</ele><time>2026-04-27T11:39:14.386Z</time></trkpt><trkpt lat="44.6764386" lon="15.91908"><ele>890.5</ele><time>2026-04-27T11:39:15.386Z</time></trkpt><trkpt lat="44.6764081" lon="15.9192529"><ele>890.75</ele><time>2026-04-27T11:39:16.387Z</time></trkpt><trkpt lat="44.6763971" lon="15.9194033"><ele>891.0</ele><time>2026-04-27T11:39:17.386Z</time></trkpt><trkpt lat="44.6763886" lon="15.9195648"><ele>892.4</ele><time>2026-04-27T11:39:18.387Z</time></trkpt><trkpt lat="44.6763982" lon="15.9197438"><ele>893.8</ele><time>2026-04-27T11:39:19.387Z</time></trkpt><trkpt lat="44.6764027" lon="15.919891"><ele>895.1999999999999</ele><time>2026-04-27T11:39:20.386Z</time></trkpt><trkpt lat="44.6764126" lon="15.9200306"><ele>896.5999999999999</ele><time>2026-04-27T11:39:21.387Z</time></trkpt><trkpt lat="44.6764319" lon="15.9201722"><ele>898.0</ele><time>2026-04-27T11:39:22.386Z</time></trkpt><trkpt lat="44.6764357" lon="15.9202911"><ele>899.4</ele><time>2026-04-27T11:39:23.386Z</time></trkpt><trkpt lat="44.6763887" lon="15.9203746"><ele>900.8</ele><time>2026-04-27T11:39:24.387Z</time></trkpt><trkpt lat="44.6762972" lon="15.9204734"><ele>902.2</ele><time>2026-04-27T11:39:26.386Z</time></trkpt><trkpt lat="44.6762211" lon="15.9204971"><ele>903.6</ele><time>2026-04-27T11:39:27.387Z</time></trkpt><trkpt lat="44.6761314" lon="15.9205048"><ele>905.0</ele><time>2026-04-27T11:39:28.387Z</time></trkpt><trkpt lat="44.6760287" lon="15.920514"><ele>906.0</ele><time>2026-04-27T11:39:29.387Z</time></trkpt><trkpt lat="44.6758847" lon="15.9205233"><ele>907.0</ele><time>2026-04-27T11:39:30.386Z</time></trkpt><trkpt lat="44.6757794" lon="15.9205452"><ele>908.0</ele><time>2026-04-27T11:39:31.386Z</time></trkpt><trkpt lat="44.6757014" lon="15.9205696"><ele>909.0</ele><time>2026-04-27T11:39:32.386Z</time></trkpt><trkpt lat="44.6756135" lon="15.9206012"><ele>910.0</ele><time>2026-04-27T11:39:33.386Z</time></trkpt><trkpt lat="44.6755167" lon="15.9206715"><ele>910.0</ele><time>2026-04-27T11:39:34.386Z</time></trkpt><trkpt lat="44.6754107" lon="15.9207247"><ele>910.0</ele><time>2026-04-27T11:39:35.386Z</time></trkpt><trkpt lat="44.6753203" lon="15.9207997"><ele>910.0</ele><time>2026-04-27T11:39:36.386Z</time></trkpt><trkpt lat="44.6752301" lon="15.9208742"><ele>910.0</ele><time>2026-04-27T11:39:37.387Z</time></trkpt><trkpt lat="44.6751387" lon="15.9209761"><ele>910.0</ele><time>2026-04-27T11:39:38.386Z</time></trkpt><trkpt lat="44.6750708" lon="15.9210855"><ele>910.6</ele><time>2026-04-27T11:39:39.386Z</time></trkpt><trkpt lat="44.6750104" lon="15.9212155"><ele>911.2</ele><time>2026-04-27T11:39:40.386Z</time></trkpt><trkpt lat="44.674957" lon="15.9213293"><ele>911.8</ele><time>2026-04-27T11:39:41.386Z</time></trkpt><trkpt lat="44.6749207" lon="15.9214431"><ele>912.4</ele><time>2026-04-27T11:39:42.386Z</time></trkpt><trkpt lat="44.6748855" lon="15.9215679"><ele>913.0</ele><time>2026-04-27T11:39:43.386Z</time></trkpt><trkpt lat="44.6748953" lon="15.9216942"><ele>912.4</ele><time>2026-04-27T11:39:44.386Z</time></trkpt><trkpt lat="44.6748988" lon="15.9218446"><ele>911.8</ele><time>2026-04-27T11:39:45.386Z</time></trkpt><trkpt lat="44.6748924" lon="15.9219849"><ele>911.2</ele><time>2026-04-27T11:39:46.387Z</time></trkpt><trkpt lat="44.6748857" lon="15.9221157"><ele>910.6</ele><time>2026-04-27T11:39:47.386Z</time></trkpt><trkpt lat="44.6748792" lon="15.9222159"><ele>910.0</ele><time>2026-04-27T11:39:48.386Z</time></trkpt><trkpt lat="44.6748214" lon="15.9223813"><ele>909.9999999999999</ele><time>2026-04-27T11:39:50.386Z</time></trkpt><trkpt lat="44.6747699" lon="15.9224606"><ele>910.0</ele><time>2026-04-27T11:39:51.386Z</time></trkpt><trkpt lat="44.6747015" lon="15.9225322"><ele>910.0</ele><time>2026-04-27T11:39:52.386Z</time></trkpt><trkpt lat="44.6746344" lon="15.922554"><ele>910.0</ele><time>2026-04-27T11:39:53.386Z</time></trkpt><trkpt lat="44.6745395" lon="15.9225775"><ele>909.9999999999999</ele><time>2026-04-27T11:39:54.386Z</time></trkpt><trkpt lat="44.6744212" lon="15.9225887"><ele>910.0</ele><time>2026-04-27T11:39:55.387Z</time></trkpt><trkpt lat="44.6742915" lon="15.9225798"><ele>907.8</ele><time>2026-04-27T11:39:56.387Z</time></trkpt><trkpt lat="44.6741784" lon="15.9225885"><ele>905.6</ele><time>2026-04-27T11:39:57.386Z</time></trkpt><trkpt lat="44.6740702" lon="15.9226012"><ele>903.4000000000001</ele><time>2026-04-27T11:39:58.386Z</time></trkpt><trkpt lat="44.6739801" lon="15.9226293"><ele>901.2</ele><time>2026-04-27T11:39:59.387Z</time></trkpt><trkpt lat="44.6738799" lon="15.9226794"><ele>899.0</ele><time>2026-04-27T11:40:00.386Z</time></trkpt><trkpt lat="44.6737897" lon="15.9227633"><ele>899.0</ele><time>2026-04-27T11:40:01.387Z</time></trkpt><trkpt lat="44.6736932" lon="15.92287"><ele>899.0000000000001</ele><time>2026-04-27T11:40:02.386Z</time></trkpt><trkpt lat="44.6736088" lon="15.9229751"><ele>899.0000000000001</ele><time>2026-04-27T11:40:03.387Z</time></trkpt><trkpt lat="44.673538" lon="15.9230679"><ele>899.0</ele><time>2026-04-27T11:40:04.387Z</time></trkpt><trkpt lat="44.6734616" lon="15.9231714"><ele>899.0</ele><time>2026-04-27T11:40:05.386Z</time></trkpt><trkpt lat="44.6733823" lon="15.9232787"><ele>899.8000000000001</ele><time>2026-04-27T11:40:06.386Z</time></trkpt><trkpt lat="44.6732949" lon="15.9233933"><ele>900.6000000000001</ele><time>2026-04-27T11:40:07.386Z</time></trkpt><trkpt lat="44.6732238" lon="15.9234979"><ele>901.4</ele><time>2026-04-27T11:40:08.386Z</time></trkpt><trkpt lat="44.6731589" lon="15.9235919"><ele>902.2</ele><time>2026-04-27T11:40:09.386Z</time></trkpt><trkpt lat="44.6731087" lon="15.9236872"><ele>903.0</ele><time>2026-04-27T11:40:10.386Z</time></trkpt><trkpt lat="44.6730695" lon="15.9237709"><ele>903.0</ele><time>2026-04-27T11:40:11.386Z</time></trkpt><trkpt lat="44.6730016" lon="15.9238733"><ele>903.0</ele><time>2026-04-27T11:40:13.386Z</time></trkpt><trkpt lat="44.6729096" lon="15.9239304"><ele>903.0</ele><time>2026-04-27T11:40:15.386Z</time></trkpt><trkpt lat="44.6728385" lon="15.9239587"><ele>903.0</ele><time>2026-04-27T11:40:16.386Z</time></trkpt><trkpt lat="44.6727342" lon="15.9239667"><ele>903.0</ele><time>2026-04-27T11:40:17.387Z</time></trkpt><trkpt lat="44.6726189" lon="15.9239582"><ele>903.25</ele><time>2026-04-27T11:40:18.386Z</time></trkpt><trkpt lat="44.6724932" lon="15.9239638"><ele>903.5</ele><time>2026-04-27T11:40:19.386Z</time></trkpt><trkpt lat="44.6723755" lon="15.9239707"><ele>903.75</ele><time>2026-04-27T11:40:20.386Z</time></trkpt><trkpt lat="44.6722517" lon="15.9239903"><ele>904.0</ele><time>2026-04-27T11:40:21.386Z</time></trkpt><trkpt lat="44.6721302" lon="15.9240138"><ele>904.0</ele><time>2026-04-27T11:40:22.387Z</time></trkpt><trkpt lat="44.6720317" lon="15.9240416"><ele>904.0000000000001</ele><time>2026-04-27T11:40:23.386Z</time></trkpt><trkpt lat="44.6719175" lon="15.9240717"><ele>904.0000000000001</ele><time>2026-04-27T11:40:24.386Z</time></trkpt><trkpt lat="44.6718125" lon="15.9240906"><ele>904.0</ele><time>2026-04-27T11:40:25.387Z</time></trkpt><trkpt lat="44.6716964" lon="15.9241056"><ele>904.0</ele><time>2026-04-27T11:40:26.386Z</time></trkpt><trkpt lat="44.6715821" lon="15.9241246"><ele>905.5</ele><time>2026-04-27T11:40:27.386Z</time></trkpt><trkpt lat="44.6714559" lon="15.9241149"><ele>907.0</ele><time>2026-04-27T11:40:28.386Z</time></trkpt><trkpt lat="44.6713437" lon="15.9241132"><ele>908.5</ele><time>2026-04-27T11:40:29.386Z</time></trkpt><trkpt lat="44.6712277" lon="15.9241154"><ele>910.0</ele><time>2026-04-27T11:40:30.386Z</time></trkpt><trkpt lat="44.6711204" lon="15.9241204"><ele>910.2</ele><time>2026-04-27T11:40:31.386Z</time></trkpt><trkpt lat="44.6710168" lon="15.9241075"><ele>910.4</ele><time>2026-04-27T11:40:32.386Z</time></trkpt><trkpt lat="44.6709226" lon="15.9240693"><ele>910.5999999999999</ele><time>2026-04-27T11:40:33.386Z</time></trkpt><trkpt lat="44.6708426" lon="15.9240114"><ele>910.8</ele><time>2026-04-27T11:40:34.387Z</time></trkpt><trkpt lat="44.6707685" lon="15.9239558"><ele>911.0</ele><time>2026-04-27T11:40:35.387Z</time></trkpt><trkpt lat="44.6706761" lon="15.9238891"><ele>911.0</ele><time>2026-04-27T11:40:36.386Z</time></trkpt><trkpt lat="44.6705921" lon="15.9238329"><ele>910.9999999999999</ele><time>2026-04-27T11:40:37.386Z</time></trkpt><trkpt lat="44.6705033" lon="15.9237903"><ele>910.9999999999999</ele><time>2026-04-27T11:40:38.386Z</time></trkpt><trkpt lat="44.670407" lon="15.9237561"><ele>911.0</ele><time>2026-04-27T11:40:39.386Z</time></trkpt><trkpt lat="44.6702898" lon="15.9237403"><ele>911.0</ele><time>2026-04-27T11:40:40.387Z</time></trkpt><trkpt lat="44.6701651" lon="15.9237316"><ele>911.1999999999999</ele><time>2026-04-27T11:40:41.386Z</time></trkpt><trkpt lat="44.6700528" lon="15.9237124"><ele>911.3999999999999</ele><time>2026-04-27T11:40:42.387Z</time></trkpt><trkpt lat="44.6699565" lon="15.9236863"><ele>911.6</ele><time>2026-04-27T11:40:43.386Z</time></trkpt><trkpt lat="44.6698575" lon="15.923655"><ele>911.8</ele><time>2026-04-27T11:40:44.386Z</time></trkpt><trkpt lat="44.6697432" lon="15.9236015"><ele>912.0</ele><time>2026-04-27T11:40:45.387Z</time></trkpt><trkpt lat="44.6696369" lon="15.9235414"><ele>912.0</ele><time>2026-04-27T11:40:46.386Z</time></trkpt><trkpt lat="44.6695304" lon="15.9234839"><ele>912.0</ele><time>2026-04-27T11:40:47.387Z</time></trkpt><trkpt lat="44.6694336" lon="15.9234253"><ele>912.0</ele><time>2026-04-27T11:40:48.385Z</time></trkpt><trkpt lat="44.6693395" lon="15.9233452"><ele>912.0</ele><time>2026-04-27T11:40:49.386Z</time></trkpt><trkpt lat="44.6692505" lon="15.923246"><ele>912.0</ele><time>2026-04-27T11:40:50.387Z</time></trkpt><trkpt lat="44.6691696" lon="15.9231621"><ele>913.6</ele><time>2026-04-27T11:40:51.386Z</time></trkpt><trkpt lat="44.6690885" lon="15.9230602"><ele>915.2</ele><time>2026-04-27T11:40:52.386Z</time></trkpt><trkpt lat="44.6690115" lon="15.9229893"><ele>916.8</ele><time>2026-04-27T11:40:53.387Z</time></trkpt><trkpt lat="44.668938" lon="15.9228916"><ele>918.4</ele><time>2026-04-27T11:40:54.387Z</time></trkpt><trkpt lat="44.6688801" lon="15.9227786"><ele>920.0</ele><time>2026-04-27T11:40:55.387Z</time></trkpt><trkpt lat="44.6688193" lon="15.9226411"><ele>920.25</ele><time>2026-04-27T11:40:56.386Z</time></trkpt><trkpt lat="44.6687406" lon="15.9225101"><ele>920.5</ele><time>2026-04-27T11:40:57.386Z</time></trkpt><trkpt lat="44.6686719" lon="15.9223772"><ele>920.75</ele><time>2026-04-27T11:40:58.387Z</time></trkpt><trkpt lat="44.6686019" lon="15.9222452"><ele>921.0</ele><time>2026-04-27T11:40:59.386Z</time></trkpt><trkpt lat="44.6685306" lon="15.9221148"><ele>921.0</ele><time>2026-04-27T11:41:00.387Z</time></trkpt><trkpt lat="44.6684901" lon="15.9219751"><ele>920.9999999999999</ele><time>2026-04-27T11:41:01.386Z</time></trkpt><trkpt lat="44.6684329" lon="15.9218355"><ele>920.9999999999999</ele><time>2026-04-27T11:41:02.386Z</time></trkpt><trkpt lat="44.6683746" lon="15.9217156"><ele>921.0</ele><time>2026-04-27T11:41:03.387Z</time></trkpt><trkpt lat="44.6683042" lon="15.9215756"><ele>921.0</ele><time>2026-04-27T11:41:04.386Z</time></trkpt><trkpt lat="44.6682341" lon="15.9214911"><ele>922.8</ele><time>2026-04-27T11:41:05.387Z</time></trkpt><trkpt lat="44.6681339" lon="15.9213912"><ele>924.5999999999999</ele><time>2026-04-27T11:41:06.386Z</time></trkpt><trkpt lat="44.6680583" lon="15.921293"><ele>926.4</ele><time>2026-04-27T11:41:07.386Z</time></trkpt><trkpt lat="44.6679674" lon="15.9212035"><ele>928.2</ele><time>2026-04-27T11:41:08.386Z</time></trkpt><trkpt lat="44.6678722" lon="15.9211203"><ele>930.0</ele><time>2026-04-27T11:41:09.386Z</time></trkpt><trkpt lat="44.6677945" lon="15.9210356"><ele>929.4</ele><time>2026-04-27T11:41:10.386Z</time></trkpt><trkpt lat="44.6677162" lon="15.9209413"><ele>928.8</ele><time>2026-04-27T11:41:11.386Z</time></trkpt><trkpt lat="44.6676458" lon="15.9208854"><ele>928.2</ele><time>2026-04-27T11:41:12.386Z</time></trkpt><trkpt lat="44.6675709" lon="15.920811"><ele>927.6</ele><time>2026-04-27T11:41:13.386Z</time></trkpt><trkpt lat="44.667477" lon="15.9207595"><ele>927.0</ele><time>2026-04-27T11:41:14.386Z</time></trkpt><trkpt lat="44.6673614" lon="15.9207062"><ele>929.2</ele><time>2026-04-27T11:41:15.386Z</time></trkpt><trkpt lat="44.6672463" lon="15.9206585"><ele>931.4000000000001</ele><time>2026-04-27T11:41:16.386Z</time></trkpt><trkpt lat="44.6671415" lon="15.9206223"><ele>933.5999999999999</ele><time>2026-04-27T11:41:17.386Z</time></trkpt><trkpt lat="44.6670505" lon="15.9205619"><ele>935.8</ele><time>2026-04-27T11:41:18.387Z</time></trkpt><trkpt lat="44.6669435" lon="15.9205167"><ele>938.0</ele><time>2026-04-27T11:41:19.386Z</time></trkpt><trkpt lat="44.6668262" lon="15.9204973"><ele>939.0</ele><time>2026-04-27T11:41:20.386Z</time></trkpt><trkpt lat="44.6667146" lon="15.9204804"><ele>940.0</ele><time>2026-04-27T11:41:21.386Z</time></trkpt><trkpt lat="44.6665718" lon="15.9204804"><ele>941.0</ele><time>2026-04-27T11:41:22.386Z</time></trkpt><trkpt lat="44.6664499" lon="15.9204533"><ele>942.0</ele><time>2026-04-27T11:41:23.386Z</time></trkpt><trkpt lat="44.6663489" lon="15.9204464"><ele>942.0</ele><time>2026-04-27T11:41:24.386Z</time></trkpt><trkpt lat="44.6662487" lon="15.9204267"><ele>942.0</ele><time>2026-04-27T11:41:25.387Z</time></trkpt><trkpt lat="44.6661412" lon="15.9204095"><ele>942.0</ele><time>2026-04-27T11:41:26.386Z</time></trkpt><trkpt lat="44.6660304" lon="15.9203886"><ele>942.0</ele><time>2026-04-27T11:41:27.386Z</time></trkpt><trkpt lat="44.6659158" lon="15.9203545"><ele>942.0</ele><time>2026-04-27T11:41:28.386Z</time></trkpt><trkpt lat="44.6658192" lon="15.9203002"><ele>941.6</ele><time>2026-04-27T11:41:29.386Z</time></trkpt><trkpt lat="44.6657278" lon="15.9202527"><ele>941.2</ele><time>2026-04-27T11:41:30.387Z</time></trkpt><trkpt lat="44.665634" lon="15.9201877"><ele>940.8</ele><time>2026-04-27T11:41:31.386Z</time></trkpt><trkpt lat="44.6655361" lon="15.9201266"><ele>940.4</ele><time>2026-04-27T11:41:32.386Z</time></trkpt><trkpt lat="44.6654386" lon="15.920032"><ele>940.0</ele><time>2026-04-27T11:41:33.387Z</time></trkpt><trkpt lat="44.6653495" lon="15.9199523"><ele>943.8</ele><time>2026-04-27T11:41:34.386Z</time></trkpt><trkpt lat="44.6652517" lon="15.9198716"><ele>947.6</ele><time>2026-04-27T11:41:35.386Z</time></trkpt><trkpt lat="44.6651625" lon="15.9198075"><ele>951.4000000000001</ele><time>2026-04-27T11:41:36.386Z</time></trkpt><trkpt lat="44.6650609" lon="15.9197535"><ele>955.2</ele><time>2026-04-27T11:41:37.386Z</time></trkpt><trkpt lat="44.66496" lon="15.9197188"><ele>959.0</ele><time>2026-04-27T11:41:38.386Z</time></trkpt><trkpt lat="44.6648321" lon="15.9196919"><ele>959.0</ele><time>2026-04-27T11:41:39.386Z</time></trkpt><trkpt lat="44.6647438" lon="15.9196929"><ele>959.0000000000001</ele><time>2026-04-27T11:41:40.386Z</time></trkpt><trkpt lat="44.6646489" lon="15.919701"><ele>959.0000000000001</ele><time>2026-04-27T11:41:41.386Z</time></trkpt><trkpt lat="44.6645364" lon="15.9197071"><ele>959.0</ele><time>2026-04-27T11:41:42.387Z</time></trkpt><trkpt lat="44.664449" lon="15.9197094"><ele>959.0</ele><time>2026-04-27T11:41:43.386Z</time></trkpt><trkpt lat="44.6643679" lon="15.9197389"><ele>960.4000000000001</ele><time>2026-04-27T11:41:44.386Z</time></trkpt><trkpt lat="44.6642625" lon="15.9197937"><ele>961.8000000000001</ele><time>2026-04-27T11:41:45.386Z</time></trkpt><trkpt lat="44.6641674" lon="15.9198634"><ele>963.1999999999999</ele><time>2026-04-27T11:41:46.386Z</time></trkpt><trkpt lat="44.6641005" lon="15.919986"><ele>964.5999999999999</ele><time>2026-04-27T11:41:47.386Z</time></trkpt><trkpt lat="44.6640301" lon="15.9200814"><ele>966.0</ele><time>2026-04-27T11:41:48.386Z</time></trkpt><trkpt lat="44.6639604" lon="15.9201382"><ele>966.0</ele><time>2026-04-27T11:41:49.386Z</time></trkpt><trkpt lat="44.6638863" lon="15.9201794"><ele>965.9999999999999</ele><time>2026-04-27T11:41:50.386Z</time></trkpt><trkpt lat="44.663784" lon="15.9201631"><ele>965.9999999999999</ele><time>2026-04-27T11:41:52.386Z</time></trkpt><trkpt lat="44.6637474" lon="15.9200591"><ele>966.0</ele><time>2026-04-27T11:41:54.386Z</time></trkpt><trkpt lat="44.6638169" lon="15.9199747"><ele>966.0</ele><time>2026-04-27T11:41:56.386Z</time></trkpt><trkpt lat="44.6639337" lon="15.919899"><ele>966.0</ele><time>2026-04-27T11:41:58.386Z</time></trkpt><trkpt lat="44.6639893" lon="15.9198423"><ele>966.0</ele><time>2026-04-27T11:41:59.387Z</time></trkpt><trkpt lat="44.6640612" lon="15.9197092"><ele>966.0</ele><time>2026-04-27T11:42:01.387Z</time></trkpt><trkpt lat="44.6640796" lon="15.9195933"><ele>966.0</ele><time>2026-04-27T11:42:02.386Z</time></trkpt><trkpt lat="44.6640957" lon="15.9194883"><ele>966.0</ele><time>2026-04-27T11:42:03.387Z</time></trkpt><trkpt lat="44.6641238" lon="15.9193862"><ele>966.0</ele><time>2026-04-27T11:42:04.386Z</time></trkpt><trkpt lat="44.664154" lon="15.919301"><ele>967.5</ele><time>2026-04-27T11:42:05.386Z</time></trkpt><trkpt lat="44.6641911" lon="15.9192204"><ele>969.0</ele><time>2026-04-27T11:42:06.386Z</time></trkpt><trkpt lat="44.6642392" lon="15.9191599"><ele>970.5</ele><time>2026-04-27T11:42:07.386Z</time></trkpt><trkpt lat="44.6643523" lon="15.9191024"><ele>972.0</ele><time>2026-04-27T11:42:09.386Z</time></trkpt><trkpt lat="44.6644296" lon="15.9190906"><ele>973.5</ele><time>2026-04-27T11:42:10.386Z</time></trkpt><trkpt lat="44.6645069" lon="15.9190882"><ele>975.0</ele><time>2026-04-27T11:42:11.387Z</time></trkpt><trkpt lat="44.6645917" lon="15.9190844"><ele>975.0</ele><time>2026-04-27T11:42:12.386Z</time></trkpt><trkpt lat="44.6646551" lon="15.9190684"><ele>975.0</ele><time>2026-04-27T11:42:13.386Z</time></trkpt><trkpt lat="44.6647201" lon="15.9190291"><ele>975.0</ele><time>2026-04-27T11:42:14.386Z</time></trkpt><trkpt lat="44.6648063" lon="15.9188892"><ele>975.0</ele><time>2026-04-27T11:42:16.387Z</time></trkpt><trkpt lat="44.6648215" lon="15.9186949"><ele>975.0</ele><time>2026-04-27T11:42:18.386Z</time></trkpt><trkpt lat="44.6648234" lon="15.9185901"><ele>975.0</ele><time>2026-04-27T11:42:19.386Z</time></trkpt><trkpt lat="44.6647866" lon="15.9184821"><ele>975.0</ele><time>2026-04-27T11:42:20.386Z</time></trkpt><trkpt lat="44.6647355" lon="15.9183792"><ele>975.0</ele><time>2026-04-27T11:42:21.387Z</time></trkpt><trkpt lat="44.6646998" lon="15.9182764"><ele>975.0</ele><time>2026-04-27T11:42:22.387Z</time></trkpt><trkpt lat="44.6646574" lon="15.9181707"><ele>975.0</ele><time>2026-04-27T11:42:23.387Z</time></trkpt><trkpt lat="44.6646373" lon="15.9180761"><ele>975.0</ele><time>2026-04-27T11:42:24.386Z</time></trkpt><trkpt lat="44.6646702" lon="15.9179303"><ele>977.2</ele><time>2026-04-27T11:42:26.386Z</time></trkpt><trkpt lat="44.6647024" lon="15.917812"><ele>979.4</ele><time>2026-04-27T11:42:27.387Z</time></trkpt><trkpt lat="44.6647564" lon="15.917675"><ele>981.5999999999999</ele><time>2026-04-27T11:42:28.387Z</time></trkpt><trkpt lat="44.6647708" lon="15.9175329"><ele>983.8</ele><time>2026-04-27T11:42:29.386Z</time></trkpt><trkpt lat="44.664771" lon="15.9174144"><ele>986.0</ele><time>2026-04-27T11:42:30.386Z</time></trkpt><trkpt lat="44.6647607" lon="15.9172707"><ele>987.75</ele><time>2026-04-27T11:42:31.387Z</time></trkpt><trkpt lat="44.6647501" lon="15.9171293"><ele>989.5</ele><time>2026-04-27T11:42:32.387Z</time></trkpt><trkpt lat="44.6647124" lon="15.916978"><ele>991.25</ele><time>2026-04-27T11:42:33.386Z</time></trkpt><trkpt lat="44.6646881" lon="15.9168292"><ele>993.0</ele><time>2026-04-27T11:42:34.386Z</time></trkpt><trkpt lat="44.6646508" lon="15.9166602"><ele>994.1666666666666</ele><time>2026-04-27T11:42:35.386Z</time></trkpt><trkpt lat="44.66462" lon="15.9165664"><ele>995.3333333333333</ele><time>2026-04-27T11:42:36.386Z</time></trkpt><trkpt lat="44.6645869" lon="15.9164708"><ele>996.5</ele><time>2026-04-27T11:42:37.386Z</time></trkpt><trkpt lat="44.6645483" lon="15.9163801"><ele>997.6666666666666</ele><time>2026-04-27T11:42:38.386Z</time></trkpt><trkpt lat="44.6645019" lon="15.9163012"><ele>998.8333333333333</ele><time>2026-04-27T11:42:39.386Z</time></trkpt><trkpt lat="44.664426" lon="15.9162438"><ele>1000.0</ele><time>2026-04-27T11:42:40.386Z</time></trkpt><trkpt lat="44.6643513" lon="15.9162117"><ele>1000.0</ele><time>2026-04-27T11:42:41.386Z</time></trkpt><trkpt lat="44.6642705" lon="15.9161927"><ele>1000.0</ele><time>2026-04-27T11:42:42.386Z</time></trkpt><trkpt lat="44.6641622" lon="15.916175"><ele>1000.0</ele><time>2026-04-27T11:42:43.386Z</time></trkpt><trkpt lat="44.6640178" lon="15.9161428"><ele>1000.0</ele><time>2026-04-27T11:42:44.386Z</time></trkpt><trkpt lat="44.6639071" lon="15.9161219"><ele>1000.0</ele><time>2026-04-27T11:42:45.386Z</time></trkpt><trkpt lat="44.6638064" lon="15.9161092"><ele>1000.0</ele><time>2026-04-27T11:42:46.386Z</time></trkpt><trkpt lat="44.6637222" lon="15.916075"><ele>1000.0</ele><time>2026-04-27T11:42:47.386Z</time></trkpt><trkpt lat="44.6636513" lon="15.9160431"><ele>1000.0</ele><time>2026-04-27T11:42:48.386Z</time></trkpt><trkpt lat="44.6635655" lon="15.9159451"><ele>1000.0</ele><time>2026-04-27T11:42:50.386Z</time></trkpt><trkpt lat="44.6635113" lon="15.9157514"><ele>1000.0</ele><time>2026-04-27T11:42:52.386Z</time></trkpt><trkpt lat="44.6634701" lon="15.9156317"><ele>1002.0</ele><time>2026-04-27T11:42:53.386Z</time></trkpt><trkpt lat="44.6634279" lon="15.9155059"><ele>1004.0</ele><time>2026-04-27T11:42:54.387Z</time></trkpt><trkpt lat="44.663379" lon="15.9153723"><ele>1006.0</ele><time>2026-04-27T11:42:55.387Z</time></trkpt><trkpt lat="44.6633398" lon="15.915242"><ele>1008.0</ele><time>2026-04-27T11:42:56.386Z</time></trkpt><trkpt lat="44.6633007" lon="15.9150939"><ele>1010.0</ele><time>2026-04-27T11:42:57.387Z</time></trkpt><trkpt lat="44.6632858" lon="15.9149611"><ele>1010.6</ele><time>2026-04-27T11:42:58.386Z</time></trkpt><trkpt lat="44.6632617" lon="15.9148166"><ele>1011.2</ele><time>2026-04-27T11:42:59.386Z</time></trkpt><trkpt lat="44.6632409" lon="15.9146903"><ele>1011.8</ele><time>2026-04-27T11:43:00.386Z</time></trkpt><trkpt lat="44.6632281" lon="15.9145436"><ele>1012.4</ele><time>2026-04-27T11:43:01.386Z</time></trkpt><trkpt lat="44.6632078" lon="15.9144013"><ele>1013.0</ele><time>2026-04-27T11:43:02.386Z</time></trkpt><trkpt lat="44.6632048" lon="15.9142611"><ele>1013.4</ele><time>2026-04-27T11:43:03.386Z</time></trkpt><trkpt lat="44.6632062" lon="15.9141379"><ele>1013.8</ele><time>2026-04-27T11:43:04.386Z</time></trkpt><trkpt lat="44.6632246" lon="15.9140391"><ele>1014.2</ele><time>2026-04-27T11:43:05.386Z</time></trkpt><trkpt lat="44.6632738" lon="15.9138951"><ele>1014.6</ele><time>2026-04-27T11:43:07.386Z</time></trkpt><trkpt lat="44.6633678" lon="15.9138668"><ele>1015.0</ele><time>2026-04-27T11:43:09.386Z</time></trkpt><trkpt lat="44.66348" lon="15.9139281"><ele>1014.9999999999999</ele><time>2026-04-27T11:43:11.386Z</time></trkpt><trkpt lat="44.6635463" lon="15.9139808"><ele>1015.0</ele><time>2026-04-27T11:43:12.386Z</time></trkpt><trkpt lat="44.6636337" lon="15.9140276"><ele>1015.0</ele><time>2026-04-27T11:43:13.386Z</time></trkpt><trkpt lat="44.6636931" lon="15.9140952"><ele>1015.0</ele><time>2026-04-27T11:43:14.387Z</time></trkpt><trkpt lat="44.663779" lon="15.9141352"><ele>1014.9999999999999</ele><time>2026-04-27T11:43:15.387Z</time></trkpt><trkpt lat="44.6638611" lon="15.9141313"><ele>1015.0</ele><time>2026-04-27T11:43:17.386Z</time></trkpt><trkpt lat="44.663932" lon="15.914055"><ele>1016.8333333333333</ele><time>2026-04-27T11:43:19.386Z</time></trkpt><trkpt lat="44.6639646" lon="15.9138758"><ele>1018.6666666666666</ele><time>2026-04-27T11:43:21.386Z</time></trkpt><trkpt lat="44.6639544" lon="15.9137532"><ele>1020.5</ele><time>2026-04-27T11:43:22.387Z</time></trkpt><trkpt lat="44.6639464" lon="15.9136485"><ele>1022.3333333333333</ele><time>2026-04-27T11:43:23.386Z</time></trkpt><trkpt lat="44.6639466" lon="15.9135556"><ele>1024.1666666666667</ele><time>2026-04-27T11:43:24.387Z</time></trkpt><trkpt lat="44.663972" lon="15.9134714"><ele>1026.0</ele><time>2026-04-27T11:43:25.386Z</time></trkpt><trkpt lat="44.66402" lon="15.9133713"><ele>1027.0</ele><time>2026-04-27T11:43:26.386Z</time></trkpt><trkpt lat="44.6640863" lon="15.913247"><ele>1028.0</ele><time>2026-04-27T11:43:27.387Z</time></trkpt><trkpt lat="44.6641635" lon="15.9130953"><ele>1029.0</ele><time>2026-04-27T11:43:28.386Z</time></trkpt><trkpt lat="44.6642451" lon="15.9129534"><ele>1030.0</ele><time>2026-04-27T11:43:29.386Z</time></trkpt><trkpt lat="44.6643263" lon="15.912841"><ele>1030.0</ele><time>2026-04-27T11:43:30.386Z</time></trkpt><trkpt lat="44.6644127" lon="15.912733"><ele>1030.0</ele><time>2026-04-27T11:43:31.386Z</time></trkpt><trkpt lat="44.6644961" lon="15.9126398"><ele>1030.0</ele><time>2026-04-27T11:43:32.386Z</time></trkpt><trkpt lat="44.6645681" lon="15.912566"><ele>1030.0</ele><time>2026-04-27T11:43:33.386Z</time></trkpt><trkpt lat="44.6646297" lon="15.9124963"><ele>1030.0</ele><time>2026-04-27T11:43:34.386Z</time></trkpt><trkpt lat="44.664677" lon="15.9124276"><ele>1030.4</ele><time>2026-04-27T11:43:35.386Z</time></trkpt><trkpt lat="44.664739" lon="15.9122942"><ele>1030.8</ele><time>2026-04-27T11:43:37.386Z</time></trkpt><trkpt lat="44.6647592" lon="15.9121327"><ele>1031.2</ele><time>2026-04-27T11:43:39.386Z</time></trkpt><trkpt lat="44.6647557" lon="15.9120182"><ele>1031.6</ele><time>2026-04-27T11:43:40.386Z</time></trkpt><trkpt lat="44.6647409" lon="15.9118972"><ele>1032.0</ele><time>2026-04-27T11:43:41.386Z</time></trkpt><trkpt lat="44.6647131" lon="15.9117724"><ele>1031.1666666666667</ele><time>2026-04-27T11:43:42.386Z</time></trkpt><trkpt lat="44.6646791" lon="15.9116423"><ele>1030.3333333333333</ele><time>2026-04-27T11:43:43.386Z</time></trkpt><trkpt lat="44.664642" lon="15.9115192"><ele>1029.5</ele><time>2026-04-27T11:43:44.386Z</time></trkpt><trkpt lat="44.664607" lon="15.9114041"><ele>1028.6666666666665</ele><time>2026-04-27T11:43:45.386Z</time></trkpt><trkpt lat="44.664578" lon="15.9112965"><ele>1027.8333333333333</ele><time>2026-04-27T11:43:46.386Z</time></trkpt><trkpt lat="44.6645466" lon="15.9111905"><ele>1027.0</ele><time>2026-04-27T11:43:47.386Z</time></trkpt><trkpt lat="44.6645195" lon="15.9110887"><ele>1027.0</ele><time>2026-04-27T11:43:48.386Z</time></trkpt><trkpt lat="44.6644887" lon="15.9109867"><ele>1027.0</ele><time>2026-04-27T11:43:49.386Z</time></trkpt><trkpt lat="44.6644667" lon="15.9108946"><ele>1027.0</ele><time>2026-04-27T11:43:50.387Z</time></trkpt><trkpt lat="44.6644465" lon="15.9108065"><ele>1027.0</ele><time>2026-04-27T11:43:51.386Z</time></trkpt><trkpt lat="44.6644174" lon="15.9106309"><ele>1027.0</ele><time>2026-04-27T11:43:53.386Z</time></trkpt><trkpt lat="44.6644023" lon="15.9104929"><ele>1027.0</ele><time>2026-04-27T11:43:55.386Z</time></trkpt><trkpt lat="44.6644084" lon="15.9103768"><ele>1026.5</ele><time>2026-04-27T11:43:56.386Z</time></trkpt><trkpt lat="44.6644166" lon="15.9102809"><ele>1026.0</ele><time>2026-04-27T11:43:57.386Z</time></trkpt><trkpt lat="44.6644487" lon="15.910102"><ele>1025.5</ele><time>2026-04-27T11:43:59.386Z</time></trkpt><trkpt lat="44.664462" lon="15.909936"><ele>1025.0</ele><time>2026-04-27T11:44:01.386Z</time></trkpt><trkpt lat="44.6644608" lon="15.9098454"><ele>1024.5</ele><time>2026-04-27T11:44:02.386Z</time></trkpt><trkpt lat="44.6644517" lon="15.9097577"><ele>1024.0</ele><time>2026-04-27T11:44:03.386Z</time></trkpt><trkpt lat="44.6644397" lon="15.9096652"><ele>1024.6666666666665</ele><time>2026-04-27T11:44:04.386Z</time></trkpt><trkpt lat="44.6644215" lon="15.9095681"><ele>1025.3333333333333</ele><time>2026-04-27T11:44:05.386Z</time></trkpt><trkpt lat="44.6643996" lon="15.9094759"><ele>1026.0</ele><time>2026-04-27T11:44:06.387Z</time></trkpt><trkpt lat="44.664348" lon="15.9092902"><ele>1026.6666666666667</ele><time>2026-04-27T11:44:08.386Z</time></trkpt><trkpt lat="44.6643253" lon="15.9092056"><ele>1027.3333333333335</ele><time>2026-04-27T11:44:09.386Z</time></trkpt><trkpt lat="44.6643078" lon="15.9090961"><ele>1028.0</ele><time>2026-04-27T11:44:10.386Z</time></trkpt><trkpt lat="44.664289" lon="15.9090049"><ele>1028.0</ele><time>2026-04-27T11:44:11.386Z</time></trkpt><trkpt lat="44.6642734" lon="15.9089036"><ele>1028.0</ele><time>2026-04-27T11:44:12.386Z</time></trkpt><trkpt lat="44.664268" lon="15.9088147"><ele>1028.0</ele><time>2026-04-27T11:44:13.386Z</time></trkpt><trkpt lat="44.6642604" lon="15.9087199"><ele>1028.0</ele><time>2026-04-27T11:44:14.387Z</time></trkpt><trkpt lat="44.6642468" lon="15.9086324"><ele>1028.0</ele><time>2026-04-27T11:44:15.386Z</time></trkpt><trkpt lat="44.6641958" lon="15.9084487"><ele>1028.0</ele><time>2026-04-27T11:44:17.386Z</time></trkpt><trkpt lat="44.6641866" lon="15.9083451"><ele>1027.3333333333335</ele><time>2026-04-27T11:44:18.386Z</time></trkpt><trkpt lat="44.6641703" lon="15.9082499"><ele>1026.6666666666667</ele><time>2026-04-27T11:44:19.387Z</time></trkpt><trkpt lat="44.6641484" lon="15.9081473"><ele>1026.0</ele><time>2026-04-27T11:44:20.386Z</time></trkpt><trkpt lat="44.664138" lon="15.9080294"><ele>1025.3333333333333</ele><time>2026-04-27T11:44:21.387Z</time></trkpt><trkpt lat="44.6641219" lon="15.9079087"><ele>1024.6666666666665</ele><time>2026-04-27T11:44:22.387Z</time></trkpt><trkpt lat="44.6641073" lon="15.9078174"><ele>1024.0</ele><time>2026-04-27T11:44:23.386Z</time></trkpt><trkpt lat="44.6640779" lon="15.9076546"><ele>1022.0</ele><time>2026-04-27T11:44:25.386Z</time></trkpt><trkpt lat="44.6639838" lon="15.9075505"><ele>1020.0</ele><time>2026-04-27T11:44:27.387Z</time></trkpt><trkpt lat="44.6638917" lon="15.9074427"><ele>1018.0</ele><time>2026-04-27T11:44:29.386Z</time></trkpt><trkpt lat="44.6637863" lon="15.9073196"><ele>1016.0</ele><time>2026-04-27T11:44:31.386Z</time></trkpt><trkpt lat="44.6637276" lon="15.907258"><ele>1016.0</ele><time>2026-04-27T11:44:32.386Z</time></trkpt><trkpt lat="44.6636244" lon="15.9071353"><ele>1015.9999999999999</ele><time>2026-04-27T11:44:34.386Z</time></trkpt><trkpt lat="44.6635435" lon="15.9070746"><ele>1015.9999999999999</ele><time>2026-04-27T11:44:35.386Z</time></trkpt><trkpt lat="44.6634611" lon="15.9070113"><ele>1016.0</ele><time>2026-04-27T11:44:36.387Z</time></trkpt><trkpt lat="44.66338" lon="15.906951"><ele>1016.0</ele><time>2026-04-27T11:44:37.386Z</time></trkpt><trkpt lat="44.6632928" lon="15.9069053"><ele>1016.1666666666667</ele><time>2026-04-27T11:44:38.387Z</time></trkpt><trkpt lat="44.6631948" lon="15.90687"><ele>1016.3333333333334</ele><time>2026-04-27T11:44:39.386Z</time></trkpt><trkpt lat="44.6631125" lon="15.9068221"><ele>1016.5</ele><time>2026-04-27T11:44:40.386Z</time></trkpt><trkpt lat="44.6630289" lon="15.9067787"><ele>1016.6666666666667</ele><time>2026-04-27T11:44:41.386Z</time></trkpt><trkpt lat="44.662946" lon="15.9067528"><ele>1016.8333333333334</ele><time>2026-04-27T11:44:42.387Z</time></trkpt><trkpt lat="44.662866" lon="15.9067436"><ele>1017.0</ele><time>2026-04-27T11:44:43.386Z</time></trkpt><trkpt lat="44.6628025" lon="15.9067308"><ele>1018.5</ele><time>2026-04-27T11:44:44.386Z</time></trkpt><trkpt lat="44.6627228" lon="15.9067161"><ele>1020.0</ele><time>2026-04-27T11:44:45.386Z</time></trkpt><trkpt lat="44.6626352" lon="15.9066784"><ele>1021.5</ele><time>2026-04-27T11:44:46.386Z</time></trkpt><trkpt lat="44.6625631" lon="15.9066367"><ele>1023.0</ele><time>2026-04-27T11:44:47.386Z</time></trkpt><trkpt lat="44.6624889" lon="15.9065982"><ele>1024.5</ele><time>2026-04-27T11:44:48.386Z</time></trkpt><trkpt lat="44.6624159" lon="15.9065462"><ele>1026.0</ele><time>2026-04-27T11:44:49.386Z</time></trkpt><trkpt lat="44.662336" lon="15.9064674"><ele>1026.0</ele><time>2026-04-27T11:44:50.386Z</time></trkpt><trkpt lat="44.6622741" lon="15.9064207"><ele>1026.0</ele><time>2026-04-27T11:44:51.386Z</time></trkpt><trkpt lat="44.6622133" lon="15.9063447"><ele>1026.0</ele><time>2026-04-27T11:44:52.386Z</time></trkpt><trkpt lat="44.6621479" lon="15.9062935"><ele>1026.0</ele><time>2026-04-27T11:44:53.387Z</time></trkpt><trkpt lat="44.6620536" lon="15.9061818"><ele>1026.0</ele><time>2026-04-27T11:44:55.386Z</time></trkpt><trkpt lat="44.661993" lon="15.9061193"><ele>1026.0</ele><time>2026-04-27T11:44:56.386Z</time></trkpt><trkpt lat="44.6619214" lon="15.9060465"><ele>1025.3333333333333</ele><time>2026-04-27T11:44:57.386Z</time></trkpt><trkpt lat="44.6618488" lon="15.905976"><ele>1024.6666666666667</ele><time>2026-04-27T11:44:58.386Z</time></trkpt><trkpt lat="44.66178" lon="15.9058969"><ele>1024.0</ele><time>2026-04-27T11:44:59.386Z</time></trkpt><trkpt lat="44.6617333" lon="15.9058152"><ele>1023.3333333333334</ele><time>2026-04-27T11:45:00.386Z</time></trkpt><trkpt lat="44.6616777" lon="15.9057482"><ele>1022.6666666666667</ele><time>2026-04-27T11:45:01.386Z</time></trkpt><trkpt lat="44.6616163" lon="15.9056887"><ele>1022.0</ele><time>2026-04-27T11:45:02.387Z</time></trkpt><trkpt lat="44.6615655" lon="15.9055955"><ele>1022.0</ele><time>2026-04-27T11:45:03.387Z</time></trkpt><trkpt lat="44.6615082" lon="15.9054756"><ele>1022.0</ele><time>2026-04-27T11:45:05.386Z</time></trkpt><trkpt lat="44.6614587" lon="15.9053975"><ele>1022.0</ele><time>2026-04-27T11:45:07.387Z</time></trkpt><trkpt lat="44.6613703" lon="15.9053332"><ele>1022.0</ele><time>2026-04-27T11:45:29.386Z</time></trkpt><trkpt lat="44.6612737" lon="15.9053159"><ele>1022.0</ele><time>2026-04-27T11:45:31.386Z</time></trkpt><trkpt lat="44.6611922" lon="15.9053304"><ele>1023.2</ele><time>2026-04-27T11:45:32.386Z</time></trkpt><trkpt lat="44.6610955" lon="15.9053585"><ele>1024.4</ele><time>2026-04-27T11:45:33.386Z</time></trkpt><trkpt lat="44.6610019" lon="15.9053723"><ele>1025.6</ele><time>2026-04-27T11:45:34.386Z</time></trkpt><trkpt lat="44.6608852" lon="15.9054098"><ele>1026.8</ele><time>2026-04-27T11:45:35.386Z</time></trkpt><trkpt lat="44.6607633" lon="15.9054342"><ele>1028.0</ele><time>2026-04-27T11:45:36.387Z</time></trkpt><trkpt lat="44.660635" lon="15.9054669"><ele>1028.0</ele><time>2026-04-27T11:45:37.386Z</time></trkpt><trkpt lat="44.6605113" lon="15.9055031"><ele>1028.0</ele><time>2026-04-27T11:45:38.387Z</time></trkpt><trkpt lat="44.660396" lon="15.9055343"><ele>1028.0</ele><time>2026-04-27T11:45:39.386Z</time></trkpt><trkpt lat="44.6602887" lon="15.9055686"><ele>1028.0</ele><time>2026-04-27T11:45:40.386Z</time></trkpt><trkpt lat="44.660168" lon="15.9056024"><ele>1027.25</ele><time>2026-04-27T11:45:41.387Z</time></trkpt><trkpt lat="44.6600665" lon="15.9056228"><ele>1026.5</ele><time>2026-04-27T11:45:42.386Z</time></trkpt><trkpt lat="44.6599637" lon="15.9056538"><ele>1025.75</ele><time>2026-04-27T11:45:43.386Z</time></trkpt><trkpt lat="44.6598286" lon="15.9056979"><ele>1025.0</ele><time>2026-04-27T11:45:44.387Z</time></trkpt><trkpt lat="44.659712" lon="15.9057263"><ele>1025.0</ele><time>2026-04-27T11:45:45.386Z</time></trkpt><trkpt lat="44.6595939" lon="15.9057735"><ele>1025.0</ele><time>2026-04-27T11:45:46.386Z</time></trkpt><trkpt lat="44.6594842" lon="15.9058263"><ele>1025.0</ele><time>2026-04-27T11:45:47.386Z</time></trkpt><trkpt lat="44.6593712" lon="15.9058909"><ele>1025.0</ele><time>2026-04-27T11:45:48.386Z</time></trkpt><trkpt lat="44.6592783" lon="15.9059679"><ele>1025.6</ele><time>2026-04-27T11:45:49.386Z</time></trkpt><trkpt lat="44.6591655" lon="15.9060601"><ele>1026.2</ele><time>2026-04-27T11:45:50.386Z</time></trkpt><trkpt lat="44.6590784" lon="15.9061347"><ele>1026.8</ele><time>2026-04-27T11:45:51.386Z</time></trkpt><trkpt lat="44.6589729" lon="15.9062176"><ele>1027.4</ele><time>2026-04-27T11:45:52.386Z</time></trkpt><trkpt lat="44.6588907" lon="15.9062743"><ele>1028.0</ele><time>2026-04-27T11:45:53.386Z</time></trkpt><trkpt lat="44.6587691" lon="15.9062506"><ele>1028.0</ele><time>2026-04-27T11:45:55.386Z</time></trkpt><trkpt lat="44.658715" lon="15.9062026"><ele>1028.0</ele><time>2026-04-27T11:45:56.386Z</time></trkpt><trkpt lat="44.6586511" lon="15.9061254"><ele>1028.0</ele><time>2026-04-27T11:45:57.386Z</time></trkpt><trkpt lat="44.6585834" lon="15.90604"><ele>1028.0</ele><time>2026-04-27T11:45:58.387Z</time></trkpt><trkpt lat="44.658504" lon="15.9058865"><ele>1028.0</ele><time>2026-04-27T11:45:59.386Z</time></trkpt><trkpt lat="44.6584166" lon="15.9057264"><ele>1026.25</ele><time>2026-04-27T11:46:00.386Z</time></trkpt><trkpt lat="44.6583421" lon="15.9055823"><ele>1024.5</ele><time>2026-04-27T11:46:01.387Z</time></trkpt><trkpt lat="44.6582652" lon="15.9054364"><ele>1022.75</ele><time>2026-04-27T11:46:02.386Z</time></trkpt><trkpt lat="44.6581902" lon="15.9053086"><ele>1021.0</ele><time>2026-04-27T11:46:03.386Z</time></trkpt><trkpt lat="44.6581144" lon="15.9052134"><ele>1020.9999999999999</ele><time>2026-04-27T11:46:04.386Z</time></trkpt><trkpt lat="44.6580676" lon="15.9051395"><ele>1021.0</ele><time>2026-04-27T11:46:05.387Z</time></trkpt><trkpt lat="44.6580172" lon="15.9050465"><ele>1021.0</ele><time>2026-04-27T11:46:06.386Z</time></trkpt><trkpt lat="44.6580068" lon="15.9049577"><ele>1021.0</ele><time>2026-04-27T11:46:07.386Z</time></trkpt><trkpt lat="44.6579783" lon="15.904839"><ele>1020.9999999999999</ele><time>2026-04-27T11:46:08.386Z</time></trkpt><trkpt lat="44.6579731" lon="15.904705"><ele>1021.0</ele><time>2026-04-27T11:46:10.386Z</time></trkpt><trkpt lat="44.6579511" lon="15.9045747"><ele>1020.4285714285713</ele><time>2026-04-27T11:46:12.386Z</time></trkpt><trkpt lat="44.6579768" lon="15.904457"><ele>1019.8571428571429</ele><time>2026-04-27T11:46:14.386Z</time></trkpt><trkpt lat="44.6579465" lon="15.9043664"><ele>1019.2857142857142</ele><time>2026-04-27T11:46:17.386Z</time></trkpt><trkpt lat="44.6579062" lon="15.9042967"><ele>1018.7142857142857</ele><time>2026-04-27T11:49:40.387Z</time></trkpt><trkpt lat="44.6579714" lon="15.9042876"><ele>1018.1428571428571</ele><time>2026-04-27T11:53:15.386Z</time></trkpt><trkpt lat="44.6579012" lon="15.9043171"><ele>1017.5714285714286</ele><time>2026-04-27T12:10:49.386Z</time></trkpt><trkpt lat="44.6578489" lon="15.9043782"><ele>1017.0</ele><time>2026-04-27T12:10:51.386Z</time></trkpt><trkpt lat="44.6577461" lon="15.9044287"><ele>1016.8333333333334</ele><time>2026-04-27T12:10:53.386Z</time></trkpt><trkpt lat="44.6576507" lon="15.9044918"><ele>1016.6666666666667</ele><time>2026-04-27T12:10:55.386Z</time></trkpt><trkpt lat="44.6575781" lon="15.9045236"><ele>1016.5</ele><time>2026-04-27T12:10:56.387Z</time></trkpt><trkpt lat="44.6574851" lon="15.9045804"><ele>1016.3333333333334</ele><time>2026-04-27T12:10:57.387Z</time></trkpt><trkpt lat="44.6574211" lon="15.9045897"><ele>1016.1666666666667</ele><time>2026-04-27T12:10:58.386Z</time></trkpt><trkpt lat="44.6573525" lon="15.9046336"><ele>1016.0</ele><time>2026-04-27T12:10:59.387Z</time></trkpt><trkpt lat="44.6572735" lon="15.9046645"><ele>1016.0</ele><time>2026-04-27T12:11:00.387Z</time></trkpt><trkpt lat="44.6571913" lon="15.9047036"><ele>1015.9999999999999</ele><time>2026-04-27T12:11:01.387Z</time></trkpt><trkpt lat="44.6571284" lon="15.9047579"><ele>1015.9999999999999</ele><time>2026-04-27T12:11:02.387Z</time></trkpt><trkpt lat="44.6570411" lon="15.904822"><ele>1016.0</ele><time>2026-04-27T12:11:03.386Z</time></trkpt><trkpt lat="44.6569572" lon="15.9049036"><ele>1016.0</ele><time>2026-04-27T12:11:04.387Z</time></trkpt><trkpt lat="44.6568769" lon="15.9050112"><ele>1017.1999999999999</ele><time>2026-04-27T12:11:05.386Z</time></trkpt><trkpt lat="44.6567929" lon="15.9051035"><ele>1018.3999999999999</ele><time>2026-04-27T12:11:06.386Z</time></trkpt><trkpt lat="44.6567189" lon="15.9052038"><ele>1019.6</ele><time>2026-04-27T12:11:07.387Z</time></trkpt><trkpt lat="44.6566614" lon="15.9053055"><ele>1020.8</ele><time>2026-04-27T12:11:08.387Z</time></trkpt><trkpt lat="44.6566122" lon="15.9053765"><ele>1022.0</ele><time>2026-04-27T12:11:09.387Z</time></trkpt><trkpt lat="44.6565567" lon="15.9054902"><ele>1022.0</ele><time>2026-04-27T12:11:11.387Z</time></trkpt><trkpt lat="44.6565309" lon="15.9055761"><ele>1022.0</ele><time>2026-04-27T12:11:12.386Z</time></trkpt><trkpt lat="44.656488" lon="15.905695"><ele>1022.0</ele><time>2026-04-27T12:11:13.386Z</time></trkpt><trkpt lat="44.656459" lon="15.9058418"><ele>1022.0</ele><time>2026-04-27T12:11:14.387Z</time></trkpt><trkpt lat="44.6564241" lon="15.9059807"><ele>1022.0</ele><time>2026-04-27T12:11:15.386Z</time></trkpt><trkpt lat="44.6563997" lon="15.9061139"><ele>1023.8</ele><time>2026-04-27T12:11:16.387Z</time></trkpt><trkpt lat="44.6563811" lon="15.9062236"><ele>1025.6</ele><time>2026-04-27T12:11:17.386Z</time></trkpt><trkpt lat="44.6563638" lon="15.9063847"><ele>1027.3999999999999</ele><time>2026-04-27T12:11:18.387Z</time></trkpt><trkpt lat="44.656326" lon="15.9065138"><ele>1029.2</ele><time>2026-04-27T12:11:19.386Z</time></trkpt><trkpt lat="44.6562985" lon="15.9066473"><ele>1031.0</ele><time>2026-04-27T12:11:20.386Z</time></trkpt><trkpt lat="44.6562623" lon="15.9067732"><ele>1032.2</ele><time>2026-04-27T12:11:21.386Z</time></trkpt><trkpt lat="44.6561852" lon="15.9069045"><ele>1033.3999999999999</ele><time>2026-04-27T12:11:22.386Z</time></trkpt><trkpt lat="44.656121" lon="15.9070245"><ele>1034.6</ele><time>2026-04-27T12:11:23.387Z</time></trkpt><trkpt lat="44.6560561" lon="15.9071513"><ele>1035.8</ele><time>2026-04-27T12:11:24.386Z</time></trkpt><trkpt lat="44.6559999" lon="15.9072651"><ele>1037.0</ele><time>2026-04-27T12:11:25.387Z</time></trkpt><trkpt lat="44.6559449" lon="15.9073721"><ele>1037.0</ele><time>2026-04-27T12:11:26.386Z</time></trkpt><trkpt lat="44.6559001" lon="15.9075132"><ele>1037.0</ele><time>2026-04-27T12:11:27.387Z</time></trkpt><trkpt lat="44.6558458" lon="15.9076275"><ele>1037.0</ele><time>2026-04-27T12:11:28.386Z</time></trkpt><trkpt lat="44.6557958" lon="15.9077634"><ele>1037.0</ele><time>2026-04-27T12:11:29.386Z</time></trkpt><trkpt lat="44.6557553" lon="15.9079163"><ele>1037.0</ele><time>2026-04-27T12:11:30.386Z</time></trkpt><trkpt lat="44.6557107" lon="15.9080657"><ele>1038.5</ele><time>2026-04-27T12:11:31.386Z</time></trkpt><trkpt lat="44.6556993" lon="15.9082227"><ele>1040.0</ele><time>2026-04-27T12:11:32.386Z</time></trkpt><trkpt lat="44.655656" lon="15.9083766"><ele>1041.5</ele><time>2026-04-27T12:11:33.386Z</time></trkpt><trkpt lat="44.6556393" lon="15.9085279"><ele>1043.0</ele><time>2026-04-27T12:11:34.386Z</time></trkpt><trkpt lat="44.6556332" lon="15.9086887"><ele>1043.0</ele><time>2026-04-27T12:11:35.386Z</time></trkpt><trkpt lat="44.6556043" lon="15.9088214"><ele>1043.0</ele><time>2026-04-27T12:11:36.386Z</time></trkpt><trkpt lat="44.6555712" lon="15.9089483"><ele>1043.0</ele><time>2026-04-27T12:11:37.386Z</time></trkpt><trkpt lat="44.6555419" lon="15.9090666"><ele>1043.0</ele><time>2026-04-27T12:11:38.386Z</time></trkpt><trkpt lat="44.6555174" lon="15.9091827"><ele>1043.0</ele><time>2026-04-27T12:11:39.386Z</time></trkpt><trkpt lat="44.6554771" lon="15.9092938"><ele>1043.0</ele><time>2026-04-27T12:11:40.387Z</time></trkpt><trkpt lat="44.655446" lon="15.9094203"><ele>1043.0</ele><time>2026-04-27T12:11:41.386Z</time></trkpt><trkpt lat="44.6554105" lon="15.9095541"><ele>1043.0</ele><time>2026-04-27T12:11:42.386Z</time></trkpt><trkpt lat="44.6553838" lon="15.9096785"><ele>1043.0</ele><time>2026-04-27T12:11:43.386Z</time></trkpt><trkpt lat="44.6553572" lon="15.9098091"><ele>1043.0</ele><time>2026-04-27T12:11:44.386Z</time></trkpt><trkpt lat="44.655328" lon="15.9099424"><ele>1043.0</ele><time>2026-04-27T12:11:45.386Z</time></trkpt><trkpt lat="44.655297" lon="15.9100668"><ele>1043.0</ele><time>2026-04-27T12:11:46.386Z</time></trkpt><trkpt lat="44.6552599" lon="15.9101897"><ele>1043.0</ele><time>2026-04-27T12:11:47.386Z</time></trkpt><trkpt lat="44.6552457" lon="15.9103183"><ele>1043.0</ele><time>2026-04-27T12:11:48.387Z</time></trkpt><trkpt lat="44.6552157" lon="15.9104489"><ele>1043.0</ele><time>2026-04-27T12:11:49.387Z</time></trkpt><trkpt lat="44.6552051" lon="15.9105831"><ele>1043.0</ele><time>2026-04-27T12:11:50.386Z</time></trkpt><trkpt lat="44.6551986" lon="15.910741"><ele>1043.0</ele><time>2026-04-27T12:11:51.386Z</time></trkpt><trkpt lat="44.6551932" lon="15.9109012"><ele>1043.0</ele><time>2026-04-27T12:11:52.386Z</time></trkpt><trkpt lat="44.6551904" lon="15.9110803"><ele>1043.0</ele><time>2026-04-27T12:11:53.386Z</time></trkpt><trkpt lat="44.6552138" lon="15.9112658"><ele>1042.5</ele><time>2026-04-27T12:11:54.386Z</time></trkpt><trkpt lat="44.6552424" lon="15.9114204"><ele>1042.0</ele><time>2026-04-27T12:11:55.386Z</time></trkpt><trkpt lat="44.6552406" lon="15.9115943"><ele>1041.5</ele><time>2026-04-27T12:11:56.387Z</time></trkpt><trkpt lat="44.6552703" lon="15.9117495"><ele>1041.0</ele><time>2026-04-27T12:11:57.387Z</time></trkpt><trkpt lat="44.6552871" lon="15.9119203"><ele>1039.8</ele><time>2026-04-27T12:11:58.387Z</time></trkpt><trkpt lat="44.6553187" lon="15.9120848"><ele>1038.6</ele><time>2026-04-27T12:11:59.386Z</time></trkpt><trkpt lat="44.6553374" lon="15.9122147"><ele>1037.4</ele><time>2026-04-27T12:12:00.386Z</time></trkpt><trkpt lat="44.6553509" lon="15.9123573"><ele>1036.2</ele><time>2026-04-27T12:12:01.387Z</time></trkpt><trkpt lat="44.6553783" lon="15.9124435"><ele>1035.0</ele><time>2026-04-27T12:12:02.386Z</time></trkpt><trkpt lat="44.6553747" lon="15.912584"><ele>1033.6</ele><time>2026-04-27T12:12:04.387Z</time></trkpt><trkpt lat="44.6553775" lon="15.9127599"><ele>1032.2</ele><time>2026-04-27T12:12:06.386Z</time></trkpt><trkpt lat="44.6552579" lon="15.9128531"><ele>1030.8</ele><time>2026-04-27T12:12:08.386Z</time></trkpt><trkpt lat="44.6551971" lon="15.9128839"><ele>1029.4</ele><time>2026-04-27T12:12:09.386Z</time></trkpt><trkpt lat="44.6551102" lon="15.9129113"><ele>1028.0</ele><time>2026-04-27T12:12:10.386Z</time></trkpt><trkpt lat="44.6550308" lon="15.912932"><ele>1027.4</ele><time>2026-04-27T12:12:11.386Z</time></trkpt><trkpt lat="44.6549538" lon="15.9129748"><ele>1026.8</ele><time>2026-04-27T12:12:12.387Z</time></trkpt><trkpt lat="44.6548942" lon="15.9130439"><ele>1026.2</ele><time>2026-04-27T12:12:13.386Z</time></trkpt><trkpt lat="44.6548122" lon="15.9131287"><ele>1025.6</ele><time>2026-04-27T12:12:14.386Z</time></trkpt><trkpt lat="44.6547313" lon="15.91323"><ele>1025.0</ele><time>2026-04-27T12:12:15.386Z</time></trkpt><trkpt lat="44.6546268" lon="15.9133346"><ele>1022.4</ele><time>2026-04-27T12:12:16.386Z</time></trkpt><trkpt lat="44.6545463" lon="15.9134196"><ele>1019.8</ele><time>2026-04-27T12:12:17.386Z</time></trkpt><trkpt lat="44.6544554" lon="15.9134887"><ele>1017.2</ele><time>2026-04-27T12:12:18.386Z</time></trkpt><trkpt lat="44.6543687" lon="15.9135482"><ele>1014.6</ele><time>2026-04-27T12:12:19.386Z</time></trkpt><trkpt lat="44.6542561" lon="15.9135705"><ele>1012.0</ele><time>2026-04-27T12:12:20.386Z</time></trkpt><trkpt lat="44.6541691" lon="15.9136014"><ele>1011.9999999999999</ele><time>2026-04-27T12:12:21.386Z</time></trkpt><trkpt lat="44.6540806" lon="15.9135882"><ele>1012.0</ele><time>2026-04-27T12:12:22.386Z</time></trkpt><trkpt lat="44.6539994" lon="15.9135433"><ele>1012.0</ele><time>2026-04-27T12:12:23.386Z</time></trkpt><trkpt lat="44.6539277" lon="15.9134819"><ele>1012.0</ele><time>2026-04-27T12:12:24.386Z</time></trkpt><trkpt lat="44.6538631" lon="15.9133923"><ele>1011.9999999999999</ele><time>2026-04-27T12:12:25.386Z</time></trkpt><trkpt lat="44.6538114" lon="15.9133057"><ele>1012.0</ele><time>2026-04-27T12:12:26.386Z</time></trkpt><trkpt lat="44.6537572" lon="15.9132374"><ele>1013.8333333333333</ele><time>2026-04-27T12:12:27.386Z</time></trkpt><trkpt lat="44.6537023" lon="15.9131885"><ele>1015.6666666666666</ele><time>2026-04-27T12:12:28.386Z</time></trkpt><trkpt lat="44.6536072" lon="15.9132394"><ele>1017.5</ele><time>2026-04-27T12:12:31.386Z</time></trkpt><trkpt lat="44.6535485" lon="15.9133971"><ele>1019.3333333333333</ele><time>2026-04-27T12:12:33.386Z</time></trkpt><trkpt lat="44.6535408" lon="15.9134941"><ele>1021.1666666666666</ele><time>2026-04-27T12:12:34.387Z</time></trkpt><trkpt lat="44.6535123" lon="15.913591"><ele>1023.0</ele><time>2026-04-27T12:12:35.386Z</time></trkpt><trkpt lat="44.6534745" lon="15.9137154"><ele>1023.0</ele><time>2026-04-27T12:12:36.387Z</time></trkpt><trkpt lat="44.653446" lon="15.9138402"><ele>1023.0</ele><time>2026-04-27T12:12:37.387Z</time></trkpt><trkpt lat="44.6533643" lon="15.9139665"><ele>1023.0</ele><time>2026-04-27T12:12:38.386Z</time></trkpt><trkpt lat="44.6533172" lon="15.9140978"><ele>1023.0</ele><time>2026-04-27T12:12:39.387Z</time></trkpt><trkpt lat="44.6532966" lon="15.9142185"><ele>1023.0</ele><time>2026-04-27T12:12:40.387Z</time></trkpt><trkpt lat="44.6532947" lon="15.9143574"><ele>1021.0</ele><time>2026-04-27T12:12:41.386Z</time></trkpt><trkpt lat="44.6533011" lon="15.9144965"><ele>1019.0</ele><time>2026-04-27T12:12:42.386Z</time></trkpt><trkpt lat="44.6532792" lon="15.9146272"><ele>1017.0</ele><time>2026-04-27T12:12:43.387Z</time></trkpt><trkpt lat="44.6532631" lon="15.9147553"><ele>1015.0</ele><time>2026-04-27T12:12:44.387Z</time></trkpt><trkpt lat="44.6532267" lon="15.914861"><ele>1013.0</ele><time>2026-04-27T12:12:45.386Z</time></trkpt><trkpt lat="44.6531607" lon="15.9149824"><ele>1010.2</ele><time>2026-04-27T12:12:46.386Z</time></trkpt><trkpt lat="44.6531136" lon="15.9151128"><ele>1007.4</ele><time>2026-04-27T12:12:47.387Z</time></trkpt><trkpt lat="44.6530515" lon="15.9152513"><ele>1004.6000000000001</ele><time>2026-04-27T12:12:48.386Z</time></trkpt><trkpt lat="44.6529844" lon="15.9153779"><ele>1001.8000000000001</ele><time>2026-04-27T12:12:49.387Z</time></trkpt><trkpt lat="44.6529085" lon="15.9154662"><ele>999.0</ele><time>2026-04-27T12:12:50.387Z</time></trkpt><trkpt lat="44.6528352" lon="15.9155503"><ele>998.6</ele><time>2026-04-27T12:12:51.386Z</time></trkpt><trkpt lat="44.6527637" lon="15.9156316"><ele>998.2</ele><time>2026-04-27T12:12:52.386Z</time></trkpt><trkpt lat="44.6526899" lon="15.9157221"><ele>997.8000000000001</ele><time>2026-04-27T12:12:53.387Z</time></trkpt><trkpt lat="44.6526113" lon="15.9158399"><ele>997.4000000000001</ele><time>2026-04-27T12:12:54.387Z</time></trkpt><trkpt lat="44.652543" lon="15.9159543"><ele>997.0</ele><time>2026-04-27T12:12:55.386Z</time></trkpt><trkpt lat="44.6524798" lon="15.9160771"><ele>997.0</ele><time>2026-04-27T12:12:56.386Z</time></trkpt><trkpt lat="44.6524165" lon="15.916202"><ele>997.0</ele><time>2026-04-27T12:12:57.386Z</time></trkpt><trkpt lat="44.6523545" lon="15.9163331"><ele>997.0</ele><time>2026-04-27T12:12:58.387Z</time></trkpt><trkpt lat="44.6522921" lon="15.9164581"><ele>997.0</ele><time>2026-04-27T12:12:59.386Z</time></trkpt><trkpt lat="44.6522255" lon="15.9165882"><ele>997.0</ele><time>2026-04-27T12:13:00.387Z</time></trkpt><trkpt lat="44.6521561" lon="15.9167121"><ele>996.4000000000001</ele><time>2026-04-27T12:13:01.386Z</time></trkpt><trkpt lat="44.6520894" lon="15.9168289"><ele>995.8000000000001</ele><time>2026-04-27T12:13:02.386Z</time></trkpt><trkpt lat="44.652031" lon="15.9169528"><ele>995.2</ele><time>2026-04-27T12:13:03.386Z</time></trkpt><trkpt lat="44.6519655" lon="15.9170846"><ele>994.6</ele><time>2026-04-27T12:13:04.386Z</time></trkpt><trkpt lat="44.6519059" lon="15.9172175"><ele>994.0</ele><time>2026-04-27T12:13:05.386Z</time></trkpt><trkpt lat="44.6518518" lon="15.9173284"><ele>994.0</ele><time>2026-04-27T12:13:06.387Z</time></trkpt><trkpt lat="44.6517962" lon="15.9174247"><ele>994.0000000000001</ele><time>2026-04-27T12:13:07.387Z</time></trkpt><trkpt lat="44.6517211" lon="15.9175262"><ele>994.0000000000001</ele><time>2026-04-27T12:13:08.386Z</time></trkpt><trkpt lat="44.6516347" lon="15.9176436"><ele>994.0</ele><time>2026-04-27T12:13:09.386Z</time></trkpt><trkpt lat="44.6515432" lon="15.9177636"><ele>994.0</ele><time>2026-04-27T12:13:10.386Z</time></trkpt><trkpt lat="44.6514533" lon="15.9178821"><ele>989.0</ele><time>2026-04-27T12:13:11.386Z</time></trkpt><trkpt lat="44.6513621" lon="15.9180052"><ele>984.0</ele><time>2026-04-27T12:13:12.386Z</time></trkpt><trkpt lat="44.651276" lon="15.9181311"><ele>979.0</ele><time>2026-04-27T12:13:13.387Z</time></trkpt><trkpt lat="44.6512037" lon="15.9182527"><ele>974.0</ele><time>2026-04-27T12:13:14.386Z</time></trkpt><trkpt lat="44.6511368" lon="15.9183578"><ele>973.0</ele><time>2026-04-27T12:13:15.387Z</time></trkpt><trkpt lat="44.6510727" lon="15.9184669"><ele>972.0000000000001</ele><time>2026-04-27T12:13:16.386Z</time></trkpt><trkpt lat="44.6510134" lon="15.9185689"><ele>971.0000000000001</ele><time>2026-04-27T12:13:17.386Z</time></trkpt><trkpt lat="44.6509499" lon="15.9186679"><ele>970.0</ele><time>2026-04-27T12:13:18.386Z</time></trkpt><trkpt lat="44.650863" lon="15.9187422"><ele>969.0</ele><time>2026-04-27T12:13:19.387Z</time></trkpt><trkpt lat="44.6507662" lon="15.9188106"><ele>969.0</ele><time>2026-04-27T12:13:20.386Z</time></trkpt><trkpt lat="44.6506413" lon="15.9188603"><ele>969.0</ele><time>2026-04-27T12:13:21.387Z</time></trkpt><trkpt lat="44.6505179" lon="15.9188982"><ele>969.0</ele><time>2026-04-27T12:13:22.387Z</time></trkpt><trkpt lat="44.6504063" lon="15.9189206"><ele>969.0</ele><time>2026-04-27T12:13:23.386Z</time></trkpt><trkpt lat="44.6502819" lon="15.918931"><ele>968.3333333333334</ele><time>2026-04-27T12:13:24.386Z</time></trkpt><trkpt lat="44.6501578" lon="15.9189282"><ele>967.6666666666667</ele><time>2026-04-27T12:13:25.387Z</time></trkpt><trkpt lat="44.6500739" lon="15.9189137"><ele>967.0</ele><time>2026-04-27T12:13:26.386Z</time></trkpt><trkpt lat="44.6499849" lon="15.9189058"><ele>966.3333333333334</ele><time>2026-04-27T12:13:27.386Z</time></trkpt><trkpt lat="44.6499137" lon="15.918875"><ele>965.6666666666667</ele><time>2026-04-27T12:13:28.386Z</time></trkpt><trkpt lat="44.6498596" lon="15.9188242"><ele>965.0</ele><time>2026-04-27T12:13:29.386Z</time></trkpt><trkpt lat="44.6498085" lon="15.9187479"><ele>965.0</ele><time>2026-04-27T12:13:30.386Z</time></trkpt><trkpt lat="44.6497414" lon="15.9186453"><ele>965.0</ele><time>2026-04-27T12:13:31.386Z</time></trkpt><trkpt lat="44.6496696" lon="15.918551"><ele>965.0</ele><time>2026-04-27T12:13:32.386Z</time></trkpt><trkpt lat="44.649617" lon="15.9184741"><ele>965.0</ele><time>2026-04-27T12:13:33.386Z</time></trkpt><trkpt lat="44.6495111" lon="15.9184147"><ele>965.0</ele><time>2026-04-27T12:13:35.386Z</time></trkpt><trkpt lat="44.6493828" lon="15.9184446"><ele>962.8</ele><time>2026-04-27T12:13:37.386Z</time></trkpt><trkpt lat="44.6493161" lon="15.9184925"><ele>960.6</ele><time>2026-04-27T12:13:38.386Z</time></trkpt><trkpt lat="44.6492416" lon="15.9185006"><ele>958.4000000000001</ele><time>2026-04-27T12:13:39.387Z</time></trkpt><trkpt lat="44.649156" lon="15.918531"><ele>956.2</ele><time>2026-04-27T12:13:40.387Z</time></trkpt><trkpt lat="44.6490633" lon="15.9185375"><ele>954.0</ele><time>2026-04-27T12:13:41.386Z</time></trkpt><trkpt lat="44.6489447" lon="15.918514"><ele>954.0</ele><time>2026-04-27T12:13:42.387Z</time></trkpt><trkpt lat="44.6488117" lon="15.9184962"><ele>954.0</ele><time>2026-04-27T12:13:43.386Z</time></trkpt><trkpt lat="44.6486758" lon="15.9184757"><ele>954.0</ele><time>2026-04-27T12:13:44.386Z</time></trkpt><trkpt lat="44.6484846" lon="15.9184948"><ele>953.4000000000001</ele><time>2026-04-27T12:13:46.386Z</time></trkpt><trkpt lat="44.6483776" lon="15.9184959"><ele>952.8000000000001</ele><time>2026-04-27T12:13:47.386Z</time></trkpt><trkpt lat="44.6482755" lon="15.9184906"><ele>952.1999999999999</ele><time>2026-04-27T12:13:48.387Z</time></trkpt><trkpt lat="44.6481907" lon="15.9184983"><ele>951.5999999999999</ele><time>2026-04-27T12:13:49.386Z</time></trkpt><trkpt lat="44.6480862" lon="15.9185021"><ele>951.0</ele><time>2026-04-27T12:13:50.386Z</time></trkpt><trkpt lat="44.6480041" lon="15.9185411"><ele>951.0</ele><time>2026-04-27T12:13:51.386Z</time></trkpt><trkpt lat="44.6478974" lon="15.9186064"><ele>951.0</ele><time>2026-04-27T12:13:52.386Z</time></trkpt><trkpt lat="44.6478086" lon="15.9186738"><ele>951.0</ele><time>2026-04-27T12:13:53.386Z</time></trkpt><trkpt lat="44.647695" lon="15.9187189"><ele>951.0</ele><time>2026-04-27T12:13:54.387Z</time></trkpt><trkpt lat="44.6475721" lon="15.9187666"><ele>951.1999999999999</ele><time>2026-04-27T12:13:55.386Z</time></trkpt><trkpt lat="44.6474569" lon="15.918797"><ele>951.3999999999999</ele><time>2026-04-27T12:13:56.386Z</time></trkpt><trkpt lat="44.647344" lon="15.9188192"><ele>951.6</ele><time>2026-04-27T12:13:57.386Z</time></trkpt><trkpt lat="44.6472786" lon="15.9188258"><ele>951.8</ele><time>2026-04-27T12:13:58.387Z</time></trkpt><trkpt lat="44.6471989" lon="15.9188473"><ele>952.0</ele><time>2026-04-27T12:13:59.386Z</time></trkpt><trkpt lat="44.6471284" lon="15.9187847"><ele>952.0</ele><time>2026-04-27T12:14:01.386Z</time></trkpt><trkpt lat="44.6470376" lon="15.9186244"><ele>952.0</ele><time>2026-04-27T12:14:03.386Z</time></trkpt><trkpt lat="44.6469859" lon="15.9185241"><ele>952.0</ele><time>2026-04-27T12:14:04.386Z</time></trkpt><trkpt lat="44.6469366" lon="15.9184381"><ele>952.0</ele><time>2026-04-27T12:14:05.387Z</time></trkpt><trkpt lat="44.6468765" lon="15.9183352"><ele>952.0</ele><time>2026-04-27T12:14:06.386Z</time></trkpt><trkpt lat="44.646791" lon="15.9182914"><ele>952.1666666666666</ele><time>2026-04-27T12:14:08.387Z</time></trkpt><trkpt lat="44.6467095" lon="15.9183647"><ele>952.3333333333333</ele><time>2026-04-27T12:14:11.387Z</time></trkpt><trkpt lat="44.6466619" lon="15.9184909"><ele>952.5</ele><time>2026-04-27T12:14:12.387Z</time></trkpt><trkpt lat="44.6466416" lon="15.9186025"><ele>952.6666666666667</ele><time>2026-04-27T12:14:13.387Z</time></trkpt><trkpt lat="44.6466092" lon="15.9187091"><ele>952.8333333333334</ele><time>2026-04-27T12:14:14.386Z</time></trkpt><trkpt lat="44.6465856" lon="15.9188053"><ele>953.0</ele><time>2026-04-27T12:14:15.386Z</time></trkpt><trkpt lat="44.6465193" lon="15.9188891"><ele>953.0</ele><time>2026-04-27T12:14:16.386Z</time></trkpt><trkpt lat="44.6464872" lon="15.9189718"><ele>953.0</ele><time>2026-04-27T12:14:17.387Z</time></trkpt><trkpt lat="44.6464196" lon="15.9189959"><ele>953.0</ele><time>2026-04-27T12:14:18.386Z</time></trkpt><trkpt lat="44.6463062" lon="15.9190146"><ele>953.0</ele><time>2026-04-27T12:14:20.386Z</time></trkpt><trkpt lat="44.6461879" lon="15.9189557"><ele>953.0</ele><time>2026-04-27T12:14:22.386Z</time></trkpt><trkpt lat="44.646054" lon="15.9188641"><ele>954.0</ele><time>2026-04-27T12:14:24.386Z</time></trkpt><trkpt lat="44.6459248" lon="15.9187653"><ele>955.0</ele><time>2026-04-27T12:14:26.386Z</time></trkpt><trkpt lat="44.6458476" lon="15.9187236"><ele>956.0</ele><time>2026-04-27T12:14:27.386Z</time></trkpt><trkpt lat="44.6457742" lon="15.9186937"><ele>957.0</ele><time>2026-04-27T12:14:28.386Z</time></trkpt><trkpt lat="44.6456729" lon="15.9186766"><ele>958.0</ele><time>2026-04-27T12:14:29.386Z</time></trkpt><trkpt lat="44.6455766" lon="15.9186626"><ele>958.0</ele><time>2026-04-27T12:14:30.386Z</time></trkpt><trkpt lat="44.6454771" lon="15.9186383"><ele>958.0</ele><time>2026-04-27T12:14:31.386Z</time></trkpt><trkpt lat="44.6453638" lon="15.9186621"><ele>958.0</ele><time>2026-04-27T12:14:33.386Z</time></trkpt><trkpt lat="44.6452822" lon="15.9187128"><ele>958.0</ele><time>2026-04-27T12:14:35.386Z</time></trkpt><trkpt lat="44.6453072" lon="15.9188199"><ele>958.0</ele><time>2026-04-27T12:14:37.386Z</time></trkpt><trkpt lat="44.6453331" lon="15.9189128"><ele>957.9999999999999</ele><time>2026-04-27T12:14:39.387Z</time></trkpt><trkpt lat="44.6454377" lon="15.9189816"><ele>958.0</ele><time>2026-04-27T12:14:40.386Z</time></trkpt><trkpt lat="44.6455079" lon="15.9190285"><ele>958.0</ele><time>2026-04-27T12:14:41.386Z</time></trkpt><trkpt lat="44.6455593" lon="15.9190878"><ele>958.0</ele><time>2026-04-27T12:14:42.386Z</time></trkpt><trkpt lat="44.6455942" lon="15.9191749"><ele>957.9999999999999</ele><time>2026-04-27T12:14:43.387Z</time></trkpt><trkpt lat="44.6456211" lon="15.9192561"><ele>958.0</ele><time>2026-04-27T12:14:44.386Z</time></trkpt><trkpt lat="44.6456693" lon="15.9193717"><ele>956.6666666666666</ele><time>2026-04-27T12:14:45.386Z</time></trkpt><trkpt lat="44.6456171" lon="15.919441"><ele>955.3333333333333</ele><time>2026-04-27T12:14:46.387Z</time></trkpt><trkpt lat="44.6456151" lon="15.9195545"><ele>954.0</ele><time>2026-04-27T12:14:47.386Z</time></trkpt><trkpt lat="44.645588" lon="15.9196568"><ele>952.6666666666667</ele><time>2026-04-27T12:14:48.386Z</time></trkpt><trkpt lat="44.6455685" lon="15.9197738"><ele>951.3333333333334</ele><time>2026-04-27T12:14:49.386Z</time></trkpt><trkpt lat="44.6455462" lon="15.9199281"><ele>950.0</ele><time>2026-04-27T12:14:50.387Z</time></trkpt><trkpt lat="44.6455011" lon="15.9200984"><ele>950.0000000000001</ele><time>2026-04-27T12:14:51.386Z</time></trkpt><trkpt lat="44.6454659" lon="15.920218"><ele>950.0</ele><time>2026-04-27T12:14:52.387Z</time></trkpt><trkpt lat="44.6454614" lon="15.9203365"><ele>950.0</ele><time>2026-04-27T12:14:53.386Z</time></trkpt><trkpt lat="44.6454564" lon="15.9204569"><ele>950.0</ele><time>2026-04-27T12:14:54.386Z</time></trkpt><trkpt lat="44.6454538" lon="15.92057"><ele>950.0000000000001</ele><time>2026-04-27T12:14:55.386Z</time></trkpt><trkpt lat="44.6454537" lon="15.920693"><ele>950.0</ele><time>2026-04-27T12:14:56.387Z</time></trkpt><trkpt lat="44.6454186" lon="15.9208191"><ele>950.2</ele><time>2026-04-27T12:14:57.386Z</time></trkpt><trkpt lat="44.6453694" lon="15.9209026"><ele>950.4</ele><time>2026-04-27T12:14:58.387Z</time></trkpt><trkpt lat="44.6453459" lon="15.9210116"><ele>950.5999999999999</ele><time>2026-04-27T12:14:59.387Z</time></trkpt><trkpt lat="44.645386" lon="15.9212087"><ele>950.8</ele><time>2026-04-27T12:15:00.386Z</time></trkpt><trkpt lat="44.6453694" lon="15.9213722"><ele>951.0</ele><time>2026-04-27T12:15:01.386Z</time></trkpt><trkpt lat="44.6453569" lon="15.9215325"><ele>951.0</ele><time>2026-04-27T12:15:02.386Z</time></trkpt><trkpt lat="44.6453355" lon="15.9216741"><ele>951.0</ele><time>2026-04-27T12:15:03.386Z</time></trkpt><trkpt lat="44.6453189" lon="15.9218309"><ele>951.0</ele><time>2026-04-27T12:15:04.386Z</time></trkpt><trkpt lat="44.6453065" lon="15.9220045"><ele>951.0</ele><time>2026-04-27T12:15:05.386Z</time></trkpt><trkpt lat="44.6452892" lon="15.9221825"><ele>955.0</ele><time>2026-04-27T12:15:06.386Z</time></trkpt><trkpt lat="44.6452552" lon="15.9223446"><ele>958.9999999999999</ele><time>2026-04-27T12:15:07.386Z</time></trkpt><trkpt lat="44.6452085" lon="15.9224918"><ele>962.9999999999999</ele><time>2026-04-27T12:15:08.386Z</time></trkpt><trkpt lat="44.6451895" lon="15.9226144"><ele>967.0</ele><time>2026-04-27T12:15:09.387Z</time></trkpt><trkpt lat="44.6451678" lon="15.9227389"><ele>971.0</ele><time>2026-04-27T12:15:10.386Z</time></trkpt><trkpt lat="44.6450867" lon="15.9228618"><ele>971.0</ele><time>2026-04-27T12:15:11.386Z</time></trkpt><trkpt lat="44.6450383" lon="15.922984"><ele>971.0</ele><time>2026-04-27T12:15:12.386Z</time></trkpt><trkpt lat="44.6449242" lon="15.9230856"><ele>971.0</ele><time>2026-04-27T12:15:13.387Z</time></trkpt><trkpt lat="44.644791" lon="15.9231916"><ele>971.0</ele><time>2026-04-27T12:15:14.387Z</time></trkpt><trkpt lat="44.6447092" lon="15.9233077"><ele>969.1999999999999</ele><time>2026-04-27T12:15:15.387Z</time></trkpt><trkpt lat="44.6446228" lon="15.9234152"><ele>967.3999999999999</ele><time>2026-04-27T12:15:16.386Z</time></trkpt><trkpt lat="44.6445677" lon="15.9234928"><ele>965.6</ele><time>2026-04-27T12:15:17.386Z</time></trkpt><trkpt lat="44.6444872" lon="15.9235865"><ele>963.8</ele><time>2026-04-27T12:15:18.386Z</time></trkpt><trkpt lat="44.6444309" lon="15.9237123"><ele>962.0</ele><time>2026-04-27T12:15:19.386Z</time></trkpt><trkpt lat="44.6444214" lon="15.923828"><ele>962.0</ele><time>2026-04-27T12:15:20.386Z</time></trkpt><trkpt lat="44.6444485" lon="15.9240318"><ele>962.0</ele><time>2026-04-27T12:15:21.386Z</time></trkpt><trkpt lat="44.6444841" lon="15.9241913"><ele>962.0</ele><time>2026-04-27T12:15:22.386Z</time></trkpt><trkpt lat="44.6444811" lon="15.9243009"><ele>962.0</ele><time>2026-04-27T12:15:23.386Z</time></trkpt><trkpt lat="44.644482" lon="15.9244636"><ele>966.6</ele><time>2026-04-27T12:15:25.386Z</time></trkpt><trkpt lat="44.6444307" lon="15.9245965"><ele>971.2</ele><time>2026-04-27T12:15:27.386Z</time></trkpt><trkpt lat="44.644343" lon="15.924686"><ele>975.8</ele><time>2026-04-27T12:15:28.386Z</time></trkpt><trkpt lat="44.6442861" lon="15.9247911"><ele>980.4</ele><time>2026-04-27T12:15:29.386Z</time></trkpt><trkpt lat="44.6442143" lon="15.9248927"><ele>985.0</ele><time>2026-04-27T12:15:30.387Z</time></trkpt><trkpt lat="44.6441628" lon="15.9250177"><ele>983.4</ele><time>2026-04-27T12:15:31.386Z</time></trkpt><trkpt lat="44.6441149" lon="15.9251555"><ele>981.8</ele><time>2026-04-27T12:15:32.387Z</time></trkpt><trkpt lat="44.6440553" lon="15.9252465"><ele>980.2</ele><time>2026-04-27T12:15:33.387Z</time></trkpt><trkpt lat="44.6439873" lon="15.9253138"><ele>978.6</ele><time>2026-04-27T12:15:34.387Z</time></trkpt><trkpt lat="44.6438925" lon="15.9253687"><ele>977.0</ele><time>2026-04-27T12:15:35.386Z</time></trkpt><trkpt lat="44.6437995" lon="15.9254141"><ele>977.0</ele><time>2026-04-27T12:15:36.386Z</time></trkpt><trkpt lat="44.643688" lon="15.9254521"><ele>977.0</ele><time>2026-04-27T12:15:37.386Z</time></trkpt><trkpt lat="44.6435912" lon="15.9254695"><ele>977.0</ele><time>2026-04-27T12:15:38.386Z</time></trkpt><trkpt lat="44.643494" lon="15.9254767"><ele>977.0</ele><time>2026-04-27T12:15:39.386Z</time></trkpt><trkpt lat="44.6433799" lon="15.9255041"><ele>977.0</ele><time>2026-04-27T12:15:40.386Z</time></trkpt><trkpt lat="44.6432536" lon="15.9254902"><ele>975.25</ele><time>2026-04-27T12:15:41.387Z</time></trkpt><trkpt lat="44.6431334" lon="15.9254912"><ele>973.5</ele><time>2026-04-27T12:15:42.387Z</time></trkpt><trkpt lat="44.6430266" lon="15.9254572"><ele>971.75</ele><time>2026-04-27T12:15:43.386Z</time></trkpt><trkpt lat="44.6429197" lon="15.9254705"><ele>970.0</ele><time>2026-04-27T12:15:44.386Z</time></trkpt><trkpt lat="44.6428107" lon="15.9254296"><ele>965.75</ele><time>2026-04-27T12:15:45.387Z</time></trkpt><trkpt lat="44.6426723" lon="15.9253796"><ele>961.5</ele><time>2026-04-27T12:15:46.386Z</time></trkpt><trkpt lat="44.6425736" lon="15.9253306"><ele>957.25</ele><time>2026-04-27T12:15:47.386Z</time></trkpt><trkpt lat="44.642472" lon="15.9252721"><ele>953.0</ele><time>2026-04-27T12:15:48.386Z</time></trkpt><trkpt lat="44.6423827" lon="15.9251901"><ele>953.0</ele><time>2026-04-27T12:15:49.386Z</time></trkpt><trkpt lat="44.6422889" lon="15.9251055"><ele>953.0</ele><time>2026-04-27T12:15:50.386Z</time></trkpt><trkpt lat="44.6422131" lon="15.9250152"><ele>953.0</ele><time>2026-04-27T12:15:51.387Z</time></trkpt><trkpt lat="44.6421202" lon="15.9249079"><ele>953.0</ele><time>2026-04-27T12:15:52.386Z</time></trkpt><trkpt lat="44.6420304" lon="15.9248169"><ele>953.0</ele><time>2026-04-27T12:15:53.386Z</time></trkpt><trkpt lat="44.6419323" lon="15.9247322"><ele>951.6666666666667</ele><time>2026-04-27T12:15:54.386Z</time></trkpt><trkpt lat="44.6418305" lon="15.9246289"><ele>950.3333333333333</ele><time>2026-04-27T12:15:55.387Z</time></trkpt><trkpt lat="44.6416642" lon="15.9244528"><ele>949.0</ele><time>2026-04-27T12:15:56.386Z</time></trkpt><trkpt lat="44.6415448" lon="15.9243322"><ele>947.0</ele><time>2026-04-27T12:15:57.387Z</time></trkpt><trkpt lat="44.6414337" lon="15.9242203"><ele>945.0</ele><time>2026-04-27T12:15:58.387Z</time></trkpt><trkpt lat="44.6413275" lon="15.9240877"><ele>943.0</ele><time>2026-04-27T12:15:59.386Z</time></trkpt><trkpt lat="44.6412249" lon="15.9239762"><ele>941.0</ele><time>2026-04-27T12:16:00.386Z</time></trkpt><trkpt lat="44.6411114" lon="15.9238687"><ele>941.0</ele><time>2026-04-27T12:16:01.387Z</time></trkpt><trkpt lat="44.6410135" lon="15.9237701"><ele>941.0</ele><time>2026-04-27T12:16:02.386Z</time></trkpt><trkpt lat="44.6409172" lon="15.9236721"><ele>941.0</ele><time>2026-04-27T12:16:03.386Z</time></trkpt><trkpt lat="44.6408216" lon="15.923582"><ele>941.0</ele><time>2026-04-27T12:16:04.387Z</time></trkpt><trkpt lat="44.6407229" lon="15.9234958"><ele>945.75</ele><time>2026-04-27T12:16:05.387Z</time></trkpt><trkpt lat="44.640611" lon="15.9233897"><ele>950.5</ele><time>2026-04-27T12:16:06.386Z</time></trkpt><trkpt lat="44.6405095" lon="15.9233035"><ele>955.25</ele><time>2026-04-27T12:16:07.386Z</time></trkpt><trkpt lat="44.6404052" lon="15.9232202"><ele>960.0</ele><time>2026-04-27T12:16:08.386Z</time></trkpt><trkpt lat="44.6403112" lon="15.9231346"><ele>958.0</ele><time>2026-04-27T12:16:09.387Z</time></trkpt><trkpt lat="44.6402298" lon="15.9230349"><ele>956.0</ele><time>2026-04-27T12:16:10.387Z</time></trkpt><trkpt lat="44.6401522" lon="15.9229244"><ele>954.0</ele><time>2026-04-27T12:16:11.387Z</time></trkpt><trkpt lat="44.6400944" lon="15.9228118"><ele>952.0</ele><time>2026-04-27T12:16:12.387Z</time></trkpt><trkpt lat="44.6400367" lon="15.9226749"><ele>950.0</ele><time>2026-04-27T12:16:13.387Z</time></trkpt><trkpt lat="44.6399753" lon="15.9225396"><ele>950.0</ele><time>2026-04-27T12:16:14.386Z</time></trkpt><trkpt lat="44.63992" lon="15.9223858"><ele>950.0</ele><time>2026-04-27T12:16:15.386Z</time></trkpt><trkpt lat="44.6398587" lon="15.9222578"><ele>950.0</ele><time>2026-04-27T12:16:16.386Z</time></trkpt><trkpt lat="44.6397731" lon="15.9221193"><ele>950.0</ele><time>2026-04-27T12:16:17.387Z</time></trkpt><trkpt lat="44.6396799" lon="15.9220033"><ele>950.0</ele><time>2026-04-27T12:16:18.387Z</time></trkpt><trkpt lat="44.6396079" lon="15.9218856"><ele>950.0</ele><time>2026-04-27T12:16:19.386Z</time></trkpt><trkpt lat="44.6395406" lon="15.9217848"><ele>950.0</ele><time>2026-04-27T12:16:20.387Z</time></trkpt><trkpt lat="44.6394854" lon="15.921688"><ele>950.0</ele><time>2026-04-27T12:16:21.386Z</time></trkpt><trkpt lat="44.6394429" lon="15.9215732"><ele>950.0</ele><time>2026-04-27T12:16:22.387Z</time></trkpt><trkpt lat="44.6394118" lon="15.9214386"><ele>947.3333333333334</ele><time>2026-04-27T12:16:23.386Z</time></trkpt><trkpt lat="44.6393847" lon="15.921317"><ele>944.6666666666667</ele><time>2026-04-27T12:16:24.386Z</time></trkpt><trkpt lat="44.6393448" lon="15.9212178"><ele>942.0</ele><time>2026-04-27T12:16:25.386Z</time></trkpt><trkpt lat="44.6392814" lon="15.921137"><ele>939.3333333333333</ele><time>2026-04-27T12:16:26.386Z</time></trkpt><trkpt lat="44.6392282" lon="15.9210524"><ele>936.6666666666666</ele><time>2026-04-27T12:16:27.386Z</time></trkpt><trkpt lat="44.6391446" lon="15.9209769"><ele>934.0</ele><time>2026-04-27T12:16:28.386Z</time></trkpt><trkpt lat="44.6390714" lon="15.920919"><ele>933.4000000000001</ele><time>2026-04-27T12:16:29.386Z</time></trkpt><trkpt lat="44.6389863" lon="15.9208922"><ele>932.8000000000001</ele><time>2026-04-27T12:16:30.386Z</time></trkpt><trkpt lat="44.6389012" lon="15.9208602"><ele>932.1999999999999</ele><time>2026-04-27T12:16:31.387Z</time></trkpt><trkpt lat="44.6387974" lon="15.9208509"><ele>931.5999999999999</ele><time>2026-04-27T12:16:32.387Z</time></trkpt><trkpt lat="44.6386464" lon="15.9208198"><ele>931.0</ele><time>2026-04-27T12:16:33.387Z</time></trkpt><trkpt lat="44.6384874" lon="15.9207744"><ele>931.0</ele><time>2026-04-27T12:16:34.386Z</time></trkpt><trkpt lat="44.6383418" lon="15.9207176"><ele>931.0</ele><time>2026-04-27T12:16:35.387Z</time></trkpt><trkpt lat="44.6382105" lon="15.9206593"><ele>931.0</ele><time>2026-04-27T12:16:36.387Z</time></trkpt><trkpt lat="44.6380954" lon="15.9205853"><ele>931.0</ele><time>2026-04-27T12:16:37.386Z</time></trkpt><trkpt lat="44.6379944" lon="15.9205575"><ele>931.0</ele><time>2026-04-27T12:16:38.386Z</time></trkpt><trkpt lat="44.6378685" lon="15.9205289"><ele>930.9999999999999</ele><time>2026-04-27T12:16:39.387Z</time></trkpt><trkpt lat="44.6377828" lon="15.9205005"><ele>930.9999999999999</ele><time>2026-04-27T12:16:40.386Z</time></trkpt><trkpt lat="44.6377026" lon="15.9204531"><ele>931.0</ele><time>2026-04-27T12:16:41.386Z</time></trkpt><trkpt lat="44.6376037" lon="15.9204551"><ele>931.0</ele><time>2026-04-27T12:16:42.387Z</time></trkpt><trkpt lat="44.637514" lon="15.9204825"><ele>929.5999999999999</ele><time>2026-04-27T12:16:43.386Z</time></trkpt><trkpt lat="44.6374317" lon="15.9205205"><ele>928.1999999999999</ele><time>2026-04-27T12:16:44.387Z</time></trkpt><trkpt lat="44.6373468" lon="15.920551"><ele>926.8000000000001</ele><time>2026-04-27T12:16:45.386Z</time></trkpt><trkpt lat="44.6372515" lon="15.9205663"><ele>925.4000000000001</ele><time>2026-04-27T12:16:46.387Z</time></trkpt><trkpt lat="44.6371564" lon="15.9205768"><ele>924.0</ele><time>2026-04-27T12:16:47.386Z</time></trkpt><trkpt lat="44.6370545" lon="15.920607"><ele>923.0</ele><time>2026-04-27T12:16:48.386Z</time></trkpt><trkpt lat="44.6369385" lon="15.9206251"><ele>922.0000000000001</ele><time>2026-04-27T12:16:49.386Z</time></trkpt><trkpt lat="44.6368209" lon="15.9206397"><ele>921.0000000000001</ele><time>2026-04-27T12:16:50.386Z</time></trkpt><trkpt lat="44.6367205" lon="15.9206428"><ele>920.0</ele><time>2026-04-27T12:16:51.386Z</time></trkpt><trkpt lat="44.6366309" lon="15.9206189"><ele>919.0</ele><time>2026-04-27T12:16:52.386Z</time></trkpt><trkpt lat="44.636523" lon="15.9205818"><ele>919.0</ele><time>2026-04-27T12:16:53.386Z</time></trkpt><trkpt lat="44.6364106" lon="15.9205502"><ele>919.0</ele><time>2026-04-27T12:16:54.387Z</time></trkpt><trkpt lat="44.6362962" lon="15.920534"><ele>919.0</ele><time>2026-04-27T12:16:55.386Z</time></trkpt><trkpt lat="44.6361563" lon="15.9205352"><ele>919.0</ele><time>2026-04-27T12:16:56.387Z</time></trkpt><trkpt lat="44.6360125" lon="15.9205421"><ele>919.25</ele><time>2026-04-27T12:16:57.387Z</time></trkpt><trkpt lat="44.6358559" lon="15.9205514"><ele>919.5</ele><time>2026-04-27T12:16:58.387Z</time></trkpt><trkpt lat="44.6357145" lon="15.9205607"><ele>919.75</ele><time>2026-04-27T12:16:59.387Z</time></trkpt><trkpt lat="44.6355935" lon="15.9205593"><ele>920.0</ele><time>2026-04-27T12:17:00.386Z</time></trkpt><trkpt lat="44.6354545" lon="15.9205403"><ele>920.0</ele><time>2026-04-27T12:17:01.386Z</time></trkpt><trkpt lat="44.635346" lon="15.9205174"><ele>920.0</ele><time>2026-04-27T12:17:02.386Z</time></trkpt><trkpt lat="44.6352451" lon="15.9205298"><ele>920.0</ele><time>2026-04-27T12:17:03.386Z</time></trkpt><trkpt lat="44.6351453" lon="15.9205626"><ele>920.0</ele><time>2026-04-27T12:17:04.386Z</time></trkpt><trkpt lat="44.6350663" lon="15.9206415"><ele>920.0</ele><time>2026-04-27T12:17:05.386Z</time></trkpt><trkpt lat="44.6349997" lon="15.9207278"><ele>921.0</ele><time>2026-04-27T12:17:06.386Z</time></trkpt><trkpt lat="44.6349283" lon="15.9208204"><ele>922.0</ele><time>2026-04-27T12:17:07.386Z</time></trkpt><trkpt lat="44.6348899" lon="15.920972"><ele>923.0</ele><time>2026-04-27T12:17:08.387Z</time></trkpt><trkpt lat="44.6348322" lon="15.9211101"><ele>924.0</ele><time>2026-04-27T12:17:09.386Z</time></trkpt><trkpt lat="44.6348066" lon="15.9212907"><ele>924.0</ele><time>2026-04-27T12:17:10.387Z</time></trkpt><trkpt lat="44.6347893" lon="15.9214395"><ele>924.0000000000001</ele><time>2026-04-27T12:17:11.386Z</time></trkpt><trkpt lat="44.6347648" lon="15.9215824"><ele>924.0000000000001</ele><time>2026-04-27T12:17:12.386Z</time></trkpt><trkpt lat="44.6347691" lon="15.9217525"><ele>924.0</ele><time>2026-04-27T12:17:13.386Z</time></trkpt><trkpt lat="44.6347682" lon="15.9218928"><ele>924.0</ele><time>2026-04-27T12:17:14.386Z</time></trkpt><trkpt lat="44.6348" lon="15.9220409"><ele>922.0</ele><time>2026-04-27T12:17:15.386Z</time></trkpt><trkpt lat="44.6348041" lon="15.9222087"><ele>920.0</ele><time>2026-04-27T12:17:16.386Z</time></trkpt><trkpt lat="44.634795" lon="15.9224145"><ele>918.0</ele><time>2026-04-27T12:17:17.386Z</time></trkpt><trkpt lat="44.6348026" lon="15.9225659"><ele>916.0</ele><time>2026-04-27T12:17:18.386Z</time></trkpt><trkpt lat="44.6347891" lon="15.9227116"><ele>914.0</ele><time>2026-04-27T12:17:19.387Z</time></trkpt><trkpt lat="44.6347872" lon="15.9228269"><ele>911.9999999999999</ele><time>2026-04-27T12:17:20.387Z</time></trkpt><trkpt lat="44.6347628" lon="15.9229199"><ele>909.9999999999999</ele><time>2026-04-27T12:17:21.386Z</time></trkpt><trkpt lat="44.6346915" lon="15.9229832"><ele>908.0</ele><time>2026-04-27T12:17:22.386Z</time></trkpt><trkpt lat="44.6345925" lon="15.9230612"><ele>906.0</ele><time>2026-04-27T12:17:23.387Z</time></trkpt><trkpt lat="44.6344971" lon="15.9231104"><ele>906.5999999999999</ele><time>2026-04-27T12:17:24.386Z</time></trkpt><trkpt lat="44.6344043" lon="15.9231305"><ele>907.1999999999999</ele><time>2026-04-27T12:17:25.386Z</time></trkpt><trkpt lat="44.6343271" lon="15.9231276"><ele>907.8000000000001</ele><time>2026-04-27T12:17:26.386Z</time></trkpt><trkpt lat="44.634237" lon="15.9231092"><ele>908.4000000000001</ele><time>2026-04-27T12:17:27.386Z</time></trkpt><trkpt lat="44.634122" lon="15.9230739"><ele>909.0</ele><time>2026-04-27T12:17:28.386Z</time></trkpt><trkpt lat="44.6339814" lon="15.9230127"><ele>909.0</ele><time>2026-04-27T12:17:29.386Z</time></trkpt><trkpt lat="44.6338478" lon="15.9229339"><ele>909.0</ele><time>2026-04-27T12:17:30.386Z</time></trkpt><trkpt lat="44.6337075" lon="15.9228514"><ele>909.0</ele><time>2026-04-27T12:17:31.386Z</time></trkpt><trkpt lat="44.6335592" lon="15.9227453"><ele>910.0</ele><time>2026-04-27T12:17:32.386Z</time></trkpt><trkpt lat="44.633415" lon="15.9226591"><ele>911.0</ele><time>2026-04-27T12:17:33.387Z</time></trkpt><trkpt lat="44.6332707" lon="15.9225803"><ele>912.0</ele><time>2026-04-27T12:17:34.386Z</time></trkpt><trkpt lat="44.6331485" lon="15.9225022"><ele>913.0</ele><time>2026-04-27T12:17:35.386Z</time></trkpt><trkpt lat="44.6330317" lon="15.9224302"><ele>913.0</ele><time>2026-04-27T12:17:36.386Z</time></trkpt><trkpt lat="44.632893" lon="15.9223797"><ele>913.0</ele><time>2026-04-27T12:17:37.386Z</time></trkpt><trkpt lat="44.6327584" lon="15.9223194"><ele>913.0</ele><time>2026-04-27T12:17:38.387Z</time></trkpt><trkpt lat="44.6326298" lon="15.9222841"><ele>913.0</ele><time>2026-04-27T12:17:39.386Z</time></trkpt><trkpt lat="44.6325153" lon="15.9222508"><ele>910.8</ele><time>2026-04-27T12:17:40.387Z</time></trkpt><trkpt lat="44.6323963" lon="15.9222227"><ele>908.5999999999999</ele><time>2026-04-27T12:17:41.386Z</time></trkpt><trkpt lat="44.6322949" lon="15.922191"><ele>906.4000000000001</ele><time>2026-04-27T12:17:42.387Z</time></trkpt><trkpt lat="44.6321985" lon="15.9221621"><ele>904.2</ele><time>2026-04-27T12:17:43.386Z</time></trkpt><trkpt lat="44.6321333" lon="15.9220792"><ele>902.0</ele><time>2026-04-27T12:17:45.387Z</time></trkpt><trkpt lat="44.632076" lon="15.9219102"><ele>902.0000000000001</ele><time>2026-04-27T12:17:47.387Z</time></trkpt><trkpt lat="44.632037" lon="15.9218166"><ele>902.0</ele><time>2026-04-27T12:17:48.386Z</time></trkpt><trkpt lat="44.6319813" lon="15.9217455"><ele>902.0</ele><time>2026-04-27T12:17:49.386Z</time></trkpt><trkpt lat="44.6319166" lon="15.9216973"><ele>902.0</ele><time>2026-04-27T12:17:50.386Z</time></trkpt><trkpt lat="44.6318447" lon="15.9216837"><ele>902.0000000000001</ele><time>2026-04-27T12:17:51.386Z</time></trkpt><trkpt lat="44.6317694" lon="15.9217101"><ele>902.0</ele><time>2026-04-27T12:17:52.386Z</time></trkpt><trkpt lat="44.631699" lon="15.9217692"><ele>901.8</ele><time>2026-04-27T12:17:53.387Z</time></trkpt><trkpt lat="44.631636" lon="15.9218252"><ele>901.6</ele><time>2026-04-27T12:17:54.386Z</time></trkpt><trkpt lat="44.63153" lon="15.9219258"><ele>901.3999999999999</ele><time>2026-04-27T12:17:56.387Z</time></trkpt><trkpt lat="44.6314715" lon="15.921999"><ele>901.1999999999999</ele><time>2026-04-27T12:17:57.387Z</time></trkpt><trkpt lat="44.6314174" lon="15.9220946"><ele>901.0</ele><time>2026-04-27T12:17:58.386Z</time></trkpt><trkpt lat="44.6313553" lon="15.9222127"><ele>901.0</ele><time>2026-04-27T12:17:59.386Z</time></trkpt><trkpt lat="44.6312834" lon="15.9223328"><ele>900.9999999999999</ele><time>2026-04-27T12:18:00.386Z</time></trkpt><trkpt lat="44.6312039" lon="15.9224396"><ele>900.9999999999999</ele><time>2026-04-27T12:18:01.386Z</time></trkpt><trkpt lat="44.6311316" lon="15.9225283"><ele>901.0</ele><time>2026-04-27T12:18:02.386Z</time></trkpt><trkpt lat="44.6310532" lon="15.9225768"><ele>901.0</ele><time>2026-04-27T12:18:03.386Z</time></trkpt><trkpt lat="44.63098" lon="15.9226041"><ele>900.6666666666666</ele><time>2026-04-27T12:18:04.386Z</time></trkpt><trkpt lat="44.6309079" lon="15.9226248"><ele>900.3333333333333</ele><time>2026-04-27T12:18:05.387Z</time></trkpt><trkpt lat="44.6308408" lon="15.9226145"><ele>900.0</ele><time>2026-04-27T12:18:06.386Z</time></trkpt><trkpt lat="44.6307411" lon="15.922594"><ele>899.6666666666667</ele><time>2026-04-27T12:18:07.386Z</time></trkpt><trkpt lat="44.6306635" lon="15.9225763"><ele>899.3333333333334</ele><time>2026-04-27T12:18:08.386Z</time></trkpt><trkpt lat="44.6305789" lon="15.922546"><ele>899.0</ele><time>2026-04-27T12:18:09.386Z</time></trkpt><trkpt lat="44.6304806" lon="15.9225221"><ele>901.0</ele><time>2026-04-27T12:18:10.386Z</time></trkpt><trkpt lat="44.6303906" lon="15.9224927"><ele>903.0000000000001</ele><time>2026-04-27T12:18:11.387Z</time></trkpt><trkpt lat="44.6302829" lon="15.9224887"><ele>905.0000000000001</ele><time>2026-04-27T12:18:12.386Z</time></trkpt><trkpt lat="44.6301787" lon="15.9224663"><ele>907.0</ele><time>2026-04-27T12:18:13.387Z</time></trkpt><trkpt lat="44.6300935" lon="15.922382"><ele>909.0</ele><time>2026-04-27T12:18:14.386Z</time></trkpt><trkpt lat="44.6300146" lon="15.9223108"><ele>909.1666666666666</ele><time>2026-04-27T12:18:15.386Z</time></trkpt><trkpt lat="44.6299413" lon="15.9222338"><ele>909.3333333333333</ele><time>2026-04-27T12:18:16.386Z</time></trkpt><trkpt lat="44.6298938" lon="15.922149"><ele>909.5</ele><time>2026-04-27T12:18:17.386Z</time></trkpt><trkpt lat="44.6298397" lon="15.9220674"><ele>909.6666666666666</ele><time>2026-04-27T12:18:18.386Z</time></trkpt><trkpt lat="44.6298088" lon="15.9219668"><ele>909.8333333333333</ele><time>2026-04-27T12:18:19.387Z</time></trkpt><trkpt lat="44.6298461" lon="15.9218037"><ele>910.0</ele><time>2026-04-27T12:18:20.386Z</time></trkpt><trkpt lat="44.6298515" lon="15.9216824"><ele>910.75</ele><time>2026-04-27T12:18:21.386Z</time></trkpt><trkpt lat="44.6299046" lon="15.921522"><ele>911.5</ele><time>2026-04-27T12:18:22.386Z</time></trkpt><trkpt lat="44.6299478" lon="15.9213928"><ele>912.25</ele><time>2026-04-27T12:18:23.386Z</time></trkpt><trkpt lat="44.6300217" lon="15.9212647"><ele>913.0</ele><time>2026-04-27T12:18:24.387Z</time></trkpt><trkpt lat="44.6300742" lon="15.9211292"><ele>913.0</ele><time>2026-04-27T12:18:25.386Z</time></trkpt><trkpt lat="44.6300636" lon="15.9210006"><ele>913.0</ele><time>2026-04-27T12:18:26.386Z</time></trkpt><trkpt lat="44.6300725" lon="15.9208345"><ele>913.0</ele><time>2026-04-27T12:18:27.386Z</time></trkpt><trkpt lat="44.6300719" lon="15.920673"><ele>913.0</ele><time>2026-04-27T12:18:28.386Z</time></trkpt><trkpt lat="44.6300748" lon="15.9205053"><ele>913.0</ele><time>2026-04-27T12:18:29.386Z</time></trkpt><trkpt lat="44.6300691" lon="15.9203446"><ele>913.25</ele><time>2026-04-27T12:18:30.387Z</time></trkpt><trkpt lat="44.6301076" lon="15.9201758"><ele>913.5</ele><time>2026-04-27T12:18:31.386Z</time></trkpt><trkpt lat="44.6301433" lon="15.9200136"><ele>913.75</ele><time>2026-04-27T12:18:32.386Z</time></trkpt><trkpt lat="44.6302012" lon="15.9198311"><ele>914.0</ele><time>2026-04-27T12:18:33.387Z</time></trkpt><trkpt lat="44.6302499" lon="15.919636"><ele>913.5</ele><time>2026-04-27T12:18:34.386Z</time></trkpt><trkpt lat="44.6302751" lon="15.9194546"><ele>913.0</ele><time>2026-04-27T12:18:35.386Z</time></trkpt><trkpt lat="44.6302882" lon="15.9192927"><ele>912.5</ele><time>2026-04-27T12:18:36.386Z</time></trkpt><trkpt lat="44.6303166" lon="15.9191266"><ele>912.0</ele><time>2026-04-27T12:18:37.387Z</time></trkpt><trkpt lat="44.6303487" lon="15.9189615"><ele>912.0</ele><time>2026-04-27T12:18:38.386Z</time></trkpt><trkpt lat="44.630338" lon="15.9187857"><ele>912.0</ele><time>2026-04-27T12:18:39.386Z</time></trkpt><trkpt lat="44.6302975" lon="15.9186084"><ele>912.0</ele><time>2026-04-27T12:18:40.386Z</time></trkpt><trkpt lat="44.6302604" lon="15.9184264"><ele>912.0</ele><time>2026-04-27T12:18:41.386Z</time></trkpt><trkpt lat="44.6302007" lon="15.9182761"><ele>910.25</ele><time>2026-04-27T12:18:42.386Z</time></trkpt><trkpt lat="44.6301351" lon="15.9181308"><ele>908.5</ele><time>2026-04-27T12:18:43.386Z</time></trkpt><trkpt lat="44.6300372" lon="15.9180156"><ele>906.75</ele><time>2026-04-27T12:18:44.386Z</time></trkpt><trkpt lat="44.6299526" lon="15.9179062"><ele>905.0</ele><time>2026-04-27T12:18:45.387Z</time></trkpt><trkpt lat="44.6299046" lon="15.9178083"><ele>905.0</ele><time>2026-04-27T12:18:46.387Z</time></trkpt><trkpt lat="44.6298779" lon="15.9177277"><ele>904.9999999999999</ele><time>2026-04-27T12:18:47.386Z</time></trkpt><trkpt lat="44.6298716" lon="15.9176253"><ele>905.0</ele><time>2026-04-27T12:18:48.386Z</time></trkpt><trkpt lat="44.629898" lon="15.9175287"><ele>905.0</ele><time>2026-04-27T12:18:49.387Z</time></trkpt><trkpt lat="44.6299457" lon="15.9174558"><ele>904.9999999999999</ele><time>2026-04-27T12:18:50.386Z</time></trkpt><trkpt lat="44.6300033" lon="15.9173941"><ele>905.0</ele><time>2026-04-27T12:18:51.386Z</time></trkpt><trkpt lat="44.6300779" lon="15.917336"><ele>905.0</ele><time>2026-04-27T12:18:52.386Z</time></trkpt><trkpt lat="44.6302059" lon="15.9172966"><ele>905.0</ele><time>2026-04-27T12:18:53.386Z</time></trkpt><trkpt lat="44.6302904" lon="15.91724"><ele>905.0</ele><time>2026-04-27T12:18:54.387Z</time></trkpt><trkpt lat="44.6303692" lon="15.9171811"><ele>905.0</ele><time>2026-04-27T12:18:55.386Z</time></trkpt><trkpt lat="44.630407" lon="15.9170398"><ele>905.0</ele><time>2026-04-27T12:18:56.386Z</time></trkpt><trkpt lat="44.630471" lon="15.9169082"><ele>905.0</ele><time>2026-04-27T12:18:57.386Z</time></trkpt><trkpt lat="44.6304808" lon="15.9166757"><ele>905.2</ele><time>2026-04-27T12:18:58.387Z</time></trkpt><trkpt lat="44.6305226" lon="15.9165111"><ele>905.4</ele><time>2026-04-27T12:18:59.386Z</time></trkpt><trkpt lat="44.6305508" lon="15.9163696"><ele>905.5999999999999</ele><time>2026-04-27T12:19:00.386Z</time></trkpt><trkpt lat="44.6305718" lon="15.9162289"><ele>905.8</ele><time>2026-04-27T12:19:01.386Z</time></trkpt><trkpt lat="44.6305621" lon="15.9161008"><ele>906.0</ele><time>2026-04-27T12:19:02.386Z</time></trkpt><trkpt lat="44.6305618" lon="15.9159646"><ele>905.25</ele><time>2026-04-27T12:19:03.386Z</time></trkpt><trkpt lat="44.630525" lon="15.9158335"><ele>904.5</ele><time>2026-04-27T12:19:04.386Z</time></trkpt><trkpt lat="44.6304861" lon="15.9157209"><ele>903.75</ele><time>2026-04-27T12:19:05.386Z</time></trkpt><trkpt lat="44.630414" lon="15.9155814"><ele>903.0</ele><time>2026-04-27T12:19:06.386Z</time></trkpt><trkpt lat="44.6303104" lon="15.9154519"><ele>902.8</ele><time>2026-04-27T12:19:07.386Z</time></trkpt><trkpt lat="44.6302169" lon="15.9153508"><ele>902.5999999999999</ele><time>2026-04-27T12:19:08.386Z</time></trkpt><trkpt lat="44.6301108" lon="15.9152778"><ele>902.4000000000001</ele><time>2026-04-27T12:19:09.386Z</time></trkpt><trkpt lat="44.6300141" lon="15.9152188"><ele>902.2</ele><time>2026-04-27T12:19:10.386Z</time></trkpt><trkpt lat="44.629927" lon="15.9151323"><ele>902.0</ele><time>2026-04-27T12:19:11.386Z</time></trkpt><trkpt lat="44.6298991" lon="15.9150339"><ele>902.0</ele><time>2026-04-27T12:19:12.386Z</time></trkpt><trkpt lat="44.6298655" lon="15.9149238"><ele>902.0</ele><time>2026-04-27T12:19:13.386Z</time></trkpt><trkpt lat="44.6298651" lon="15.9147982"><ele>902.0</ele><time>2026-04-27T12:19:14.387Z</time></trkpt><trkpt lat="44.6298566" lon="15.9146753"><ele>902.0</ele><time>2026-04-27T12:19:15.387Z</time></trkpt><trkpt lat="44.6298421" lon="15.9145291"><ele>902.0</ele><time>2026-04-27T12:19:16.386Z</time></trkpt><trkpt lat="44.6298869" lon="15.9143657"><ele>902.4000000000001</ele><time>2026-04-27T12:19:17.386Z</time></trkpt><trkpt lat="44.6299041" lon="15.9142244"><ele>902.8000000000001</ele><time>2026-04-27T12:19:18.386Z</time></trkpt><trkpt lat="44.6299218" lon="15.9140697"><ele>903.2</ele><time>2026-04-27T12:19:19.387Z</time></trkpt><trkpt lat="44.6298942" lon="15.9138972"><ele>903.6</ele><time>2026-04-27T12:19:20.387Z</time></trkpt><trkpt lat="44.6298952" lon="15.9137482"><ele>904.0</ele><time>2026-04-27T12:19:21.387Z</time></trkpt><trkpt lat="44.6298935" lon="15.9135889"><ele>903.9999999999999</ele><time>2026-04-27T12:19:22.386Z</time></trkpt><trkpt lat="44.6298999" lon="15.9134638"><ele>904.0</ele><time>2026-04-27T12:19:23.386Z</time></trkpt><trkpt lat="44.6299116" lon="15.9133411"><ele>904.0</ele><time>2026-04-27T12:19:24.386Z</time></trkpt><trkpt lat="44.6299577" lon="15.913254"><ele>904.0</ele><time>2026-04-27T12:19:25.386Z</time></trkpt><trkpt lat="44.6300106" lon="15.9131716"><ele>903.9999999999999</ele><time>2026-04-27T12:19:26.386Z</time></trkpt><trkpt lat="44.6300913" lon="15.9130986"><ele>904.0</ele><time>2026-04-27T12:19:27.386Z</time></trkpt><trkpt lat="44.6302357" lon="15.9130651"><ele>903.4999999999999</ele><time>2026-04-27T12:19:28.386Z</time></trkpt><trkpt lat="44.6303293" lon="15.9130215"><ele>903.0</ele><time>2026-04-27T12:19:29.386Z</time></trkpt><trkpt lat="44.6304025" lon="15.9129834"><ele>902.5</ele><time>2026-04-27T12:19:30.386Z</time></trkpt><trkpt lat="44.6304623" lon="15.9129153"><ele>902.0</ele><time>2026-04-27T12:19:31.386Z</time></trkpt><trkpt lat="44.6305257" lon="15.9127827"><ele>901.4999999999999</ele><time>2026-04-27T12:19:33.386Z</time></trkpt><trkpt lat="44.6305301" lon="15.9126728"><ele>901.0</ele><time>2026-04-27T12:19:34.387Z</time></trkpt><trkpt lat="44.6305439" lon="15.9125655"><ele>901.0</ele><time>2026-04-27T12:19:35.387Z</time></trkpt><trkpt lat="44.6304912" lon="15.9123939"><ele>901.0</ele><time>2026-04-27T12:19:36.386Z</time></trkpt><trkpt lat="44.6304491" lon="15.9122089"><ele>901.0</ele><time>2026-04-27T12:19:37.386Z</time></trkpt><trkpt lat="44.6304228" lon="15.9120364"><ele>901.0</ele><time>2026-04-27T12:19:38.386Z</time></trkpt><trkpt lat="44.6304106" lon="15.9118502"><ele>901.25</ele><time>2026-04-27T12:19:39.386Z</time></trkpt><trkpt lat="44.630351" lon="15.9116533"><ele>901.5</ele><time>2026-04-27T12:19:40.386Z</time></trkpt><trkpt lat="44.6303732" lon="15.9114672"><ele>901.75</ele><time>2026-04-27T12:19:41.386Z</time></trkpt><trkpt lat="44.6303579" lon="15.9112663"><ele>902.0</ele><time>2026-04-27T12:19:42.386Z</time></trkpt><trkpt lat="44.6303552" lon="15.9110551"><ele>901.8</ele><time>2026-04-27T12:19:43.386Z</time></trkpt><trkpt lat="44.6303811" lon="15.9109066"><ele>901.6</ele><time>2026-04-27T12:19:44.386Z</time></trkpt><trkpt lat="44.6304217" lon="15.9107723"><ele>901.3999999999999</ele><time>2026-04-27T12:19:45.386Z</time></trkpt><trkpt lat="44.6304238" lon="15.9106395"><ele>901.1999999999999</ele><time>2026-04-27T12:19:46.386Z</time></trkpt><trkpt lat="44.6304426" lon="15.9104979"><ele>901.0</ele><time>2026-04-27T12:19:47.386Z</time></trkpt><trkpt lat="44.6304784" lon="15.9103828"><ele>901.0</ele><time>2026-04-27T12:19:48.387Z</time></trkpt><trkpt lat="44.6304968" lon="15.9102316"><ele>901.0</ele><time>2026-04-27T12:19:49.386Z</time></trkpt><trkpt lat="44.6305423" lon="15.910051"><ele>901.0</ele><time>2026-04-27T12:19:50.386Z</time></trkpt><trkpt lat="44.6305818" lon="15.9099107"><ele>901.0</ele><time>2026-04-27T12:19:51.386Z</time></trkpt><trkpt lat="44.630631" lon="15.9097485"><ele>901.5999999999999</ele><time>2026-04-27T12:19:52.386Z</time></trkpt><trkpt lat="44.6307299" lon="15.9096779"><ele>902.1999999999999</ele><time>2026-04-27T12:19:53.386Z</time></trkpt><trkpt lat="44.6307883" lon="15.9095959"><ele>902.8000000000001</ele><time>2026-04-27T12:19:54.387Z</time></trkpt><trkpt lat="44.630855" lon="15.9095406"><ele>903.4000000000001</ele><time>2026-04-27T12:19:55.387Z</time></trkpt><trkpt lat="44.6309466" lon="15.9095047"><ele>904.0</ele><time>2026-04-27T12:19:56.386Z</time></trkpt><trkpt lat="44.6310562" lon="15.9094917"><ele>903.75</ele><time>2026-04-27T12:19:57.386Z</time></trkpt><trkpt lat="44.6311994" lon="15.9094981"><ele>903.5</ele><time>2026-04-27T12:19:58.387Z</time></trkpt><trkpt lat="44.6313217" lon="15.9094944"><ele>903.25</ele><time>2026-04-27T12:19:59.387Z</time></trkpt><trkpt lat="44.6314421" lon="15.9094982"><ele>903.0</ele><time>2026-04-27T12:20:00.386Z</time></trkpt><trkpt lat="44.6315534" lon="15.9094914"><ele>903.0</ele><time>2026-04-27T12:20:01.386Z</time></trkpt><trkpt lat="44.6316567" lon="15.9094687"><ele>903.0</ele><time>2026-04-27T12:20:02.386Z</time></trkpt><trkpt lat="44.6317551" lon="15.9094324"><ele>903.0</ele><time>2026-04-27T12:20:03.386Z</time></trkpt><trkpt lat="44.6318523" lon="15.9093899"><ele>903.0</ele><time>2026-04-27T12:20:04.387Z</time></trkpt><trkpt lat="44.6319517" lon="15.9093341"><ele>903.0</ele><time>2026-04-27T12:20:05.386Z</time></trkpt><trkpt lat="44.6320204" lon="15.9092252"><ele>902.25</ele><time>2026-04-27T12:20:06.387Z</time></trkpt><trkpt lat="44.6320897" lon="15.9090775"><ele>901.5</ele><time>2026-04-27T12:20:07.386Z</time></trkpt><trkpt lat="44.63216" lon="15.9089438"><ele>900.75</ele><time>2026-04-27T12:20:08.386Z</time></trkpt><trkpt lat="44.6322414" lon="15.9088274"><ele>900.0</ele><time>2026-04-27T12:20:09.386Z</time></trkpt><trkpt lat="44.6323318" lon="15.9087491"><ele>900.0</ele><time>2026-04-27T12:20:10.386Z</time></trkpt><trkpt lat="44.6324316" lon="15.9087129"><ele>900.0</ele><time>2026-04-27T12:20:11.387Z</time></trkpt><trkpt lat="44.6325351" lon="15.9086868"><ele>900.0</ele><time>2026-04-27T12:20:12.386Z</time></trkpt><trkpt lat="44.6326236" lon="15.9086505"><ele>900.0</ele><time>2026-04-27T12:20:13.386Z</time></trkpt><trkpt lat="44.6327014" lon="15.9086077"><ele>900.0</ele><time>2026-04-27T12:20:14.386Z</time></trkpt><trkpt lat="44.6327661" lon="15.9085262"><ele>900.6</ele><time>2026-04-27T12:20:15.386Z</time></trkpt><trkpt lat="44.6328219" lon="15.9084137"><ele>901.2</ele><time>2026-04-27T12:20:16.386Z</time></trkpt><trkpt lat="44.6328811" lon="15.9082667"><ele>901.8</ele><time>2026-04-27T12:20:17.387Z</time></trkpt><trkpt lat="44.6329398" lon="15.908118"><ele>902.4</ele><time>2026-04-27T12:20:18.386Z</time></trkpt><trkpt lat="44.632996" lon="15.9079945"><ele>903.0</ele><time>2026-04-27T12:20:19.386Z</time></trkpt><trkpt lat="44.6330601" lon="15.9078768"><ele>903.25</ele><time>2026-04-27T12:20:20.386Z</time></trkpt><trkpt lat="44.6331207" lon="15.907756"><ele>903.5</ele><time>2026-04-27T12:20:21.386Z</time></trkpt><trkpt lat="44.6331637" lon="15.9076279"><ele>903.75</ele><time>2026-04-27T12:20:22.386Z</time></trkpt><trkpt lat="44.6332057" lon="15.9074699"><ele>904.0</ele><time>2026-04-27T12:20:23.386Z</time></trkpt><trkpt lat="44.6332485" lon="15.9072948"><ele>903.6</ele><time>2026-04-27T12:20:24.386Z</time></trkpt><trkpt lat="44.6332873" lon="15.9071378"><ele>903.2</ele><time>2026-04-27T12:20:25.386Z</time></trkpt><trkpt lat="44.6333202" lon="15.9070029"><ele>902.8000000000001</ele><time>2026-04-27T12:20:26.386Z</time></trkpt><trkpt lat="44.6333663" lon="15.9069013"><ele>902.4000000000001</ele><time>2026-04-27T12:20:27.386Z</time></trkpt><trkpt lat="44.633415" lon="15.9068196"><ele>902.0</ele><time>2026-04-27T12:20:28.386Z</time></trkpt><trkpt lat="44.633478" lon="15.9067409"><ele>902.0</ele><time>2026-04-27T12:20:29.386Z</time></trkpt><trkpt lat="44.6335609" lon="15.9066534"><ele>902.0</ele><time>2026-04-27T12:20:30.387Z</time></trkpt><trkpt lat="44.6336565" lon="15.9065862"><ele>902.0</ele><time>2026-04-27T12:20:31.386Z</time></trkpt><trkpt lat="44.6337422" lon="15.9065303"><ele>902.0</ele><time>2026-04-27T12:20:32.386Z</time></trkpt><trkpt lat="44.6338128" lon="15.9064732"><ele>902.0</ele><time>2026-04-27T12:20:33.386Z</time></trkpt><trkpt lat="44.633831" lon="15.9063505"><ele>902.0</ele><time>2026-04-27T12:20:34.386Z</time></trkpt><trkpt lat="44.6338448" lon="15.9062262"><ele>902.0</ele><time>2026-04-27T12:20:35.386Z</time></trkpt><trkpt lat="44.6338482" lon="15.9060874"><ele>902.0</ele><time>2026-04-27T12:20:36.386Z</time></trkpt><trkpt lat="44.6338557" lon="15.9059564"><ele>902.0</ele><time>2026-04-27T12:20:37.386Z</time></trkpt><trkpt lat="44.6338172" lon="15.9058031"><ele>902.0</ele><time>2026-04-27T12:20:38.386Z</time></trkpt><trkpt lat="44.6337949" lon="15.9056537"><ele>901.8</ele><time>2026-04-27T12:20:39.386Z</time></trkpt><trkpt lat="44.6337378" lon="15.9054712"><ele>901.6</ele><time>2026-04-27T12:20:40.386Z</time></trkpt><trkpt lat="44.6336968" lon="15.9053266"><ele>901.3999999999999</ele><time>2026-04-27T12:20:41.386Z</time></trkpt><trkpt lat="44.633673" lon="15.9052148"><ele>901.1999999999999</ele><time>2026-04-27T12:20:42.386Z</time></trkpt><trkpt lat="44.6336332" lon="15.9051209"><ele>901.0</ele><time>2026-04-27T12:20:43.386Z</time></trkpt><trkpt lat="44.6335716" lon="15.9050468"><ele>900.9999999999999</ele><time>2026-04-27T12:20:45.386Z</time></trkpt><trkpt lat="44.633498" lon="15.9050704"><ele>901.0</ele><time>2026-04-27T12:20:47.386Z</time></trkpt><trkpt lat="44.6334553" lon="15.905203"><ele>901.0</ele><time>2026-04-27T12:20:49.387Z</time></trkpt><trkpt lat="44.6334513" lon="15.9053219"><ele>901.0</ele><time>2026-04-27T12:20:50.387Z</time></trkpt><trkpt lat="44.6334312" lon="15.9054461"><ele>900.9999999999999</ele><time>2026-04-27T12:20:51.387Z</time></trkpt><trkpt lat="44.63345" lon="15.905576"><ele>901.0</ele><time>2026-04-27T12:20:52.387Z</time></trkpt><trkpt lat="44.6334589" lon="15.905701"><ele>901.0</ele><time>2026-04-27T12:20:53.386Z</time></trkpt><trkpt lat="44.6334656" lon="15.9057997"><ele>900.9999999999999</ele><time>2026-04-27T12:20:54.386Z</time></trkpt><trkpt lat="44.6334918" lon="15.9058982"><ele>900.9999999999999</ele><time>2026-04-27T12:20:55.386Z</time></trkpt><trkpt lat="44.6334085" lon="15.905982"><ele>901.0</ele><time>2026-04-27T12:20:57.386Z</time></trkpt><trkpt lat="44.6332496" lon="15.9060232"><ele>901.0</ele><time>2026-04-27T12:20:59.386Z</time></trkpt><trkpt lat="44.6331664" lon="15.9060229"><ele>900.5</ele><time>2026-04-27T12:21:00.386Z</time></trkpt><trkpt lat="44.6330365" lon="15.9060892"><ele>900.0</ele><time>2026-04-27T12:21:01.387Z</time></trkpt><trkpt lat="44.6329383" lon="15.9061478"><ele>899.5</ele><time>2026-04-27T12:21:02.386Z</time></trkpt><trkpt lat="44.6328359" lon="15.9062456"><ele>899.0</ele><time>2026-04-27T12:21:03.386Z</time></trkpt><trkpt lat="44.6327342" lon="15.9063261"><ele>900.0</ele><time>2026-04-27T12:21:04.386Z</time></trkpt><trkpt lat="44.6326782" lon="15.9064217"><ele>901.0000000000001</ele><time>2026-04-27T12:21:05.386Z</time></trkpt><trkpt lat="44.6325977" lon="15.906491"><ele>902.0000000000001</ele><time>2026-04-27T12:21:06.386Z</time></trkpt><trkpt lat="44.6324643" lon="15.9065134"><ele>903.0</ele><time>2026-04-27T12:21:08.386Z</time></trkpt><trkpt lat="44.6323601" lon="15.9064432"><ele>904.0</ele><time>2026-04-27T12:21:10.386Z</time></trkpt><trkpt lat="44.6323157" lon="15.9063624"><ele>904.0</ele><time>2026-04-27T12:21:11.387Z</time></trkpt><trkpt lat="44.6322735" lon="15.9062607"><ele>904.0</ele><time>2026-04-27T12:21:12.387Z</time></trkpt><trkpt lat="44.6322414" lon="15.9059997"><ele>904.0</ele><time>2026-04-27T12:21:13.387Z</time></trkpt><trkpt lat="44.6322395" lon="15.905765"><ele>904.0</ele><time>2026-04-27T12:21:14.386Z</time></trkpt><trkpt lat="44.6322117" lon="15.9055363"><ele>904.5</ele><time>2026-04-27T12:21:15.387Z</time></trkpt><trkpt lat="44.6322086" lon="15.9053767"><ele>905.0</ele><time>2026-04-27T12:21:16.386Z</time></trkpt><trkpt lat="44.6321612" lon="15.9052257"><ele>905.5</ele><time>2026-04-27T12:21:17.386Z</time></trkpt><trkpt lat="44.6321274" lon="15.9050795"><ele>906.0</ele><time>2026-04-27T12:21:18.386Z</time></trkpt><trkpt lat="44.6320947" lon="15.904891"><ele>906.4</ele><time>2026-04-27T12:21:19.386Z</time></trkpt><trkpt lat="44.6321037" lon="15.9047656"><ele>906.8</ele><time>2026-04-27T12:21:20.386Z</time></trkpt><trkpt lat="44.6320858" lon="15.9046165"><ele>907.1999999999999</ele><time>2026-04-27T12:21:21.387Z</time></trkpt><trkpt lat="44.6320517" lon="15.9044842"><ele>907.5999999999999</ele><time>2026-04-27T12:21:22.386Z</time></trkpt><trkpt lat="44.632018" lon="15.9043525"><ele>908.0</ele><time>2026-04-27T12:21:23.386Z</time></trkpt><trkpt lat="44.6319859" lon="15.9042092"><ele>907.75</ele><time>2026-04-27T12:21:24.387Z</time></trkpt><trkpt lat="44.6319559" lon="15.9040572"><ele>907.5</ele><time>2026-04-27T12:21:25.386Z</time></trkpt><trkpt lat="44.6319176" lon="15.9038764"><ele>907.25</ele><time>2026-04-27T12:21:26.386Z</time></trkpt><trkpt lat="44.6318413" lon="15.9036577"><ele>907.0</ele><time>2026-04-27T12:21:27.387Z</time></trkpt><trkpt lat="44.6317791" lon="15.9034803"><ele>906.6</ele><time>2026-04-27T12:21:28.386Z</time></trkpt><trkpt lat="44.6317255" lon="15.9033086"><ele>906.2</ele><time>2026-04-27T12:21:29.386Z</time></trkpt><trkpt lat="44.6317101" lon="15.9031816"><ele>905.8</ele><time>2026-04-27T12:21:30.386Z</time></trkpt><trkpt lat="44.6317147" lon="15.9030564"><ele>905.4</ele><time>2026-04-27T12:21:31.386Z</time></trkpt><trkpt lat="44.6317341" lon="15.9029287"><ele>905.0</ele><time>2026-04-27T12:21:32.386Z</time></trkpt><trkpt lat="44.631779" lon="15.9028045"><ele>905.0000000000001</ele><time>2026-04-27T12:21:33.387Z</time></trkpt><trkpt lat="44.6318319" lon="15.902682"><ele>905.0</ele><time>2026-04-27T12:21:34.387Z</time></trkpt><trkpt lat="44.6318758" lon="15.9025921"><ele>905.0</ele><time>2026-04-27T12:21:35.387Z</time></trkpt><trkpt lat="44.6319088" lon="15.9025127"><ele>905.0</ele><time>2026-04-27T12:21:36.386Z</time></trkpt><trkpt lat="44.6319246" lon="15.9024137"><ele>905.0000000000001</ele><time>2026-04-27T12:21:37.387Z</time></trkpt><trkpt lat="44.6319069" lon="15.9023002"><ele>905.0</ele><time>2026-04-27T12:21:38.386Z</time></trkpt><trkpt lat="44.6318799" lon="15.902198"><ele>906.4</ele><time>2026-04-27T12:21:39.386Z</time></trkpt><trkpt lat="44.6318323" lon="15.9020911"><ele>907.8</ele><time>2026-04-27T12:21:40.387Z</time></trkpt><trkpt lat="44.6317734" lon="15.9019861"><ele>909.2</ele><time>2026-04-27T12:21:41.386Z</time></trkpt><trkpt lat="44.6317102" lon="15.9018589"><ele>910.6</ele><time>2026-04-27T12:21:42.387Z</time></trkpt><trkpt lat="44.6316597" lon="15.9017307"><ele>912.0</ele><time>2026-04-27T12:21:43.386Z</time></trkpt><trkpt lat="44.63165" lon="15.9015889"><ele>911.6</ele><time>2026-04-27T12:21:44.386Z</time></trkpt><trkpt lat="44.6316805" lon="15.9014667"><ele>911.2</ele><time>2026-04-27T12:21:45.386Z</time></trkpt><trkpt lat="44.6317433" lon="15.9013739"><ele>910.8</ele><time>2026-04-27T12:21:46.387Z</time></trkpt><trkpt lat="44.6318152" lon="15.9012755"><ele>910.4</ele><time>2026-04-27T12:21:47.386Z</time></trkpt><trkpt lat="44.631899" lon="15.9011608"><ele>910.0</ele><time>2026-04-27T12:21:48.386Z</time></trkpt><trkpt lat="44.6319817" lon="15.9010373"><ele>910.0</ele><time>2026-04-27T12:21:49.386Z</time></trkpt><trkpt lat="44.6320302" lon="15.9009165"><ele>910.0</ele><time>2026-04-27T12:21:50.386Z</time></trkpt><trkpt lat="44.6320555" lon="15.9008139"><ele>910.0</ele><time>2026-04-27T12:21:51.387Z</time></trkpt><trkpt lat="44.6320017" lon="15.9007629"><ele>910.0</ele><time>2026-04-27T12:21:53.386Z</time></trkpt><trkpt lat="44.6319109" lon="15.9008029"><ele>910.0</ele><time>2026-04-27T12:21:55.386Z</time></trkpt><trkpt lat="44.6317822" lon="15.9009316"><ele>913.6666666666666</ele><time>2026-04-27T12:21:57.387Z</time></trkpt><trkpt lat="44.6316291" lon="15.9011233"><ele>917.3333333333333</ele><time>2026-04-27T12:21:58.386Z</time></trkpt><trkpt lat="44.6314844" lon="15.9013298"><ele>921.0</ele><time>2026-04-27T12:21:59.386Z</time></trkpt><trkpt lat="44.6313631" lon="15.9014373"><ele>921.0</ele><time>2026-04-27T12:22:00.386Z</time></trkpt><trkpt lat="44.6312914" lon="15.9015439"><ele>920.9999999999999</ele><time>2026-04-27T12:22:01.386Z</time></trkpt><trkpt lat="44.6312026" lon="15.9016158"><ele>920.9999999999999</ele><time>2026-04-27T12:22:02.386Z</time></trkpt><trkpt lat="44.6310864" lon="15.9016932"><ele>921.0</ele><time>2026-04-27T12:22:03.386Z</time></trkpt><trkpt lat="44.6309816" lon="15.9017394"><ele>921.0</ele><time>2026-04-27T12:22:04.386Z</time></trkpt><trkpt lat="44.6308854" lon="15.9017991"><ele>921.25</ele><time>2026-04-27T12:22:05.387Z</time></trkpt><trkpt lat="44.6307928" lon="15.901889"><ele>921.5</ele><time>2026-04-27T12:22:06.386Z</time></trkpt><trkpt lat="44.6306968" lon="15.9019987"><ele>921.75</ele><time>2026-04-27T12:22:07.386Z</time></trkpt><trkpt lat="44.630568" lon="15.9021402"><ele>922.0</ele><time>2026-04-27T12:22:08.386Z</time></trkpt><trkpt lat="44.6304834" lon="15.9023043"><ele>922.0</ele><time>2026-04-27T12:22:09.386Z</time></trkpt><trkpt lat="44.6303883" lon="15.9024494"><ele>922.0</ele><time>2026-04-27T12:22:10.386Z</time></trkpt><trkpt lat="44.6302797" lon="15.9026121"><ele>922.0</ele><time>2026-04-27T12:22:11.386Z</time></trkpt><trkpt lat="44.6301764" lon="15.9027482"><ele>922.0</ele><time>2026-04-27T12:22:12.386Z</time></trkpt><trkpt lat="44.6300656" lon="15.9028686"><ele>923.25</ele><time>2026-04-27T12:22:13.386Z</time></trkpt><trkpt lat="44.6299761" lon="15.9030026"><ele>924.5</ele><time>2026-04-27T12:22:14.386Z</time></trkpt><trkpt lat="44.6298846" lon="15.9031108"><ele>925.75</ele><time>2026-04-27T12:22:15.386Z</time></trkpt><trkpt lat="44.6297688" lon="15.903229"><ele>927.0</ele><time>2026-04-27T12:22:16.386Z</time></trkpt><trkpt lat="44.6296848" lon="15.9033315"><ele>927.25</ele><time>2026-04-27T12:22:17.386Z</time></trkpt><trkpt lat="44.6295927" lon="15.9034858"><ele>927.5</ele><time>2026-04-27T12:22:18.386Z</time></trkpt><trkpt lat="44.6295103" lon="15.9036038"><ele>927.75</ele><time>2026-04-27T12:22:19.387Z</time></trkpt><trkpt lat="44.6294256" lon="15.9037391"><ele>928.0</ele><time>2026-04-27T12:22:20.386Z</time></trkpt><trkpt lat="44.6293344" lon="15.903846"><ele>928.0</ele><time>2026-04-27T12:22:21.386Z</time></trkpt><trkpt lat="44.6292073" lon="15.9039068"><ele>928.0</ele><time>2026-04-27T12:22:22.386Z</time></trkpt><trkpt lat="44.6290787" lon="15.9039955"><ele>928.0</ele><time>2026-04-27T12:22:23.386Z</time></trkpt><trkpt lat="44.6289408" lon="15.9040897"><ele>928.0</ele><time>2026-04-27T12:22:24.387Z</time></trkpt><trkpt lat="44.6287643" lon="15.9041351"><ele>928.75</ele><time>2026-04-27T12:22:25.386Z</time></trkpt><trkpt lat="44.628637" lon="15.9042073"><ele>929.5</ele><time>2026-04-27T12:22:26.386Z</time></trkpt><trkpt lat="44.6285326" lon="15.904251"><ele>930.25</ele><time>2026-04-27T12:22:27.387Z</time></trkpt><trkpt lat="44.6284363" lon="15.9043217"><ele>931.0</ele><time>2026-04-27T12:22:28.387Z</time></trkpt><trkpt lat="44.6283514" lon="15.9044109"><ele>927.75</ele><time>2026-04-27T12:22:29.387Z</time></trkpt><trkpt lat="44.628255" lon="15.9045329"><ele>924.5</ele><time>2026-04-27T12:22:30.387Z</time></trkpt><trkpt lat="44.6281369" lon="15.9046618"><ele>921.25</ele><time>2026-04-27T12:22:31.386Z</time></trkpt><trkpt lat="44.6280101" lon="15.9048213"><ele>918.0</ele><time>2026-04-27T12:22:32.387Z</time></trkpt><trkpt lat="44.6278928" lon="15.9049652"><ele>918.0</ele><time>2026-04-27T12:22:33.386Z</time></trkpt><trkpt lat="44.6277599" lon="15.90512"><ele>918.0</ele><time>2026-04-27T12:22:34.386Z</time></trkpt><trkpt lat="44.6276261" lon="15.9052769"><ele>918.0</ele><time>2026-04-27T12:22:35.386Z</time></trkpt><trkpt lat="44.6274987" lon="15.9054252"><ele>918.0</ele><time>2026-04-27T12:22:36.386Z</time></trkpt><trkpt lat="44.6273622" lon="15.9055874"><ele>918.0</ele><time>2026-04-27T12:22:37.386Z</time></trkpt><trkpt lat="44.627243" lon="15.9057424"><ele>918.0</ele><time>2026-04-27T12:22:38.386Z</time></trkpt><trkpt lat="44.627134" lon="15.9058955"><ele>916.75</ele><time>2026-04-27T12:22:39.386Z</time></trkpt><trkpt lat="44.6270349" lon="15.906033"><ele>915.5</ele><time>2026-04-27T12:22:40.386Z</time></trkpt><trkpt lat="44.6269338" lon="15.9061637"><ele>914.25</ele><time>2026-04-27T12:22:41.386Z</time></trkpt><trkpt lat="44.6268251" lon="15.9062926"><ele>913.0</ele><time>2026-04-27T12:22:42.386Z</time></trkpt><trkpt lat="44.6267209" lon="15.9064274"><ele>913.0</ele><time>2026-04-27T12:22:43.387Z</time></trkpt><trkpt lat="44.6266179" lon="15.9065726"><ele>913.0</ele><time>2026-04-27T12:22:44.387Z</time></trkpt><trkpt lat="44.6265347" lon="15.9067426"><ele>913.0</ele><time>2026-04-27T12:22:45.386Z</time></trkpt><trkpt lat="44.6264573" lon="15.9069173"><ele>913.0</ele><time>2026-04-27T12:22:46.386Z</time></trkpt><trkpt lat="44.6263701" lon="15.907083"><ele>914.0</ele><time>2026-04-27T12:22:47.386Z</time></trkpt><trkpt lat="44.6262794" lon="15.9072488"><ele>915.0</ele><time>2026-04-27T12:22:48.386Z</time></trkpt><trkpt lat="44.6261853" lon="15.9073948"><ele>916.0</ele><time>2026-04-27T12:22:49.386Z</time></trkpt><trkpt lat="44.6260806" lon="15.9075428"><ele>917.0</ele><time>2026-04-27T12:22:50.386Z</time></trkpt><trkpt lat="44.625968" lon="15.907689"><ele>917.0</ele><time>2026-04-27T12:22:51.386Z</time></trkpt><trkpt lat="44.6258359" lon="15.9078398"><ele>917.0</ele><time>2026-04-27T12:22:52.386Z</time></trkpt><trkpt lat="44.6256998" lon="15.9079866"><ele>917.0</ele><time>2026-04-27T12:22:53.387Z</time></trkpt><trkpt lat="44.6255763" lon="15.9081266"><ele>917.0</ele><time>2026-04-27T12:22:54.387Z</time></trkpt><trkpt lat="44.6254584" lon="15.908247"><ele>917.0</ele><time>2026-04-27T12:22:55.386Z</time></trkpt><trkpt lat="44.6253421" lon="15.9083535"><ele>917.0</ele><time>2026-04-27T12:22:56.386Z</time></trkpt><trkpt lat="44.6252266" lon="15.9084785"><ele>917.0</ele><time>2026-04-27T12:22:57.386Z</time></trkpt><trkpt lat="44.6251359" lon="15.9086075"><ele>917.75</ele><time>2026-04-27T12:22:58.387Z</time></trkpt><trkpt lat="44.6250525" lon="15.9087382"><ele>918.5</ele><time>2026-04-27T12:22:59.386Z</time></trkpt><trkpt lat="44.6249838" lon="15.9088998"><ele>919.25</ele><time>2026-04-27T12:23:00.386Z</time></trkpt><trkpt lat="44.6249153" lon="15.9090848"><ele>920.0</ele><time>2026-04-27T12:23:01.387Z</time></trkpt><trkpt lat="44.62485" lon="15.9092629"><ele>918.25</ele><time>2026-04-27T12:23:02.387Z</time></trkpt><trkpt lat="44.6247851" lon="15.9094196"><ele>916.5</ele><time>2026-04-27T12:23:03.387Z</time></trkpt><trkpt lat="44.6247183" lon="15.9095549"><ele>914.75</ele><time>2026-04-27T12:23:04.387Z</time></trkpt><trkpt lat="44.6246253" lon="15.9096632"><ele>913.0</ele><time>2026-04-27T12:23:05.387Z</time></trkpt><trkpt lat="44.6245033" lon="15.9097569"><ele>914.3333333333333</ele><time>2026-04-27T12:23:06.386Z</time></trkpt><trkpt lat="44.624349" lon="15.9098435"><ele>915.6666666666667</ele><time>2026-04-27T12:23:07.387Z</time></trkpt><trkpt lat="44.6242028" lon="15.9099399"><ele>917.0</ele><time>2026-04-27T12:23:08.386Z</time></trkpt><trkpt lat="44.6240537" lon="15.9100138"><ele>916.6666666666667</ele><time>2026-04-27T12:23:09.386Z</time></trkpt><trkpt lat="44.6238966" lon="15.9101005"><ele>916.3333333333333</ele><time>2026-04-27T12:23:10.386Z</time></trkpt><trkpt lat="44.6237408" lon="15.9101606"><ele>916.0</ele><time>2026-04-27T12:23:11.387Z</time></trkpt><trkpt lat="44.6236364" lon="15.9102432"><ele>916.8</ele><time>2026-04-27T12:23:12.387Z</time></trkpt><trkpt lat="44.6235109" lon="15.9103223"><ele>917.5999999999999</ele><time>2026-04-27T12:23:13.387Z</time></trkpt><trkpt lat="44.6234222" lon="15.9104056"><ele>918.4</ele><time>2026-04-27T12:23:14.387Z</time></trkpt><trkpt lat="44.6233378" lon="15.9104841"><ele>919.2</ele><time>2026-04-27T12:23:15.386Z</time></trkpt><trkpt lat="44.623268" lon="15.9105514"><ele>920.0</ele><time>2026-04-27T12:23:16.387Z</time></trkpt><trkpt lat="44.6232069" lon="15.9105916"><ele>920.0</ele><time>2026-04-27T12:23:17.386Z</time></trkpt><trkpt lat="44.6231139" lon="15.9106451"><ele>920.0</ele><time>2026-04-27T12:23:18.387Z</time></trkpt><trkpt lat="44.623031" lon="15.9106775"><ele>920.0</ele><time>2026-04-27T12:23:19.387Z</time></trkpt><trkpt lat="44.6228824" lon="15.910737"><ele>920.0</ele><time>2026-04-27T12:23:20.387Z</time></trkpt><trkpt lat="44.622788" lon="15.9107785"><ele>920.0</ele><time>2026-04-27T12:23:21.386Z</time></trkpt><trkpt lat="44.6226807" lon="15.910857"><ele>920.75</ele><time>2026-04-27T12:23:22.387Z</time></trkpt><trkpt lat="44.6225852" lon="15.9109311"><ele>921.5</ele><time>2026-04-27T12:23:23.387Z</time></trkpt><trkpt lat="44.6225175" lon="15.9110427"><ele>922.25</ele><time>2026-04-27T12:23:24.387Z</time></trkpt><trkpt lat="44.6224351" lon="15.911176"><ele>923.0</ele><time>2026-04-27T12:23:25.387Z</time></trkpt><trkpt lat="44.622332" lon="15.911272"><ele>923.0</ele><time>2026-04-27T12:23:26.387Z</time></trkpt><trkpt lat="44.6222514" lon="15.911379"><ele>923.0</ele><time>2026-04-27T12:23:27.386Z</time></trkpt><trkpt lat="44.6221472" lon="15.9114816"><ele>923.0</ele><time>2026-04-27T12:23:28.386Z</time></trkpt><trkpt lat="44.6220603" lon="15.9115916"><ele>923.0</ele><time>2026-04-27T12:23:29.386Z</time></trkpt><trkpt lat="44.6219255" lon="15.9117427"><ele>924.25</ele><time>2026-04-27T12:23:30.386Z</time></trkpt><trkpt lat="44.6218002" lon="15.9118568"><ele>925.5</ele><time>2026-04-27T12:23:31.386Z</time></trkpt><trkpt lat="44.6216796" lon="15.9119725"><ele>926.75</ele><time>2026-04-27T12:23:32.384Z</time></trkpt><trkpt lat="44.6215672" lon="15.9120881"><ele>928.0</ele><time>2026-04-27T12:23:33.387Z</time></trkpt><trkpt lat="44.6214772" lon="15.9121999"><ele>928.0</ele><time>2026-04-27T12:23:34.386Z</time></trkpt><trkpt lat="44.6214127" lon="15.9123078"><ele>928.0</ele><time>2026-04-27T12:23:35.386Z</time></trkpt><trkpt lat="44.6213526" lon="15.9124142"><ele>928.0</ele><time>2026-04-27T12:23:36.387Z</time></trkpt><trkpt lat="44.6212964" lon="15.9125419"><ele>928.0</ele><time>2026-04-27T12:23:37.386Z</time></trkpt><trkpt lat="44.6212412" lon="15.9126788"><ele>928.0</ele><time>2026-04-27T12:23:38.386Z</time></trkpt><trkpt lat="44.6212552" lon="15.9128609"><ele>928.0</ele><time>2026-04-27T12:23:39.386Z</time></trkpt><trkpt lat="44.6212367" lon="15.9130096"><ele>928.0</ele><time>2026-04-27T12:23:40.386Z</time></trkpt><trkpt lat="44.6211373" lon="15.9132305"><ele>928.0</ele><time>2026-04-27T12:23:42.386Z</time></trkpt><trkpt lat="44.6210624" lon="15.9133278"><ele>928.0</ele><time>2026-04-27T12:23:43.386Z</time></trkpt><trkpt lat="44.6209341" lon="15.9133675"><ele>930.25</ele><time>2026-04-27T12:23:44.386Z</time></trkpt><trkpt lat="44.6208091" lon="15.9134303"><ele>932.5</ele><time>2026-04-27T12:23:45.386Z</time></trkpt><trkpt lat="44.6206861" lon="15.9135062"><ele>934.75</ele><time>2026-04-27T12:23:46.386Z</time></trkpt><trkpt lat="44.620587" lon="15.9136007"><ele>937.0</ele><time>2026-04-27T12:23:47.386Z</time></trkpt><trkpt lat="44.6204836" lon="15.9137355"><ele>937.0</ele><time>2026-04-27T12:23:48.386Z</time></trkpt><trkpt lat="44.6203835" lon="15.9138424"><ele>937.0</ele><time>2026-04-27T12:23:49.386Z</time></trkpt><trkpt lat="44.6202824" lon="15.9139269"><ele>937.0</ele><time>2026-04-27T12:23:50.386Z</time></trkpt><trkpt lat="44.6200964" lon="15.9140062"><ele>937.0</ele><time>2026-04-27T12:23:52.387Z</time></trkpt><trkpt lat="44.6200037" lon="15.9140075"><ele>939.8333333333333</ele><time>2026-04-27T12:23:53.387Z</time></trkpt><trkpt lat="44.6199087" lon="15.914003"><ele>942.6666666666666</ele><time>2026-04-27T12:23:54.386Z</time></trkpt><trkpt lat="44.6198143" lon="15.9139279"><ele>945.5</ele><time>2026-04-27T12:23:56.386Z</time></trkpt><trkpt lat="44.6197648" lon="15.9138501"><ele>948.3333333333333</ele><time>2026-04-27T12:23:58.386Z</time></trkpt><trkpt lat="44.6197461" lon="15.9137436"><ele>951.1666666666666</ele><time>2026-04-27T12:24:01.386Z</time></trkpt><trkpt lat="44.6197138" lon="15.9136421"><ele>954.0</ele><time>2026-04-27T12:24:03.386Z</time></trkpt><trkpt lat="44.6196939" lon="15.9135198"><ele>954.0</ele><time>2026-04-27T12:24:05.386Z</time></trkpt><trkpt lat="44.6196512" lon="15.9134002"><ele>954.0</ele><time>2026-04-27T12:24:07.386Z</time></trkpt><trkpt lat="44.6196584" lon="15.9135205"><ele>954.0</ele><time>2026-04-27T12:24:43.387Z</time></trkpt><trkpt lat="44.619707" lon="15.9135851"><ele>954.0</ele><time>2026-04-27T12:24:45.386Z</time></trkpt><trkpt lat="44.6197268" lon="15.9137096"><ele>954.0</ele><time>2026-04-27T12:24:48.387Z</time></trkpt><trkpt lat="44.6197281" lon="15.9138425"><ele>954.0</ele><time>2026-04-27T12:24:50.387Z</time></trkpt><trkpt lat="44.6198435" lon="15.91397"><ele>954.0</ele><time>2026-04-27T12:24:52.386Z</time></trkpt><trkpt lat="44.6199751" lon="15.9140378"><ele>954.0</ele><time>2026-04-27T12:24:54.387Z</time></trkpt><trkpt lat="44.6200594" lon="15.9140043"><ele>954.0</ele><time>2026-04-27T12:24:55.386Z</time></trkpt><trkpt lat="44.6201281" lon="15.9140001"><ele>954.0</ele><time>2026-04-27T12:24:56.386Z</time></trkpt><trkpt lat="44.6201961" lon="15.913975"><ele>954.0</ele><time>2026-04-27T12:24:57.386Z</time></trkpt><trkpt lat="44.6202629" lon="15.9139586"><ele>954.0</ele><time>2026-04-27T12:24:58.387Z</time></trkpt><trkpt lat="44.6203425" lon="15.9139175"><ele>951.1666666666666</ele><time>2026-04-27T12:24:59.386Z</time></trkpt><trkpt lat="44.6204335" lon="15.9138398"><ele>948.3333333333333</ele><time>2026-04-27T12:25:00.386Z</time></trkpt><trkpt lat="44.6205001" lon="15.9137688"><ele>945.5</ele><time>2026-04-27T12:25:01.386Z</time></trkpt><trkpt lat="44.6205821" lon="15.9136826"><ele>942.6666666666666</ele><time>2026-04-27T12:25:02.386Z</time></trkpt><trkpt lat="44.6206383" lon="15.9136105"><ele>939.8333333333333</ele><time>2026-04-27T12:25:03.386Z</time></trkpt><trkpt lat="44.6206985" lon="15.9135533"><ele>937.0</ele><time>2026-04-27T12:25:04.387Z</time></trkpt><trkpt lat="44.6207837" lon="15.9134915"><ele>937.0</ele><time>2026-04-27T12:25:05.386Z</time></trkpt><trkpt lat="44.6208754" lon="15.9134702"><ele>937.0</ele><time>2026-04-27T12:25:06.386Z</time></trkpt><trkpt lat="44.6209763" lon="15.9134347"><ele>937.0</ele><time>2026-04-27T12:25:07.386Z</time></trkpt><trkpt lat="44.6211141" lon="15.9133531"><ele>937.0</ele><time>2026-04-27T12:25:09.386Z</time></trkpt><trkpt lat="44.6211903" lon="15.9132193"><ele>935.2</ele><time>2026-04-27T12:25:11.386Z</time></trkpt><trkpt lat="44.6212317" lon="15.9131243"><ele>933.4000000000001</ele><time>2026-04-27T12:25:12.386Z</time></trkpt><trkpt lat="44.6212308" lon="15.9129661"><ele>931.5999999999999</ele><time>2026-04-27T12:25:13.386Z</time></trkpt><trkpt lat="44.6212684" lon="15.9128393"><ele>929.8</ele><time>2026-04-27T12:25:14.386Z</time></trkpt><trkpt lat="44.6212941" lon="15.9127106"><ele>928.0</ele><time>2026-04-27T12:25:15.386Z</time></trkpt><trkpt lat="44.6213098" lon="15.9125987"><ele>927.9999999999999</ele><time>2026-04-27T12:25:16.387Z</time></trkpt><trkpt lat="44.621326" lon="15.9124869"><ele>928.0</ele><time>2026-04-27T12:25:17.387Z</time></trkpt><trkpt lat="44.621347" lon="15.9123742"><ele>928.0</ele><time>2026-04-27T12:25:18.386Z</time></trkpt><trkpt lat="44.6214196" lon="15.9123089"><ele>928.0</ele><time>2026-04-27T12:25:19.387Z</time></trkpt><trkpt lat="44.6214712" lon="15.9122248"><ele>927.9999999999999</ele><time>2026-04-27T12:25:20.387Z</time></trkpt><trkpt lat="44.6215123" lon="15.9121506"><ele>928.0</ele><time>2026-04-27T12:25:21.386Z</time></trkpt><trkpt lat="44.6217221" lon="15.9119512"><ele>928.0</ele><time>2026-04-27T12:25:23.386Z</time></trkpt><trkpt lat="44.6218379" lon="15.9118495"><ele>928.0</ele><time>2026-04-27T12:25:24.386Z</time></trkpt><trkpt lat="44.6219267" lon="15.9117486"><ele>928.0</ele><time>2026-04-27T12:25:25.386Z</time></trkpt><trkpt lat="44.6220238" lon="15.9116555"><ele>928.0</ele><time>2026-04-27T12:25:26.386Z</time></trkpt><trkpt lat="44.6221187" lon="15.9115525"><ele>927.0</ele><time>2026-04-27T12:25:27.386Z</time></trkpt><trkpt lat="44.6222153" lon="15.9114678"><ele>926.0</ele><time>2026-04-27T12:25:28.387Z</time></trkpt><trkpt lat="44.6222605" lon="15.9113913"><ele>925.0</ele><time>2026-04-27T12:25:29.386Z</time></trkpt><trkpt lat="44.6223319" lon="15.9113123"><ele>924.0</ele><time>2026-04-27T12:25:30.386Z</time></trkpt><trkpt lat="44.622394" lon="15.9112083"><ele>923.0</ele><time>2026-04-27T12:25:31.386Z</time></trkpt><trkpt lat="44.6224539" lon="15.9111123"><ele>923.0</ele><time>2026-04-27T12:25:32.387Z</time></trkpt><trkpt lat="44.6225034" lon="15.9109883"><ele>923.0</ele><time>2026-04-27T12:25:33.386Z</time></trkpt><trkpt lat="44.6225771" lon="15.910893"><ele>923.0</ele><time>2026-04-27T12:25:34.387Z</time></trkpt><trkpt lat="44.6226694" lon="15.9107809"><ele>923.0</ele><time>2026-04-27T12:25:36.387Z</time></trkpt><trkpt lat="44.6227786" lon="15.9107736"><ele>923.0</ele><time>2026-04-27T12:25:37.387Z</time></trkpt><trkpt lat="44.6228478" lon="15.910752"><ele>922.4</ele><time>2026-04-27T12:25:38.387Z</time></trkpt><trkpt lat="44.6229228" lon="15.9107417"><ele>921.8</ele><time>2026-04-27T12:25:39.386Z</time></trkpt><trkpt lat="44.6229951" lon="15.9107182"><ele>921.2</ele><time>2026-04-27T12:25:40.386Z</time></trkpt><trkpt lat="44.6231105" lon="15.9107634"><ele>920.6</ele><time>2026-04-27T12:25:42.38Z</time></trkpt><trkpt lat="44.6231893" lon="15.9108358"><ele>920.0</ele><time>2026-04-27T12:25:44.386Z</time></trkpt><trkpt lat="44.6232487" lon="15.9109449"><ele>919.1666666666667</ele><time>2026-04-27T12:25:46.386Z</time></trkpt><trkpt lat="44.6232552" lon="15.9110381"><ele>918.3333333333334</ele><time>2026-04-27T12:25:47.387Z</time></trkpt><trkpt lat="44.623276" lon="15.9111618"><ele>917.5</ele><time>2026-04-27T12:25:48.386Z</time></trkpt><trkpt lat="44.6232793" lon="15.911287"><ele>916.6666666666667</ele><time>2026-04-27T12:25:49.387Z</time></trkpt><trkpt lat="44.6232879" lon="15.9114329"><ele>915.8333333333334</ele><time>2026-04-27T12:25:50.387Z</time></trkpt><trkpt lat="44.623303" lon="15.9115683"><ele>915.0</ele><time>2026-04-27T12:25:51.386Z</time></trkpt><trkpt lat="44.6233246" lon="15.9116937"><ele>913.6</ele><time>2026-04-27T12:25:52.387Z</time></trkpt><trkpt lat="44.6233507" lon="15.9118138"><ele>912.2</ele><time>2026-04-27T12:25:53.386Z</time></trkpt><trkpt lat="44.6233564" lon="15.9119306"><ele>910.8</ele><time>2026-04-27T12:25:54.386Z</time></trkpt><trkpt lat="44.6233187" lon="15.9120327"><ele>909.4</ele><time>2026-04-27T12:25:55.386Z</time></trkpt><trkpt lat="44.6232555" lon="15.9121814"><ele>908.0</ele><time>2026-04-27T12:25:56.386Z</time></trkpt><trkpt lat="44.6232105" lon="15.91234"><ele>908.0</ele><time>2026-04-27T12:25:57.387Z</time></trkpt><trkpt lat="44.6231446" lon="15.9124905"><ele>908.0</ele><time>2026-04-27T12:25:58.386Z</time></trkpt><trkpt lat="44.6230444" lon="15.9126537"><ele>908.0</ele><time>2026-04-27T12:25:59.386Z</time></trkpt><trkpt lat="44.6229482" lon="15.9128089"><ele>908.0</ele><time>2026-04-27T12:26:00.387Z</time></trkpt><trkpt lat="44.6228959" lon="15.9129574"><ele>908.4</ele><time>2026-04-27T12:26:01.386Z</time></trkpt><trkpt lat="44.6228326" lon="15.9130899"><ele>908.8</ele><time>2026-04-27T12:26:02.386Z</time></trkpt><trkpt lat="44.6227582" lon="15.9131611"><ele>909.2</ele><time>2026-04-27T12:26:03.386Z</time></trkpt><trkpt lat="44.6226968" lon="15.913232"><ele>909.6</ele><time>2026-04-27T12:26:04.386Z</time></trkpt><trkpt lat="44.6226254" lon="15.9132823"><ele>910.0</ele><time>2026-04-27T12:26:05.386Z</time></trkpt><trkpt lat="44.6225283" lon="15.9133206"><ele>910.0</ele><time>2026-04-27T12:26:06.387Z</time></trkpt><trkpt lat="44.6224252" lon="15.9133875"><ele>910.0</ele><time>2026-04-27T12:26:07.386Z</time></trkpt><trkpt lat="44.6223303" lon="15.913428"><ele>910.0</ele><time>2026-04-27T12:26:08.386Z</time></trkpt><trkpt lat="44.6222531" lon="15.9134884"><ele>910.0</ele><time>2026-04-27T12:26:09.387Z</time></trkpt><trkpt lat="44.6221755" lon="15.9135516"><ele>910.0</ele><time>2026-04-27T12:26:10.386Z</time></trkpt><trkpt lat="44.6221224" lon="15.9136174"><ele>909.25</ele><time>2026-04-27T12:26:11.387Z</time></trkpt><trkpt lat="44.6220895" lon="15.9137028"><ele>908.5</ele><time>2026-04-27T12:26:12.386Z</time></trkpt><trkpt lat="44.6220276" lon="15.9138983"><ele>907.75</ele><time>2026-04-27T12:26:13.387Z</time></trkpt><trkpt lat="44.6219751" lon="15.9140315"><ele>907.0</ele><time>2026-04-27T12:26:14.387Z</time></trkpt><trkpt lat="44.6219163" lon="15.9142124"><ele>908.6</ele><time>2026-04-27T12:26:15.386Z</time></trkpt><trkpt lat="44.6218621" lon="15.9143755"><ele>910.2</ele><time>2026-04-27T12:26:16.386Z</time></trkpt><trkpt lat="44.6218346" lon="15.9144798"><ele>911.8</ele><time>2026-04-27T12:26:17.387Z</time></trkpt><trkpt lat="44.6217931" lon="15.9145789"><ele>913.4</ele><time>2026-04-27T12:26:18.387Z</time></trkpt><trkpt lat="44.6216985" lon="15.9146356"><ele>915.0</ele><time>2026-04-27T12:26:19.386Z</time></trkpt><trkpt lat="44.621613" lon="15.914713"><ele>915.0</ele><time>2026-04-27T12:26:20.387Z</time></trkpt><trkpt lat="44.6215149" lon="15.9148113"><ele>915.0</ele><time>2026-04-27T12:26:21.386Z</time></trkpt><trkpt lat="44.6214264" lon="15.9149038"><ele>915.0</ele><time>2026-04-27T12:26:22.387Z</time></trkpt><trkpt lat="44.6212842" lon="15.9150763"><ele>915.0</ele><time>2026-04-27T12:26:23.386Z</time></trkpt><trkpt lat="44.6211387" lon="15.9152308"><ele>915.3333333333333</ele><time>2026-04-27T12:26:24.386Z</time></trkpt><trkpt lat="44.621005" lon="15.9153391"><ele>915.6666666666666</ele><time>2026-04-27T12:26:25.386Z</time></trkpt><trkpt lat="44.620886" lon="15.9154628"><ele>916.0</ele><time>2026-04-27T12:26:26.387Z</time></trkpt><trkpt lat="44.6207597" lon="15.9156075"><ele>916.0</ele><time>2026-04-27T12:26:27.386Z</time></trkpt><trkpt lat="44.6206308" lon="15.9157543"><ele>916.0</ele><time>2026-04-27T12:26:28.387Z</time></trkpt><trkpt lat="44.6205495" lon="15.9159085"><ele>916.0</ele><time>2026-04-27T12:26:29.386Z</time></trkpt><trkpt lat="44.6204359" lon="15.9160563"><ele>916.3333333333333</ele><time>2026-04-27T12:26:30.386Z</time></trkpt><trkpt lat="44.6203509" lon="15.9161985"><ele>916.6666666666667</ele><time>2026-04-27T12:26:31.386Z</time></trkpt><trkpt lat="44.6202272" lon="15.9163785"><ele>917.0</ele><time>2026-04-27T12:26:32.386Z</time></trkpt><trkpt lat="44.6201199" lon="15.9165185"><ele>917.0</ele><time>2026-04-27T12:26:33.386Z</time></trkpt><trkpt lat="44.6200059" lon="15.9166586"><ele>917.0</ele><time>2026-04-27T12:26:34.386Z</time></trkpt><trkpt lat="44.619904" lon="15.9168032"><ele>917.0</ele><time>2026-04-27T12:26:35.387Z</time></trkpt><trkpt lat="44.6197722" lon="15.9169823"><ele>917.0</ele><time>2026-04-27T12:26:36.386Z</time></trkpt><trkpt lat="44.6196504" lon="15.9171549"><ele>917.0</ele><time>2026-04-27T12:26:37.386Z</time></trkpt><trkpt lat="44.6195389" lon="15.9173455"><ele>917.0</ele><time>2026-04-27T12:26:38.386Z</time></trkpt><trkpt lat="44.6194415" lon="15.9174895"><ele>912.75</ele><time>2026-04-27T12:26:39.386Z</time></trkpt><trkpt lat="44.6193665" lon="15.9176091"><ele>908.5</ele><time>2026-04-27T12:26:40.386Z</time></trkpt><trkpt lat="44.6192681" lon="15.9177102"><ele>904.25</ele><time>2026-04-27T12:26:41.386Z</time></trkpt><trkpt lat="44.6191694" lon="15.9178235"><ele>900.0</ele><time>2026-04-27T12:26:42.386Z</time></trkpt><trkpt lat="44.6190662" lon="15.9178876"><ele>900.0</ele><time>2026-04-27T12:26:43.386Z</time></trkpt><trkpt lat="44.6189688" lon="15.9179787"><ele>900.0</ele><time>2026-04-27T12:26:44.386Z</time></trkpt><trkpt lat="44.6188825" lon="15.9180596"><ele>900.0</ele><time>2026-04-27T12:26:45.386Z</time></trkpt><trkpt lat="44.6188288" lon="15.9181704"><ele>900.0</ele><time>2026-04-27T12:26:46.387Z</time></trkpt><trkpt lat="44.6187988" lon="15.9182655"><ele>900.0</ele><time>2026-04-27T12:26:47.387Z</time></trkpt><trkpt lat="44.6187676" lon="15.9183914"><ele>899.8</ele><time>2026-04-27T12:26:48.386Z</time></trkpt><trkpt lat="44.6187313" lon="15.9185541"><ele>899.6</ele><time>2026-04-27T12:26:49.386Z</time></trkpt><trkpt lat="44.6187044" lon="15.9186678"><ele>899.4000000000001</ele><time>2026-04-27T12:26:50.387Z</time></trkpt><trkpt lat="44.6186949" lon="15.9188101"><ele>899.2</ele><time>2026-04-27T12:26:52.387Z</time></trkpt><trkpt lat="44.618626" lon="15.9189131"><ele>899.0</ele><time>2026-04-27T12:26:53.386Z</time></trkpt><trkpt lat="44.6185448" lon="15.9190199"><ele>899.0</ele><time>2026-04-27T12:26:54.386Z</time></trkpt><trkpt lat="44.6184618" lon="15.9191121"><ele>899.0000000000001</ele><time>2026-04-27T12:26:55.386Z</time></trkpt><trkpt lat="44.6183824" lon="15.9192185"><ele>899.0000000000001</ele><time>2026-04-27T12:26:56.387Z</time></trkpt><trkpt lat="44.6183117" lon="15.9192754"><ele>899.0</ele><time>2026-04-27T12:26:57.387Z</time></trkpt><trkpt lat="44.61822" lon="15.9193363"><ele>899.0</ele><time>2026-04-27T12:26:58.386Z</time></trkpt><trkpt lat="44.6181198" lon="15.9194166"><ele>897.6666666666667</ele><time>2026-04-27T12:26:59.387Z</time></trkpt><trkpt lat="44.6179848" lon="15.9195505"><ele>896.3333333333333</ele><time>2026-04-27T12:27:00.387Z</time></trkpt><trkpt lat="44.6178605" lon="15.9196644"><ele>895.0</ele><time>2026-04-27T12:27:01.386Z</time></trkpt><trkpt lat="44.6177495" lon="15.9197891"><ele>895.0</ele><time>2026-04-27T12:27:02.386Z</time></trkpt><trkpt lat="44.6176244" lon="15.9199019"><ele>895.0</ele><time>2026-04-27T12:27:03.386Z</time></trkpt><trkpt lat="44.6174726" lon="15.9199791"><ele>895.0</ele><time>2026-04-27T12:27:04.387Z</time></trkpt><trkpt lat="44.617353" lon="15.9200806"><ele>892.5</ele><time>2026-04-27T12:27:05.386Z</time></trkpt><trkpt lat="44.6172176" lon="15.9201499"><ele>890.0</ele><time>2026-04-27T12:27:06.387Z</time></trkpt><trkpt lat="44.6171123" lon="15.9201466"><ele>887.5</ele><time>2026-04-27T12:27:07.386Z</time></trkpt><trkpt lat="44.6169797" lon="15.9201715"><ele>885.0</ele><time>2026-04-27T12:27:08.387Z</time></trkpt><trkpt lat="44.6168498" lon="15.9201835"><ele>885.0</ele><time>2026-04-27T12:27:09.386Z</time></trkpt><trkpt lat="44.6167097" lon="15.9201924"><ele>885.0</ele><time>2026-04-27T12:27:10.387Z</time></trkpt><trkpt lat="44.6165876" lon="15.920246"><ele>885.0</ele><time>2026-04-27T12:27:11.387Z</time></trkpt><trkpt lat="44.6164562" lon="15.9202956"><ele>885.0</ele><time>2026-04-27T12:27:12.386Z</time></trkpt><trkpt lat="44.6163265" lon="15.920379"><ele>885.0</ele><time>2026-04-27T12:27:13.386Z</time></trkpt><trkpt lat="44.6161747" lon="15.9205021"><ele>885.0</ele><time>2026-04-27T12:27:14.387Z</time></trkpt><trkpt lat="44.6160301" lon="15.9206856"><ele>885.0</ele><time>2026-04-27T12:27:15.386Z</time></trkpt><trkpt lat="44.6158758" lon="15.9209149"><ele>882.0</ele><time>2026-04-27T12:27:16.387Z</time></trkpt><trkpt lat="44.6157403" lon="15.9211133"><ele>879.0</ele><time>2026-04-27T12:27:17.386Z</time></trkpt><trkpt lat="44.6156174" lon="15.9213057"><ele>876.0</ele><time>2026-04-27T12:27:18.386Z</time></trkpt><trkpt lat="44.6154806" lon="15.9214949"><ele>876.0</ele><time>2026-04-27T12:27:19.386Z</time></trkpt><trkpt lat="44.6153464" lon="15.9216786"><ele>876.0</ele><time>2026-04-27T12:27:20.386Z</time></trkpt><trkpt lat="44.6152282" lon="15.9218604"><ele>876.0</ele><time>2026-04-27T12:27:21.386Z</time></trkpt><trkpt lat="44.615126" lon="15.9220184"><ele>875.0</ele><time>2026-04-27T12:27:22.387Z</time></trkpt><trkpt lat="44.6150153" lon="15.9221671"><ele>874.0</ele><time>2026-04-27T12:27:23.386Z</time></trkpt><trkpt lat="44.6149241" lon="15.9222999"><ele>873.0</ele><time>2026-04-27T12:27:24.386Z</time></trkpt><trkpt lat="44.6147903" lon="15.9224466"><ele>873.3333333333333</ele><time>2026-04-27T12:27:25.387Z</time></trkpt><trkpt lat="44.6146709" lon="15.9226229"><ele>873.6666666666666</ele><time>2026-04-27T12:27:26.386Z</time></trkpt><trkpt lat="44.6145558" lon="15.9227647"><ele>874.0</ele><time>2026-04-27T12:27:27.386Z</time></trkpt><trkpt lat="44.6144487" lon="15.9228889"><ele>874.0</ele><time>2026-04-27T12:27:28.386Z</time></trkpt><trkpt lat="44.6143304" lon="15.9230103"><ele>874.0</ele><time>2026-04-27T12:27:29.386Z</time></trkpt><trkpt lat="44.6142055" lon="15.9231404"><ele>874.0</ele><time>2026-04-27T12:27:30.386Z</time></trkpt><trkpt lat="44.6140678" lon="15.923277"><ele>867.3333333333333</ele><time>2026-04-27T12:27:31.386Z</time></trkpt><trkpt lat="44.6139483" lon="15.9234121"><ele>860.6666666666667</ele><time>2026-04-27T12:27:32.386Z</time></trkpt><trkpt lat="44.6138217" lon="15.9235546"><ele>854.0</ele><time>2026-04-27T12:27:33.386Z</time></trkpt><trkpt lat="44.613687" lon="15.9236765"><ele>858.5</ele><time>2026-04-27T12:27:34.387Z</time></trkpt><trkpt lat="44.6135436" lon="15.9238071"><ele>863.0</ele><time>2026-04-27T12:27:35.386Z</time></trkpt><trkpt lat="44.6134252" lon="15.9239288"><ele>867.5</ele><time>2026-04-27T12:27:36.386Z</time></trkpt><trkpt lat="44.6133289" lon="15.9240509"><ele>872.0</ele><time>2026-04-27T12:27:37.386Z</time></trkpt><trkpt lat="44.613231" lon="15.9241716"><ele>866.75</ele><time>2026-04-27T12:27:38.386Z</time></trkpt><trkpt lat="44.6131335" lon="15.924286"><ele>861.5</ele><time>2026-04-27T12:27:39.386Z</time></trkpt><trkpt lat="44.6130439" lon="15.9244215"><ele>856.25</ele><time>2026-04-27T12:27:40.386Z</time></trkpt><trkpt lat="44.6129534" lon="15.9245735"><ele>851.0</ele><time>2026-04-27T12:27:41.387Z</time></trkpt><trkpt lat="44.6128665" lon="15.9247432"><ele>851.5</ele><time>2026-04-27T12:27:42.387Z</time></trkpt><trkpt lat="44.612766" lon="15.9248968"><ele>852.0</ele><time>2026-04-27T12:27:43.387Z</time></trkpt><trkpt lat="44.6126861" lon="15.9250594"><ele>852.5</ele><time>2026-04-27T12:27:44.386Z</time></trkpt><trkpt lat="44.6125845" lon="15.925195"><ele>853.0</ele><time>2026-04-27T12:27:45.386Z</time></trkpt><trkpt lat="44.6124955" lon="15.9253324"><ele>853.0</ele><time>2026-04-27T12:27:46.386Z</time></trkpt><trkpt lat="44.6123905" lon="15.9254665"><ele>853.0</ele><time>2026-04-27T12:27:47.387Z</time></trkpt><trkpt lat="44.6123035" lon="15.9255783"><ele>853.0</ele><time>2026-04-27T12:27:48.386Z</time></trkpt><trkpt lat="44.6121826" lon="15.9257255"><ele>853.0</ele><time>2026-04-27T12:27:49.386Z</time></trkpt><trkpt lat="44.6120851" lon="15.9258533"><ele>855.25</ele><time>2026-04-27T12:27:50.386Z</time></trkpt><trkpt lat="44.6120094" lon="15.9259856"><ele>857.5</ele><time>2026-04-27T12:27:51.386Z</time></trkpt><trkpt lat="44.6119576" lon="15.9261217"><ele>859.75</ele><time>2026-04-27T12:27:52.386Z</time></trkpt><trkpt lat="44.6118971" lon="15.9262831"><ele>862.0</ele><time>2026-04-27T12:27:53.386Z</time></trkpt><trkpt lat="44.6118393" lon="15.9264452"><ele>862.0</ele><time>2026-04-27T12:27:54.387Z</time></trkpt><trkpt lat="44.6117869" lon="15.9266441"><ele>862.0</ele><time>2026-04-27T12:27:55.386Z</time></trkpt><trkpt lat="44.6117151" lon="15.9268085"><ele>862.0</ele><time>2026-04-27T12:27:56.387Z</time></trkpt><trkpt lat="44.6116454" lon="15.9269821"><ele>862.0</ele><time>2026-04-27T12:27:57.386Z</time></trkpt><trkpt lat="44.6115901" lon="15.9271487"><ele>858.5</ele><time>2026-04-27T12:27:58.386Z</time></trkpt><trkpt lat="44.6114934" lon="15.9273268"><ele>855.0</ele><time>2026-04-27T12:27:59.386Z</time></trkpt><trkpt lat="44.6114319" lon="15.9275063"><ele>851.5</ele><time>2026-04-27T12:28:00.386Z</time></trkpt><trkpt lat="44.6113811" lon="15.9276735"><ele>848.0</ele><time>2026-04-27T12:28:01.386Z</time></trkpt><trkpt lat="44.6113399" lon="15.9278516"><ele>850.5</ele><time>2026-04-27T12:28:02.386Z</time></trkpt><trkpt lat="44.6112796" lon="15.928015"><ele>853.0</ele><time>2026-04-27T12:28:03.386Z</time></trkpt><trkpt lat="44.6112201" lon="15.9281607"><ele>855.5</ele><time>2026-04-27T12:28:04.386Z</time></trkpt><trkpt lat="44.6111496" lon="15.9283028"><ele>858.0</ele><time>2026-04-27T12:28:05.386Z</time></trkpt><trkpt lat="44.6111036" lon="15.9284648"><ele>858.0</ele><time>2026-04-27T12:28:06.386Z</time></trkpt><trkpt lat="44.6110557" lon="15.9286246"><ele>858.0</ele><time>2026-04-27T12:28:07.386Z</time></trkpt><trkpt lat="44.6110272" lon="15.9287969"><ele>858.0</ele><time>2026-04-27T12:28:08.386Z</time></trkpt><trkpt lat="44.6110054" lon="15.9289618"><ele>858.0</ele><time>2026-04-27T12:28:09.386Z</time></trkpt><trkpt lat="44.6109697" lon="15.9291371"><ele>854.8</ele><time>2026-04-27T12:28:10.386Z</time></trkpt><trkpt lat="44.6109392" lon="15.9292865"><ele>851.5999999999999</ele><time>2026-04-27T12:28:11.386Z</time></trkpt><trkpt lat="44.6109093" lon="15.9294199"><ele>848.4000000000001</ele><time>2026-04-27T12:28:12.387Z</time></trkpt><trkpt lat="44.6108767" lon="15.9295631"><ele>845.2</ele><time>2026-04-27T12:28:13.386Z</time></trkpt><trkpt lat="44.6108419" lon="15.929719"><ele>842.0</ele><time>2026-04-27T12:28:14.386Z</time></trkpt><trkpt lat="44.6107887" lon="15.9298567"><ele>842.0</ele><time>2026-04-27T12:28:15.386Z</time></trkpt><trkpt lat="44.6107298" lon="15.9299935"><ele>842.0</ele><time>2026-04-27T12:28:16.387Z</time></trkpt><trkpt lat="44.6106871" lon="15.9301563"><ele>842.0</ele><time>2026-04-27T12:28:17.387Z</time></trkpt><trkpt lat="44.6106412" lon="15.9303037"><ele>842.0</ele><time>2026-04-27T12:28:18.386Z</time></trkpt><trkpt lat="44.6105885" lon="15.9304744"><ele>838.6</ele><time>2026-04-27T12:28:19.386Z</time></trkpt><trkpt lat="44.6105705" lon="15.9306112"><ele>835.2</ele><time>2026-04-27T12:28:20.386Z</time></trkpt><trkpt lat="44.6105203" lon="15.9307459"><ele>831.8</ele><time>2026-04-27T12:28:21.386Z</time></trkpt><trkpt lat="44.610477" lon="15.9308527"><ele>828.4</ele><time>2026-04-27T12:28:22.386Z</time></trkpt><trkpt lat="44.6104227" lon="15.9309595"><ele>825.0</ele><time>2026-04-27T12:28:23.386Z</time></trkpt><trkpt lat="44.610362" lon="15.931052"><ele>824.5</ele><time>2026-04-27T12:28:24.386Z</time></trkpt><trkpt lat="44.6102708" lon="15.9311461"><ele>824.0</ele><time>2026-04-27T12:28:25.386Z</time></trkpt><trkpt lat="44.6101176" lon="15.9312224"><ele>823.5</ele><time>2026-04-27T12:28:26.387Z</time></trkpt><trkpt lat="44.6099808" lon="15.931326"><ele>823.0</ele><time>2026-04-27T12:28:27.387Z</time></trkpt><trkpt lat="44.6097936" lon="15.9314241"><ele>823.0</ele><time>2026-04-27T12:28:28.387Z</time></trkpt><trkpt lat="44.6096712" lon="15.9315203"><ele>823.0</ele><time>2026-04-27T12:28:29.386Z</time></trkpt><trkpt lat="44.609563" lon="15.9316281"><ele>823.0</ele><time>2026-04-27T12:28:30.386Z</time></trkpt><trkpt lat="44.6094972" lon="15.9317311"><ele>823.0</ele><time>2026-04-27T12:28:31.386Z</time></trkpt><trkpt lat="44.6093722" lon="15.9318763"><ele>826.0</ele><time>2026-04-27T12:28:32.386Z</time></trkpt><trkpt lat="44.6092583" lon="15.9321117"><ele>829.0</ele><time>2026-04-27T12:28:33.386Z</time></trkpt><trkpt lat="44.6091438" lon="15.9323205"><ele>832.0</ele><time>2026-04-27T12:28:34.386Z</time></trkpt><trkpt lat="44.6090409" lon="15.9325436"><ele>828.3333333333333</ele><time>2026-04-27T12:28:35.386Z</time></trkpt><trkpt lat="44.6089176" lon="15.9327539"><ele>824.6666666666667</ele><time>2026-04-27T12:28:36.387Z</time></trkpt><trkpt lat="44.6088141" lon="15.9330018"><ele>821.0</ele><time>2026-04-27T12:28:37.386Z</time></trkpt><trkpt lat="44.6087034" lon="15.9332167"><ele>824.0</ele><time>2026-04-27T12:28:38.386Z</time></trkpt><trkpt lat="44.6086064" lon="15.9334142"><ele>827.0</ele><time>2026-04-27T12:28:39.386Z</time></trkpt><trkpt lat="44.6085373" lon="15.9335835"><ele>830.0</ele><time>2026-04-27T12:28:40.386Z</time></trkpt><trkpt lat="44.6084819" lon="15.9337476"><ele>833.0</ele><time>2026-04-27T12:28:41.386Z</time></trkpt><trkpt lat="44.6083762" lon="15.9339008"><ele>833.0</ele><time>2026-04-27T12:28:42.386Z</time></trkpt><trkpt lat="44.608282" lon="15.9340378"><ele>833.0</ele><time>2026-04-27T12:28:43.386Z</time></trkpt><trkpt lat="44.6081914" lon="15.9341949"><ele>833.0</ele><time>2026-04-27T12:28:44.386Z</time></trkpt><trkpt lat="44.6080851" lon="15.9343328"><ele>833.0</ele><time>2026-04-27T12:28:45.386Z</time></trkpt><trkpt lat="44.6079963" lon="15.9344449"><ele>831.25</ele><time>2026-04-27T12:28:46.386Z</time></trkpt><trkpt lat="44.6078901" lon="15.9345563"><ele>829.5</ele><time>2026-04-27T12:28:47.386Z</time></trkpt><trkpt lat="44.6077807" lon="15.9346707"><ele>827.75</ele><time>2026-04-27T12:28:48.387Z</time></trkpt><trkpt lat="44.6076863" lon="15.934804"><ele>826.0</ele><time>2026-04-27T12:28:49.387Z</time></trkpt><trkpt lat="44.6076064" lon="15.9349421"><ele>828.4</ele><time>2026-04-27T12:28:50.386Z</time></trkpt><trkpt lat="44.6075602" lon="15.9350847"><ele>830.8</ele><time>2026-04-27T12:28:51.386Z</time></trkpt><trkpt lat="44.607509" lon="15.9352168"><ele>833.1999999999999</ele><time>2026-04-27T12:28:52.386Z</time></trkpt><trkpt lat="44.6074819" lon="15.9353391"><ele>835.5999999999999</ele><time>2026-04-27T12:28:53.386Z</time></trkpt><trkpt lat="44.6074798" lon="15.9354505"><ele>838.0</ele><time>2026-04-27T12:28:54.386Z</time></trkpt><trkpt lat="44.6074705" lon="15.9355472"><ele>838.0</ele><time>2026-04-27T12:28:55.386Z</time></trkpt><trkpt lat="44.6075148" lon="15.9356209"><ele>838.0</ele><time>2026-04-27T12:28:56.386Z</time></trkpt><trkpt lat="44.6075984" lon="15.9357642"><ele>838.0</ele><time>2026-04-27T12:28:58.387Z</time></trkpt><trkpt lat="44.6076161" lon="15.9359174"><ele>838.0</ele><time>2026-04-27T12:29:00.386Z</time></trkpt><trkpt lat="44.6075363" lon="15.9361007"><ele>836.0</ele><time>2026-04-27T12:29:02.387Z</time></trkpt><trkpt lat="44.6074541" lon="15.9362192"><ele>834.0</ele><time>2026-04-27T12:29:03.387Z</time></trkpt><trkpt lat="44.6073742" lon="15.9363516"><ele>832.0</ele><time>2026-04-27T12:29:04.386Z</time></trkpt><trkpt lat="44.6072845" lon="15.9364973"><ele>830.0</ele><time>2026-04-27T12:29:05.386Z</time></trkpt><trkpt lat="44.6071893" lon="15.9366399"><ele>828.0</ele><time>2026-04-27T12:29:06.386Z</time></trkpt><trkpt lat="44.6071003" lon="15.9367693"><ele>826.0</ele><time>2026-04-27T12:29:07.386Z</time></trkpt><trkpt lat="44.6069977" lon="15.9368806"><ele>824.0</ele><time>2026-04-27T12:29:08.386Z</time></trkpt><trkpt lat="44.606904" lon="15.9369792"><ele>822.0</ele><time>2026-04-27T12:29:09.386Z</time></trkpt><trkpt lat="44.6068248" lon="15.9370787"><ele>822.0</ele><time>2026-04-27T12:29:10.386Z</time></trkpt><trkpt lat="44.606773" lon="15.9371782"><ele>822.0</ele><time>2026-04-27T12:29:11.386Z</time></trkpt><trkpt lat="44.6066699" lon="15.9371809"><ele>822.0</ele><time>2026-04-27T12:29:13.386Z</time></trkpt><trkpt lat="44.6065852" lon="15.9371835"><ele>822.0</ele><time>2026-04-27T12:29:14.387Z</time></trkpt><trkpt lat="44.6065084" lon="15.9371615"><ele>822.0</ele><time>2026-04-27T12:29:15.386Z</time></trkpt><trkpt lat="44.6064587" lon="15.9371"><ele>822.0</ele><time>2026-04-27T12:29:16.386Z</time></trkpt><trkpt lat="44.6063568" lon="15.9369637"><ele>822.0</ele><time>2026-04-27T12:29:17.387Z</time></trkpt><trkpt lat="44.6062671" lon="15.9368604"><ele>822.0</ele><time>2026-04-27T12:29:18.386Z</time></trkpt><trkpt lat="44.6061604" lon="15.9367918"><ele>822.0</ele><time>2026-04-27T12:29:19.386Z</time></trkpt><trkpt lat="44.6060501" lon="15.9367459"><ele>822.0</ele><time>2026-04-27T12:29:20.386Z</time></trkpt><trkpt lat="44.6059234" lon="15.9367313"><ele>819.8</ele><time>2026-04-27T12:29:21.387Z</time></trkpt><trkpt lat="44.6058207" lon="15.9367356"><ele>817.6</ele><time>2026-04-27T12:29:22.386Z</time></trkpt><trkpt lat="44.6056914" lon="15.9367653"><ele>815.4</ele><time>2026-04-27T12:29:23.387Z</time></trkpt><trkpt lat="44.6055969" lon="15.9367722"><ele>813.1999999999999</ele><time>2026-04-27T12:29:24.386Z</time></trkpt><trkpt lat="44.6055099" lon="15.9367847"><ele>811.0</ele><time>2026-04-27T12:29:25.387Z</time></trkpt><trkpt lat="44.6053953" lon="15.9367605"><ele>811.4</ele><time>2026-04-27T12:29:26.386Z</time></trkpt><trkpt lat="44.6052935" lon="15.9367586"><ele>811.8</ele><time>2026-04-27T12:29:27.386Z</time></trkpt><trkpt lat="44.6051857" lon="15.9367485"><ele>812.1999999999999</ele><time>2026-04-27T12:29:28.386Z</time></trkpt><trkpt lat="44.6050799" lon="15.936716"><ele>812.5999999999999</ele><time>2026-04-27T12:29:29.386Z</time></trkpt><trkpt lat="44.6049649" lon="15.9366697"><ele>813.0</ele><time>2026-04-27T12:29:30.386Z</time></trkpt><trkpt lat="44.6048608" lon="15.9366058"><ele>813.0</ele><time>2026-04-27T12:29:31.386Z</time></trkpt><trkpt lat="44.6047619" lon="15.9365297"><ele>813.0</ele><time>2026-04-27T12:29:32.386Z</time></trkpt><trkpt lat="44.6046526" lon="15.9364521"><ele>813.0</ele><time>2026-04-27T12:29:33.387Z</time></trkpt><trkpt lat="44.604555" lon="15.9363823"><ele>813.0</ele><time>2026-04-27T12:29:34.386Z</time></trkpt><trkpt lat="44.6044618" lon="15.9362938"><ele>810.0</ele><time>2026-04-27T12:29:35.386Z</time></trkpt><trkpt lat="44.6043759" lon="15.9362133"><ele>807.0</ele><time>2026-04-27T12:29:36.386Z</time></trkpt><trkpt lat="44.6043347" lon="15.9361414"><ele>804.0</ele><time>2026-04-27T12:29:37.386Z</time></trkpt><trkpt lat="44.6042299" lon="15.9360972"><ele>801.0</ele><time>2026-04-27T12:29:39.386Z</time></trkpt><trkpt lat="44.6041459" lon="15.9361387"><ele>798.0</ele><time>2026-04-27T12:29:41.386Z</time></trkpt><trkpt lat="44.6041124" lon="15.9362368"><ele>795.0</ele><time>2026-04-27T12:29:42.386Z</time></trkpt><trkpt lat="44.6041699" lon="15.9363475"><ele>795.0</ele><time>2026-04-27T12:29:43.386Z</time></trkpt><trkpt lat="44.6042015" lon="15.9364651"><ele>795.0</ele><time>2026-04-27T12:29:44.386Z</time></trkpt><trkpt lat="44.6042354" lon="15.9365908"><ele>795.0</ele><time>2026-04-27T12:29:45.386Z</time></trkpt><trkpt lat="44.6043355" lon="15.9367929"><ele>795.0</ele><time>2026-04-27T12:29:46.386Z</time></trkpt><trkpt lat="44.604395" lon="15.9369599"><ele>796.5</ele><time>2026-04-27T12:29:47.386Z</time></trkpt><trkpt lat="44.6044804" lon="15.9371275"><ele>798.0</ele><time>2026-04-27T12:29:48.386Z</time></trkpt><trkpt lat="44.6045533" lon="15.9372842"><ele>799.5</ele><time>2026-04-27T12:29:49.386Z</time></trkpt><trkpt lat="44.6046181" lon="15.9374369"><ele>801.0</ele><time>2026-04-27T12:29:50.386Z</time></trkpt><trkpt lat="44.6046792" lon="15.9375858"><ele>797.0</ele><time>2026-04-27T12:29:51.386Z</time></trkpt><trkpt lat="44.6047383" lon="15.9377159"><ele>793.0</ele><time>2026-04-27T12:29:52.386Z</time></trkpt><trkpt lat="44.6047993" lon="15.9378368"><ele>789.0</ele><time>2026-04-27T12:29:53.386Z</time></trkpt><trkpt lat="44.6048583" lon="15.9379672"><ele>785.0</ele><time>2026-04-27T12:29:54.386Z</time></trkpt><trkpt lat="44.6049363" lon="15.9381148"><ele>785.0</ele><time>2026-04-27T12:29:55.387Z</time></trkpt><trkpt lat="44.6050039" lon="15.9382388"><ele>785.0</ele><time>2026-04-27T12:29:56.386Z</time></trkpt><trkpt lat="44.6050774" lon="15.9383547"><ele>785.0</ele><time>2026-04-27T12:29:57.386Z</time></trkpt><trkpt lat="44.6051703" lon="15.9384929"><ele>785.0</ele><time>2026-04-27T12:29:58.386Z</time></trkpt><trkpt lat="44.6052749" lon="15.9386262"><ele>784.4</ele><time>2026-04-27T12:29:59.386Z</time></trkpt><trkpt lat="44.6053642" lon="15.938724"><ele>783.8</ele><time>2026-04-27T12:30:00.386Z</time></trkpt><trkpt lat="44.6054601" lon="15.9387977"><ele>783.2</ele><time>2026-04-27T12:30:01.387Z</time></trkpt><trkpt lat="44.6055612" lon="15.9388606"><ele>782.6</ele><time>2026-04-27T12:30:02.386Z</time></trkpt><trkpt lat="44.6056696" lon="15.9389117"><ele>782.0</ele><time>2026-04-27T12:30:03.387Z</time></trkpt><trkpt lat="44.6057754" lon="15.9389479"><ele>782.0000000000001</ele><time>2026-04-27T12:30:04.386Z</time></trkpt><trkpt lat="44.6058486" lon="15.9389748"><ele>782.0</ele><time>2026-04-27T12:30:05.386Z</time></trkpt><trkpt lat="44.6059114" lon="15.9390247"><ele>782.0</ele><time>2026-04-27T12:30:06.387Z</time></trkpt><trkpt lat="44.6059716" lon="15.9390918"><ele>782.0</ele><time>2026-04-27T12:30:07.387Z</time></trkpt><trkpt lat="44.6059672" lon="15.9391918"><ele>782.0000000000001</ele><time>2026-04-27T12:30:09.386Z</time></trkpt><trkpt lat="44.6058671" lon="15.9392284"><ele>782.0</ele><time>2026-04-27T12:30:11.387Z</time></trkpt><trkpt lat="44.6057639" lon="15.9392101"><ele>782.0</ele><time>2026-04-27T12:30:12.386Z</time></trkpt><trkpt lat="44.6056547" lon="15.9391902"><ele>782.0</ele><time>2026-04-27T12:30:13.387Z</time></trkpt><trkpt lat="44.6055305" lon="15.9391544"><ele>782.0</ele><time>2026-04-27T12:30:14.386Z</time></trkpt><trkpt lat="44.6054155" lon="15.9391062"><ele>782.0</ele><time>2026-04-27T12:30:15.386Z</time></trkpt><trkpt lat="44.6052727" lon="15.9390473"><ele>779.4000000000001</ele><time>2026-04-27T12:30:16.387Z</time></trkpt><trkpt lat="44.6051605" lon="15.9389916"><ele>776.8000000000001</ele><time>2026-04-27T12:30:17.387Z</time></trkpt><trkpt lat="44.6050516" lon="15.9389401"><ele>774.2</ele><time>2026-04-27T12:30:18.387Z</time></trkpt><trkpt lat="44.6049569" lon="15.9389004"><ele>771.6</ele><time>2026-04-27T12:30:19.387Z</time></trkpt><trkpt lat="44.6048611" lon="15.9388706"><ele>769.0</ele><time>2026-04-27T12:30:20.386Z</time></trkpt><trkpt lat="44.6047492" lon="15.9388155"><ele>769.0</ele><time>2026-04-27T12:30:21.386Z</time></trkpt><trkpt lat="44.6046395" lon="15.9387144"><ele>769.0</ele><time>2026-04-27T12:30:22.386Z</time></trkpt><trkpt lat="44.6045495" lon="15.9386367"><ele>769.0</ele><time>2026-04-27T12:30:23.386Z</time></trkpt><trkpt lat="44.6044635" lon="15.9385817"><ele>769.0</ele><time>2026-04-27T12:30:24.386Z</time></trkpt><trkpt lat="44.6043379" lon="15.9385299"><ele>768.25</ele><time>2026-04-27T12:30:25.387Z</time></trkpt><trkpt lat="44.6042017" lon="15.9384808"><ele>767.5</ele><time>2026-04-27T12:30:26.387Z</time></trkpt><trkpt lat="44.6040705" lon="15.938443"><ele>766.75</ele><time>2026-04-27T12:30:27.387Z</time></trkpt><trkpt lat="44.603933" lon="15.9384113"><ele>766.0</ele><time>2026-04-27T12:30:28.386Z</time></trkpt><trkpt lat="44.6037988" lon="15.9383814"><ele>766.0</ele><time>2026-04-27T12:30:29.387Z</time></trkpt><trkpt lat="44.6036641" lon="15.9383546"><ele>766.0</ele><time>2026-04-27T12:30:30.387Z</time></trkpt><trkpt lat="44.6035402" lon="15.9383438"><ele>766.0</ele><time>2026-04-27T12:30:31.386Z</time></trkpt><trkpt lat="44.6034166" lon="15.9383132"><ele>766.0</ele><time>2026-04-27T12:30:32.387Z</time></trkpt><trkpt lat="44.6032848" lon="15.9382709"><ele>762.5</ele><time>2026-04-27T12:30:33.387Z</time></trkpt><trkpt lat="44.6031612" lon="15.9382191"><ele>759.0</ele><time>2026-04-27T12:30:34.386Z</time></trkpt><trkpt lat="44.603037" lon="15.9381744"><ele>755.5</ele><time>2026-04-27T12:30:35.386Z</time></trkpt><trkpt lat="44.6029154" lon="15.9381208"><ele>752.0</ele><time>2026-04-27T12:30:36.387Z</time></trkpt><trkpt lat="44.6028021" lon="15.9380807"><ele>749.25</ele><time>2026-04-27T12:30:37.386Z</time></trkpt><trkpt lat="44.6026733" lon="15.9380297"><ele>746.5</ele><time>2026-04-27T12:30:38.386Z</time></trkpt><trkpt lat="44.6025497" lon="15.9379848"><ele>743.75</ele><time>2026-04-27T12:30:39.387Z</time></trkpt><trkpt lat="44.6024359" lon="15.9379387"><ele>741.0</ele><time>2026-04-27T12:30:40.386Z</time></trkpt><trkpt lat="44.6023005" lon="15.9379116"><ele>741.0</ele><time>2026-04-27T12:30:41.386Z</time></trkpt><trkpt lat="44.6021772" lon="15.9378834"><ele>741.0</ele><time>2026-04-27T12:30:42.386Z</time></trkpt><trkpt lat="44.6020639" lon="15.9378716"><ele>741.0</ele><time>2026-04-27T12:30:43.386Z</time></trkpt><trkpt lat="44.60196" lon="15.9378635"><ele>741.0</ele><time>2026-04-27T12:30:44.387Z</time></trkpt><trkpt lat="44.6018513" lon="15.9378641"><ele>739.75</ele><time>2026-04-27T12:30:45.387Z</time></trkpt><trkpt lat="44.601732" lon="15.9378872"><ele>738.5</ele><time>2026-04-27T12:30:46.386Z</time></trkpt><trkpt lat="44.6016051" lon="15.9379247"><ele>737.25</ele><time>2026-04-27T12:30:47.387Z</time></trkpt><trkpt lat="44.6014716" lon="15.9379587"><ele>736.0</ele><time>2026-04-27T12:30:48.386Z</time></trkpt><trkpt lat="44.6013141" lon="15.9380597"><ele>736.0</ele><time>2026-04-27T12:30:49.387Z</time></trkpt><trkpt lat="44.60119" lon="15.9381293"><ele>736.0</ele><time>2026-04-27T12:30:50.386Z</time></trkpt><trkpt lat="44.6010901" lon="15.9382031"><ele>736.0</ele><time>2026-04-27T12:30:51.386Z</time></trkpt><trkpt lat="44.600984" lon="15.9382927"><ele>736.0</ele><time>2026-04-27T12:30:52.386Z</time></trkpt><trkpt lat="44.6008843" lon="15.9383727"><ele>732.25</ele><time>2026-04-27T12:30:53.386Z</time></trkpt><trkpt lat="44.6007836" lon="15.9384284"><ele>728.5</ele><time>2026-04-27T12:30:54.386Z</time></trkpt><trkpt lat="44.6006622" lon="15.9384632"><ele>724.75</ele><time>2026-04-27T12:30:55.387Z</time></trkpt><trkpt lat="44.6005232" lon="15.9384797"><ele>721.0</ele><time>2026-04-27T12:30:56.386Z</time></trkpt><trkpt lat="44.6003755" lon="15.9384925"><ele>721.0</ele><time>2026-04-27T12:30:57.386Z</time></trkpt><trkpt lat="44.6002303" lon="15.9384886"><ele>721.0</ele><time>2026-04-27T12:30:58.386Z</time></trkpt><trkpt lat="44.600092" lon="15.9384788"><ele>721.0</ele><time>2026-04-27T12:30:59.386Z</time></trkpt><trkpt lat="44.5999463" lon="15.9384578"><ele>721.0</ele><time>2026-04-27T12:31:00.386Z</time></trkpt><trkpt lat="44.5997989" lon="15.9384328"><ele>721.0</ele><time>2026-04-27T12:31:01.386Z</time></trkpt><trkpt lat="44.599657" lon="15.9384101"><ele>721.0</ele><time>2026-04-27T12:31:02.386Z</time></trkpt><trkpt lat="44.5995147" lon="15.9383822"><ele>721.0</ele><time>2026-04-27T12:31:03.386Z</time></trkpt><trkpt lat="44.5993719" lon="15.9383366"><ele>721.0</ele><time>2026-04-27T12:31:04.387Z</time></trkpt><trkpt lat="44.5992306" lon="15.938289"><ele>725.0</ele><time>2026-04-27T12:31:05.387Z</time></trkpt><trkpt lat="44.599082" lon="15.9382519"><ele>729.0</ele><time>2026-04-27T12:31:06.386Z</time></trkpt><trkpt lat="44.5989196" lon="15.9382266"><ele>733.0</ele><time>2026-04-27T12:31:07.387Z</time></trkpt><trkpt lat="44.5987576" lon="15.9382104"><ele>733.25</ele><time>2026-04-27T12:31:08.386Z</time></trkpt><trkpt lat="44.5986017" lon="15.9382022"><ele>733.5</ele><time>2026-04-27T12:31:09.386Z</time></trkpt><trkpt lat="44.5984628" lon="15.9382026"><ele>733.75</ele><time>2026-04-27T12:31:10.386Z</time></trkpt><trkpt lat="44.598333" lon="15.9382102"><ele>734.0</ele><time>2026-04-27T12:31:11.386Z</time></trkpt><trkpt lat="44.5982027" lon="15.9382329"><ele>734.0</ele><time>2026-04-27T12:31:12.386Z</time></trkpt><trkpt lat="44.5980664" lon="15.9382617"><ele>734.0</ele><time>2026-04-27T12:31:13.386Z</time></trkpt><trkpt lat="44.5979314" lon="15.9382899"><ele>734.0</ele><time>2026-04-27T12:31:14.387Z</time></trkpt><trkpt lat="44.597801" lon="15.93829"><ele>734.0</ele><time>2026-04-27T12:31:15.387Z</time></trkpt><trkpt lat="44.5976776" lon="15.9382736"><ele>735.4000000000001</ele><time>2026-04-27T12:31:16.386Z</time></trkpt><trkpt lat="44.5975609" lon="15.9382585"><ele>736.8</ele><time>2026-04-27T12:31:17.386Z</time></trkpt><trkpt lat="44.5974514" lon="15.938254"><ele>738.2</ele><time>2026-04-27T12:31:18.386Z</time></trkpt><trkpt lat="44.5973506" lon="15.9382788"><ele>739.5999999999999</ele><time>2026-04-27T12:31:19.386Z</time></trkpt><trkpt lat="44.5972496" lon="15.9383247"><ele>741.0</ele><time>2026-04-27T12:31:20.387Z</time></trkpt><trkpt lat="44.597174" lon="15.9383928"><ele>738.8</ele><time>2026-04-27T12:31:21.386Z</time></trkpt><trkpt lat="44.5970951" lon="15.9384803"><ele>736.5999999999999</ele><time>2026-04-27T12:31:22.387Z</time></trkpt><trkpt lat="44.5970076" lon="15.9385798"><ele>734.4</ele><time>2026-04-27T12:31:23.386Z</time></trkpt><trkpt lat="44.5969392" lon="15.9386666"><ele>732.2</ele><time>2026-04-27T12:31:24.386Z</time></trkpt><trkpt lat="44.596841" lon="15.9387254"><ele>730.0</ele><time>2026-04-27T12:31:25.386Z</time></trkpt><trkpt lat="44.5967117" lon="15.9387308"><ele>730.0</ele><time>2026-04-27T12:31:26.386Z</time></trkpt><trkpt lat="44.5965835" lon="15.9387384"><ele>730.0</ele><time>2026-04-27T12:31:27.386Z</time></trkpt><trkpt lat="44.5964639" lon="15.9387387"><ele>730.0</ele><time>2026-04-27T12:31:28.387Z</time></trkpt><trkpt lat="44.5963626" lon="15.9387169"><ele>730.0</ele><time>2026-04-27T12:31:29.386Z</time></trkpt><trkpt lat="44.5962659" lon="15.9386946"><ele>730.0</ele><time>2026-04-27T12:31:30.387Z</time></trkpt><trkpt lat="44.596168" lon="15.9386649"><ele>729.0</ele><time>2026-04-27T12:31:31.386Z</time></trkpt><trkpt lat="44.5960804" lon="15.9386418"><ele>728.0</ele><time>2026-04-27T12:31:32.386Z</time></trkpt><trkpt lat="44.5959994" lon="15.9386223"><ele>727.0</ele><time>2026-04-27T12:31:33.386Z</time></trkpt><trkpt lat="44.5959192" lon="15.9385763"><ele>726.0</ele><time>2026-04-27T12:31:35.386Z</time></trkpt><trkpt lat="44.5959306" lon="15.9384874"><ele>725.0</ele><time>2026-04-27T12:31:38.386Z</time></trkpt><trkpt lat="44.5960104" lon="15.9384871"><ele>724.0</ele><time>2026-04-27T12:31:41.386Z</time></trkpt><trkpt lat="44.596078" lon="15.9385977"><ele>724.0</ele><time>2026-04-27T12:31:43.387Z</time></trkpt><trkpt lat="44.5961626" lon="15.9386803"><ele>724.0</ele><time>2026-04-27T12:31:45.386Z</time></trkpt><trkpt lat="44.5962339" lon="15.9387153"><ele>724.0</ele><time>2026-04-27T12:31:46.387Z</time></trkpt><trkpt lat="44.5963196" lon="15.9387447"><ele>724.0</ele><time>2026-04-27T12:31:47.387Z</time></trkpt><trkpt lat="44.5963968" lon="15.9387573"><ele>724.0</ele><time>2026-04-27T12:31:48.387Z</time></trkpt><trkpt lat="44.5964732" lon="15.9387693"><ele>724.0</ele><time>2026-04-27T12:31:49.386Z</time></trkpt><trkpt lat="44.5965413" lon="15.9387536"><ele>725.0</ele><time>2026-04-27T12:31:50.386Z</time></trkpt><trkpt lat="44.5966027" lon="15.9388135"><ele>726.0</ele><time>2026-04-27T12:31:52.386Z</time></trkpt><trkpt lat="44.5965729" lon="15.9389134"><ele>727.0</ele><time>2026-04-27T12:31:54.386Z</time></trkpt><trkpt lat="44.5965136" lon="15.9389478"><ele>728.0</ele><time>2026-04-27T12:31:55.386Z</time></trkpt><trkpt lat="44.5964476" lon="15.938991"><ele>729.0</ele><time>2026-04-27T12:31:56.386Z</time></trkpt><trkpt lat="44.5963439" lon="15.9390578"><ele>730.0</ele><time>2026-04-27T12:31:57.386Z</time></trkpt><trkpt lat="44.5962556" lon="15.9391245"><ele>726.25</ele><time>2026-04-27T12:31:58.387Z</time></trkpt><trkpt lat="44.5961501" lon="15.9392459"><ele>722.5</ele><time>2026-04-27T12:31:59.386Z</time></trkpt><trkpt lat="44.5960357" lon="15.939325"><ele>718.75</ele><time>2026-04-27T12:32:00.386Z</time></trkpt><trkpt lat="44.5959194" lon="15.9394208"><ele>715.0</ele><time>2026-04-27T12:32:01.386Z</time></trkpt><trkpt lat="44.5958065" lon="15.9395065"><ele>715.0</ele><time>2026-04-27T12:32:02.387Z</time></trkpt><trkpt lat="44.595705" lon="15.9395908"><ele>715.0</ele><time>2026-04-27T12:32:03.387Z</time></trkpt><trkpt lat="44.595611" lon="15.9396752"><ele>715.0</ele><time>2026-04-27T12:32:04.386Z</time></trkpt><trkpt lat="44.5955065" lon="15.9397495"><ele>715.0</ele><time>2026-04-27T12:32:05.387Z</time></trkpt><trkpt lat="44.5953977" lon="15.9398195"><ele>714.0</ele><time>2026-04-27T12:32:06.387Z</time></trkpt><trkpt lat="44.5952829" lon="15.9398544"><ele>713.0</ele><time>2026-04-27T12:32:07.386Z</time></trkpt><trkpt lat="44.5951836" lon="15.9398915"><ele>712.0</ele><time>2026-04-27T12:32:08.386Z</time></trkpt><trkpt lat="44.5950525" lon="15.9399378"><ele>711.0</ele><time>2026-04-27T12:32:09.386Z</time></trkpt><trkpt lat="44.5949831" lon="15.9399111"><ele>710.0</ele><time>2026-04-27T12:32:10.386Z</time></trkpt><trkpt lat="44.5948576" lon="15.9399334"><ele>710.0</ele><time>2026-04-27T12:32:12.386Z</time></trkpt><trkpt lat="44.5948049" lon="15.9400047"><ele>710.0</ele><time>2026-04-27T12:32:13.387Z</time></trkpt><trkpt lat="44.5947452" lon="15.9400896"><ele>710.0</ele><time>2026-04-27T12:32:14.386Z</time></trkpt><trkpt lat="44.594672" lon="15.9401438"><ele>710.0</ele><time>2026-04-27T12:32:15.387Z</time></trkpt><trkpt lat="44.5945535" lon="15.9402315"><ele>710.0</ele><time>2026-04-27T12:32:16.386Z</time></trkpt><trkpt lat="44.5944404" lon="15.9403249"><ele>709.0</ele><time>2026-04-27T12:32:17.386Z</time></trkpt><trkpt lat="44.5943435" lon="15.9403809"><ele>708.0</ele><time>2026-04-27T12:32:18.386Z</time></trkpt><trkpt lat="44.5942588" lon="15.9404845"><ele>707.0</ele><time>2026-04-27T12:32:19.387Z</time></trkpt><trkpt lat="44.5941733" lon="15.9405635"><ele>706.0</ele><time>2026-04-27T12:32:20.386Z</time></trkpt><trkpt lat="44.5940792" lon="15.9406345"><ele>705.0</ele><time>2026-04-27T12:32:21.386Z</time></trkpt><trkpt lat="44.5939664" lon="15.9406688"><ele>705.0</ele><time>2026-04-27T12:32:22.386Z</time></trkpt><trkpt lat="44.5938622" lon="15.9407228"><ele>705.0</ele><time>2026-04-27T12:32:23.386Z</time></trkpt><trkpt lat="44.5937581" lon="15.9407526"><ele>705.0</ele><time>2026-04-27T12:32:24.386Z</time></trkpt><trkpt lat="44.5936792" lon="15.9408062"><ele>705.0</ele><time>2026-04-27T12:32:25.386Z</time></trkpt><trkpt lat="44.5935652" lon="15.9408667"><ele>705.0</ele><time>2026-04-27T12:32:26.386Z</time></trkpt><trkpt lat="44.5934756" lon="15.94089"><ele>704.8</ele><time>2026-04-27T12:32:27.386Z</time></trkpt><trkpt lat="44.5933729" lon="15.9409332"><ele>704.6</ele><time>2026-04-27T12:32:28.386Z</time></trkpt><trkpt lat="44.5932704" lon="15.9409942"><ele>704.4000000000001</ele><time>2026-04-27T12:32:30.386Z</time></trkpt><trkpt lat="44.5931933" lon="15.9410788"><ele>704.2</ele><time>2026-04-27T12:32:32.386Z</time></trkpt><trkpt lat="44.5931494" lon="15.9411503"><ele>704.0</ele><time>2026-04-27T12:32:33.386Z</time></trkpt><trkpt lat="44.5930958" lon="15.9412173"><ele>704.0</ele><time>2026-04-27T12:32:34.386Z</time></trkpt><trkpt lat="44.5930415" lon="15.9412722"><ele>704.0</ele><time>2026-04-27T12:32:35.387Z</time></trkpt><trkpt lat="44.5929983" lon="15.9413819"><ele>704.0</ele><time>2026-04-27T12:32:36.387Z</time></trkpt><trkpt lat="44.5928915" lon="15.941472"><ele>704.0</ele><time>2026-04-27T12:32:37.386Z</time></trkpt><trkpt lat="44.5928265" lon="15.9415785"><ele>704.0</ele><time>2026-04-27T12:32:38.386Z</time></trkpt><trkpt lat="44.5927264" lon="15.9417107"><ele>705.0</ele><time>2026-04-27T12:32:39.386Z</time></trkpt><trkpt lat="44.5926383" lon="15.9418347"><ele>706.0</ele><time>2026-04-27T12:32:40.387Z</time></trkpt><trkpt lat="44.5925625" lon="15.9419222"><ele>707.0</ele><time>2026-04-27T12:32:41.386Z</time></trkpt><trkpt lat="44.5924447" lon="15.9420222"><ele>708.0</ele><time>2026-04-27T12:32:43.386Z</time></trkpt><trkpt lat="44.5923718" lon="15.942058"><ele>709.0</ele><time>2026-04-27T12:32:44.386Z</time></trkpt><trkpt lat="44.5923121" lon="15.9421137"><ele>709.0</ele><time>2026-04-27T12:32:47.387Z</time></trkpt><trkpt lat="44.5922317" lon="15.9421906"><ele>709.0</ele><time>2026-04-27T12:32:50.386Z</time></trkpt><trkpt lat="44.5921573" lon="15.9422182"><ele>709.0</ele><time>2026-04-27T12:32:53.387Z</time></trkpt><trkpt lat="44.5920926" lon="15.9422974"><ele>709.0</ele><time>2026-04-27T12:32:57.386Z</time></trkpt><trkpt lat="44.5920255" lon="15.9423754"><ele>709.0</ele><time>2026-04-27T12:32:59.386Z</time></trkpt><trkpt lat="44.5919609" lon="15.9424197"><ele>709.0</ele><time>2026-04-27T12:33:02.386Z</time></trkpt><trkpt lat="44.5919024" lon="15.942484"><ele>709.1666666666667</ele><time>2026-04-27T12:33:04.387Z</time></trkpt><trkpt lat="44.5918143" lon="15.9425805"><ele>709.3333333333334</ele><time>2026-04-27T12:33:06.386Z</time></trkpt><trkpt lat="44.5917568" lon="15.9426203"><ele>709.5</ele><time>2026-04-27T12:33:07.386Z</time></trkpt><trkpt lat="44.5916891" lon="15.9426668"><ele>709.6666666666666</ele><time>2026-04-27T12:33:08.386Z</time></trkpt><trkpt lat="44.5916064" lon="15.9427575"><ele>709.8333333333333</ele><time>2026-04-27T12:33:10.387Z</time></trkpt><trkpt lat="44.5915522" lon="15.9428041"><ele>710.0</ele><time>2026-04-27T12:33:11.387Z</time></trkpt><trkpt lat="44.5914947" lon="15.9428553"><ele>710.0</ele><time>2026-04-27T12:33:12.386Z</time></trkpt><trkpt lat="44.591415" lon="15.9429025"><ele>710.0</ele><time>2026-04-27T12:33:13.386Z</time></trkpt><trkpt lat="44.591341" lon="15.9429389"><ele>710.0</ele><time>2026-04-27T12:33:14.386Z</time></trkpt><trkpt lat="44.5912224" lon="15.9429919"><ele>710.0</ele><time>2026-04-27T12:33:16.386Z</time></trkpt><trkpt lat="44.5911424" lon="15.9429963"><ele>710.0</ele><time>2026-04-27T12:33:17.386Z</time></trkpt><trkpt lat="44.5910747" lon="15.942996"><ele>710.0</ele><time>2026-04-27T12:33:18.386Z</time></trkpt><trkpt lat="44.5910091" lon="15.9429923"><ele>710.8333333333333</ele><time>2026-04-27T12:33:19.387Z</time></trkpt><trkpt lat="44.5909377" lon="15.9430136"><ele>711.6666666666666</ele><time>2026-04-27T12:33:20.387Z</time></trkpt><trkpt lat="44.5908446" lon="15.9430242"><ele>712.5</ele><time>2026-04-27T12:33:21.387Z</time></trkpt><trkpt lat="44.5907358" lon="15.9430655"><ele>713.3333333333334</ele><time>2026-04-27T12:33:22.386Z</time></trkpt><trkpt lat="44.5906454" lon="15.9430798"><ele>714.1666666666667</ele><time>2026-04-27T12:33:23.386Z</time></trkpt><trkpt lat="44.5905898" lon="15.9431309"><ele>715.0</ele><time>2026-04-27T12:33:24.386Z</time></trkpt><trkpt lat="44.5905107" lon="15.943176"><ele>715.0</ele><time>2026-04-27T12:33:26.386Z</time></trkpt><trkpt lat="44.5904449" lon="15.9431956"><ele>715.0</ele><time>2026-04-27T12:33:27.386Z</time></trkpt><trkpt lat="44.5903472" lon="15.9432221"><ele>715.0</ele><time>2026-04-27T12:33:29.385Z</time></trkpt><trkpt lat="44.590285" lon="15.9432513"><ele>715.0</ele><time>2026-04-27T12:33:30.386Z</time></trkpt><trkpt lat="44.5902148" lon="15.9432437"><ele>715.0</ele><time>2026-04-27T12:33:31.386Z</time></trkpt><trkpt lat="44.5901286" lon="15.9432626"><ele>715.0</ele><time>2026-04-27T12:33:32.387Z</time></trkpt><trkpt lat="44.59005" lon="15.94327"><ele>715.5</ele><time>2026-04-27T12:33:33.386Z</time></trkpt><trkpt lat="44.589941" lon="15.9432655"><ele>716.0</ele><time>2026-04-27T12:33:34.387Z</time></trkpt><trkpt lat="44.5898737" lon="15.9432788"><ele>716.5</ele><time>2026-04-27T12:33:35.386Z</time></trkpt><trkpt lat="44.5897878" lon="15.9432717"><ele>717.0</ele><time>2026-04-27T12:33:36.386Z</time></trkpt><trkpt lat="44.5897283" lon="15.9432417"><ele>717.5</ele><time>2026-04-27T12:33:37.386Z</time></trkpt><trkpt lat="44.5896538" lon="15.9432495"><ele>718.0</ele><time>2026-04-27T12:33:38.386Z</time></trkpt><trkpt lat="44.5895857" lon="15.9432337"><ele>718.0</ele><time>2026-04-27T12:33:39.386Z</time></trkpt><trkpt lat="44.5895206" lon="15.9432578"><ele>718.0</ele><time>2026-04-27T12:33:41.387Z</time></trkpt><trkpt lat="44.5894217" lon="15.9432645"><ele>718.0</ele><time>2026-04-27T12:33:43.386Z</time></trkpt><trkpt lat="44.5893542" lon="15.9432598"><ele>718.0</ele><time>2026-04-27T12:33:44.387Z</time></trkpt><trkpt lat="44.5892834" lon="15.9432489"><ele>718.0</ele><time>2026-04-27T12:33:45.387Z</time></trkpt><trkpt lat="44.5891794" lon="15.9432371"><ele>718.0</ele><time>2026-04-27T12:33:46.386Z</time></trkpt><trkpt lat="44.5890301" lon="15.9432767"><ele>717.4</ele><time>2026-04-27T12:33:48.386Z</time></trkpt><trkpt lat="44.588904" lon="15.9433063"><ele>716.8</ele><time>2026-04-27T12:33:50.387Z</time></trkpt><trkpt lat="44.5888303" lon="15.9433218"><ele>716.2</ele><time>2026-04-27T12:33:51.386Z</time></trkpt><trkpt lat="44.5887214" lon="15.9433452"><ele>715.6</ele><time>2026-04-27T12:33:52.386Z</time></trkpt><trkpt lat="44.5886281" lon="15.9433775"><ele>715.0</ele><time>2026-04-27T12:33:54.386Z</time></trkpt><trkpt lat="44.5885655" lon="15.9433961"><ele>711.5714285714286</ele><time>2026-04-27T12:33:55.386Z</time></trkpt><trkpt lat="44.5884909" lon="15.9434391"><ele>708.1428571428571</ele><time>2026-04-27T12:33:56.386Z</time></trkpt><trkpt lat="44.5884091" lon="15.9434521"><ele>704.7142857142857</ele><time>2026-04-27T12:33:57.386Z</time></trkpt><trkpt lat="44.5883429" lon="15.9434602"><ele>701.2857142857142</ele><time>2026-04-27T12:33:58.386Z</time></trkpt><trkpt lat="44.5882766" lon="15.9434833"><ele>697.8571428571429</ele><time>2026-04-27T12:33:59.386Z</time></trkpt><trkpt lat="44.588209" lon="15.9434811"><ele>694.4285714285713</ele><time>2026-04-27T12:34:00.386Z</time></trkpt><trkpt lat="44.588144" lon="15.9434881"><ele>691.0</ele><time>2026-04-27T12:34:01.386Z</time></trkpt><trkpt lat="44.5880672" lon="15.9435017"><ele>691.0</ele><time>2026-04-27T12:34:02.387Z</time></trkpt><trkpt lat="44.5879693" lon="15.9435183"><ele>691.0</ele><time>2026-04-27T12:34:04.386Z</time></trkpt><trkpt lat="44.5878701" lon="15.9435429"><ele>691.0</ele><time>2026-04-27T12:34:06.387Z</time></trkpt><trkpt lat="44.5878046" lon="15.9435451"><ele>691.0</ele><time>2026-04-27T12:34:07.386Z</time></trkpt><trkpt lat="44.5876811" lon="15.9435438"><ele>691.0</ele><time>2026-04-27T12:34:09.386Z</time></trkpt><trkpt lat="44.5875696" lon="15.9435464"><ele>690.0</ele><time>2026-04-27T12:34:11.387Z</time></trkpt><trkpt lat="44.587435" lon="15.9435408"><ele>689.0</ele><time>2026-04-27T12:34:13.387Z</time></trkpt><trkpt lat="44.5873397" lon="15.9435359"><ele>688.0</ele><time>2026-04-27T12:34:15.387Z</time></trkpt><trkpt lat="44.5872683" lon="15.9435386"><ele>687.0</ele><time>2026-04-27T12:34:17.387Z</time></trkpt><trkpt lat="44.5871683" lon="15.9435325"><ele>686.0</ele><time>2026-04-27T12:34:19.387Z</time></trkpt><trkpt lat="44.5870874" lon="15.9435205"><ele>686.0</ele><time>2026-04-27T12:34:21.387Z</time></trkpt><trkpt lat="44.5869718" lon="15.9434757"><ele>686.0</ele><time>2026-04-27T12:34:23.387Z</time></trkpt><trkpt lat="44.5868788" lon="15.9434476"><ele>686.0</ele><time>2026-04-27T12:34:25.386Z</time></trkpt><trkpt lat="44.5867684" lon="15.9434066"><ele>686.0</ele><time>2026-04-27T12:34:27.386Z</time></trkpt><trkpt lat="44.5866816" lon="15.9433902"><ele>686.0</ele><time>2026-04-27T12:34:28.386Z</time></trkpt><trkpt lat="44.5865852" lon="15.9433338"><ele>686.0</ele><time>2026-04-27T12:34:30.386Z</time></trkpt><trkpt lat="44.5865156" lon="15.9433045"><ele>686.0</ele><time>2026-04-27T12:34:31.386Z</time></trkpt><trkpt lat="44.5864475" lon="15.9432795"><ele>686.0</ele><time>2026-04-27T12:34:32.386Z</time></trkpt><trkpt lat="44.5862972" lon="15.943193"><ele>686.0</ele><time>2026-04-27T12:34:34.387Z</time></trkpt><trkpt lat="44.5862336" lon="15.9431794"><ele>686.0</ele><time>2026-04-27T12:34:35.386Z</time></trkpt><trkpt lat="44.5861346" lon="15.9431387"><ele>683.4</ele><time>2026-04-27T12:34:36.386Z</time></trkpt><trkpt lat="44.5860704" lon="15.9431178"><ele>680.8</ele><time>2026-04-27T12:34:37.386Z</time></trkpt><trkpt lat="44.5859951" lon="15.9430845"><ele>678.1999999999999</ele><time>2026-04-27T12:34:38.386Z</time></trkpt><trkpt lat="44.5859031" lon="15.9430487"><ele>675.5999999999999</ele><time>2026-04-27T12:34:39.386Z</time></trkpt><trkpt lat="44.5858118" lon="15.9430326"><ele>673.0</ele><time>2026-04-27T12:34:41.387Z</time></trkpt><trkpt lat="44.5856897" lon="15.9430361"><ele>673.0</ele><time>2026-04-27T12:34:43.386Z</time></trkpt><trkpt lat="44.5856099" lon="15.9430038"><ele>673.0</ele><time>2026-04-27T12:34:45.387Z</time></trkpt><trkpt lat="44.5854997" lon="15.942964"><ele>673.0</ele><time>2026-04-27T12:34:47.386Z</time></trkpt><trkpt lat="44.5853852" lon="15.9429106"><ele>673.0</ele><time>2026-04-27T12:34:49.387Z</time></trkpt><trkpt lat="44.5853079" lon="15.9428973"><ele>673.0</ele><time>2026-04-27T12:34:50.386Z</time></trkpt><trkpt lat="44.5852174" lon="15.9428593"><ele>671.1666666666667</ele><time>2026-04-27T12:34:52.387Z</time></trkpt><trkpt lat="44.5851439" lon="15.9428286"><ele>669.3333333333334</ele><time>2026-04-27T12:34:54.386Z</time></trkpt><trkpt lat="44.5850692" lon="15.9428158"><ele>667.5</ele><time>2026-04-27T12:34:56.386Z</time></trkpt><trkpt lat="44.5849949" lon="15.9427691"><ele>665.6666666666666</ele><time>2026-04-27T12:34:57.386Z</time></trkpt><trkpt lat="44.5849156" lon="15.942767"><ele>663.8333333333333</ele><time>2026-04-27T12:34:59.386Z</time></trkpt><trkpt lat="44.5848103" lon="15.9427196"><ele>662.0</ele><time>2026-04-27T12:35:01.386Z</time></trkpt><trkpt lat="44.5847315" lon="15.9426712"><ele>662.0</ele><time>2026-04-27T12:35:03.387Z</time></trkpt><trkpt lat="44.5846353" lon="15.9426367"><ele>662.0</ele><time>2026-04-27T12:35:05.386Z</time></trkpt><trkpt lat="44.5845548" lon="15.9426201"><ele>662.0</ele><time>2026-04-27T12:35:07.386Z</time></trkpt><trkpt lat="44.5844589" lon="15.9425918"><ele>662.0</ele><time>2026-04-27T12:35:45.386Z</time></trkpt><trkpt lat="44.5843707" lon="15.9425557"><ele>662.0</ele><time>2026-04-27T12:35:47.386Z</time></trkpt><trkpt lat="44.5842532" lon="15.9424995"><ele>661.0</ele><time>2026-04-27T12:35:49.387Z</time></trkpt><trkpt lat="44.584153" lon="15.9424801"><ele>660.0</ele><time>2026-04-27T12:35:51.387Z</time></trkpt><trkpt lat="44.5840487" lon="15.9424824"><ele>659.0</ele><time>2026-04-27T12:35:53.386Z</time></trkpt><trkpt lat="44.5839436" lon="15.9425047"><ele>658.0</ele><time>2026-04-27T12:35:55.386Z</time></trkpt><trkpt lat="44.583871" lon="15.9425519"><ele>657.0</ele><time>2026-04-27T12:35:57.387Z</time></trkpt><trkpt lat="44.5837956" lon="15.9425776"><ele>656.3333333333334</ele><time>2026-04-27T12:35:58.386Z</time></trkpt><trkpt lat="44.5837298" lon="15.9426123"><ele>655.6666666666666</ele><time>2026-04-27T12:35:59.387Z</time></trkpt><trkpt lat="44.5836272" lon="15.9426409"><ele>655.0</ele><time>2026-04-27T12:36:00.387Z</time></trkpt><trkpt lat="44.5835516" lon="15.9426506"><ele>654.3333333333333</ele><time>2026-04-27T12:36:01.386Z</time></trkpt><trkpt lat="44.5834797" lon="15.9427025"><ele>653.6666666666666</ele><time>2026-04-27T12:36:02.387Z</time></trkpt><trkpt lat="44.5834163" lon="15.9427442"><ele>653.0</ele><time>2026-04-27T12:36:03.386Z</time></trkpt><trkpt lat="44.5833327" lon="15.9427705"><ele>652.8333333333333</ele><time>2026-04-27T12:36:04.386Z</time></trkpt><trkpt lat="44.5832486" lon="15.9427949"><ele>652.6666666666666</ele><time>2026-04-27T12:36:05.386Z</time></trkpt><trkpt lat="44.5832056" lon="15.94287"><ele>652.5</ele><time>2026-04-27T12:36:06.386Z</time></trkpt><trkpt lat="44.5831491" lon="15.9429132"><ele>652.3333333333334</ele><time>2026-04-27T12:36:07.387Z</time></trkpt><trkpt lat="44.5830721" lon="15.9429371"><ele>652.1666666666667</ele><time>2026-04-27T12:36:08.386Z</time></trkpt><trkpt lat="44.5829244" lon="15.9429777"><ele>652.0</ele><time>2026-04-27T12:36:10.386Z</time></trkpt><trkpt lat="44.5828488" lon="15.9429784"><ele>651.6</ele><time>2026-04-27T12:36:11.387Z</time></trkpt><trkpt lat="44.5827545" lon="15.9429678"><ele>651.2</ele><time>2026-04-27T12:36:12.386Z</time></trkpt><trkpt lat="44.5826815" lon="15.9429632"><ele>650.8</ele><time>2026-04-27T12:36:13.386Z</time></trkpt><trkpt lat="44.5826084" lon="15.9429485"><ele>650.4</ele><time>2026-04-27T12:36:14.386Z</time></trkpt><trkpt lat="44.5825154" lon="15.9429321"><ele>650.0</ele><time>2026-04-27T12:36:15.386Z</time></trkpt><trkpt lat="44.5823912" lon="15.9429275"><ele>650.0</ele><time>2026-04-27T12:36:17.386Z</time></trkpt><trkpt lat="44.582327" lon="15.942909"><ele>650.0</ele><time>2026-04-27T12:36:18.386Z</time></trkpt><trkpt lat="44.5822395" lon="15.9429082"><ele>650.0</ele><time>2026-04-27T12:36:19.386Z</time></trkpt><trkpt lat="44.5821523" lon="15.9429359"><ele>650.0</ele><time>2026-04-27T12:36:20.387Z</time></trkpt><trkpt lat="44.5820728" lon="15.9429401"><ele>650.0</ele><time>2026-04-27T12:36:21.386Z</time></trkpt><trkpt lat="44.5819861" lon="15.9429298"><ele>650.0</ele><time>2026-04-27T12:36:22.387Z</time></trkpt><trkpt lat="44.5819017" lon="15.9429299"><ele>650.3333333333333</ele><time>2026-04-27T12:36:23.386Z</time></trkpt><trkpt lat="44.5818266" lon="15.9429252"><ele>650.6666666666666</ele><time>2026-04-27T12:36:24.386Z</time></trkpt><trkpt lat="44.5817496" lon="15.9429119"><ele>651.0</ele><time>2026-04-27T12:36:25.386Z</time></trkpt><trkpt lat="44.5816835" lon="15.942911"><ele>651.3333333333334</ele><time>2026-04-27T12:36:26.387Z</time></trkpt><trkpt lat="44.5816112" lon="15.9428957"><ele>651.6666666666667</ele><time>2026-04-27T12:36:27.386Z</time></trkpt><trkpt lat="44.5815191" lon="15.9428722"><ele>652.0</ele><time>2026-04-27T12:36:28.387Z</time></trkpt><trkpt lat="44.5813946" lon="15.9428313"><ele>652.0</ele><time>2026-04-27T12:36:30.387Z</time></trkpt><trkpt lat="44.5813144" lon="15.9427922"><ele>652.0</ele><time>2026-04-27T12:36:31.387Z</time></trkpt><trkpt lat="44.5812349" lon="15.942775"><ele>652.0</ele><time>2026-04-27T12:36:32.387Z</time></trkpt><trkpt lat="44.5811388" lon="15.9427187"><ele>652.0</ele><time>2026-04-27T12:36:33.386Z</time></trkpt><trkpt lat="44.5810657" lon="15.9426679"><ele>652.0</ele><time>2026-04-27T12:36:34.387Z</time></trkpt><trkpt lat="44.5809861" lon="15.9426152"><ele>652.0</ele><time>2026-04-27T12:36:35.386Z</time></trkpt><trkpt lat="44.5808537" lon="15.9426122"><ele>650.5</ele><time>2026-04-27T12:36:37.386Z</time></trkpt><trkpt lat="44.5807599" lon="15.9426246"><ele>649.0</ele><time>2026-04-27T12:36:38.386Z</time></trkpt><trkpt lat="44.5806647" lon="15.9426302"><ele>647.5</ele><time>2026-04-27T12:36:39.387Z</time></trkpt><trkpt lat="44.5805767" lon="15.9426403"><ele>646.0</ele><time>2026-04-27T12:36:40.386Z</time></trkpt><trkpt lat="44.5805115" lon="15.9426464"><ele>644.5</ele><time>2026-04-27T12:36:41.386Z</time></trkpt><trkpt lat="44.5804454" lon="15.9426403"><ele>643.0</ele><time>2026-04-27T12:36:42.386Z</time></trkpt><trkpt lat="44.5803781" lon="15.942609"><ele>642.8333333333334</ele><time>2026-04-27T12:36:43.386Z</time></trkpt><trkpt lat="44.5803099" lon="15.9425821"><ele>642.6666666666667</ele><time>2026-04-27T12:36:44.386Z</time></trkpt><trkpt lat="44.5802455" lon="15.9425467"><ele>642.5</ele><time>2026-04-27T12:36:45.386Z</time></trkpt><trkpt lat="44.5801276" lon="15.9425026"><ele>642.3333333333334</ele><time>2026-04-27T12:36:47.387Z</time></trkpt><trkpt lat="44.5800517" lon="15.942449"><ele>642.1666666666666</ele><time>2026-04-27T12:36:48.386Z</time></trkpt><trkpt lat="44.5799943" lon="15.9423897"><ele>642.0</ele><time>2026-04-27T12:36:49.387Z</time></trkpt><trkpt lat="44.579946" lon="15.9423127"><ele>642.0</ele><time>2026-04-27T12:36:50.386Z</time></trkpt><trkpt lat="44.5799159" lon="15.9422214"><ele>642.0</ele><time>2026-04-27T12:36:51.387Z</time></trkpt><trkpt lat="44.5798656" lon="15.94208"><ele>642.0</ele><time>2026-04-27T12:36:53.386Z</time></trkpt><trkpt lat="44.5798055" lon="15.9419997"><ele>642.0</ele><time>2026-04-27T12:36:55.387Z</time></trkpt><trkpt lat="44.5797222" lon="15.9420185"><ele>642.0</ele><time>2026-04-27T12:36:58.386Z</time></trkpt><trkpt lat="44.5796861" lon="15.9421719"><ele>642.0</ele><time>2026-04-27T12:37:00.387Z</time></trkpt><trkpt lat="44.5796684" lon="15.9422827"><ele>642.0</ele><time>2026-04-27T12:37:01.386Z</time></trkpt><trkpt lat="44.5796408" lon="15.9424005"><ele>642.0</ele><time>2026-04-27T12:37:02.387Z</time></trkpt><trkpt lat="44.5796194" lon="15.9425259"><ele>642.0</ele><time>2026-04-27T12:37:03.386Z</time></trkpt><trkpt lat="44.5795959" lon="15.9426332"><ele>642.0</ele><time>2026-04-27T12:37:04.386Z</time></trkpt><trkpt lat="44.5795591" lon="15.9427417"><ele>642.0</ele><time>2026-04-27T12:37:05.387Z</time></trkpt><trkpt lat="44.5795345" lon="15.9428444"><ele>641.3333333333334</ele><time>2026-04-27T12:37:06.386Z</time></trkpt><trkpt lat="44.5795201" lon="15.9429328"><ele>640.6666666666666</ele><time>2026-04-27T12:37:07.386Z</time></trkpt><trkpt lat="44.579526" lon="15.9430243"><ele>640.0</ele><time>2026-04-27T12:37:08.385Z</time></trkpt><trkpt lat="44.5795494" lon="15.9431278"><ele>639.3333333333333</ele><time>2026-04-27T12:37:09.386Z</time></trkpt><trkpt lat="44.5795866" lon="15.9432383"><ele>638.6666666666666</ele><time>2026-04-27T12:37:10.387Z</time></trkpt><trkpt lat="44.5796388" lon="15.943358"><ele>638.0</ele><time>2026-04-27T12:37:11.387Z</time></trkpt><trkpt lat="44.5796951" lon="15.9434725"><ele>638.0</ele><time>2026-04-27T12:37:12.386Z</time></trkpt><trkpt lat="44.5797607" lon="15.9435749"><ele>638.0</ele><time>2026-04-27T12:37:13.386Z</time></trkpt><trkpt lat="44.5798297" lon="15.9436685"><ele>638.0</ele><time>2026-04-27T12:37:14.387Z</time></trkpt><trkpt lat="44.5798955" lon="15.943762"><ele>638.0</ele><time>2026-04-27T12:37:15.386Z</time></trkpt><trkpt lat="44.5799415" lon="15.9438593"><ele>638.0</ele><time>2026-04-27T12:37:16.387Z</time></trkpt><trkpt lat="44.5799703" lon="15.9439617"><ele>638.0</ele><time>2026-04-27T12:37:17.386Z</time></trkpt><trkpt lat="44.5799277" lon="15.9440304"><ele>638.0</ele><time>2026-04-27T12:37:18.387Z</time></trkpt><trkpt lat="44.5798416" lon="15.9441115"><ele>638.0</ele><time>2026-04-27T12:37:20.386Z</time></trkpt><trkpt lat="44.5797685" lon="15.9441347"><ele>638.0</ele><time>2026-04-27T12:37:21.387Z</time></trkpt><trkpt lat="44.5796705" lon="15.9441457"><ele>638.0</ele><time>2026-04-27T12:37:22.387Z</time></trkpt><trkpt lat="44.5795634" lon="15.9441589"><ele>638.0</ele><time>2026-04-27T12:37:23.386Z</time></trkpt><trkpt lat="44.5794381" lon="15.9441684"><ele>638.5999999999999</ele><time>2026-04-27T12:37:24.387Z</time></trkpt><trkpt lat="44.579347" lon="15.9441993"><ele>639.1999999999999</ele><time>2026-04-27T12:37:25.386Z</time></trkpt><trkpt lat="44.5792546" lon="15.9442599"><ele>639.8</ele><time>2026-04-27T12:37:26.386Z</time></trkpt><trkpt lat="44.5791596" lon="15.9443201"><ele>640.4</ele><time>2026-04-27T12:37:27.386Z</time></trkpt><trkpt lat="44.5790923" lon="15.9443848"><ele>641.0</ele><time>2026-04-27T12:37:28.386Z</time></trkpt><trkpt lat="44.5790453" lon="15.9445529"><ele>641.0</ele><time>2026-04-27T12:37:30.386Z</time></trkpt><trkpt lat="44.5790202" lon="15.9446707"><ele>641.0</ele><time>2026-04-27T12:37:31.386Z</time></trkpt><trkpt lat="44.5789875" lon="15.944789"><ele>641.0</ele><time>2026-04-27T12:37:32.386Z</time></trkpt><trkpt lat="44.5789385" lon="15.9449296"><ele>641.0</ele><time>2026-04-27T12:37:33.385Z</time></trkpt><trkpt lat="44.5789104" lon="15.9450779"><ele>641.0</ele><time>2026-04-27T12:37:34.387Z</time></trkpt><trkpt lat="44.5789027" lon="15.9452173"><ele>642.5</ele><time>2026-04-27T12:37:35.386Z</time></trkpt><trkpt lat="44.5789189" lon="15.9453783"><ele>644.0</ele><time>2026-04-27T12:37:36.387Z</time></trkpt><trkpt lat="44.5789188" lon="15.9455297"><ele>645.5</ele><time>2026-04-27T12:37:37.386Z</time></trkpt><trkpt lat="44.5789337" lon="15.9456867"><ele>647.0</ele><time>2026-04-27T12:37:38.386Z</time></trkpt><trkpt lat="44.5789419" lon="15.9458565"><ele>649.5</ele><time>2026-04-27T12:37:39.387Z</time></trkpt><trkpt lat="44.5789422" lon="15.9460286"><ele>652.0</ele><time>2026-04-27T12:37:40.386Z</time></trkpt><trkpt lat="44.5789187" lon="15.9461886"><ele>654.5</ele><time>2026-04-27T12:37:41.386Z</time></trkpt><trkpt lat="44.578906" lon="15.9463446"><ele>657.0</ele><time>2026-04-27T12:37:42.387Z</time></trkpt><trkpt lat="44.578881" lon="15.9464892"><ele>657.0</ele><time>2026-04-27T12:37:43.386Z</time></trkpt><trkpt lat="44.5788492" lon="15.9466124"><ele>657.0</ele><time>2026-04-27T12:37:44.387Z</time></trkpt><trkpt lat="44.578798" lon="15.9466813"><ele>657.0</ele><time>2026-04-27T12:37:45.386Z</time></trkpt><trkpt lat="44.5787454" lon="15.9467665"><ele>657.0</ele><time>2026-04-27T12:37:46.387Z</time></trkpt><trkpt lat="44.5786778" lon="15.9468667"><ele>657.0</ele><time>2026-04-27T12:37:47.386Z</time></trkpt><trkpt lat="44.5785453" lon="15.9469776"><ele>657.25</ele><time>2026-04-27T12:37:48.386Z</time></trkpt><trkpt lat="44.5784454" lon="15.9470861"><ele>657.5</ele><time>2026-04-27T12:37:49.386Z</time></trkpt><trkpt lat="44.5783407" lon="15.9472009"><ele>657.75</ele><time>2026-04-27T12:37:50.386Z</time></trkpt><trkpt lat="44.5782276" lon="15.947339"><ele>658.0</ele><time>2026-04-27T12:37:51.386Z</time></trkpt><trkpt lat="44.5781093" lon="15.9474498"><ele>657.75</ele><time>2026-04-27T12:37:52.386Z</time></trkpt><trkpt lat="44.5779859" lon="15.9475452"><ele>657.5</ele><time>2026-04-27T12:37:53.386Z</time></trkpt><trkpt lat="44.5778602" lon="15.9476482"><ele>657.25</ele><time>2026-04-27T12:37:54.387Z</time></trkpt><trkpt lat="44.5777247" lon="15.94774"><ele>657.0</ele><time>2026-04-27T12:37:55.386Z</time></trkpt><trkpt lat="44.5776067" lon="15.9478347"><ele>657.0</ele><time>2026-04-27T12:37:56.387Z</time></trkpt><trkpt lat="44.5774881" lon="15.9479127"><ele>657.0</ele><time>2026-04-27T12:37:57.387Z</time></trkpt><trkpt lat="44.577366" lon="15.9480044"><ele>657.0</ele><time>2026-04-27T12:37:58.387Z</time></trkpt><trkpt lat="44.5772579" lon="15.9481022"><ele>657.0</ele><time>2026-04-27T12:37:59.387Z</time></trkpt><trkpt lat="44.5771615" lon="15.9482265"><ele>657.0</ele><time>2026-04-27T12:38:00.386Z</time></trkpt><trkpt lat="44.5770676" lon="15.9483708"><ele>657.0</ele><time>2026-04-27T12:38:01.387Z</time></trkpt><trkpt lat="44.5769911" lon="15.9485101"><ele>657.0</ele><time>2026-04-27T12:38:02.386Z</time></trkpt><trkpt lat="44.5769281" lon="15.9486366"><ele>657.0</ele><time>2026-04-27T12:38:03.387Z</time></trkpt><trkpt lat="44.5768792" lon="15.948745"><ele>658.5</ele><time>2026-04-27T12:38:04.386Z</time></trkpt><trkpt lat="44.5768409" lon="15.9488746"><ele>660.0</ele><time>2026-04-27T12:38:06.386Z</time></trkpt><trkpt lat="44.5769289" lon="15.9488785"><ele>661.5</ele><time>2026-04-27T12:38:10.387Z</time></trkpt><trkpt lat="44.5770064" lon="15.9487654"><ele>663.0</ele><time>2026-04-27T12:38:12.387Z</time></trkpt><trkpt lat="44.5770458" lon="15.9486861"><ele>664.5</ele><time>2026-04-27T12:38:13.387Z</time></trkpt><trkpt lat="44.577082" lon="15.9486091"><ele>666.0</ele><time>2026-04-27T12:38:14.387Z</time></trkpt><trkpt lat="44.577129" lon="15.9485304"><ele>666.0</ele><time>2026-04-27T12:38:15.386Z</time></trkpt><trkpt lat="44.5771951" lon="15.9484646"><ele>666.0</ele><time>2026-04-27T12:38:16.386Z</time></trkpt><trkpt lat="44.5772585" lon="15.9484081"><ele>666.0</ele><time>2026-04-27T12:38:17.387Z</time></trkpt><trkpt lat="44.5773303" lon="15.9483433"><ele>666.0</ele><time>2026-04-27T12:38:18.386Z</time></trkpt><trkpt lat="44.5774275" lon="15.9482684"><ele>666.0</ele><time>2026-04-27T12:38:19.386Z</time></trkpt><trkpt lat="44.5775052" lon="15.948206"><ele>666.0</ele><time>2026-04-27T12:38:20.386Z</time></trkpt><trkpt lat="44.5776166" lon="15.9481089"><ele>663.75</ele><time>2026-04-27T12:38:21.386Z</time></trkpt><trkpt lat="44.5777051" lon="15.9480209"><ele>661.5</ele><time>2026-04-27T12:38:22.387Z</time></trkpt><trkpt lat="44.5778062" lon="15.947945"><ele>659.25</ele><time>2026-04-27T12:38:23.386Z</time></trkpt><trkpt lat="44.5779326" lon="15.9478741"><ele>657.0</ele><time>2026-04-27T12:38:24.386Z</time></trkpt><trkpt lat="44.5780405" lon="15.9478268"><ele>662.25</ele><time>2026-04-27T12:38:25.386Z</time></trkpt><trkpt lat="44.5781555" lon="15.9477864"><ele>667.5</ele><time>2026-04-27T12:38:26.386Z</time></trkpt><trkpt lat="44.5782578" lon="15.9477114"><ele>672.75</ele><time>2026-04-27T12:38:27.386Z</time></trkpt><trkpt lat="44.578377" lon="15.947646"><ele>678.0</ele><time>2026-04-27T12:38:28.386Z</time></trkpt><trkpt lat="44.578504" lon="15.9475812"><ele>677.0</ele><time>2026-04-27T12:38:29.386Z</time></trkpt><trkpt lat="44.5786126" lon="15.9474947"><ele>676.0</ele><time>2026-04-27T12:38:30.387Z</time></trkpt><trkpt lat="44.5787232" lon="15.9474313"><ele>675.0</ele><time>2026-04-27T12:38:31.386Z</time></trkpt><trkpt lat="44.5788207" lon="15.947352"><ele>674.0</ele><time>2026-04-27T12:38:32.386Z</time></trkpt><trkpt lat="44.5788955" lon="15.9472597"><ele>674.0</ele><time>2026-04-27T12:38:33.387Z</time></trkpt><trkpt lat="44.578962" lon="15.9472118"><ele>674.0</ele><time>2026-04-27T12:38:34.386Z</time></trkpt><trkpt lat="44.5790429" lon="15.9471537"><ele>674.0</ele><time>2026-04-27T12:38:35.386Z</time></trkpt><trkpt lat="44.57911" lon="15.9471184"><ele>674.0</ele><time>2026-04-27T12:38:36.386Z</time></trkpt><trkpt lat="44.5791804" lon="15.9470623"><ele>674.0</ele><time>2026-04-27T12:38:37.386Z</time></trkpt><trkpt lat="44.5792612" lon="15.9469881"><ele>674.0</ele><time>2026-04-27T12:38:38.386Z</time></trkpt><trkpt lat="44.5793363" lon="15.9468955"><ele>674.0</ele><time>2026-04-27T12:38:39.386Z</time></trkpt><trkpt lat="44.5793998" lon="15.9468078"><ele>674.0</ele><time>2026-04-27T12:38:40.386Z</time></trkpt><trkpt lat="44.5794833" lon="15.946716"><ele>674.0</ele><time>2026-04-27T12:38:41.387Z</time></trkpt><trkpt lat="44.5795786" lon="15.9466351"><ele>674.0</ele><time>2026-04-27T12:38:42.386Z</time></trkpt><trkpt lat="44.5796675" lon="15.9465624"><ele>674.0</ele><time>2026-04-27T12:38:43.386Z</time></trkpt><trkpt lat="44.5797582" lon="15.9464836"><ele>674.5</ele><time>2026-04-27T12:38:44.387Z</time></trkpt><trkpt lat="44.5798568" lon="15.9464112"><ele>675.0</ele><time>2026-04-27T12:38:45.387Z</time></trkpt><trkpt lat="44.579965" lon="15.9463577"><ele>675.5</ele><time>2026-04-27T12:38:46.386Z</time></trkpt><trkpt lat="44.5800712" lon="15.9462974"><ele>676.0</ele><time>2026-04-27T12:38:47.387Z</time></trkpt><trkpt lat="44.580181" lon="15.9462466"><ele>676.0</ele><time>2026-04-27T12:38:48.386Z</time></trkpt><trkpt lat="44.5802854" lon="15.9461923"><ele>676.0</ele><time>2026-04-27T12:38:49.386Z</time></trkpt><trkpt lat="44.5803856" lon="15.946146"><ele>676.0</ele><time>2026-04-27T12:38:50.387Z</time></trkpt><trkpt lat="44.5805053" lon="15.9461017"><ele>676.0</ele><time>2026-04-27T12:38:51.386Z</time></trkpt><trkpt lat="44.580597" lon="15.9460477"><ele>676.0</ele><time>2026-04-27T12:38:52.386Z</time></trkpt><trkpt lat="44.5806953" lon="15.9459847"><ele>675.1999999999999</ele><time>2026-04-27T12:38:53.387Z</time></trkpt><trkpt lat="44.5807883" lon="15.9459067"><ele>674.4</ele><time>2026-04-27T12:38:54.386Z</time></trkpt><trkpt lat="44.5808738" lon="15.9458171"><ele>673.6</ele><time>2026-04-27T12:38:55.386Z</time></trkpt><trkpt lat="44.5809574" lon="15.9457299"><ele>672.8</ele><time>2026-04-27T12:38:56.386Z</time></trkpt><trkpt lat="44.5810447" lon="15.9456669"><ele>672.0</ele><time>2026-04-27T12:38:57.386Z</time></trkpt><trkpt lat="44.5811185" lon="15.945597"><ele>672.0</ele><time>2026-04-27T12:38:58.386Z</time></trkpt><trkpt lat="44.581204" lon="15.9455335"><ele>672.0</ele><time>2026-04-27T12:38:59.386Z</time></trkpt><trkpt lat="44.5812696" lon="15.9456122"><ele>672.0</ele><time>2026-04-27T12:39:02.386Z</time></trkpt><trkpt lat="44.5812528" lon="15.9457373"><ele>672.0</ele><time>2026-04-27T12:39:04.386Z</time></trkpt><trkpt lat="44.5811408" lon="15.9458687"><ele>672.0</ele><time>2026-04-27T12:39:06.386Z</time></trkpt><trkpt lat="44.5810585" lon="15.9459532"><ele>675.2</ele><time>2026-04-27T12:39:07.386Z</time></trkpt><trkpt lat="44.5809835" lon="15.9460637"><ele>678.4000000000001</ele><time>2026-04-27T12:39:08.386Z</time></trkpt><trkpt lat="44.5809123" lon="15.9461663"><ele>681.5999999999999</ele><time>2026-04-27T12:39:09.386Z</time></trkpt><trkpt lat="44.5808337" lon="15.9462631"><ele>684.8</ele><time>2026-04-27T12:39:10.387Z</time></trkpt><trkpt lat="44.5807552" lon="15.9463623"><ele>688.0</ele><time>2026-04-27T12:39:11.386Z</time></trkpt><trkpt lat="44.5806652" lon="15.9464391"><ele>688.0</ele><time>2026-04-27T12:39:12.386Z</time></trkpt><trkpt lat="44.5805672" lon="15.946521"><ele>688.0</ele><time>2026-04-27T12:39:13.386Z</time></trkpt><trkpt lat="44.5804756" lon="15.9466295"><ele>688.0</ele><time>2026-04-27T12:39:14.387Z</time></trkpt><trkpt lat="44.5803835" lon="15.9467408"><ele>688.0</ele><time>2026-04-27T12:39:15.386Z</time></trkpt><trkpt lat="44.5802854" lon="15.9468352"><ele>689.5</ele><time>2026-04-27T12:39:16.387Z</time></trkpt><trkpt lat="44.580184" lon="15.9469318"><ele>691.0</ele><time>2026-04-27T12:39:17.386Z</time></trkpt><trkpt lat="44.5800814" lon="15.9470358"><ele>692.5</ele><time>2026-04-27T12:39:18.386Z</time></trkpt><trkpt lat="44.5799853" lon="15.9471414"><ele>694.0</ele><time>2026-04-27T12:39:19.386Z</time></trkpt><trkpt lat="44.5798915" lon="15.9472419"><ele>694.0</ele><time>2026-04-27T12:39:20.386Z</time></trkpt><trkpt lat="44.5797939" lon="15.9473314"><ele>694.0</ele><time>2026-04-27T12:39:21.387Z</time></trkpt><trkpt lat="44.57971" lon="15.9474447"><ele>694.0</ele><time>2026-04-27T12:39:22.386Z</time></trkpt><trkpt lat="44.5796267" lon="15.9475661"><ele>694.0</ele><time>2026-04-27T12:39:23.386Z</time></trkpt><trkpt lat="44.5795476" lon="15.9476962"><ele>695.25</ele><time>2026-04-27T12:39:24.387Z</time></trkpt><trkpt lat="44.5794613" lon="15.9478239"><ele>696.5</ele><time>2026-04-27T12:39:25.386Z</time></trkpt><trkpt lat="44.5793739" lon="15.9479512"><ele>697.75</ele><time>2026-04-27T12:39:26.386Z</time></trkpt><trkpt lat="44.5792815" lon="15.9480641"><ele>699.0</ele><time>2026-04-27T12:39:27.386Z</time></trkpt><trkpt lat="44.5791825" lon="15.9481678"><ele>699.0</ele><time>2026-04-27T12:39:28.387Z</time></trkpt><trkpt lat="44.5790853" lon="15.948279"><ele>699.0</ele><time>2026-04-27T12:39:29.386Z</time></trkpt><trkpt lat="44.5789959" lon="15.9484062"><ele>699.0</ele><time>2026-04-27T12:39:30.386Z</time></trkpt><trkpt lat="44.5789084" lon="15.9485169"><ele>699.0</ele><time>2026-04-27T12:39:31.387Z</time></trkpt><trkpt lat="44.5788424" lon="15.9486373"><ele>697.5</ele><time>2026-04-27T12:39:32.386Z</time></trkpt><trkpt lat="44.5787522" lon="15.9487379"><ele>696.0</ele><time>2026-04-27T12:39:33.386Z</time></trkpt><trkpt lat="44.5786865" lon="15.9487984"><ele>694.5</ele><time>2026-04-27T12:39:34.386Z</time></trkpt><trkpt lat="44.5786255" lon="15.9488717"><ele>693.0</ele><time>2026-04-27T12:39:35.386Z</time></trkpt><trkpt lat="44.5785866" lon="15.9489678"><ele>691.5</ele><time>2026-04-27T12:39:36.387Z</time></trkpt><trkpt lat="44.5785558" lon="15.9490716"><ele>690.0</ele><time>2026-04-27T12:39:37.387Z</time></trkpt><trkpt lat="44.5785527" lon="15.9491985"><ele>690.4</ele><time>2026-04-27T12:39:38.386Z</time></trkpt><trkpt lat="44.5785442" lon="15.9493133"><ele>690.8</ele><time>2026-04-27T12:39:39.386Z</time></trkpt><trkpt lat="44.5785485" lon="15.9494232"><ele>691.2</ele><time>2026-04-27T12:39:40.386Z</time></trkpt><trkpt lat="44.5785634" lon="15.9495573"><ele>691.6</ele><time>2026-04-27T12:39:41.387Z</time></trkpt><trkpt lat="44.5785829" lon="15.9497029"><ele>692.0</ele><time>2026-04-27T12:39:42.386Z</time></trkpt><trkpt lat="44.578615" lon="15.9498599"><ele>692.0</ele><time>2026-04-27T12:39:43.386Z</time></trkpt><trkpt lat="44.5786364" lon="15.9500051"><ele>692.0</ele><time>2026-04-27T12:39:44.386Z</time></trkpt><trkpt lat="44.5786754" lon="15.9501291"><ele>692.0</ele><time>2026-04-27T12:39:45.386Z</time></trkpt><trkpt lat="44.5787016" lon="15.9502423"><ele>692.0</ele><time>2026-04-27T12:39:46.387Z</time></trkpt><trkpt lat="44.5787396" lon="15.9503459"><ele>692.0</ele><time>2026-04-27T12:39:47.386Z</time></trkpt><trkpt lat="44.5787795" lon="15.9504765"><ele>694.4000000000001</ele><time>2026-04-27T12:39:48.386Z</time></trkpt><trkpt lat="44.5788423" lon="15.9505898"><ele>696.8000000000001</ele><time>2026-04-27T12:39:49.385Z</time></trkpt><trkpt lat="44.5789019" lon="15.9507157"><ele>699.2</ele><time>2026-04-27T12:39:50.386Z</time></trkpt><trkpt lat="44.5789609" lon="15.950836"><ele>701.6</ele><time>2026-04-27T12:39:51.386Z</time></trkpt><trkpt lat="44.5790015" lon="15.9509481"><ele>704.0</ele><time>2026-04-27T12:39:52.387Z</time></trkpt><trkpt lat="44.5790548" lon="15.951071"><ele>704.0</ele><time>2026-04-27T12:39:53.386Z</time></trkpt><trkpt lat="44.579111" lon="15.9512157"><ele>704.0</ele><time>2026-04-27T12:39:54.386Z</time></trkpt><trkpt lat="44.5791421" lon="15.9513201"><ele>704.0</ele><time>2026-04-27T12:39:55.386Z</time></trkpt><trkpt lat="44.5791891" lon="15.9514394"><ele>704.0</ele><time>2026-04-27T12:39:56.386Z</time></trkpt><trkpt lat="44.5792279" lon="15.9515362"><ele>704.0</ele><time>2026-04-27T12:39:57.386Z</time></trkpt><trkpt lat="44.5792778" lon="15.951634"><ele>702.4000000000001</ele><time>2026-04-27T12:39:58.386Z</time></trkpt><trkpt lat="44.579329" lon="15.9517252"><ele>700.8</ele><time>2026-04-27T12:39:59.387Z</time></trkpt><trkpt lat="44.5793944" lon="15.9518243"><ele>699.2</ele><time>2026-04-27T12:40:00.386Z</time></trkpt><trkpt lat="44.5794642" lon="15.9518999"><ele>697.5999999999999</ele><time>2026-04-27T12:40:01.387Z</time></trkpt><trkpt lat="44.5795383" lon="15.951985"><ele>696.0</ele><time>2026-04-27T12:40:02.387Z</time></trkpt><trkpt lat="44.5796152" lon="15.9520748"><ele>699.8</ele><time>2026-04-27T12:40:03.387Z</time></trkpt><trkpt lat="44.5796962" lon="15.9521577"><ele>703.5999999999999</ele><time>2026-04-27T12:40:04.387Z</time></trkpt><trkpt lat="44.5797759" lon="15.9522456"><ele>707.4</ele><time>2026-04-27T12:40:05.386Z</time></trkpt><trkpt lat="44.579856" lon="15.9523055"><ele>711.2</ele><time>2026-04-27T12:40:06.387Z</time></trkpt><trkpt lat="44.5799212" lon="15.9523476"><ele>715.0</ele><time>2026-04-27T12:40:07.387Z</time></trkpt><trkpt lat="44.5799923" lon="15.9524195"><ele>715.0</ele><time>2026-04-27T12:40:09.386Z</time></trkpt><trkpt lat="44.5800741" lon="15.9525062"><ele>715.0</ele><time>2026-04-27T12:40:11.386Z</time></trkpt><trkpt lat="44.5801817" lon="15.9526509"><ele>715.0</ele><time>2026-04-27T12:40:13.386Z</time></trkpt><trkpt lat="44.5802538" lon="15.9527863"><ele>715.0</ele><time>2026-04-27T12:40:15.386Z</time></trkpt><trkpt lat="44.5803076" lon="15.9529248"><ele>715.6</ele><time>2026-04-27T12:40:17.386Z</time></trkpt><trkpt lat="44.580421" lon="15.9530861"><ele>716.2</ele><time>2026-04-27T12:40:19.386Z</time></trkpt><trkpt lat="44.5804637" lon="15.9531676"><ele>716.8</ele><time>2026-04-27T12:40:20.386Z</time></trkpt><trkpt lat="44.580523" lon="15.9532506"><ele>717.4</ele><time>2026-04-27T12:40:21.386Z</time></trkpt><trkpt lat="44.5805911" lon="15.9533155"><ele>718.0</ele><time>2026-04-27T12:40:22.386Z</time></trkpt><trkpt lat="44.5806587" lon="15.9533916"><ele>718.0</ele><time>2026-04-27T12:40:23.387Z</time></trkpt><trkpt lat="44.5807456" lon="15.9534296"><ele>718.0</ele><time>2026-04-27T12:40:24.386Z</time></trkpt><trkpt lat="44.5808337" lon="15.953511"><ele>718.0</ele><time>2026-04-27T12:40:25.386Z</time></trkpt><trkpt lat="44.5809234" lon="15.9535897"><ele>718.0</ele><time>2026-04-27T12:40:26.386Z</time></trkpt><trkpt lat="44.5810085" lon="15.9536476"><ele>718.0</ele><time>2026-04-27T12:40:27.386Z</time></trkpt><trkpt lat="44.581099" lon="15.9536965"><ele>720.2</ele><time>2026-04-27T12:40:28.386Z</time></trkpt><trkpt lat="44.5811964" lon="15.9537465"><ele>722.4</ele><time>2026-04-27T12:40:29.387Z</time></trkpt><trkpt lat="44.5812742" lon="15.9538027"><ele>724.6</ele><time>2026-04-27T12:40:30.386Z</time></trkpt><trkpt lat="44.5813632" lon="15.9538703"><ele>726.8000000000001</ele><time>2026-04-27T12:40:31.387Z</time></trkpt><trkpt lat="44.5814405" lon="15.9539397"><ele>729.0</ele><time>2026-04-27T12:40:32.386Z</time></trkpt><trkpt lat="44.5815119" lon="15.9539895"><ele>729.0</ele><time>2026-04-27T12:40:33.386Z</time></trkpt><trkpt lat="44.5815941" lon="15.9540335"><ele>729.0</ele><time>2026-04-27T12:40:34.387Z</time></trkpt><trkpt lat="44.5816702" lon="15.9540508"><ele>729.0</ele><time>2026-04-27T12:40:35.387Z</time></trkpt><trkpt lat="44.5817377" lon="15.9540901"><ele>729.0</ele><time>2026-04-27T12:40:36.387Z</time></trkpt><trkpt lat="44.5817697" lon="15.9541679"><ele>729.0</ele><time>2026-04-27T12:40:37.387Z</time></trkpt><trkpt lat="44.5818331" lon="15.9542653"><ele>729.0</ele><time>2026-04-27T12:40:38.387Z</time></trkpt><trkpt lat="44.581876" lon="15.9543452"><ele>728.8333333333334</ele><time>2026-04-27T12:40:39.386Z</time></trkpt><trkpt lat="44.5819297" lon="15.9544486"><ele>728.6666666666666</ele><time>2026-04-27T12:40:40.387Z</time></trkpt><trkpt lat="44.5819805" lon="15.9545405"><ele>728.5</ele><time>2026-04-27T12:40:41.386Z</time></trkpt><trkpt lat="44.5820066" lon="15.9546225"><ele>728.3333333333333</ele><time>2026-04-27T12:40:42.386Z</time></trkpt><trkpt lat="44.582043" lon="15.9547089"><ele>728.1666666666666</ele><time>2026-04-27T12:40:44.386Z</time></trkpt><trkpt lat="44.5820992" lon="15.9548008"><ele>728.0</ele><time>2026-04-27T12:40:46.386Z</time></trkpt><trkpt lat="44.5821858" lon="15.9549029"><ele>730.4</ele><time>2026-04-27T12:40:49.386Z</time></trkpt><trkpt lat="44.582255" lon="15.955"><ele>732.8</ele><time>2026-04-27T12:40:51.386Z</time></trkpt><trkpt lat="44.5823425" lon="15.9551529"><ele>735.2</ele><time>2026-04-27T12:40:53.387Z</time></trkpt><trkpt lat="44.5822842" lon="15.9552818"><ele>737.6</ele><time>2026-04-27T12:40:55.387Z</time></trkpt><trkpt lat="44.582276" lon="15.9554223"><ele>740.0</ele><time>2026-04-27T12:40:56.387Z</time></trkpt><trkpt lat="44.5822445" lon="15.9555694"><ele>740.6</ele><time>2026-04-27T12:40:57.386Z</time></trkpt><trkpt lat="44.5821952" lon="15.9557017"><ele>741.2</ele><time>2026-04-27T12:40:58.387Z</time></trkpt><trkpt lat="44.5821999" lon="15.9558337"><ele>741.8</ele><time>2026-04-27T12:40:59.386Z</time></trkpt><trkpt lat="44.5821887" lon="15.9559817"><ele>742.4</ele><time>2026-04-27T12:41:01.386Z</time></trkpt><trkpt lat="44.5821781" lon="15.9561317"><ele>743.0</ele><time>2026-04-27T12:41:03.386Z</time></trkpt><trkpt lat="44.5821563" lon="15.9562423"><ele>743.6666666666666</ele><time>2026-04-27T12:41:04.386Z</time></trkpt><trkpt lat="44.5821366" lon="15.956371"><ele>744.3333333333333</ele><time>2026-04-27T12:41:05.386Z</time></trkpt><trkpt lat="44.5821266" lon="15.9564642"><ele>745.0</ele><time>2026-04-27T12:41:06.386Z</time></trkpt><trkpt lat="44.5821149" lon="15.9565809"><ele>745.6666666666666</ele><time>2026-04-27T12:41:07.387Z</time></trkpt><trkpt lat="44.5821383" lon="15.9566988"><ele>746.3333333333334</ele><time>2026-04-27T12:41:08.386Z</time></trkpt><trkpt lat="44.5821743" lon="15.956807"><ele>747.0</ele><time>2026-04-27T12:41:09.387Z</time></trkpt><trkpt lat="44.5822174" lon="15.9568893"><ele>747.0</ele><time>2026-04-27T12:41:10.386Z</time></trkpt><trkpt lat="44.5822644" lon="15.9569672"><ele>747.0</ele><time>2026-04-27T12:41:11.386Z</time></trkpt><trkpt lat="44.5823079" lon="15.9570519"><ele>747.0</ele><time>2026-04-27T12:41:12.386Z</time></trkpt><trkpt lat="44.5823287" lon="15.9571382"><ele>747.0</ele><time>2026-04-27T12:41:13.386Z</time></trkpt><trkpt lat="44.5823355" lon="15.9573048"><ele>747.0</ele><time>2026-04-27T12:41:15.386Z</time></trkpt><trkpt lat="44.5821964" lon="15.9572559"><ele>747.0</ele><time>2026-04-27T12:41:18.386Z</time></trkpt><trkpt lat="44.5821455" lon="15.9571655"><ele>747.0</ele><time>2026-04-27T12:41:19.386Z</time></trkpt><trkpt lat="44.5820747" lon="15.9570791"><ele>747.0</ele><time>2026-04-27T12:41:20.387Z</time></trkpt><trkpt lat="44.5820047" lon="15.9569984"><ele>747.0</ele><time>2026-04-27T12:41:21.386Z</time></trkpt><trkpt lat="44.5819466" lon="15.9569288"><ele>747.0</ele><time>2026-04-27T12:41:22.386Z</time></trkpt><trkpt lat="44.5818686" lon="15.956848"><ele>747.0</ele><time>2026-04-27T12:41:24.387Z</time></trkpt><trkpt lat="44.5817986" lon="15.9568578"><ele>745.2</ele><time>2026-04-27T12:42:19.386Z</time></trkpt><trkpt lat="44.5816589" lon="15.9568622"><ele>743.4000000000001</ele><time>2026-04-27T12:43:01.386Z</time></trkpt><trkpt lat="44.5815365" lon="15.9569041"><ele>741.5999999999999</ele><time>2026-04-27T12:43:03.386Z</time></trkpt><trkpt lat="44.5814691" lon="15.9569404"><ele>739.8</ele><time>2026-04-27T12:43:04.386Z</time></trkpt><trkpt lat="44.5814036" lon="15.956977"><ele>738.0</ele><time>2026-04-27T12:43:05.386Z</time></trkpt><trkpt lat="44.5813412" lon="15.9570123"><ele>738.0</ele><time>2026-04-27T12:43:06.387Z</time></trkpt><trkpt lat="44.5812696" lon="15.9570469"><ele>738.0</ele><time>2026-04-27T12:43:07.387Z</time></trkpt><trkpt lat="44.5812089" lon="15.9570835"><ele>738.0</ele><time>2026-04-27T12:43:08.386Z</time></trkpt><trkpt lat="44.5811525" lon="15.9571357"><ele>738.0</ele><time>2026-04-27T12:43:09.387Z</time></trkpt><trkpt lat="44.5810986" lon="15.9571816"><ele>738.0</ele><time>2026-04-27T12:43:10.386Z</time></trkpt><trkpt lat="44.5810299" lon="15.957226"><ele>738.0</ele><time>2026-04-27T12:43:11.386Z</time></trkpt><trkpt lat="44.5809588" lon="15.9572554"><ele>738.0</ele><time>2026-04-27T12:43:12.386Z</time></trkpt><trkpt lat="44.5808884" lon="15.957272"><ele>737.6666666666666</ele><time>2026-04-27T12:43:13.386Z</time></trkpt><trkpt lat="44.5808207" lon="15.9572878"><ele>737.3333333333334</ele><time>2026-04-27T12:43:14.387Z</time></trkpt><trkpt lat="44.5807466" lon="15.9572928"><ele>737.0</ele><time>2026-04-27T12:43:15.386Z</time></trkpt><trkpt lat="44.5806601" lon="15.9572908"><ele>736.6666666666667</ele><time>2026-04-27T12:43:16.386Z</time></trkpt><trkpt lat="44.5805848" lon="15.9572728"><ele>736.3333333333334</ele><time>2026-04-27T12:43:17.386Z</time></trkpt><trkpt lat="44.580511" lon="15.9572359"><ele>736.0</ele><time>2026-04-27T12:43:18.387Z</time></trkpt><trkpt lat="44.580436" lon="15.9571963"><ele>736.0</ele><time>2026-04-27T12:43:19.386Z</time></trkpt><trkpt lat="44.5803551" lon="15.9571575"><ele>736.0</ele><time>2026-04-27T12:43:20.387Z</time></trkpt><trkpt lat="44.5802614" lon="15.9571259"><ele>736.0</ele><time>2026-04-27T12:43:21.387Z</time></trkpt><trkpt lat="44.5801666" lon="15.957099"><ele>736.0</ele><time>2026-04-27T12:43:22.386Z</time></trkpt><trkpt lat="44.5800705" lon="15.957071"><ele>736.0</ele><time>2026-04-27T12:43:23.386Z</time></trkpt><trkpt lat="44.5799796" lon="15.9570409"><ele>736.1666666666667</ele><time>2026-04-27T12:43:24.387Z</time></trkpt><trkpt lat="44.5798929" lon="15.9570185"><ele>736.3333333333334</ele><time>2026-04-27T12:43:25.386Z</time></trkpt><trkpt lat="44.5798086" lon="15.9569993"><ele>736.5</ele><time>2026-04-27T12:43:26.387Z</time></trkpt><trkpt lat="44.5797255" lon="15.9569959"><ele>736.6666666666666</ele><time>2026-04-27T12:43:27.386Z</time></trkpt><trkpt lat="44.5796398" lon="15.9570083"><ele>736.8333333333333</ele><time>2026-04-27T12:43:28.387Z</time></trkpt><trkpt lat="44.579567" lon="15.9570351"><ele>737.0</ele><time>2026-04-27T12:43:29.386Z</time></trkpt><trkpt lat="44.5794981" lon="15.9570751"><ele>737.2857142857143</ele><time>2026-04-27T12:43:30.386Z</time></trkpt><trkpt lat="44.5794436" lon="15.9571317"><ele>737.5714285714286</ele><time>2026-04-27T12:43:31.386Z</time></trkpt><trkpt lat="44.5794" lon="15.9572161"><ele>737.8571428571429</ele><time>2026-04-27T12:43:32.386Z</time></trkpt><trkpt lat="44.5793665" lon="15.9573113"><ele>738.1428571428571</ele><time>2026-04-27T12:43:33.386Z</time></trkpt><trkpt lat="44.5793325" lon="15.9574187"><ele>738.4285714285714</ele><time>2026-04-27T12:43:34.386Z</time></trkpt><trkpt lat="44.5793052" lon="15.9575164"><ele>738.7142857142858</ele><time>2026-04-27T12:43:35.386Z</time></trkpt><trkpt lat="44.5792709" lon="15.9575922"><ele>739.0</ele><time>2026-04-27T12:43:36.386Z</time></trkpt><trkpt lat="44.5791814" lon="15.9576748"><ele>739.0</ele><time>2026-04-27T12:43:38.387Z</time></trkpt><trkpt lat="44.579116" lon="15.9576909"><ele>739.0</ele><time>2026-04-27T12:43:39.387Z</time></trkpt><trkpt lat="44.5790428" lon="15.9576961"><ele>739.0</ele><time>2026-04-27T12:43:40.387Z</time></trkpt><trkpt lat="44.5789714" lon="15.9577066"><ele>739.0</ele><time>2026-04-27T12:43:41.386Z</time></trkpt><trkpt lat="44.5788997" lon="15.9577284"><ele>739.0</ele><time>2026-04-27T12:43:42.386Z</time></trkpt><trkpt lat="44.5788295" lon="15.957765"><ele>739.0</ele><time>2026-04-27T12:43:43.386Z</time></trkpt><trkpt lat="44.5787635" lon="15.9578093"><ele>739.0</ele><time>2026-04-27T12:43:44.386Z</time></trkpt><trkpt lat="44.5786966" lon="15.9578482"><ele>738.5714285714286</ele><time>2026-04-27T12:43:45.387Z</time></trkpt><trkpt lat="44.5786305" lon="15.9578766"><ele>738.1428571428571</ele><time>2026-04-27T12:43:46.386Z</time></trkpt><trkpt lat="44.5785675" lon="15.957888"><ele>737.7142857142858</ele><time>2026-04-27T12:43:47.386Z</time></trkpt><trkpt lat="44.5785048" lon="15.9579239"><ele>737.2857142857142</ele><time>2026-04-27T12:43:48.386Z</time></trkpt><trkpt lat="44.5784425" lon="15.9579433"><ele>736.8571428571428</ele><time>2026-04-27T12:43:49.387Z</time></trkpt><trkpt lat="44.5783546" lon="15.9579872"><ele>736.4285714285714</ele><time>2026-04-27T12:43:51.386Z</time></trkpt><trkpt lat="44.5782869" lon="15.9580511"><ele>736.0</ele><time>2026-04-27T12:43:54.386Z</time></trkpt><trkpt lat="44.5782453" lon="15.9581251"><ele>736.0</ele><time>2026-04-27T12:44:30.387Z</time></trkpt><trkpt lat="44.578153" lon="15.9582074"><ele>736.0</ele><time>2026-04-27T12:44:52.386Z</time></trkpt><trkpt lat="44.5780808" lon="15.9583186"><ele>736.0</ele><time>2026-04-27T12:44:54.387Z</time></trkpt><trkpt lat="44.5780055" lon="15.9584366"><ele>736.0</ele><time>2026-04-27T12:44:56.387Z</time></trkpt><trkpt lat="44.5779611" lon="15.958501"><ele>736.0</ele><time>2026-04-27T12:44:57.386Z</time></trkpt><trkpt lat="44.5779107" lon="15.9585721"><ele>736.7142857142858</ele><time>2026-04-27T12:44:58.386Z</time></trkpt><trkpt lat="44.5778604" lon="15.9586488"><ele>737.4285714285713</ele><time>2026-04-27T12:44:59.386Z</time></trkpt><trkpt lat="44.5778071" lon="15.9587296"><ele>738.1428571428571</ele><time>2026-04-27T12:45:00.387Z</time></trkpt><trkpt lat="44.5777561" lon="15.9588116"><ele>738.8571428571429</ele><time>2026-04-27T12:45:01.387Z</time></trkpt><trkpt lat="44.5777135" lon="15.9588878"><ele>739.5714285714287</ele><time>2026-04-27T12:45:02.387Z</time></trkpt><trkpt lat="44.5776705" lon="15.9589729"><ele>740.2857142857142</ele><time>2026-04-27T12:45:03.386Z</time></trkpt><trkpt lat="44.5776329" lon="15.9590438"><ele>741.0</ele><time>2026-04-27T12:45:04.386Z</time></trkpt><trkpt lat="44.5775968" lon="15.9591499"><ele>742.1999999999999</ele><time>2026-04-27T12:45:06.386Z</time></trkpt><trkpt lat="44.5776426" lon="15.9592394"><ele>743.4</ele><time>2026-04-27T12:45:10.387Z</time></trkpt><trkpt lat="44.5777793" lon="15.9592389"><ele>744.6</ele><time>2026-04-27T12:45:12.386Z</time></trkpt><trkpt lat="44.5778732" lon="15.9592253"><ele>745.8</ele><time>2026-04-27T12:45:13.386Z</time></trkpt><trkpt lat="44.5779788" lon="15.9592118"><ele>747.0</ele><time>2026-04-27T12:45:14.386Z</time></trkpt><trkpt lat="44.5780935" lon="15.9591889"><ele>747.0</ele><time>2026-04-27T12:45:15.386Z</time></trkpt><trkpt lat="44.5782153" lon="15.9591574"><ele>747.0</ele><time>2026-04-27T12:45:16.386Z</time></trkpt><trkpt lat="44.5783433" lon="15.9591083"><ele>747.0</ele><time>2026-04-27T12:45:17.386Z</time></trkpt><trkpt lat="44.5784739" lon="15.9590522"><ele>747.0</ele><time>2026-04-27T12:45:18.386Z</time></trkpt><trkpt lat="44.578611" lon="15.9589828"><ele>749.0</ele><time>2026-04-27T12:45:19.386Z</time></trkpt><trkpt lat="44.5787574" lon="15.9589062"><ele>751.0</ele><time>2026-04-27T12:45:20.386Z</time></trkpt><trkpt lat="44.5789069" lon="15.9588277"><ele>753.0</ele><time>2026-04-27T12:45:21.386Z</time></trkpt><trkpt lat="44.5790609" lon="15.9587466"><ele>753.0</ele><time>2026-04-27T12:45:22.386Z</time></trkpt><trkpt lat="44.5792148" lon="15.9586775"><ele>753.0</ele><time>2026-04-27T12:45:23.386Z</time></trkpt><trkpt lat="44.579376" lon="15.9586295"><ele>753.0</ele><time>2026-04-27T12:45:24.387Z</time></trkpt><trkpt lat="44.5795331" lon="15.9586035"><ele>755.0</ele><time>2026-04-27T12:45:25.383Z</time></trkpt><trkpt lat="44.5796951" lon="15.9585987"><ele>757.0</ele><time>2026-04-27T12:45:26.386Z</time></trkpt><trkpt lat="44.5798562" lon="15.9586356"><ele>759.0</ele><time>2026-04-27T12:45:27.387Z</time></trkpt><trkpt lat="44.5800147" lon="15.9587055"><ele>759.0</ele><time>2026-04-27T12:45:28.386Z</time></trkpt><trkpt lat="44.5801694" lon="15.9587992"><ele>759.0</ele><time>2026-04-27T12:45:29.386Z</time></trkpt><trkpt lat="44.5803192" lon="15.9589153"><ele>759.0</ele><time>2026-04-27T12:45:30.386Z</time></trkpt><trkpt lat="44.5804698" lon="15.9590377"><ele>757.3333333333334</ele><time>2026-04-27T12:45:31.386Z</time></trkpt><trkpt lat="44.5806224" lon="15.9591621"><ele>755.6666666666667</ele><time>2026-04-27T12:45:32.387Z</time></trkpt><trkpt lat="44.5807789" lon="15.9592968"><ele>754.0</ele><time>2026-04-27T12:45:33.386Z</time></trkpt><trkpt lat="44.5809404" lon="15.9594126"><ele>757.6666666666667</ele><time>2026-04-27T12:45:34.386Z</time></trkpt><trkpt lat="44.5811089" lon="15.9595038"><ele>761.3333333333334</ele><time>2026-04-27T12:45:35.386Z</time></trkpt><trkpt lat="44.5812851" lon="15.9595696"><ele>765.0</ele><time>2026-04-27T12:45:36.386Z</time></trkpt><trkpt lat="44.5814635" lon="15.9596019"><ele>765.0</ele><time>2026-04-27T12:45:37.386Z</time></trkpt><trkpt lat="44.5816441" lon="15.9595949"><ele>765.0</ele><time>2026-04-27T12:45:38.386Z</time></trkpt><trkpt lat="44.5818269" lon="15.9595522"><ele>765.0</ele><time>2026-04-27T12:45:39.386Z</time></trkpt><trkpt lat="44.5820124" lon="15.9594906"><ele>769.0</ele><time>2026-04-27T12:45:40.386Z</time></trkpt><trkpt lat="44.5821994" lon="15.9594179"><ele>773.0</ele><time>2026-04-27T12:45:41.386Z</time></trkpt><trkpt lat="44.5823896" lon="15.9593476"><ele>777.0</ele><time>2026-04-27T12:45:42.386Z</time></trkpt><trkpt lat="44.5825797" lon="15.959278"><ele>777.0</ele><time>2026-04-27T12:45:43.386Z</time></trkpt><trkpt lat="44.5827744" lon="15.9592051"><ele>777.0</ele><time>2026-04-27T12:45:44.387Z</time></trkpt><trkpt lat="44.5829713" lon="15.9591466"><ele>777.0</ele><time>2026-04-27T12:45:45.387Z</time></trkpt><trkpt lat="44.5831665" lon="15.959104"><ele>775.0</ele><time>2026-04-27T12:45:46.387Z</time></trkpt><trkpt lat="44.5833626" lon="15.9590741"><ele>773.0</ele><time>2026-04-27T12:45:47.386Z</time></trkpt><trkpt lat="44.5835666" lon="15.9590626"><ele>771.0</ele><time>2026-04-27T12:45:48.386Z</time></trkpt><trkpt lat="44.5837669" lon="15.9590689"><ele>770.6666666666667</ele><time>2026-04-27T12:45:49.386Z</time></trkpt><trkpt lat="44.5839687" lon="15.959099"><ele>770.3333333333334</ele><time>2026-04-27T12:45:50.386Z</time></trkpt><trkpt lat="44.5841683" lon="15.9591457"><ele>770.0</ele><time>2026-04-27T12:45:51.386Z</time></trkpt><trkpt lat="44.5843698" lon="15.9592092"><ele>772.3333333333334</ele><time>2026-04-27T12:45:52.386Z</time></trkpt><trkpt lat="44.5845666" lon="15.9592873"><ele>774.6666666666667</ele><time>2026-04-27T12:45:53.387Z</time></trkpt><trkpt lat="44.5847662" lon="15.9593771"><ele>777.0</ele><time>2026-04-27T12:45:54.386Z</time></trkpt><trkpt lat="44.5849639" lon="15.9594826"><ele>777.0</ele><time>2026-04-27T12:45:55.386Z</time></trkpt><trkpt lat="44.5851598" lon="15.9595971"><ele>777.0</ele><time>2026-04-27T12:45:56.386Z</time></trkpt><trkpt lat="44.5853636" lon="15.9597124"><ele>777.0</ele><time>2026-04-27T12:45:57.387Z</time></trkpt><trkpt lat="44.5855479" lon="15.9598246"><ele>777.0</ele><time>2026-04-27T12:45:58.387Z</time></trkpt><trkpt lat="44.5857311" lon="15.9599231"><ele>777.0</ele><time>2026-04-27T12:45:59.386Z</time></trkpt><trkpt lat="44.5859159" lon="15.9600058"><ele>777.0</ele><time>2026-04-27T12:46:00.387Z</time></trkpt><trkpt lat="44.5861009" lon="15.960069"><ele>780.3333333333333</ele><time>2026-04-27T12:46:01.386Z</time></trkpt><trkpt lat="44.5862891" lon="15.9601129"><ele>783.6666666666666</ele><time>2026-04-27T12:46:02.386Z</time></trkpt><trkpt lat="44.5864856" lon="15.9601392"><ele>787.0</ele><time>2026-04-27T12:46:03.386Z</time></trkpt><trkpt lat="44.5866766" lon="15.960139"><ele>787.0</ele><time>2026-04-27T12:46:04.386Z</time></trkpt><trkpt lat="44.5868697" lon="15.9601298"><ele>787.0</ele><time>2026-04-27T12:46:05.386Z</time></trkpt><trkpt lat="44.5870643" lon="15.9601201"><ele>787.0</ele><time>2026-04-27T12:46:06.387Z</time></trkpt><trkpt lat="44.5872598" lon="15.960105"><ele>787.0</ele><time>2026-04-27T12:46:07.386Z</time></trkpt><trkpt lat="44.5874591" lon="15.9600952"><ele>787.0</ele><time>2026-04-27T12:46:08.386Z</time></trkpt><trkpt lat="44.587647" lon="15.9600945"><ele>787.0</ele><time>2026-04-27T12:46:09.386Z</time></trkpt><trkpt lat="44.5878229" lon="15.9601148"><ele>786.75</ele><time>2026-04-27T12:46:10.386Z</time></trkpt><trkpt lat="44.5879721" lon="15.9601557"><ele>786.5</ele><time>2026-04-27T12:46:11.386Z</time></trkpt><trkpt lat="44.5881143" lon="15.9602197"><ele>786.25</ele><time>2026-04-27T12:46:12.386Z</time></trkpt><trkpt lat="44.58824" lon="15.9602939"><ele>786.0</ele><time>2026-04-27T12:46:13.386Z</time></trkpt><trkpt lat="44.5883486" lon="15.9603882"><ele>786.0</ele><time>2026-04-27T12:46:14.386Z</time></trkpt><trkpt lat="44.5884428" lon="15.9604901"><ele>786.0</ele><time>2026-04-27T12:46:15.386Z</time></trkpt><trkpt lat="44.5885299" lon="15.9605937"><ele>786.0</ele><time>2026-04-27T12:46:16.386Z</time></trkpt><trkpt lat="44.5886102" lon="15.9607035"><ele>786.0</ele><time>2026-04-27T12:46:17.386Z</time></trkpt><trkpt lat="44.5886879" lon="15.960836"><ele>785.25</ele><time>2026-04-27T12:46:18.387Z</time></trkpt><trkpt lat="44.5887537" lon="15.9609818"><ele>784.5</ele><time>2026-04-27T12:46:19.386Z</time></trkpt><trkpt lat="44.5888199" lon="15.9611259"><ele>783.75</ele><time>2026-04-27T12:46:20.387Z</time></trkpt><trkpt lat="44.5888718" lon="15.9612639"><ele>783.0</ele><time>2026-04-27T12:46:21.387Z</time></trkpt><trkpt lat="44.5889203" lon="15.9613997"><ele>783.0</ele><time>2026-04-27T12:46:22.386Z</time></trkpt><trkpt lat="44.588957" lon="15.9615111"><ele>783.0</ele><time>2026-04-27T12:46:23.386Z</time></trkpt><trkpt lat="44.5889975" lon="15.9616086"><ele>783.0</ele><time>2026-04-27T12:46:24.386Z</time></trkpt><trkpt lat="44.5889608" lon="15.9617247"><ele>783.0</ele><time>2026-04-27T12:46:26.386Z</time></trkpt><trkpt lat="44.5888934" lon="15.9618371"><ele>783.0</ele><time>2026-04-27T12:46:28.386Z</time></trkpt><trkpt lat="44.5888114" lon="15.9619089"><ele>782.0</ele><time>2026-04-27T12:46:30.386Z</time></trkpt><trkpt lat="44.588686" lon="15.9620017"><ele>781.0</ele><time>2026-04-27T12:46:32.386Z</time></trkpt><trkpt lat="44.5886535" lon="15.9620873"><ele>780.0</ele><time>2026-04-27T12:46:33.386Z</time></trkpt><trkpt lat="44.5886058" lon="15.9621684"><ele>779.0</ele><time>2026-04-27T12:46:34.386Z</time></trkpt><trkpt lat="44.5886711" lon="15.9623382"><ele>778.0</ele><time>2026-04-27T12:46:35.386Z</time></trkpt><trkpt lat="44.588656" lon="15.9624303"><ele>780.5999999999999</ele><time>2026-04-27T12:46:36.386Z</time></trkpt><trkpt lat="44.5886561" lon="15.9625442"><ele>783.1999999999999</ele><time>2026-04-27T12:46:37.386Z</time></trkpt><trkpt lat="44.5886319" lon="15.9626901"><ele>785.8</ele><time>2026-04-27T12:46:38.387Z</time></trkpt><trkpt lat="44.588568" lon="15.962771"><ele>788.4</ele><time>2026-04-27T12:46:39.386Z</time></trkpt><trkpt lat="44.5884792" lon="15.9628533"><ele>791.0</ele><time>2026-04-27T12:46:40.386Z</time></trkpt><trkpt lat="44.588405" lon="15.962942"><ele>791.0000000000001</ele><time>2026-04-27T12:46:41.386Z</time></trkpt><trkpt lat="44.5883202" lon="15.9629966"><ele>791.0</ele><time>2026-04-27T12:46:42.386Z</time></trkpt><trkpt lat="44.5882385" lon="15.9630133"><ele>791.0</ele><time>2026-04-27T12:46:43.386Z</time></trkpt><trkpt lat="44.5881981" lon="15.9631097"><ele>791.0</ele><time>2026-04-27T12:46:44.386Z</time></trkpt><trkpt lat="44.5881416" lon="15.9632018"><ele>791.0000000000001</ele><time>2026-04-27T12:46:45.387Z</time></trkpt><trkpt lat="44.5881425" lon="15.9633006"><ele>791.0</ele><time>2026-04-27T12:46:46.387Z</time></trkpt><trkpt lat="44.588137" lon="15.9634016"><ele>789.4</ele><time>2026-04-27T12:46:47.386Z</time></trkpt><trkpt lat="44.5881068" lon="15.9635068"><ele>787.8</ele><time>2026-04-27T12:46:48.386Z</time></trkpt><trkpt lat="44.5880473" lon="15.9636012"><ele>786.1999999999999</ele><time>2026-04-27T12:46:49.386Z</time></trkpt><trkpt lat="44.5879823" lon="15.9637056"><ele>784.5999999999999</ele><time>2026-04-27T12:46:50.386Z</time></trkpt><trkpt lat="44.5879162" lon="15.9638113"><ele>783.0</ele><time>2026-04-27T12:46:51.386Z</time></trkpt><trkpt lat="44.5878565" lon="15.9639499"><ele>783.75</ele><time>2026-04-27T12:46:52.386Z</time></trkpt><trkpt lat="44.5877927" lon="15.9640757"><ele>784.5</ele><time>2026-04-27T12:46:53.387Z</time></trkpt><trkpt lat="44.5877248" lon="15.9642058"><ele>785.25</ele><time>2026-04-27T12:46:54.386Z</time></trkpt><trkpt lat="44.5876403" lon="15.9643441"><ele>786.0</ele><time>2026-04-27T12:46:55.386Z</time></trkpt><trkpt lat="44.587549" lon="15.9644866"><ele>786.0</ele><time>2026-04-27T12:46:56.386Z</time></trkpt><trkpt lat="44.5874781" lon="15.9646131"><ele>786.0</ele><time>2026-04-27T12:46:57.386Z</time></trkpt><trkpt lat="44.5874041" lon="15.9647235"><ele>786.0</ele><time>2026-04-27T12:46:58.383Z</time></trkpt><trkpt lat="44.5873388" lon="15.9648296"><ele>786.0</ele><time>2026-04-27T12:46:59.386Z</time></trkpt><trkpt lat="44.587311" lon="15.9649283"><ele>786.0</ele><time>2026-04-27T12:47:00.386Z</time></trkpt><trkpt lat="44.5872878" lon="15.9650308"><ele>784.3333333333334</ele><time>2026-04-27T12:47:01.386Z</time></trkpt><trkpt lat="44.5872681" lon="15.9651467"><ele>782.6666666666667</ele><time>2026-04-27T12:47:02.386Z</time></trkpt><trkpt lat="44.5872559" lon="15.9652649"><ele>781.0</ele><time>2026-04-27T12:47:03.387Z</time></trkpt><trkpt lat="44.5872251" lon="15.9653708"><ele>779.3333333333334</ele><time>2026-04-27T12:47:04.386Z</time></trkpt><trkpt lat="44.5871823" lon="15.9654731"><ele>777.6666666666667</ele><time>2026-04-27T12:47:05.386Z</time></trkpt><trkpt lat="44.5871205" lon="15.9655988"><ele>776.0</ele><time>2026-04-27T12:47:06.387Z</time></trkpt><trkpt lat="44.5870423" lon="15.9657299"><ele>777.75</ele><time>2026-04-27T12:47:07.386Z</time></trkpt><trkpt lat="44.5870043" lon="15.9658819"><ele>779.5</ele><time>2026-04-27T12:47:08.386Z</time></trkpt><trkpt lat="44.5869666" lon="15.9660365"><ele>781.25</ele><time>2026-04-27T12:47:09.386Z</time></trkpt><trkpt lat="44.5869131" lon="15.966185"><ele>783.0</ele><time>2026-04-27T12:47:10.387Z</time></trkpt><trkpt lat="44.5868464" lon="15.966324"><ele>783.0</ele><time>2026-04-27T12:47:11.386Z</time></trkpt><trkpt lat="44.5867933" lon="15.9664706"><ele>783.0</ele><time>2026-04-27T12:47:12.387Z</time></trkpt><trkpt lat="44.5867445" lon="15.9666255"><ele>783.0</ele><time>2026-04-27T12:47:13.386Z</time></trkpt><trkpt lat="44.5867072" lon="15.9667886"><ele>783.0</ele><time>2026-04-27T12:47:14.386Z</time></trkpt><trkpt lat="44.5866694" lon="15.9669542"><ele>782.75</ele><time>2026-04-27T12:47:15.386Z</time></trkpt><trkpt lat="44.5866422" lon="15.9671234"><ele>782.5</ele><time>2026-04-27T12:47:16.387Z</time></trkpt><trkpt lat="44.5866369" lon="15.9672713"><ele>782.25</ele><time>2026-04-27T12:47:17.386Z</time></trkpt><trkpt lat="44.586643" lon="15.9674185"><ele>782.0</ele><time>2026-04-27T12:47:18.386Z</time></trkpt><trkpt lat="44.5866592" lon="15.9675804"><ele>782.0</ele><time>2026-04-27T12:47:19.387Z</time></trkpt><trkpt lat="44.5866813" lon="15.9677429"><ele>782.0</ele><time>2026-04-27T12:47:20.387Z</time></trkpt><trkpt lat="44.5867" lon="15.9678993"><ele>782.0</ele><time>2026-04-27T12:47:21.387Z</time></trkpt><trkpt lat="44.5867045" lon="15.9680546"><ele>782.0</ele><time>2026-04-27T12:47:22.387Z</time></trkpt><trkpt lat="44.5866873" lon="15.9682071"><ele>781.6</ele><time>2026-04-27T12:47:23.387Z</time></trkpt><trkpt lat="44.5866562" lon="15.9683655"><ele>781.2</ele><time>2026-04-27T12:47:24.386Z</time></trkpt><trkpt lat="44.586624" lon="15.9685097"><ele>780.8</ele><time>2026-04-27T12:47:25.386Z</time></trkpt><trkpt lat="44.5865894" lon="15.9686412"><ele>780.4</ele><time>2026-04-27T12:47:26.386Z</time></trkpt><trkpt lat="44.5865676" lon="15.9687691"><ele>780.0</ele><time>2026-04-27T12:47:27.386Z</time></trkpt><trkpt lat="44.5865468" lon="15.968903"><ele>780.0</ele><time>2026-04-27T12:47:28.386Z</time></trkpt><trkpt lat="44.5865499" lon="15.9690452"><ele>780.0</ele><time>2026-04-27T12:47:29.386Z</time></trkpt><trkpt lat="44.586575" lon="15.9691891"><ele>780.0</ele><time>2026-04-27T12:47:30.386Z</time></trkpt><trkpt lat="44.5866003" lon="15.9693458"><ele>780.0</ele><time>2026-04-27T12:47:31.386Z</time></trkpt><trkpt lat="44.5866285" lon="15.9695091"><ele>780.0</ele><time>2026-04-27T12:47:32.387Z</time></trkpt><trkpt lat="44.5866683" lon="15.9696812"><ele>779.4</ele><time>2026-04-27T12:47:33.386Z</time></trkpt><trkpt lat="44.586697" lon="15.96985"><ele>778.8</ele><time>2026-04-27T12:47:34.387Z</time></trkpt><trkpt lat="44.5867117" lon="15.9699827"><ele>778.2</ele><time>2026-04-27T12:47:35.387Z</time></trkpt><trkpt lat="44.5867238" lon="15.9701121"><ele>777.6</ele><time>2026-04-27T12:47:36.386Z</time></trkpt><trkpt lat="44.5867297" lon="15.9702034"><ele>777.0</ele><time>2026-04-27T12:47:37.386Z</time></trkpt><trkpt lat="44.5867139" lon="15.9703633"><ele>776.6666666666666</ele><time>2026-04-27T12:47:39.387Z</time></trkpt><trkpt lat="44.5866744" lon="15.9704727"><ele>776.3333333333333</ele><time>2026-04-27T12:47:41.386Z</time></trkpt><trkpt lat="44.5865929" lon="15.970478"><ele>776.0</ele><time>2026-04-27T12:47:43.387Z</time></trkpt><trkpt lat="44.5865148" lon="15.9704479"><ele>775.6666666666666</ele><time>2026-04-27T12:47:45.386Z</time></trkpt><trkpt lat="44.5864736" lon="15.9703163"><ele>775.3333333333333</ele><time>2026-04-27T12:47:46.386Z</time></trkpt><trkpt lat="44.5864363" lon="15.9702213"><ele>775.0</ele><time>2026-04-27T12:47:47.386Z</time></trkpt><trkpt lat="44.5863886" lon="15.9700924"><ele>775.5</ele><time>2026-04-27T12:47:48.386Z</time></trkpt><trkpt lat="44.586362" lon="15.9698963"><ele>776.0</ele><time>2026-04-27T12:47:49.386Z</time></trkpt><trkpt lat="44.5863143" lon="15.969708"><ele>776.5</ele><time>2026-04-27T12:47:50.386Z</time></trkpt><trkpt lat="44.5862666" lon="15.9695451"><ele>777.0</ele><time>2026-04-27T12:47:51.386Z</time></trkpt><trkpt lat="44.5861979" lon="15.9693806"><ele>783.0</ele><time>2026-04-27T12:47:52.387Z</time></trkpt><trkpt lat="44.5861325" lon="15.9692259"><ele>789.0</ele><time>2026-04-27T12:47:53.386Z</time></trkpt><trkpt lat="44.5860649" lon="15.9690722"><ele>795.0</ele><time>2026-04-27T12:47:54.386Z</time></trkpt><trkpt lat="44.5860072" lon="15.9689073"><ele>801.0</ele><time>2026-04-27T12:47:55.387Z</time></trkpt><trkpt lat="44.5859948" lon="15.9687775"><ele>802.0</ele><time>2026-04-27T12:47:56.387Z</time></trkpt><trkpt lat="44.5859448" lon="15.9686346"><ele>803.0</ele><time>2026-04-27T12:47:57.387Z</time></trkpt><trkpt lat="44.5859776" lon="15.9685356"><ele>804.0</ele><time>2026-04-27T12:47:58.387Z</time></trkpt><trkpt lat="44.5859812" lon="15.9684134"><ele>805.0</ele><time>2026-04-27T12:47:59.387Z</time></trkpt><trkpt lat="44.5860036" lon="15.9682187"><ele>806.0</ele><time>2026-04-27T12:48:00.387Z</time></trkpt><trkpt lat="44.586014" lon="15.9680922"><ele>806.1999999999999</ele><time>2026-04-27T12:48:01.386Z</time></trkpt><trkpt lat="44.5859947" lon="15.9679286"><ele>806.4</ele><time>2026-04-27T12:48:02.386Z</time></trkpt><trkpt lat="44.5859632" lon="15.9677806"><ele>806.6</ele><time>2026-04-27T12:48:03.386Z</time></trkpt><trkpt lat="44.5859385" lon="15.9676454"><ele>806.8</ele><time>2026-04-27T12:48:04.386Z</time></trkpt><trkpt lat="44.585899" lon="15.9674992"><ele>807.0</ele><time>2026-04-27T12:48:05.387Z</time></trkpt><trkpt lat="44.5858656" lon="15.9673736"><ele>807.8</ele><time>2026-04-27T12:48:06.387Z</time></trkpt><trkpt lat="44.5858206" lon="15.9672519"><ele>808.6</ele><time>2026-04-27T12:48:07.386Z</time></trkpt><trkpt lat="44.5858307" lon="15.9671298"><ele>809.4</ele><time>2026-04-27T12:48:08.386Z</time></trkpt><trkpt lat="44.5858063" lon="15.9670345"><ele>810.1999999999999</ele><time>2026-04-27T12:48:09.386Z</time></trkpt><trkpt lat="44.585753" lon="15.966967"><ele>811.0</ele><time>2026-04-27T12:48:10.387Z</time></trkpt><trkpt lat="44.5856429" lon="15.9668529"><ele>811.0</ele><time>2026-04-27T12:48:12.387Z</time></trkpt><trkpt lat="44.5855795" lon="15.9667849"><ele>811.0</ele><time>2026-04-27T12:48:13.386Z</time></trkpt><trkpt lat="44.5855167" lon="15.966707"><ele>811.0</ele><time>2026-04-27T12:48:14.386Z</time></trkpt><trkpt lat="44.5854931" lon="15.9665923"><ele>811.0</ele><time>2026-04-27T12:48:16.386Z</time></trkpt><trkpt lat="44.5854459" lon="15.9665049"><ele>811.0</ele><time>2026-04-27T12:48:17.386Z</time></trkpt><trkpt lat="44.5854724" lon="15.9663081"><ele>812.0</ele><time>2026-04-27T12:48:19.386Z</time></trkpt><trkpt lat="44.5855787" lon="15.9661801"><ele>813.0</ele><time>2026-04-27T12:48:20.387Z</time></trkpt><trkpt lat="44.5856296" lon="15.9660565"><ele>814.0</ele><time>2026-04-27T12:48:21.386Z</time></trkpt><trkpt lat="44.5856669" lon="15.9658956"><ele>815.0</ele><time>2026-04-27T12:48:22.386Z</time></trkpt><trkpt lat="44.585715" lon="15.9657556"><ele>816.3333333333334</ele><time>2026-04-27T12:48:23.387Z</time></trkpt><trkpt lat="44.5856802" lon="15.9656539"><ele>817.6666666666667</ele><time>2026-04-27T12:48:24.386Z</time></trkpt><trkpt lat="44.5856694" lon="15.9655428"><ele>819.0</ele><time>2026-04-27T12:48:25.386Z</time></trkpt><trkpt lat="44.5856238" lon="15.9653921"><ele>820.3333333333333</ele><time>2026-04-27T12:48:27.387Z</time></trkpt><trkpt lat="44.5856267" lon="15.965298"><ele>821.6666666666666</ele><time>2026-04-27T12:48:28.386Z</time></trkpt><trkpt lat="44.5856398" lon="15.9652072"><ele>823.0</ele><time>2026-04-27T12:48:29.386Z</time></trkpt><trkpt lat="44.585658" lon="15.9651159"><ele>825.75</ele><time>2026-04-27T12:48:30.386Z</time></trkpt><trkpt lat="44.585688" lon="15.96501"><ele>828.5</ele><time>2026-04-27T12:48:31.386Z</time></trkpt><trkpt lat="44.5857623" lon="15.9648163"><ele>831.25</ele><time>2026-04-27T12:48:32.386Z</time></trkpt><trkpt lat="44.5858307" lon="15.9646367"><ele>834.0</ele><time>2026-04-27T12:48:33.386Z</time></trkpt><trkpt lat="44.5858894" lon="15.9644686"><ele>834.0</ele><time>2026-04-27T12:48:34.386Z</time></trkpt><trkpt lat="44.5859492" lon="15.9643053"><ele>834.0</ele><time>2026-04-27T12:48:35.386Z</time></trkpt><trkpt lat="44.5860276" lon="15.9642133"><ele>834.0</ele><time>2026-04-27T12:48:36.386Z</time></trkpt><trkpt lat="44.5860984" lon="15.964127"><ele>834.0</ele><time>2026-04-27T12:48:37.387Z</time></trkpt><trkpt lat="44.5861519" lon="15.964047"><ele>834.0</ele><time>2026-04-27T12:48:38.387Z</time></trkpt><trkpt lat="44.5861892" lon="15.9639643"><ele>835.4285714285714</ele><time>2026-04-27T12:48:39.386Z</time></trkpt><trkpt lat="44.5861982" lon="15.9638711"><ele>836.8571428571428</ele><time>2026-04-27T12:48:40.386Z</time></trkpt><trkpt lat="44.5861732" lon="15.9637895"><ele>838.2857142857142</ele><time>2026-04-27T12:48:41.386Z</time></trkpt><trkpt lat="44.5861192" lon="15.9637273"><ele>839.7142857142858</ele><time>2026-04-27T12:48:42.386Z</time></trkpt><trkpt lat="44.5860489" lon="15.9636863"><ele>841.1428571428571</ele><time>2026-04-27T12:48:43.386Z</time></trkpt><trkpt lat="44.5859683" lon="15.9636628"><ele>842.5714285714286</ele><time>2026-04-27T12:48:44.387Z</time></trkpt><trkpt lat="44.5858856" lon="15.9636686"><ele>844.0</ele><time>2026-04-27T12:48:45.386Z</time></trkpt><trkpt lat="44.5857998" lon="15.9637186"><ele>844.0</ele><time>2026-04-27T12:48:46.386Z</time></trkpt><trkpt lat="44.5857295" lon="15.963784"><ele>844.0</ele><time>2026-04-27T12:48:47.386Z</time></trkpt><trkpt lat="44.585683" lon="15.9638596"><ele>844.0</ele><time>2026-04-27T12:48:48.386Z</time></trkpt><trkpt lat="44.5856224" lon="15.9639959"><ele>844.0</ele><time>2026-04-27T12:48:50.387Z</time></trkpt><trkpt lat="44.5856034" lon="15.964158"><ele>844.0</ele><time>2026-04-27T12:48:52.384Z</time></trkpt><trkpt lat="44.5856116" lon="15.964267"><ele>842.3333333333333</ele><time>2026-04-27T12:48:53.386Z</time></trkpt><trkpt lat="44.5856023" lon="15.964375"><ele>840.6666666666666</ele><time>2026-04-27T12:48:54.387Z</time></trkpt><trkpt lat="44.5855764" lon="15.9644742"><ele>839.0</ele><time>2026-04-27T12:48:55.387Z</time></trkpt><trkpt lat="44.5855124" lon="15.9645613"><ele>837.3333333333333</ele><time>2026-04-27T12:48:56.386Z</time></trkpt><trkpt lat="44.58544" lon="15.9646403"><ele>835.6666666666666</ele><time>2026-04-27T12:48:57.387Z</time></trkpt><trkpt lat="44.5853567" lon="15.9647007"><ele>834.0</ele><time>2026-04-27T12:48:58.387Z</time></trkpt><trkpt lat="44.5852508" lon="15.9647906"><ele>840.5</ele><time>2026-04-27T12:48:59.386Z</time></trkpt><trkpt lat="44.5851791" lon="15.9649105"><ele>847.0</ele><time>2026-04-27T12:49:00.383Z</time></trkpt><trkpt lat="44.5850875" lon="15.9650365"><ele>853.5</ele><time>2026-04-27T12:49:01.386Z</time></trkpt><trkpt lat="44.5850223" lon="15.9651506"><ele>860.0</ele><time>2026-04-27T12:49:02.386Z</time></trkpt><trkpt lat="44.5850663" lon="15.9652988"><ele>860.0</ele><time>2026-04-27T12:49:03.387Z</time></trkpt><trkpt lat="44.5850741" lon="15.965428"><ele>860.0</ele><time>2026-04-27T12:49:04.386Z</time></trkpt><trkpt lat="44.5850557" lon="15.9655391"><ele>860.0</ele><time>2026-04-27T12:49:05.386Z</time></trkpt><trkpt lat="44.584979" lon="15.9656741"><ele>860.0</ele><time>2026-04-27T12:49:07.386Z</time></trkpt><trkpt lat="44.5849081" lon="15.9657221"><ele>860.0</ele><time>2026-04-27T12:49:08.387Z</time></trkpt><trkpt lat="44.5848404" lon="15.9658262"><ele>858.5</ele><time>2026-04-27T12:49:09.387Z</time></trkpt><trkpt lat="44.5847201" lon="15.9659639"><ele>857.0</ele><time>2026-04-27T12:49:10.386Z</time></trkpt><trkpt lat="44.5846398" lon="15.9661217"><ele>855.5</ele><time>2026-04-27T12:49:11.386Z</time></trkpt><trkpt lat="44.5845843" lon="15.9662762"><ele>854.0</ele><time>2026-04-27T12:49:12.386Z</time></trkpt><trkpt lat="44.5845464" lon="15.9664247"><ele>853.6</ele><time>2026-04-27T12:49:13.387Z</time></trkpt><trkpt lat="44.5845114" lon="15.9665776"><ele>853.2</ele><time>2026-04-27T12:49:14.386Z</time></trkpt><trkpt lat="44.5845246" lon="15.9667399"><ele>852.8000000000001</ele><time>2026-04-27T12:49:15.386Z</time></trkpt><trkpt lat="44.5845004" lon="15.9668857"><ele>852.4000000000001</ele><time>2026-04-27T12:49:16.386Z</time></trkpt><trkpt lat="44.584477" lon="15.9670166"><ele>852.0</ele><time>2026-04-27T12:49:17.386Z</time></trkpt><trkpt lat="44.5843983" lon="15.9671122"><ele>858.5</ele><time>2026-04-27T12:49:18.387Z</time></trkpt><trkpt lat="44.5843212" lon="15.9671894"><ele>865.0</ele><time>2026-04-27T12:49:19.386Z</time></trkpt><trkpt lat="44.5842422" lon="15.967261"><ele>871.5</ele><time>2026-04-27T12:49:20.386Z</time></trkpt><trkpt lat="44.5841976" lon="15.9673509"><ele>878.0</ele><time>2026-04-27T12:49:21.386Z</time></trkpt><trkpt lat="44.5841669" lon="15.967433"><ele>884.5</ele><time>2026-04-27T12:49:22.386Z</time></trkpt><trkpt lat="44.5841516" lon="15.9675437"><ele>891.0</ele><time>2026-04-27T12:49:23.386Z</time></trkpt><trkpt lat="44.5841485" lon="15.9676567"><ele>893.0</ele><time>2026-04-27T12:49:24.386Z</time></trkpt><trkpt lat="44.5842203" lon="15.967775"><ele>895.0</ele><time>2026-04-27T12:49:25.386Z</time></trkpt><trkpt lat="44.5843228" lon="15.9679941"><ele>897.0</ele><time>2026-04-27T12:49:26.386Z</time></trkpt><trkpt lat="44.5843877" lon="15.9681105"><ele>899.0</ele><time>2026-04-27T12:49:27.386Z</time></trkpt><trkpt lat="44.5844185" lon="15.9682296"><ele>899.0</ele><time>2026-04-27T12:49:28.387Z</time></trkpt><trkpt lat="44.5844499" lon="15.9683494"><ele>899.0000000000001</ele><time>2026-04-27T12:49:29.386Z</time></trkpt><trkpt lat="44.584471" lon="15.968477"><ele>899.0000000000001</ele><time>2026-04-27T12:49:30.386Z</time></trkpt><trkpt lat="44.5844316" lon="15.9686097"><ele>899.0</ele><time>2026-04-27T12:49:31.386Z</time></trkpt><trkpt lat="44.5843941" lon="15.9687412"><ele>899.0</ele><time>2026-04-27T12:49:32.386Z</time></trkpt><trkpt lat="44.5843179" lon="15.9688483"><ele>898.1666666666667</ele><time>2026-04-27T12:49:33.387Z</time></trkpt><trkpt lat="44.5842251" lon="15.9689031"><ele>897.3333333333334</ele><time>2026-04-27T12:49:34.386Z</time></trkpt><trkpt lat="44.5841561" lon="15.9689755"><ele>896.5</ele><time>2026-04-27T12:49:35.387Z</time></trkpt><trkpt lat="44.5840946" lon="15.9690585"><ele>895.6666666666667</ele><time>2026-04-27T12:49:36.386Z</time></trkpt><trkpt lat="44.5840254" lon="15.969134"><ele>894.8333333333334</ele><time>2026-04-27T12:49:37.387Z</time></trkpt><trkpt lat="44.583985" lon="15.9692373"><ele>894.0</ele><time>2026-04-27T12:49:38.386Z</time></trkpt><trkpt lat="44.5840565" lon="15.9694186"><ele>892.25</ele><time>2026-04-27T12:49:39.386Z</time></trkpt><trkpt lat="44.5841017" lon="15.9695602"><ele>890.5</ele><time>2026-04-27T12:49:40.386Z</time></trkpt><trkpt lat="44.5841486" lon="15.9697061"><ele>888.75</ele><time>2026-04-27T12:49:41.386Z</time></trkpt><trkpt lat="44.5841548" lon="15.9698737"><ele>887.0</ele><time>2026-04-27T12:49:42.386Z</time></trkpt><trkpt lat="44.5841474" lon="15.9700692"><ele>885.0</ele><time>2026-04-27T12:49:43.386Z</time></trkpt><trkpt lat="44.5841491" lon="15.9702804"><ele>883.0</ele><time>2026-04-27T12:49:44.387Z</time></trkpt><trkpt lat="44.5841441" lon="15.970492"><ele>881.0</ele><time>2026-04-27T12:49:45.386Z</time></trkpt><trkpt lat="44.5841476" lon="15.9706858"><ele>879.0</ele><time>2026-04-27T12:49:46.386Z</time></trkpt><trkpt lat="44.5841391" lon="15.9708603"><ele>876.0</ele><time>2026-04-27T12:49:47.386Z</time></trkpt><trkpt lat="44.5841341" lon="15.9710042"><ele>873.0</ele><time>2026-04-27T12:49:48.387Z</time></trkpt><trkpt lat="44.5840849" lon="15.9711553"><ele>870.0</ele><time>2026-04-27T12:49:49.387Z</time></trkpt><trkpt lat="44.5840273" lon="15.9713139"><ele>867.0</ele><time>2026-04-27T12:49:50.387Z</time></trkpt><trkpt lat="44.5839708" lon="15.971434"><ele>867.0</ele><time>2026-04-27T12:49:51.387Z</time></trkpt><trkpt lat="44.5839168" lon="15.9715291"><ele>867.0</ele><time>2026-04-27T12:49:52.386Z</time></trkpt><trkpt lat="44.5838346" lon="15.9715943"><ele>867.0</ele><time>2026-04-27T12:49:53.387Z</time></trkpt><trkpt lat="44.5837593" lon="15.9716535"><ele>867.0</ele><time>2026-04-27T12:49:54.386Z</time></trkpt><trkpt lat="44.5836715" lon="15.9716144"><ele>867.0</ele><time>2026-04-27T12:49:55.387Z</time></trkpt><trkpt lat="44.583586" lon="15.9715943"><ele>867.0</ele><time>2026-04-27T12:49:56.386Z</time></trkpt><trkpt lat="44.5835082" lon="15.9715566"><ele>869.0</ele><time>2026-04-27T12:49:57.386Z</time></trkpt><trkpt lat="44.5834366" lon="15.9715209"><ele>871.0</ele><time>2026-04-27T12:49:58.387Z</time></trkpt><trkpt lat="44.5833572" lon="15.9714773"><ele>873.0</ele><time>2026-04-27T12:49:59.386Z</time></trkpt><trkpt lat="44.5832568" lon="15.9714825"><ele>875.0</ele><time>2026-04-27T12:50:01.386Z</time></trkpt><trkpt lat="44.5832114" lon="15.9715767"><ele>877.0</ele><time>2026-04-27T12:50:03.387Z</time></trkpt><trkpt lat="44.5831811" lon="15.9716659"><ele>879.0</ele><time>2026-04-27T12:50:05.386Z</time></trkpt><trkpt lat="44.5831919" lon="15.9718194"><ele>879.0</ele><time>2026-04-27T12:50:07.386Z</time></trkpt><trkpt lat="44.5831861" lon="15.9719282"><ele>879.0</ele><time>2026-04-27T12:50:09.384Z</time></trkpt><trkpt lat="44.5832151" lon="15.9720087"><ele>879.0</ele><time>2026-04-27T12:50:14.386Z</time></trkpt><trkpt lat="44.5832699" lon="15.9721545"><ele>879.0</ele><time>2026-04-27T12:53:08.387Z</time></trkpt><trkpt lat="44.5832889" lon="15.9722953"><ele>879.0</ele><time>2026-04-27T12:53:09.386Z</time></trkpt><trkpt lat="44.5832891" lon="15.9724143"><ele>879.0</ele><time>2026-04-27T12:53:10.387Z</time></trkpt><trkpt lat="44.5832588" lon="15.9725274"><ele>879.4000000000001</ele><time>2026-04-27T12:53:11.387Z</time></trkpt><trkpt lat="44.5831972" lon="15.9726545"><ele>879.8000000000001</ele><time>2026-04-27T12:53:12.384Z</time></trkpt><trkpt lat="44.5831096" lon="15.9727786"><ele>880.1999999999999</ele><time>2026-04-27T12:53:13.386Z</time></trkpt><trkpt lat="44.5830285" lon="15.9728836"><ele>880.5999999999999</ele><time>2026-04-27T12:53:14.386Z</time></trkpt><trkpt lat="44.5829941" lon="15.9729676"><ele>881.0</ele><time>2026-04-27T12:53:15.386Z</time></trkpt><trkpt lat="44.5829501" lon="15.9730559"><ele>881.0</ele><time>2026-04-27T12:53:16.386Z</time></trkpt><trkpt lat="44.5829248" lon="15.9731854"><ele>881.0</ele><time>2026-04-27T12:53:18.386Z</time></trkpt><trkpt lat="44.5829956" lon="15.973329"><ele>881.0</ele><time>2026-04-27T12:53:20.386Z</time></trkpt><trkpt lat="44.5830698" lon="15.9734158"><ele>881.0</ele><time>2026-04-27T12:53:21.386Z</time></trkpt><trkpt lat="44.5832635" lon="15.9734628"><ele>880.8333333333334</ele><time>2026-04-27T12:53:22.387Z</time></trkpt><trkpt lat="44.5833492" lon="15.9734623"><ele>880.6666666666667</ele><time>2026-04-27T12:53:23.387Z</time></trkpt><trkpt lat="44.5834051" lon="15.9735089"><ele>880.5</ele><time>2026-04-27T12:53:24.386Z</time></trkpt><trkpt lat="44.5834723" lon="15.9735449"><ele>880.3333333333333</ele><time>2026-04-27T12:53:25.387Z</time></trkpt><trkpt lat="44.583547" lon="15.9737219"><ele>880.1666666666666</ele><time>2026-04-27T12:53:27.386Z</time></trkpt><trkpt lat="44.583565" lon="15.9738306"><ele>880.0</ele><time>2026-04-27T12:53:28.386Z</time></trkpt><trkpt lat="44.5835748" lon="15.9739382"><ele>879.9999999999999</ele><time>2026-04-27T12:53:29.386Z</time></trkpt><trkpt lat="44.583552" lon="15.9740301"><ele>880.0</ele><time>2026-04-27T12:53:30.387Z</time></trkpt><trkpt lat="44.5835077" lon="15.9741124"><ele>880.0</ele><time>2026-04-27T12:53:31.386Z</time></trkpt><trkpt lat="44.5834529" lon="15.9742038"><ele>880.0</ele><time>2026-04-27T12:53:32.386Z</time></trkpt><trkpt lat="44.5833934" lon="15.9742711"><ele>879.9999999999999</ele><time>2026-04-27T12:53:33.387Z</time></trkpt><trkpt lat="44.5833274" lon="15.9743245"><ele>880.0</ele><time>2026-04-27T12:53:34.386Z</time></trkpt><trkpt lat="44.5832584" lon="15.9743387"><ele>877.0</ele><time>2026-04-27T12:53:35.387Z</time></trkpt><trkpt lat="44.5831538" lon="15.974354"><ele>874.0</ele><time>2026-04-27T12:53:36.386Z</time></trkpt><trkpt lat="44.5830517" lon="15.9743718"><ele>871.0</ele><time>2026-04-27T12:53:37.386Z</time></trkpt><trkpt lat="44.582927" lon="15.9744136"><ele>868.0</ele><time>2026-04-27T12:53:38.386Z</time></trkpt><trkpt lat="44.5828085" lon="15.9744203"><ele>872.8333333333333</ele><time>2026-04-27T12:53:39.386Z</time></trkpt><trkpt lat="44.5827037" lon="15.9744505"><ele>877.6666666666666</ele><time>2026-04-27T12:53:40.386Z</time></trkpt><trkpt lat="44.5826129" lon="15.9744723"><ele>882.5</ele><time>2026-04-27T12:53:41.386Z</time></trkpt><trkpt lat="44.5825757" lon="15.9745608"><ele>887.3333333333333</ele><time>2026-04-27T12:53:43.386Z</time></trkpt><trkpt lat="44.5825762" lon="15.9747012"><ele>892.1666666666666</ele><time>2026-04-27T12:53:45.386Z</time></trkpt><trkpt lat="44.5826234" lon="15.9747683"><ele>897.0</ele><time>2026-04-27T12:53:46.386Z</time></trkpt><trkpt lat="44.5826527" lon="15.9748595"><ele>897.0</ele><time>2026-04-27T12:53:47.386Z</time></trkpt><trkpt lat="44.58278" lon="15.9749949"><ele>897.0</ele><time>2026-04-27T12:53:48.386Z</time></trkpt><trkpt lat="44.5828486" lon="15.9750969"><ele>897.0</ele><time>2026-04-27T12:53:49.387Z</time></trkpt><trkpt lat="44.5829113" lon="15.9751872"><ele>897.0</ele><time>2026-04-27T12:53:50.386Z</time></trkpt><trkpt lat="44.5829243" lon="15.9752844"><ele>897.0</ele><time>2026-04-27T12:53:51.386Z</time></trkpt><trkpt lat="44.5829486" lon="15.9754047"><ele>895.8</ele><time>2026-04-27T12:53:52.386Z</time></trkpt><trkpt lat="44.5829499" lon="15.9755422"><ele>894.6</ele><time>2026-04-27T12:53:53.386Z</time></trkpt><trkpt lat="44.5829325" lon="15.9756621"><ele>893.3999999999999</ele><time>2026-04-27T12:53:54.387Z</time></trkpt><trkpt lat="44.5828955" lon="15.9757671"><ele>892.1999999999999</ele><time>2026-04-27T12:53:55.386Z</time></trkpt><trkpt lat="44.582824" lon="15.9758933"><ele>891.0</ele><time>2026-04-27T12:53:56.386Z</time></trkpt><trkpt lat="44.5827953" lon="15.976024"><ele>891.0</ele><time>2026-04-27T12:53:57.387Z</time></trkpt><trkpt lat="44.5827852" lon="15.976178"><ele>890.9999999999999</ele><time>2026-04-27T12:53:58.386Z</time></trkpt><trkpt lat="44.5827955" lon="15.9763326"><ele>890.9999999999999</ele><time>2026-04-27T12:53:59.386Z</time></trkpt><trkpt lat="44.5828134" lon="15.9764839"><ele>891.0</ele><time>2026-04-27T12:54:00.386Z</time></trkpt><trkpt lat="44.5828132" lon="15.9766355"><ele>891.0</ele><time>2026-04-27T12:54:01.386Z</time></trkpt><trkpt lat="44.5827547" lon="15.9767995"><ele>887.75</ele><time>2026-04-27T12:54:02.386Z</time></trkpt><trkpt lat="44.582736" lon="15.9769581"><ele>884.5</ele><time>2026-04-27T12:54:03.386Z</time></trkpt><trkpt lat="44.5826636" lon="15.9771242"><ele>881.25</ele><time>2026-04-27T12:54:04.387Z</time></trkpt><trkpt lat="44.5825986" lon="15.977287"><ele>878.0</ele><time>2026-04-27T12:54:05.386Z</time></trkpt><trkpt lat="44.5825219" lon="15.9774273"><ele>874.5</ele><time>2026-04-27T12:54:06.386Z</time></trkpt><trkpt lat="44.5824572" lon="15.9775508"><ele>871.0</ele><time>2026-04-27T12:54:07.387Z</time></trkpt><trkpt lat="44.5823516" lon="15.9776706"><ele>867.5</ele><time>2026-04-27T12:54:08.386Z</time></trkpt><trkpt lat="44.5822375" lon="15.9777667"><ele>864.0</ele><time>2026-04-27T12:54:09.386Z</time></trkpt><trkpt lat="44.5821441" lon="15.9778321"><ele>864.0</ele><time>2026-04-27T12:54:10.387Z</time></trkpt><trkpt lat="44.5820686" lon="15.9778719"><ele>864.0</ele><time>2026-04-27T12:54:11.386Z</time></trkpt><trkpt lat="44.5819673" lon="15.9779047"><ele>864.0</ele><time>2026-04-27T12:54:12.386Z</time></trkpt><trkpt lat="44.5819157" lon="15.9780319"><ele>864.0</ele><time>2026-04-27T12:54:14.386Z</time></trkpt><trkpt lat="44.5819186" lon="15.9781219"><ele>864.0</ele><time>2026-04-27T12:54:15.386Z</time></trkpt><trkpt lat="44.5819426" lon="15.9782319"><ele>864.0</ele><time>2026-04-27T12:54:16.387Z</time></trkpt><trkpt lat="44.5819536" lon="15.9783449"><ele>868.75</ele><time>2026-04-27T12:54:17.386Z</time></trkpt><trkpt lat="44.5819731" lon="15.9784952"><ele>873.5</ele><time>2026-04-27T12:54:18.386Z</time></trkpt><trkpt lat="44.5819846" lon="15.9786589"><ele>878.25</ele><time>2026-04-27T12:54:19.386Z</time></trkpt><trkpt lat="44.5819484" lon="15.9788317"><ele>883.0</ele><time>2026-04-27T12:54:20.386Z</time></trkpt><trkpt lat="44.5819119" lon="15.9790188"><ele>879.5</ele><time>2026-04-27T12:54:21.386Z</time></trkpt><trkpt lat="44.5818838" lon="15.9792107"><ele>876.0</ele><time>2026-04-27T12:54:22.386Z</time></trkpt><trkpt lat="44.5818396" lon="15.9793676"><ele>872.5</ele><time>2026-04-27T12:54:23.387Z</time></trkpt><trkpt lat="44.5818043" lon="15.9795383"><ele>869.0</ele><time>2026-04-27T12:54:24.387Z</time></trkpt><trkpt lat="44.581759" lon="15.9796058"><ele>869.0</ele><time>2026-04-27T12:54:25.386Z</time></trkpt><trkpt lat="44.5817104" lon="15.9796976"><ele>869.0000000000001</ele><time>2026-04-27T12:54:26.386Z</time></trkpt><trkpt lat="44.5816039" lon="15.9797915"><ele>869.0000000000001</ele><time>2026-04-27T12:54:28.387Z</time></trkpt><trkpt lat="44.5814616" lon="15.9797373"><ele>869.0</ele><time>2026-04-27T12:54:30.386Z</time></trkpt><trkpt lat="44.5813786" lon="15.9797509"><ele>869.0</ele><time>2026-04-27T12:54:31.386Z</time></trkpt><trkpt lat="44.5813688" lon="15.9798433"><ele>869.0</ele><time>2026-04-27T12:54:32.386Z</time></trkpt><trkpt lat="44.581307" lon="15.9798982"><ele>869.0000000000001</ele><time>2026-04-27T12:54:33.386Z</time></trkpt><trkpt lat="44.5812475" lon="15.98001"><ele>869.0000000000001</ele><time>2026-04-27T12:54:34.386Z</time></trkpt><trkpt lat="44.5812338" lon="15.9801186"><ele>869.0</ele><time>2026-04-27T12:54:35.386Z</time></trkpt><trkpt lat="44.5812256" lon="15.9802297"><ele>869.0</ele><time>2026-04-27T12:54:36.386Z</time></trkpt><trkpt lat="44.5812851" lon="15.9803848"><ele>866.8333333333334</ele><time>2026-04-27T12:54:37.386Z</time></trkpt><trkpt lat="44.5812666" lon="15.9804696"><ele>864.6666666666667</ele><time>2026-04-27T12:54:38.386Z</time></trkpt><trkpt lat="44.5812588" lon="15.9805812"><ele>862.5</ele><time>2026-04-27T12:54:39.386Z</time></trkpt><trkpt lat="44.5812088" lon="15.9806847"><ele>860.3333333333333</ele><time>2026-04-27T12:54:40.386Z</time></trkpt><trkpt lat="44.5811437" lon="15.9807885"><ele>858.1666666666666</ele><time>2026-04-27T12:54:41.387Z</time></trkpt><trkpt lat="44.5810646" lon="15.9808937"><ele>856.0</ele><time>2026-04-27T12:54:42.386Z</time></trkpt><trkpt lat="44.5809748" lon="15.9809921"><ele>862.0</ele><time>2026-04-27T12:54:43.386Z</time></trkpt><trkpt lat="44.580911" lon="15.9810798"><ele>867.9999999999999</ele><time>2026-04-27T12:54:44.386Z</time></trkpt><trkpt lat="44.580869" lon="15.9811605"><ele>873.9999999999999</ele><time>2026-04-27T12:54:45.387Z</time></trkpt><trkpt lat="44.580836" lon="15.9812447"><ele>880.0</ele><time>2026-04-27T12:54:46.386Z</time></trkpt><trkpt lat="44.5808466" lon="15.981338"><ele>886.0</ele><time>2026-04-27T12:54:47.386Z</time></trkpt><trkpt lat="44.5809603" lon="15.9815199"><ele>886.0</ele><time>2026-04-27T12:54:49.386Z</time></trkpt><trkpt lat="44.5809874" lon="15.9816266"><ele>885.9999999999999</ele><time>2026-04-27T12:54:50.387Z</time></trkpt><trkpt lat="44.5810148" lon="15.9817662"><ele>885.9999999999999</ele><time>2026-04-27T12:54:51.386Z</time></trkpt><trkpt lat="44.5810228" lon="15.9819224"><ele>886.0</ele><time>2026-04-27T12:54:52.386Z</time></trkpt><trkpt lat="44.5809964" lon="15.9820834"><ele>886.0</ele><time>2026-04-27T12:54:53.386Z</time></trkpt><trkpt lat="44.580976" lon="15.982228"><ele>885.75</ele><time>2026-04-27T12:54:54.386Z</time></trkpt><trkpt lat="44.5809767" lon="15.982389"><ele>885.5</ele><time>2026-04-27T12:54:55.386Z</time></trkpt><trkpt lat="44.5808806" lon="15.9826066"><ele>885.25</ele><time>2026-04-27T12:54:56.387Z</time></trkpt><trkpt lat="44.5808132" lon="15.9827795"><ele>885.0</ele><time>2026-04-27T12:54:57.386Z</time></trkpt><trkpt lat="44.5807439" lon="15.9829674"><ele>881.75</ele><time>2026-04-27T12:54:58.386Z</time></trkpt><trkpt lat="44.5806938" lon="15.9831505"><ele>878.5</ele><time>2026-04-27T12:54:59.387Z</time></trkpt><trkpt lat="44.5806172" lon="15.9832961"><ele>875.25</ele><time>2026-04-27T12:55:00.386Z</time></trkpt><trkpt lat="44.5805231" lon="15.9834772"><ele>872.0</ele><time>2026-04-27T12:55:01.387Z</time></trkpt><trkpt lat="44.5804441" lon="15.9836689"><ele>876.6666666666667</ele><time>2026-04-27T12:55:02.386Z</time></trkpt><trkpt lat="44.5803718" lon="15.9838495"><ele>881.3333333333333</ele><time>2026-04-27T12:55:03.386Z</time></trkpt><trkpt lat="44.580272" lon="15.9840074"><ele>886.0</ele><time>2026-04-27T12:55:04.386Z</time></trkpt><trkpt lat="44.580169" lon="15.9841699"><ele>880.25</ele><time>2026-04-27T12:55:05.386Z</time></trkpt><trkpt lat="44.5800428" lon="15.9843339"><ele>874.5</ele><time>2026-04-27T12:55:06.386Z</time></trkpt><trkpt lat="44.5799476" lon="15.9844733"><ele>868.75</ele><time>2026-04-27T12:55:07.386Z</time></trkpt><trkpt lat="44.5798368" lon="15.9845877"><ele>863.0</ele><time>2026-04-27T12:55:08.386Z</time></trkpt><trkpt lat="44.5797245" lon="15.9847158"><ele>863.0</ele><time>2026-04-27T12:55:09.386Z</time></trkpt><trkpt lat="44.5796273" lon="15.984796"><ele>863.0</ele><time>2026-04-27T12:55:10.387Z</time></trkpt><trkpt lat="44.5795201" lon="15.9849149"><ele>863.0</ele><time>2026-04-27T12:55:11.386Z</time></trkpt><trkpt lat="44.5794402" lon="15.9850686"><ele>863.0</ele><time>2026-04-27T12:55:12.386Z</time></trkpt><trkpt lat="44.5793493" lon="15.9852265"><ele>864.75</ele><time>2026-04-27T12:55:13.386Z</time></trkpt><trkpt lat="44.5792711" lon="15.9854096"><ele>866.5</ele><time>2026-04-27T12:55:14.387Z</time></trkpt><trkpt lat="44.5791942" lon="15.9855693"><ele>868.25</ele><time>2026-04-27T12:55:15.386Z</time></trkpt><trkpt lat="44.5791218" lon="15.9857494"><ele>870.0</ele><time>2026-04-27T12:55:16.386Z</time></trkpt><trkpt lat="44.5790554" lon="15.9859411"><ele>870.0</ele><time>2026-04-27T12:55:17.386Z</time></trkpt><trkpt lat="44.5790139" lon="15.9860455"><ele>870.0</ele><time>2026-04-27T12:55:18.386Z</time></trkpt><trkpt lat="44.5789306" lon="15.9861832"><ele>870.0</ele><time>2026-04-27T12:55:20.386Z</time></trkpt><trkpt lat="44.5788765" lon="15.9862627"><ele>870.0</ele><time>2026-04-27T12:55:21.387Z</time></trkpt><trkpt lat="44.5786916" lon="15.9863134"><ele>875.25</ele><time>2026-04-27T12:55:22.386Z</time></trkpt><trkpt lat="44.5785968" lon="15.9863692"><ele>880.5</ele><time>2026-04-27T12:55:23.386Z</time></trkpt><trkpt lat="44.5784041" lon="15.9864072"><ele>885.75</ele><time>2026-04-27T12:55:24.386Z</time></trkpt><trkpt lat="44.5782932" lon="15.986461"><ele>891.0</ele><time>2026-04-27T12:55:25.387Z</time></trkpt><trkpt lat="44.5781831" lon="15.9865179"><ele>891.0</ele><time>2026-04-27T12:55:26.382Z</time></trkpt><trkpt lat="44.5780507" lon="15.9865759"><ele>891.0</ele><time>2026-04-27T12:55:27.386Z</time></trkpt><trkpt lat="44.5779184" lon="15.9866833"><ele>891.0</ele><time>2026-04-27T12:55:28.386Z</time></trkpt><trkpt lat="44.5778176" lon="15.9868343"><ele>891.0</ele><time>2026-04-27T12:55:29.387Z</time></trkpt><trkpt lat="44.5776946" lon="15.9869369"><ele>891.1999999999999</ele><time>2026-04-27T12:55:30.386Z</time></trkpt><trkpt lat="44.5776138" lon="15.9869983"><ele>891.3999999999999</ele><time>2026-04-27T12:55:31.386Z</time></trkpt><trkpt lat="44.5775133" lon="15.9870538"><ele>891.6</ele><time>2026-04-27T12:55:32.386Z</time></trkpt><trkpt lat="44.5774157" lon="15.9870797"><ele>891.8</ele><time>2026-04-27T12:55:33.387Z</time></trkpt><trkpt lat="44.5772811" lon="15.9870459"><ele>892.0</ele><time>2026-04-27T12:55:35.386Z</time></trkpt><trkpt lat="44.5772193" lon="15.9870017"><ele>892.0</ele><time>2026-04-27T12:55:36.386Z</time></trkpt><trkpt lat="44.5770827" lon="15.9869859"><ele>892.0</ele><time>2026-04-27T12:55:38.386Z</time></trkpt><trkpt lat="44.5769709" lon="15.9871055"><ele>892.0</ele><time>2026-04-27T12:55:39.386Z</time></trkpt><trkpt lat="44.5768855" lon="15.9871753"><ele>892.0</ele><time>2026-04-27T12:55:40.386Z</time></trkpt><trkpt lat="44.5767762" lon="15.9872484"><ele>891.0</ele><time>2026-04-27T12:55:41.387Z</time></trkpt><trkpt lat="44.5766554" lon="15.9872973"><ele>890.0</ele><time>2026-04-27T12:55:42.387Z</time></trkpt><trkpt lat="44.5765487" lon="15.9873728"><ele>889.0</ele><time>2026-04-27T12:55:43.387Z</time></trkpt><trkpt lat="44.5764291" lon="15.9874601"><ele>888.0</ele><time>2026-04-27T12:55:44.386Z</time></trkpt><trkpt lat="44.576302" lon="15.9875837"><ele>888.0</ele><time>2026-04-27T12:55:45.386Z</time></trkpt><trkpt lat="44.5762127" lon="15.9877579"><ele>888.0</ele><time>2026-04-27T12:55:46.387Z</time></trkpt><trkpt lat="44.5761128" lon="15.9879155"><ele>888.0</ele><time>2026-04-27T12:55:47.386Z</time></trkpt><trkpt lat="44.5760546" lon="15.988041"><ele>888.0</ele><time>2026-04-27T12:55:48.386Z</time></trkpt><trkpt lat="44.5759993" lon="15.9881821"><ele>889.0</ele><time>2026-04-27T12:55:49.387Z</time></trkpt><trkpt lat="44.5759328" lon="15.9883043"><ele>890.0</ele><time>2026-04-27T12:55:50.387Z</time></trkpt><trkpt lat="44.5758441" lon="15.9884014"><ele>891.0</ele><time>2026-04-27T12:55:51.386Z</time></trkpt><trkpt lat="44.5756886" lon="15.9885182"><ele>892.0</ele><time>2026-04-27T12:55:52.386Z</time></trkpt><trkpt lat="44.5755456" lon="15.9886431"><ele>892.0</ele><time>2026-04-27T12:55:53.387Z</time></trkpt><trkpt lat="44.5753761" lon="15.9887902"><ele>892.0</ele><time>2026-04-27T12:55:54.386Z</time></trkpt><trkpt lat="44.5752249" lon="15.9889174"><ele>892.0</ele><time>2026-04-27T12:55:55.386Z</time></trkpt><trkpt lat="44.5751367" lon="15.9890072"><ele>893.0</ele><time>2026-04-27T12:55:56.387Z</time></trkpt><trkpt lat="44.5750072" lon="15.9891089"><ele>894.0</ele><time>2026-04-27T12:55:57.387Z</time></trkpt><trkpt lat="44.5748713" lon="15.9892019"><ele>895.0</ele><time>2026-04-27T12:55:58.386Z</time></trkpt><trkpt lat="44.5747685" lon="15.9892744"><ele>896.0</ele><time>2026-04-27T12:55:59.387Z</time></trkpt><trkpt lat="44.5746819" lon="15.9893339"><ele>896.0</ele><time>2026-04-27T12:56:00.387Z</time></trkpt><trkpt lat="44.574586" lon="15.9893288"><ele>895.9999999999999</ele><time>2026-04-27T12:56:01.386Z</time></trkpt><trkpt lat="44.5744962" lon="15.989282"><ele>895.9999999999999</ele><time>2026-04-27T12:56:02.386Z</time></trkpt><trkpt lat="44.574405" lon="15.989208"><ele>896.0</ele><time>2026-04-27T12:56:03.386Z</time></trkpt><trkpt lat="44.5743246" lon="15.9891185"><ele>896.0</ele><time>2026-04-27T12:56:04.386Z</time></trkpt><trkpt lat="44.5742492" lon="15.9890085"><ele>900.0</ele><time>2026-04-27T12:56:05.386Z</time></trkpt><trkpt lat="44.5741589" lon="15.9888894"><ele>903.9999999999999</ele><time>2026-04-27T12:56:06.386Z</time></trkpt><trkpt lat="44.5740887" lon="15.988813"><ele>907.9999999999999</ele><time>2026-04-27T12:56:07.387Z</time></trkpt><trkpt lat="44.5740401" lon="15.9887304"><ele>912.0</ele><time>2026-04-27T12:56:08.386Z</time></trkpt><trkpt lat="44.573995" lon="15.9886292"><ele>916.0</ele><time>2026-04-27T12:56:09.387Z</time></trkpt><trkpt lat="44.5739787" lon="15.988505"><ele>918.0</ele><time>2026-04-27T12:56:10.386Z</time></trkpt><trkpt lat="44.5739492" lon="15.9883211"><ele>920.0</ele><time>2026-04-27T12:56:11.386Z</time></trkpt><trkpt lat="44.5739129" lon="15.9881239"><ele>922.0</ele><time>2026-04-27T12:56:12.386Z</time></trkpt><trkpt lat="44.5738735" lon="15.9879476"><ele>924.0</ele><time>2026-04-27T12:56:13.386Z</time></trkpt><trkpt lat="44.5738395" lon="15.9877706"><ele>924.0</ele><time>2026-04-27T12:56:14.387Z</time></trkpt><trkpt lat="44.5737976" lon="15.9876307"><ele>924.0</ele><time>2026-04-27T12:56:15.387Z</time></trkpt><trkpt lat="44.573787" lon="15.9875127"><ele>924.0</ele><time>2026-04-27T12:56:16.386Z</time></trkpt><trkpt lat="44.5737616" lon="15.9874208"><ele>924.0</ele><time>2026-04-27T12:56:17.387Z</time></trkpt><trkpt lat="44.5737431" lon="15.9873359"><ele>924.0</ele><time>2026-04-27T12:56:18.387Z</time></trkpt><trkpt lat="44.5736968" lon="15.9872753"><ele>924.0</ele><time>2026-04-27T12:56:19.386Z</time></trkpt><trkpt lat="44.5736197" lon="15.9871719"><ele>922.6</ele><time>2026-04-27T12:56:21.386Z</time></trkpt><trkpt lat="44.5735153" lon="15.9870908"><ele>921.2</ele><time>2026-04-27T12:56:23.386Z</time></trkpt><trkpt lat="44.5734172" lon="15.9870425"><ele>919.8000000000001</ele><time>2026-04-27T12:56:25.386Z</time></trkpt><trkpt lat="44.5733518" lon="15.9870109"><ele>918.4000000000001</ele><time>2026-04-27T12:56:27.386Z</time></trkpt><trkpt lat="44.5732714" lon="15.9869696"><ele>917.0</ele><time>2026-04-27T12:56:30.386Z</time></trkpt><trkpt lat="44.5731628" lon="15.9869154"><ele>917.0</ele><time>2026-04-27T12:56:31.386Z</time></trkpt><trkpt lat="44.5730774" lon="15.9868632"><ele>917.0</ele><time>2026-04-27T12:56:32.387Z</time></trkpt><trkpt lat="44.5729952" lon="15.9867897"><ele>917.0</ele><time>2026-04-27T12:56:33.386Z</time></trkpt><trkpt lat="44.5729205" lon="15.9866871"><ele>917.0</ele><time>2026-04-27T12:56:34.386Z</time></trkpt><trkpt lat="44.5728394" lon="15.9865874"><ele>917.0</ele><time>2026-04-27T12:56:35.386Z</time></trkpt><trkpt lat="44.5727588" lon="15.9864885"><ele>917.6666666666667</ele><time>2026-04-27T12:56:36.386Z</time></trkpt><trkpt lat="44.5726938" lon="15.9864209"><ele>918.3333333333334</ele><time>2026-04-27T12:56:37.386Z</time></trkpt><trkpt lat="44.572624" lon="15.986383"><ele>919.0</ele><time>2026-04-27T12:56:38.387Z</time></trkpt><trkpt lat="44.5725537" lon="15.9863552"><ele>919.6666666666667</ele><time>2026-04-27T12:56:39.386Z</time></trkpt><trkpt lat="44.5724789" lon="15.9863579"><ele>920.3333333333334</ele><time>2026-04-27T12:56:40.386Z</time></trkpt><trkpt lat="44.5723616" lon="15.9863585"><ele>921.0</ele><time>2026-04-27T12:56:41.386Z</time></trkpt><trkpt lat="44.5722523" lon="15.9863229"><ele>921.0</ele><time>2026-04-27T12:56:42.386Z</time></trkpt><trkpt lat="44.5721415" lon="15.9862917"><ele>921.0</ele><time>2026-04-27T12:56:43.386Z</time></trkpt><trkpt lat="44.5720083" lon="15.9862768"><ele>921.0</ele><time>2026-04-27T12:56:44.387Z</time></trkpt><trkpt lat="44.5718676" lon="15.9862617"><ele>921.0</ele><time>2026-04-27T12:56:45.386Z</time></trkpt><trkpt lat="44.5717054" lon="15.986218"><ele>921.5</ele><time>2026-04-27T12:56:46.386Z</time></trkpt><trkpt lat="44.5716057" lon="15.9862083"><ele>922.0</ele><time>2026-04-27T12:56:47.386Z</time></trkpt><trkpt lat="44.5714508" lon="15.9861888"><ele>922.5</ele><time>2026-04-27T12:56:48.386Z</time></trkpt><trkpt lat="44.5713389" lon="15.9861836"><ele>923.0</ele><time>2026-04-27T12:56:49.386Z</time></trkpt><trkpt lat="44.571234" lon="15.9861697"><ele>922.1666666666667</ele><time>2026-04-27T12:56:50.385Z</time></trkpt><trkpt lat="44.5711197" lon="15.9861645"><ele>921.3333333333334</ele><time>2026-04-27T12:56:51.386Z</time></trkpt><trkpt lat="44.5710282" lon="15.9861617"><ele>920.5</ele><time>2026-04-27T12:56:52.386Z</time></trkpt><trkpt lat="44.5709377" lon="15.9861633"><ele>919.6666666666667</ele><time>2026-04-27T12:56:53.386Z</time></trkpt><trkpt lat="44.570869" lon="15.986164"><ele>918.8333333333334</ele><time>2026-04-27T12:56:54.386Z</time></trkpt><trkpt lat="44.5707989" lon="15.9861327"><ele>918.0</ele><time>2026-04-27T12:56:55.386Z</time></trkpt><trkpt lat="44.5707334" lon="15.986067"><ele>918.0</ele><time>2026-04-27T12:56:56.386Z</time></trkpt><trkpt lat="44.5706773" lon="15.9860167"><ele>918.0</ele><time>2026-04-27T12:56:57.386Z</time></trkpt><trkpt lat="44.5706164" lon="15.9858434"><ele>918.0</ele><time>2026-04-27T12:56:59.386Z</time></trkpt><trkpt lat="44.5705992" lon="15.9857412"><ele>918.0</ele><time>2026-04-27T12:57:00.387Z</time></trkpt><trkpt lat="44.5705975" lon="15.9856012"><ele>918.0</ele><time>2026-04-27T12:57:02.386Z</time></trkpt><trkpt lat="44.5705464" lon="15.9855065"><ele>918.0</ele><time>2026-04-27T12:57:04.387Z</time></trkpt><trkpt lat="44.5704582" lon="15.9855553"><ele>918.0</ele><time>2026-04-27T12:57:06.386Z</time></trkpt><trkpt lat="44.5703679" lon="15.9856764"><ele>918.0</ele><time>2026-04-27T12:57:08.386Z</time></trkpt><trkpt lat="44.5703614" lon="15.985825"><ele>918.0</ele><time>2026-04-27T12:57:09.387Z</time></trkpt><trkpt lat="44.5703624" lon="15.9859762"><ele>918.0</ele><time>2026-04-27T12:57:10.386Z</time></trkpt><trkpt lat="44.5703448" lon="15.9861103"><ele>918.0</ele><time>2026-04-27T12:57:11.386Z</time></trkpt><trkpt lat="44.5703336" lon="15.9862333"><ele>918.0</ele><time>2026-04-27T12:57:12.386Z</time></trkpt><trkpt lat="44.5703687" lon="15.9863418"><ele>918.0</ele><time>2026-04-27T12:57:13.386Z</time></trkpt><trkpt lat="44.5703622" lon="15.9864496"><ele>918.0</ele><time>2026-04-27T12:57:14.386Z</time></trkpt><trkpt lat="44.570294" lon="15.986608"><ele>918.0</ele><time>2026-04-27T12:57:16.386Z</time></trkpt><trkpt lat="44.5702046" lon="15.9866835"><ele>917.8333333333334</ele><time>2026-04-27T12:57:18.386Z</time></trkpt><trkpt lat="44.570124" lon="15.9867226"><ele>917.6666666666667</ele><time>2026-04-27T12:57:19.386Z</time></trkpt><trkpt lat="44.5700498" lon="15.9867611"><ele>917.5</ele><time>2026-04-27T12:57:20.386Z</time></trkpt><trkpt lat="44.5699788" lon="15.9868024"><ele>917.3333333333334</ele><time>2026-04-27T12:57:21.386Z</time></trkpt><trkpt lat="44.5699158" lon="15.9868684"><ele>917.1666666666667</ele><time>2026-04-27T12:57:22.386Z</time></trkpt><trkpt lat="44.5698467" lon="15.9869625"><ele>917.0</ele><time>2026-04-27T12:57:23.387Z</time></trkpt><trkpt lat="44.5697917" lon="15.987101"><ele>917.0</ele><time>2026-04-27T12:57:24.386Z</time></trkpt><trkpt lat="44.5697244" lon="15.987219"><ele>917.0</ele><time>2026-04-27T12:57:25.386Z</time></trkpt><trkpt lat="44.5696567" lon="15.9873584"><ele>917.0</ele><time>2026-04-27T12:57:27.386Z</time></trkpt><trkpt lat="44.5695952" lon="15.9874434"><ele>917.0</ele><time>2026-04-27T12:57:28.386Z</time></trkpt><trkpt lat="44.5695322" lon="15.9874677"><ele>917.0</ele><time>2026-04-27T12:57:29.386Z</time></trkpt><trkpt lat="44.5694564" lon="15.9875273"><ele>917.5000000000001</ele><time>2026-04-27T12:57:30.386Z</time></trkpt><trkpt lat="44.5693896" lon="15.9875805"><ele>918.0</ele><time>2026-04-27T12:57:31.386Z</time></trkpt><trkpt lat="44.56933" lon="15.9876618"><ele>918.5</ele><time>2026-04-27T12:57:32.387Z</time></trkpt><trkpt lat="44.5692688" lon="15.9877102"><ele>919.0</ele><time>2026-04-27T12:57:33.386Z</time></trkpt><trkpt lat="44.569203" lon="15.9877782"><ele>919.5000000000001</ele><time>2026-04-27T12:57:34.386Z</time></trkpt><trkpt lat="44.5692162" lon="15.9878898"><ele>920.0</ele><time>2026-04-27T12:57:35.386Z</time></trkpt><trkpt lat="44.5691897" lon="15.9879801"><ele>920.0000000000001</ele><time>2026-04-27T12:57:36.387Z</time></trkpt><trkpt lat="44.5691937" lon="15.9880846"><ele>920.0</ele><time>2026-04-27T12:57:37.386Z</time></trkpt><trkpt lat="44.5692177" lon="15.9881755"><ele>920.0</ele><time>2026-04-27T12:57:38.387Z</time></trkpt><trkpt lat="44.5692713" lon="15.9882446"><ele>920.0</ele><time>2026-04-27T12:57:39.386Z</time></trkpt><trkpt lat="44.5693614" lon="15.9883323"><ele>920.0000000000001</ele><time>2026-04-27T12:57:40.387Z</time></trkpt><trkpt lat="44.5693961" lon="15.9884143"><ele>920.0</ele><time>2026-04-27T12:57:41.386Z</time></trkpt><trkpt lat="44.569424" lon="15.9885609"><ele>920.4</ele><time>2026-04-27T12:57:42.386Z</time></trkpt><trkpt lat="44.569474" lon="15.9887004"><ele>920.8</ele><time>2026-04-27T12:57:43.386Z</time></trkpt><trkpt lat="44.5694901" lon="15.988832"><ele>921.2</ele><time>2026-04-27T12:57:44.386Z</time></trkpt><trkpt lat="44.5695175" lon="15.9889559"><ele>921.6</ele><time>2026-04-27T12:57:46.386Z</time></trkpt><trkpt lat="44.5695675" lon="15.9890264"><ele>922.0</ele><time>2026-04-27T12:57:47.386Z</time></trkpt><trkpt lat="44.5697087" lon="15.9890822"><ele>920.2</ele><time>2026-04-27T12:57:49.386Z</time></trkpt><trkpt lat="44.5697994" lon="15.9891364"><ele>918.4000000000001</ele><time>2026-04-27T12:57:50.386Z</time></trkpt><trkpt lat="44.5698632" lon="15.9891916"><ele>916.5999999999999</ele><time>2026-04-27T12:57:51.386Z</time></trkpt><trkpt lat="44.5699551" lon="15.9892313"><ele>914.8</ele><time>2026-04-27T12:57:52.386Z</time></trkpt><trkpt lat="44.5700599" lon="15.989338"><ele>913.0</ele><time>2026-04-27T12:57:53.386Z</time></trkpt><trkpt lat="44.5701584" lon="15.9894224"><ele>912.9999999999999</ele><time>2026-04-27T12:57:54.387Z</time></trkpt><trkpt lat="44.5702363" lon="15.9895264"><ele>913.0</ele><time>2026-04-27T12:57:55.386Z</time></trkpt><trkpt lat="44.570298" lon="15.9896239"><ele>913.0</ele><time>2026-04-27T12:57:56.386Z</time></trkpt><trkpt lat="44.5702635" lon="15.9897635"><ele>913.0</ele><time>2026-04-27T12:57:58.387Z</time></trkpt><trkpt lat="44.5702599" lon="15.9898525"><ele>912.9999999999999</ele><time>2026-04-27T12:57:59.387Z</time></trkpt><trkpt lat="44.5702643" lon="15.9899527"><ele>913.0</ele><time>2026-04-27T12:58:00.378Z</time></trkpt><trkpt lat="44.570235" lon="15.9900985"><ele>910.5999999999999</ele><time>2026-04-27T12:58:01.386Z</time></trkpt><trkpt lat="44.5701928" lon="15.990238"><ele>908.1999999999999</ele><time>2026-04-27T12:58:02.386Z</time></trkpt><trkpt lat="44.5701323" lon="15.9904343"><ele>905.8</ele><time>2026-04-27T12:58:04.387Z</time></trkpt><trkpt lat="44.570092" lon="15.9905219"><ele>903.4</ele><time>2026-04-27T12:58:05.386Z</time></trkpt><trkpt lat="44.5700592" lon="15.9906334"><ele>901.0</ele><time>2026-04-27T12:58:06.386Z</time></trkpt><trkpt lat="44.5699335" lon="15.9907649"><ele>896.8</ele><time>2026-04-27T12:58:07.385Z</time></trkpt><trkpt lat="44.5698457" lon="15.9908876"><ele>892.5999999999999</ele><time>2026-04-27T12:58:08.386Z</time></trkpt><trkpt lat="44.5697618" lon="15.9910078"><ele>888.4</ele><time>2026-04-27T12:58:09.386Z</time></trkpt><trkpt lat="44.5697126" lon="15.9910908"><ele>884.2</ele><time>2026-04-27T12:58:10.384Z</time></trkpt><trkpt lat="44.5696567" lon="15.9911969"><ele>880.0</ele><time>2026-04-27T12:58:11.386Z</time></trkpt><trkpt lat="44.5695688" lon="15.9913033"><ele>882.6</ele><time>2026-04-27T12:58:12.386Z</time></trkpt><trkpt lat="44.5694972" lon="15.9913911"><ele>885.2</ele><time>2026-04-27T12:58:13.386Z</time></trkpt><trkpt lat="44.5694503" lon="15.991486"><ele>887.8</ele><time>2026-04-27T12:58:14.386Z</time></trkpt><trkpt lat="44.5693795" lon="15.9915889"><ele>890.4</ele><time>2026-04-27T12:58:15.386Z</time></trkpt><trkpt lat="44.5693308" lon="15.9917113"><ele>893.0</ele><time>2026-04-27T12:58:16.386Z</time></trkpt><trkpt lat="44.5693175" lon="15.9918292"><ele>893.0000000000001</ele><time>2026-04-27T12:58:17.386Z</time></trkpt><trkpt lat="44.5692923" lon="15.9919191"><ele>893.0</ele><time>2026-04-27T12:58:18.387Z</time></trkpt><trkpt lat="44.5692662" lon="15.9920215"><ele>893.0</ele><time>2026-04-27T12:58:19.387Z</time></trkpt><trkpt lat="44.5692331" lon="15.9920975"><ele>893.0</ele><time>2026-04-27T12:58:20.386Z</time></trkpt><trkpt lat="44.5691616" lon="15.9922275"><ele>893.0000000000001</ele><time>2026-04-27T12:58:22.383Z</time></trkpt><trkpt lat="44.5691544" lon="15.9923246"><ele>893.0</ele><time>2026-04-27T12:58:23.387Z</time></trkpt><trkpt lat="44.5691898" lon="15.9924522"><ele>892.5999999999999</ele><time>2026-04-27T12:58:24.386Z</time></trkpt><trkpt lat="44.5691929" lon="15.9925667"><ele>892.1999999999999</ele><time>2026-04-27T12:58:25.387Z</time></trkpt><trkpt lat="44.5691838" lon="15.9926941"><ele>891.8</ele><time>2026-04-27T12:58:26.386Z</time></trkpt><trkpt lat="44.5691923" lon="15.9928341"><ele>891.4</ele><time>2026-04-27T12:58:27.387Z</time></trkpt><trkpt lat="44.5691942" lon="15.9929892"><ele>891.0</ele><time>2026-04-27T12:58:28.387Z</time></trkpt><trkpt lat="44.5692045" lon="15.9931316"><ele>891.0</ele><time>2026-04-27T12:58:29.387Z</time></trkpt><trkpt lat="44.5691982" lon="15.9932734"><ele>890.9999999999999</ele><time>2026-04-27T12:58:30.386Z</time></trkpt><trkpt lat="44.5692315" lon="15.9934059"><ele>890.9999999999999</ele><time>2026-04-27T12:58:31.386Z</time></trkpt><trkpt lat="44.5692363" lon="15.9935645"><ele>891.0</ele><time>2026-04-27T12:58:32.386Z</time></trkpt><trkpt lat="44.5692205" lon="15.9937352"><ele>891.0</ele><time>2026-04-27T12:58:33.387Z</time></trkpt><trkpt lat="44.569207" lon="15.9939044"><ele>890.4</ele><time>2026-04-27T12:58:34.386Z</time></trkpt><trkpt lat="44.5691909" lon="15.9940443"><ele>889.8</ele><time>2026-04-27T12:58:35.387Z</time></trkpt><trkpt lat="44.5691966" lon="15.9941851"><ele>889.1999999999999</ele><time>2026-04-27T12:58:36.386Z</time></trkpt><trkpt lat="44.5692053" lon="15.9943133"><ele>888.5999999999999</ele><time>2026-04-27T12:58:37.386Z</time></trkpt><trkpt lat="44.5692039" lon="15.994445"><ele>888.0</ele><time>2026-04-27T12:58:38.386Z</time></trkpt><trkpt lat="44.5691722" lon="15.994578"><ele>888.0</ele><time>2026-04-27T12:58:39.386Z</time></trkpt><trkpt lat="44.5690975" lon="15.9947248"><ele>888.0</ele><time>2026-04-27T12:58:40.386Z</time></trkpt><trkpt lat="44.5690682" lon="15.9948865"><ele>888.0</ele><time>2026-04-27T12:58:41.387Z</time></trkpt><trkpt lat="44.5690442" lon="15.995071"><ele>888.0</ele><time>2026-04-27T12:58:42.386Z</time></trkpt><trkpt lat="44.5690065" lon="15.9952558"><ele>887.0</ele><time>2026-04-27T12:58:43.386Z</time></trkpt><trkpt lat="44.5689499" lon="15.9954157"><ele>886.0</ele><time>2026-04-27T12:58:44.386Z</time></trkpt><trkpt lat="44.5689337" lon="15.995573"><ele>885.0</ele><time>2026-04-27T12:58:45.382Z</time></trkpt><trkpt lat="44.5689275" lon="15.9957392"><ele>884.0</ele><time>2026-04-27T12:58:46.386Z</time></trkpt><trkpt lat="44.5689311" lon="15.9959133"><ele>882.75</ele><time>2026-04-27T12:58:47.386Z</time></trkpt><trkpt lat="44.568937" lon="15.996109"><ele>881.5</ele><time>2026-04-27T12:58:48.386Z</time></trkpt><trkpt lat="44.5689341" lon="15.9962793"><ele>880.25</ele><time>2026-04-27T12:58:49.387Z</time></trkpt><trkpt lat="44.5689428" lon="15.9964471"><ele>879.0</ele><time>2026-04-27T12:58:50.387Z</time></trkpt><trkpt lat="44.5689418" lon="15.9965902"><ele>877.5</ele><time>2026-04-27T12:58:51.386Z</time></trkpt><trkpt lat="44.5689271" lon="15.9966894"><ele>876.0</ele><time>2026-04-27T12:58:52.386Z</time></trkpt><trkpt lat="44.568911" lon="15.9967762"><ele>874.5</ele><time>2026-04-27T12:58:53.384Z</time></trkpt><trkpt lat="44.5688633" lon="15.9968702"><ele>873.0</ele><time>2026-04-27T12:58:54.386Z</time></trkpt><trkpt lat="44.5688217" lon="15.9969612"><ele>871.5</ele><time>2026-04-27T12:58:55.387Z</time></trkpt><trkpt lat="44.5687527" lon="15.99704"><ele>870.0</ele><time>2026-04-27T12:58:56.386Z</time></trkpt><trkpt lat="44.5686687" lon="15.9971167"><ele>871.3333333333334</ele><time>2026-04-27T12:58:57.387Z</time></trkpt><trkpt lat="44.5686055" lon="15.9971929"><ele>872.6666666666667</ele><time>2026-04-27T12:58:58.387Z</time></trkpt><trkpt lat="44.5685324" lon="15.9972981"><ele>874.0</ele><time>2026-04-27T12:59:00.387Z</time></trkpt><trkpt lat="44.5685524" lon="15.9973946"><ele>875.3333333333334</ele><time>2026-04-27T12:59:01.386Z</time></trkpt><trkpt lat="44.5685724" lon="15.9975173"><ele>876.6666666666667</ele><time>2026-04-27T12:59:02.386Z</time></trkpt><trkpt lat="44.5685854" lon="15.9976056"><ele>878.0</ele><time>2026-04-27T12:59:03.387Z</time></trkpt><trkpt lat="44.5685867" lon="15.9977028"><ele>878.0</ele><time>2026-04-27T12:59:04.386Z</time></trkpt><trkpt lat="44.5685758" lon="15.9978058"><ele>878.0</ele><time>2026-04-27T12:59:05.386Z</time></trkpt><trkpt lat="44.5685183" lon="15.997932"><ele>878.0</ele><time>2026-04-27T12:59:06.387Z</time></trkpt><trkpt lat="44.5684568" lon="15.9980602"><ele>878.0</ele><time>2026-04-27T12:59:07.386Z</time></trkpt><trkpt lat="44.5683926" lon="15.998176"><ele>878.0</ele><time>2026-04-27T12:59:08.386Z</time></trkpt><trkpt lat="44.5683416" lon="15.9982525"><ele>875.2</ele><time>2026-04-27T12:59:09.386Z</time></trkpt><trkpt lat="44.5682614" lon="15.9983372"><ele>872.4</ele><time>2026-04-27T12:59:10.386Z</time></trkpt><trkpt lat="44.5681685" lon="15.9984436"><ele>869.6000000000001</ele><time>2026-04-27T12:59:11.386Z</time></trkpt><trkpt lat="44.5681042" lon="15.9985389"><ele>866.8000000000001</ele><time>2026-04-27T12:59:12.386Z</time></trkpt><trkpt lat="44.5680207" lon="15.9986591"><ele>864.0</ele><time>2026-04-27T12:59:13.386Z</time></trkpt><trkpt lat="44.5679604" lon="15.9988295"><ele>864.0</ele><time>2026-04-27T12:59:14.386Z</time></trkpt><trkpt lat="44.5679183" lon="15.9989567"><ele>864.0</ele><time>2026-04-27T12:59:15.386Z</time></trkpt><trkpt lat="44.5678468" lon="15.9990953"><ele>864.0</ele><time>2026-04-27T12:59:16.386Z</time></trkpt><trkpt lat="44.5676856" lon="15.9992208"><ele>864.0</ele><time>2026-04-27T12:59:17.386Z</time></trkpt><trkpt lat="44.5675679" lon="15.9993058"><ele>862.5</ele><time>2026-04-27T12:59:18.386Z</time></trkpt><trkpt lat="44.5674494" lon="15.9994007"><ele>861.0</ele><time>2026-04-27T12:59:19.387Z</time></trkpt><trkpt lat="44.5673465" lon="15.9995144"><ele>859.5</ele><time>2026-04-27T12:59:20.386Z</time></trkpt><trkpt lat="44.5672326" lon="15.9996193"><ele>858.0</ele><time>2026-04-27T12:59:21.386Z</time></trkpt><trkpt lat="44.5671359" lon="15.9997198"><ele>858.0</ele><time>2026-04-27T12:59:22.387Z</time></trkpt><trkpt lat="44.5670401" lon="15.9998509"><ele>858.0</ele><time>2026-04-27T12:59:23.386Z</time></trkpt><trkpt lat="44.5669427" lon="16.0000064"><ele>858.0</ele><time>2026-04-27T12:59:24.383Z</time></trkpt><trkpt lat="44.5668679" lon="16.0001365"><ele>858.0</ele><time>2026-04-27T12:59:25.386Z</time></trkpt><trkpt lat="44.5668013" lon="16.0002158"><ele>861.25</ele><time>2026-04-27T12:59:26.386Z</time></trkpt><trkpt lat="44.566719" lon="16.0002963"><ele>864.5</ele><time>2026-04-27T12:59:27.386Z</time></trkpt><trkpt lat="44.5666128" lon="16.0003802"><ele>867.75</ele><time>2026-04-27T12:59:28.386Z</time></trkpt><trkpt lat="44.5665018" lon="16.000454"><ele>871.0</ele><time>2026-04-27T12:59:29.386Z</time></trkpt><trkpt lat="44.5663901" lon="16.0005303"><ele>871.0</ele><time>2026-04-27T12:59:30.383Z</time></trkpt><trkpt lat="44.5662658" lon="16.0005835"><ele>870.9999999999999</ele><time>2026-04-27T12:59:31.386Z</time></trkpt><trkpt lat="44.5661683" lon="16.0005824"><ele>870.9999999999999</ele><time>2026-04-27T12:59:32.386Z</time></trkpt><trkpt lat="44.5660572" lon="16.0005982"><ele>871.0</ele><time>2026-04-27T12:59:33.386Z</time></trkpt><trkpt lat="44.5659704" lon="16.0006054"><ele>871.0</ele><time>2026-04-27T12:59:34.387Z</time></trkpt><trkpt lat="44.5658893" lon="16.0005797"><ele>870.0</ele><time>2026-04-27T12:59:35.387Z</time></trkpt><trkpt lat="44.5658136" lon="16.0005236"><ele>868.9999999999999</ele><time>2026-04-27T12:59:36.386Z</time></trkpt><trkpt lat="44.5657338" lon="16.0004518"><ele>867.9999999999999</ele><time>2026-04-27T12:59:37.386Z</time></trkpt><trkpt lat="44.5656374" lon="16.0003502"><ele>867.0</ele><time>2026-04-27T12:59:38.386Z</time></trkpt><trkpt lat="44.5655352" lon="16.0002722"><ele>866.0</ele><time>2026-04-27T12:59:39.386Z</time></trkpt><trkpt lat="44.5654394" lon="16.0001962"><ele>864.8333333333334</ele><time>2026-04-27T12:59:40.386Z</time></trkpt><trkpt lat="44.5653478" lon="16.0001236"><ele>863.6666666666667</ele><time>2026-04-27T12:59:41.386Z</time></trkpt><trkpt lat="44.5652668" lon="16.0000931"><ele>862.5</ele><time>2026-04-27T12:59:42.386Z</time></trkpt><trkpt lat="44.5652267" lon="16.0001844"><ele>861.3333333333333</ele><time>2026-04-27T12:59:43.386Z</time></trkpt><trkpt lat="44.5651725" lon="16.000231"><ele>860.1666666666666</ele><time>2026-04-27T12:59:44.387Z</time></trkpt><trkpt lat="44.5651158" lon="16.0002815"><ele>859.0</ele><time>2026-04-27T12:59:45.387Z</time></trkpt><trkpt lat="44.5650494" lon="16.0002849"><ele>859.0</ele><time>2026-04-27T12:59:46.386Z</time></trkpt><trkpt lat="44.5649828" lon="16.0002607"><ele>859.0000000000001</ele><time>2026-04-27T12:59:47.386Z</time></trkpt><trkpt lat="44.5649039" lon="16.0002024"><ele>859.0000000000001</ele><time>2026-04-27T12:59:48.386Z</time></trkpt><trkpt lat="44.5648184" lon="16.0001323"><ele>859.0</ele><time>2026-04-27T12:59:49.387Z</time></trkpt><trkpt lat="44.5647124" lon="15.9999919"><ele>859.0</ele><time>2026-04-27T12:59:50.386Z</time></trkpt><trkpt lat="44.5646244" lon="15.9998738"><ele>858.9999999999999</ele><time>2026-04-27T12:59:51.386Z</time></trkpt><trkpt lat="44.5645541" lon="15.9997866"><ele>859.0</ele><time>2026-04-27T12:59:52.386Z</time></trkpt><trkpt lat="44.5645013" lon="15.9997066"><ele>859.0</ele><time>2026-04-27T12:59:53.386Z</time></trkpt><trkpt lat="44.5644535" lon="15.999617"><ele>859.0</ele><time>2026-04-27T12:59:54.386Z</time></trkpt><trkpt lat="44.564419" lon="15.9995275"><ele>858.9999999999999</ele><time>2026-04-27T12:59:55.386Z</time></trkpt><trkpt lat="44.5643799" lon="15.9994412"><ele>859.0</ele><time>2026-04-27T12:59:56.387Z</time></trkpt><trkpt lat="44.5643643" lon="15.9993299"><ele>856.4000000000001</ele><time>2026-04-27T12:59:57.386Z</time></trkpt><trkpt lat="44.5643132" lon="15.9992718"><ele>853.8000000000001</ele><time>2026-04-27T12:59:58.386Z</time></trkpt><trkpt lat="44.5642198" lon="15.999232"><ele>851.2</ele><time>2026-04-27T13:00:00.386Z</time></trkpt><trkpt lat="44.5641034" lon="15.9993119"><ele>848.5999999999999</ele><time>2026-04-27T13:00:02.386Z</time></trkpt><trkpt lat="44.5640484" lon="15.9993638"><ele>846.0</ele><time>2026-04-27T13:00:03.386Z</time></trkpt><trkpt lat="44.5640145" lon="15.9995435"><ele>846.0</ele><time>2026-04-27T13:00:04.384Z</time></trkpt><trkpt lat="44.5639756" lon="15.9996794"><ele>846.0</ele><time>2026-04-27T13:00:05.386Z</time></trkpt><trkpt lat="44.5639604" lon="15.999809"><ele>846.0</ele><time>2026-04-27T13:00:06.386Z</time></trkpt><trkpt lat="44.5639193" lon="15.9999876"><ele>846.0</ele><time>2026-04-27T13:00:07.386Z</time></trkpt><trkpt lat="44.5638972" lon="16.0001433"><ele>846.0</ele><time>2026-04-27T13:00:08.387Z</time></trkpt><trkpt lat="44.5639092" lon="16.0003367"><ele>846.0</ele><time>2026-04-27T13:00:09.386Z</time></trkpt><trkpt lat="44.5638965" lon="16.0005135"><ele>846.0</ele><time>2026-04-27T13:00:10.387Z</time></trkpt><trkpt lat="44.5639027" lon="16.0007109"><ele>846.0</ele><time>2026-04-27T13:00:11.387Z</time></trkpt><trkpt lat="44.5638723" lon="16.0009639"><ele>840.6666666666667</ele><time>2026-04-27T13:00:12.386Z</time></trkpt><trkpt lat="44.563879" lon="16.0011898"><ele>835.3333333333334</ele><time>2026-04-27T13:00:13.387Z</time></trkpt><trkpt lat="44.563897" lon="16.0014176"><ele>830.0</ele><time>2026-04-27T13:00:14.386Z</time></trkpt><trkpt lat="44.5639128" lon="16.0015928"><ele>829.4</ele><time>2026-04-27T13:00:15.386Z</time></trkpt><trkpt lat="44.5639228" lon="16.0017268"><ele>828.8</ele><time>2026-04-27T13:00:16.387Z</time></trkpt><trkpt lat="44.5639252" lon="16.0018485"><ele>828.2</ele><time>2026-04-27T13:00:17.386Z</time></trkpt><trkpt lat="44.5639208" lon="16.0019413"><ele>827.6</ele><time>2026-04-27T13:00:18.386Z</time></trkpt><trkpt lat="44.5638371" lon="16.0020452"><ele>827.0</ele><time>2026-04-27T13:00:20.387Z</time></trkpt><trkpt lat="44.563697" lon="16.0021061"><ele>831.8</ele><time>2026-04-27T13:00:22.386Z</time></trkpt><trkpt lat="44.5635837" lon="16.0021041"><ele>836.6</ele><time>2026-04-27T13:00:23.386Z</time></trkpt><trkpt lat="44.5634842" lon="16.0021099"><ele>841.4</ele><time>2026-04-27T13:00:24.386Z</time></trkpt><trkpt lat="44.5633892" lon="16.0020999"><ele>846.1999999999999</ele><time>2026-04-27T13:00:25.386Z</time></trkpt><trkpt lat="44.5632893" lon="16.0020401"><ele>851.0</ele><time>2026-04-27T13:00:26.384Z</time></trkpt><trkpt lat="44.5631956" lon="16.0019786"><ele>851.0</ele><time>2026-04-27T13:00:27.386Z</time></trkpt><trkpt lat="44.5631106" lon="16.0019421"><ele>851.0</ele><time>2026-04-27T13:00:28.386Z</time></trkpt><trkpt lat="44.5630394" lon="16.0019289"><ele>851.0</ele><time>2026-04-27T13:00:29.387Z</time></trkpt><trkpt lat="44.5629319" lon="16.0019943"><ele>851.0</ele><time>2026-04-27T13:00:31.386Z</time></trkpt><trkpt lat="44.5628642" lon="16.0021126"><ele>851.0</ele><time>2026-04-27T13:00:33.386Z</time></trkpt><trkpt lat="44.5628555" lon="16.0022224"><ele>852.1999999999999</ele><time>2026-04-27T13:00:34.386Z</time></trkpt><trkpt lat="44.562838" lon="16.0023342"><ele>853.4</ele><time>2026-04-27T13:00:35.387Z</time></trkpt><trkpt lat="44.5627899" lon="16.0024538"><ele>854.6</ele><time>2026-04-27T13:00:36.386Z</time></trkpt><trkpt lat="44.5627527" lon="16.0025983"><ele>855.8</ele><time>2026-04-27T13:00:37.386Z</time></trkpt><trkpt lat="44.5627274" lon="16.0027389"><ele>857.0</ele><time>2026-04-27T13:00:38.387Z</time></trkpt><trkpt lat="44.5627246" lon="16.0029325"><ele>857.0</ele><time>2026-04-27T13:00:39.387Z</time></trkpt><trkpt lat="44.5627219" lon="16.0031364"><ele>857.0</ele><time>2026-04-27T13:00:40.386Z</time></trkpt><trkpt lat="44.5627158" lon="16.0032928"><ele>857.0</ele><time>2026-04-27T13:00:41.386Z</time></trkpt><trkpt lat="44.5627" lon="16.0034021"><ele>857.0</ele><time>2026-04-27T13:00:42.386Z</time></trkpt><trkpt lat="44.5626779" lon="16.0035067"><ele>857.0</ele><time>2026-04-27T13:00:43.386Z</time></trkpt><trkpt lat="44.562609" lon="16.003551"><ele>854.4000000000001</ele><time>2026-04-27T13:00:44.386Z</time></trkpt><trkpt lat="44.5625429" lon="16.0035947"><ele>851.8000000000001</ele><time>2026-04-27T13:00:45.386Z</time></trkpt><trkpt lat="44.5624552" lon="16.0036402"><ele>849.2</ele><time>2026-04-27T13:00:46.387Z</time></trkpt><trkpt lat="44.5623548" lon="16.0036879"><ele>846.6</ele><time>2026-04-27T13:00:47.386Z</time></trkpt><trkpt lat="44.5622142" lon="16.0037435"><ele>844.0</ele><time>2026-04-27T13:00:48.387Z</time></trkpt><trkpt lat="44.5620845" lon="16.0037978"><ele>846.75</ele><time>2026-04-27T13:00:49.387Z</time></trkpt><trkpt lat="44.5619672" lon="16.0038215"><ele>849.5</ele><time>2026-04-27T13:00:50.386Z</time></trkpt><trkpt lat="44.5618309" lon="16.0038311"><ele>852.25</ele><time>2026-04-27T13:00:51.387Z</time></trkpt><trkpt lat="44.5616738" lon="16.0038419"><ele>855.0</ele><time>2026-04-27T13:00:52.386Z</time></trkpt><trkpt lat="44.5615358" lon="16.0038349"><ele>855.0</ele><time>2026-04-27T13:00:53.386Z</time></trkpt><trkpt lat="44.561408" lon="16.0038399"><ele>855.0</ele><time>2026-04-27T13:00:54.387Z</time></trkpt><trkpt lat="44.5613062" lon="16.0038269"><ele>855.0</ele><time>2026-04-27T13:00:55.386Z</time></trkpt><trkpt lat="44.5611895" lon="16.003807"><ele>855.0</ele><time>2026-04-27T13:00:56.386Z</time></trkpt><trkpt lat="44.5610695" lon="16.0037686"><ele>854.75</ele><time>2026-04-27T13:00:57.386Z</time></trkpt><trkpt lat="44.5609311" lon="16.0036945"><ele>854.5</ele><time>2026-04-27T13:00:58.387Z</time></trkpt><trkpt lat="44.5608076" lon="16.0036232"><ele>854.25</ele><time>2026-04-27T13:00:59.386Z</time></trkpt><trkpt lat="44.5606893" lon="16.0035484"><ele>854.0</ele><time>2026-04-27T13:01:00.387Z</time></trkpt><trkpt lat="44.5605706" lon="16.0034672"><ele>854.0</ele><time>2026-04-27T13:01:01.386Z</time></trkpt><trkpt lat="44.5604736" lon="16.0033923"><ele>854.0000000000001</ele><time>2026-04-27T13:01:02.386Z</time></trkpt><trkpt lat="44.5603793" lon="16.0033255"><ele>854.0000000000001</ele><time>2026-04-27T13:01:03.386Z</time></trkpt><trkpt lat="44.5602974" lon="16.003239"><ele>854.0</ele><time>2026-04-27T13:01:04.386Z</time></trkpt><trkpt lat="44.5602316" lon="16.0031647"><ele>854.0</ele><time>2026-04-27T13:01:05.386Z</time></trkpt><trkpt lat="44.5601644" lon="16.003121"><ele>856.3333333333334</ele><time>2026-04-27T13:01:06.386Z</time></trkpt><trkpt lat="44.5601012" lon="16.0030821"><ele>858.6666666666667</ele><time>2026-04-27T13:01:07.386Z</time></trkpt><trkpt lat="44.5599647" lon="16.0031401"><ele>861.0</ele><time>2026-04-27T13:01:09.386Z</time></trkpt><trkpt lat="44.5599015" lon="16.0031416"><ele>863.3333333333333</ele><time>2026-04-27T13:01:10.386Z</time></trkpt><trkpt lat="44.5598448" lon="16.0031003"><ele>865.6666666666666</ele><time>2026-04-27T13:01:11.386Z</time></trkpt><trkpt lat="44.5597903" lon="16.0030323"><ele>868.0</ele><time>2026-04-27T13:01:12.386Z</time></trkpt><trkpt lat="44.5597223" lon="16.0029189"><ele>867.9999999999999</ele><time>2026-04-27T13:01:13.386Z</time></trkpt><trkpt lat="44.5596489" lon="16.0028451"><ele>868.0</ele><time>2026-04-27T13:01:14.386Z</time></trkpt><trkpt lat="44.5595838" lon="16.0027829"><ele>868.0</ele><time>2026-04-27T13:01:15.386Z</time></trkpt><trkpt lat="44.5595175" lon="16.0027588"><ele>868.0</ele><time>2026-04-27T13:01:16.386Z</time></trkpt><trkpt lat="44.5594507" lon="16.0027402"><ele>867.9999999999999</ele><time>2026-04-27T13:01:17.386Z</time></trkpt><trkpt lat="44.5593698" lon="16.0027338"><ele>868.0</ele><time>2026-04-27T13:01:18.386Z</time></trkpt><trkpt lat="44.5592919" lon="16.0027547"><ele>866.4</ele><time>2026-04-27T13:01:19.386Z</time></trkpt><trkpt lat="44.5592163" lon="16.0026913"><ele>864.8</ele><time>2026-04-27T13:01:21.386Z</time></trkpt><trkpt lat="44.5591519" lon="16.0026397"><ele>863.2</ele><time>2026-04-27T13:01:22.387Z</time></trkpt><trkpt lat="44.5590853" lon="16.0026043"><ele>861.6</ele><time>2026-04-27T13:01:23.386Z</time></trkpt><trkpt lat="44.5589609" lon="16.0025693"><ele>860.0</ele><time>2026-04-27T13:01:25.386Z</time></trkpt><trkpt lat="44.5588559" lon="16.0026703"><ele>860.0</ele><time>2026-04-27T13:01:27.387Z</time></trkpt><trkpt lat="44.5588186" lon="16.0028307"><ele>860.0</ele><time>2026-04-27T13:01:28.386Z</time></trkpt><trkpt lat="44.5587798" lon="16.002953"><ele>860.0</ele><time>2026-04-27T13:01:29.386Z</time></trkpt><trkpt lat="44.5587596" lon="16.0030472"><ele>860.0</ele><time>2026-04-27T13:01:30.386Z</time></trkpt><trkpt lat="44.5586937" lon="16.003141"><ele>860.0</ele><time>2026-04-27T13:01:32.387Z</time></trkpt><trkpt lat="44.5586177" lon="16.0031554"><ele>858.1666666666667</ele><time>2026-04-27T13:01:33.386Z</time></trkpt><trkpt lat="44.5585303" lon="16.0031462"><ele>856.3333333333334</ele><time>2026-04-27T13:01:34.386Z</time></trkpt><trkpt lat="44.5584469" lon="16.0031465"><ele>854.5</ele><time>2026-04-27T13:01:35.387Z</time></trkpt><trkpt lat="44.558384" lon="16.0031747"><ele>852.6666666666667</ele><time>2026-04-27T13:01:36.386Z</time></trkpt><trkpt lat="44.5583192" lon="16.0033175"><ele>850.8333333333334</ele><time>2026-04-27T13:01:38.386Z</time></trkpt><trkpt lat="44.5582954" lon="16.0034155"><ele>849.0</ele><time>2026-04-27T13:01:39.386Z</time></trkpt><trkpt lat="44.5582966" lon="16.0035327"><ele>849.0</ele><time>2026-04-27T13:01:40.386Z</time></trkpt><trkpt lat="44.5583713" lon="16.0037108"><ele>849.0</ele><time>2026-04-27T13:01:41.387Z</time></trkpt><trkpt lat="44.5583856" lon="16.0038199"><ele>849.0</ele><time>2026-04-27T13:01:42.386Z</time></trkpt><trkpt lat="44.5583584" lon="16.0039168"><ele>849.0</ele><time>2026-04-27T13:01:44.386Z</time></trkpt><trkpt lat="44.5582689" lon="16.0039623"><ele>849.0</ele><time>2026-04-27T13:01:46.387Z</time></trkpt><trkpt lat="44.5582021" lon="16.0039671"><ele>849.0</ele><time>2026-04-27T13:01:47.387Z</time></trkpt><trkpt lat="44.5581277" lon="16.0039815"><ele>849.0</ele><time>2026-04-27T13:01:48.387Z</time></trkpt><trkpt lat="44.558073" lon="16.0041182"><ele>849.0</ele><time>2026-04-27T13:01:50.386Z</time></trkpt><trkpt lat="44.5580364" lon="16.0041973"><ele>849.0</ele><time>2026-04-27T13:01:51.386Z</time></trkpt><trkpt lat="44.5579925" lon="16.0043038"><ele>849.0</ele><time>2026-04-27T13:01:53.386Z</time></trkpt><trkpt lat="44.5578908" lon="16.0043284"><ele>849.0</ele><time>2026-04-27T13:01:55.386Z</time></trkpt><trkpt lat="44.557819" lon="16.0043511"><ele>850.1666666666666</ele><time>2026-04-27T13:01:56.386Z</time></trkpt><trkpt lat="44.5577435" lon="16.0043788"><ele>851.3333333333333</ele><time>2026-04-27T13:01:57.386Z</time></trkpt><trkpt lat="44.5576981" lon="16.0044417"><ele>852.5</ele><time>2026-04-27T13:01:58.387Z</time></trkpt><trkpt lat="44.5576527" lon="16.0046012"><ele>853.6666666666666</ele><time>2026-04-27T13:02:00.386Z</time></trkpt><trkpt lat="44.5576456" lon="16.0046969"><ele>854.8333333333333</ele><time>2026-04-27T13:02:01.386Z</time></trkpt><trkpt lat="44.5576668" lon="16.0047814"><ele>856.0</ele><time>2026-04-27T13:02:02.386Z</time></trkpt><trkpt lat="44.5576985" lon="16.0049473"><ele>854.75</ele><time>2026-04-27T13:02:03.386Z</time></trkpt><trkpt lat="44.5577792" lon="16.0051622"><ele>853.5</ele><time>2026-04-27T13:02:04.387Z</time></trkpt><trkpt lat="44.5578161" lon="16.0053345"><ele>852.25</ele><time>2026-04-27T13:02:05.386Z</time></trkpt><trkpt lat="44.5578584" lon="16.0055139"><ele>851.0</ele><time>2026-04-27T13:02:06.386Z</time></trkpt><trkpt lat="44.55792" lon="16.0056658"><ele>849.0</ele><time>2026-04-27T13:02:07.386Z</time></trkpt><trkpt lat="44.5579271" lon="16.0058083"><ele>847.0</ele><time>2026-04-27T13:02:08.387Z</time></trkpt><trkpt lat="44.5579252" lon="16.0059075"><ele>845.0</ele><time>2026-04-27T13:02:09.386Z</time></trkpt><trkpt lat="44.5578681" lon="16.0060529"><ele>843.0</ele><time>2026-04-27T13:02:11.387Z</time></trkpt><trkpt lat="44.5578098" lon="16.0061355"><ele>841.0</ele><time>2026-04-27T13:02:12.386Z</time></trkpt><trkpt lat="44.5577183" lon="16.0062101"><ele>841.0</ele><time>2026-04-27T13:02:13.387Z</time></trkpt><trkpt lat="44.5576111" lon="16.006297"><ele>841.0</ele><time>2026-04-27T13:02:14.386Z</time></trkpt><trkpt lat="44.5575043" lon="16.0063805"><ele>841.0</ele><time>2026-04-27T13:02:15.386Z</time></trkpt><trkpt lat="44.5574248" lon="16.006471"><ele>841.0</ele><time>2026-04-27T13:02:16.387Z</time></trkpt><trkpt lat="44.5573342" lon="16.006558"><ele>840.9999999999999</ele><time>2026-04-27T13:02:17.386Z</time></trkpt><trkpt lat="44.5572531" lon="16.0066208"><ele>841.0</ele><time>2026-04-27T13:02:18.387Z</time></trkpt><trkpt lat="44.557178" lon="16.0066721"><ele>841.0</ele><time>2026-04-27T13:02:19.386Z</time></trkpt><trkpt lat="44.5571031" lon="16.0067296"><ele>841.0</ele><time>2026-04-27T13:02:20.387Z</time></trkpt><trkpt lat="44.5570322" lon="16.0067652"><ele>840.9999999999999</ele><time>2026-04-27T13:02:21.387Z</time></trkpt><trkpt lat="44.5570039" lon="16.0069026"><ele>841.0</ele><time>2026-04-27T13:02:23.385Z</time></trkpt><trkpt lat="44.5570044" lon="16.0070129"><ele>842.8</ele><time>2026-04-27T13:02:24.386Z</time></trkpt><trkpt lat="44.557022" lon="16.0071252"><ele>844.5999999999999</ele><time>2026-04-27T13:02:25.383Z</time></trkpt><trkpt lat="44.5570436" lon="16.0072112"><ele>846.4</ele><time>2026-04-27T13:02:26.386Z</time></trkpt><trkpt lat="44.5570934" lon="16.0073029"><ele>848.2</ele><time>2026-04-27T13:02:27.386Z</time></trkpt><trkpt lat="44.5571948" lon="16.0073443"><ele>850.0</ele><time>2026-04-27T13:02:28.386Z</time></trkpt><trkpt lat="44.5573353" lon="16.0074338"><ele>843.5</ele><time>2026-04-27T13:02:29.386Z</time></trkpt><trkpt lat="44.5574561" lon="16.0075207"><ele>837.0</ele><time>2026-04-27T13:02:30.386Z</time></trkpt><trkpt lat="44.5575845" lon="16.0076151"><ele>830.5</ele><time>2026-04-27T13:02:31.386Z</time></trkpt><trkpt lat="44.5576931" lon="16.0077133"><ele>824.0</ele><time>2026-04-27T13:02:32.387Z</time></trkpt><trkpt lat="44.5577849" lon="16.0078271"><ele>824.0</ele><time>2026-04-27T13:02:33.386Z</time></trkpt><trkpt lat="44.5578516" lon="16.007936"><ele>824.0</ele><time>2026-04-27T13:02:34.386Z</time></trkpt><trkpt lat="44.5578848" lon="16.0080292"><ele>824.0</ele><time>2026-04-27T13:02:35.386Z</time></trkpt><trkpt lat="44.5579132" lon="16.0081225"><ele>824.0</ele><time>2026-04-27T13:02:36.386Z</time></trkpt><trkpt lat="44.5579144" lon="16.0083015"><ele>824.0</ele><time>2026-04-27T13:02:38.386Z</time></trkpt><trkpt lat="44.5578254" lon="16.0084105"><ele>825.0</ele><time>2026-04-27T13:02:40.386Z</time></trkpt><trkpt lat="44.5577279" lon="16.0084712"><ele>826.0</ele><time>2026-04-27T13:02:41.386Z</time></trkpt><trkpt lat="44.5576549" lon="16.0085238"><ele>827.0</ele><time>2026-04-27T13:02:42.386Z</time></trkpt><trkpt lat="44.5576126" lon="16.0085922"><ele>828.0</ele><time>2026-04-27T13:02:43.386Z</time></trkpt><trkpt lat="44.5575814" lon="16.0087581"><ele>829.0</ele><time>2026-04-27T13:02:45.386Z</time></trkpt><trkpt lat="44.5576027" lon="16.0088885"><ele>829.0</ele><time>2026-04-27T13:02:46.386Z</time></trkpt><trkpt lat="44.5576094" lon="16.0090226"><ele>829.0</ele><time>2026-04-27T13:02:47.387Z</time></trkpt><trkpt lat="44.5576078" lon="16.0092752"><ele>829.0</ele><time>2026-04-27T13:02:48.387Z</time></trkpt><trkpt lat="44.5575791" lon="16.0094749"><ele>829.0</ele><time>2026-04-27T13:02:49.386Z</time></trkpt><trkpt lat="44.5575674" lon="16.0096505"><ele>828.2</ele><time>2026-04-27T13:02:50.387Z</time></trkpt><trkpt lat="44.5575522" lon="16.0097852"><ele>827.4000000000001</ele><time>2026-04-27T13:02:51.386Z</time></trkpt><trkpt lat="44.5575369" lon="16.0098901"><ele>826.6</ele><time>2026-04-27T13:02:52.386Z</time></trkpt><trkpt lat="44.5574982" lon="16.0100167"><ele>825.8</ele><time>2026-04-27T13:02:53.386Z</time></trkpt><trkpt lat="44.5574693" lon="16.0101291"><ele>825.0</ele><time>2026-04-27T13:02:54.386Z</time></trkpt><trkpt lat="44.5573431" lon="16.0102434"><ele>821.75</ele><time>2026-04-27T13:02:55.386Z</time></trkpt><trkpt lat="44.5572337" lon="16.0103713"><ele>818.5</ele><time>2026-04-27T13:02:56.386Z</time></trkpt><trkpt lat="44.5571325" lon="16.0104783"><ele>815.25</ele><time>2026-04-27T13:02:57.387Z</time></trkpt><trkpt lat="44.5570451" lon="16.0105648"><ele>812.0</ele><time>2026-04-27T13:02:58.387Z</time></trkpt><trkpt lat="44.5569603" lon="16.0106655"><ele>813.4000000000001</ele><time>2026-04-27T13:02:59.386Z</time></trkpt><trkpt lat="44.5568744" lon="16.010787"><ele>814.8000000000001</ele><time>2026-04-27T13:03:01.382Z</time></trkpt><trkpt lat="44.5568343" lon="16.0109123"><ele>816.2</ele><time>2026-04-27T13:03:02.387Z</time></trkpt><trkpt lat="44.5568137" lon="16.0110549"><ele>817.6</ele><time>2026-04-27T13:03:03.387Z</time></trkpt><trkpt lat="44.5567733" lon="16.0111956"><ele>819.0</ele><time>2026-04-27T13:03:04.386Z</time></trkpt><trkpt lat="44.5566983" lon="16.0113432"><ele>819.0</ele><time>2026-04-27T13:03:05.386Z</time></trkpt><trkpt lat="44.5566127" lon="16.0115053"><ele>819.0</ele><time>2026-04-27T13:03:06.387Z</time></trkpt><trkpt lat="44.5565454" lon="16.0116238"><ele>819.0</ele><time>2026-04-27T13:03:07.387Z</time></trkpt><trkpt lat="44.5564552" lon="16.0117189"><ele>819.0</ele><time>2026-04-27T13:03:08.387Z</time></trkpt><trkpt lat="44.5563555" lon="16.0118042"><ele>814.25</ele><time>2026-04-27T13:03:09.386Z</time></trkpt><trkpt lat="44.5562524" lon="16.0118797"><ele>809.5</ele><time>2026-04-27T13:03:10.386Z</time></trkpt><trkpt lat="44.5561066" lon="16.0119508"><ele>804.75</ele><time>2026-04-27T13:03:11.386Z</time></trkpt><trkpt lat="44.5559417" lon="16.0120002"><ele>800.0</ele><time>2026-04-27T13:03:12.386Z</time></trkpt><trkpt lat="44.5557958" lon="16.0120672"><ele>800.0</ele><time>2026-04-27T13:03:13.386Z</time></trkpt><trkpt lat="44.5556733" lon="16.0121193"><ele>800.0</ele><time>2026-04-27T13:03:14.386Z</time></trkpt><trkpt lat="44.5555706" lon="16.0121533"><ele>800.0</ele><time>2026-04-27T13:03:15.386Z</time></trkpt><trkpt lat="44.5554893" lon="16.0121728"><ele>800.0</ele><time>2026-04-27T13:03:16.387Z</time></trkpt><trkpt lat="44.5554249" lon="16.0121485"><ele>800.0</ele><time>2026-04-27T13:03:17.386Z</time></trkpt><trkpt lat="44.5553612" lon="16.0121073"><ele>798.5</ele><time>2026-04-27T13:03:18.386Z</time></trkpt><trkpt lat="44.555284" lon="16.0120264"><ele>797.0</ele><time>2026-04-27T13:03:19.386Z</time></trkpt><trkpt lat="44.5551868" lon="16.0119009"><ele>795.5</ele><time>2026-04-27T13:03:20.386Z</time></trkpt><trkpt lat="44.5550849" lon="16.0117849"><ele>794.0</ele><time>2026-04-27T13:03:21.386Z</time></trkpt><trkpt lat="44.5549918" lon="16.0116841"><ele>799.75</ele><time>2026-04-27T13:03:22.386Z</time></trkpt><trkpt lat="44.5548989" lon="16.0116056"><ele>805.5</ele><time>2026-04-27T13:03:23.387Z</time></trkpt><trkpt lat="44.5547872" lon="16.0115488"><ele>811.25</ele><time>2026-04-27T13:03:24.387Z</time></trkpt><trkpt lat="44.55467" lon="16.0114832"><ele>817.0</ele><time>2026-04-27T13:03:25.386Z</time></trkpt><trkpt lat="44.5545589" lon="16.0114418"><ele>817.4000000000001</ele><time>2026-04-27T13:03:26.387Z</time></trkpt><trkpt lat="44.5544661" lon="16.0114294"><ele>817.8000000000001</ele><time>2026-04-27T13:03:27.386Z</time></trkpt><trkpt lat="44.554372" lon="16.0114452"><ele>818.2</ele><time>2026-04-27T13:03:28.386Z</time></trkpt><trkpt lat="44.5542886" lon="16.011452"><ele>818.6</ele><time>2026-04-27T13:03:29.381Z</time></trkpt><trkpt lat="44.5542502" lon="16.0115308"><ele>819.0</ele><time>2026-04-27T13:03:31.386Z</time></trkpt><trkpt lat="44.5542631" lon="16.0116903"><ele>814.6666666666667</ele><time>2026-04-27T13:03:33.386Z</time></trkpt><trkpt lat="44.5542122" lon="16.0118314"><ele>810.3333333333334</ele><time>2026-04-27T13:03:34.386Z</time></trkpt><trkpt lat="44.5543646" lon="16.0121295"><ele>806.0</ele><time>2026-04-27T13:03:35.386Z</time></trkpt><trkpt lat="44.5544028" lon="16.0122915"><ele>806.0</ele><time>2026-04-27T13:03:36.386Z</time></trkpt><trkpt lat="44.5544553" lon="16.0124535"><ele>806.0</ele><time>2026-04-27T13:03:37.38Z</time></trkpt><trkpt lat="44.5544837" lon="16.0125922"><ele>806.0</ele><time>2026-04-27T13:03:38.386Z</time></trkpt><trkpt lat="44.5545378" lon="16.0127679"><ele>806.0</ele><time>2026-04-27T13:03:39.386Z</time></trkpt><trkpt lat="44.5545676" lon="16.0129376"><ele>805.8</ele><time>2026-04-27T13:03:40.386Z</time></trkpt><trkpt lat="44.5545462" lon="16.0130917"><ele>805.5999999999999</ele><time>2026-04-27T13:03:41.386Z</time></trkpt><trkpt lat="44.5545508" lon="16.0132039"><ele>805.4</ele><time>2026-04-27T13:03:42.387Z</time></trkpt><trkpt lat="44.5545318" lon="16.0133091"><ele>805.2</ele><time>2026-04-27T13:03:43.386Z</time></trkpt><trkpt lat="44.5544857" lon="16.0134506"><ele>805.0</ele><time>2026-04-27T13:03:45.386Z</time></trkpt><trkpt lat="44.5544218" lon="16.0135489"><ele>801.75</ele><time>2026-04-27T13:03:46.386Z</time></trkpt><trkpt lat="44.5543699" lon="16.0136375"><ele>798.5</ele><time>2026-04-27T13:03:47.386Z</time></trkpt><trkpt lat="44.5542511" lon="16.0137419"><ele>795.25</ele><time>2026-04-27T13:03:48.386Z</time></trkpt><trkpt lat="44.5541282" lon="16.0138499"><ele>792.0</ele><time>2026-04-27T13:03:49.386Z</time></trkpt><trkpt lat="44.5540061" lon="16.0139419"><ele>792.0</ele><time>2026-04-27T13:03:50.386Z</time></trkpt><trkpt lat="44.553894" lon="16.0140349"><ele>792.0</ele><time>2026-04-27T13:03:51.387Z</time></trkpt><trkpt lat="44.5538102" lon="16.0140502"><ele>792.0</ele><time>2026-04-27T13:03:52.387Z</time></trkpt><trkpt lat="44.5537027" lon="16.0141048"><ele>792.0</ele><time>2026-04-27T13:03:53.386Z</time></trkpt><trkpt lat="44.5535986" lon="16.0141439"><ele>792.0</ele><time>2026-04-27T13:03:54.387Z</time></trkpt><trkpt lat="44.5535348" lon="16.0141666"><ele>791.8</ele><time>2026-04-27T13:03:55.386Z</time></trkpt><trkpt lat="44.5535008" lon="16.014253"><ele>791.6</ele><time>2026-04-27T13:03:56.387Z</time></trkpt><trkpt lat="44.5534565" lon="16.01434"><ele>791.4</ele><time>2026-04-27T13:03:57.386Z</time></trkpt><trkpt lat="44.5534328" lon="16.0144644"><ele>791.1999999999999</ele><time>2026-04-27T13:03:58.386Z</time></trkpt><trkpt lat="44.5533795" lon="16.0146336"><ele>791.0</ele><time>2026-04-27T13:03:59.386Z</time></trkpt><trkpt lat="44.5533096" lon="16.0148769"><ele>788.75</ele><time>2026-04-27T13:04:00.387Z</time></trkpt><trkpt lat="44.5532884" lon="16.0150464"><ele>786.5</ele><time>2026-04-27T13:04:01.387Z</time></trkpt><trkpt lat="44.553248" lon="16.0152171"><ele>784.25</ele><time>2026-04-27T13:04:02.387Z</time></trkpt><trkpt lat="44.5532385" lon="16.0153844"><ele>782.0</ele><time>2026-04-27T13:04:03.385Z</time></trkpt><trkpt lat="44.5532311" lon="16.0155436"><ele>782.0</ele><time>2026-04-27T13:04:04.386Z</time></trkpt><trkpt lat="44.5532242" lon="16.0157387"><ele>782.0</ele><time>2026-04-27T13:04:05.386Z</time></trkpt><trkpt lat="44.5533205" lon="16.0158921"><ele>782.0</ele><time>2026-04-27T13:04:06.386Z</time></trkpt><trkpt lat="44.5533854" lon="16.0160751"><ele>782.0</ele><time>2026-04-27T13:04:07.386Z</time></trkpt><trkpt lat="44.5534784" lon="16.0162578"><ele>781.6</ele><time>2026-04-27T13:04:08.387Z</time></trkpt><trkpt lat="44.5535392" lon="16.016363"><ele>781.2</ele><time>2026-04-27T13:04:09.386Z</time></trkpt><trkpt lat="44.5535474" lon="16.0164586"><ele>780.8</ele><time>2026-04-27T13:04:10.386Z</time></trkpt><trkpt lat="44.5534295" lon="16.0165543"><ele>780.4</ele><time>2026-04-27T13:04:11.387Z</time></trkpt><trkpt lat="44.5533933" lon="16.0167134"><ele>780.0</ele><time>2026-04-27T13:04:12.386Z</time></trkpt><trkpt lat="44.553384" lon="16.0168542"><ele>779.2</ele><time>2026-04-27T13:04:13.386Z</time></trkpt><trkpt lat="44.5533745" lon="16.0170091"><ele>778.4</ele><time>2026-04-27T13:04:14.386Z</time></trkpt><trkpt lat="44.5533575" lon="16.0171545"><ele>777.5999999999999</ele><time>2026-04-27T13:04:15.386Z</time></trkpt><trkpt lat="44.5533483" lon="16.0172638"><ele>776.8</ele><time>2026-04-27T13:04:16.386Z</time></trkpt><trkpt lat="44.5533539" lon="16.0173831"><ele>776.0</ele><time>2026-04-27T13:04:17.386Z</time></trkpt><trkpt lat="44.5533206" lon="16.0174782"><ele>774.3333333333334</ele><time>2026-04-27T13:04:18.386Z</time></trkpt><trkpt lat="44.5532749" lon="16.0175606"><ele>772.6666666666667</ele><time>2026-04-27T13:04:19.387Z</time></trkpt><trkpt lat="44.5532302" lon="16.0176488"><ele>771.0</ele><time>2026-04-27T13:04:20.387Z</time></trkpt><trkpt lat="44.553173" lon="16.0177277"><ele>769.3333333333334</ele><time>2026-04-27T13:04:21.386Z</time></trkpt><trkpt lat="44.5531193" lon="16.0178187"><ele>767.6666666666667</ele><time>2026-04-27T13:04:22.386Z</time></trkpt><trkpt lat="44.5530833" lon="16.0179522"><ele>766.0</ele><time>2026-04-27T13:04:23.386Z</time></trkpt><trkpt lat="44.5530749" lon="16.018112"><ele>766.0</ele><time>2026-04-27T13:04:24.387Z</time></trkpt><trkpt lat="44.5530563" lon="16.0182687"><ele>766.0</ele><time>2026-04-27T13:04:25.387Z</time></trkpt><trkpt lat="44.5530477" lon="16.0184066"><ele>766.0</ele><time>2026-04-27T13:04:26.386Z</time></trkpt><trkpt lat="44.5530593" lon="16.0185046"><ele>766.0</ele><time>2026-04-27T13:04:27.386Z</time></trkpt><trkpt lat="44.5530943" lon="16.0185962"><ele>766.0</ele><time>2026-04-27T13:04:28.387Z</time></trkpt><trkpt lat="44.5531475" lon="16.0186603"><ele>766.0</ele><time>2026-04-27T13:04:29.386Z</time></trkpt><trkpt lat="44.5532307" lon="16.0187259"><ele>764.4</ele><time>2026-04-27T13:04:30.387Z</time></trkpt><trkpt lat="44.5533107" lon="16.0187927"><ele>762.8</ele><time>2026-04-27T13:04:31.387Z</time></trkpt><trkpt lat="44.5534089" lon="16.0188754"><ele>761.1999999999999</ele><time>2026-04-27T13:04:32.387Z</time></trkpt><trkpt lat="44.553492" lon="16.0189849"><ele>759.5999999999999</ele><time>2026-04-27T13:04:33.386Z</time></trkpt><trkpt lat="44.5535678" lon="16.0191284"><ele>758.0</ele><time>2026-04-27T13:04:34.386Z</time></trkpt><trkpt lat="44.5536749" lon="16.0192739"><ele>754.8</ele><time>2026-04-27T13:04:35.386Z</time></trkpt><trkpt lat="44.5537454" lon="16.0193984"><ele>751.5999999999999</ele><time>2026-04-27T13:04:36.386Z</time></trkpt><trkpt lat="44.5538283" lon="16.0195178"><ele>748.4000000000001</ele><time>2026-04-27T13:04:37.386Z</time></trkpt><trkpt lat="44.553865" lon="16.0196426"><ele>745.2</ele><time>2026-04-27T13:04:38.387Z</time></trkpt><trkpt lat="44.5539039" lon="16.0197622"><ele>742.0</ele><time>2026-04-27T13:04:39.386Z</time></trkpt><trkpt lat="44.5539342" lon="16.0199346"><ele>741.2</ele><time>2026-04-27T13:04:40.386Z</time></trkpt><trkpt lat="44.5539607" lon="16.0200777"><ele>740.4000000000001</ele><time>2026-04-27T13:04:41.386Z</time></trkpt><trkpt lat="44.5539542" lon="16.020199"><ele>739.5999999999999</ele><time>2026-04-27T13:04:42.386Z</time></trkpt><trkpt lat="44.5539586" lon="16.020333"><ele>738.8</ele><time>2026-04-27T13:04:43.386Z</time></trkpt><trkpt lat="44.5539108" lon="16.020437"><ele>738.0</ele><time>2026-04-27T13:04:44.386Z</time></trkpt><trkpt lat="44.5538688" lon="16.0205334"><ele>738.0</ele><time>2026-04-27T13:04:45.386Z</time></trkpt><trkpt lat="44.5537887" lon="16.020604"><ele>738.0</ele><time>2026-04-27T13:04:46.387Z</time></trkpt><trkpt lat="44.5536893" lon="16.0206876"><ele>738.0</ele><time>2026-04-27T13:04:47.386Z</time></trkpt><trkpt lat="44.5535931" lon="16.0207669"><ele>738.0</ele><time>2026-04-27T13:04:48.386Z</time></trkpt><trkpt lat="44.5535268" lon="16.0208742"><ele>738.0</ele><time>2026-04-27T13:04:49.387Z</time></trkpt><trkpt lat="44.5534799" lon="16.02096"><ele>739.2</ele><time>2026-04-27T13:04:50.386Z</time></trkpt><trkpt lat="44.5534531" lon="16.0210597"><ele>740.4</ele><time>2026-04-27T13:04:51.386Z</time></trkpt><trkpt lat="44.553471" lon="16.0212026"><ele>741.6</ele><time>2026-04-27T13:04:52.387Z</time></trkpt><trkpt lat="44.553473" lon="16.0213483"><ele>742.8000000000001</ele><time>2026-04-27T13:04:53.386Z</time></trkpt><trkpt lat="44.5534836" lon="16.0215169"><ele>744.0</ele><time>2026-04-27T13:04:54.386Z</time></trkpt><trkpt lat="44.5534813" lon="16.0216911"><ele>744.0</ele><time>2026-04-27T13:04:55.386Z</time></trkpt><trkpt lat="44.5534546" lon="16.0218723"><ele>744.0</ele><time>2026-04-27T13:04:56.387Z</time></trkpt><trkpt lat="44.5534123" lon="16.0220618"><ele>744.0</ele><time>2026-04-27T13:04:57.386Z</time></trkpt><trkpt lat="44.5533908" lon="16.0222228"><ele>744.0</ele><time>2026-04-27T13:04:58.386Z</time></trkpt><trkpt lat="44.5533706" lon="16.0223788"><ele>744.0</ele><time>2026-04-27T13:04:59.386Z</time></trkpt><trkpt lat="44.5533789" lon="16.0224949"><ele>744.0</ele><time>2026-04-27T13:05:00.387Z</time></trkpt><trkpt lat="44.5533905" lon="16.0225852"><ele>744.0</ele><time>2026-04-27T13:05:01.386Z</time></trkpt><trkpt lat="44.5534305" lon="16.0226973"><ele>744.0</ele><time>2026-04-27T13:05:03.386Z</time></trkpt><trkpt lat="44.5534971" lon="16.0226831"><ele>744.0</ele><time>2026-04-27T13:05:05.386Z</time></trkpt><trkpt lat="44.5535657" lon="16.0226004"><ele>744.0</ele><time>2026-04-27T13:05:07.386Z</time></trkpt><trkpt lat="44.5536191" lon="16.0224763"><ele>744.0</ele><time>2026-04-27T13:05:09.387Z</time></trkpt><trkpt lat="44.5536502" lon="16.0223899"><ele>744.0</ele><time>2026-04-27T13:05:10.387Z</time></trkpt><trkpt lat="44.5536839" lon="16.022292"><ele>744.0</ele><time>2026-04-27T13:05:11.387Z</time></trkpt><trkpt lat="44.553738" lon="16.02219"><ele>744.0</ele><time>2026-04-27T13:05:12.386Z</time></trkpt><trkpt lat="44.5537886" lon="16.0220979"><ele>744.0</ele><time>2026-04-27T13:05:13.386Z</time></trkpt><trkpt lat="44.553848" lon="16.0219936"><ele>744.0</ele><time>2026-04-27T13:05:14.386Z</time></trkpt><trkpt lat="44.5538986" lon="16.0219289"><ele>739.4000000000001</ele><time>2026-04-27T13:05:15.386Z</time></trkpt><trkpt lat="44.554004" lon="16.0218424"><ele>734.8</ele><time>2026-04-27T13:05:16.386Z</time></trkpt><trkpt lat="44.5541205" lon="16.0217692"><ele>730.2</ele><time>2026-04-27T13:05:17.387Z</time></trkpt><trkpt lat="44.554194" lon="16.0217275"><ele>725.5999999999999</ele><time>2026-04-27T13:05:18.386Z</time></trkpt><trkpt lat="44.5542563" lon="16.0217133"><ele>721.0</ele><time>2026-04-27T13:05:19.386Z</time></trkpt><trkpt lat="44.5543533" lon="16.021857"><ele>721.0</ele><time>2026-04-27T13:05:23.387Z</time></trkpt><trkpt lat="44.5543405" lon="16.0219546"><ele>721.0</ele><time>2026-04-27T13:05:24.386Z</time></trkpt><trkpt lat="44.5543335" lon="16.0220769"><ele>721.0</ele><time>2026-04-27T13:05:25.386Z</time></trkpt><trkpt lat="44.5543162" lon="16.0222253"><ele>721.0</ele><time>2026-04-27T13:05:26.386Z</time></trkpt><trkpt lat="44.554254" lon="16.0223988"><ele>721.0</ele><time>2026-04-27T13:05:27.386Z</time></trkpt><trkpt lat="44.554196" lon="16.0225892"><ele>717.3333333333334</ele><time>2026-04-27T13:05:28.387Z</time></trkpt><trkpt lat="44.554129" lon="16.0227806"><ele>713.6666666666666</ele><time>2026-04-27T13:05:29.386Z</time></trkpt><trkpt lat="44.5540669" lon="16.0229737"><ele>710.0</ele><time>2026-04-27T13:05:30.386Z</time></trkpt><trkpt lat="44.5539969" lon="16.0231637"><ele>707.6</ele><time>2026-04-27T13:05:31.386Z</time></trkpt><trkpt lat="44.5539411" lon="16.0233501"><ele>705.2</ele><time>2026-04-27T13:05:32.387Z</time></trkpt><trkpt lat="44.553889" lon="16.0235431"><ele>702.8</ele><time>2026-04-27T13:05:33.386Z</time></trkpt><trkpt lat="44.5538689" lon="16.0236454"><ele>700.4</ele><time>2026-04-27T13:05:34.387Z</time></trkpt><trkpt lat="44.5538325" lon="16.0237331"><ele>698.0</ele><time>2026-04-27T13:05:35.386Z</time></trkpt><trkpt lat="44.5537388" lon="16.0238328"><ele>699.25</ele><time>2026-04-27T13:05:37.386Z</time></trkpt><trkpt lat="44.5536359" lon="16.0239351"><ele>700.5</ele><time>2026-04-27T13:05:39.386Z</time></trkpt><trkpt lat="44.5535601" lon="16.0240767"><ele>701.75</ele><time>2026-04-27T13:05:41.387Z</time></trkpt><trkpt lat="44.5535693" lon="16.024307"><ele>703.0</ele><time>2026-04-27T13:05:43.385Z</time></trkpt><trkpt lat="44.5536031" lon="16.0243955"><ele>703.0</ele><time>2026-04-27T13:05:44.386Z</time></trkpt><trkpt lat="44.5536464" lon="16.0244908"><ele>703.0</ele><time>2026-04-27T13:05:45.387Z</time></trkpt><trkpt lat="44.5536381" lon="16.0246015"><ele>703.0</ele><time>2026-04-27T13:05:46.387Z</time></trkpt><trkpt lat="44.553556" lon="16.0247362"><ele>703.0</ele><time>2026-04-27T13:05:47.387Z</time></trkpt><trkpt lat="44.553457" lon="16.0249437"><ele>699.75</ele><time>2026-04-27T13:05:48.386Z</time></trkpt><trkpt lat="44.5533655" lon="16.0251192"><ele>696.5</ele><time>2026-04-27T13:05:49.386Z</time></trkpt><trkpt lat="44.553295" lon="16.0252816"><ele>693.25</ele><time>2026-04-27T13:05:50.386Z</time></trkpt><trkpt lat="44.5532276" lon="16.0254287"><ele>690.0</ele><time>2026-04-27T13:05:51.386Z</time></trkpt><trkpt lat="44.55317" lon="16.0255361"><ele>690.0</ele><time>2026-04-27T13:05:52.386Z</time></trkpt><trkpt lat="44.5531244" lon="16.0256234"><ele>690.0</ele><time>2026-04-27T13:05:53.387Z</time></trkpt><trkpt lat="44.5531013" lon="16.0257534"><ele>690.0</ele><time>2026-04-27T13:05:55.386Z</time></trkpt><trkpt lat="44.5531651" lon="16.0258213"><ele>690.0</ele><time>2026-04-27T13:05:57.386Z</time></trkpt><trkpt lat="44.5532262" lon="16.0257771"><ele>690.0</ele><time>2026-04-27T13:05:59.387Z</time></trkpt><trkpt lat="44.5533062" lon="16.0256182"><ele>690.0</ele><time>2026-04-27T13:06:01.387Z</time></trkpt><trkpt lat="44.5533699" lon="16.0254219"><ele>690.0</ele><time>2026-04-27T13:06:02.386Z</time></trkpt><trkpt lat="44.5534347" lon="16.0252721"><ele>690.0</ele><time>2026-04-27T13:06:03.387Z</time></trkpt><trkpt lat="44.553509" lon="16.0251323"><ele>690.0</ele><time>2026-04-27T13:06:04.387Z</time></trkpt><trkpt lat="44.5535896" lon="16.0249953"><ele>689.0</ele><time>2026-04-27T13:06:05.386Z</time></trkpt><trkpt lat="44.553683" lon="16.0248588"><ele>688.0</ele><time>2026-04-27T13:06:06.387Z</time></trkpt><trkpt lat="44.5537912" lon="16.0248207"><ele>687.0</ele><time>2026-04-27T13:06:07.383Z</time></trkpt><trkpt lat="44.5539147" lon="16.0247309"><ele>686.0</ele><time>2026-04-27T13:06:08.386Z</time></trkpt><trkpt lat="44.5540314" lon="16.024639"><ele>686.0</ele><time>2026-04-27T13:06:09.386Z</time></trkpt><trkpt lat="44.554141" lon="16.0245381"><ele>686.0</ele><time>2026-04-27T13:06:10.386Z</time></trkpt><trkpt lat="44.5542716" lon="16.0244743"><ele>686.0</ele><time>2026-04-27T13:06:11.386Z</time></trkpt><trkpt lat="44.5543835" lon="16.0244032"><ele>686.0</ele><time>2026-04-27T13:06:12.386Z</time></trkpt><trkpt lat="44.5544803" lon="16.0243476"><ele>686.0</ele><time>2026-04-27T13:06:13.386Z</time></trkpt><trkpt lat="44.5545421" lon="16.024323"><ele>686.0</ele><time>2026-04-27T13:06:14.386Z</time></trkpt><trkpt lat="44.5546654" lon="16.0243565"><ele>686.0</ele><time>2026-04-27T13:06:17.387Z</time></trkpt><trkpt lat="44.5546593" lon="16.0244621"><ele>686.0</ele><time>2026-04-27T13:06:19.387Z</time></trkpt><trkpt lat="44.5545938" lon="16.0246049"><ele>686.0</ele><time>2026-04-27T13:06:21.387Z</time></trkpt><trkpt lat="44.5545152" lon="16.0247744"><ele>686.0</ele><time>2026-04-27T13:06:22.387Z</time></trkpt><trkpt lat="44.5544032" lon="16.0248867"><ele>686.0</ele><time>2026-04-27T13:06:23.386Z</time></trkpt><trkpt lat="44.5543097" lon="16.0250139"><ele>686.0</ele><time>2026-04-27T13:06:24.386Z</time></trkpt><trkpt lat="44.5542035" lon="16.0251203"><ele>686.0</ele><time>2026-04-27T13:06:25.387Z</time></trkpt><trkpt lat="44.554117" lon="16.0252361"><ele>681.75</ele><time>2026-04-27T13:06:26.387Z</time></trkpt><trkpt lat="44.5540441" lon="16.0253389"><ele>677.5</ele><time>2026-04-27T13:06:27.387Z</time></trkpt><trkpt lat="44.5539862" lon="16.0254907"><ele>673.25</ele><time>2026-04-27T13:06:28.386Z</time></trkpt><trkpt lat="44.5539247" lon="16.0256974"><ele>669.0</ele><time>2026-04-27T13:06:29.387Z</time></trkpt><trkpt lat="44.553845" lon="16.0259249"><ele>671.6666666666666</ele><time>2026-04-27T13:06:30.386Z</time></trkpt><trkpt lat="44.5537816" lon="16.0261411"><ele>674.3333333333333</ele><time>2026-04-27T13:06:31.386Z</time></trkpt><trkpt lat="44.5537447" lon="16.0263475"><ele>677.0</ele><time>2026-04-27T13:06:32.386Z</time></trkpt><trkpt lat="44.5536956" lon="16.0265197"><ele>673.5</ele><time>2026-04-27T13:06:33.386Z</time></trkpt><trkpt lat="44.5536602" lon="16.0266878"><ele>670.0</ele><time>2026-04-27T13:06:34.386Z</time></trkpt><trkpt lat="44.5536416" lon="16.0268525"><ele>666.5</ele><time>2026-04-27T13:06:35.386Z</time></trkpt><trkpt lat="44.5536301" lon="16.0270241"><ele>663.0</ele><time>2026-04-27T13:06:36.387Z</time></trkpt><trkpt lat="44.5536274" lon="16.0271884"><ele>663.0</ele><time>2026-04-27T13:06:37.386Z</time></trkpt><trkpt lat="44.5536539" lon="16.0273678"><ele>663.0</ele><time>2026-04-27T13:06:38.381Z</time></trkpt><trkpt lat="44.5536739" lon="16.0275195"><ele>663.0</ele><time>2026-04-27T13:06:39.386Z</time></trkpt><trkpt lat="44.5536792" lon="16.0276598"><ele>663.0</ele><time>2026-04-27T13:06:40.387Z</time></trkpt><trkpt lat="44.5536871" lon="16.0277578"><ele>663.0</ele><time>2026-04-27T13:06:41.386Z</time></trkpt><trkpt lat="44.5536796" lon="16.0278586"><ele>658.75</ele><time>2026-04-27T13:06:42.386Z</time></trkpt><trkpt lat="44.5536037" lon="16.0280518"><ele>654.5</ele><time>2026-04-27T13:06:44.386Z</time></trkpt><trkpt lat="44.5535269" lon="16.0281383"><ele>650.25</ele><time>2026-04-27T13:06:45.387Z</time></trkpt><trkpt lat="44.5534872" lon="16.0282145"><ele>646.0</ele><time>2026-04-27T13:06:46.386Z</time></trkpt><trkpt lat="44.5533966" lon="16.0283469"><ele>643.0</ele><time>2026-04-27T13:06:48.386Z</time></trkpt><trkpt lat="44.553304" lon="16.0284124"><ele>640.0</ele><time>2026-04-27T13:06:49.386Z</time></trkpt><trkpt lat="44.5531817" lon="16.0284734"><ele>637.0</ele><time>2026-04-27T13:06:50.387Z</time></trkpt><trkpt lat="44.5530514" lon="16.0285317"><ele>634.0</ele><time>2026-04-27T13:06:51.387Z</time></trkpt><trkpt lat="44.5529152" lon="16.0285931"><ele>634.25</ele><time>2026-04-27T13:06:52.386Z</time></trkpt><trkpt lat="44.552781" lon="16.0286388"><ele>634.5</ele><time>2026-04-27T13:06:53.387Z</time></trkpt><trkpt lat="44.552664" lon="16.0286929"><ele>634.75</ele><time>2026-04-27T13:06:54.386Z</time></trkpt><trkpt lat="44.5525544" lon="16.0287371"><ele>635.0</ele><time>2026-04-27T13:06:55.387Z</time></trkpt><trkpt lat="44.5524702" lon="16.0287754"><ele>635.0</ele><time>2026-04-27T13:06:56.386Z</time></trkpt><trkpt lat="44.5523632" lon="16.0288043"><ele>635.0</ele><time>2026-04-27T13:06:57.386Z</time></trkpt><trkpt lat="44.5522512" lon="16.0288069"><ele>635.0</ele><time>2026-04-27T13:06:58.386Z</time></trkpt><trkpt lat="44.5521443" lon="16.028816"><ele>635.0</ele><time>2026-04-27T13:06:59.386Z</time></trkpt><trkpt lat="44.5520436" lon="16.0288238"><ele>635.0</ele><time>2026-04-27T13:07:00.386Z</time></trkpt><trkpt lat="44.5519502" lon="16.0288323"><ele>633.3333333333333</ele><time>2026-04-27T13:07:01.387Z</time></trkpt><trkpt lat="44.5518533" lon="16.0288419"><ele>631.6666666666666</ele><time>2026-04-27T13:07:02.387Z</time></trkpt><trkpt lat="44.551763" lon="16.0288429"><ele>630.0</ele><time>2026-04-27T13:07:03.387Z</time></trkpt><trkpt lat="44.5516807" lon="16.0288449"><ele>628.3333333333334</ele><time>2026-04-27T13:07:04.386Z</time></trkpt><trkpt lat="44.5516033" lon="16.028833"><ele>626.6666666666667</ele><time>2026-04-27T13:07:05.386Z</time></trkpt><trkpt lat="44.5515239" lon="16.0288188"><ele>625.0</ele><time>2026-04-27T13:07:06.387Z</time></trkpt><trkpt lat="44.5514518" lon="16.0287912"><ele>625.0000000000001</ele><time>2026-04-27T13:07:07.386Z</time></trkpt><trkpt lat="44.5513902" lon="16.0287712"><ele>625.0</ele><time>2026-04-27T13:07:08.386Z</time></trkpt><trkpt lat="44.5513268" lon="16.0287319"><ele>625.0</ele><time>2026-04-27T13:07:09.385Z</time></trkpt><trkpt lat="44.5512495" lon="16.0287115"><ele>625.0</ele><time>2026-04-27T13:07:10.386Z</time></trkpt><trkpt lat="44.5511808" lon="16.0286999"><ele>625.0</ele><time>2026-04-27T13:07:11.386Z</time></trkpt><trkpt lat="44.5510976" lon="16.0286755"><ele>625.0000000000001</ele><time>2026-04-27T13:07:12.386Z</time></trkpt><trkpt lat="44.551019" lon="16.0286564"><ele>625.0</ele><time>2026-04-27T13:07:13.386Z</time></trkpt><trkpt lat="44.5509289" lon="16.0286356"><ele>623.2</ele><time>2026-04-27T13:07:14.386Z</time></trkpt><trkpt lat="44.550834" lon="16.0286012"><ele>621.4</ele><time>2026-04-27T13:07:15.386Z</time></trkpt><trkpt lat="44.5507372" lon="16.0285482"><ele>619.6</ele><time>2026-04-27T13:07:16.386Z</time></trkpt><trkpt lat="44.5506541" lon="16.0285002"><ele>617.8</ele><time>2026-04-27T13:07:17.386Z</time></trkpt><trkpt lat="44.5505723" lon="16.0284474"><ele>616.0</ele><time>2026-04-27T13:07:18.386Z</time></trkpt><trkpt lat="44.5504876" lon="16.028398"><ele>616.0</ele><time>2026-04-27T13:07:19.386Z</time></trkpt><trkpt lat="44.5503919" lon="16.028383"><ele>616.0</ele><time>2026-04-27T13:07:20.386Z</time></trkpt><trkpt lat="44.550287" lon="16.0283806"><ele>616.0</ele><time>2026-04-27T13:07:21.387Z</time></trkpt><trkpt lat="44.5501741" lon="16.0283652"><ele>616.0</ele><time>2026-04-27T13:07:22.386Z</time></trkpt><trkpt lat="44.5500562" lon="16.0283422"><ele>616.0</ele><time>2026-04-27T13:07:23.386Z</time></trkpt><trkpt lat="44.5499273" lon="16.0283094"><ele>617.0</ele><time>2026-04-27T13:07:24.386Z</time></trkpt><trkpt lat="44.5497994" lon="16.0282704"><ele>618.0</ele><time>2026-04-27T13:07:25.387Z</time></trkpt><trkpt lat="44.5496698" lon="16.0282278"><ele>619.0</ele><time>2026-04-27T13:07:26.387Z</time></trkpt><trkpt lat="44.5495385" lon="16.0281946"><ele>620.0</ele><time>2026-04-27T13:07:27.386Z</time></trkpt><trkpt lat="44.5493902" lon="16.0281676"><ele>617.75</ele><time>2026-04-27T13:07:28.387Z</time></trkpt><trkpt lat="44.5492408" lon="16.0281375"><ele>615.5</ele><time>2026-04-27T13:07:29.386Z</time></trkpt><trkpt lat="44.5491152" lon="16.0281064"><ele>613.25</ele><time>2026-04-27T13:07:30.387Z</time></trkpt><trkpt lat="44.5490024" lon="16.0280729"><ele>611.0</ele><time>2026-04-27T13:07:31.386Z</time></trkpt><trkpt lat="44.5488924" lon="16.0280356"><ele>611.0</ele><time>2026-04-27T13:07:32.387Z</time></trkpt><trkpt lat="44.5487732" lon="16.0280173"><ele>611.0</ele><time>2026-04-27T13:07:33.386Z</time></trkpt><trkpt lat="44.548637" lon="16.0280147"><ele>611.0</ele><time>2026-04-27T13:07:34.387Z</time></trkpt><trkpt lat="44.5484977" lon="16.0280091"><ele>611.0</ele><time>2026-04-27T13:07:35.385Z</time></trkpt><trkpt lat="44.548371" lon="16.0279977"><ele>611.0</ele><time>2026-04-27T13:07:36.386Z</time></trkpt><trkpt lat="44.5482519" lon="16.0279903"><ele>611.0</ele><time>2026-04-27T13:07:37.386Z</time></trkpt><trkpt lat="44.5481269" lon="16.0279741"><ele>611.0</ele><time>2026-04-27T13:07:38.387Z</time></trkpt><trkpt lat="44.5480049" lon="16.0279438"><ele>611.0</ele><time>2026-04-27T13:07:39.387Z</time></trkpt><trkpt lat="44.5478814" lon="16.0279064"><ele>609.25</ele><time>2026-04-27T13:07:40.386Z</time></trkpt><trkpt lat="44.5477604" lon="16.0278627"><ele>607.5</ele><time>2026-04-27T13:07:41.386Z</time></trkpt><trkpt lat="44.5476396" lon="16.0278084"><ele>605.75</ele><time>2026-04-27T13:07:42.386Z</time></trkpt><trkpt lat="44.5475099" lon="16.0277492"><ele>604.0</ele><time>2026-04-27T13:07:43.387Z</time></trkpt><trkpt lat="44.5473716" lon="16.0277042"><ele>604.0</ele><time>2026-04-27T13:07:44.386Z</time></trkpt><trkpt lat="44.5472183" lon="16.027656"><ele>604.0</ele><time>2026-04-27T13:07:45.386Z</time></trkpt><trkpt lat="44.5470699" lon="16.0276059"><ele>604.0</ele><time>2026-04-27T13:07:46.387Z</time></trkpt><trkpt lat="44.5469181" lon="16.027558"><ele>603.0</ele><time>2026-04-27T13:07:47.386Z</time></trkpt><trkpt lat="44.5467741" lon="16.0275104"><ele>602.0</ele><time>2026-04-27T13:07:48.386Z</time></trkpt><trkpt lat="44.5466341" lon="16.0274623"><ele>601.0</ele><time>2026-04-27T13:07:49.386Z</time></trkpt><trkpt lat="44.546493" lon="16.0274002"><ele>600.0</ele><time>2026-04-27T13:07:50.386Z</time></trkpt><trkpt lat="44.546352" lon="16.0273418"><ele>602.25</ele><time>2026-04-27T13:07:51.387Z</time></trkpt><trkpt lat="44.5462142" lon="16.0272827"><ele>604.5</ele><time>2026-04-27T13:07:52.386Z</time></trkpt><trkpt lat="44.5460778" lon="16.027223"><ele>606.75</ele><time>2026-04-27T13:07:53.387Z</time></trkpt><trkpt lat="44.5459383" lon="16.0271469"><ele>609.0</ele><time>2026-04-27T13:07:54.386Z</time></trkpt><trkpt lat="44.5458184" lon="16.0270737"><ele>609.0</ele><time>2026-04-27T13:07:55.386Z</time></trkpt><trkpt lat="44.5457157" lon="16.0270266"><ele>609.0</ele><time>2026-04-27T13:07:56.386Z</time></trkpt><trkpt lat="44.5456087" lon="16.0269978"><ele>609.0</ele><time>2026-04-27T13:07:57.386Z</time></trkpt><trkpt lat="44.5455005" lon="16.0269837"><ele>609.0</ele><time>2026-04-27T13:07:58.386Z</time></trkpt><trkpt lat="44.5453922" lon="16.0269871"><ele>609.0</ele><time>2026-04-27T13:07:59.386Z</time></trkpt><trkpt lat="44.5452745" lon="16.0270213"><ele>608.5</ele><time>2026-04-27T13:08:00.386Z</time></trkpt><trkpt lat="44.5451424" lon="16.0270833"><ele>608.0</ele><time>2026-04-27T13:08:01.386Z</time></trkpt><trkpt lat="44.5450073" lon="16.0271528"><ele>607.5</ele><time>2026-04-27T13:08:02.386Z</time></trkpt><trkpt lat="44.5448699" lon="16.0272283"><ele>607.0</ele><time>2026-04-27T13:08:03.387Z</time></trkpt><trkpt lat="44.5447359" lon="16.027301"><ele>607.0</ele><time>2026-04-27T13:08:04.387Z</time></trkpt><trkpt lat="44.5446068" lon="16.0273672"><ele>607.0</ele><time>2026-04-27T13:08:05.387Z</time></trkpt><trkpt lat="44.544474" lon="16.0274258"><ele>607.0</ele><time>2026-04-27T13:08:06.386Z</time></trkpt><trkpt lat="44.5443366" lon="16.0274759"><ele>607.0</ele><time>2026-04-27T13:08:07.386Z</time></trkpt><trkpt lat="44.5441988" lon="16.0275146"><ele>604.0</ele><time>2026-04-27T13:08:08.386Z</time></trkpt><trkpt lat="44.5440704" lon="16.0275576"><ele>601.0</ele><time>2026-04-27T13:08:09.387Z</time></trkpt><trkpt lat="44.5439343" lon="16.0276137"><ele>598.0</ele><time>2026-04-27T13:08:10.387Z</time></trkpt><trkpt lat="44.5436744" lon="16.0277384"><ele>597.25</ele><time>2026-04-27T13:08:12.386Z</time></trkpt><trkpt lat="44.5435649" lon="16.0277869"><ele>596.5</ele><time>2026-04-27T13:08:13.387Z</time></trkpt><trkpt lat="44.5434521" lon="16.0278007"><ele>595.75</ele><time>2026-04-27T13:08:14.386Z</time></trkpt><trkpt lat="44.5433367" lon="16.0278144"><ele>595.0</ele><time>2026-04-27T13:08:15.387Z</time></trkpt><trkpt lat="44.543225" lon="16.0278148"><ele>595.0</ele><time>2026-04-27T13:08:16.387Z</time></trkpt><trkpt lat="44.5431132" lon="16.0278011"><ele>595.0</ele><time>2026-04-27T13:08:17.386Z</time></trkpt><trkpt lat="44.5429953" lon="16.027783"><ele>595.0</ele><time>2026-04-27T13:08:18.386Z</time></trkpt><trkpt lat="44.5428858" lon="16.0277871"><ele>595.0</ele><time>2026-04-27T13:08:19.386Z</time></trkpt><trkpt lat="44.5427799" lon="16.0277991"><ele>595.0</ele><time>2026-04-27T13:08:20.387Z</time></trkpt><trkpt lat="44.5426697" lon="16.0278413"><ele>595.25</ele><time>2026-04-27T13:08:21.386Z</time></trkpt><trkpt lat="44.5425418" lon="16.0278938"><ele>595.5</ele><time>2026-04-27T13:08:22.386Z</time></trkpt><trkpt lat="44.5424316" lon="16.0279509"><ele>595.75</ele><time>2026-04-27T13:08:23.386Z</time></trkpt><trkpt lat="44.5423204" lon="16.0280136"><ele>596.0</ele><time>2026-04-27T13:08:24.387Z</time></trkpt><trkpt lat="44.5422108" lon="16.0280861"><ele>596.0</ele><time>2026-04-27T13:08:25.387Z</time></trkpt><trkpt lat="44.5420723" lon="16.0281846"><ele>596.0</ele><time>2026-04-27T13:08:26.386Z</time></trkpt><trkpt lat="44.5419367" lon="16.0282879"><ele>596.0</ele><time>2026-04-27T13:08:27.387Z</time></trkpt><trkpt lat="44.541806" lon="16.028392"><ele>595.0</ele><time>2026-04-27T13:08:28.386Z</time></trkpt><trkpt lat="44.541674" lon="16.0284994"><ele>594.0</ele><time>2026-04-27T13:08:29.386Z</time></trkpt><trkpt lat="44.5415532" lon="16.0286102"><ele>593.0</ele><time>2026-04-27T13:08:30.386Z</time></trkpt><trkpt lat="44.5414255" lon="16.0286929"><ele>592.0</ele><time>2026-04-27T13:08:31.386Z</time></trkpt><trkpt lat="44.5413167" lon="16.0287859"><ele>592.0</ele><time>2026-04-27T13:08:32.387Z</time></trkpt><trkpt lat="44.5412196" lon="16.0288522"><ele>592.0</ele><time>2026-04-27T13:08:33.386Z</time></trkpt><trkpt lat="44.5411252" lon="16.0289022"><ele>592.0</ele><time>2026-04-27T13:08:34.386Z</time></trkpt><trkpt lat="44.541018" lon="16.0289672"><ele>592.0</ele><time>2026-04-27T13:08:35.386Z</time></trkpt><trkpt lat="44.5408969" lon="16.0290297"><ele>592.0</ele><time>2026-04-27T13:08:36.387Z</time></trkpt><trkpt lat="44.5407811" lon="16.0290681"><ele>592.0</ele><time>2026-04-27T13:08:37.386Z</time></trkpt><trkpt lat="44.5406537" lon="16.0290933"><ele>592.0</ele><time>2026-04-27T13:08:38.386Z</time></trkpt><trkpt lat="44.5405305" lon="16.0291192"><ele>592.0</ele><time>2026-04-27T13:08:39.387Z</time></trkpt><trkpt lat="44.5404277" lon="16.0291461"><ele>592.0</ele><time>2026-04-27T13:08:40.387Z</time></trkpt><trkpt lat="44.5403031" lon="16.02916"><ele>592.0</ele><time>2026-04-27T13:08:41.386Z</time></trkpt><trkpt lat="44.5401783" lon="16.0291441"><ele>592.0</ele><time>2026-04-27T13:08:42.386Z</time></trkpt><trkpt lat="44.5400533" lon="16.0291308"><ele>592.0</ele><time>2026-04-27T13:08:43.386Z</time></trkpt><trkpt lat="44.5399145" lon="16.0291114"><ele>592.5</ele><time>2026-04-27T13:08:44.386Z</time></trkpt><trkpt lat="44.5397817" lon="16.0291011"><ele>593.0</ele><time>2026-04-27T13:08:45.387Z</time></trkpt><trkpt lat="44.5396506" lon="16.0290916"><ele>593.5</ele><time>2026-04-27T13:08:46.386Z</time></trkpt><trkpt lat="44.5395314" lon="16.0290878"><ele>594.0</ele><time>2026-04-27T13:08:47.386Z</time></trkpt><trkpt lat="44.5394132" lon="16.0290805"><ele>593.0</ele><time>2026-04-27T13:08:48.386Z</time></trkpt><trkpt lat="44.5393023" lon="16.0290701"><ele>592.0</ele><time>2026-04-27T13:08:49.387Z</time></trkpt><trkpt lat="44.5391884" lon="16.029062"><ele>591.0</ele><time>2026-04-27T13:08:50.387Z</time></trkpt><trkpt lat="44.5390823" lon="16.0290458"><ele>590.0</ele><time>2026-04-27T13:08:51.386Z</time></trkpt><trkpt lat="44.5389837" lon="16.0290258"><ele>589.0</ele><time>2026-04-27T13:08:52.387Z</time></trkpt><trkpt lat="44.5388718" lon="16.0289954"><ele>589.0</ele><time>2026-04-27T13:08:53.386Z</time></trkpt><trkpt lat="44.5387426" lon="16.0289773"><ele>589.0</ele><time>2026-04-27T13:08:54.386Z</time></trkpt><trkpt lat="44.5386064" lon="16.0289715"><ele>589.0</ele><time>2026-04-27T13:08:55.386Z</time></trkpt><trkpt lat="44.5384615" lon="16.0289591"><ele>589.0</ele><time>2026-04-27T13:08:56.386Z</time></trkpt><trkpt lat="44.5383081" lon="16.0289505"><ele>588.0</ele><time>2026-04-27T13:08:57.386Z</time></trkpt><trkpt lat="44.5381459" lon="16.0289396"><ele>587.0</ele><time>2026-04-27T13:08:58.386Z</time></trkpt><trkpt lat="44.5379771" lon="16.0289209"><ele>586.0</ele><time>2026-04-27T13:08:59.386Z</time></trkpt><trkpt lat="44.5378174" lon="16.0289133"><ele>585.5</ele><time>2026-04-27T13:09:00.386Z</time></trkpt><trkpt lat="44.5376762" lon="16.0289156"><ele>585.0</ele><time>2026-04-27T13:09:01.387Z</time></trkpt><trkpt lat="44.5375363" lon="16.0289072"><ele>584.5</ele><time>2026-04-27T13:09:02.386Z</time></trkpt><trkpt lat="44.537419" lon="16.0289002"><ele>584.0</ele><time>2026-04-27T13:09:03.386Z</time></trkpt><trkpt lat="44.5373001" lon="16.0288954"><ele>584.0</ele><time>2026-04-27T13:09:04.386Z</time></trkpt><trkpt lat="44.5371695" lon="16.0288926"><ele>584.0</ele><time>2026-04-27T13:09:05.386Z</time></trkpt><trkpt lat="44.537035" lon="16.0289037"><ele>584.0</ele><time>2026-04-27T13:09:06.386Z</time></trkpt><trkpt lat="44.5368954" lon="16.028906"><ele>584.0</ele><time>2026-04-27T13:09:07.386Z</time></trkpt><trkpt lat="44.5367339" lon="16.0289167"><ele>583.3333333333333</ele><time>2026-04-27T13:09:08.387Z</time></trkpt><trkpt lat="44.5365913" lon="16.0289294"><ele>582.6666666666666</ele><time>2026-04-27T13:09:09.386Z</time></trkpt><trkpt lat="44.536425" lon="16.0289379"><ele>582.0</ele><time>2026-04-27T13:09:10.386Z</time></trkpt><trkpt lat="44.536274" lon="16.0289481"><ele>580.0</ele><time>2026-04-27T13:09:11.387Z</time></trkpt><trkpt lat="44.5360971" lon="16.028956"><ele>578.0</ele><time>2026-04-27T13:09:12.386Z</time></trkpt><trkpt lat="44.5359095" lon="16.0289698"><ele>576.0</ele><time>2026-04-27T13:09:13.383Z</time></trkpt><trkpt lat="44.5357299" lon="16.0290014"><ele>576.0</ele><time>2026-04-27T13:09:14.386Z</time></trkpt><trkpt lat="44.5355919" lon="16.0290181"><ele>576.0</ele><time>2026-04-27T13:09:15.386Z</time></trkpt><trkpt lat="44.5354442" lon="16.0290251"><ele>576.0</ele><time>2026-04-27T13:09:16.386Z</time></trkpt><trkpt lat="44.5353064" lon="16.0290359"><ele>576.0</ele><time>2026-04-27T13:09:17.386Z</time></trkpt><trkpt lat="44.5351854" lon="16.0290511"><ele>575.25</ele><time>2026-04-27T13:09:18.386Z</time></trkpt><trkpt lat="44.5350726" lon="16.0290565"><ele>574.5</ele><time>2026-04-27T13:09:19.387Z</time></trkpt><trkpt lat="44.5349534" lon="16.0290458"><ele>573.75</ele><time>2026-04-27T13:09:20.386Z</time></trkpt><trkpt lat="44.5348213" lon="16.0290241"><ele>573.0</ele><time>2026-04-27T13:09:21.387Z</time></trkpt><trkpt lat="44.5346915" lon="16.0289754"><ele>573.0</ele><time>2026-04-27T13:09:22.387Z</time></trkpt><trkpt lat="44.5345666" lon="16.0289274"><ele>573.0</ele><time>2026-04-27T13:09:23.386Z</time></trkpt><trkpt lat="44.5344422" lon="16.0288667"><ele>573.0</ele><time>2026-04-27T13:09:24.386Z</time></trkpt><trkpt lat="44.5343318" lon="16.0288033"><ele>573.0</ele><time>2026-04-27T13:09:25.386Z</time></trkpt><trkpt lat="44.5342297" lon="16.0287301"><ele>573.6666666666666</ele><time>2026-04-27T13:09:26.382Z</time></trkpt><trkpt lat="44.5341476" lon="16.0286555"><ele>574.3333333333334</ele><time>2026-04-27T13:09:27.387Z</time></trkpt><trkpt lat="44.5340755" lon="16.0285941"><ele>575.0</ele><time>2026-04-27T13:09:28.386Z</time></trkpt><trkpt lat="44.5340061" lon="16.0285382"><ele>575.6666666666667</ele><time>2026-04-27T13:09:29.386Z</time></trkpt><trkpt lat="44.5339368" lon="16.0285771"><ele>576.3333333333334</ele><time>2026-04-27T13:09:32.387Z</time></trkpt><trkpt lat="44.5339382" lon="16.0286773"><ele>577.0</ele><time>2026-04-27T13:09:34.386Z</time></trkpt><trkpt lat="44.5339554" lon="16.0288419"><ele>577.0</ele><time>2026-04-27T13:09:36.386Z</time></trkpt><trkpt lat="44.5339638" lon="16.0289605"><ele>577.0</ele><time>2026-04-27T13:09:37.384Z</time></trkpt><trkpt lat="44.5339819" lon="16.0290897"><ele>577.0</ele><time>2026-04-27T13:09:38.387Z</time></trkpt><trkpt lat="44.5340115" lon="16.0292396"><ele>577.0</ele><time>2026-04-27T13:09:39.386Z</time></trkpt><trkpt lat="44.5340576" lon="16.0293994"><ele>577.0</ele><time>2026-04-27T13:09:40.386Z</time></trkpt><trkpt lat="44.5341211" lon="16.0295524"><ele>576.6</ele><time>2026-04-27T13:09:41.387Z</time></trkpt><trkpt lat="44.5341891" lon="16.0296908"><ele>576.2</ele><time>2026-04-27T13:09:42.386Z</time></trkpt><trkpt lat="44.5342664" lon="16.0298173"><ele>575.8</ele><time>2026-04-27T13:09:43.386Z</time></trkpt><trkpt lat="44.5343368" lon="16.0299264"><ele>575.4</ele><time>2026-04-27T13:09:44.386Z</time></trkpt><trkpt lat="44.5344063" lon="16.0300273"><ele>575.0</ele><time>2026-04-27T13:09:45.386Z</time></trkpt><trkpt lat="44.5344684" lon="16.0301165"><ele>574.1666666666666</ele><time>2026-04-27T13:09:46.386Z</time></trkpt><trkpt lat="44.5345236" lon="16.0302029"><ele>573.3333333333333</ele><time>2026-04-27T13:09:47.386Z</time></trkpt><trkpt lat="44.5345678" lon="16.0302766"><ele>572.5</ele><time>2026-04-27T13:09:48.386Z</time></trkpt><trkpt lat="44.5346104" lon="16.0303446"><ele>571.6666666666666</ele><time>2026-04-27T13:09:49.387Z</time></trkpt><trkpt lat="44.5346401" lon="16.0304228"><ele>570.8333333333334</ele><time>2026-04-27T13:09:50.386Z</time></trkpt><trkpt lat="44.5346578" lon="16.0305642"><ele>570.0</ele><time>2026-04-27T13:09:52.387Z</time></trkpt><trkpt lat="44.5346445" lon="16.0306649"><ele>570.2</ele><time>2026-04-27T13:09:54.386Z</time></trkpt><trkpt lat="44.5346222" lon="16.030786"><ele>570.4</ele><time>2026-04-27T13:09:56.386Z</time></trkpt><trkpt lat="44.5345858" lon="16.0309508"><ele>570.6</ele><time>2026-04-27T13:09:58.387Z</time></trkpt><trkpt lat="44.5345552" lon="16.0311271"><ele>570.8</ele><time>2026-04-27T13:10:00.386Z</time></trkpt><trkpt lat="44.5345444" lon="16.0312452"><ele>571.0</ele><time>2026-04-27T13:10:01.387Z</time></trkpt><trkpt lat="44.5345117" lon="16.0313469"><ele>571.0</ele><time>2026-04-27T13:10:02.386Z</time></trkpt><trkpt lat="44.5344799" lon="16.0314594"><ele>571.0</ele><time>2026-04-27T13:10:03.387Z</time></trkpt><trkpt lat="44.5344471" lon="16.0315789"><ele>571.0</ele><time>2026-04-27T13:10:04.386Z</time></trkpt><trkpt lat="44.5344031" lon="16.031684"><ele>571.0</ele><time>2026-04-27T13:10:05.387Z</time></trkpt><trkpt lat="44.5343462" lon="16.0318102"><ele>571.0</ele><time>2026-04-27T13:10:06.387Z</time></trkpt><trkpt lat="44.5342997" lon="16.0319176"><ele>571.1666666666667</ele><time>2026-04-27T13:10:07.386Z</time></trkpt><trkpt lat="44.5342749" lon="16.032027"><ele>571.3333333333334</ele><time>2026-04-27T13:10:08.387Z</time></trkpt><trkpt lat="44.5342616" lon="16.0321377"><ele>571.5</ele><time>2026-04-27T13:10:09.387Z</time></trkpt><trkpt lat="44.5342907" lon="16.032256"><ele>571.6666666666666</ele><time>2026-04-27T13:10:10.386Z</time></trkpt><trkpt lat="44.5342938" lon="16.0323831"><ele>571.8333333333333</ele><time>2026-04-27T13:10:11.386Z</time></trkpt><trkpt lat="44.5343035" lon="16.0325317"><ele>572.0</ele><time>2026-04-27T13:10:12.386Z</time></trkpt><trkpt lat="44.5342822" lon="16.0326643"><ele>572.6</ele><time>2026-04-27T13:10:13.386Z</time></trkpt><trkpt lat="44.5342717" lon="16.0328105"><ele>573.2</ele><time>2026-04-27T13:10:14.387Z</time></trkpt><trkpt lat="44.5342506" lon="16.0329614"><ele>573.8</ele><time>2026-04-27T13:10:15.386Z</time></trkpt><trkpt lat="44.5342656" lon="16.0330995"><ele>574.4</ele><time>2026-04-27T13:10:16.386Z</time></trkpt><trkpt lat="44.534289" lon="16.0332287"><ele>575.0</ele><time>2026-04-27T13:10:17.386Z</time></trkpt><trkpt lat="44.5343316" lon="16.0333724"><ele>575.0</ele><time>2026-04-27T13:10:18.386Z</time></trkpt><trkpt lat="44.534381" lon="16.0334994"><ele>575.0</ele><time>2026-04-27T13:10:19.387Z</time></trkpt><trkpt lat="44.5344552" lon="16.0336154"><ele>575.0</ele><time>2026-04-27T13:10:20.386Z</time></trkpt><trkpt lat="44.5345511" lon="16.0337519"><ele>575.0</ele><time>2026-04-27T13:10:21.386Z</time></trkpt><trkpt lat="44.5346482" lon="16.0338968"><ele>574.25</ele><time>2026-04-27T13:10:22.386Z</time></trkpt><trkpt lat="44.5347235" lon="16.0340449"><ele>573.5</ele><time>2026-04-27T13:10:23.386Z</time></trkpt><trkpt lat="44.5347659" lon="16.0341986"><ele>572.75</ele><time>2026-04-27T13:10:24.386Z</time></trkpt><trkpt lat="44.5348053" lon="16.0343846"><ele>572.0</ele><time>2026-04-27T13:10:25.386Z</time></trkpt><trkpt lat="44.5348369" lon="16.0345833"><ele>572.0</ele><time>2026-04-27T13:10:26.387Z</time></trkpt><trkpt lat="44.5348581" lon="16.0347667"><ele>572.0</ele><time>2026-04-27T13:10:27.386Z</time></trkpt><trkpt lat="44.5348672" lon="16.034948"><ele>572.0</ele><time>2026-04-27T13:10:28.386Z</time></trkpt><trkpt lat="44.5348705" lon="16.0351366"><ele>572.0</ele><time>2026-04-27T13:10:29.387Z</time></trkpt><trkpt lat="44.5348615" lon="16.035307"><ele>572.1666666666666</ele><time>2026-04-27T13:10:30.387Z</time></trkpt><trkpt lat="44.5348532" lon="16.0354592"><ele>572.3333333333333</ele><time>2026-04-27T13:10:31.386Z</time></trkpt><trkpt lat="44.5348311" lon="16.0355758"><ele>572.5</ele><time>2026-04-27T13:10:32.387Z</time></trkpt><trkpt lat="44.5348003" lon="16.0356741"><ele>572.6666666666666</ele><time>2026-04-27T13:10:33.386Z</time></trkpt><trkpt lat="44.5347578" lon="16.0357547"><ele>572.8333333333334</ele><time>2026-04-27T13:10:34.386Z</time></trkpt><trkpt lat="44.5347027" lon="16.0358457"><ele>573.0</ele><time>2026-04-27T13:10:35.386Z</time></trkpt><trkpt lat="44.5346372" lon="16.0359752"><ele>571.5</ele><time>2026-04-27T13:10:36.385Z</time></trkpt><trkpt lat="44.5345748" lon="16.0361211"><ele>570.0</ele><time>2026-04-27T13:10:37.386Z</time></trkpt><trkpt lat="44.534507" lon="16.0362843"><ele>568.5</ele><time>2026-04-27T13:10:38.386Z</time></trkpt><trkpt lat="44.5344321" lon="16.0364702"><ele>567.0</ele><time>2026-04-27T13:10:39.387Z</time></trkpt><trkpt lat="44.5343491" lon="16.0366421"><ele>572.75</ele><time>2026-04-27T13:10:40.386Z</time></trkpt><trkpt lat="44.5342692" lon="16.0367899"><ele>578.5</ele><time>2026-04-27T13:10:41.386Z</time></trkpt><trkpt lat="44.5341876" lon="16.0369186"><ele>584.25</ele><time>2026-04-27T13:10:42.386Z</time></trkpt><trkpt lat="44.5340933" lon="16.0370185"><ele>590.0</ele><time>2026-04-27T13:10:43.387Z</time></trkpt><trkpt lat="44.5340032" lon="16.0371215"><ele>590.0</ele><time>2026-04-27T13:10:44.387Z</time></trkpt><trkpt lat="44.533913" lon="16.0372254"><ele>590.0</ele><time>2026-04-27T13:10:45.386Z</time></trkpt><trkpt lat="44.5338293" lon="16.0373239"><ele>590.0</ele><time>2026-04-27T13:10:46.386Z</time></trkpt><trkpt lat="44.5337428" lon="16.0374119"><ele>590.0</ele><time>2026-04-27T13:10:47.386Z</time></trkpt><trkpt lat="44.5336525" lon="16.037487"><ele>590.0</ele><time>2026-04-27T13:10:48.386Z</time></trkpt><trkpt lat="44.5335581" lon="16.03756"><ele>590.8</ele><time>2026-04-27T13:10:49.386Z</time></trkpt><trkpt lat="44.5334646" lon="16.0376445"><ele>591.6</ele><time>2026-04-27T13:10:50.386Z</time></trkpt><trkpt lat="44.5333809" lon="16.0377325"><ele>592.4</ele><time>2026-04-27T13:10:51.383Z</time></trkpt><trkpt lat="44.5333171" lon="16.0378319"><ele>593.2</ele><time>2026-04-27T13:10:52.386Z</time></trkpt><trkpt lat="44.5332703" lon="16.0379555"><ele>594.0</ele><time>2026-04-27T13:10:53.386Z</time></trkpt><trkpt lat="44.5332172" lon="16.0381188"><ele>594.0</ele><time>2026-04-27T13:10:54.386Z</time></trkpt><trkpt lat="44.5331712" lon="16.0382932"><ele>594.0</ele><time>2026-04-27T13:10:55.386Z</time></trkpt><trkpt lat="44.5331264" lon="16.0384361"><ele>594.0</ele><time>2026-04-27T13:10:56.386Z</time></trkpt><trkpt lat="44.5330809" lon="16.0385554"><ele>594.0</ele><time>2026-04-27T13:10:57.386Z</time></trkpt><trkpt lat="44.533039" lon="16.0386749"><ele>594.0</ele><time>2026-04-27T13:10:58.387Z</time></trkpt><trkpt lat="44.5330055" lon="16.0387983"><ele>594.2</ele><time>2026-04-27T13:10:59.386Z</time></trkpt><trkpt lat="44.532993" lon="16.0389089"><ele>594.4</ele><time>2026-04-27T13:11:00.386Z</time></trkpt><trkpt lat="44.5329953" lon="16.0390169"><ele>594.6</ele><time>2026-04-27T13:11:01.385Z</time></trkpt><trkpt lat="44.5330329" lon="16.0391577"><ele>594.8</ele><time>2026-04-27T13:11:02.386Z</time></trkpt><trkpt lat="44.5330757" lon="16.0393068"><ele>595.0</ele><time>2026-04-27T13:11:03.386Z</time></trkpt><trkpt lat="44.5330901" lon="16.0394528"><ele>593.8</ele><time>2026-04-27T13:11:04.386Z</time></trkpt><trkpt lat="44.5331036" lon="16.0396048"><ele>592.6</ele><time>2026-04-27T13:11:05.387Z</time></trkpt><trkpt lat="44.5330797" lon="16.0397213"><ele>591.4</ele><time>2026-04-27T13:11:06.387Z</time></trkpt><trkpt lat="44.5330647" lon="16.039854"><ele>590.2</ele><time>2026-04-27T13:11:07.386Z</time></trkpt><trkpt lat="44.5330524" lon="16.0400325"><ele>589.0</ele><time>2026-04-27T13:11:08.386Z</time></trkpt><trkpt lat="44.5330366" lon="16.0402183"><ele>588.8</ele><time>2026-04-27T13:11:09.386Z</time></trkpt><trkpt lat="44.5330191" lon="16.0404069"><ele>588.5999999999999</ele><time>2026-04-27T13:11:10.386Z</time></trkpt><trkpt lat="44.5330068" lon="16.040561"><ele>588.4</ele><time>2026-04-27T13:11:11.386Z</time></trkpt><trkpt lat="44.5329935" lon="16.0406938"><ele>588.1999999999999</ele><time>2026-04-27T13:11:12.386Z</time></trkpt><trkpt lat="44.5329698" lon="16.0408009"><ele>588.0</ele><time>2026-04-27T13:11:13.387Z</time></trkpt><trkpt lat="44.5329353" lon="16.0408844"><ele>588.4</ele><time>2026-04-27T13:11:14.386Z</time></trkpt><trkpt lat="44.5328931" lon="16.0409659"><ele>588.8</ele><time>2026-04-27T13:11:15.386Z</time></trkpt><trkpt lat="44.5328224" lon="16.0410261"><ele>589.2</ele><time>2026-04-27T13:11:16.386Z</time></trkpt><trkpt lat="44.5327228" lon="16.0410545"><ele>589.6</ele><time>2026-04-27T13:11:17.386Z</time></trkpt><trkpt lat="44.5325759" lon="16.0410929"><ele>590.0</ele><time>2026-04-27T13:11:18.386Z</time></trkpt><trkpt lat="44.5324521" lon="16.0411349"><ele>590.2</ele><time>2026-04-27T13:11:19.387Z</time></trkpt><trkpt lat="44.5323543" lon="16.0411704"><ele>590.4</ele><time>2026-04-27T13:11:20.386Z</time></trkpt><trkpt lat="44.5322568" lon="16.0412023"><ele>590.6</ele><time>2026-04-27T13:11:21.386Z</time></trkpt><trkpt lat="44.5321468" lon="16.0412454"><ele>590.8</ele><time>2026-04-27T13:11:22.386Z</time></trkpt><trkpt lat="44.5320374" lon="16.0413071"><ele>591.0</ele><time>2026-04-27T13:11:23.387Z</time></trkpt><trkpt lat="44.5319277" lon="16.0413831"><ele>592.0</ele><time>2026-04-27T13:11:24.386Z</time></trkpt><trkpt lat="44.531814" lon="16.0414448"><ele>593.0</ele><time>2026-04-27T13:11:25.386Z</time></trkpt><trkpt lat="44.5317097" lon="16.0414996"><ele>594.0</ele><time>2026-04-27T13:11:26.386Z</time></trkpt><trkpt lat="44.5315967" lon="16.0415656"><ele>595.0</ele><time>2026-04-27T13:11:27.386Z</time></trkpt><trkpt lat="44.5315038" lon="16.0416413"><ele>595.0</ele><time>2026-04-27T13:11:28.387Z</time></trkpt><trkpt lat="44.5314172" lon="16.0417261"><ele>595.0</ele><time>2026-04-27T13:11:29.387Z</time></trkpt><trkpt lat="44.5313363" lon="16.0418313"><ele>595.0</ele><time>2026-04-27T13:11:30.386Z</time></trkpt><trkpt lat="44.53125" lon="16.0419596"><ele>595.0</ele><time>2026-04-27T13:11:31.387Z</time></trkpt><trkpt lat="44.531178" lon="16.0421033"><ele>595.4</ele><time>2026-04-27T13:11:32.386Z</time></trkpt><trkpt lat="44.5311141" lon="16.0422214"><ele>595.8</ele><time>2026-04-27T13:11:33.386Z</time></trkpt><trkpt lat="44.5310484" lon="16.0423004"><ele>596.2</ele><time>2026-04-27T13:11:34.386Z</time></trkpt><trkpt lat="44.5309813" lon="16.0423699"><ele>596.6</ele><time>2026-04-27T13:11:35.386Z</time></trkpt><trkpt lat="44.5308876" lon="16.0424583"><ele>597.0</ele><time>2026-04-27T13:11:36.387Z</time></trkpt><trkpt lat="44.5307795" lon="16.0425552"><ele>597.0</ele><time>2026-04-27T13:11:37.386Z</time></trkpt><trkpt lat="44.5306598" lon="16.042647"><ele>597.0</ele><time>2026-04-27T13:11:38.386Z</time></trkpt><trkpt lat="44.5305295" lon="16.0427274"><ele>597.0</ele><time>2026-04-27T13:11:39.387Z</time></trkpt><trkpt lat="44.5303954" lon="16.0428118"><ele>597.0</ele><time>2026-04-27T13:11:40.386Z</time></trkpt><trkpt lat="44.5302886" lon="16.0428877"><ele>598.25</ele><time>2026-04-27T13:11:41.386Z</time></trkpt><trkpt lat="44.5301936" lon="16.0429845"><ele>599.5</ele><time>2026-04-27T13:11:42.387Z</time></trkpt><trkpt lat="44.5301045" lon="16.0430941"><ele>600.75</ele><time>2026-04-27T13:11:43.386Z</time></trkpt><trkpt lat="44.5300317" lon="16.0432355"><ele>602.0</ele><time>2026-04-27T13:11:44.386Z</time></trkpt><trkpt lat="44.5299612" lon="16.0433625"><ele>602.0</ele><time>2026-04-27T13:11:45.387Z</time></trkpt><trkpt lat="44.5298721" lon="16.0434844"><ele>602.0</ele><time>2026-04-27T13:11:46.386Z</time></trkpt><trkpt lat="44.5297759" lon="16.0436048"><ele>602.0</ele><time>2026-04-27T13:11:47.386Z</time></trkpt><trkpt lat="44.5296555" lon="16.043742"><ele>602.0</ele><time>2026-04-27T13:11:48.381Z</time></trkpt><trkpt lat="44.5295374" lon="16.0438617"><ele>603.0</ele><time>2026-04-27T13:11:49.386Z</time></trkpt><trkpt lat="44.5294066" lon="16.0439776"><ele>604.0</ele><time>2026-04-27T13:11:50.386Z</time></trkpt><trkpt lat="44.5292938" lon="16.0440688"><ele>605.0</ele><time>2026-04-27T13:11:51.387Z</time></trkpt><trkpt lat="44.5291814" lon="16.0441709"><ele>606.0</ele><time>2026-04-27T13:11:52.386Z</time></trkpt><trkpt lat="44.529096" lon="16.044259"><ele>606.0</ele><time>2026-04-27T13:11:53.387Z</time></trkpt><trkpt lat="44.529016" lon="16.0443721"><ele>606.0</ele><time>2026-04-27T13:11:54.387Z</time></trkpt><trkpt lat="44.5289269" lon="16.0444799"><ele>606.0</ele><time>2026-04-27T13:11:55.386Z</time></trkpt><trkpt lat="44.528878" lon="16.0446361"><ele>606.0</ele><time>2026-04-27T13:11:56.386Z</time></trkpt><trkpt lat="44.5288111" lon="16.0447944"><ele>606.0</ele><time>2026-04-27T13:11:57.386Z</time></trkpt><trkpt lat="44.5287462" lon="16.0449487"><ele>606.0</ele><time>2026-04-27T13:11:58.387Z</time></trkpt><trkpt lat="44.5286639" lon="16.0451268"><ele>606.0</ele><time>2026-04-27T13:11:59.386Z</time></trkpt><trkpt lat="44.52855" lon="16.0452864"><ele>606.0</ele><time>2026-04-27T13:12:00.387Z</time></trkpt><trkpt lat="44.5284435" lon="16.0454491"><ele>605.75</ele><time>2026-04-27T13:12:01.386Z</time></trkpt><trkpt lat="44.5283513" lon="16.045591"><ele>605.5</ele><time>2026-04-27T13:12:02.386Z</time></trkpt><trkpt lat="44.5282737" lon="16.0457184"><ele>605.25</ele><time>2026-04-27T13:12:03.386Z</time></trkpt><trkpt lat="44.5281918" lon="16.0458542"><ele>605.0</ele><time>2026-04-27T13:12:04.386Z</time></trkpt><trkpt lat="44.528101" lon="16.0459745"><ele>605.0</ele><time>2026-04-27T13:12:05.387Z</time></trkpt><trkpt lat="44.5280175" lon="16.0460974"><ele>605.0</ele><time>2026-04-27T13:12:06.386Z</time></trkpt><trkpt lat="44.5279217" lon="16.0462309"><ele>605.0</ele><time>2026-04-27T13:12:07.387Z</time></trkpt><trkpt lat="44.5278529" lon="16.0463297"><ele>605.0</ele><time>2026-04-27T13:12:08.386Z</time></trkpt><trkpt lat="44.5277797" lon="16.0464178"><ele>605.6</ele><time>2026-04-27T13:12:09.386Z</time></trkpt><trkpt lat="44.527709" lon="16.0464559"><ele>606.2</ele><time>2026-04-27T13:12:10.387Z</time></trkpt><trkpt lat="44.5276273" lon="16.046514"><ele>606.8</ele><time>2026-04-27T13:12:11.386Z</time></trkpt><trkpt lat="44.5275354" lon="16.0465744"><ele>607.4</ele><time>2026-04-27T13:12:12.386Z</time></trkpt><trkpt lat="44.5274339" lon="16.0466477"><ele>608.0</ele><time>2026-04-27T13:12:13.386Z</time></trkpt><trkpt lat="44.5273433" lon="16.046755"><ele>607.0</ele><time>2026-04-27T13:12:14.386Z</time></trkpt><trkpt lat="44.5272619" lon="16.046877"><ele>606.0</ele><time>2026-04-27T13:12:15.386Z</time></trkpt><trkpt lat="44.5271824" lon="16.0469974"><ele>605.0</ele><time>2026-04-27T13:12:16.386Z</time></trkpt><trkpt lat="44.5270944" lon="16.0471135"><ele>604.0</ele><time>2026-04-27T13:12:17.386Z</time></trkpt><trkpt lat="44.5270085" lon="16.0472236"><ele>604.0</ele><time>2026-04-27T13:12:18.386Z</time></trkpt><trkpt lat="44.5269348" lon="16.0473396"><ele>604.0</ele><time>2026-04-27T13:12:19.378Z</time></trkpt><trkpt lat="44.5268843" lon="16.0474741"><ele>604.0</ele><time>2026-04-27T13:12:20.381Z</time></trkpt><trkpt lat="44.5268465" lon="16.0476352"><ele>604.0</ele><time>2026-04-27T13:12:21.387Z</time></trkpt><trkpt lat="44.5268128" lon="16.0477974"><ele>603.2</ele><time>2026-04-27T13:12:22.387Z</time></trkpt><trkpt lat="44.5267778" lon="16.0479348"><ele>602.4</ele><time>2026-04-27T13:12:23.386Z</time></trkpt><trkpt lat="44.5267348" lon="16.0480575"><ele>601.6</ele><time>2026-04-27T13:12:24.386Z</time></trkpt><trkpt lat="44.5266781" lon="16.0481897"><ele>600.8</ele><time>2026-04-27T13:12:25.386Z</time></trkpt><trkpt lat="44.5266201" lon="16.0483357"><ele>600.0</ele><time>2026-04-27T13:12:26.386Z</time></trkpt><trkpt lat="44.5265693" lon="16.0484727"><ele>600.0</ele><time>2026-04-27T13:12:27.387Z</time></trkpt><trkpt lat="44.5265204" lon="16.0485994"><ele>600.0</ele><time>2026-04-27T13:12:28.386Z</time></trkpt><trkpt lat="44.5264673" lon="16.0487215"><ele>600.0</ele><time>2026-04-27T13:12:29.386Z</time></trkpt><trkpt lat="44.5264082" lon="16.048841"><ele>600.0</ele><time>2026-04-27T13:12:30.386Z</time></trkpt><trkpt lat="44.5263345" lon="16.0489432"><ele>600.0</ele><time>2026-04-27T13:12:31.386Z</time></trkpt><trkpt lat="44.5262549" lon="16.0490297"><ele>600.2</ele><time>2026-04-27T13:12:32.386Z</time></trkpt><trkpt lat="44.5261691" lon="16.0490897"><ele>600.4</ele><time>2026-04-27T13:12:33.387Z</time></trkpt><trkpt lat="44.5260663" lon="16.0491221"><ele>600.6</ele><time>2026-04-27T13:12:34.387Z</time></trkpt><trkpt lat="44.5259545" lon="16.0491417"><ele>600.8</ele><time>2026-04-27T13:12:35.386Z</time></trkpt><trkpt lat="44.5258424" lon="16.0491566"><ele>601.0</ele><time>2026-04-27T13:12:36.386Z</time></trkpt><trkpt lat="44.5257287" lon="16.0491792"><ele>601.0</ele><time>2026-04-27T13:12:37.386Z</time></trkpt><trkpt lat="44.5256156" lon="16.0492322"><ele>601.0</ele><time>2026-04-27T13:12:38.386Z</time></trkpt><trkpt lat="44.5255097" lon="16.0493113"><ele>601.0</ele><time>2026-04-27T13:12:39.386Z</time></trkpt><trkpt lat="44.5254012" lon="16.0493894"><ele>601.0</ele><time>2026-04-27T13:12:40.386Z</time></trkpt><trkpt lat="44.5252913" lon="16.0494554"><ele>599.8</ele><time>2026-04-27T13:12:41.387Z</time></trkpt><trkpt lat="44.5251918" lon="16.0495126"><ele>598.6</ele><time>2026-04-27T13:12:42.386Z</time></trkpt><trkpt lat="44.5251032" lon="16.0495881"><ele>597.4</ele><time>2026-04-27T13:12:43.385Z</time></trkpt><trkpt lat="44.5250407" lon="16.0496546"><ele>596.2</ele><time>2026-04-27T13:12:44.386Z</time></trkpt><trkpt lat="44.5250037" lon="16.0497371"><ele>595.0</ele><time>2026-04-27T13:12:45.386Z</time></trkpt><trkpt lat="44.5249638" lon="16.0499139"><ele>593.8</ele><time>2026-04-27T13:12:47.386Z</time></trkpt><trkpt lat="44.5249675" lon="16.0500295"><ele>592.6</ele><time>2026-04-27T13:12:48.386Z</time></trkpt><trkpt lat="44.5249859" lon="16.0501638"><ele>591.4</ele><time>2026-04-27T13:12:49.386Z</time></trkpt><trkpt lat="44.5250023" lon="16.0503086"><ele>590.2</ele><time>2026-04-27T13:12:50.379Z</time></trkpt><trkpt lat="44.5250187" lon="16.0504462"><ele>589.0</ele><time>2026-04-27T13:12:51.386Z</time></trkpt><trkpt lat="44.5250171" lon="16.0505625"><ele>589.0</ele><time>2026-04-27T13:12:52.386Z</time></trkpt><trkpt lat="44.5250244" lon="16.0506565"><ele>589.0</ele><time>2026-04-27T13:12:53.386Z</time></trkpt><trkpt lat="44.5250607" lon="16.0508073"><ele>589.0</ele><time>2026-04-27T13:12:55.386Z</time></trkpt><trkpt lat="44.5251042" lon="16.0508851"><ele>589.0</ele><time>2026-04-27T13:12:56.387Z</time></trkpt><trkpt lat="44.5251616" lon="16.0509712"><ele>589.0</ele><time>2026-04-27T13:12:57.387Z</time></trkpt><trkpt lat="44.5252228" lon="16.0510535"><ele>589.0</ele><time>2026-04-27T13:12:58.386Z</time></trkpt><trkpt lat="44.5252983" lon="16.0511537"><ele>588.5</ele><time>2026-04-27T13:12:59.387Z</time></trkpt><trkpt lat="44.5253745" lon="16.0512679"><ele>588.0</ele><time>2026-04-27T13:13:00.386Z</time></trkpt><trkpt lat="44.5254515" lon="16.0513729"><ele>587.5</ele><time>2026-04-27T13:13:01.386Z</time></trkpt><trkpt lat="44.5255512" lon="16.0515089"><ele>587.0</ele><time>2026-04-27T13:13:02.386Z</time></trkpt><trkpt lat="44.52564" lon="16.0516417"><ele>586.5</ele><time>2026-04-27T13:13:03.386Z</time></trkpt><trkpt lat="44.5257235" lon="16.0517862"><ele>586.0</ele><time>2026-04-27T13:13:04.386Z</time></trkpt><trkpt lat="44.5258072" lon="16.0519303"><ele>585.5</ele><time>2026-04-27T13:13:05.386Z</time></trkpt><trkpt lat="44.525898" lon="16.052062"><ele>585.0</ele><time>2026-04-27T13:13:06.386Z</time></trkpt><trkpt lat="44.5259856" lon="16.0521792"><ele>585.0</ele><time>2026-04-27T13:13:07.387Z</time></trkpt><trkpt lat="44.5260684" lon="16.0522964"><ele>585.0</ele><time>2026-04-27T13:13:08.386Z</time></trkpt><trkpt lat="44.5261404" lon="16.0524126"><ele>585.0</ele><time>2026-04-27T13:13:09.387Z</time></trkpt><trkpt lat="44.526211" lon="16.0525545"><ele>585.0</ele><time>2026-04-27T13:13:10.386Z</time></trkpt><trkpt lat="44.5262688" lon="16.0527051"><ele>584.25</ele><time>2026-04-27T13:13:11.386Z</time></trkpt><trkpt lat="44.5263292" lon="16.0528609"><ele>583.5</ele><time>2026-04-27T13:13:12.386Z</time></trkpt><trkpt lat="44.5263949" lon="16.0530229"><ele>582.75</ele><time>2026-04-27T13:13:13.386Z</time></trkpt><trkpt lat="44.5264645" lon="16.0531776"><ele>582.0</ele><time>2026-04-27T13:13:14.387Z</time></trkpt><trkpt lat="44.5265171" lon="16.0533281"><ele>581.6</ele><time>2026-04-27T13:13:15.386Z</time></trkpt><trkpt lat="44.5265784" lon="16.0534536"><ele>581.2</ele><time>2026-04-27T13:13:16.387Z</time></trkpt><trkpt lat="44.5266515" lon="16.0535616"><ele>580.8</ele><time>2026-04-27T13:13:17.386Z</time></trkpt><trkpt lat="44.5267253" lon="16.0536753"><ele>580.4</ele><time>2026-04-27T13:13:18.386Z</time></trkpt><trkpt lat="44.5267873" lon="16.0538053"><ele>580.0</ele><time>2026-04-27T13:13:19.386Z</time></trkpt><trkpt lat="44.5268507" lon="16.0539549"><ele>580.0</ele><time>2026-04-27T13:13:20.386Z</time></trkpt><trkpt lat="44.5269167" lon="16.0541164"><ele>580.0</ele><time>2026-04-27T13:13:21.386Z</time></trkpt><trkpt lat="44.5269954" lon="16.0542753"><ele>580.0</ele><time>2026-04-27T13:13:22.386Z</time></trkpt><trkpt lat="44.5270789" lon="16.0544225"><ele>580.0</ele><time>2026-04-27T13:13:23.386Z</time></trkpt><trkpt lat="44.5271506" lon="16.0545749"><ele>580.25</ele><time>2026-04-27T13:13:24.387Z</time></trkpt><trkpt lat="44.5272135" lon="16.0547374"><ele>580.5</ele><time>2026-04-27T13:13:25.387Z</time></trkpt><trkpt lat="44.5272776" lon="16.0549051"><ele>580.75</ele><time>2026-04-27T13:13:26.386Z</time></trkpt><trkpt lat="44.5273392" lon="16.0550666"><ele>581.0</ele><time>2026-04-27T13:13:27.386Z</time></trkpt><trkpt lat="44.5274148" lon="16.0552296"><ele>580.5</ele><time>2026-04-27T13:13:28.387Z</time></trkpt><trkpt lat="44.5274951" lon="16.0553885"><ele>580.0</ele><time>2026-04-27T13:13:29.386Z</time></trkpt><trkpt lat="44.5275768" lon="16.0555351"><ele>579.5</ele><time>2026-04-27T13:13:30.386Z</time></trkpt><trkpt lat="44.5276658" lon="16.0556848"><ele>579.0</ele><time>2026-04-27T13:13:31.386Z</time></trkpt><trkpt lat="44.5277586" lon="16.0558497"><ele>578.0</ele><time>2026-04-27T13:13:32.387Z</time></trkpt><trkpt lat="44.5278525" lon="16.0560259"><ele>577.0</ele><time>2026-04-27T13:13:33.387Z</time></trkpt><trkpt lat="44.5279469" lon="16.0562056"><ele>576.0</ele><time>2026-04-27T13:13:34.386Z</time></trkpt><trkpt lat="44.5280235" lon="16.0563683"><ele>576.0</ele><time>2026-04-27T13:13:35.386Z</time></trkpt><trkpt lat="44.5280836" lon="16.0565042"><ele>576.0</ele><time>2026-04-27T13:13:36.386Z</time></trkpt><trkpt lat="44.5281361" lon="16.056623"><ele>576.0</ele><time>2026-04-27T13:13:37.386Z</time></trkpt><trkpt lat="44.5282004" lon="16.0567199"><ele>576.0</ele><time>2026-04-27T13:13:38.386Z</time></trkpt><trkpt lat="44.5282771" lon="16.0568168"><ele>576.0</ele><time>2026-04-27T13:13:39.386Z</time></trkpt><trkpt lat="44.5283659" lon="16.0569126"><ele>575.8</ele><time>2026-04-27T13:13:40.386Z</time></trkpt><trkpt lat="44.5284565" lon="16.0570039"><ele>575.6</ele><time>2026-04-27T13:13:41.386Z</time></trkpt><trkpt lat="44.5285405" lon="16.0570733"><ele>575.4</ele><time>2026-04-27T13:13:42.387Z</time></trkpt><trkpt lat="44.5286296" lon="16.0571348"><ele>575.2</ele><time>2026-04-27T13:13:43.383Z</time></trkpt><trkpt lat="44.5287297" lon="16.0572058"><ele>575.0</ele><time>2026-04-27T13:13:44.387Z</time></trkpt><trkpt lat="44.5288288" lon="16.0572752"><ele>575.5</ele><time>2026-04-27T13:13:45.387Z</time></trkpt><trkpt lat="44.5289349" lon="16.057351"><ele>576.0</ele><time>2026-04-27T13:13:46.386Z</time></trkpt><trkpt lat="44.529042" lon="16.0574314"><ele>576.5</ele><time>2026-04-27T13:13:47.387Z</time></trkpt><trkpt lat="44.5291528" lon="16.0575204"><ele>577.0</ele><time>2026-04-27T13:13:48.386Z</time></trkpt><trkpt lat="44.5292598" lon="16.05761"><ele>577.0</ele><time>2026-04-27T13:13:49.386Z</time></trkpt><trkpt lat="44.5293649" lon="16.0576944"><ele>577.0</ele><time>2026-04-27T13:13:50.387Z</time></trkpt><trkpt lat="44.5294734" lon="16.0577732"><ele>577.0</ele><time>2026-04-27T13:13:51.386Z</time></trkpt><trkpt lat="44.5295762" lon="16.0578428"><ele>577.0</ele><time>2026-04-27T13:13:52.384Z</time></trkpt><trkpt lat="44.5296834" lon="16.0579083"><ele>578.0</ele><time>2026-04-27T13:13:53.387Z</time></trkpt><trkpt lat="44.5297958" lon="16.0579706"><ele>579.0</ele><time>2026-04-27T13:13:54.387Z</time></trkpt><trkpt lat="44.5299133" lon="16.0580337"><ele>580.0</ele><time>2026-04-27T13:13:55.386Z</time></trkpt><trkpt lat="44.5300342" lon="16.0580998"><ele>581.0</ele><time>2026-04-27T13:13:56.386Z</time></trkpt><trkpt lat="44.5301449" lon="16.0581603"><ele>581.0</ele><time>2026-04-27T13:13:57.386Z</time></trkpt><trkpt lat="44.5302443" lon="16.0582188"><ele>581.0</ele><time>2026-04-27T13:13:58.386Z</time></trkpt><trkpt lat="44.5303307" lon="16.0582798"><ele>581.0</ele><time>2026-04-27T13:13:59.386Z</time></trkpt><trkpt lat="44.5304145" lon="16.0583528"><ele>581.0</ele><time>2026-04-27T13:14:00.386Z</time></trkpt><trkpt lat="44.5305118" lon="16.058468"><ele>581.0</ele><time>2026-04-27T13:14:01.386Z</time></trkpt><trkpt lat="44.5306121" lon="16.0585894"><ele>580.5</ele><time>2026-04-27T13:14:02.386Z</time></trkpt><trkpt lat="44.5307069" lon="16.0586999"><ele>580.0</ele><time>2026-04-27T13:14:03.387Z</time></trkpt><trkpt lat="44.5307942" lon="16.0588145"><ele>579.5</ele><time>2026-04-27T13:14:04.386Z</time></trkpt><trkpt lat="44.5308776" lon="16.0589458"><ele>579.0</ele><time>2026-04-27T13:14:05.387Z</time></trkpt><trkpt lat="44.530955" lon="16.059091"><ele>579.0</ele><time>2026-04-27T13:14:06.386Z</time></trkpt><trkpt lat="44.5310172" lon="16.0592257"><ele>579.0</ele><time>2026-04-27T13:14:07.387Z</time></trkpt><trkpt lat="44.5310696" lon="16.0593628"><ele>579.0</ele><time>2026-04-27T13:14:08.387Z</time></trkpt><trkpt lat="44.5311168" lon="16.0594909"><ele>579.0</ele><time>2026-04-27T13:14:09.387Z</time></trkpt><trkpt lat="44.5311772" lon="16.0596003"><ele>579.0</ele><time>2026-04-27T13:14:10.386Z</time></trkpt><trkpt lat="44.5312581" lon="16.0596885"><ele>579.75</ele><time>2026-04-27T13:14:11.386Z</time></trkpt><trkpt lat="44.5313598" lon="16.0597663"><ele>580.5</ele><time>2026-04-27T13:14:12.386Z</time></trkpt><trkpt lat="44.531471" lon="16.0598227"><ele>581.25</ele><time>2026-04-27T13:14:13.386Z</time></trkpt><trkpt lat="44.5315856" lon="16.0598725"><ele>582.0</ele><time>2026-04-27T13:14:14.386Z</time></trkpt><trkpt lat="44.5317" lon="16.0599182"><ele>582.75</ele><time>2026-04-27T13:14:15.386Z</time></trkpt><trkpt lat="44.5318182" lon="16.0599968"><ele>583.5</ele><time>2026-04-27T13:14:16.386Z</time></trkpt><trkpt lat="44.5319334" lon="16.0600806"><ele>584.25</ele><time>2026-04-27T13:14:17.387Z</time></trkpt><trkpt lat="44.5320546" lon="16.060162"><ele>585.0</ele><time>2026-04-27T13:14:18.386Z</time></trkpt><trkpt lat="44.532184" lon="16.0602404"><ele>585.25</ele><time>2026-04-27T13:14:19.386Z</time></trkpt><trkpt lat="44.5323149" lon="16.06032"><ele>585.5</ele><time>2026-04-27T13:14:20.378Z</time></trkpt><trkpt lat="44.5324502" lon="16.0604032"><ele>585.75</ele><time>2026-04-27T13:14:21.386Z</time></trkpt><trkpt lat="44.5325768" lon="16.0604782"><ele>586.0</ele><time>2026-04-27T13:14:22.387Z</time></trkpt><trkpt lat="44.5327037" lon="16.0605525"><ele>586.0</ele><time>2026-04-27T13:14:23.386Z</time></trkpt><trkpt lat="44.5328176" lon="16.0606344"><ele>586.0</ele><time>2026-04-27T13:14:24.386Z</time></trkpt><trkpt lat="44.5329249" lon="16.0607325"><ele>586.0</ele><time>2026-04-27T13:14:25.386Z</time></trkpt><trkpt lat="44.5330192" lon="16.0608254"><ele>586.0</ele><time>2026-04-27T13:14:26.387Z</time></trkpt><trkpt lat="44.5330991" lon="16.0609242"><ele>586.8</ele><time>2026-04-27T13:14:27.387Z</time></trkpt><trkpt lat="44.5331519" lon="16.0610377"><ele>587.6</ele><time>2026-04-27T13:14:28.386Z</time></trkpt><trkpt lat="44.5331883" lon="16.0611779"><ele>588.4</ele><time>2026-04-27T13:14:29.386Z</time></trkpt><trkpt lat="44.5332122" lon="16.0613353"><ele>589.2</ele><time>2026-04-27T13:14:30.386Z</time></trkpt><trkpt lat="44.533224" lon="16.0615035"><ele>590.0</ele><time>2026-04-27T13:14:31.386Z</time></trkpt><trkpt lat="44.5332424" lon="16.0616733"><ele>590.75</ele><time>2026-04-27T13:14:32.386Z</time></trkpt><trkpt lat="44.5332865" lon="16.0618341"><ele>591.5</ele><time>2026-04-27T13:14:33.386Z</time></trkpt><trkpt lat="44.5333354" lon="16.0619696"><ele>592.25</ele><time>2026-04-27T13:14:34.386Z</time></trkpt><trkpt lat="44.5333965" lon="16.0620916"><ele>593.0</ele><time>2026-04-27T13:14:35.386Z</time></trkpt><trkpt lat="44.5334859" lon="16.0622378"><ele>593.0</ele><time>2026-04-27T13:14:36.386Z</time></trkpt><trkpt lat="44.5335853" lon="16.0624039"><ele>593.0</ele><time>2026-04-27T13:14:37.386Z</time></trkpt><trkpt lat="44.5336749" lon="16.0625642"><ele>593.0</ele><time>2026-04-27T13:14:38.387Z</time></trkpt><trkpt lat="44.5337547" lon="16.0627028"><ele>593.0</ele><time>2026-04-27T13:14:39.387Z</time></trkpt><trkpt lat="44.5338251" lon="16.0628226"><ele>593.75</ele><time>2026-04-27T13:14:40.386Z</time></trkpt><trkpt lat="44.5339046" lon="16.0629488"><ele>594.5</ele><time>2026-04-27T13:14:41.387Z</time></trkpt><trkpt lat="44.5339849" lon="16.063076"><ele>595.25</ele><time>2026-04-27T13:14:42.387Z</time></trkpt><trkpt lat="44.5340561" lon="16.0632056"><ele>596.0</ele><time>2026-04-27T13:14:43.386Z</time></trkpt><trkpt lat="44.5341092" lon="16.0633472"><ele>596.0</ele><time>2026-04-27T13:14:44.387Z</time></trkpt><trkpt lat="44.5341549" lon="16.0634974"><ele>596.0</ele><time>2026-04-27T13:14:45.386Z</time></trkpt><trkpt lat="44.5341984" lon="16.0636496"><ele>596.0</ele><time>2026-04-27T13:14:46.387Z</time></trkpt><trkpt lat="44.5342139" lon="16.0638139"><ele>596.0</ele><time>2026-04-27T13:14:47.386Z</time></trkpt><trkpt lat="44.5342229" lon="16.0639873"><ele>595.75</ele><time>2026-04-27T13:14:48.386Z</time></trkpt><trkpt lat="44.5342094" lon="16.0641661"><ele>595.5</ele><time>2026-04-27T13:14:49.386Z</time></trkpt><trkpt lat="44.5341943" lon="16.0643539"><ele>595.25</ele><time>2026-04-27T13:14:50.386Z</time></trkpt><trkpt lat="44.5341881" lon="16.0645462"><ele>595.0</ele><time>2026-04-27T13:14:51.386Z</time></trkpt><trkpt lat="44.5341783" lon="16.0647322"><ele>595.0</ele><time>2026-04-27T13:14:52.386Z</time></trkpt><trkpt lat="44.534172" lon="16.0649174"><ele>595.0</ele><time>2026-04-27T13:14:53.386Z</time></trkpt><trkpt lat="44.5341801" lon="16.0651079"><ele>595.0</ele><time>2026-04-27T13:14:54.381Z</time></trkpt><trkpt lat="44.5341963" lon="16.0652998"><ele>595.0</ele><time>2026-04-27T13:14:55.385Z</time></trkpt><trkpt lat="44.5342078" lon="16.0655073"><ele>595.75</ele><time>2026-04-27T13:14:56.386Z</time></trkpt><trkpt lat="44.5342151" lon="16.0657157"><ele>596.5</ele><time>2026-04-27T13:14:57.386Z</time></trkpt><trkpt lat="44.5342106" lon="16.0659156"><ele>597.25</ele><time>2026-04-27T13:14:58.387Z</time></trkpt><trkpt lat="44.5341929" lon="16.0660971"><ele>598.0</ele><time>2026-04-27T13:14:59.387Z</time></trkpt><trkpt lat="44.5341431" lon="16.0662646"><ele>598.6</ele><time>2026-04-27T13:15:00.386Z</time></trkpt><trkpt lat="44.5341066" lon="16.0664274"><ele>599.1999999999999</ele><time>2026-04-27T13:15:01.387Z</time></trkpt><trkpt lat="44.5340871" lon="16.0665724"><ele>599.8</ele><time>2026-04-27T13:15:02.385Z</time></trkpt><trkpt lat="44.5340952" lon="16.0667081"><ele>600.4</ele><time>2026-04-27T13:15:03.386Z</time></trkpt><trkpt lat="44.5341167" lon="16.0668508"><ele>601.0</ele><time>2026-04-27T13:15:04.386Z</time></trkpt><trkpt lat="44.5341462" lon="16.0670118"><ele>601.25</ele><time>2026-04-27T13:15:05.386Z</time></trkpt><trkpt lat="44.5341961" lon="16.0671805"><ele>601.5</ele><time>2026-04-27T13:15:06.386Z</time></trkpt><trkpt lat="44.5342605" lon="16.0673199"><ele>601.75</ele><time>2026-04-27T13:15:07.386Z</time></trkpt><trkpt lat="44.5343255" lon="16.067446"><ele>602.0</ele><time>2026-04-27T13:15:08.387Z</time></trkpt><trkpt lat="44.534405" lon="16.0675733"><ele>602.0</ele><time>2026-04-27T13:15:09.387Z</time></trkpt><trkpt lat="44.534496" lon="16.0676952"><ele>602.0</ele><time>2026-04-27T13:15:10.386Z</time></trkpt><trkpt lat="44.5345492" lon="16.0678011"><ele>602.0</ele><time>2026-04-27T13:15:11.386Z</time></trkpt><trkpt lat="44.5345801" lon="16.0679059"><ele>602.0</ele><time>2026-04-27T13:15:12.386Z</time></trkpt><trkpt lat="44.5345899" lon="16.0680247"><ele>602.0</ele><time>2026-04-27T13:15:13.386Z</time></trkpt><trkpt lat="44.5345731" lon="16.0681469"><ele>601.5</ele><time>2026-04-27T13:15:14.385Z</time></trkpt><trkpt lat="44.5345354" lon="16.0682822"><ele>601.0</ele><time>2026-04-27T13:15:15.386Z</time></trkpt><trkpt lat="44.5344807" lon="16.0684375"><ele>600.5</ele><time>2026-04-27T13:15:16.386Z</time></trkpt><trkpt lat="44.5344183" lon="16.0685994"><ele>600.0</ele><time>2026-04-27T13:15:17.386Z</time></trkpt><trkpt lat="44.534342" lon="16.0687592"><ele>600.0</ele><time>2026-04-27T13:15:18.386Z</time></trkpt><trkpt lat="44.5342521" lon="16.0689234"><ele>600.0</ele><time>2026-04-27T13:15:19.385Z</time></trkpt><trkpt lat="44.5341609" lon="16.0690984"><ele>600.0</ele><time>2026-04-27T13:15:20.387Z</time></trkpt><trkpt lat="44.5340698" lon="16.06928"><ele>601.0</ele><time>2026-04-27T13:15:21.386Z</time></trkpt><trkpt lat="44.533977" lon="16.0694628"><ele>602.0</ele><time>2026-04-27T13:15:22.386Z</time></trkpt><trkpt lat="44.5338805" lon="16.0696448"><ele>603.0</ele><time>2026-04-27T13:15:23.386Z</time></trkpt><trkpt lat="44.5337848" lon="16.0698077"><ele>602.75</ele><time>2026-04-27T13:15:24.387Z</time></trkpt><trkpt lat="44.5337017" lon="16.0699532"><ele>602.5</ele><time>2026-04-27T13:15:25.375Z</time></trkpt><trkpt lat="44.5336364" lon="16.0700867"><ele>602.25</ele><time>2026-04-27T13:15:26.386Z</time></trkpt><trkpt lat="44.5335796" lon="16.0702232"><ele>602.0</ele><time>2026-04-27T13:15:27.386Z</time></trkpt><trkpt lat="44.533527" lon="16.0703733"><ele>602.0</ele><time>2026-04-27T13:15:28.386Z</time></trkpt><trkpt lat="44.5334789" lon="16.070534"><ele>602.0</ele><time>2026-04-27T13:15:29.386Z</time></trkpt><trkpt lat="44.5334389" lon="16.0707091"><ele>602.0</ele><time>2026-04-27T13:15:30.386Z</time></trkpt><trkpt lat="44.5334047" lon="16.0708919"><ele>602.0</ele><time>2026-04-27T13:15:31.386Z</time></trkpt><trkpt lat="44.5333742" lon="16.0710822"><ele>603.75</ele><time>2026-04-27T13:15:32.386Z</time></trkpt><trkpt lat="44.533346" lon="16.0712776"><ele>605.5</ele><time>2026-04-27T13:15:33.386Z</time></trkpt><trkpt lat="44.5333241" lon="16.0714604"><ele>607.25</ele><time>2026-04-27T13:15:34.386Z</time></trkpt><trkpt lat="44.5333092" lon="16.0716316"><ele>609.0</ele><time>2026-04-27T13:15:35.387Z</time></trkpt><trkpt lat="44.53329" lon="16.0718096"><ele>609.75</ele><time>2026-04-27T13:15:36.386Z</time></trkpt><trkpt lat="44.5332515" lon="16.0719963"><ele>610.5</ele><time>2026-04-27T13:15:37.386Z</time></trkpt><trkpt lat="44.5331916" lon="16.0721757"><ele>611.25</ele><time>2026-04-27T13:15:38.386Z</time></trkpt><trkpt lat="44.5331365" lon="16.0723297"><ele>612.0</ele><time>2026-04-27T13:15:39.386Z</time></trkpt><trkpt lat="44.5330966" lon="16.072483"><ele>613.25</ele><time>2026-04-27T13:15:40.387Z</time></trkpt><trkpt lat="44.5330654" lon="16.0726475"><ele>614.5</ele><time>2026-04-27T13:15:41.386Z</time></trkpt><trkpt lat="44.5330366" lon="16.0728023"><ele>615.75</ele><time>2026-04-27T13:15:42.386Z</time></trkpt><trkpt lat="44.5329982" lon="16.072956"><ele>617.0</ele><time>2026-04-27T13:15:43.386Z</time></trkpt><trkpt lat="44.5329466" lon="16.0731246"><ele>614.25</ele><time>2026-04-27T13:15:44.386Z</time></trkpt><trkpt lat="44.5328757" lon="16.0732759"><ele>611.5</ele><time>2026-04-27T13:15:45.386Z</time></trkpt><trkpt lat="44.5328053" lon="16.0734217"><ele>608.75</ele><time>2026-04-27T13:15:46.386Z</time></trkpt><trkpt lat="44.5327492" lon="16.0735687"><ele>606.0</ele><time>2026-04-27T13:15:47.386Z</time></trkpt><trkpt lat="44.5326983" lon="16.0737216"><ele>606.0</ele><time>2026-04-27T13:15:48.386Z</time></trkpt><trkpt lat="44.5326646" lon="16.0739063"><ele>606.0</ele><time>2026-04-27T13:15:49.386Z</time></trkpt><trkpt lat="44.5326371" lon="16.074105"><ele>606.0</ele><time>2026-04-27T13:15:50.386Z</time></trkpt><trkpt lat="44.5326004" lon="16.0743109"><ele>606.0</ele><time>2026-04-27T13:15:51.386Z</time></trkpt><trkpt lat="44.5325591" lon="16.0744967"><ele>607.25</ele><time>2026-04-27T13:15:52.386Z</time></trkpt><trkpt lat="44.53252" lon="16.0746696"><ele>608.5</ele><time>2026-04-27T13:15:53.386Z</time></trkpt><trkpt lat="44.5325015" lon="16.0748365"><ele>609.75</ele><time>2026-04-27T13:15:54.386Z</time></trkpt><trkpt lat="44.532497" lon="16.0750093"><ele>611.0</ele><time>2026-04-27T13:15:55.386Z</time></trkpt><trkpt lat="44.5325019" lon="16.0751905"><ele>613.0</ele><time>2026-04-27T13:15:56.386Z</time></trkpt><trkpt lat="44.5325136" lon="16.0753766"><ele>615.0</ele><time>2026-04-27T13:15:57.386Z</time></trkpt><trkpt lat="44.532528" lon="16.0755573"><ele>617.0</ele><time>2026-04-27T13:15:58.386Z</time></trkpt><trkpt lat="44.5325391" lon="16.0757305"><ele>619.0</ele><time>2026-04-27T13:15:59.386Z</time></trkpt><trkpt lat="44.5325377" lon="16.0758959"><ele>619.0</ele><time>2026-04-27T13:16:00.386Z</time></trkpt><trkpt lat="44.53251" lon="16.0760378"><ele>619.0</ele><time>2026-04-27T13:16:01.387Z</time></trkpt><trkpt lat="44.532463" lon="16.0761926"><ele>619.0</ele><time>2026-04-27T13:16:02.386Z</time></trkpt><trkpt lat="44.5324154" lon="16.0763561"><ele>619.0</ele><time>2026-04-27T13:16:03.386Z</time></trkpt><trkpt lat="44.5323667" lon="16.0765338"><ele>618.75</ele><time>2026-04-27T13:16:04.386Z</time></trkpt><trkpt lat="44.5323281" lon="16.0767161"><ele>618.5</ele><time>2026-04-27T13:16:05.386Z</time></trkpt><trkpt lat="44.5323095" lon="16.0768901"><ele>618.25</ele><time>2026-04-27T13:16:06.386Z</time></trkpt><trkpt lat="44.5323011" lon="16.0770472"><ele>618.0</ele><time>2026-04-27T13:16:07.386Z</time></trkpt><trkpt lat="44.5323149" lon="16.0772085"><ele>618.0</ele><time>2026-04-27T13:16:08.386Z</time></trkpt><trkpt lat="44.5323283" lon="16.0773655"><ele>618.0</ele><time>2026-04-27T13:16:09.387Z</time></trkpt><trkpt lat="44.5323669" lon="16.0775333"><ele>618.0</ele><time>2026-04-27T13:16:10.386Z</time></trkpt><trkpt lat="44.532415" lon="16.0776524"><ele>618.0</ele><time>2026-04-27T13:16:11.386Z</time></trkpt><trkpt lat="44.5324425" lon="16.0777733"><ele>618.0</ele><time>2026-04-27T13:16:12.386Z</time></trkpt><trkpt lat="44.5324749" lon="16.0778978"><ele>618.6</ele><time>2026-04-27T13:16:13.386Z</time></trkpt><trkpt lat="44.5324755" lon="16.078043"><ele>619.1999999999999</ele><time>2026-04-27T13:16:14.387Z</time></trkpt><trkpt lat="44.5324675" lon="16.0782188"><ele>619.8</ele><time>2026-04-27T13:16:15.383Z</time></trkpt><trkpt lat="44.5324434" lon="16.0783519"><ele>620.4</ele><time>2026-04-27T13:16:16.38Z</time></trkpt><trkpt lat="44.5323899" lon="16.0784674"><ele>621.0</ele><time>2026-04-27T13:16:17.386Z</time></trkpt><trkpt lat="44.5322943" lon="16.0785758"><ele>622.6</ele><time>2026-04-27T13:16:18.387Z</time></trkpt><trkpt lat="44.5322193" lon="16.0786864"><ele>624.2</ele><time>2026-04-27T13:16:19.386Z</time></trkpt><trkpt lat="44.5321643" lon="16.0788213"><ele>625.8</ele><time>2026-04-27T13:16:20.386Z</time></trkpt><trkpt lat="44.5321308" lon="16.0789702"><ele>627.4</ele><time>2026-04-27T13:16:21.386Z</time></trkpt><trkpt lat="44.5321157" lon="16.0791306"><ele>629.0</ele><time>2026-04-27T13:16:22.386Z</time></trkpt><trkpt lat="44.532101" lon="16.0793025"><ele>627.25</ele><time>2026-04-27T13:16:23.386Z</time></trkpt><trkpt lat="44.5320801" lon="16.079483"><ele>625.5</ele><time>2026-04-27T13:16:24.386Z</time></trkpt><trkpt lat="44.5320516" lon="16.0796684"><ele>623.75</ele><time>2026-04-27T13:16:25.386Z</time></trkpt><trkpt lat="44.5320084" lon="16.0798497"><ele>622.0</ele><time>2026-04-27T13:16:26.386Z</time></trkpt><trkpt lat="44.5319631" lon="16.0800278"><ele>622.0</ele><time>2026-04-27T13:16:27.382Z</time></trkpt><trkpt lat="44.5319299" lon="16.0801979"><ele>622.0</ele><time>2026-04-27T13:16:28.387Z</time></trkpt><trkpt lat="44.5318916" lon="16.0803656"><ele>622.0</ele><time>2026-04-27T13:16:29.386Z</time></trkpt><trkpt lat="44.5318478" lon="16.0805124"><ele>622.0</ele><time>2026-04-27T13:16:30.386Z</time></trkpt><trkpt lat="44.5318175" lon="16.0806604"><ele>623.5</ele><time>2026-04-27T13:16:31.386Z</time></trkpt><trkpt lat="44.5317949" lon="16.0808225"><ele>625.0</ele><time>2026-04-27T13:16:32.387Z</time></trkpt><trkpt lat="44.5317829" lon="16.0809872"><ele>626.5</ele><time>2026-04-27T13:16:33.384Z</time></trkpt><trkpt lat="44.5317779" lon="16.0811497"><ele>628.0</ele><time>2026-04-27T13:16:34.386Z</time></trkpt><trkpt lat="44.5317798" lon="16.0813221"><ele>628.0</ele><time>2026-04-27T13:16:35.387Z</time></trkpt><trkpt lat="44.531782" lon="16.0814563"><ele>628.0</ele><time>2026-04-27T13:16:36.387Z</time></trkpt><trkpt lat="44.5318067" lon="16.0815851"><ele>628.0</ele><time>2026-04-27T13:16:37.386Z</time></trkpt><trkpt lat="44.5318575" lon="16.081752"><ele>628.0</ele><time>2026-04-27T13:16:38.386Z</time></trkpt><trkpt lat="44.5319086" lon="16.0819058"><ele>628.0</ele><time>2026-04-27T13:16:39.386Z</time></trkpt><trkpt lat="44.5319664" lon="16.082073"><ele>628.5</ele><time>2026-04-27T13:16:40.387Z</time></trkpt><trkpt lat="44.5320191" lon="16.0822232"><ele>629.0</ele><time>2026-04-27T13:16:41.386Z</time></trkpt><trkpt lat="44.5320772" lon="16.0823611"><ele>629.5</ele><time>2026-04-27T13:16:42.386Z</time></trkpt><trkpt lat="44.5321335" lon="16.0824873"><ele>630.0</ele><time>2026-04-27T13:16:43.386Z</time></trkpt><trkpt lat="44.5322157" lon="16.0826096"><ele>632.75</ele><time>2026-04-27T13:16:44.386Z</time></trkpt><trkpt lat="44.5322952" lon="16.0827294"><ele>635.5</ele><time>2026-04-27T13:16:45.386Z</time></trkpt><trkpt lat="44.5323842" lon="16.0828397"><ele>638.25</ele><time>2026-04-27T13:16:46.386Z</time></trkpt><trkpt lat="44.5324873" lon="16.0829684"><ele>641.0</ele><time>2026-04-27T13:16:47.386Z</time></trkpt><trkpt lat="44.5325926" lon="16.0830989"><ele>641.0</ele><time>2026-04-27T13:16:48.386Z</time></trkpt><trkpt lat="44.5327025" lon="16.0832221"><ele>641.0</ele><time>2026-04-27T13:16:49.386Z</time></trkpt><trkpt lat="44.5328064" lon="16.0833396"><ele>641.0</ele><time>2026-04-27T13:16:50.386Z</time></trkpt><trkpt lat="44.5329172" lon="16.0834344"><ele>641.0</ele><time>2026-04-27T13:16:51.386Z</time></trkpt><trkpt lat="44.5330092" lon="16.0835316"><ele>641.75</ele><time>2026-04-27T13:16:52.387Z</time></trkpt><trkpt lat="44.5331013" lon="16.0836242"><ele>642.5</ele><time>2026-04-27T13:16:53.386Z</time></trkpt><trkpt lat="44.5331852" lon="16.0837418"><ele>643.25</ele><time>2026-04-27T13:16:54.386Z</time></trkpt><trkpt lat="44.5332755" lon="16.0838528"><ele>644.0</ele><time>2026-04-27T13:16:55.387Z</time></trkpt><trkpt lat="44.5333612" lon="16.083965"><ele>644.0</ele><time>2026-04-27T13:16:56.386Z</time></trkpt><trkpt lat="44.5334383" lon="16.0840713"><ele>644.0</ele><time>2026-04-27T13:16:57.386Z</time></trkpt><trkpt lat="44.533525" lon="16.0841684"><ele>644.0</ele><time>2026-04-27T13:16:58.379Z</time></trkpt><trkpt lat="44.5336075" lon="16.08427"><ele>644.0</ele><time>2026-04-27T13:16:59.386Z</time></trkpt><trkpt lat="44.5336937" lon="16.0843662"><ele>644.0</ele><time>2026-04-27T13:17:00.386Z</time></trkpt><trkpt lat="44.5337835" lon="16.0844666"><ele>644.0</ele><time>2026-04-27T13:17:01.386Z</time></trkpt><trkpt lat="44.5338797" lon="16.0845604"><ele>644.0</ele><time>2026-04-27T13:17:02.386Z</time></trkpt><trkpt lat="44.5339581" lon="16.0846649"><ele>644.0</ele><time>2026-04-27T13:17:03.387Z</time></trkpt><trkpt lat="44.5340384" lon="16.0847699"><ele>644.0</ele><time>2026-04-27T13:17:04.387Z</time></trkpt><trkpt lat="44.5340869" lon="16.0848744"><ele>644.0</ele><time>2026-04-27T13:17:05.387Z</time></trkpt><trkpt lat="44.5340948" lon="16.0849702"><ele>644.0</ele><time>2026-04-27T13:17:06.386Z</time></trkpt><trkpt lat="44.5341113" lon="16.0850925"><ele>644.0</ele><time>2026-04-27T13:17:07.386Z</time></trkpt><trkpt lat="44.534093" lon="16.0852104"><ele>644.0</ele><time>2026-04-27T13:17:08.387Z</time></trkpt><trkpt lat="44.5340831" lon="16.085335"><ele>644.0</ele><time>2026-04-27T13:17:09.386Z</time></trkpt><trkpt lat="44.534067" lon="16.085468"><ele>644.0</ele><time>2026-04-27T13:17:10.387Z</time></trkpt><trkpt lat="44.5340483" lon="16.0855896"><ele>644.0</ele><time>2026-04-27T13:17:11.387Z</time></trkpt><trkpt lat="44.5340096" lon="16.0857026"><ele>643.2</ele><time>2026-04-27T13:17:12.386Z</time></trkpt><trkpt lat="44.533977" lon="16.0858154"><ele>642.4000000000001</ele><time>2026-04-27T13:17:13.386Z</time></trkpt><trkpt lat="44.5339459" lon="16.0859376"><ele>641.6</ele><time>2026-04-27T13:17:14.387Z</time></trkpt><trkpt lat="44.5339167" lon="16.0860819"><ele>640.8</ele><time>2026-04-27T13:17:15.387Z</time></trkpt><trkpt lat="44.5338883" lon="16.0862315"><ele>640.0</ele><time>2026-04-27T13:17:16.387Z</time></trkpt><trkpt lat="44.533854" lon="16.0863763"><ele>640.0</ele><time>2026-04-27T13:17:17.386Z</time></trkpt><trkpt lat="44.5338144" lon="16.0865224"><ele>640.0</ele><time>2026-04-27T13:17:18.387Z</time></trkpt><trkpt lat="44.5337738" lon="16.0866648"><ele>640.0</ele><time>2026-04-27T13:17:19.386Z</time></trkpt><trkpt lat="44.5337362" lon="16.0867976"><ele>640.0</ele><time>2026-04-27T13:17:20.386Z</time></trkpt><trkpt lat="44.5337006" lon="16.0869198"><ele>640.0</ele><time>2026-04-27T13:17:21.387Z</time></trkpt><trkpt lat="44.5336608" lon="16.0870376"><ele>638.4</ele><time>2026-04-27T13:17:22.387Z</time></trkpt><trkpt lat="44.5335999" lon="16.0871486"><ele>636.8</ele><time>2026-04-27T13:17:23.386Z</time></trkpt><trkpt lat="44.5335275" lon="16.0872585"><ele>635.2</ele><time>2026-04-27T13:17:24.386Z</time></trkpt><trkpt lat="44.5334509" lon="16.0873641"><ele>633.6</ele><time>2026-04-27T13:17:25.386Z</time></trkpt><trkpt lat="44.5333792" lon="16.0874666"><ele>632.0</ele><time>2026-04-27T13:17:26.386Z</time></trkpt><trkpt lat="44.5333148" lon="16.0875823"><ele>632.0</ele><time>2026-04-27T13:17:27.387Z</time></trkpt><trkpt lat="44.5332557" lon="16.0877051"><ele>632.0</ele><time>2026-04-27T13:17:28.386Z</time></trkpt><trkpt lat="44.5331907" lon="16.087819"><ele>632.0</ele><time>2026-04-27T13:17:29.386Z</time></trkpt><trkpt lat="44.5331239" lon="16.0879269"><ele>632.0</ele><time>2026-04-27T13:17:30.386Z</time></trkpt><trkpt lat="44.5330616" lon="16.0880145"><ele>632.0</ele><time>2026-04-27T13:17:31.386Z</time></trkpt><trkpt lat="44.5329941" lon="16.0881135"><ele>632.0</ele><time>2026-04-27T13:17:32.387Z</time></trkpt><trkpt lat="44.5329369" lon="16.088217"><ele>632.0</ele><time>2026-04-27T13:17:33.386Z</time></trkpt><trkpt lat="44.5328822" lon="16.0883244"><ele>632.0</ele><time>2026-04-27T13:17:34.387Z</time></trkpt><trkpt lat="44.5328288" lon="16.0884372"><ele>632.0</ele><time>2026-04-27T13:17:35.386Z</time></trkpt><trkpt lat="44.5327685" lon="16.0885817"><ele>632.0</ele><time>2026-04-27T13:17:36.387Z</time></trkpt><trkpt lat="44.5327145" lon="16.0887313"><ele>631.0</ele><time>2026-04-27T13:17:37.387Z</time></trkpt><trkpt lat="44.5326641" lon="16.088874"><ele>630.0</ele><time>2026-04-27T13:17:38.386Z</time></trkpt><trkpt lat="44.532606" lon="16.0890168"><ele>629.0</ele><time>2026-04-27T13:17:39.387Z</time></trkpt><trkpt lat="44.5325533" lon="16.0891611"><ele>628.0</ele><time>2026-04-27T13:17:40.386Z</time></trkpt><trkpt lat="44.5325064" lon="16.0893099"><ele>628.0</ele><time>2026-04-27T13:17:41.386Z</time></trkpt><trkpt lat="44.5324608" lon="16.0894643"><ele>628.0</ele><time>2026-04-27T13:17:42.386Z</time></trkpt><trkpt lat="44.532415" lon="16.0896076"><ele>628.0</ele><time>2026-04-27T13:17:43.386Z</time></trkpt><trkpt lat="44.5323484" lon="16.089735"><ele>628.0</ele><time>2026-04-27T13:17:44.386Z</time></trkpt><trkpt lat="44.5322687" lon="16.0898471"><ele>629.0</ele><time>2026-04-27T13:17:45.385Z</time></trkpt><trkpt lat="44.5321902" lon="16.0899682"><ele>630.0</ele><time>2026-04-27T13:17:46.386Z</time></trkpt><trkpt lat="44.5321104" lon="16.0901217"><ele>631.0</ele><time>2026-04-27T13:17:47.386Z</time></trkpt><trkpt lat="44.5320371" lon="16.0902746"><ele>632.0</ele><time>2026-04-27T13:17:48.387Z</time></trkpt><trkpt lat="44.5319666" lon="16.090422"><ele>629.25</ele><time>2026-04-27T13:17:49.387Z</time></trkpt><trkpt lat="44.5318968" lon="16.09058"><ele>626.5</ele><time>2026-04-27T13:17:50.387Z</time></trkpt><trkpt lat="44.5318287" lon="16.0907448"><ele>623.75</ele><time>2026-04-27T13:17:51.386Z</time></trkpt><trkpt lat="44.5317582" lon="16.0908952"><ele>621.0</ele><time>2026-04-27T13:17:52.386Z</time></trkpt><trkpt lat="44.531682" lon="16.0910397"><ele>621.0</ele><time>2026-04-27T13:17:53.386Z</time></trkpt><trkpt lat="44.5316036" lon="16.0911823"><ele>621.0</ele><time>2026-04-27T13:17:54.386Z</time></trkpt><trkpt lat="44.5315261" lon="16.091336"><ele>621.0</ele><time>2026-04-27T13:17:55.386Z</time></trkpt><trkpt lat="44.5314428" lon="16.0914816"><ele>621.0</ele><time>2026-04-27T13:17:56.384Z</time></trkpt><trkpt lat="44.5313584" lon="16.0916165"><ele>620.75</ele><time>2026-04-27T13:17:57.387Z</time></trkpt><trkpt lat="44.5312653" lon="16.0917464"><ele>620.5</ele><time>2026-04-27T13:17:58.386Z</time></trkpt><trkpt lat="44.5311643" lon="16.091881"><ele>620.25</ele><time>2026-04-27T13:17:59.386Z</time></trkpt><trkpt lat="44.5310773" lon="16.0920194"><ele>620.0</ele><time>2026-04-27T13:18:00.386Z</time></trkpt><trkpt lat="44.5309913" lon="16.0921412"><ele>619.5</ele><time>2026-04-27T13:18:01.386Z</time></trkpt><trkpt lat="44.5309049" lon="16.0922573"><ele>619.0</ele><time>2026-04-27T13:18:02.386Z</time></trkpt><trkpt lat="44.5308114" lon="16.0923543"><ele>618.5</ele><time>2026-04-27T13:18:03.386Z</time></trkpt><trkpt lat="44.5307099" lon="16.0924"><ele>618.0</ele><time>2026-04-27T13:18:04.386Z</time></trkpt><trkpt lat="44.5305913" lon="16.0924432"><ele>618.0</ele><time>2026-04-27T13:18:05.386Z</time></trkpt><trkpt lat="44.5304755" lon="16.0924896"><ele>618.0</ele><time>2026-04-27T13:18:06.386Z</time></trkpt><trkpt lat="44.530365" lon="16.0925393"><ele>618.0</ele><time>2026-04-27T13:18:07.386Z</time></trkpt><trkpt lat="44.5302486" lon="16.0926001"><ele>618.0</ele><time>2026-04-27T13:18:08.386Z</time></trkpt><trkpt lat="44.5301355" lon="16.0926645"><ele>616.25</ele><time>2026-04-27T13:18:09.387Z</time></trkpt><trkpt lat="44.5300348" lon="16.0927183"><ele>614.5</ele><time>2026-04-27T13:18:10.386Z</time></trkpt><trkpt lat="44.5299285" lon="16.0927358"><ele>612.75</ele><time>2026-04-27T13:18:11.386Z</time></trkpt><trkpt lat="44.529806" lon="16.0927252"><ele>611.0</ele><time>2026-04-27T13:18:12.386Z</time></trkpt><trkpt lat="44.5296933" lon="16.0927002"><ele>611.0</ele><time>2026-04-27T13:18:13.386Z</time></trkpt><trkpt lat="44.5295824" lon="16.0926704"><ele>611.0</ele><time>2026-04-27T13:18:14.386Z</time></trkpt><trkpt lat="44.5294769" lon="16.0926805"><ele>611.0</ele><time>2026-04-27T13:18:15.386Z</time></trkpt><trkpt lat="44.5293596" lon="16.0927142"><ele>611.0</ele><time>2026-04-27T13:18:16.386Z</time></trkpt><trkpt lat="44.5292424" lon="16.0927497"><ele>612.0</ele><time>2026-04-27T13:18:17.386Z</time></trkpt><trkpt lat="44.5291167" lon="16.0927973"><ele>613.0</ele><time>2026-04-27T13:18:18.387Z</time></trkpt><trkpt lat="44.5290201" lon="16.0928625"><ele>614.0</ele><time>2026-04-27T13:18:19.386Z</time></trkpt><trkpt lat="44.5289221" lon="16.0929559"><ele>615.0</ele><time>2026-04-27T13:18:20.387Z</time></trkpt><trkpt lat="44.5288225" lon="16.0930357"><ele>617.25</ele><time>2026-04-27T13:18:21.386Z</time></trkpt><trkpt lat="44.5287219" lon="16.093079"><ele>619.5</ele><time>2026-04-27T13:18:22.386Z</time></trkpt><trkpt lat="44.5286125" lon="16.0930793"><ele>621.75</ele><time>2026-04-27T13:18:23.387Z</time></trkpt><trkpt lat="44.5284835" lon="16.0930682"><ele>624.0</ele><time>2026-04-27T13:18:24.387Z</time></trkpt><trkpt lat="44.5283685" lon="16.0930398"><ele>624.0</ele><time>2026-04-27T13:18:25.387Z</time></trkpt><trkpt lat="44.5282559" lon="16.0929931"><ele>624.0</ele><time>2026-04-27T13:18:26.386Z</time></trkpt><trkpt lat="44.5281752" lon="16.0929698"><ele>624.0</ele><time>2026-04-27T13:18:27.387Z</time></trkpt><trkpt lat="44.5280912" lon="16.0929733"><ele>624.0</ele><time>2026-04-27T13:18:28.387Z</time></trkpt><trkpt lat="44.528002" lon="16.0930026"><ele>624.0</ele><time>2026-04-27T13:18:29.386Z</time></trkpt><trkpt lat="44.5278901" lon="16.0930645"><ele>623.75</ele><time>2026-04-27T13:18:30.386Z</time></trkpt><trkpt lat="44.5277701" lon="16.0931259"><ele>623.5</ele><time>2026-04-27T13:18:31.387Z</time></trkpt><trkpt lat="44.5276386" lon="16.0931775"><ele>623.25</ele><time>2026-04-27T13:18:32.386Z</time></trkpt><trkpt lat="44.5275206" lon="16.0932212"><ele>623.0</ele><time>2026-04-27T13:18:33.386Z</time></trkpt><trkpt lat="44.5274015" lon="16.0932658"><ele>622.75</ele><time>2026-04-27T13:18:34.386Z</time></trkpt><trkpt lat="44.5272675" lon="16.0933384"><ele>622.5</ele><time>2026-04-27T13:18:35.387Z</time></trkpt><trkpt lat="44.5271398" lon="16.0933962"><ele>622.25</ele><time>2026-04-27T13:18:36.386Z</time></trkpt><trkpt lat="44.5269993" lon="16.0934447"><ele>622.0</ele><time>2026-04-27T13:18:37.386Z</time></trkpt><trkpt lat="44.5268673" lon="16.093497"><ele>622.0</ele><time>2026-04-27T13:18:38.386Z</time></trkpt><trkpt lat="44.5267384" lon="16.0935569"><ele>622.0</ele><time>2026-04-27T13:18:39.386Z</time></trkpt><trkpt lat="44.5266329" lon="16.0936278"><ele>622.0</ele><time>2026-04-27T13:18:40.387Z</time></trkpt><trkpt lat="44.5265289" lon="16.0936889"><ele>622.0</ele><time>2026-04-27T13:18:41.386Z</time></trkpt><trkpt lat="44.5264388" lon="16.0937486"><ele>622.0</ele><time>2026-04-27T13:18:42.386Z</time></trkpt><trkpt lat="44.526363" lon="16.0937718"><ele>622.0</ele><time>2026-04-27T13:18:43.386Z</time></trkpt><trkpt lat="44.5262593" lon="16.093746"><ele>622.0</ele><time>2026-04-27T13:18:45.386Z</time></trkpt><trkpt lat="44.5261936" lon="16.0937047"><ele>622.0</ele><time>2026-04-27T13:18:46.386Z</time></trkpt><trkpt lat="44.5261316" lon="16.0936399"><ele>622.0</ele><time>2026-04-27T13:18:47.386Z</time></trkpt><trkpt lat="44.5260669" lon="16.0935456"><ele>622.0</ele><time>2026-04-27T13:18:48.386Z</time></trkpt><trkpt lat="44.5260013" lon="16.0934562"><ele>622.2</ele><time>2026-04-27T13:18:49.386Z</time></trkpt><trkpt lat="44.5259365" lon="16.0933935"><ele>622.4000000000001</ele><time>2026-04-27T13:18:50.386Z</time></trkpt><trkpt lat="44.5258656" lon="16.0933603"><ele>622.5999999999999</ele><time>2026-04-27T13:18:51.386Z</time></trkpt><trkpt lat="44.5257604" lon="16.0933545"><ele>622.8</ele><time>2026-04-27T13:18:52.386Z</time></trkpt><trkpt lat="44.5256466" lon="16.0933556"><ele>623.0</ele><time>2026-04-27T13:18:53.386Z</time></trkpt><trkpt lat="44.5255357" lon="16.093373"><ele>623.0</ele><time>2026-04-27T13:18:54.385Z</time></trkpt><trkpt lat="44.5254248" lon="16.0933917"><ele>623.0</ele><time>2026-04-27T13:18:55.387Z</time></trkpt><trkpt lat="44.5253301" lon="16.0933843"><ele>623.0</ele><time>2026-04-27T13:18:56.386Z</time></trkpt><trkpt lat="44.5252391" lon="16.0933663"><ele>623.0</ele><time>2026-04-27T13:18:57.387Z</time></trkpt><trkpt lat="44.5251571" lon="16.0933213"><ele>623.0</ele><time>2026-04-27T13:18:58.386Z</time></trkpt><trkpt lat="44.5250692" lon="16.0932432"><ele>623.25</ele><time>2026-04-27T13:18:59.387Z</time></trkpt><trkpt lat="44.5249779" lon="16.0931536"><ele>623.5</ele><time>2026-04-27T13:19:00.386Z</time></trkpt><trkpt lat="44.5248888" lon="16.0930742"><ele>623.75</ele><time>2026-04-27T13:19:01.387Z</time></trkpt><trkpt lat="44.5247706" lon="16.0930102"><ele>624.0</ele><time>2026-04-27T13:19:02.378Z</time></trkpt><trkpt lat="44.5246498" lon="16.0929726"><ele>623.0</ele><time>2026-04-27T13:19:03.386Z</time></trkpt><trkpt lat="44.524556" lon="16.0929419"><ele>622.0</ele><time>2026-04-27T13:19:04.386Z</time></trkpt><trkpt lat="44.5244595" lon="16.0928931"><ele>621.0</ele><time>2026-04-27T13:19:05.386Z</time></trkpt><trkpt lat="44.5243599" lon="16.0928318"><ele>620.0</ele><time>2026-04-27T13:19:06.386Z</time></trkpt><trkpt lat="44.5242617" lon="16.0927677"><ele>619.0</ele><time>2026-04-27T13:19:07.386Z</time></trkpt><trkpt lat="44.5241752" lon="16.0927018"><ele>619.0</ele><time>2026-04-27T13:19:08.386Z</time></trkpt><trkpt lat="44.5240847" lon="16.0926334"><ele>619.0</ele><time>2026-04-27T13:19:09.386Z</time></trkpt><trkpt lat="44.5240227" lon="16.0925813"><ele>619.0</ele><time>2026-04-27T13:19:10.386Z</time></trkpt><trkpt lat="44.5239574" lon="16.0925117"><ele>619.0</ele><time>2026-04-27T13:19:11.386Z</time></trkpt><trkpt lat="44.5238991" lon="16.0924371"><ele>619.0</ele><time>2026-04-27T13:19:12.383Z</time></trkpt><trkpt lat="44.5238417" lon="16.0923422"><ele>619.0</ele><time>2026-04-27T13:19:13.386Z</time></trkpt><trkpt lat="44.5237914" lon="16.0922405"><ele>618.8333333333334</ele><time>2026-04-27T13:19:14.386Z</time></trkpt><trkpt lat="44.523753" lon="16.0921361"><ele>618.6666666666667</ele><time>2026-04-27T13:19:15.386Z</time></trkpt><trkpt lat="44.5237053" lon="16.0920452"><ele>618.5</ele><time>2026-04-27T13:19:16.387Z</time></trkpt><trkpt lat="44.5236613" lon="16.0919735"><ele>618.3333333333334</ele><time>2026-04-27T13:19:17.386Z</time></trkpt><trkpt lat="44.5235568" lon="16.0919568"><ele>618.1666666666666</ele><time>2026-04-27T13:19:19.386Z</time></trkpt><trkpt lat="44.5234928" lon="16.0919949"><ele>618.0</ele><time>2026-04-27T13:19:20.386Z</time></trkpt><trkpt lat="44.5234303" lon="16.0920571"><ele>616.1999999999999</ele><time>2026-04-27T13:19:21.386Z</time></trkpt><trkpt lat="44.5233578" lon="16.0921167"><ele>614.4</ele><time>2026-04-27T13:19:22.386Z</time></trkpt><trkpt lat="44.5232957" lon="16.0921998"><ele>612.5999999999999</ele><time>2026-04-27T13:19:23.386Z</time></trkpt><trkpt lat="44.5232044" lon="16.0922807"><ele>610.8</ele><time>2026-04-27T13:19:24.386Z</time></trkpt><trkpt lat="44.5231184" lon="16.0923567"><ele>609.0</ele><time>2026-04-27T13:19:25.386Z</time></trkpt><trkpt lat="44.5230258" lon="16.0924131"><ele>609.0</ele><time>2026-04-27T13:19:26.386Z</time></trkpt><trkpt lat="44.5229374" lon="16.0924501"><ele>609.0</ele><time>2026-04-27T13:19:27.387Z</time></trkpt><trkpt lat="44.5228557" lon="16.0924592"><ele>609.0</ele><time>2026-04-27T13:19:28.386Z</time></trkpt><trkpt lat="44.5227848" lon="16.0924303"><ele>609.0</ele><time>2026-04-27T13:19:29.387Z</time></trkpt><trkpt lat="44.5227071" lon="16.0923862"><ele>609.0</ele><time>2026-04-27T13:19:30.379Z</time></trkpt><trkpt lat="44.5226269" lon="16.092319"><ele>609.0</ele><time>2026-04-27T13:19:31.386Z</time></trkpt><trkpt lat="44.5225349" lon="16.0922121"><ele>607.8</ele><time>2026-04-27T13:19:32.387Z</time></trkpt><trkpt lat="44.5224388" lon="16.0921074"><ele>606.5999999999999</ele><time>2026-04-27T13:19:33.378Z</time></trkpt><trkpt lat="44.5223862" lon="16.0919814"><ele>605.4</ele><time>2026-04-27T13:19:34.385Z</time></trkpt><trkpt lat="44.5223257" lon="16.0918738"><ele>604.1999999999999</ele><time>2026-04-27T13:19:35.386Z</time></trkpt><trkpt lat="44.5222609" lon="16.0917435"><ele>603.0</ele><time>2026-04-27T13:19:36.387Z</time></trkpt><trkpt lat="44.5221767" lon="16.0916238"><ele>602.0</ele><time>2026-04-27T13:19:37.386Z</time></trkpt><trkpt lat="44.5220928" lon="16.0915318"><ele>601.0</ele><time>2026-04-27T13:19:38.387Z</time></trkpt><trkpt lat="44.5219918" lon="16.091476"><ele>600.0</ele><time>2026-04-27T13:19:39.387Z</time></trkpt><trkpt lat="44.5218831" lon="16.091428"><ele>599.0</ele><time>2026-04-27T13:19:40.387Z</time></trkpt><trkpt lat="44.5217594" lon="16.0913849"><ele>598.5</ele><time>2026-04-27T13:19:41.386Z</time></trkpt><trkpt lat="44.5216326" lon="16.0913307"><ele>598.0</ele><time>2026-04-27T13:19:42.385Z</time></trkpt><trkpt lat="44.5215054" lon="16.0912953"><ele>597.5</ele><time>2026-04-27T13:19:43.387Z</time></trkpt><trkpt lat="44.5213884" lon="16.0912711"><ele>597.0</ele><time>2026-04-27T13:19:44.386Z</time></trkpt><trkpt lat="44.5212671" lon="16.0912438"><ele>595.75</ele><time>2026-04-27T13:19:45.387Z</time></trkpt><trkpt lat="44.5211401" lon="16.0912071"><ele>594.5</ele><time>2026-04-27T13:19:46.386Z</time></trkpt><trkpt lat="44.5210261" lon="16.0911814"><ele>593.25</ele><time>2026-04-27T13:19:47.387Z</time></trkpt><trkpt lat="44.5209142" lon="16.0911514"><ele>592.0</ele><time>2026-04-27T13:19:48.387Z</time></trkpt><trkpt lat="44.5208045" lon="16.0911385"><ele>592.0</ele><time>2026-04-27T13:19:49.386Z</time></trkpt><trkpt lat="44.5206769" lon="16.0911329"><ele>592.0</ele><time>2026-04-27T13:19:50.386Z</time></trkpt><trkpt lat="44.5205558" lon="16.0911269"><ele>592.0</ele><time>2026-04-27T13:19:51.386Z</time></trkpt><trkpt lat="44.5204317" lon="16.0911274"><ele>592.0</ele><time>2026-04-27T13:19:52.387Z</time></trkpt><trkpt lat="44.520289" lon="16.0911251"><ele>591.5</ele><time>2026-04-27T13:19:53.386Z</time></trkpt><trkpt lat="44.5201715" lon="16.0911311"><ele>591.0</ele><time>2026-04-27T13:19:54.386Z</time></trkpt><trkpt lat="44.5200453" lon="16.0911349"><ele>590.5</ele><time>2026-04-27T13:19:55.386Z</time></trkpt><trkpt lat="44.5199285" lon="16.0911478"><ele>590.0</ele><time>2026-04-27T13:19:56.387Z</time></trkpt><trkpt lat="44.5198204" lon="16.0911436"><ele>590.0</ele><time>2026-04-27T13:19:57.386Z</time></trkpt><trkpt lat="44.5197048" lon="16.0911339"><ele>590.0</ele><time>2026-04-27T13:19:58.386Z</time></trkpt><trkpt lat="44.5196035" lon="16.0911182"><ele>590.0</ele><time>2026-04-27T13:19:59.387Z</time></trkpt><trkpt lat="44.519493" lon="16.0910859"><ele>590.0</ele><time>2026-04-27T13:20:00.386Z</time></trkpt><trkpt lat="44.5193831" lon="16.0910467"><ele>590.0</ele><time>2026-04-27T13:20:01.386Z</time></trkpt><trkpt lat="44.5192855" lon="16.0909946"><ele>588.4</ele><time>2026-04-27T13:20:02.386Z</time></trkpt><trkpt lat="44.5191868" lon="16.0909257"><ele>586.8</ele><time>2026-04-27T13:20:03.387Z</time></trkpt><trkpt lat="44.5190956" lon="16.0908391"><ele>585.2</ele><time>2026-04-27T13:20:04.379Z</time></trkpt><trkpt lat="44.5190078" lon="16.0907715"><ele>583.6</ele><time>2026-04-27T13:20:05.386Z</time></trkpt><trkpt lat="44.5189146" lon="16.090723"><ele>582.0</ele><time>2026-04-27T13:20:06.386Z</time></trkpt><trkpt lat="44.5188001" lon="16.0907055"><ele>580.25</ele><time>2026-04-27T13:20:07.386Z</time></trkpt><trkpt lat="44.5186671" lon="16.0907213"><ele>578.5</ele><time>2026-04-27T13:20:08.387Z</time></trkpt><trkpt lat="44.5185262" lon="16.0907453"><ele>576.75</ele><time>2026-04-27T13:20:09.387Z</time></trkpt><trkpt lat="44.5183856" lon="16.0907528"><ele>575.0</ele><time>2026-04-27T13:20:10.383Z</time></trkpt><trkpt lat="44.5182402" lon="16.0907423"><ele>575.0</ele><time>2026-04-27T13:20:11.387Z</time></trkpt><trkpt lat="44.5181047" lon="16.0907457"><ele>575.0</ele><time>2026-04-27T13:20:12.386Z</time></trkpt><trkpt lat="44.5179714" lon="16.0907695"><ele>575.0</ele><time>2026-04-27T13:20:13.386Z</time></trkpt><trkpt lat="44.5178332" lon="16.0907949"><ele>575.0</ele><time>2026-04-27T13:20:14.386Z</time></trkpt><trkpt lat="44.5176922" lon="16.0908067"><ele>575.0</ele><time>2026-04-27T13:20:15.387Z</time></trkpt><trkpt lat="44.5175467" lon="16.0908175"><ele>575.0</ele><time>2026-04-27T13:20:16.386Z</time></trkpt><trkpt lat="44.5173977" lon="16.0908286"><ele>575.0</ele><time>2026-04-27T13:20:17.386Z</time></trkpt><trkpt lat="44.5172551" lon="16.0908464"><ele>575.0</ele><time>2026-04-27T13:20:18.386Z</time></trkpt><trkpt lat="44.5171247" lon="16.090874"><ele>574.75</ele><time>2026-04-27T13:20:19.386Z</time></trkpt><trkpt lat="44.5170097" lon="16.0909232"><ele>574.5</ele><time>2026-04-27T13:20:20.387Z</time></trkpt><trkpt lat="44.5168904" lon="16.0909628"><ele>574.25</ele><time>2026-04-27T13:20:21.386Z</time></trkpt><trkpt lat="44.51676" lon="16.0909833"><ele>574.0</ele><time>2026-04-27T13:20:22.386Z</time></trkpt><trkpt lat="44.5166203" lon="16.0910143"><ele>574.0</ele><time>2026-04-27T13:20:23.386Z</time></trkpt><trkpt lat="44.5164777" lon="16.0910637"><ele>574.0</ele><time>2026-04-27T13:20:24.386Z</time></trkpt><trkpt lat="44.5163416" lon="16.0911116"><ele>574.0</ele><time>2026-04-27T13:20:25.386Z</time></trkpt><trkpt lat="44.5162127" lon="16.09115"><ele>574.0</ele><time>2026-04-27T13:20:26.386Z</time></trkpt><trkpt lat="44.5160894" lon="16.0911766"><ele>572.75</ele><time>2026-04-27T13:20:27.386Z</time></trkpt><trkpt lat="44.5159608" lon="16.0911934"><ele>571.5</ele><time>2026-04-27T13:20:28.387Z</time></trkpt><trkpt lat="44.5158262" lon="16.0911984"><ele>570.25</ele><time>2026-04-27T13:20:29.386Z</time></trkpt><trkpt lat="44.5156808" lon="16.0912076"><ele>569.0</ele><time>2026-04-27T13:20:30.386Z</time></trkpt><trkpt lat="44.51553" lon="16.0912304"><ele>568.75</ele><time>2026-04-27T13:20:31.387Z</time></trkpt><trkpt lat="44.5153845" lon="16.0912472"><ele>568.5</ele><time>2026-04-27T13:20:32.386Z</time></trkpt><trkpt lat="44.5152406" lon="16.091257"><ele>568.25</ele><time>2026-04-27T13:20:33.386Z</time></trkpt><trkpt lat="44.5150897" lon="16.0912758"><ele>568.0</ele><time>2026-04-27T13:20:34.386Z</time></trkpt><trkpt lat="44.5149435" lon="16.0913035"><ele>568.0</ele><time>2026-04-27T13:20:35.381Z</time></trkpt><trkpt lat="44.5148056" lon="16.091337"><ele>568.0</ele><time>2026-04-27T13:20:36.387Z</time></trkpt><trkpt lat="44.5146727" lon="16.0913648"><ele>568.0</ele><time>2026-04-27T13:20:37.386Z</time></trkpt><trkpt lat="44.5145337" lon="16.0913655"><ele>568.0</ele><time>2026-04-27T13:20:38.385Z</time></trkpt><trkpt lat="44.5143924" lon="16.0913217"><ele>568.0</ele><time>2026-04-27T13:20:39.386Z</time></trkpt><trkpt lat="44.5142404" lon="16.0912731"><ele>568.0</ele><time>2026-04-27T13:20:40.387Z</time></trkpt><trkpt lat="44.5140842" lon="16.0912183"><ele>568.0</ele><time>2026-04-27T13:20:41.386Z</time></trkpt><trkpt lat="44.5139299" lon="16.0911657"><ele>568.0</ele><time>2026-04-27T13:20:42.386Z</time></trkpt><trkpt lat="44.5137758" lon="16.0911198"><ele>568.0</ele><time>2026-04-27T13:20:43.386Z</time></trkpt><trkpt lat="44.5136395" lon="16.0910691"><ele>568.0</ele><time>2026-04-27T13:20:44.386Z</time></trkpt><trkpt lat="44.513522" lon="16.0910092"><ele>568.0</ele><time>2026-04-27T13:20:45.386Z</time></trkpt><trkpt lat="44.5134206" lon="16.0909283"><ele>568.0</ele><time>2026-04-27T13:20:46.386Z</time></trkpt><trkpt lat="44.513323" lon="16.0908167"><ele>568.0</ele><time>2026-04-27T13:20:47.387Z</time></trkpt><trkpt lat="44.5132293" lon="16.0906936"><ele>568.0</ele><time>2026-04-27T13:20:48.386Z</time></trkpt><trkpt lat="44.5131385" lon="16.0905687"><ele>568.0</ele><time>2026-04-27T13:20:49.387Z</time></trkpt><trkpt lat="44.5130402" lon="16.0904558"><ele>568.0</ele><time>2026-04-27T13:20:50.387Z</time></trkpt><trkpt lat="44.5129319" lon="16.0903451"><ele>568.0</ele><time>2026-04-27T13:20:51.386Z</time></trkpt><trkpt lat="44.5128179" lon="16.0902415"><ele>568.0</ele><time>2026-04-27T13:20:52.386Z</time></trkpt><trkpt lat="44.5127118" lon="16.0901506"><ele>568.0</ele><time>2026-04-27T13:20:53.386Z</time></trkpt><trkpt lat="44.5126079" lon="16.0900797"><ele>567.8</ele><time>2026-04-27T13:20:54.386Z</time></trkpt><trkpt lat="44.512507" lon="16.0900464"><ele>567.5999999999999</ele><time>2026-04-27T13:20:55.386Z</time></trkpt><trkpt lat="44.5124068" lon="16.0900423"><ele>567.4000000000001</ele><time>2026-04-27T13:20:56.387Z</time></trkpt><trkpt lat="44.5123115" lon="16.0900612"><ele>567.2</ele><time>2026-04-27T13:20:57.386Z</time></trkpt><trkpt lat="44.5122254" lon="16.090111"><ele>567.0</ele><time>2026-04-27T13:20:58.387Z</time></trkpt><trkpt lat="44.512148" lon="16.0901724"><ele>568.0</ele><time>2026-04-27T13:20:59.387Z</time></trkpt><trkpt lat="44.5120701" lon="16.0902538"><ele>569.0</ele><time>2026-04-27T13:21:00.386Z</time></trkpt><trkpt lat="44.5120003" lon="16.0903454"><ele>570.0</ele><time>2026-04-27T13:21:01.386Z</time></trkpt><trkpt lat="44.5119334" lon="16.0904355"><ele>571.0</ele><time>2026-04-27T13:21:02.387Z</time></trkpt><trkpt lat="44.5118723" lon="16.0905063"><ele>572.0</ele><time>2026-04-27T13:21:03.386Z</time></trkpt><trkpt lat="44.5118091" lon="16.0905793"><ele>573.0</ele><time>2026-04-27T13:21:04.386Z</time></trkpt><trkpt lat="44.5117418" lon="16.0906485"><ele>573.0</ele><time>2026-04-27T13:21:05.387Z</time></trkpt><trkpt lat="44.5116646" lon="16.0907054"><ele>573.0</ele><time>2026-04-27T13:21:06.386Z</time></trkpt><trkpt lat="44.5115874" lon="16.0907561"><ele>573.0</ele><time>2026-04-27T13:21:07.386Z</time></trkpt><trkpt lat="44.5115099" lon="16.0907945"><ele>573.0</ele><time>2026-04-27T13:21:08.386Z</time></trkpt><trkpt lat="44.5114326" lon="16.0908542"><ele>573.0</ele><time>2026-04-27T13:21:09.386Z</time></trkpt><trkpt lat="44.511359" lon="16.0909334"><ele>573.0</ele><time>2026-04-27T13:21:10.387Z</time></trkpt><trkpt lat="44.5112821" lon="16.0910035"><ele>573.1999999999999</ele><time>2026-04-27T13:21:11.387Z</time></trkpt><trkpt lat="44.5111937" lon="16.0910757"><ele>573.4</ele><time>2026-04-27T13:21:12.386Z</time></trkpt><trkpt lat="44.5111032" lon="16.0911478"><ele>573.5999999999999</ele><time>2026-04-27T13:21:13.379Z</time></trkpt><trkpt lat="44.5110075" lon="16.0912247"><ele>573.8</ele><time>2026-04-27T13:21:14.387Z</time></trkpt><trkpt lat="44.5109209" lon="16.0912987"><ele>574.0</ele><time>2026-04-27T13:21:15.386Z</time></trkpt><trkpt lat="44.510837" lon="16.0913775"><ele>574.0</ele><time>2026-04-27T13:21:16.386Z</time></trkpt><trkpt lat="44.5107621" lon="16.0914574"><ele>574.0</ele><time>2026-04-27T13:21:17.387Z</time></trkpt><trkpt lat="44.5106886" lon="16.0915306"><ele>574.0</ele><time>2026-04-27T13:21:18.387Z</time></trkpt><trkpt lat="44.5106123" lon="16.0915999"><ele>574.0</ele><time>2026-04-27T13:21:19.386Z</time></trkpt><trkpt lat="44.5105427" lon="16.0916507"><ele>574.0</ele><time>2026-04-27T13:21:20.387Z</time></trkpt><trkpt lat="44.5104372" lon="16.0916958"><ele>574.2</ele><time>2026-04-27T13:21:22.386Z</time></trkpt><trkpt lat="44.5103375" lon="16.0917458"><ele>574.4</ele><time>2026-04-27T13:30:03.386Z</time></trkpt><trkpt lat="44.5102482" lon="16.0917383"><ele>574.6</ele><time>2026-04-27T13:30:04.386Z</time></trkpt><trkpt lat="44.5101697" lon="16.0917348"><ele>574.8</ele><time>2026-04-27T13:30:05.386Z</time></trkpt><trkpt lat="44.5100797" lon="16.0917316"><ele>575.0</ele><time>2026-04-27T13:30:06.386Z</time></trkpt><trkpt lat="44.509988" lon="16.0917169"><ele>575.0</ele><time>2026-04-27T13:30:07.386Z</time></trkpt><trkpt lat="44.5098949" lon="16.091706"><ele>575.0</ele><time>2026-04-27T13:30:08.386Z</time></trkpt><trkpt lat="44.5098005" lon="16.0916901"><ele>575.0</ele><time>2026-04-27T13:30:09.386Z</time></trkpt><trkpt lat="44.5096999" lon="16.0916959"><ele>575.0</ele><time>2026-04-27T13:30:10.381Z</time></trkpt><trkpt lat="44.5095982" lon="16.0917106"><ele>575.0</ele><time>2026-04-27T13:30:11.386Z</time></trkpt><trkpt lat="44.5094955" lon="16.0917366"><ele>576.0</ele><time>2026-04-27T13:30:12.379Z</time></trkpt><trkpt lat="44.5093816" lon="16.0917449"><ele>577.0</ele><time>2026-04-27T13:30:13.383Z</time></trkpt><trkpt lat="44.5092723" lon="16.0917403"><ele>578.0</ele><time>2026-04-27T13:30:14.386Z</time></trkpt><trkpt lat="44.50915" lon="16.0917252"><ele>579.0</ele><time>2026-04-27T13:30:15.387Z</time></trkpt><trkpt lat="44.5090503" lon="16.0917251"><ele>580.0</ele><time>2026-04-27T13:30:16.386Z</time></trkpt><trkpt lat="44.5089363" lon="16.0916931"><ele>580.0</ele><time>2026-04-27T13:30:17.386Z</time></trkpt><trkpt lat="44.50882" lon="16.0916531"><ele>580.0</ele><time>2026-04-27T13:30:18.386Z</time></trkpt><trkpt lat="44.508711" lon="16.0915897"><ele>580.0</ele><time>2026-04-27T13:30:19.386Z</time></trkpt><trkpt lat="44.5086113" lon="16.0915379"><ele>580.0</ele><time>2026-04-27T13:30:20.386Z</time></trkpt><trkpt lat="44.5085165" lon="16.0914942"><ele>580.0</ele><time>2026-04-27T13:30:21.387Z</time></trkpt><trkpt lat="44.5084043" lon="16.091463"><ele>580.2</ele><time>2026-04-27T13:30:22.383Z</time></trkpt><trkpt lat="44.5082885" lon="16.0914684"><ele>580.4</ele><time>2026-04-27T13:30:23.384Z</time></trkpt><trkpt lat="44.5081809" lon="16.0914819"><ele>580.6</ele><time>2026-04-27T13:30:24.386Z</time></trkpt><trkpt lat="44.5080684" lon="16.0914783"><ele>580.8</ele><time>2026-04-27T13:30:25.386Z</time></trkpt><trkpt lat="44.5079615" lon="16.0914472"><ele>581.0</ele><time>2026-04-27T13:30:26.386Z</time></trkpt><trkpt lat="44.5078347" lon="16.0914128"><ele>581.0</ele><time>2026-04-27T13:30:27.385Z</time></trkpt><trkpt lat="44.5077072" lon="16.0913598"><ele>581.0</ele><time>2026-04-27T13:30:28.386Z</time></trkpt><trkpt lat="44.5075655" lon="16.0913075"><ele>581.0</ele><time>2026-04-27T13:30:29.384Z</time></trkpt><trkpt lat="44.5074232" lon="16.0912601"><ele>581.0</ele><time>2026-04-27T13:30:30.386Z</time></trkpt><trkpt lat="44.5072494" lon="16.091217"><ele>581.0</ele><time>2026-04-27T13:30:31.386Z</time></trkpt><trkpt lat="44.5071234" lon="16.0911714"><ele>581.0</ele><time>2026-04-27T13:30:32.386Z</time></trkpt><trkpt lat="44.5069925" lon="16.0911331"><ele>581.0</ele><time>2026-04-27T13:30:33.386Z</time></trkpt><trkpt lat="44.506846" lon="16.0911034"><ele>581.0</ele><time>2026-04-27T13:30:34.377Z</time></trkpt><trkpt lat="44.5067035" lon="16.091071"><ele>580.0</ele><time>2026-04-27T13:30:35.387Z</time></trkpt><trkpt lat="44.50657" lon="16.0910301"><ele>579.0</ele><time>2026-04-27T13:30:36.387Z</time></trkpt><trkpt lat="44.5064412" lon="16.0909964"><ele>578.0</ele><time>2026-04-27T13:30:37.383Z</time></trkpt><trkpt lat="44.5063396" lon="16.0909825"><ele>577.0</ele><time>2026-04-27T13:30:38.386Z</time></trkpt><trkpt lat="44.5062345" lon="16.0909944"><ele>577.0</ele><time>2026-04-27T13:30:39.386Z</time></trkpt><trkpt lat="44.5061242" lon="16.0910261"><ele>577.0</ele><time>2026-04-27T13:30:40.386Z</time></trkpt><trkpt lat="44.5060141" lon="16.0910794"><ele>577.0</ele><time>2026-04-27T13:30:41.387Z</time></trkpt><trkpt lat="44.5059006" lon="16.0911368"><ele>577.0</ele><time>2026-04-27T13:30:42.386Z</time></trkpt><trkpt lat="44.5057833" lon="16.0911893"><ele>577.0</ele><time>2026-04-27T13:30:43.387Z</time></trkpt><trkpt lat="44.5056594" lon="16.0912134"><ele>577.0</ele><time>2026-04-27T13:30:44.386Z</time></trkpt><trkpt lat="44.5055317" lon="16.0912416"><ele>577.0</ele><time>2026-04-27T13:30:45.385Z</time></trkpt><trkpt lat="44.5054228" lon="16.0912767"><ele>577.0</ele><time>2026-04-27T13:30:46.386Z</time></trkpt><trkpt lat="44.5053427" lon="16.0913233"><ele>577.5</ele><time>2026-04-27T13:30:47.386Z</time></trkpt><trkpt lat="44.5052293" lon="16.091411"><ele>578.0</ele><time>2026-04-27T13:30:48.387Z</time></trkpt><trkpt lat="44.5051148" lon="16.0915138"><ele>578.5</ele><time>2026-04-27T13:30:49.386Z</time></trkpt><trkpt lat="44.5050053" lon="16.0916339"><ele>579.0</ele><time>2026-04-27T13:30:50.385Z</time></trkpt><trkpt lat="44.5048955" lon="16.0917483"><ele>578.0</ele><time>2026-04-27T13:30:51.386Z</time></trkpt><trkpt lat="44.5047989" lon="16.0918621"><ele>577.0</ele><time>2026-04-27T13:30:52.387Z</time></trkpt><trkpt lat="44.5046943" lon="16.0919651"><ele>576.0</ele><time>2026-04-27T13:30:53.387Z</time></trkpt><trkpt lat="44.5045832" lon="16.0920646"><ele>575.0</ele><time>2026-04-27T13:30:54.386Z</time></trkpt><trkpt lat="44.5044774" lon="16.0921621"><ele>574.0</ele><time>2026-04-27T13:30:55.386Z</time></trkpt><trkpt lat="44.5043746" lon="16.0922596"><ele>573.0</ele><time>2026-04-27T13:30:56.386Z</time></trkpt><trkpt lat="44.504272" lon="16.0923455"><ele>572.0</ele><time>2026-04-27T13:30:57.384Z</time></trkpt><trkpt lat="44.5041685" lon="16.0924187"><ele>571.0</ele><time>2026-04-27T13:30:58.386Z</time></trkpt><trkpt lat="44.5040814" lon="16.0924759"><ele>571.0</ele><time>2026-04-27T13:30:59.386Z</time></trkpt><trkpt lat="44.5040049" lon="16.0925045"><ele>571.0</ele><time>2026-04-27T13:31:00.387Z</time></trkpt><trkpt lat="44.5038941" lon="16.0924739"><ele>571.0</ele><time>2026-04-27T13:31:02.387Z</time></trkpt><trkpt lat="44.503803" lon="16.0923689"><ele>571.0</ele><time>2026-04-27T13:31:04.385Z</time></trkpt><trkpt lat="44.5037589" lon="16.0922916"><ele>571.0</ele><time>2026-04-27T13:31:05.38Z</time></trkpt><trkpt lat="44.5037249" lon="16.0921988"><ele>570.2</ele><time>2026-04-27T13:31:06.386Z</time></trkpt><trkpt lat="44.5036508" lon="16.0921179"><ele>569.4000000000001</ele><time>2026-04-27T13:31:07.387Z</time></trkpt><trkpt lat="44.5035665" lon="16.0920437"><ele>568.6</ele><time>2026-04-27T13:31:08.387Z</time></trkpt><trkpt lat="44.5034746" lon="16.0919903"><ele>567.8000000000001</ele><time>2026-04-27T13:31:09.386Z</time></trkpt><trkpt lat="44.5033714" lon="16.091952"><ele>567.0</ele><time>2026-04-27T13:31:10.386Z</time></trkpt><trkpt lat="44.5032573" lon="16.0919146"><ele>567.0</ele><time>2026-04-27T13:31:11.386Z</time></trkpt><trkpt lat="44.5031478" lon="16.0918817"><ele>567.0</ele><time>2026-04-27T13:31:12.386Z</time></trkpt><trkpt lat="44.5030413" lon="16.0918752"><ele>567.0</ele><time>2026-04-27T13:31:13.386Z</time></trkpt><trkpt lat="44.502937" lon="16.0918919"><ele>567.0</ele><time>2026-04-27T13:31:14.379Z</time></trkpt><trkpt lat="44.502818" lon="16.0919096"><ele>567.0</ele><time>2026-04-27T13:31:15.375Z</time></trkpt><trkpt lat="44.5027009" lon="16.0919129"><ele>567.0</ele><time>2026-04-27T13:31:16.384Z</time></trkpt><trkpt lat="44.5025698" lon="16.0919182"><ele>567.0</ele><time>2026-04-27T13:31:17.386Z</time></trkpt><trkpt lat="44.5024415" lon="16.0919236"><ele>567.0</ele><time>2026-04-27T13:31:18.386Z</time></trkpt><trkpt lat="44.5023229" lon="16.0919148"><ele>567.0</ele><time>2026-04-27T13:31:19.387Z</time></trkpt><trkpt lat="44.5022064" lon="16.0919189"><ele>567.0</ele><time>2026-04-27T13:31:20.386Z</time></trkpt><trkpt lat="44.5020926" lon="16.0919075"><ele>567.0</ele><time>2026-04-27T13:31:21.386Z</time></trkpt><trkpt lat="44.5019787" lon="16.0919292"><ele>567.0</ele><time>2026-04-27T13:31:22.386Z</time></trkpt><trkpt lat="44.5018588" lon="16.09194"><ele>567.0</ele><time>2026-04-27T13:31:23.386Z</time></trkpt><trkpt lat="44.5017374" lon="16.0919649"><ele>566.25</ele><time>2026-04-27T13:31:24.386Z</time></trkpt><trkpt lat="44.5016181" lon="16.0919723"><ele>565.5</ele><time>2026-04-27T13:31:25.384Z</time></trkpt><trkpt lat="44.5015026" lon="16.0919796"><ele>564.75</ele><time>2026-04-27T13:31:26.386Z</time></trkpt><trkpt lat="44.5013735" lon="16.0919757"><ele>564.0</ele><time>2026-04-27T13:31:27.386Z</time></trkpt><trkpt lat="44.501246" lon="16.0919674"><ele>563.25</ele><time>2026-04-27T13:31:28.386Z</time></trkpt><trkpt lat="44.5011465" lon="16.0919901"><ele>562.5</ele><time>2026-04-27T13:31:29.387Z</time></trkpt><trkpt lat="44.501038" lon="16.0920354"><ele>561.75</ele><time>2026-04-27T13:31:30.386Z</time></trkpt><trkpt lat="44.5009157" lon="16.0920943"><ele>561.0</ele><time>2026-04-27T13:31:31.387Z</time></trkpt><trkpt lat="44.5007878" lon="16.0921576"><ele>561.0</ele><time>2026-04-27T13:31:32.387Z</time></trkpt><trkpt lat="44.5006504" lon="16.0922187"><ele>561.0</ele><time>2026-04-27T13:31:33.387Z</time></trkpt><trkpt lat="44.5005034" lon="16.0922744"><ele>561.0</ele><time>2026-04-27T13:31:34.386Z</time></trkpt><trkpt lat="44.5003497" lon="16.0923022"><ele>561.25</ele><time>2026-04-27T13:31:35.386Z</time></trkpt><trkpt lat="44.5002144" lon="16.0923357"><ele>561.5</ele><time>2026-04-27T13:31:36.386Z</time></trkpt><trkpt lat="44.5000816" lon="16.0923816"><ele>561.75</ele><time>2026-04-27T13:31:37.386Z</time></trkpt><trkpt lat="44.4999599" lon="16.0924391"><ele>562.0</ele><time>2026-04-27T13:31:38.386Z</time></trkpt><trkpt lat="44.4998353" lon="16.0925138"><ele>562.25</ele><time>2026-04-27T13:31:39.386Z</time></trkpt><trkpt lat="44.4996928" lon="16.0925893"><ele>562.5</ele><time>2026-04-27T13:31:40.386Z</time></trkpt><trkpt lat="44.4995681" lon="16.0926693"><ele>562.75</ele><time>2026-04-27T13:31:41.387Z</time></trkpt><trkpt lat="44.4994626" lon="16.0927321"><ele>563.0</ele><time>2026-04-27T13:31:42.384Z</time></trkpt><trkpt lat="44.4993713" lon="16.0927712"><ele>563.4</ele><time>2026-04-27T13:31:43.382Z</time></trkpt><trkpt lat="44.4992791" lon="16.0927803"><ele>563.8</ele><time>2026-04-27T13:31:44.386Z</time></trkpt><trkpt lat="44.499191" lon="16.0927614"><ele>564.2</ele><time>2026-04-27T13:31:45.387Z</time></trkpt><trkpt lat="44.4991042" lon="16.0927196"><ele>564.6</ele><time>2026-04-27T13:31:46.386Z</time></trkpt><trkpt lat="44.4990076" lon="16.0926672"><ele>565.0</ele><time>2026-04-27T13:31:47.384Z</time></trkpt><trkpt lat="44.4989041" lon="16.092622"><ele>565.0</ele><time>2026-04-27T13:31:48.383Z</time></trkpt><trkpt lat="44.4987852" lon="16.0926186"><ele>565.0</ele><time>2026-04-27T13:31:49.386Z</time></trkpt><trkpt lat="44.4986756" lon="16.0926457"><ele>565.0</ele><time>2026-04-27T13:31:50.386Z</time></trkpt><trkpt lat="44.4985742" lon="16.0927018"><ele>565.0</ele><time>2026-04-27T13:31:51.386Z</time></trkpt><trkpt lat="44.4984522" lon="16.0928035"><ele>565.0</ele><time>2026-04-27T13:31:52.386Z</time></trkpt><trkpt lat="44.498336" lon="16.0929308"><ele>565.0</ele><time>2026-04-27T13:31:53.386Z</time></trkpt><trkpt lat="44.4982367" lon="16.0930669"><ele>565.0</ele><time>2026-04-27T13:31:54.384Z</time></trkpt><trkpt lat="44.4981418" lon="16.093198"><ele>565.0</ele><time>2026-04-27T13:31:55.386Z</time></trkpt><trkpt lat="44.4980388" lon="16.0933071"><ele>564.5</ele><time>2026-04-27T13:31:56.386Z</time></trkpt><trkpt lat="44.4979167" lon="16.0934128"><ele>564.0</ele><time>2026-04-27T13:31:57.386Z</time></trkpt><trkpt lat="44.4978003" lon="16.093507"><ele>563.5</ele><time>2026-04-27T13:31:58.385Z</time></trkpt><trkpt lat="44.4976816" lon="16.0936035"><ele>563.0</ele><time>2026-04-27T13:31:59.386Z</time></trkpt><trkpt lat="44.4975726" lon="16.0936983"><ele>563.0</ele><time>2026-04-27T13:32:00.387Z</time></trkpt><trkpt lat="44.4974746" lon="16.0937652"><ele>563.0</ele><time>2026-04-27T13:32:01.386Z</time></trkpt><trkpt lat="44.4973606" lon="16.0938153"><ele>563.0</ele><time>2026-04-27T13:32:02.386Z</time></trkpt><trkpt lat="44.4972386" lon="16.0938621"><ele>563.0</ele><time>2026-04-27T13:32:03.387Z</time></trkpt><trkpt lat="44.4971115" lon="16.0939131"><ele>563.5</ele><time>2026-04-27T13:32:04.387Z</time></trkpt><trkpt lat="44.4969742" lon="16.0939407"><ele>564.0</ele><time>2026-04-27T13:32:05.387Z</time></trkpt><trkpt lat="44.4968481" lon="16.0939466"><ele>564.5</ele><time>2026-04-27T13:32:06.387Z</time></trkpt><trkpt lat="44.4967375" lon="16.0939705"><ele>565.0</ele><time>2026-04-27T13:32:07.387Z</time></trkpt><trkpt lat="44.4966253" lon="16.0940123"><ele>565.0</ele><time>2026-04-27T13:32:08.385Z</time></trkpt><trkpt lat="44.4964956" lon="16.0940627"><ele>565.0</ele><time>2026-04-27T13:32:09.387Z</time></trkpt><trkpt lat="44.4963587" lon="16.0941314"><ele>565.0</ele><time>2026-04-27T13:32:10.386Z</time></trkpt><trkpt lat="44.4962245" lon="16.0942001"><ele>565.0</ele><time>2026-04-27T13:32:11.386Z</time></trkpt><trkpt lat="44.4960862" lon="16.0942478"><ele>565.0</ele><time>2026-04-27T13:32:12.385Z</time></trkpt><trkpt lat="44.4959673" lon="16.0942961"><ele>565.0</ele><time>2026-04-27T13:32:13.384Z</time></trkpt><trkpt lat="44.4958509" lon="16.0943503"><ele>565.0</ele><time>2026-04-27T13:32:14.386Z</time></trkpt><trkpt lat="44.4957285" lon="16.094397"><ele>565.0</ele><time>2026-04-27T13:32:15.386Z</time></trkpt><trkpt lat="44.4956124" lon="16.0944158"><ele>565.0</ele><time>2026-04-27T13:32:16.385Z</time></trkpt><trkpt lat="44.495491" lon="16.0944342"><ele>565.0</ele><time>2026-04-27T13:32:17.386Z</time></trkpt><trkpt lat="44.4953798" lon="16.0944523"><ele>565.0</ele><time>2026-04-27T13:32:18.386Z</time></trkpt><trkpt lat="44.4952601" lon="16.0944675"><ele>565.0</ele><time>2026-04-27T13:32:19.386Z</time></trkpt><trkpt lat="44.4951475" lon="16.0944825"><ele>564.25</ele><time>2026-04-27T13:32:20.386Z</time></trkpt><trkpt lat="44.4950471" lon="16.0945165"><ele>563.5</ele><time>2026-04-27T13:32:21.386Z</time></trkpt><trkpt lat="44.4949395" lon="16.0945895"><ele>562.75</ele><time>2026-04-27T13:32:22.387Z</time></trkpt><trkpt lat="44.4948421" lon="16.0946848"><ele>562.0</ele><time>2026-04-27T13:32:23.386Z</time></trkpt><trkpt lat="44.4947238" lon="16.094818"><ele>562.0</ele><time>2026-04-27T13:32:24.387Z</time></trkpt><trkpt lat="44.4946314" lon="16.094942"><ele>562.0</ele><time>2026-04-27T13:32:25.382Z</time></trkpt><trkpt lat="44.4945374" lon="16.0950706"><ele>562.0</ele><time>2026-04-27T13:32:26.387Z</time></trkpt><trkpt lat="44.4944462" lon="16.0951911"><ele>562.0</ele><time>2026-04-27T13:32:27.387Z</time></trkpt><trkpt lat="44.4943704" lon="16.0953228"><ele>562.0</ele><time>2026-04-27T13:32:28.383Z</time></trkpt><trkpt lat="44.4943009" lon="16.095445"><ele>562.0</ele><time>2026-04-27T13:32:29.386Z</time></trkpt><trkpt lat="44.4942236" lon="16.0955533"><ele>562.0</ele><time>2026-04-27T13:32:30.386Z</time></trkpt><trkpt lat="44.4941433" lon="16.0956212"><ele>562.0</ele><time>2026-04-27T13:32:31.386Z</time></trkpt><trkpt lat="44.4940547" lon="16.0956883"><ele>562.0</ele><time>2026-04-27T13:32:32.386Z</time></trkpt><trkpt lat="44.4939595" lon="16.0957594"><ele>562.0</ele><time>2026-04-27T13:32:33.386Z</time></trkpt><trkpt lat="44.4938612" lon="16.0958227"><ele>562.0</ele><time>2026-04-27T13:32:34.387Z</time></trkpt><trkpt lat="44.4937506" lon="16.0958786"><ele>562.0</ele><time>2026-04-27T13:32:35.386Z</time></trkpt><trkpt lat="44.4936326" lon="16.0959425"><ele>562.0</ele><time>2026-04-27T13:32:36.386Z</time></trkpt><trkpt lat="44.4935198" lon="16.0960186"><ele>562.25</ele><time>2026-04-27T13:32:37.386Z</time></trkpt><trkpt lat="44.4934076" lon="16.096105"><ele>562.5</ele><time>2026-04-27T13:32:38.386Z</time></trkpt><trkpt lat="44.4933034" lon="16.0961927"><ele>562.75</ele><time>2026-04-27T13:32:39.387Z</time></trkpt><trkpt lat="44.4932095" lon="16.0962958"><ele>563.0</ele><time>2026-04-27T13:32:40.386Z</time></trkpt><trkpt lat="44.4931197" lon="16.0964088"><ele>563.0</ele><time>2026-04-27T13:32:41.387Z</time></trkpt><trkpt lat="44.4930411" lon="16.0964948"><ele>563.0</ele><time>2026-04-27T13:32:42.386Z</time></trkpt><trkpt lat="44.4929656" lon="16.0965465"><ele>563.0</ele><time>2026-04-27T13:32:43.386Z</time></trkpt><trkpt lat="44.4928986" lon="16.096564"><ele>563.0</ele><time>2026-04-27T13:32:44.38Z</time></trkpt><trkpt lat="44.4928144" lon="16.0965598"><ele>563.0</ele><time>2026-04-27T13:32:45.386Z</time></trkpt><trkpt lat="44.4927195" lon="16.0965379"><ele>563.0</ele><time>2026-04-27T13:32:46.387Z</time></trkpt><trkpt lat="44.4926021" lon="16.0965088"><ele>563.25</ele><time>2026-04-27T13:32:47.386Z</time></trkpt><trkpt lat="44.4924737" lon="16.0964732"><ele>563.5</ele><time>2026-04-27T13:32:48.387Z</time></trkpt><trkpt lat="44.4923527" lon="16.096432"><ele>563.75</ele><time>2026-04-27T13:32:49.386Z</time></trkpt><trkpt lat="44.4922177" lon="16.0963913"><ele>564.0</ele><time>2026-04-27T13:32:50.385Z</time></trkpt><trkpt lat="44.4921021" lon="16.0963554"><ele>564.0</ele><time>2026-04-27T13:32:51.386Z</time></trkpt><trkpt lat="44.4919934" lon="16.0963205"><ele>564.0</ele><time>2026-04-27T13:32:52.387Z</time></trkpt><trkpt lat="44.4918879" lon="16.0962696"><ele>564.0</ele><time>2026-04-27T13:32:53.387Z</time></trkpt><trkpt lat="44.4917758" lon="16.0961868"><ele>564.0</ele><time>2026-04-27T13:32:54.386Z</time></trkpt><trkpt lat="44.4916711" lon="16.096098"><ele>564.0</ele><time>2026-04-27T13:32:55.383Z</time></trkpt><trkpt lat="44.4915618" lon="16.0960096"><ele>564.0</ele><time>2026-04-27T13:32:56.386Z</time></trkpt><trkpt lat="44.4914634" lon="16.0959345"><ele>564.0</ele><time>2026-04-27T13:32:57.385Z</time></trkpt><trkpt lat="44.4913631" lon="16.0958586"><ele>564.0</ele><time>2026-04-27T13:32:58.387Z</time></trkpt><trkpt lat="44.491259" lon="16.0958068"><ele>563.6</ele><time>2026-04-27T13:32:59.387Z</time></trkpt><trkpt lat="44.4911584" lon="16.095759"><ele>563.2</ele><time>2026-04-27T13:33:00.383Z</time></trkpt><trkpt lat="44.4910643" lon="16.0957084"><ele>562.8000000000001</ele><time>2026-04-27T13:33:01.386Z</time></trkpt><trkpt lat="44.4909662" lon="16.0956222"><ele>562.4</ele><time>2026-04-27T13:33:02.386Z</time></trkpt><trkpt lat="44.4908678" lon="16.0955554"><ele>562.0</ele><time>2026-04-27T13:33:03.386Z</time></trkpt><trkpt lat="44.4907549" lon="16.0954846"><ele>562.0</ele><time>2026-04-27T13:33:04.386Z</time></trkpt><trkpt lat="44.490656" lon="16.0954375"><ele>562.0</ele><time>2026-04-27T13:33:05.387Z</time></trkpt><trkpt lat="44.4905476" lon="16.0954073"><ele>562.0</ele><time>2026-04-27T13:33:06.386Z</time></trkpt><trkpt lat="44.4904425" lon="16.0953952"><ele>562.0</ele><time>2026-04-27T13:33:07.387Z</time></trkpt><trkpt lat="44.4903423" lon="16.0953709"><ele>562.0</ele><time>2026-04-27T13:33:08.386Z</time></trkpt><trkpt lat="44.490228" lon="16.0953397"><ele>562.75</ele><time>2026-04-27T13:33:09.381Z</time></trkpt><trkpt lat="44.4900854" lon="16.0953087"><ele>563.5</ele><time>2026-04-27T13:33:10.387Z</time></trkpt><trkpt lat="44.4899452" lon="16.0952759"><ele>564.25</ele><time>2026-04-27T13:33:11.386Z</time></trkpt><trkpt lat="44.4898235" lon="16.0952501"><ele>565.0</ele><time>2026-04-27T13:33:12.387Z</time></trkpt><trkpt lat="44.4897079" lon="16.0952275"><ele>565.0</ele><time>2026-04-27T13:33:13.386Z</time></trkpt><trkpt lat="44.4896116" lon="16.0951884"><ele>565.0</ele><time>2026-04-27T13:33:14.386Z</time></trkpt><trkpt lat="44.489509" lon="16.0951423"><ele>565.0</ele><time>2026-04-27T13:33:15.386Z</time></trkpt><trkpt lat="44.4894081" lon="16.0950804"><ele>565.0</ele><time>2026-04-27T13:33:16.386Z</time></trkpt><trkpt lat="44.4892948" lon="16.0950114"><ele>565.0</ele><time>2026-04-27T13:33:17.387Z</time></trkpt><trkpt lat="44.4891822" lon="16.0949338"><ele>565.4</ele><time>2026-04-27T13:33:18.386Z</time></trkpt><trkpt lat="44.4890675" lon="16.0948573"><ele>565.8</ele><time>2026-04-27T13:33:19.386Z</time></trkpt><trkpt lat="44.4889636" lon="16.0947814"><ele>566.2</ele><time>2026-04-27T13:33:20.385Z</time></trkpt><trkpt lat="44.488876" lon="16.0947108"><ele>566.6</ele><time>2026-04-27T13:33:21.387Z</time></trkpt><trkpt lat="44.4887812" lon="16.0946585"><ele>567.0</ele><time>2026-04-27T13:33:22.386Z</time></trkpt><trkpt lat="44.4886883" lon="16.0946106"><ele>567.0</ele><time>2026-04-27T13:33:23.386Z</time></trkpt><trkpt lat="44.4885977" lon="16.0945786"><ele>567.0</ele><time>2026-04-27T13:33:24.385Z</time></trkpt><trkpt lat="44.4885055" lon="16.0945628"><ele>567.0</ele><time>2026-04-27T13:33:25.387Z</time></trkpt><trkpt lat="44.4884049" lon="16.0945636"><ele>567.0</ele><time>2026-04-27T13:33:26.387Z</time></trkpt><trkpt lat="44.4883091" lon="16.0945583"><ele>567.0</ele><time>2026-04-27T13:33:27.387Z</time></trkpt><trkpt lat="44.4882063" lon="16.0945666"><ele>567.0</ele><time>2026-04-27T13:33:28.385Z</time></trkpt><trkpt lat="44.4881032" lon="16.0945853"><ele>567.0</ele><time>2026-04-27T13:33:29.386Z</time></trkpt><trkpt lat="44.4880016" lon="16.094612"><ele>567.0</ele><time>2026-04-27T13:33:30.386Z</time></trkpt><trkpt lat="44.4878815" lon="16.0946555"><ele>567.0</ele><time>2026-04-27T13:33:31.386Z</time></trkpt><trkpt lat="44.4877594" lon="16.0947015"><ele>565.75</ele><time>2026-04-27T13:33:32.387Z</time></trkpt><trkpt lat="44.4876377" lon="16.0947384"><ele>564.5</ele><time>2026-04-27T13:33:33.384Z</time></trkpt><trkpt lat="44.4875128" lon="16.0947874"><ele>563.25</ele><time>2026-04-27T13:33:34.386Z</time></trkpt><trkpt lat="44.4873847" lon="16.0948352"><ele>562.0</ele><time>2026-04-27T13:33:35.386Z</time></trkpt><trkpt lat="44.4872617" lon="16.094878"><ele>563.75</ele><time>2026-04-27T13:33:36.387Z</time></trkpt><trkpt lat="44.4871372" lon="16.0949293"><ele>565.5</ele><time>2026-04-27T13:33:37.387Z</time></trkpt><trkpt lat="44.4870004" lon="16.0949688"><ele>567.25</ele><time>2026-04-27T13:33:38.386Z</time></trkpt><trkpt lat="44.4868697" lon="16.0950184"><ele>569.0</ele><time>2026-04-27T13:33:39.387Z</time></trkpt><trkpt lat="44.4867446" lon="16.0950433"><ele>569.2</ele><time>2026-04-27T13:33:40.386Z</time></trkpt><trkpt lat="44.4866273" lon="16.0950772"><ele>569.4</ele><time>2026-04-27T13:33:41.386Z</time></trkpt><trkpt lat="44.4865171" lon="16.0951104"><ele>569.6</ele><time>2026-04-27T13:33:42.386Z</time></trkpt><trkpt lat="44.4864549" lon="16.0951296"><ele>569.8</ele><time>2026-04-27T13:33:43.386Z</time></trkpt><trkpt lat="44.486358" lon="16.0951583"><ele>570.0</ele><time>2026-04-27T13:33:44.386Z</time></trkpt><trkpt lat="44.4862784" lon="16.0952053"><ele>571.8</ele><time>2026-04-27T13:33:45.377Z</time></trkpt><trkpt lat="44.4862001" lon="16.0952798"><ele>573.6</ele><time>2026-04-27T13:33:46.386Z</time></trkpt><trkpt lat="44.486134" lon="16.0953533"><ele>575.4</ele><time>2026-04-27T13:33:47.381Z</time></trkpt><trkpt lat="44.4860569" lon="16.0954635"><ele>577.2</ele><time>2026-04-27T13:33:48.376Z</time></trkpt><trkpt lat="44.4859855" lon="16.0955813"><ele>579.0</ele><time>2026-04-27T13:33:49.379Z</time></trkpt><trkpt lat="44.485909" lon="16.0957338"><ele>580.0</ele><time>2026-04-27T13:33:50.386Z</time></trkpt><trkpt lat="44.4858372" lon="16.0958648"><ele>581.0</ele><time>2026-04-27T13:33:51.387Z</time></trkpt><trkpt lat="44.4857706" lon="16.0959972"><ele>582.0</ele><time>2026-04-27T13:33:52.387Z</time></trkpt><trkpt lat="44.4856832" lon="16.0961247"><ele>583.0</ele><time>2026-04-27T13:33:53.386Z</time></trkpt><trkpt lat="44.4855784" lon="16.0962264"><ele>583.0</ele><time>2026-04-27T13:33:54.386Z</time></trkpt><trkpt lat="44.4854815" lon="16.0963252"><ele>583.0</ele><time>2026-04-27T13:33:55.387Z</time></trkpt><trkpt lat="44.4853789" lon="16.0964023"><ele>583.0</ele><time>2026-04-27T13:33:56.387Z</time></trkpt><trkpt lat="44.4852698" lon="16.0964873"><ele>583.0</ele><time>2026-04-27T13:33:57.386Z</time></trkpt><trkpt lat="44.485167" lon="16.0965734"><ele>586.25</ele><time>2026-04-27T13:33:58.387Z</time></trkpt><trkpt lat="44.485047" lon="16.0966516"><ele>589.5</ele><time>2026-04-27T13:33:59.386Z</time></trkpt><trkpt lat="44.4848868" lon="16.0967311"><ele>592.75</ele><time>2026-04-27T13:34:00.386Z</time></trkpt><trkpt lat="44.4847572" lon="16.0967904"><ele>596.0</ele><time>2026-04-27T13:34:01.387Z</time></trkpt><trkpt lat="44.4846239" lon="16.0968288"><ele>596.75</ele><time>2026-04-27T13:34:02.386Z</time></trkpt><trkpt lat="44.4844926" lon="16.0968675"><ele>597.5</ele><time>2026-04-27T13:34:03.386Z</time></trkpt><trkpt lat="44.4843673" lon="16.0969301"><ele>598.25</ele><time>2026-04-27T13:34:04.387Z</time></trkpt><trkpt lat="44.4842669" lon="16.0969739"><ele>599.0</ele><time>2026-04-27T13:34:05.386Z</time></trkpt><trkpt lat="44.4841607" lon="16.097022"><ele>599.0</ele><time>2026-04-27T13:34:06.386Z</time></trkpt><trkpt lat="44.4840594" lon="16.0970557"><ele>599.0</ele><time>2026-04-27T13:34:07.387Z</time></trkpt><trkpt lat="44.4839582" lon="16.097092"><ele>599.0</ele><time>2026-04-27T13:34:08.387Z</time></trkpt><trkpt lat="44.4838642" lon="16.0971324"><ele>599.0</ele><time>2026-04-27T13:34:09.386Z</time></trkpt><trkpt lat="44.4837439" lon="16.0972046"><ele>599.0</ele><time>2026-04-27T13:34:10.386Z</time></trkpt><trkpt lat="44.4836313" lon="16.0972437"><ele>598.25</ele><time>2026-04-27T13:34:11.386Z</time></trkpt><trkpt lat="44.4835001" lon="16.0973112"><ele>597.5</ele><time>2026-04-27T13:34:12.386Z</time></trkpt><trkpt lat="44.483378" lon="16.0973635"><ele>596.75</ele><time>2026-04-27T13:34:13.386Z</time></trkpt><trkpt lat="44.4832402" lon="16.0974307"><ele>596.0</ele><time>2026-04-27T13:34:14.386Z</time></trkpt><trkpt lat="44.4831245" lon="16.0974898"><ele>596.0</ele><time>2026-04-27T13:34:15.387Z</time></trkpt><trkpt lat="44.4829912" lon="16.0975438"><ele>596.0</ele><time>2026-04-27T13:34:16.386Z</time></trkpt><trkpt lat="44.4828776" lon="16.0976039"><ele>596.0</ele><time>2026-04-27T13:34:17.386Z</time></trkpt><trkpt lat="44.482773" lon="16.0976545"><ele>596.0</ele><time>2026-04-27T13:34:18.386Z</time></trkpt><trkpt lat="44.4826619" lon="16.0977085"><ele>594.75</ele><time>2026-04-27T13:34:19.386Z</time></trkpt><trkpt lat="44.4825427" lon="16.0977757"><ele>593.5</ele><time>2026-04-27T13:34:20.373Z</time></trkpt><trkpt lat="44.4824254" lon="16.0978286"><ele>592.25</ele><time>2026-04-27T13:34:21.375Z</time></trkpt><trkpt lat="44.4823084" lon="16.0978854"><ele>591.0</ele><time>2026-04-27T13:34:22.387Z</time></trkpt><trkpt lat="44.4822" lon="16.0979356"><ele>591.0</ele><time>2026-04-27T13:34:23.386Z</time></trkpt><trkpt lat="44.4821048" lon="16.0979802"><ele>591.0</ele><time>2026-04-27T13:34:24.386Z</time></trkpt><trkpt lat="44.4820102" lon="16.0980068"><ele>591.0</ele><time>2026-04-27T13:34:25.386Z</time></trkpt><trkpt lat="44.4819392" lon="16.0979979"><ele>591.0</ele><time>2026-04-27T13:34:26.386Z</time></trkpt><trkpt lat="44.4818599" lon="16.0979674"><ele>591.0</ele><time>2026-04-27T13:34:27.386Z</time></trkpt><trkpt lat="44.48177" lon="16.0979129"><ele>591.0</ele><time>2026-04-27T13:34:28.386Z</time></trkpt><trkpt lat="44.4816776" lon="16.0978416"><ele>590.75</ele><time>2026-04-27T13:34:29.386Z</time></trkpt><trkpt lat="44.4815811" lon="16.0977561"><ele>590.5</ele><time>2026-04-27T13:34:30.384Z</time></trkpt><trkpt lat="44.4814849" lon="16.0976684"><ele>590.25</ele><time>2026-04-27T13:34:31.387Z</time></trkpt><trkpt lat="44.4813701" lon="16.0975516"><ele>590.0</ele><time>2026-04-27T13:34:32.386Z</time></trkpt><trkpt lat="44.4812691" lon="16.0974428"><ele>589.75</ele><time>2026-04-27T13:34:33.386Z</time></trkpt><trkpt lat="44.4811576" lon="16.097333"><ele>589.5</ele><time>2026-04-27T13:34:34.386Z</time></trkpt><trkpt lat="44.481044" lon="16.097219"><ele>589.25</ele><time>2026-04-27T13:34:35.386Z</time></trkpt><trkpt lat="44.4809096" lon="16.0971141"><ele>589.0</ele><time>2026-04-27T13:34:36.386Z</time></trkpt><trkpt lat="44.480765" lon="16.0970194"><ele>589.0</ele><time>2026-04-27T13:34:37.387Z</time></trkpt><trkpt lat="44.4806239" lon="16.0969171"><ele>589.0</ele><time>2026-04-27T13:34:38.385Z</time></trkpt><trkpt lat="44.4804797" lon="16.0968277"><ele>589.0</ele><time>2026-04-27T13:34:39.386Z</time></trkpt><trkpt lat="44.4803194" lon="16.0967424"><ele>588.5</ele><time>2026-04-27T13:34:40.386Z</time></trkpt><trkpt lat="44.480201" lon="16.0966906"><ele>588.0</ele><time>2026-04-27T13:34:41.385Z</time></trkpt><trkpt lat="44.4800692" lon="16.096635"><ele>587.5</ele><time>2026-04-27T13:34:42.386Z</time></trkpt><trkpt lat="44.4799398" lon="16.0965951"><ele>587.0</ele><time>2026-04-27T13:34:43.386Z</time></trkpt><trkpt lat="44.4798432" lon="16.0965768"><ele>587.0</ele><time>2026-04-27T13:34:44.386Z</time></trkpt><trkpt lat="44.4797285" lon="16.0965559"><ele>587.0</ele><time>2026-04-27T13:34:45.387Z</time></trkpt><trkpt lat="44.4796235" lon="16.0965112"><ele>587.0</ele><time>2026-04-27T13:34:46.386Z</time></trkpt><trkpt lat="44.4795123" lon="16.0964821"><ele>587.0</ele><time>2026-04-27T13:34:47.386Z</time></trkpt><trkpt lat="44.4794059" lon="16.0964612"><ele>587.0</ele><time>2026-04-27T13:34:48.386Z</time></trkpt><trkpt lat="44.479281" lon="16.0964785"><ele>589.0</ele><time>2026-04-27T13:34:49.386Z</time></trkpt><trkpt lat="44.4791519" lon="16.0965996"><ele>591.0</ele><time>2026-04-27T13:34:50.386Z</time></trkpt><trkpt lat="44.4790126" lon="16.0966695"><ele>593.0</ele><time>2026-04-27T13:34:51.379Z</time></trkpt><trkpt lat="44.478872" lon="16.0967464"><ele>592.3333333333333</ele><time>2026-04-27T13:34:52.384Z</time></trkpt><trkpt lat="44.4787333" lon="16.0968323"><ele>591.6666666666666</ele><time>2026-04-27T13:34:53.386Z</time></trkpt><trkpt lat="44.4785861" lon="16.0968948"><ele>591.0</ele><time>2026-04-27T13:34:54.386Z</time></trkpt><trkpt lat="44.4784457" lon="16.0969445"><ele>591.0</ele><time>2026-04-27T13:34:55.386Z</time></trkpt><trkpt lat="44.4783071" lon="16.0969926"><ele>591.0</ele><time>2026-04-27T13:34:56.387Z</time></trkpt><trkpt lat="44.478164" lon="16.0970213"><ele>591.0</ele><time>2026-04-27T13:34:57.387Z</time></trkpt><trkpt lat="44.478011" lon="16.0970436"><ele>591.0</ele><time>2026-04-27T13:34:58.386Z</time></trkpt><trkpt lat="44.4778755" lon="16.0970577"><ele>589.2</ele><time>2026-04-27T13:34:59.386Z</time></trkpt><trkpt lat="44.4777585" lon="16.0970768"><ele>587.4000000000001</ele><time>2026-04-27T13:35:00.386Z</time></trkpt><trkpt lat="44.4776581" lon="16.0971028"><ele>585.6</ele><time>2026-04-27T13:35:01.386Z</time></trkpt><trkpt lat="44.4775629" lon="16.0971691"><ele>583.8000000000001</ele><time>2026-04-27T13:35:02.386Z</time></trkpt><trkpt lat="44.4774724" lon="16.0972702"><ele>582.0</ele><time>2026-04-27T13:35:03.386Z</time></trkpt><trkpt lat="44.4773904" lon="16.0973926"><ele>581.75</ele><time>2026-04-27T13:35:04.387Z</time></trkpt><trkpt lat="44.4773172" lon="16.0975399"><ele>581.5</ele><time>2026-04-27T13:35:05.386Z</time></trkpt><trkpt lat="44.4772375" lon="16.0977063"><ele>581.25</ele><time>2026-04-27T13:35:06.386Z</time></trkpt><trkpt lat="44.4771623" lon="16.0978612"><ele>581.0</ele><time>2026-04-27T13:35:07.386Z</time></trkpt><trkpt lat="44.4771059" lon="16.0980583"><ele>580.5</ele><time>2026-04-27T13:35:08.387Z</time></trkpt><trkpt lat="44.4770441" lon="16.0982421"><ele>580.0</ele><time>2026-04-27T13:35:09.384Z</time></trkpt><trkpt lat="44.4769834" lon="16.0984153"><ele>579.5</ele><time>2026-04-27T13:35:10.387Z</time></trkpt><trkpt lat="44.4769198" lon="16.098591"><ele>579.0</ele><time>2026-04-27T13:35:11.386Z</time></trkpt><trkpt lat="44.4768658" lon="16.0987392"><ele>580.0</ele><time>2026-04-27T13:35:12.386Z</time></trkpt><trkpt lat="44.4768285" lon="16.0988622"><ele>581.0</ele><time>2026-04-27T13:35:13.386Z</time></trkpt><trkpt lat="44.476796" lon="16.0989658"><ele>582.0</ele><time>2026-04-27T13:35:14.387Z</time></trkpt><trkpt lat="44.4767578" lon="16.0991032"><ele>583.0</ele><time>2026-04-27T13:35:16.386Z</time></trkpt><trkpt lat="44.4766677" lon="16.0991031"><ele>584.0</ele><time>2026-04-27T13:35:20.386Z</time></trkpt><trkpt lat="44.4765971" lon="16.0989744"><ele>584.0</ele><time>2026-04-27T13:35:22.387Z</time></trkpt><trkpt lat="44.4765433" lon="16.0988798"><ele>584.0</ele><time>2026-04-27T13:35:23.386Z</time></trkpt><trkpt lat="44.4764701" lon="16.0987713"><ele>584.0</ele><time>2026-04-27T13:35:24.386Z</time></trkpt><trkpt lat="44.4763823" lon="16.0986596"><ele>584.0</ele><time>2026-04-27T13:35:25.387Z</time></trkpt><trkpt lat="44.4762767" lon="16.0985499"><ele>584.0</ele><time>2026-04-27T13:35:26.386Z</time></trkpt><trkpt lat="44.4761679" lon="16.0984398"><ele>583.5</ele><time>2026-04-27T13:35:27.386Z</time></trkpt><trkpt lat="44.4760477" lon="16.0983346"><ele>583.0</ele><time>2026-04-27T13:35:28.386Z</time></trkpt><trkpt lat="44.4759223" lon="16.0982256"><ele>582.5</ele><time>2026-04-27T13:35:29.386Z</time></trkpt><trkpt lat="44.475798" lon="16.0981225"><ele>582.0</ele><time>2026-04-27T13:35:30.386Z</time></trkpt><trkpt lat="44.4756827" lon="16.0980302"><ele>581.25</ele><time>2026-04-27T13:35:31.386Z</time></trkpt><trkpt lat="44.4755705" lon="16.097927"><ele>580.5</ele><time>2026-04-27T13:35:32.386Z</time></trkpt><trkpt lat="44.4754659" lon="16.0978175"><ele>579.75</ele><time>2026-04-27T13:35:33.387Z</time></trkpt><trkpt lat="44.4753619" lon="16.0976914"><ele>579.0</ele><time>2026-04-27T13:35:34.386Z</time></trkpt><trkpt lat="44.4752481" lon="16.0975537"><ele>579.0</ele><time>2026-04-27T13:35:35.386Z</time></trkpt><trkpt lat="44.4751441" lon="16.0974157"><ele>579.0</ele><time>2026-04-27T13:35:36.386Z</time></trkpt><trkpt lat="44.4750432" lon="16.0972633"><ele>579.0</ele><time>2026-04-27T13:35:37.386Z</time></trkpt><trkpt lat="44.4749508" lon="16.0971058"><ele>579.0</ele><time>2026-04-27T13:35:38.386Z</time></trkpt><trkpt lat="44.4748574" lon="16.0969327"><ele>579.0</ele><time>2026-04-27T13:35:39.386Z</time></trkpt><trkpt lat="44.4747617" lon="16.0967591"><ele>579.0</ele><time>2026-04-27T13:35:40.378Z</time></trkpt><trkpt lat="44.4746686" lon="16.0965827"><ele>579.0</ele><time>2026-04-27T13:35:41.386Z</time></trkpt><trkpt lat="44.474577" lon="16.0963946"><ele>580.3333333333334</ele><time>2026-04-27T13:35:42.386Z</time></trkpt><trkpt lat="44.4744975" lon="16.0961991"><ele>581.6666666666667</ele><time>2026-04-27T13:35:43.383Z</time></trkpt><trkpt lat="44.4744208" lon="16.0959882"><ele>583.0</ele><time>2026-04-27T13:35:44.386Z</time></trkpt><trkpt lat="44.4743563" lon="16.0957705"><ele>584.0</ele><time>2026-04-27T13:35:45.386Z</time></trkpt><trkpt lat="44.4743051" lon="16.0955542"><ele>585.0</ele><time>2026-04-27T13:35:46.386Z</time></trkpt><trkpt lat="44.4742449" lon="16.0953285"><ele>586.0</ele><time>2026-04-27T13:35:47.385Z</time></trkpt><trkpt lat="44.474182" lon="16.0951068"><ele>586.0</ele><time>2026-04-27T13:35:48.386Z</time></trkpt><trkpt lat="44.4741214" lon="16.0948868"><ele>586.0</ele><time>2026-04-27T13:35:49.387Z</time></trkpt><trkpt lat="44.4740606" lon="16.094667"><ele>586.0</ele><time>2026-04-27T13:35:50.387Z</time></trkpt><trkpt lat="44.4740081" lon="16.0944583"><ele>586.0</ele><time>2026-04-27T13:35:51.385Z</time></trkpt><trkpt lat="44.4739623" lon="16.0942638"><ele>586.0</ele><time>2026-04-27T13:35:52.385Z</time></trkpt><trkpt lat="44.4739247" lon="16.0940637"><ele>586.0</ele><time>2026-04-27T13:35:53.387Z</time></trkpt><trkpt lat="44.4739139" lon="16.0938611"><ele>586.0</ele><time>2026-04-27T13:35:54.383Z</time></trkpt><trkpt lat="44.4739035" lon="16.0936589"><ele>585.25</ele><time>2026-04-27T13:35:55.384Z</time></trkpt><trkpt lat="44.4739458" lon="16.0934597"><ele>584.5</ele><time>2026-04-27T13:35:56.386Z</time></trkpt><trkpt lat="44.474001" lon="16.0932784"><ele>583.75</ele><time>2026-04-27T13:35:57.382Z</time></trkpt><trkpt lat="44.4740771" lon="16.0931154"><ele>583.0</ele><time>2026-04-27T13:35:58.384Z</time></trkpt><trkpt lat="44.4741805" lon="16.0929553"><ele>583.0</ele><time>2026-04-27T13:35:59.387Z</time></trkpt><trkpt lat="44.4742897" lon="16.092801"><ele>583.0</ele><time>2026-04-27T13:36:00.385Z</time></trkpt><trkpt lat="44.4744146" lon="16.0926386"><ele>583.0</ele><time>2026-04-27T13:36:01.386Z</time></trkpt><trkpt lat="44.474547" lon="16.0924872"><ele>580.3333333333334</ele><time>2026-04-27T13:36:02.386Z</time></trkpt><trkpt lat="44.4746899" lon="16.0923306"><ele>577.6666666666666</ele><time>2026-04-27T13:36:03.383Z</time></trkpt><trkpt lat="44.4748299" lon="16.0921731"><ele>575.0</ele><time>2026-04-27T13:36:04.384Z</time></trkpt><trkpt lat="44.4749655" lon="16.0920204"><ele>575.0</ele><time>2026-04-27T13:36:05.384Z</time></trkpt><trkpt lat="44.4751015" lon="16.0918671"><ele>575.0</ele><time>2026-04-27T13:36:06.387Z</time></trkpt><trkpt lat="44.4752318" lon="16.0917172"><ele>575.0</ele><time>2026-04-27T13:36:07.386Z</time></trkpt><trkpt lat="44.4753594" lon="16.091564"><ele>574.3333333333333</ele><time>2026-04-27T13:36:08.386Z</time></trkpt><trkpt lat="44.4754815" lon="16.0914233"><ele>573.6666666666666</ele><time>2026-04-27T13:36:09.387Z</time></trkpt><trkpt lat="44.4756068" lon="16.0912786"><ele>573.0</ele><time>2026-04-27T13:36:10.386Z</time></trkpt><trkpt lat="44.4757249" lon="16.0911319"><ele>573.0</ele><time>2026-04-27T13:36:11.386Z</time></trkpt><trkpt lat="44.4758511" lon="16.090983"><ele>573.0</ele><time>2026-04-27T13:36:12.385Z</time></trkpt><trkpt lat="44.4759671" lon="16.0908368"><ele>573.0</ele><time>2026-04-27T13:36:13.384Z</time></trkpt><trkpt lat="44.4760928" lon="16.0906935"><ele>572.3333333333334</ele><time>2026-04-27T13:36:14.386Z</time></trkpt><trkpt lat="44.476224" lon="16.0905443"><ele>571.6666666666667</ele><time>2026-04-27T13:36:15.386Z</time></trkpt><trkpt lat="44.4763492" lon="16.0903939"><ele>571.0</ele><time>2026-04-27T13:36:16.386Z</time></trkpt><trkpt lat="44.4764784" lon="16.0902411"><ele>571.0</ele><time>2026-04-27T13:36:17.386Z</time></trkpt><trkpt lat="44.4766095" lon="16.0900822"><ele>571.0</ele><time>2026-04-27T13:36:18.386Z</time></trkpt><trkpt lat="44.4767424" lon="16.0899296"><ele>571.0</ele><time>2026-04-27T13:36:19.387Z</time></trkpt><trkpt lat="44.4768788" lon="16.0897733"><ele>572.3333333333334</ele><time>2026-04-27T13:36:20.385Z</time></trkpt><trkpt lat="44.4770214" lon="16.0896076"><ele>573.6666666666666</ele><time>2026-04-27T13:36:21.386Z</time></trkpt><trkpt lat="44.4771618" lon="16.0894401"><ele>575.0</ele><time>2026-04-27T13:36:22.386Z</time></trkpt><trkpt lat="44.4773102" lon="16.0892671"><ele>572.6666666666666</ele><time>2026-04-27T13:36:23.387Z</time></trkpt><trkpt lat="44.4774554" lon="16.0890965"><ele>570.3333333333334</ele><time>2026-04-27T13:36:24.386Z</time></trkpt><trkpt lat="44.4775974" lon="16.0889343"><ele>568.0</ele><time>2026-04-27T13:36:25.383Z</time></trkpt><trkpt lat="44.4777305" lon="16.0887744"><ele>568.0</ele><time>2026-04-27T13:36:26.386Z</time></trkpt><trkpt lat="44.4778622" lon="16.0886124"><ele>568.0</ele><time>2026-04-27T13:36:27.386Z</time></trkpt><trkpt lat="44.4779857" lon="16.0884649"><ele>568.0</ele><time>2026-04-27T13:36:28.386Z</time></trkpt><trkpt lat="44.4781109" lon="16.0883165"><ele>567.0</ele><time>2026-04-27T13:36:29.387Z</time></trkpt><trkpt lat="44.4782355" lon="16.088179"><ele>566.0</ele><time>2026-04-27T13:36:30.386Z</time></trkpt><trkpt lat="44.4783586" lon="16.0880359"><ele>565.0</ele><time>2026-04-27T13:36:31.386Z</time></trkpt><trkpt lat="44.4784781" lon="16.0878988"><ele>565.0</ele><time>2026-04-27T13:36:32.387Z</time></trkpt><trkpt lat="44.4785933" lon="16.0877638"><ele>565.0</ele><time>2026-04-27T13:36:33.386Z</time></trkpt><trkpt lat="44.4787034" lon="16.0876317"><ele>565.0</ele><time>2026-04-27T13:36:34.386Z</time></trkpt><trkpt lat="44.4788147" lon="16.0874962"><ele>565.0</ele><time>2026-04-27T13:36:35.385Z</time></trkpt><trkpt lat="44.478925" lon="16.0873545"><ele>564.25</ele><time>2026-04-27T13:36:36.386Z</time></trkpt><trkpt lat="44.4790279" lon="16.0872087"><ele>563.5</ele><time>2026-04-27T13:36:37.387Z</time></trkpt><trkpt lat="44.4791313" lon="16.0870574"><ele>562.75</ele><time>2026-04-27T13:36:38.385Z</time></trkpt><trkpt lat="44.4792359" lon="16.0869046"><ele>562.0</ele><time>2026-04-27T13:36:39.387Z</time></trkpt><trkpt lat="44.4793308" lon="16.0867484"><ele>562.0</ele><time>2026-04-27T13:36:40.385Z</time></trkpt><trkpt lat="44.4794281" lon="16.0865837"><ele>562.0</ele><time>2026-04-27T13:36:41.386Z</time></trkpt><trkpt lat="44.479512" lon="16.0864052"><ele>562.0</ele><time>2026-04-27T13:36:42.386Z</time></trkpt><trkpt lat="44.4795861" lon="16.086218"><ele>559.6666666666667</ele><time>2026-04-27T13:36:43.385Z</time></trkpt><trkpt lat="44.4796537" lon="16.0860219"><ele>557.3333333333334</ele><time>2026-04-27T13:36:44.386Z</time></trkpt><trkpt lat="44.47971" lon="16.0858203"><ele>555.0</ele><time>2026-04-27T13:36:45.386Z</time></trkpt><trkpt lat="44.4797644" lon="16.0856171"><ele>554.6666666666666</ele><time>2026-04-27T13:36:46.385Z</time></trkpt><trkpt lat="44.4798097" lon="16.085414"><ele>554.3333333333333</ele><time>2026-04-27T13:36:47.386Z</time></trkpt><trkpt lat="44.4798552" lon="16.0852083"><ele>554.0</ele><time>2026-04-27T13:36:48.386Z</time></trkpt><trkpt lat="44.4798973" lon="16.0849899"><ele>554.3333333333333</ele><time>2026-04-27T13:36:49.386Z</time></trkpt><trkpt lat="44.4799391" lon="16.0847681"><ele>554.6666666666666</ele><time>2026-04-27T13:36:50.385Z</time></trkpt><trkpt lat="44.4799852" lon="16.0845498"><ele>555.0</ele><time>2026-04-27T13:36:51.386Z</time></trkpt><trkpt lat="44.4800366" lon="16.0843266"><ele>555.0</ele><time>2026-04-27T13:36:52.386Z</time></trkpt><trkpt lat="44.4800812" lon="16.0841001"><ele>555.0</ele><time>2026-04-27T13:36:53.386Z</time></trkpt><trkpt lat="44.4801259" lon="16.0838726"><ele>555.0</ele><time>2026-04-27T13:36:54.384Z</time></trkpt><trkpt lat="44.4801739" lon="16.083642"><ele>556.6666666666666</ele><time>2026-04-27T13:36:55.386Z</time></trkpt><trkpt lat="44.4802195" lon="16.083414"><ele>558.3333333333333</ele><time>2026-04-27T13:36:56.384Z</time></trkpt><trkpt lat="44.4802581" lon="16.0831791"><ele>560.0</ele><time>2026-04-27T13:36:57.386Z</time></trkpt><trkpt lat="44.4803099" lon="16.0829406"><ele>560.0</ele><time>2026-04-27T13:36:58.387Z</time></trkpt><trkpt lat="44.4803557" lon="16.0827084"><ele>560.0</ele><time>2026-04-27T13:36:59.387Z</time></trkpt><trkpt lat="44.4803965" lon="16.0824724"><ele>560.0</ele><time>2026-04-27T13:37:00.386Z</time></trkpt><trkpt lat="44.4804467" lon="16.0822346"><ele>558.0</ele><time>2026-04-27T13:37:01.386Z</time></trkpt><trkpt lat="44.4804888" lon="16.0819943"><ele>556.0</ele><time>2026-04-27T13:37:02.383Z</time></trkpt><trkpt lat="44.4805316" lon="16.0817529"><ele>554.0</ele><time>2026-04-27T13:37:03.385Z</time></trkpt><trkpt lat="44.48056" lon="16.0815176"><ele>553.0</ele><time>2026-04-27T13:37:04.386Z</time></trkpt><trkpt lat="44.4805814" lon="16.081282"><ele>552.0</ele><time>2026-04-27T13:37:05.386Z</time></trkpt><trkpt lat="44.4805828" lon="16.0810452"><ele>551.0</ele><time>2026-04-27T13:37:06.386Z</time></trkpt><trkpt lat="44.4805745" lon="16.0808067"><ele>552.0</ele><time>2026-04-27T13:37:07.386Z</time></trkpt><trkpt lat="44.480561" lon="16.080583"><ele>553.0</ele><time>2026-04-27T13:37:08.384Z</time></trkpt><trkpt lat="44.4805414" lon="16.0803591"><ele>554.0</ele><time>2026-04-27T13:37:09.386Z</time></trkpt><trkpt lat="44.4805236" lon="16.0801394"><ele>554.6666666666666</ele><time>2026-04-27T13:37:10.385Z</time></trkpt><trkpt lat="44.4805012" lon="16.0799202"><ele>555.3333333333334</ele><time>2026-04-27T13:37:11.387Z</time></trkpt><trkpt lat="44.4804808" lon="16.0797019"><ele>556.0</ele><time>2026-04-27T13:37:12.386Z</time></trkpt><trkpt lat="44.480469" lon="16.0794978"><ele>556.0</ele><time>2026-04-27T13:37:13.386Z</time></trkpt><trkpt lat="44.480451" lon="16.0792962"><ele>556.0</ele><time>2026-04-27T13:37:14.386Z</time></trkpt><trkpt lat="44.4804339" lon="16.0790899"><ele>556.0</ele><time>2026-04-27T13:37:15.387Z</time></trkpt><trkpt lat="44.4804177" lon="16.0788929"><ele>556.0</ele><time>2026-04-27T13:37:16.386Z</time></trkpt><trkpt lat="44.4803964" lon="16.0787034"><ele>557.0</ele><time>2026-04-27T13:37:17.386Z</time></trkpt><trkpt lat="44.4803739" lon="16.0785429"><ele>558.0</ele><time>2026-04-27T13:37:18.386Z</time></trkpt><trkpt lat="44.4803503" lon="16.0784088"><ele>559.0</ele><time>2026-04-27T13:37:19.386Z</time></trkpt><trkpt lat="44.4802972" lon="16.0782998"><ele>560.0</ele><time>2026-04-27T13:37:21.385Z</time></trkpt><trkpt lat="44.4802097" lon="16.0782573"><ele>561.0</ele><time>2026-04-27T13:37:23.386Z</time></trkpt><trkpt lat="44.4801344" lon="16.0782444"><ele>561.0</ele><time>2026-04-27T13:37:24.386Z</time></trkpt><trkpt lat="44.4800597" lon="16.0782208"><ele>561.0</ele><time>2026-04-27T13:37:25.386Z</time></trkpt><trkpt lat="44.4799797" lon="16.0781951"><ele>561.0</ele><time>2026-04-27T13:37:26.386Z</time></trkpt><trkpt lat="44.4799022" lon="16.0781445"><ele>561.0</ele><time>2026-04-27T13:37:27.385Z</time></trkpt><trkpt lat="44.4798205" lon="16.0780891"><ele>561.0</ele><time>2026-04-27T13:37:28.386Z</time></trkpt><trkpt lat="44.4797548" lon="16.0780647"><ele>561.0</ele><time>2026-04-27T13:37:29.386Z</time></trkpt><trkpt lat="44.4796692" lon="16.0780353"><ele>560.8</ele><time>2026-04-27T13:37:30.387Z</time></trkpt><trkpt lat="44.4795844" lon="16.0780036"><ele>560.6</ele><time>2026-04-27T13:37:31.386Z</time></trkpt><trkpt lat="44.4794874" lon="16.0779792"><ele>560.4</ele><time>2026-04-27T13:37:32.386Z</time></trkpt><trkpt lat="44.4793426" lon="16.0779591"><ele>560.2</ele><time>2026-04-27T13:37:33.376Z</time></trkpt><trkpt lat="44.4792346" lon="16.0779585"><ele>560.0</ele><time>2026-04-27T13:37:34.386Z</time></trkpt><trkpt lat="44.4791319" lon="16.0779405"><ele>560.0</ele><time>2026-04-27T13:37:35.386Z</time></trkpt><trkpt lat="44.4790341" lon="16.0779135"><ele>560.0</ele><time>2026-04-27T13:37:36.386Z</time></trkpt><trkpt lat="44.4789433" lon="16.0778702"><ele>560.0</ele><time>2026-04-27T13:37:37.386Z</time></trkpt><trkpt lat="44.4788472" lon="16.077824"><ele>560.0</ele><time>2026-04-27T13:37:38.384Z</time></trkpt><trkpt lat="44.4787521" lon="16.0777565"><ele>560.0</ele><time>2026-04-27T13:37:39.387Z</time></trkpt><trkpt lat="44.4786733" lon="16.0776871"><ele>560.3333333333333</ele><time>2026-04-27T13:37:40.386Z</time></trkpt><trkpt lat="44.4786003" lon="16.0776248"><ele>560.6666666666666</ele><time>2026-04-27T13:37:41.387Z</time></trkpt><trkpt lat="44.4785289" lon="16.0775623"><ele>561.0</ele><time>2026-04-27T13:37:42.38Z</time></trkpt><trkpt lat="44.4784601" lon="16.077428"><ele>561.3333333333334</ele><time>2026-04-27T13:37:44.387Z</time></trkpt><trkpt lat="44.4784494" lon="16.0773288"><ele>561.6666666666667</ele><time>2026-04-27T13:37:45.386Z</time></trkpt><trkpt lat="44.4784504" lon="16.077225"><ele>562.0</ele><time>2026-04-27T13:37:46.386Z</time></trkpt><trkpt lat="44.4784582" lon="16.077108"><ele>562.0</ele><time>2026-04-27T13:37:47.386Z</time></trkpt><trkpt lat="44.4784621" lon="16.0769648"><ele>562.0</ele><time>2026-04-27T13:37:48.386Z</time></trkpt><trkpt lat="44.4784471" lon="16.0768251"><ele>562.0</ele><time>2026-04-27T13:37:49.386Z</time></trkpt><trkpt lat="44.4784197" lon="16.0766625"><ele>562.0</ele><time>2026-04-27T13:37:50.386Z</time></trkpt><trkpt lat="44.4783836" lon="16.0765116"><ele>562.0</ele><time>2026-04-27T13:37:51.386Z</time></trkpt><trkpt lat="44.47835" lon="16.0763617"><ele>563.75</ele><time>2026-04-27T13:37:52.386Z</time></trkpt><trkpt lat="44.4783188" lon="16.0762061"><ele>565.5</ele><time>2026-04-27T13:37:53.386Z</time></trkpt><trkpt lat="44.4782829" lon="16.0760451"><ele>567.25</ele><time>2026-04-27T13:37:54.382Z</time></trkpt><trkpt lat="44.4782387" lon="16.0758753"><ele>569.0</ele><time>2026-04-27T13:37:55.387Z</time></trkpt><trkpt lat="44.4781957" lon="16.0757223"><ele>569.6</ele><time>2026-04-27T13:37:56.386Z</time></trkpt><trkpt lat="44.4781856" lon="16.0755989"><ele>570.2</ele><time>2026-04-27T13:37:57.386Z</time></trkpt><trkpt lat="44.4781821" lon="16.0754734"><ele>570.8000000000001</ele><time>2026-04-27T13:37:58.386Z</time></trkpt><trkpt lat="44.4781607" lon="16.0753333"><ele>571.4</ele><time>2026-04-27T13:37:59.386Z</time></trkpt><trkpt lat="44.4781609" lon="16.0752147"><ele>572.0</ele><time>2026-04-27T13:38:00.386Z</time></trkpt><trkpt lat="44.478134" lon="16.0750698"><ele>570.75</ele><time>2026-04-27T13:38:01.386Z</time></trkpt><trkpt lat="44.4780968" lon="16.074899"><ele>569.5</ele><time>2026-04-27T13:38:02.384Z</time></trkpt><trkpt lat="44.4780684" lon="16.0747527"><ele>568.25</ele><time>2026-04-27T13:38:03.386Z</time></trkpt><trkpt lat="44.4780167" lon="16.0746105"><ele>567.0</ele><time>2026-04-27T13:38:04.387Z</time></trkpt><trkpt lat="44.477962" lon="16.0744661"><ele>567.6</ele><time>2026-04-27T13:38:05.386Z</time></trkpt><trkpt lat="44.4779216" lon="16.0743382"><ele>568.2</ele><time>2026-04-27T13:38:06.386Z</time></trkpt><trkpt lat="44.4778694" lon="16.0742308"><ele>568.8</ele><time>2026-04-27T13:38:07.386Z</time></trkpt><trkpt lat="44.477807" lon="16.074129"><ele>569.4</ele><time>2026-04-27T13:38:08.386Z</time></trkpt><trkpt lat="44.4777093" lon="16.0740441"><ele>570.0</ele><time>2026-04-27T13:38:09.386Z</time></trkpt><trkpt lat="44.4776213" lon="16.0739561"><ele>570.0</ele><time>2026-04-27T13:38:10.386Z</time></trkpt><trkpt lat="44.4775337" lon="16.0738792"><ele>570.0</ele><time>2026-04-27T13:38:11.386Z</time></trkpt><trkpt lat="44.4774612" lon="16.0738246"><ele>570.0</ele><time>2026-04-27T13:38:12.386Z</time></trkpt><trkpt lat="44.477369" lon="16.0737571"><ele>570.0</ele><time>2026-04-27T13:38:13.386Z</time></trkpt><trkpt lat="44.4772833" lon="16.073699"><ele>570.0</ele><time>2026-04-27T13:38:14.386Z</time></trkpt><trkpt lat="44.4771906" lon="16.0736678"><ele>569.8</ele><time>2026-04-27T13:38:15.386Z</time></trkpt><trkpt lat="44.4770924" lon="16.073651"><ele>569.6</ele><time>2026-04-27T13:38:16.386Z</time></trkpt><trkpt lat="44.4769892" lon="16.0736604"><ele>569.4</ele><time>2026-04-27T13:38:17.387Z</time></trkpt><trkpt lat="44.4768961" lon="16.0736676"><ele>569.2</ele><time>2026-04-27T13:38:18.387Z</time></trkpt><trkpt lat="44.4767992" lon="16.073667"><ele>569.0</ele><time>2026-04-27T13:38:19.386Z</time></trkpt><trkpt lat="44.4767046" lon="16.0736503"><ele>569.0</ele><time>2026-04-27T13:38:20.385Z</time></trkpt><trkpt lat="44.4766031" lon="16.0736083"><ele>569.0</ele><time>2026-04-27T13:38:21.387Z</time></trkpt><trkpt lat="44.4765007" lon="16.0735384"><ele>569.0</ele><time>2026-04-27T13:38:22.386Z</time></trkpt><trkpt lat="44.4763896" lon="16.073473"><ele>569.0</ele><time>2026-04-27T13:38:23.386Z</time></trkpt><trkpt lat="44.4762801" lon="16.0734255"><ele>569.0</ele><time>2026-04-27T13:38:24.386Z</time></trkpt><trkpt lat="44.4761712" lon="16.0733749"><ele>569.0</ele><time>2026-04-27T13:38:25.387Z</time></trkpt><trkpt lat="44.4760655" lon="16.0733411"><ele>569.0</ele><time>2026-04-27T13:38:26.387Z</time></trkpt><trkpt lat="44.4759712" lon="16.0733141"><ele>569.0</ele><time>2026-04-27T13:38:27.386Z</time></trkpt><trkpt lat="44.4758541" lon="16.0732902"><ele>569.0</ele><time>2026-04-27T13:38:28.386Z</time></trkpt><trkpt lat="44.4757631" lon="16.0732759"><ele>568.25</ele><time>2026-04-27T13:38:29.384Z</time></trkpt><trkpt lat="44.4756683" lon="16.0732548"><ele>567.5</ele><time>2026-04-27T13:38:30.385Z</time></trkpt><trkpt lat="44.4755829" lon="16.0732343"><ele>566.75</ele><time>2026-04-27T13:38:31.386Z</time></trkpt><trkpt lat="44.4754407" lon="16.0732713"><ele>566.0</ele><time>2026-04-27T13:38:32.385Z</time></trkpt><trkpt lat="44.4753169" lon="16.0732909"><ele>566.0</ele><time>2026-04-27T13:38:33.386Z</time></trkpt><trkpt lat="44.4751808" lon="16.0733024"><ele>566.0</ele><time>2026-04-27T13:38:34.386Z</time></trkpt><trkpt lat="44.4750441" lon="16.0733014"><ele>566.0</ele><time>2026-04-27T13:38:35.386Z</time></trkpt><trkpt lat="44.4749084" lon="16.0733102"><ele>566.0</ele><time>2026-04-27T13:38:36.386Z</time></trkpt><trkpt lat="44.4747726" lon="16.0733303"><ele>566.0</ele><time>2026-04-27T13:38:37.387Z</time></trkpt><trkpt lat="44.4746373" lon="16.0733241"><ele>566.0</ele><time>2026-04-27T13:38:38.387Z</time></trkpt><trkpt lat="44.4745109" lon="16.0733193"><ele>566.0</ele><time>2026-04-27T13:38:39.385Z</time></trkpt><trkpt lat="44.4743809" lon="16.0733136"><ele>566.0</ele><time>2026-04-27T13:38:40.385Z</time></trkpt><trkpt lat="44.4742505" lon="16.0733"><ele>566.0</ele><time>2026-04-27T13:38:41.387Z</time></trkpt><trkpt lat="44.474138" lon="16.0732911"><ele>566.0</ele><time>2026-04-27T13:38:42.386Z</time></trkpt><trkpt lat="44.4740323" lon="16.0732597"><ele>566.0</ele><time>2026-04-27T13:38:43.387Z</time></trkpt><trkpt lat="44.47392" lon="16.0732023"><ele>566.0</ele><time>2026-04-27T13:38:44.386Z</time></trkpt><trkpt lat="44.4738225" lon="16.0731188"><ele>566.6</ele><time>2026-04-27T13:38:45.382Z</time></trkpt><trkpt lat="44.4737306" lon="16.0730071"><ele>567.2</ele><time>2026-04-27T13:38:46.387Z</time></trkpt><trkpt lat="44.4736556" lon="16.0728801"><ele>567.8</ele><time>2026-04-27T13:38:47.387Z</time></trkpt><trkpt lat="44.4735952" lon="16.072744"><ele>568.4</ele><time>2026-04-27T13:38:48.385Z</time></trkpt><trkpt lat="44.4735503" lon="16.0726285"><ele>569.0</ele><time>2026-04-27T13:38:49.384Z</time></trkpt><trkpt lat="44.4735184" lon="16.0725505"><ele>569.0</ele><time>2026-04-27T13:38:51.387Z</time></trkpt><trkpt lat="44.4734804" lon="16.0724543"><ele>569.0</ele><time>2026-04-27T13:41:23.387Z</time></trkpt><trkpt lat="44.4734619" lon="16.0723692"><ele>569.0</ele><time>2026-04-27T13:41:24.386Z</time></trkpt><trkpt lat="44.4734403" lon="16.0722704"><ele>569.0</ele><time>2026-04-27T13:41:25.386Z</time></trkpt><trkpt lat="44.4734195" lon="16.0721642"><ele>569.0</ele><time>2026-04-27T13:41:26.386Z</time></trkpt><trkpt lat="44.4733991" lon="16.0720618"><ele>569.0</ele><time>2026-04-27T13:41:27.386Z</time></trkpt><trkpt lat="44.4733765" lon="16.0719471"><ele>568.3333333333333</ele><time>2026-04-27T13:41:28.387Z</time></trkpt><trkpt lat="44.4733531" lon="16.0718412"><ele>567.6666666666666</ele><time>2026-04-27T13:41:29.386Z</time></trkpt><trkpt lat="44.4733268" lon="16.0717463"><ele>567.0</ele><time>2026-04-27T13:41:30.387Z</time></trkpt><trkpt lat="44.4732959" lon="16.0716332"><ele>566.3333333333334</ele><time>2026-04-27T13:41:31.387Z</time></trkpt><trkpt lat="44.4732597" lon="16.0715221"><ele>565.6666666666667</ele><time>2026-04-27T13:41:32.386Z</time></trkpt><trkpt lat="44.4732122" lon="16.0714124"><ele>565.0</ele><time>2026-04-27T13:41:33.386Z</time></trkpt><trkpt lat="44.4731665" lon="16.0712906"><ele>564.5</ele><time>2026-04-27T13:41:34.386Z</time></trkpt><trkpt lat="44.4731308" lon="16.0711845"><ele>564.0</ele><time>2026-04-27T13:41:35.386Z</time></trkpt><trkpt lat="44.4730772" lon="16.0710916"><ele>563.5</ele><time>2026-04-27T13:41:36.386Z</time></trkpt><trkpt lat="44.4730134" lon="16.0710049"><ele>563.0</ele><time>2026-04-27T13:41:37.387Z</time></trkpt><trkpt lat="44.4729398" lon="16.0709147"><ele>562.5</ele><time>2026-04-27T13:41:38.385Z</time></trkpt><trkpt lat="44.4728859" lon="16.070819"><ele>562.0</ele><time>2026-04-27T13:41:39.386Z</time></trkpt><trkpt lat="44.4728199" lon="16.0707117"><ele>561.8000000000001</ele><time>2026-04-27T13:41:40.387Z</time></trkpt><trkpt lat="44.4727492" lon="16.0706125"><ele>561.6</ele><time>2026-04-27T13:41:41.386Z</time></trkpt><trkpt lat="44.4726827" lon="16.070511"><ele>561.4000000000001</ele><time>2026-04-27T13:41:42.386Z</time></trkpt><trkpt lat="44.4726081" lon="16.0704079"><ele>561.2</ele><time>2026-04-27T13:41:43.386Z</time></trkpt><trkpt lat="44.4725402" lon="16.0703102"><ele>561.0</ele><time>2026-04-27T13:41:44.386Z</time></trkpt><trkpt lat="44.4724775" lon="16.0702245"><ele>561.0</ele><time>2026-04-27T13:41:45.386Z</time></trkpt><trkpt lat="44.4724059" lon="16.0701496"><ele>561.0</ele><time>2026-04-27T13:41:46.386Z</time></trkpt><trkpt lat="44.4723287" lon="16.0700698"><ele>561.0</ele><time>2026-04-27T13:41:47.382Z</time></trkpt><trkpt lat="44.4722413" lon="16.0699871"><ele>561.0</ele><time>2026-04-27T13:41:48.386Z</time></trkpt><trkpt lat="44.4721581" lon="16.0699107"><ele>561.0</ele><time>2026-04-27T13:41:49.386Z</time></trkpt><trkpt lat="44.4720761" lon="16.0698336"><ele>559.0</ele><time>2026-04-27T13:41:50.386Z</time></trkpt><trkpt lat="44.4719972" lon="16.0697651"><ele>557.0</ele><time>2026-04-27T13:41:51.386Z</time></trkpt><trkpt lat="44.4719121" lon="16.0697252"><ele>555.0</ele><time>2026-04-27T13:41:52.386Z</time></trkpt><trkpt lat="44.471806" lon="16.0696933"><ele>553.0</ele><time>2026-04-27T13:41:53.386Z</time></trkpt><trkpt lat="44.4716997" lon="16.069681"><ele>551.0</ele><time>2026-04-27T13:41:54.387Z</time></trkpt><trkpt lat="44.4715986" lon="16.0696912"><ele>551.0</ele><time>2026-04-27T13:41:55.387Z</time></trkpt><trkpt lat="44.4714899" lon="16.069687"><ele>551.0</ele><time>2026-04-27T13:41:56.386Z</time></trkpt><trkpt lat="44.4713872" lon="16.0696806"><ele>551.0</ele><time>2026-04-27T13:41:57.387Z</time></trkpt><trkpt lat="44.4712808" lon="16.0696632"><ele>551.0</ele><time>2026-04-27T13:41:58.384Z</time></trkpt><trkpt lat="44.4711961" lon="16.0696288"><ele>551.0</ele><time>2026-04-27T13:41:59.386Z</time></trkpt><trkpt lat="44.4711001" lon="16.0695896"><ele>550.6</ele><time>2026-04-27T13:42:00.383Z</time></trkpt><trkpt lat="44.471006" lon="16.0695535"><ele>550.2</ele><time>2026-04-27T13:42:01.387Z</time></trkpt><trkpt lat="44.4709213" lon="16.0695538"><ele>549.8</ele><time>2026-04-27T13:42:02.387Z</time></trkpt><trkpt lat="44.4708372" lon="16.0695733"><ele>549.4</ele><time>2026-04-27T13:42:03.384Z</time></trkpt><trkpt lat="44.470745" lon="16.0695796"><ele>549.0</ele><time>2026-04-27T13:42:04.387Z</time></trkpt><trkpt lat="44.470645" lon="16.069569"><ele>549.0</ele><time>2026-04-27T13:42:05.384Z</time></trkpt><trkpt lat="44.470542" lon="16.0695429"><ele>549.0</ele><time>2026-04-27T13:42:06.381Z</time></trkpt><trkpt lat="44.4704369" lon="16.0695098"><ele>549.0</ele><time>2026-04-27T13:42:07.387Z</time></trkpt><trkpt lat="44.4703321" lon="16.0694655"><ele>549.0</ele><time>2026-04-27T13:42:08.386Z</time></trkpt><trkpt lat="44.4702274" lon="16.06942"><ele>549.0</ele><time>2026-04-27T13:42:09.386Z</time></trkpt><trkpt lat="44.4701364" lon="16.0693756"><ele>548.6</ele><time>2026-04-27T13:42:10.385Z</time></trkpt><trkpt lat="44.4700506" lon="16.0693283"><ele>548.2</ele><time>2026-04-27T13:42:11.387Z</time></trkpt><trkpt lat="44.4699565" lon="16.0692786"><ele>547.8000000000001</ele><time>2026-04-27T13:42:12.386Z</time></trkpt><trkpt lat="44.4698704" lon="16.0692421"><ele>547.4</ele><time>2026-04-27T13:42:13.372Z</time></trkpt><trkpt lat="44.4697878" lon="16.0692255"><ele>547.0</ele><time>2026-04-27T13:42:14.385Z</time></trkpt><trkpt lat="44.4696958" lon="16.0692312"><ele>547.3333333333334</ele><time>2026-04-27T13:42:15.386Z</time></trkpt><trkpt lat="44.469598" lon="16.0692497"><ele>547.6666666666667</ele><time>2026-04-27T13:42:16.386Z</time></trkpt><trkpt lat="44.4695032" lon="16.0692571"><ele>548.0</ele><time>2026-04-27T13:42:17.383Z</time></trkpt><trkpt lat="44.4694238" lon="16.0692486"><ele>548.3333333333334</ele><time>2026-04-27T13:42:18.386Z</time></trkpt><trkpt lat="44.4693532" lon="16.0692244"><ele>548.6666666666666</ele><time>2026-04-27T13:42:19.384Z</time></trkpt><trkpt lat="44.4692932" lon="16.0691861"><ele>549.0</ele><time>2026-04-27T13:42:20.387Z</time></trkpt><trkpt lat="44.4692234" lon="16.0691438"><ele>549.0</ele><time>2026-04-27T13:42:21.378Z</time></trkpt><trkpt lat="44.4691412" lon="16.0690997"><ele>549.0</ele><time>2026-04-27T13:42:22.387Z</time></trkpt><trkpt lat="44.469054" lon="16.0690557"><ele>549.0</ele><time>2026-04-27T13:42:23.386Z</time></trkpt><trkpt lat="44.4689628" lon="16.0690259"><ele>549.0</ele><time>2026-04-27T13:42:24.387Z</time></trkpt><trkpt lat="44.4688754" lon="16.069006"><ele>549.0</ele><time>2026-04-27T13:42:25.386Z</time></trkpt><trkpt lat="44.4687832" lon="16.0689932"><ele>549.4</ele><time>2026-04-27T13:42:26.386Z</time></trkpt><trkpt lat="44.4686861" lon="16.0689818"><ele>549.8</ele><time>2026-04-27T13:42:27.384Z</time></trkpt><trkpt lat="44.4685868" lon="16.0689696"><ele>550.2</ele><time>2026-04-27T13:42:28.386Z</time></trkpt><trkpt lat="44.4684964" lon="16.0689576"><ele>550.6</ele><time>2026-04-27T13:42:29.386Z</time></trkpt><trkpt lat="44.4684158" lon="16.068978"><ele>551.0</ele><time>2026-04-27T13:42:30.382Z</time></trkpt><trkpt lat="44.4683209" lon="16.069006"><ele>551.0</ele><time>2026-04-27T13:42:31.386Z</time></trkpt><trkpt lat="44.4682318" lon="16.0690552"><ele>551.0</ele><time>2026-04-27T13:42:32.384Z</time></trkpt><trkpt lat="44.4681418" lon="16.0691287"><ele>551.0</ele><time>2026-04-27T13:42:33.384Z</time></trkpt><trkpt lat="44.4680575" lon="16.0692012"><ele>551.0</ele><time>2026-04-27T13:42:34.386Z</time></trkpt><trkpt lat="44.4679722" lon="16.0692685"><ele>551.0</ele><time>2026-04-27T13:42:35.387Z</time></trkpt><trkpt lat="44.467892" lon="16.0693304"><ele>550.6</ele><time>2026-04-27T13:42:36.387Z</time></trkpt><trkpt lat="44.4678119" lon="16.0693828"><ele>550.2</ele><time>2026-04-27T13:42:37.387Z</time></trkpt><trkpt lat="44.4677298" lon="16.0694068"><ele>549.8</ele><time>2026-04-27T13:42:38.386Z</time></trkpt><trkpt lat="44.4676407" lon="16.0694041"><ele>549.4</ele><time>2026-04-27T13:42:39.384Z</time></trkpt><trkpt lat="44.4675388" lon="16.0693933"><ele>549.0</ele><time>2026-04-27T13:42:40.385Z</time></trkpt><trkpt lat="44.4674401" lon="16.0693828"><ele>549.0</ele><time>2026-04-27T13:42:41.387Z</time></trkpt><trkpt lat="44.4673374" lon="16.0693858"><ele>549.0</ele><time>2026-04-27T13:42:42.386Z</time></trkpt><trkpt lat="44.4672295" lon="16.069398"><ele>549.0</ele><time>2026-04-27T13:42:43.386Z</time></trkpt><trkpt lat="44.4671322" lon="16.0694131"><ele>549.0</ele><time>2026-04-27T13:42:44.377Z</time></trkpt><trkpt lat="44.4670451" lon="16.0694148"><ele>549.0</ele><time>2026-04-27T13:42:45.374Z</time></trkpt><trkpt lat="44.4669601" lon="16.0694005"><ele>549.4</ele><time>2026-04-27T13:42:46.387Z</time></trkpt><trkpt lat="44.4668779" lon="16.0693528"><ele>549.8</ele><time>2026-04-27T13:42:47.386Z</time></trkpt><trkpt lat="44.4667967" lon="16.0693015"><ele>550.2</ele><time>2026-04-27T13:42:48.387Z</time></trkpt><trkpt lat="44.4667132" lon="16.0692423"><ele>550.6</ele><time>2026-04-27T13:42:49.385Z</time></trkpt><trkpt lat="44.4666219" lon="16.0691879"><ele>551.0</ele><time>2026-04-27T13:42:50.385Z</time></trkpt><trkpt lat="44.4665394" lon="16.0691203"><ele>552.3333333333333</ele><time>2026-04-27T13:42:51.386Z</time></trkpt><trkpt lat="44.4664681" lon="16.0690555"><ele>553.6666666666666</ele><time>2026-04-27T13:42:52.386Z</time></trkpt><trkpt lat="44.4663973" lon="16.0689928"><ele>555.0</ele><time>2026-04-27T13:42:53.386Z</time></trkpt><trkpt lat="44.4663311" lon="16.0689321"><ele>556.3333333333334</ele><time>2026-04-27T13:42:54.386Z</time></trkpt><trkpt lat="44.4662711" lon="16.0688781"><ele>557.6666666666667</ele><time>2026-04-27T13:42:55.386Z</time></trkpt><trkpt lat="44.4662025" lon="16.0688222"><ele>559.0</ele><time>2026-04-27T13:42:56.383Z</time></trkpt><trkpt lat="44.4661399" lon="16.0687608"><ele>559.2</ele><time>2026-04-27T13:42:57.386Z</time></trkpt><trkpt lat="44.466067" lon="16.0686937"><ele>559.4</ele><time>2026-04-27T13:42:58.383Z</time></trkpt><trkpt lat="44.4659931" lon="16.0686204"><ele>559.6</ele><time>2026-04-27T13:42:59.385Z</time></trkpt><trkpt lat="44.4659186" lon="16.0685506"><ele>559.8</ele><time>2026-04-27T13:43:00.386Z</time></trkpt><trkpt lat="44.4658388" lon="16.068465"><ele>560.0</ele><time>2026-04-27T13:43:01.386Z</time></trkpt><trkpt lat="44.4657487" lon="16.0683783"><ele>560.0</ele><time>2026-04-27T13:43:02.383Z</time></trkpt><trkpt lat="44.4656606" lon="16.0682887"><ele>560.0</ele><time>2026-04-27T13:43:03.379Z</time></trkpt><trkpt lat="44.4655779" lon="16.0681971"><ele>560.0</ele><time>2026-04-27T13:43:04.382Z</time></trkpt><trkpt lat="44.4654963" lon="16.0681061"><ele>560.0</ele><time>2026-04-27T13:43:05.386Z</time></trkpt><trkpt lat="44.465419" lon="16.0680202"><ele>560.0</ele><time>2026-04-27T13:43:06.386Z</time></trkpt><trkpt lat="44.4653504" lon="16.0679567"><ele>562.6666666666666</ele><time>2026-04-27T13:43:07.386Z</time></trkpt><trkpt lat="44.465287" lon="16.0679189"><ele>565.3333333333333</ele><time>2026-04-27T13:43:08.386Z</time></trkpt><trkpt lat="44.4652227" lon="16.0679064"><ele>568.0</ele><time>2026-04-27T13:43:09.387Z</time></trkpt><trkpt lat="44.4651589" lon="16.0679228"><ele>570.6666666666666</ele><time>2026-04-27T13:43:10.387Z</time></trkpt><trkpt lat="44.465096" lon="16.0679579"><ele>573.3333333333334</ele><time>2026-04-27T13:43:11.386Z</time></trkpt><trkpt lat="44.4650263" lon="16.0680214"><ele>576.0</ele><time>2026-04-27T13:43:12.386Z</time></trkpt><trkpt lat="44.4649519" lon="16.0681176"><ele>576.0</ele><time>2026-04-27T13:43:13.386Z</time></trkpt><trkpt lat="44.4648791" lon="16.0682283"><ele>576.0</ele><time>2026-04-27T13:43:14.383Z</time></trkpt><trkpt lat="44.4648009" lon="16.0683535"><ele>576.0</ele><time>2026-04-27T13:43:15.377Z</time></trkpt><trkpt lat="44.4647179" lon="16.0684734"><ele>576.0</ele><time>2026-04-27T13:43:16.384Z</time></trkpt><trkpt lat="44.4646342" lon="16.0685796"><ele>576.4</ele><time>2026-04-27T13:43:17.386Z</time></trkpt><trkpt lat="44.4645534" lon="16.0686719"><ele>576.8</ele><time>2026-04-27T13:43:18.386Z</time></trkpt><trkpt lat="44.4644609" lon="16.068754"><ele>577.1999999999999</ele><time>2026-04-27T13:43:19.386Z</time></trkpt><trkpt lat="44.46437" lon="16.0688399"><ele>577.6</ele><time>2026-04-27T13:43:20.387Z</time></trkpt><trkpt lat="44.4642953" lon="16.0689264"><ele>578.0</ele><time>2026-04-27T13:43:21.386Z</time></trkpt><trkpt lat="44.464241" lon="16.0690203"><ele>577.1666666666666</ele><time>2026-04-27T13:43:22.386Z</time></trkpt><trkpt lat="44.4642034" lon="16.0691186"><ele>576.3333333333333</ele><time>2026-04-27T13:43:23.385Z</time></trkpt><trkpt lat="44.4641653" lon="16.0692263"><ele>575.5</ele><time>2026-04-27T13:43:24.383Z</time></trkpt><trkpt lat="44.464136" lon="16.0693439"><ele>574.6666666666666</ele><time>2026-04-27T13:43:25.386Z</time></trkpt><trkpt lat="44.4640943" lon="16.0694582"><ele>573.8333333333334</ele><time>2026-04-27T13:43:26.386Z</time></trkpt><trkpt lat="44.4640495" lon="16.0695677"><ele>573.0</ele><time>2026-04-27T13:43:27.387Z</time></trkpt><trkpt lat="44.4639974" lon="16.0696767"><ele>573.0</ele><time>2026-04-27T13:43:28.385Z</time></trkpt><trkpt lat="44.463934" lon="16.0697707"><ele>573.0</ele><time>2026-04-27T13:43:29.386Z</time></trkpt><trkpt lat="44.4638617" lon="16.0698542"><ele>573.0</ele><time>2026-04-27T13:43:30.387Z</time></trkpt><trkpt lat="44.4637774" lon="16.0699321"><ele>573.0</ele><time>2026-04-27T13:43:31.382Z</time></trkpt><trkpt lat="44.4636747" lon="16.0700072"><ele>573.0</ele><time>2026-04-27T13:43:32.386Z</time></trkpt><trkpt lat="44.463565" lon="16.0700753"><ele>575.1999999999999</ele><time>2026-04-27T13:43:33.382Z</time></trkpt><trkpt lat="44.4634522" lon="16.0701383"><ele>577.4</ele><time>2026-04-27T13:43:34.386Z</time></trkpt><trkpt lat="44.4633463" lon="16.0701975"><ele>579.5999999999999</ele><time>2026-04-27T13:43:35.386Z</time></trkpt><trkpt lat="44.4632598" lon="16.0702595"><ele>581.8</ele><time>2026-04-27T13:43:36.387Z</time></trkpt><trkpt lat="44.4631907" lon="16.0703234"><ele>584.0</ele><time>2026-04-27T13:43:37.384Z</time></trkpt><trkpt lat="44.4631314" lon="16.0703913"><ele>584.0</ele><time>2026-04-27T13:43:38.386Z</time></trkpt><trkpt lat="44.4630588" lon="16.0704985"><ele>584.0</ele><time>2026-04-27T13:43:39.386Z</time></trkpt><trkpt lat="44.4629909" lon="16.0706003"><ele>584.0</ele><time>2026-04-27T13:43:40.386Z</time></trkpt><trkpt lat="44.4629256" lon="16.0706846"><ele>584.0</ele><time>2026-04-27T13:43:41.385Z</time></trkpt><trkpt lat="44.4628591" lon="16.0707659"><ele>584.0</ele><time>2026-04-27T13:43:42.386Z</time></trkpt><trkpt lat="44.4627839" lon="16.0708547"><ele>585.5</ele><time>2026-04-27T13:43:43.386Z</time></trkpt><trkpt lat="44.462716" lon="16.0709359"><ele>587.0</ele><time>2026-04-27T13:43:44.382Z</time></trkpt><trkpt lat="44.4626494" lon="16.0710005"><ele>588.5</ele><time>2026-04-27T13:43:45.386Z</time></trkpt><trkpt lat="44.4625742" lon="16.0710595"><ele>590.0</ele><time>2026-04-27T13:43:46.387Z</time></trkpt><trkpt lat="44.4624944" lon="16.0711177"><ele>591.5</ele><time>2026-04-27T13:43:47.387Z</time></trkpt><trkpt lat="44.4624151" lon="16.0711775"><ele>593.0</ele><time>2026-04-27T13:43:48.375Z</time></trkpt><trkpt lat="44.4623327" lon="16.0712355"><ele>593.0</ele><time>2026-04-27T13:43:49.386Z</time></trkpt><trkpt lat="44.4622439" lon="16.0712925"><ele>593.0</ele><time>2026-04-27T13:43:50.387Z</time></trkpt><trkpt lat="44.4621556" lon="16.0713644"><ele>593.0</ele><time>2026-04-27T13:43:51.387Z</time></trkpt><trkpt lat="44.4620815" lon="16.0714519"><ele>593.0</ele><time>2026-04-27T13:43:52.387Z</time></trkpt><trkpt lat="44.462012" lon="16.0715461"><ele>593.0</ele><time>2026-04-27T13:43:53.381Z</time></trkpt><trkpt lat="44.4619428" lon="16.0716355"><ele>592.4</ele><time>2026-04-27T13:43:54.386Z</time></trkpt><trkpt lat="44.4618797" lon="16.0717174"><ele>591.8</ele><time>2026-04-27T13:43:55.386Z</time></trkpt><trkpt lat="44.4618093" lon="16.0718046"><ele>591.2</ele><time>2026-04-27T13:43:56.386Z</time></trkpt><trkpt lat="44.4617343" lon="16.0719013"><ele>590.6</ele><time>2026-04-27T13:43:57.386Z</time></trkpt><trkpt lat="44.4616647" lon="16.0719984"><ele>590.0</ele><time>2026-04-27T13:43:58.387Z</time></trkpt><trkpt lat="44.4616037" lon="16.0721066"><ele>590.0</ele><time>2026-04-27T13:43:59.385Z</time></trkpt><trkpt lat="44.4615483" lon="16.0722134"><ele>590.0</ele><time>2026-04-27T13:44:00.384Z</time></trkpt><trkpt lat="44.4614803" lon="16.0723129"><ele>590.0</ele><time>2026-04-27T13:44:01.38Z</time></trkpt><trkpt lat="44.46141" lon="16.0724005"><ele>590.0</ele><time>2026-04-27T13:44:02.382Z</time></trkpt><trkpt lat="44.4613466" lon="16.0724639"><ele>590.0</ele><time>2026-04-27T13:44:03.386Z</time></trkpt><trkpt lat="44.4612832" lon="16.0725327"><ele>590.0</ele><time>2026-04-27T13:44:04.386Z</time></trkpt><trkpt lat="44.461214" lon="16.0725947"><ele>590.0</ele><time>2026-04-27T13:44:05.384Z</time></trkpt><trkpt lat="44.4611398" lon="16.0726593"><ele>590.0</ele><time>2026-04-27T13:44:06.386Z</time></trkpt><trkpt lat="44.4610682" lon="16.0727236"><ele>590.0</ele><time>2026-04-27T13:44:07.383Z</time></trkpt><trkpt lat="44.4610137" lon="16.0728007"><ele>590.0</ele><time>2026-04-27T13:44:08.386Z</time></trkpt><trkpt lat="44.4609519" lon="16.0728833"><ele>590.0</ele><time>2026-04-27T13:44:09.387Z</time></trkpt><trkpt lat="44.4608881" lon="16.0729716"><ele>590.0</ele><time>2026-04-27T13:44:10.383Z</time></trkpt><trkpt lat="44.4608313" lon="16.0730485"><ele>590.0</ele><time>2026-04-27T13:44:11.386Z</time></trkpt><trkpt lat="44.4607636" lon="16.0731224"><ele>590.0</ele><time>2026-04-27T13:44:12.386Z</time></trkpt><trkpt lat="44.4607026" lon="16.0732059"><ele>590.0</ele><time>2026-04-27T13:44:13.387Z</time></trkpt><trkpt lat="44.4606401" lon="16.0732889"><ele>590.0</ele><time>2026-04-27T13:44:14.386Z</time></trkpt><trkpt lat="44.4605812" lon="16.0733813"><ele>590.0</ele><time>2026-04-27T13:44:15.386Z</time></trkpt><trkpt lat="44.4605112" lon="16.073473"><ele>590.0</ele><time>2026-04-27T13:44:16.386Z</time></trkpt><trkpt lat="44.4604398" lon="16.0735661"><ele>590.1666666666666</ele><time>2026-04-27T13:44:17.382Z</time></trkpt><trkpt lat="44.4603802" lon="16.0736483"><ele>590.3333333333333</ele><time>2026-04-27T13:44:18.386Z</time></trkpt><trkpt lat="44.460315" lon="16.0737319"><ele>590.5</ele><time>2026-04-27T13:44:19.386Z</time></trkpt><trkpt lat="44.4602633" lon="16.073788"><ele>590.6666666666666</ele><time>2026-04-27T13:44:20.384Z</time></trkpt><trkpt lat="44.4602156" lon="16.0738483"><ele>590.8333333333334</ele><time>2026-04-27T13:44:21.386Z</time></trkpt><trkpt lat="44.4601469" lon="16.0739399"><ele>591.0</ele><time>2026-04-27T13:44:23.384Z</time></trkpt><trkpt lat="44.4601069" lon="16.0740096"><ele>591.0</ele><time>2026-04-27T13:44:25.386Z</time></trkpt><trkpt lat="44.4600335" lon="16.0741012"><ele>591.0</ele><time>2026-04-27T13:44:36.386Z</time></trkpt><trkpt lat="44.4599699" lon="16.0742027"><ele>591.0</ele><time>2026-04-27T13:44:38.386Z</time></trkpt><trkpt lat="44.4598984" lon="16.0743182"><ele>591.0</ele><time>2026-04-27T13:44:40.387Z</time></trkpt><trkpt lat="44.4598102" lon="16.0744679"><ele>591.0</ele><time>2026-04-27T13:44:42.383Z</time></trkpt><trkpt lat="44.4597725" lon="16.0745425"><ele>590.8333333333334</ele><time>2026-04-27T13:44:43.386Z</time></trkpt><trkpt lat="44.4597363" lon="16.0746226"><ele>590.6666666666666</ele><time>2026-04-27T13:44:44.386Z</time></trkpt><trkpt lat="44.4597009" lon="16.0747111"><ele>590.5</ele><time>2026-04-27T13:44:45.386Z</time></trkpt><trkpt lat="44.4596667" lon="16.0748126"><ele>590.3333333333333</ele><time>2026-04-27T13:44:46.386Z</time></trkpt><trkpt lat="44.4596275" lon="16.0749172"><ele>590.1666666666666</ele><time>2026-04-27T13:44:47.386Z</time></trkpt><trkpt lat="44.4595856" lon="16.0750302"><ele>590.0</ele><time>2026-04-27T13:44:48.387Z</time></trkpt><trkpt lat="44.459532" lon="16.07515"><ele>590.0</ele><time>2026-04-27T13:44:49.384Z</time></trkpt><trkpt lat="44.4594857" lon="16.0752638"><ele>590.0</ele><time>2026-04-27T13:44:50.386Z</time></trkpt><trkpt lat="44.459446" lon="16.0753651"><ele>590.0</ele><time>2026-04-27T13:44:51.386Z</time></trkpt><trkpt lat="44.4594012" lon="16.0754738"><ele>590.0</ele><time>2026-04-27T13:44:52.379Z</time></trkpt><trkpt lat="44.4593629" lon="16.0755787"><ele>590.0</ele><time>2026-04-27T13:44:53.384Z</time></trkpt><trkpt lat="44.4593191" lon="16.0756898"><ele>590.0</ele><time>2026-04-27T13:44:54.386Z</time></trkpt><trkpt lat="44.4592754" lon="16.0757996"><ele>591.1666666666666</ele><time>2026-04-27T13:44:55.387Z</time></trkpt><trkpt lat="44.4592327" lon="16.0759129"><ele>592.3333333333333</ele><time>2026-04-27T13:44:56.387Z</time></trkpt><trkpt lat="44.4591931" lon="16.0760179"><ele>593.5</ele><time>2026-04-27T13:44:57.387Z</time></trkpt><trkpt lat="44.4591451" lon="16.0761175"><ele>594.6666666666666</ele><time>2026-04-27T13:44:58.386Z</time></trkpt><trkpt lat="44.4590993" lon="16.0762133"><ele>595.8333333333334</ele><time>2026-04-27T13:44:59.386Z</time></trkpt><trkpt lat="44.459069" lon="16.0763366"><ele>597.0</ele><time>2026-04-27T13:45:00.384Z</time></trkpt><trkpt lat="44.4590339" lon="16.0764546"><ele>597.0</ele><time>2026-04-27T13:45:01.386Z</time></trkpt><trkpt lat="44.4590205" lon="16.0765793"><ele>597.0</ele><time>2026-04-27T13:45:02.386Z</time></trkpt><trkpt lat="44.4590112" lon="16.0767053"><ele>597.0</ele><time>2026-04-27T13:45:03.381Z</time></trkpt><trkpt lat="44.4589896" lon="16.0768212"><ele>597.0</ele><time>2026-04-27T13:45:04.381Z</time></trkpt><trkpt lat="44.4589583" lon="16.0769229"><ele>597.0</ele><time>2026-04-27T13:45:05.386Z</time></trkpt><trkpt lat="44.4589397" lon="16.0770349"><ele>597.0</ele><time>2026-04-27T13:45:06.386Z</time></trkpt><trkpt lat="44.4589144" lon="16.0771622"><ele>598.0</ele><time>2026-04-27T13:45:07.387Z</time></trkpt><trkpt lat="44.4588812" lon="16.0772672"><ele>599.0</ele><time>2026-04-27T13:45:08.386Z</time></trkpt><trkpt lat="44.4588622" lon="16.0773765"><ele>600.0</ele><time>2026-04-27T13:45:09.386Z</time></trkpt><trkpt lat="44.4588374" lon="16.077492"><ele>601.0</ele><time>2026-04-27T13:45:10.382Z</time></trkpt><trkpt lat="44.4588208" lon="16.0776103"><ele>602.0</ele><time>2026-04-27T13:45:11.386Z</time></trkpt><trkpt lat="44.4587988" lon="16.0777247"><ele>603.0</ele><time>2026-04-27T13:45:12.387Z</time></trkpt><trkpt lat="44.4587816" lon="16.0778386"><ele>603.0</ele><time>2026-04-27T13:45:13.387Z</time></trkpt><trkpt lat="44.4587546" lon="16.0779317"><ele>603.0</ele><time>2026-04-27T13:45:14.386Z</time></trkpt><trkpt lat="44.4587383" lon="16.0780313"><ele>603.0</ele><time>2026-04-27T13:45:15.387Z</time></trkpt><trkpt lat="44.4586979" lon="16.0781175"><ele>603.0</ele><time>2026-04-27T13:45:16.386Z</time></trkpt><trkpt lat="44.4586685" lon="16.0782033"><ele>603.0</ele><time>2026-04-27T13:45:17.387Z</time></trkpt><trkpt lat="44.4586381" lon="16.0782837"><ele>603.0</ele><time>2026-04-27T13:45:18.386Z</time></trkpt><trkpt lat="44.4586092" lon="16.0783737"><ele>603.0</ele><time>2026-04-27T13:45:19.387Z</time></trkpt><trkpt lat="44.4585455" lon="16.0785166"><ele>602.8333333333334</ele><time>2026-04-27T13:45:21.385Z</time></trkpt><trkpt lat="44.458507" lon="16.0785928"><ele>602.6666666666666</ele><time>2026-04-27T13:45:22.386Z</time></trkpt><trkpt lat="44.4584779" lon="16.0786752"><ele>602.5</ele><time>2026-04-27T13:45:23.384Z</time></trkpt><trkpt lat="44.4584403" lon="16.0787797"><ele>602.3333333333333</ele><time>2026-04-27T13:45:24.387Z</time></trkpt><trkpt lat="44.4584198" lon="16.0788782"><ele>602.1666666666666</ele><time>2026-04-27T13:45:25.386Z</time></trkpt><trkpt lat="44.4583869" lon="16.0789896"><ele>602.0</ele><time>2026-04-27T13:45:27.384Z</time></trkpt><trkpt lat="44.4583485" lon="16.0791017"><ele>601.6666666666666</ele><time>2026-04-27T13:45:30.386Z</time></trkpt><trkpt lat="44.4583179" lon="16.0792032"><ele>601.3333333333333</ele><time>2026-04-27T13:45:32.386Z</time></trkpt><trkpt lat="44.4582864" lon="16.0793181"><ele>601.0</ele><time>2026-04-27T13:45:34.387Z</time></trkpt><trkpt lat="44.458256" lon="16.0794224"><ele>600.6666666666666</ele><time>2026-04-27T13:45:37.387Z</time></trkpt><trkpt lat="44.4582432" lon="16.0795233"><ele>600.3333333333334</ele><time>2026-04-27T13:45:40.386Z</time></trkpt><trkpt lat="44.4582153" lon="16.0796086"><ele>600.0</ele><time>2026-04-27T13:45:45.383Z</time></trkpt><trkpt lat="44.4581739" lon="16.0797196"><ele>600.0</ele><time>2026-04-27T13:45:49.386Z</time></trkpt><trkpt lat="44.4581418" lon="16.0798145"><ele>600.0</ele><time>2026-04-27T13:45:50.386Z</time></trkpt><trkpt lat="44.4580825" lon="16.0799675"><ele>600.0</ele><time>2026-04-27T13:45:52.383Z</time></trkpt><trkpt lat="44.4579954" lon="16.0801238"><ele>600.0</ele><time>2026-04-27T13:45:54.387Z</time></trkpt><trkpt lat="44.4579706" lon="16.0802076"><ele>600.0</ele><time>2026-04-27T13:45:55.384Z</time></trkpt><trkpt lat="44.4579183" lon="16.0802984"><ele>598.1666666666666</ele><time>2026-04-27T13:45:56.386Z</time></trkpt><trkpt lat="44.4578759" lon="16.0803686"><ele>596.3333333333334</ele><time>2026-04-27T13:45:57.386Z</time></trkpt><trkpt lat="44.4578341" lon="16.0804447"><ele>594.5</ele><time>2026-04-27T13:45:58.386Z</time></trkpt><trkpt lat="44.4577739" lon="16.0805403"><ele>592.6666666666667</ele><time>2026-04-27T13:45:59.383Z</time></trkpt><trkpt lat="44.457721" lon="16.0806298"><ele>590.8333333333334</ele><time>2026-04-27T13:46:00.385Z</time></trkpt><trkpt lat="44.457678" lon="16.080697"><ele>589.0</ele><time>2026-04-27T13:46:01.386Z</time></trkpt><trkpt lat="44.4576259" lon="16.0808315"><ele>588.6666666666667</ele><time>2026-04-27T13:46:03.386Z</time></trkpt><trkpt lat="44.4575689" lon="16.080944"><ele>588.3333333333334</ele><time>2026-04-27T13:46:04.387Z</time></trkpt><trkpt lat="44.4575155" lon="16.0810186"><ele>588.0</ele><time>2026-04-27T13:46:05.386Z</time></trkpt><trkpt lat="44.4574572" lon="16.0811171"><ele>587.6666666666666</ele><time>2026-04-27T13:46:06.386Z</time></trkpt><trkpt lat="44.4574049" lon="16.0811911"><ele>587.3333333333333</ele><time>2026-04-27T13:46:07.387Z</time></trkpt><trkpt lat="44.4573581" lon="16.0812626"><ele>587.0</ele><time>2026-04-27T13:46:08.386Z</time></trkpt><trkpt lat="44.4573104" lon="16.0813617"><ele>587.0</ele><time>2026-04-27T13:46:09.386Z</time></trkpt><trkpt lat="44.4572641" lon="16.0814398"><ele>587.0</ele><time>2026-04-27T13:46:10.387Z</time></trkpt><trkpt lat="44.4572172" lon="16.0815266"><ele>587.0</ele><time>2026-04-27T13:46:11.386Z</time></trkpt><trkpt lat="44.4571654" lon="16.0815953"><ele>587.0</ele><time>2026-04-27T13:46:12.386Z</time></trkpt><trkpt lat="44.4571119" lon="16.0816754"><ele>587.0</ele><time>2026-04-27T13:46:13.386Z</time></trkpt><trkpt lat="44.4570588" lon="16.0817236"><ele>587.0</ele><time>2026-04-27T13:46:14.379Z</time></trkpt><trkpt lat="44.4570071" lon="16.0817815"><ele>587.0</ele><time>2026-04-27T13:46:15.383Z</time></trkpt><trkpt lat="44.4569605" lon="16.0818424"><ele>586.0</ele><time>2026-04-27T13:46:16.386Z</time></trkpt><trkpt lat="44.456916" lon="16.0819298"><ele>585.0</ele><time>2026-04-27T13:46:17.385Z</time></trkpt><trkpt lat="44.4568232" lon="16.0820511"><ele>584.0</ele><time>2026-04-27T13:46:19.386Z</time></trkpt><trkpt lat="44.4567468" lon="16.082182"><ele>583.0</ele><time>2026-04-27T13:46:21.386Z</time></trkpt><trkpt lat="44.4566703" lon="16.0822957"><ele>582.0</ele><time>2026-04-27T13:46:23.386Z</time></trkpt><trkpt lat="44.4565889" lon="16.0824068"><ele>582.4</ele><time>2026-04-27T13:46:25.387Z</time></trkpt><trkpt lat="44.4565386" lon="16.0825075"><ele>582.8000000000001</ele><time>2026-04-27T13:46:27.387Z</time></trkpt><trkpt lat="44.456484" lon="16.0825996"><ele>583.2</ele><time>2026-04-27T13:46:29.386Z</time></trkpt><trkpt lat="44.4564157" lon="16.0827183"><ele>583.6</ele><time>2026-04-27T13:46:31.386Z</time></trkpt><trkpt lat="44.4563538" lon="16.0828232"><ele>584.0</ele><time>2026-04-27T13:46:33.386Z</time></trkpt><trkpt lat="44.4562724" lon="16.0829377"><ele>583.1666666666666</ele><time>2026-04-27T13:46:35.386Z</time></trkpt><trkpt lat="44.4562203" lon="16.0830061"><ele>582.3333333333333</ele><time>2026-04-27T13:46:36.386Z</time></trkpt><trkpt lat="44.4561619" lon="16.083086"><ele>581.5</ele><time>2026-04-27T13:46:37.386Z</time></trkpt><trkpt lat="44.4561044" lon="16.0831625"><ele>580.6666666666666</ele><time>2026-04-27T13:46:38.386Z</time></trkpt><trkpt lat="44.4560475" lon="16.0832514"><ele>579.8333333333334</ele><time>2026-04-27T13:46:39.387Z</time></trkpt><trkpt lat="44.4559886" lon="16.0833365"><ele>579.0</ele><time>2026-04-27T13:46:40.387Z</time></trkpt><trkpt lat="44.4559355" lon="16.0834213"><ele>579.0</ele><time>2026-04-27T13:46:41.384Z</time></trkpt><trkpt lat="44.4558636" lon="16.0835045"><ele>579.0</ele><time>2026-04-27T13:46:42.386Z</time></trkpt><trkpt lat="44.4558123" lon="16.0835824"><ele>579.0</ele><time>2026-04-27T13:46:43.385Z</time></trkpt><trkpt lat="44.4557524" lon="16.0836668"><ele>579.0</ele><time>2026-04-27T13:46:44.383Z</time></trkpt><trkpt lat="44.4556844" lon="16.0837634"><ele>579.0</ele><time>2026-04-27T13:46:45.386Z</time></trkpt><trkpt lat="44.4556169" lon="16.0838542"><ele>579.0</ele><time>2026-04-27T13:46:46.384Z</time></trkpt><trkpt lat="44.455556" lon="16.0839417"><ele>579.0</ele><time>2026-04-27T13:46:47.386Z</time></trkpt><trkpt lat="44.4554971" lon="16.0840348"><ele>579.0</ele><time>2026-04-27T13:46:48.385Z</time></trkpt><trkpt lat="44.4554373" lon="16.0841276"><ele>579.0</ele><time>2026-04-27T13:46:49.386Z</time></trkpt><trkpt lat="44.4553754" lon="16.0842156"><ele>579.0</ele><time>2026-04-27T13:46:50.386Z</time></trkpt><trkpt lat="44.4553141" lon="16.0843078"><ele>579.0</ele><time>2026-04-27T13:46:51.387Z</time></trkpt><trkpt lat="44.455254" lon="16.0844154"><ele>578.5</ele><time>2026-04-27T13:46:52.382Z</time></trkpt><trkpt lat="44.4551961" lon="16.0845165"><ele>578.0</ele><time>2026-04-27T13:46:53.383Z</time></trkpt><trkpt lat="44.4551376" lon="16.0846089"><ele>577.5</ele><time>2026-04-27T13:46:54.386Z</time></trkpt><trkpt lat="44.455088" lon="16.0846897"><ele>577.0</ele><time>2026-04-27T13:46:55.382Z</time></trkpt><trkpt lat="44.4550297" lon="16.0847704"><ele>576.5</ele><time>2026-04-27T13:46:56.386Z</time></trkpt><trkpt lat="44.4549627" lon="16.0848534"><ele>576.0</ele><time>2026-04-27T13:46:57.386Z</time></trkpt><trkpt lat="44.4549014" lon="16.0849466"><ele>575.6</ele><time>2026-04-27T13:46:58.386Z</time></trkpt><trkpt lat="44.4548225" lon="16.0850461"><ele>575.2</ele><time>2026-04-27T13:46:59.387Z</time></trkpt><trkpt lat="44.4547588" lon="16.0851417"><ele>574.8</ele><time>2026-04-27T13:47:00.386Z</time></trkpt><trkpt lat="44.4547075" lon="16.0852423"><ele>574.4</ele><time>2026-04-27T13:47:01.384Z</time></trkpt><trkpt lat="44.4546472" lon="16.0853202"><ele>574.0</ele><time>2026-04-27T13:47:02.386Z</time></trkpt><trkpt lat="44.454592" lon="16.0854035"><ele>574.0</ele><time>2026-04-27T13:47:03.387Z</time></trkpt><trkpt lat="44.4545374" lon="16.0854824"><ele>574.0</ele><time>2026-04-27T13:47:04.386Z</time></trkpt><trkpt lat="44.4544946" lon="16.0855705"><ele>574.0</ele><time>2026-04-27T13:47:05.384Z</time></trkpt><trkpt lat="44.454448" lon="16.0856584"><ele>574.0</ele><time>2026-04-27T13:47:06.387Z</time></trkpt><trkpt lat="44.4543984" lon="16.0857459"><ele>574.0</ele><time>2026-04-27T13:47:07.386Z</time></trkpt><trkpt lat="44.4543633" lon="16.0858249"><ele>574.0</ele><time>2026-04-27T13:47:08.387Z</time></trkpt><trkpt lat="44.4543273" lon="16.0859055"><ele>574.0</ele><time>2026-04-27T13:47:09.386Z</time></trkpt><trkpt lat="44.4542986" lon="16.0859866"><ele>573.8333333333334</ele><time>2026-04-27T13:47:10.386Z</time></trkpt><trkpt lat="44.4542736" lon="16.0861315"><ele>573.6666666666667</ele><time>2026-04-27T13:47:12.386Z</time></trkpt><trkpt lat="44.4542451" lon="16.0862475"><ele>573.5</ele><time>2026-04-27T13:47:14.386Z</time></trkpt><trkpt lat="44.454212" lon="16.0863418"><ele>573.3333333333334</ele><time>2026-04-27T13:47:16.383Z</time></trkpt><trkpt lat="44.4541876" lon="16.0864336"><ele>573.1666666666666</ele><time>2026-04-27T13:47:20.387Z</time></trkpt><trkpt lat="44.4541408" lon="16.086502"><ele>573.0</ele><time>2026-04-27T13:47:55.386Z</time></trkpt><trkpt lat="44.4540789" lon="16.0865953"><ele>572.3333333333334</ele><time>2026-04-27T13:47:57.386Z</time></trkpt><trkpt lat="44.4540284" lon="16.0866959"><ele>571.6666666666666</ele><time>2026-04-27T13:47:58.386Z</time></trkpt><trkpt lat="44.453976" lon="16.0867829"><ele>571.0</ele><time>2026-04-27T13:47:59.386Z</time></trkpt><trkpt lat="44.4539223" lon="16.0868739"><ele>570.3333333333333</ele><time>2026-04-27T13:48:00.385Z</time></trkpt><trkpt lat="44.4538759" lon="16.0869627"><ele>569.6666666666666</ele><time>2026-04-27T13:48:01.386Z</time></trkpt><trkpt lat="44.4538326" lon="16.0870442"><ele>569.0</ele><time>2026-04-27T13:48:02.381Z</time></trkpt><trkpt lat="44.4537347" lon="16.0871987"><ele>568.8</ele><time>2026-04-27T13:48:04.381Z</time></trkpt><trkpt lat="44.4536936" lon="16.0872702"><ele>568.5999999999999</ele><time>2026-04-27T13:48:05.386Z</time></trkpt><trkpt lat="44.4536448" lon="16.0873416"><ele>568.4</ele><time>2026-04-27T13:48:06.386Z</time></trkpt><trkpt lat="44.4535576" lon="16.0874628"><ele>568.1999999999999</ele><time>2026-04-27T13:48:08.385Z</time></trkpt><trkpt lat="44.4534532" lon="16.0875589"><ele>568.0</ele><time>2026-04-27T13:48:10.38Z</time></trkpt><trkpt lat="44.4533949" lon="16.087608"><ele>567.8333333333334</ele><time>2026-04-27T13:48:11.383Z</time></trkpt><trkpt lat="44.453327" lon="16.0876619"><ele>567.6666666666667</ele><time>2026-04-27T13:48:12.384Z</time></trkpt><trkpt lat="44.4532612" lon="16.0877131"><ele>567.5</ele><time>2026-04-27T13:48:13.387Z</time></trkpt><trkpt lat="44.4531921" lon="16.0877589"><ele>567.3333333333334</ele><time>2026-04-27T13:48:14.386Z</time></trkpt><trkpt lat="44.4531278" lon="16.0878085"><ele>567.1666666666666</ele><time>2026-04-27T13:48:15.387Z</time></trkpt><trkpt lat="44.4530613" lon="16.0878697"><ele>567.0</ele><time>2026-04-27T13:48:16.386Z</time></trkpt><trkpt lat="44.4530017" lon="16.0879124"><ele>567.5</ele><time>2026-04-27T13:48:17.386Z</time></trkpt><trkpt lat="44.4529465" lon="16.0879655"><ele>568.0</ele><time>2026-04-27T13:48:18.386Z</time></trkpt><trkpt lat="44.4528898" lon="16.0880199"><ele>568.5</ele><time>2026-04-27T13:48:19.386Z</time></trkpt><trkpt lat="44.4528488" lon="16.0881083"><ele>569.0</ele><time>2026-04-27T13:48:20.382Z</time></trkpt><trkpt lat="44.452799" lon="16.0881647"><ele>569.5</ele><time>2026-04-27T13:48:21.383Z</time></trkpt><trkpt lat="44.4527143" lon="16.0882468"><ele>570.0</ele><time>2026-04-27T13:48:23.387Z</time></trkpt><trkpt lat="44.4526182" lon="16.0883006"><ele>570.1666666666666</ele><time>2026-04-27T13:48:25.383Z</time></trkpt><trkpt lat="44.4525029" lon="16.0884032"><ele>570.3333333333334</ele><time>2026-04-27T13:48:27.385Z</time></trkpt><trkpt lat="44.4524475" lon="16.0884641"><ele>570.5</ele><time>2026-04-27T13:48:28.382Z</time></trkpt><trkpt lat="44.4523808" lon="16.0885383"><ele>570.6666666666667</ele><time>2026-04-27T13:48:29.387Z</time></trkpt><trkpt lat="44.4523183" lon="16.0886163"><ele>570.8333333333334</ele><time>2026-04-27T13:48:30.387Z</time></trkpt><trkpt lat="44.4522647" lon="16.0886849"><ele>571.0</ele><time>2026-04-27T13:48:31.386Z</time></trkpt><trkpt lat="44.4522157" lon="16.0887429"><ele>571.0</ele><time>2026-04-27T13:48:32.385Z</time></trkpt><trkpt lat="44.4521598" lon="16.08879"><ele>571.0</ele><time>2026-04-27T13:48:33.386Z</time></trkpt><trkpt lat="44.4521023" lon="16.08884"><ele>571.0</ele><time>2026-04-27T13:48:34.382Z</time></trkpt><trkpt lat="44.4520428" lon="16.088889"><ele>571.0</ele><time>2026-04-27T13:48:35.387Z</time></trkpt><trkpt lat="44.4519839" lon="16.0889311"><ele>571.0</ele><time>2026-04-27T13:48:36.383Z</time></trkpt><trkpt lat="44.4519233" lon="16.0889812"><ele>571.0</ele><time>2026-04-27T13:48:37.386Z</time></trkpt><trkpt lat="44.4518532" lon="16.0890423"><ele>571.0</ele><time>2026-04-27T13:48:38.386Z</time></trkpt><trkpt lat="44.4517929" lon="16.0890894"><ele>572.6666666666667</ele><time>2026-04-27T13:48:39.386Z</time></trkpt><trkpt lat="44.4517288" lon="16.0891334"><ele>574.3333333333334</ele><time>2026-04-27T13:48:40.383Z</time></trkpt><trkpt lat="44.4516545" lon="16.0891719"><ele>576.0</ele><time>2026-04-27T13:48:41.386Z</time></trkpt><trkpt lat="44.4515796" lon="16.0891983"><ele>577.6666666666666</ele><time>2026-04-27T13:48:42.386Z</time></trkpt><trkpt lat="44.4515046" lon="16.0891807"><ele>579.3333333333333</ele><time>2026-04-27T13:48:43.387Z</time></trkpt><trkpt lat="44.4514208" lon="16.0891871"><ele>581.0</ele><time>2026-04-27T13:48:44.386Z</time></trkpt><trkpt lat="44.4513429" lon="16.0891996"><ele>583.3333333333333</ele><time>2026-04-27T13:48:45.387Z</time></trkpt><trkpt lat="44.4512672" lon="16.0891971"><ele>585.6666666666666</ele><time>2026-04-27T13:48:46.382Z</time></trkpt><trkpt lat="44.4511887" lon="16.0891945"><ele>588.0</ele><time>2026-04-27T13:48:47.383Z</time></trkpt><trkpt lat="44.4511151" lon="16.0891989"><ele>590.3333333333334</ele><time>2026-04-27T13:48:48.384Z</time></trkpt><trkpt lat="44.4510217" lon="16.0891939"><ele>592.6666666666667</ele><time>2026-04-27T13:48:49.386Z</time></trkpt><trkpt lat="44.4509396" lon="16.0892045"><ele>595.0</ele><time>2026-04-27T13:48:50.386Z</time></trkpt><trkpt lat="44.4508398" lon="16.0892143"><ele>595.0</ele><time>2026-04-27T13:48:51.387Z</time></trkpt><trkpt lat="44.4507482" lon="16.0892143"><ele>595.0</ele><time>2026-04-27T13:48:52.384Z</time></trkpt><trkpt lat="44.4506582" lon="16.0892243"><ele>595.0</ele><time>2026-04-27T13:48:53.386Z</time></trkpt><trkpt lat="44.4505891" lon="16.0892172"><ele>595.0</ele><time>2026-04-27T13:48:54.386Z</time></trkpt><trkpt lat="44.4505151" lon="16.0891901"><ele>595.0</ele><time>2026-04-27T13:48:55.386Z</time></trkpt><trkpt lat="44.4504478" lon="16.0891724"><ele>595.0</ele><time>2026-04-27T13:48:56.386Z</time></trkpt><trkpt lat="44.4503571" lon="16.0891166"><ele>594.6</ele><time>2026-04-27T13:48:58.38Z</time></trkpt><trkpt lat="44.4502429" lon="16.0890477"><ele>594.2</ele><time>2026-04-27T13:49:00.386Z</time></trkpt><trkpt lat="44.4501279" lon="16.0890496"><ele>593.8</ele><time>2026-04-27T13:49:02.382Z</time></trkpt><trkpt lat="44.4500568" lon="16.0890393"><ele>593.4</ele><time>2026-04-27T13:49:03.386Z</time></trkpt><trkpt lat="44.4499601" lon="16.0890382"><ele>593.0</ele><time>2026-04-27T13:49:04.386Z</time></trkpt><trkpt lat="44.4498667" lon="16.0890367"><ele>593.0</ele><time>2026-04-27T13:49:05.387Z</time></trkpt><trkpt lat="44.4497808" lon="16.0890436"><ele>593.0</ele><time>2026-04-27T13:49:06.386Z</time></trkpt><trkpt lat="44.4496791" lon="16.0890488"><ele>593.0</ele><time>2026-04-27T13:49:07.387Z</time></trkpt><trkpt lat="44.4495908" lon="16.0890687"><ele>593.0</ele><time>2026-04-27T13:49:08.386Z</time></trkpt><trkpt lat="44.4495103" lon="16.0890993"><ele>593.0</ele><time>2026-04-27T13:49:09.386Z</time></trkpt><trkpt lat="44.4494269" lon="16.0891422"><ele>593.0</ele><time>2026-04-27T13:49:10.383Z</time></trkpt><trkpt lat="44.4493426" lon="16.0891866"><ele>597.8333333333333</ele><time>2026-04-27T13:49:11.387Z</time></trkpt><trkpt lat="44.4492734" lon="16.0892384"><ele>602.6666666666666</ele><time>2026-04-27T13:49:12.386Z</time></trkpt><trkpt lat="44.4492171" lon="16.0893017"><ele>607.5</ele><time>2026-04-27T13:49:13.381Z</time></trkpt><trkpt lat="44.4491749" lon="16.089377"><ele>612.3333333333334</ele><time>2026-04-27T13:49:14.386Z</time></trkpt><trkpt lat="44.4491284" lon="16.0894489"><ele>617.1666666666667</ele><time>2026-04-27T13:49:15.386Z</time></trkpt><trkpt lat="44.4490764" lon="16.0895022"><ele>622.0</ele><time>2026-04-27T13:49:16.386Z</time></trkpt><trkpt lat="44.4489571" lon="16.0895432"><ele>622.0</ele><time>2026-04-27T13:49:18.38Z</time></trkpt><trkpt lat="44.4488837" lon="16.0895595"><ele>622.0</ele><time>2026-04-27T13:49:19.384Z</time></trkpt><trkpt lat="44.4487611" lon="16.0895828"><ele>622.0</ele><time>2026-04-27T13:49:21.386Z</time></trkpt><trkpt lat="44.4486367" lon="16.0895826"><ele>622.0</ele><time>2026-04-27T13:49:23.386Z</time></trkpt><trkpt lat="44.4485643" lon="16.0895824"><ele>622.0</ele><time>2026-04-27T13:49:24.387Z</time></trkpt><trkpt lat="44.4485014" lon="16.0895926"><ele>623.6</ele><time>2026-04-27T13:49:25.387Z</time></trkpt><trkpt lat="44.4484323" lon="16.0896272"><ele>625.2</ele><time>2026-04-27T13:49:26.385Z</time></trkpt><trkpt lat="44.4483487" lon="16.0896604"><ele>626.8</ele><time>2026-04-27T13:49:27.387Z</time></trkpt><trkpt lat="44.448271" lon="16.0896905"><ele>628.4</ele><time>2026-04-27T13:49:28.383Z</time></trkpt><trkpt lat="44.4481965" lon="16.0897283"><ele>630.0</ele><time>2026-04-27T13:49:29.381Z</time></trkpt><trkpt lat="44.4480715" lon="16.0897827"><ele>630.0</ele><time>2026-04-27T13:49:31.387Z</time></trkpt><trkpt lat="44.448004" lon="16.0898134"><ele>630.0</ele><time>2026-04-27T13:49:32.386Z</time></trkpt><trkpt lat="44.447936" lon="16.0898404"><ele>630.0</ele><time>2026-04-27T13:49:33.386Z</time></trkpt><trkpt lat="44.4478288" lon="16.089906"><ele>630.0</ele><time>2026-04-27T13:49:35.384Z</time></trkpt><trkpt lat="44.4477112" lon="16.0899314"><ele>630.0</ele><time>2026-04-27T13:49:37.386Z</time></trkpt><trkpt lat="44.4476429" lon="16.0899878"><ele>634.1666666666666</ele><time>2026-04-27T13:49:38.386Z</time></trkpt><trkpt lat="44.4475847" lon="16.0900242"><ele>638.3333333333334</ele><time>2026-04-27T13:49:39.386Z</time></trkpt><trkpt lat="44.4475093" lon="16.090049"><ele>642.5</ele><time>2026-04-27T13:49:40.387Z</time></trkpt><trkpt lat="44.4474467" lon="16.090081"><ele>646.6666666666667</ele><time>2026-04-27T13:49:41.386Z</time></trkpt><trkpt lat="44.4473887" lon="16.0901183"><ele>650.8333333333334</ele><time>2026-04-27T13:49:42.384Z</time></trkpt><trkpt lat="44.4473284" lon="16.0901537"><ele>655.0</ele><time>2026-04-27T13:49:43.382Z</time></trkpt><trkpt lat="44.4472046" lon="16.0902214"><ele>655.0</ele><time>2026-04-27T13:49:45.387Z</time></trkpt><trkpt lat="44.4471507" lon="16.090268"><ele>655.0</ele><time>2026-04-27T13:49:46.386Z</time></trkpt><trkpt lat="44.4470929" lon="16.0903058"><ele>655.0</ele><time>2026-04-27T13:49:47.386Z</time></trkpt><trkpt lat="44.4470166" lon="16.0903369"><ele>655.0</ele><time>2026-04-27T13:49:48.382Z</time></trkpt><trkpt lat="44.4469314" lon="16.0903625"><ele>655.0</ele><time>2026-04-27T13:49:49.387Z</time></trkpt><trkpt lat="44.4468561" lon="16.0904049"><ele>655.0</ele><time>2026-04-27T13:49:50.386Z</time></trkpt><trkpt lat="44.4467869" lon="16.0904492"><ele>656.3333333333334</ele><time>2026-04-27T13:49:51.386Z</time></trkpt><trkpt lat="44.4467137" lon="16.090479"><ele>657.6666666666667</ele><time>2026-04-27T13:49:52.386Z</time></trkpt><trkpt lat="44.4466343" lon="16.0905181"><ele>659.0</ele><time>2026-04-27T13:49:53.383Z</time></trkpt><trkpt lat="44.4465591" lon="16.0905341"><ele>660.3333333333334</ele><time>2026-04-27T13:49:54.38Z</time></trkpt><trkpt lat="44.4464863" lon="16.0905499"><ele>661.6666666666666</ele><time>2026-04-27T13:49:55.386Z</time></trkpt><trkpt lat="44.4463834" lon="16.090573"><ele>663.0</ele><time>2026-04-27T13:49:57.383Z</time></trkpt><trkpt lat="44.4463143" lon="16.0906251"><ele>665.0</ele><time>2026-04-27T13:50:01.386Z</time></trkpt><trkpt lat="44.446252" lon="16.0906386"><ele>667.0</ele><time>2026-04-27T13:50:56.386Z</time></trkpt><trkpt lat="44.44617" lon="16.090679"><ele>669.0</ele><time>2026-04-27T13:50:58.387Z</time></trkpt><trkpt lat="44.4460891" lon="16.0907266"><ele>671.0</ele><time>2026-04-27T13:50:59.377Z</time></trkpt><trkpt lat="44.4460197" lon="16.0907608"><ele>673.0</ele><time>2026-04-27T13:51:00.386Z</time></trkpt><trkpt lat="44.4459318" lon="16.0907935"><ele>675.0</ele><time>2026-04-27T13:51:01.383Z</time></trkpt><trkpt lat="44.4458563" lon="16.0908271"><ele>675.0</ele><time>2026-04-27T13:51:02.387Z</time></trkpt><trkpt lat="44.4457674" lon="16.0908665"><ele>675.0</ele><time>2026-04-27T13:51:03.382Z</time></trkpt><trkpt lat="44.445693" lon="16.0908991"><ele>675.0</ele><time>2026-04-27T13:51:04.384Z</time></trkpt><trkpt lat="44.4456172" lon="16.0909363"><ele>675.0</ele><time>2026-04-27T13:51:05.386Z</time></trkpt><trkpt lat="44.4455325" lon="16.090962"><ele>675.0</ele><time>2026-04-27T13:51:06.386Z</time></trkpt><trkpt lat="44.4454523" lon="16.090977"><ele>675.0</ele><time>2026-04-27T13:51:07.386Z</time></trkpt><trkpt lat="44.4453738" lon="16.0909796"><ele>675.8333333333334</ele><time>2026-04-27T13:51:08.386Z</time></trkpt><trkpt lat="44.4452861" lon="16.0909955"><ele>676.6666666666666</ele><time>2026-04-27T13:51:09.375Z</time></trkpt><trkpt lat="44.4451942" lon="16.091025"><ele>677.5</ele><time>2026-04-27T13:51:10.386Z</time></trkpt><trkpt lat="44.4451035" lon="16.0910513"><ele>678.3333333333333</ele><time>2026-04-27T13:51:11.383Z</time></trkpt><trkpt lat="44.4450349" lon="16.0910793"><ele>679.1666666666666</ele><time>2026-04-27T13:51:12.387Z</time></trkpt><trkpt lat="44.4449678" lon="16.0911041"><ele>680.0</ele><time>2026-04-27T13:51:13.386Z</time></trkpt><trkpt lat="44.4448664" lon="16.0912126"><ele>680.0</ele><time>2026-04-27T13:51:15.386Z</time></trkpt><trkpt lat="44.4447907" lon="16.091282"><ele>680.0</ele><time>2026-04-27T13:51:16.38Z</time></trkpt><trkpt lat="44.4447345" lon="16.0913418"><ele>680.0</ele><time>2026-04-27T13:51:17.386Z</time></trkpt><trkpt lat="44.4446876" lon="16.0914144"><ele>680.0</ele><time>2026-04-27T13:51:18.387Z</time></trkpt><trkpt lat="44.4446332" lon="16.091479"><ele>680.0</ele><time>2026-04-27T13:51:19.385Z</time></trkpt><trkpt lat="44.4445643" lon="16.0915747"><ele>680.0</ele><time>2026-04-27T13:51:20.379Z</time></trkpt><trkpt lat="44.4444953" lon="16.0916468"><ele>678.0</ele><time>2026-04-27T13:51:21.386Z</time></trkpt><trkpt lat="44.4444331" lon="16.0917249"><ele>676.0</ele><time>2026-04-27T13:51:22.386Z</time></trkpt><trkpt lat="44.4443571" lon="16.0918151"><ele>674.0</ele><time>2026-04-27T13:51:23.386Z</time></trkpt><trkpt lat="44.4442943" lon="16.0918928"><ele>672.0</ele><time>2026-04-27T13:51:24.383Z</time></trkpt><trkpt lat="44.4442231" lon="16.0919799"><ele>670.0</ele><time>2026-04-27T13:51:25.385Z</time></trkpt><trkpt lat="44.4441633" lon="16.0920802"><ele>670.0</ele><time>2026-04-27T13:51:26.386Z</time></trkpt><trkpt lat="44.4441026" lon="16.092169"><ele>670.0</ele><time>2026-04-27T13:51:27.386Z</time></trkpt><trkpt lat="44.4440401" lon="16.0922499"><ele>670.0</ele><time>2026-04-27T13:51:28.386Z</time></trkpt><trkpt lat="44.4439722" lon="16.0923164"><ele>670.0</ele><time>2026-04-27T13:51:29.386Z</time></trkpt><trkpt lat="44.4439" lon="16.0924028"><ele>670.0</ele><time>2026-04-27T13:51:30.386Z</time></trkpt><trkpt lat="44.4438333" lon="16.0924949"><ele>670.0</ele><time>2026-04-27T13:51:31.381Z</time></trkpt><trkpt lat="44.4437639" lon="16.0925864"><ele>667.8</ele><time>2026-04-27T13:51:32.386Z</time></trkpt><trkpt lat="44.4436956" lon="16.0926683"><ele>665.6</ele><time>2026-04-27T13:51:33.379Z</time></trkpt><trkpt lat="44.4436202" lon="16.0927478"><ele>663.4000000000001</ele><time>2026-04-27T13:51:34.375Z</time></trkpt><trkpt lat="44.4435463" lon="16.0927914"><ele>661.2</ele><time>2026-04-27T13:51:35.378Z</time></trkpt><trkpt lat="44.4434588" lon="16.0928442"><ele>659.0</ele><time>2026-04-27T13:51:36.384Z</time></trkpt><trkpt lat="44.4433665" lon="16.0929022"><ele>659.0</ele><time>2026-04-27T13:51:37.373Z</time></trkpt><trkpt lat="44.4432889" lon="16.092947"><ele>659.0</ele><time>2026-04-27T13:51:38.385Z</time></trkpt><trkpt lat="44.4432077" lon="16.0929989"><ele>659.0</ele><time>2026-04-27T13:51:39.386Z</time></trkpt><trkpt lat="44.4431239" lon="16.0930558"><ele>659.0</ele><time>2026-04-27T13:51:40.387Z</time></trkpt><trkpt lat="44.4430433" lon="16.0931055"><ele>659.0</ele><time>2026-04-27T13:51:41.386Z</time></trkpt><trkpt lat="44.442963" lon="16.0931529"><ele>659.0</ele><time>2026-04-27T13:51:42.385Z</time></trkpt><trkpt lat="44.4428892" lon="16.0931991"><ele>657.0</ele><time>2026-04-27T13:51:43.385Z</time></trkpt><trkpt lat="44.4428266" lon="16.0932374"><ele>655.0</ele><time>2026-04-27T13:51:44.386Z</time></trkpt><trkpt lat="44.4427548" lon="16.0932776"><ele>653.0</ele><time>2026-04-27T13:51:45.387Z</time></trkpt><trkpt lat="44.4426844" lon="16.0933368"><ele>651.0</ele><time>2026-04-27T13:51:46.387Z</time></trkpt><trkpt lat="44.4426215" lon="16.0934134"><ele>649.0</ele><time>2026-04-27T13:51:47.387Z</time></trkpt><trkpt lat="44.442563" lon="16.0934947"><ele>647.0</ele><time>2026-04-27T13:51:48.386Z</time></trkpt><trkpt lat="44.4425195" lon="16.0935747"><ele>646.0</ele><time>2026-04-27T13:51:49.379Z</time></trkpt><trkpt lat="44.4424691" lon="16.0936532"><ele>645.0</ele><time>2026-04-27T13:51:50.386Z</time></trkpt><trkpt lat="44.4424182" lon="16.0937349"><ele>644.0</ele><time>2026-04-27T13:51:51.387Z</time></trkpt><trkpt lat="44.4423659" lon="16.0938029"><ele>643.0</ele><time>2026-04-27T13:51:52.384Z</time></trkpt><trkpt lat="44.4423" lon="16.0938768"><ele>642.0</ele><time>2026-04-27T13:51:53.387Z</time></trkpt><trkpt lat="44.4422364" lon="16.0939449"><ele>641.0</ele><time>2026-04-27T13:51:54.386Z</time></trkpt><trkpt lat="44.4421817" lon="16.0940049"><ele>638.1999999999999</ele><time>2026-04-27T13:51:55.386Z</time></trkpt><trkpt lat="44.4421147" lon="16.0941038"><ele>635.4</ele><time>2026-04-27T13:51:56.382Z</time></trkpt><trkpt lat="44.4420584" lon="16.0941972"><ele>632.6</ele><time>2026-04-27T13:51:57.386Z</time></trkpt><trkpt lat="44.4419926" lon="16.0942698"><ele>629.8</ele><time>2026-04-27T13:51:58.384Z</time></trkpt><trkpt lat="44.4419275" lon="16.0943586"><ele>627.0</ele><time>2026-04-27T13:51:59.387Z</time></trkpt><trkpt lat="44.441854" lon="16.0944445"><ele>627.0</ele><time>2026-04-27T13:52:00.386Z</time></trkpt><trkpt lat="44.4417834" lon="16.0945205"><ele>627.0</ele><time>2026-04-27T13:52:01.383Z</time></trkpt><trkpt lat="44.4417058" lon="16.0946045"><ele>627.0</ele><time>2026-04-27T13:52:02.386Z</time></trkpt><trkpt lat="44.4416237" lon="16.0946887"><ele>627.0</ele><time>2026-04-27T13:52:03.386Z</time></trkpt><trkpt lat="44.4415499" lon="16.0947744"><ele>627.0</ele><time>2026-04-27T13:52:04.382Z</time></trkpt><trkpt lat="44.4414718" lon="16.0948504"><ele>628.0</ele><time>2026-04-27T13:52:05.386Z</time></trkpt><trkpt lat="44.4413985" lon="16.0949375"><ele>629.0</ele><time>2026-04-27T13:52:06.386Z</time></trkpt><trkpt lat="44.4413342" lon="16.0949987"><ele>630.0</ele><time>2026-04-27T13:52:07.385Z</time></trkpt><trkpt lat="44.4412645" lon="16.0950957"><ele>631.0</ele><time>2026-04-27T13:52:08.382Z</time></trkpt><trkpt lat="44.4411957" lon="16.0951655"><ele>632.0</ele><time>2026-04-27T13:52:09.386Z</time></trkpt><trkpt lat="44.4411217" lon="16.095247"><ele>629.6</ele><time>2026-04-27T13:52:10.387Z</time></trkpt><trkpt lat="44.4410563" lon="16.0953257"><ele>627.2</ele><time>2026-04-27T13:52:11.384Z</time></trkpt><trkpt lat="44.4409917" lon="16.0954059"><ele>624.8</ele><time>2026-04-27T13:52:12.387Z</time></trkpt><trkpt lat="44.4409262" lon="16.0955133"><ele>622.4</ele><time>2026-04-27T13:52:13.386Z</time></trkpt><trkpt lat="44.4408558" lon="16.0956263"><ele>620.0</ele><time>2026-04-27T13:52:14.386Z</time></trkpt><trkpt lat="44.440795" lon="16.0957428"><ele>620.8</ele><time>2026-04-27T13:52:15.386Z</time></trkpt><trkpt lat="44.4407465" lon="16.0958525"><ele>621.6</ele><time>2026-04-27T13:52:16.384Z</time></trkpt><trkpt lat="44.4406986" lon="16.0959267"><ele>622.4</ele><time>2026-04-27T13:52:17.386Z</time></trkpt><trkpt lat="44.440653" lon="16.0960012"><ele>623.2</ele><time>2026-04-27T13:52:18.384Z</time></trkpt><trkpt lat="44.4405808" lon="16.0961414"><ele>624.0</ele><time>2026-04-27T13:52:20.387Z</time></trkpt><trkpt lat="44.4405406" lon="16.0963071"><ele>624.0</ele><time>2026-04-27T13:52:22.384Z</time></trkpt><trkpt lat="44.4405008" lon="16.0963993"><ele>624.0</ele><time>2026-04-27T13:52:23.386Z</time></trkpt><trkpt lat="44.4404618" lon="16.0965059"><ele>624.0</ele><time>2026-04-27T13:52:24.386Z</time></trkpt><trkpt lat="44.440413" lon="16.0966087"><ele>624.0</ele><time>2026-04-27T13:52:25.386Z</time></trkpt><trkpt lat="44.4403488" lon="16.0967164"><ele>624.0</ele><time>2026-04-27T13:52:26.385Z</time></trkpt><trkpt lat="44.4402801" lon="16.0967972"><ele>624.0</ele><time>2026-04-27T13:52:27.386Z</time></trkpt><trkpt lat="44.4402087" lon="16.0968842"><ele>622.4</ele><time>2026-04-27T13:52:28.385Z</time></trkpt><trkpt lat="44.4401424" lon="16.0969615"><ele>620.8</ele><time>2026-04-27T13:52:29.383Z</time></trkpt><trkpt lat="44.4400622" lon="16.0970577"><ele>619.2</ele><time>2026-04-27T13:52:30.386Z</time></trkpt><trkpt lat="44.4399832" lon="16.0971491"><ele>617.6</ele><time>2026-04-27T13:52:31.386Z</time></trkpt><trkpt lat="44.4399077" lon="16.097242"><ele>616.0</ele><time>2026-04-27T13:52:32.387Z</time></trkpt><trkpt lat="44.4398308" lon="16.0973393"><ele>616.2</ele><time>2026-04-27T13:52:33.386Z</time></trkpt><trkpt lat="44.4397558" lon="16.0974425"><ele>616.4000000000001</ele><time>2026-04-27T13:52:34.386Z</time></trkpt><trkpt lat="44.4396806" lon="16.0975579"><ele>616.6</ele><time>2026-04-27T13:52:35.386Z</time></trkpt><trkpt lat="44.4396032" lon="16.0976585"><ele>616.8000000000001</ele><time>2026-04-27T13:52:36.387Z</time></trkpt><trkpt lat="44.4395332" lon="16.0977618"><ele>617.0</ele><time>2026-04-27T13:52:37.376Z</time></trkpt><trkpt lat="44.4394766" lon="16.0978603"><ele>615.6666666666666</ele><time>2026-04-27T13:52:38.381Z</time></trkpt><trkpt lat="44.4394292" lon="16.0979541"><ele>614.3333333333333</ele><time>2026-04-27T13:52:39.386Z</time></trkpt><trkpt lat="44.4393731" lon="16.0980344"><ele>613.0</ele><time>2026-04-27T13:52:40.386Z</time></trkpt><trkpt lat="44.4393102" lon="16.0980946"><ele>611.6666666666666</ele><time>2026-04-27T13:52:41.385Z</time></trkpt><trkpt lat="44.4392557" lon="16.0981437"><ele>610.3333333333334</ele><time>2026-04-27T13:52:42.372Z</time></trkpt><trkpt lat="44.4391871" lon="16.0981845"><ele>609.0</ele><time>2026-04-27T13:52:43.386Z</time></trkpt><trkpt lat="44.4390739" lon="16.0982251"><ele>608.8333333333334</ele><time>2026-04-27T13:52:45.387Z</time></trkpt><trkpt lat="44.4390125" lon="16.098257"><ele>608.6666666666666</ele><time>2026-04-27T13:52:46.387Z</time></trkpt><trkpt lat="44.4389573" lon="16.0983055"><ele>608.5</ele><time>2026-04-27T13:52:47.383Z</time></trkpt><trkpt lat="44.4388767" lon="16.0983917"><ele>608.3333333333333</ele><time>2026-04-27T13:52:49.386Z</time></trkpt><trkpt lat="44.4388128" lon="16.0984805"><ele>608.1666666666666</ele><time>2026-04-27T13:52:51.38Z</time></trkpt><trkpt lat="44.4388003" lon="16.0985792"><ele>608.0</ele><time>2026-04-27T13:53:08.387Z</time></trkpt><trkpt lat="44.4388349" lon="16.0987027"><ele>608.0</ele><time>2026-04-27T13:53:11.386Z</time></trkpt><trkpt lat="44.4388389" lon="16.0988217"><ele>608.0</ele><time>2026-04-27T13:53:14.383Z</time></trkpt><trkpt lat="44.4388393" lon="16.0989159"><ele>608.0</ele><time>2026-04-27T13:53:16.384Z</time></trkpt><trkpt lat="44.4388431" lon="16.0990133"><ele>608.0</ele><time>2026-04-27T13:53:18.386Z</time></trkpt><trkpt lat="44.4388506" lon="16.0991322"><ele>608.0</ele><time>2026-04-27T13:53:31.386Z</time></trkpt><trkpt lat="44.4388742" lon="16.0992211"><ele>608.0</ele><time>2026-04-27T13:53:33.386Z</time></trkpt><trkpt lat="44.4389035" lon="16.0993546"><ele>608.4</ele><time>2026-04-27T13:53:36.374Z</time></trkpt><trkpt lat="44.4389125" lon="16.0994606"><ele>608.8</ele><time>2026-04-27T13:53:38.384Z</time></trkpt><trkpt lat="44.438894" lon="16.0995745"><ele>609.2</ele><time>2026-04-27T13:53:41.386Z</time></trkpt><trkpt lat="44.4388707" lon="16.0996864"><ele>609.6</ele><time>2026-04-27T13:53:44.386Z</time></trkpt><trkpt lat="44.438861" lon="16.099829"><ele>610.0</ele><time>2026-04-27T13:53:46.386Z</time></trkpt><trkpt lat="44.4388614" lon="16.0999921"><ele>611.2</ele><time>2026-04-27T13:53:48.383Z</time></trkpt><trkpt lat="44.4388577" lon="16.1000839"><ele>612.4</ele><time>2026-04-27T13:53:49.384Z</time></trkpt><trkpt lat="44.4388544" lon="16.1001841"><ele>613.6</ele><time>2026-04-27T13:53:50.387Z</time></trkpt><trkpt lat="44.4388567" lon="16.1003352"><ele>614.8</ele><time>2026-04-27T13:53:52.384Z</time></trkpt><trkpt lat="44.4388576" lon="16.1004995"><ele>616.0</ele><time>2026-04-27T13:53:54.385Z</time></trkpt><trkpt lat="44.4388742" lon="16.1006246"><ele>617.0</ele><time>2026-04-27T13:53:56.387Z</time></trkpt><trkpt lat="44.4388991" lon="16.1007835"><ele>618.0</ele><time>2026-04-27T13:53:58.385Z</time></trkpt><trkpt lat="44.4389163" lon="16.1008697"><ele>619.0</ele><time>2026-04-27T13:53:59.383Z</time></trkpt><trkpt lat="44.4389512" lon="16.101037"><ele>620.0</ele><time>2026-04-27T13:54:01.386Z</time></trkpt><trkpt lat="44.4389992" lon="16.1012025"><ele>621.0</ele><time>2026-04-27T13:54:03.383Z</time></trkpt><trkpt lat="44.4390182" lon="16.1012883"><ele>621.0</ele><time>2026-04-27T13:54:04.383Z</time></trkpt><trkpt lat="44.4390477" lon="16.1014332"><ele>621.0</ele><time>2026-04-27T13:54:06.384Z</time></trkpt><trkpt lat="44.4390754" lon="16.1015469"><ele>621.0</ele><time>2026-04-27T13:54:08.387Z</time></trkpt><trkpt lat="44.4391542" lon="16.1016374"><ele>621.0</ele><time>2026-04-27T13:54:10.385Z</time></trkpt><trkpt lat="44.4392439" lon="16.1017072"><ele>621.0</ele><time>2026-04-27T13:54:12.38Z</time></trkpt><trkpt lat="44.4392765" lon="16.1018044"><ele>620.6</ele><time>2026-04-27T13:54:15.386Z</time></trkpt><trkpt lat="44.4393095" lon="16.1019076"><ele>620.2</ele><time>2026-04-27T13:54:17.387Z</time></trkpt><trkpt lat="44.4393515" lon="16.102064"><ele>619.8</ele><time>2026-04-27T13:54:19.382Z</time></trkpt><trkpt lat="44.439401" lon="16.1022176"><ele>619.4</ele><time>2026-04-27T13:54:21.383Z</time></trkpt><trkpt lat="44.4394507" lon="16.1023778"><ele>619.0</ele><time>2026-04-27T13:54:23.386Z</time></trkpt><trkpt lat="44.4394796" lon="16.1024582"><ele>619.6666666666667</ele><time>2026-04-27T13:54:24.379Z</time></trkpt><trkpt lat="44.439508" lon="16.1025459"><ele>620.3333333333334</ele><time>2026-04-27T13:54:25.384Z</time></trkpt><trkpt lat="44.439559" lon="16.1026814"><ele>621.0</ele><time>2026-04-27T13:54:27.384Z</time></trkpt><trkpt lat="44.4396033" lon="16.102786"><ele>621.6666666666666</ele><time>2026-04-27T13:54:29.386Z</time></trkpt><trkpt lat="44.4396633" lon="16.1028737"><ele>622.3333333333333</ele><time>2026-04-27T13:54:31.386Z</time></trkpt><trkpt lat="44.4397243" lon="16.1029773"><ele>623.0</ele><time>2026-04-27T13:54:33.384Z</time></trkpt><trkpt lat="44.4397735" lon="16.1030673"><ele>623.8</ele><time>2026-04-27T13:54:35.386Z</time></trkpt><trkpt lat="44.4398227" lon="16.1031293"><ele>624.5999999999999</ele><time>2026-04-27T13:54:36.386Z</time></trkpt><trkpt lat="44.4399061" lon="16.1032425"><ele>625.4000000000001</ele><time>2026-04-27T13:54:38.383Z</time></trkpt><trkpt lat="44.4399994" lon="16.1033483"><ele>626.2</ele><time>2026-04-27T13:54:40.386Z</time></trkpt><trkpt lat="44.4400507" lon="16.1034503"><ele>627.0</ele><time>2026-04-27T13:54:42.38Z</time></trkpt><trkpt lat="44.4400877" lon="16.1035941"><ele>627.2</ele><time>2026-04-27T13:54:44.387Z</time></trkpt><trkpt lat="44.4401216" lon="16.1037404"><ele>627.4000000000001</ele><time>2026-04-27T13:54:46.387Z</time></trkpt><trkpt lat="44.4401623" lon="16.1039192"><ele>627.5999999999999</ele><time>2026-04-27T13:54:48.386Z</time></trkpt><trkpt lat="44.4402073" lon="16.1040962"><ele>627.8</ele><time>2026-04-27T13:54:50.386Z</time></trkpt><trkpt lat="44.4402152" lon="16.1041907"><ele>628.0</ele><time>2026-04-27T13:54:51.382Z</time></trkpt><trkpt lat="44.4402372" lon="16.1043457"><ele>629.8</ele><time>2026-04-27T13:54:53.386Z</time></trkpt><trkpt lat="44.4403096" lon="16.1044755"><ele>631.5999999999999</ele><time>2026-04-27T13:54:55.386Z</time></trkpt><trkpt lat="44.4403554" lon="16.1046223"><ele>633.4000000000001</ele><time>2026-04-27T13:54:57.387Z</time></trkpt><trkpt lat="44.4403509" lon="16.1047366"><ele>635.2</ele><time>2026-04-27T13:54:59.386Z</time></trkpt><trkpt lat="44.4403247" lon="16.1048701"><ele>637.0</ele><time>2026-04-27T13:55:01.385Z</time></trkpt><trkpt lat="44.4402513" lon="16.1049468"><ele>638.2</ele><time>2026-04-27T13:55:03.383Z</time></trkpt><trkpt lat="44.4401823" lon="16.1050378"><ele>639.4000000000001</ele><time>2026-04-27T13:55:05.387Z</time></trkpt><trkpt lat="44.4401526" lon="16.1051174"><ele>640.5999999999999</ele><time>2026-04-27T13:55:06.386Z</time></trkpt><trkpt lat="44.4401017" lon="16.1052512"><ele>641.8</ele><time>2026-04-27T13:55:08.382Z</time></trkpt><trkpt lat="44.4400128" lon="16.105378"><ele>643.0</ele><time>2026-04-27T13:55:10.387Z</time></trkpt><trkpt lat="44.4399552" lon="16.1054364"><ele>643.0</ele><time>2026-04-27T13:55:11.386Z</time></trkpt><trkpt lat="44.4398532" lon="16.1055143"><ele>643.0</ele><time>2026-04-27T13:55:13.382Z</time></trkpt><trkpt lat="44.4397621" lon="16.1055792"><ele>643.0</ele><time>2026-04-27T13:55:15.382Z</time></trkpt><trkpt lat="44.4396986" lon="16.105712"><ele>643.0</ele><time>2026-04-27T13:55:17.387Z</time></trkpt><trkpt lat="44.4396341" lon="16.105812"><ele>643.0</ele><time>2026-04-27T13:55:19.386Z</time></trkpt><trkpt lat="44.439594" lon="16.1059165"><ele>643.0</ele><time>2026-04-27T13:55:21.383Z</time></trkpt><trkpt lat="44.439592" lon="16.1060844"><ele>643.0</ele><time>2026-04-27T13:55:23.386Z</time></trkpt><trkpt lat="44.4396131" lon="16.1061786"><ele>643.0</ele><time>2026-04-27T13:55:24.386Z</time></trkpt><trkpt lat="44.439658" lon="16.106335"><ele>643.0</ele><time>2026-04-27T13:55:26.386Z</time></trkpt><trkpt lat="44.4397012" lon="16.1064603"><ele>643.0</ele><time>2026-04-27T13:55:28.384Z</time></trkpt><trkpt lat="44.4397079" lon="16.1065678"><ele>642.8</ele><time>2026-04-27T13:55:30.386Z</time></trkpt><trkpt lat="44.4397032" lon="16.106693"><ele>642.5999999999999</ele><time>2026-04-27T13:55:32.386Z</time></trkpt><trkpt lat="44.4396575" lon="16.1068386"><ele>642.4000000000001</ele><time>2026-04-27T13:55:34.386Z</time></trkpt><trkpt lat="44.4395853" lon="16.1069962"><ele>642.2</ele><time>2026-04-27T13:55:36.38Z</time></trkpt><trkpt lat="44.4395351" lon="16.1070735"><ele>642.0</ele><time>2026-04-27T13:55:37.386Z</time></trkpt><trkpt lat="44.4394998" lon="16.1071539"><ele>642.0</ele><time>2026-04-27T13:55:38.383Z</time></trkpt><trkpt lat="44.4394632" lon="16.1072381"><ele>642.0</ele><time>2026-04-27T13:55:39.386Z</time></trkpt><trkpt lat="44.4394082" lon="16.1073802"><ele>642.0</ele><time>2026-04-27T13:55:41.386Z</time></trkpt><trkpt lat="44.4393408" lon="16.1075381"><ele>642.0</ele><time>2026-04-27T13:55:43.376Z</time></trkpt><trkpt lat="44.4392646" lon="16.1076413"><ele>642.0</ele><time>2026-04-27T13:55:45.386Z</time></trkpt><trkpt lat="44.439195" lon="16.1077675"><ele>641.0</ele><time>2026-04-27T13:55:47.386Z</time></trkpt><trkpt lat="44.4391335" lon="16.1078575"><ele>640.0</ele><time>2026-04-27T13:55:48.386Z</time></trkpt><trkpt lat="44.4390769" lon="16.1079529"><ele>639.0</ele><time>2026-04-27T13:55:49.387Z</time></trkpt><trkpt lat="44.4390357" lon="16.1080313"><ele>638.0</ele><time>2026-04-27T13:55:50.386Z</time></trkpt><trkpt lat="44.4389684" lon="16.1081369"><ele>637.0</ele><time>2026-04-27T13:55:51.386Z</time></trkpt><trkpt lat="44.4389056" lon="16.1082254"><ele>636.0</ele><time>2026-04-27T13:55:52.386Z</time></trkpt><trkpt lat="44.4388649" lon="16.1083067"><ele>636.0</ele><time>2026-04-27T13:55:53.386Z</time></trkpt><trkpt lat="44.4388162" lon="16.1084008"><ele>636.0</ele><time>2026-04-27T13:55:54.374Z</time></trkpt><trkpt lat="44.4387756" lon="16.1084827"><ele>636.0</ele><time>2026-04-27T13:55:55.383Z</time></trkpt><trkpt lat="44.4387529" lon="16.108578"><ele>636.0</ele><time>2026-04-27T13:55:56.387Z</time></trkpt><trkpt lat="44.4387282" lon="16.1086717"><ele>636.0</ele><time>2026-04-27T13:55:57.386Z</time></trkpt><trkpt lat="44.4386991" lon="16.1087629"><ele>636.0</ele><time>2026-04-27T13:55:58.381Z</time></trkpt><trkpt lat="44.438676" lon="16.1089159"><ele>632.3333333333334</ele><time>2026-04-27T13:56:00.386Z</time></trkpt><trkpt lat="44.4386549" lon="16.1090195"><ele>628.6666666666666</ele><time>2026-04-27T13:56:02.382Z</time></trkpt><trkpt lat="44.4386664" lon="16.1091577"><ele>625.0</ele><time>2026-04-27T13:56:04.38Z</time></trkpt><trkpt lat="44.4386636" lon="16.1092791"><ele>621.3333333333333</ele><time>2026-04-27T13:56:06.385Z</time></trkpt><trkpt lat="44.4386629" lon="16.1093831"><ele>617.6666666666666</ele><time>2026-04-27T13:56:08.386Z</time></trkpt><trkpt lat="44.4386874" lon="16.1095222"><ele>614.0</ele><time>2026-04-27T13:56:10.387Z</time></trkpt><trkpt lat="44.4387238" lon="16.109667"><ele>613.0</ele><time>2026-04-27T13:56:12.383Z</time></trkpt><trkpt lat="44.4387606" lon="16.1097487"><ele>612.0</ele><time>2026-04-27T13:56:13.385Z</time></trkpt><trkpt lat="44.4388511" lon="16.1098402"><ele>611.0</ele><time>2026-04-27T13:56:15.383Z</time></trkpt><trkpt lat="44.4389006" lon="16.1098987"><ele>610.0</ele><time>2026-04-27T13:56:16.387Z</time></trkpt><trkpt lat="44.4390035" lon="16.1100061"><ele>609.0</ele><time>2026-04-27T13:56:18.383Z</time></trkpt><trkpt lat="44.4390996" lon="16.1101077"><ele>610.4285714285714</ele><time>2026-04-27T13:56:20.382Z</time></trkpt><trkpt lat="44.4391503" lon="16.1101711"><ele>611.8571428571429</ele><time>2026-04-27T13:56:21.386Z</time></trkpt><trkpt lat="44.4392077" lon="16.1102311"><ele>613.2857142857142</ele><time>2026-04-27T13:56:22.385Z</time></trkpt><trkpt lat="44.4392713" lon="16.1102807"><ele>614.7142857142858</ele><time>2026-04-27T13:56:23.385Z</time></trkpt><trkpt lat="44.4393304" lon="16.1103397"><ele>616.1428571428571</ele><time>2026-04-27T13:56:24.386Z</time></trkpt><trkpt lat="44.4393897" lon="16.110393"><ele>617.5714285714286</ele><time>2026-04-27T13:56:25.386Z</time></trkpt><trkpt lat="44.439451" lon="16.1104533"><ele>619.0</ele><time>2026-04-27T13:56:26.386Z</time></trkpt><trkpt lat="44.4395625" lon="16.1105889"><ele>618.4</ele><time>2026-04-27T13:56:28.385Z</time></trkpt><trkpt lat="44.4396644" lon="16.1107238"><ele>617.8</ele><time>2026-04-27T13:56:30.382Z</time></trkpt><trkpt lat="44.4397035" lon="16.1107995"><ele>617.2</ele><time>2026-04-27T13:56:31.386Z</time></trkpt><trkpt lat="44.439745" lon="16.1108708"><ele>616.6</ele><time>2026-04-27T13:56:32.384Z</time></trkpt><trkpt lat="44.4398039" lon="16.1110257"><ele>616.0</ele><time>2026-04-27T13:56:34.387Z</time></trkpt><trkpt lat="44.4398415" lon="16.111113"><ele>616.0</ele><time>2026-04-27T13:56:35.386Z</time></trkpt><trkpt lat="44.4398797" lon="16.1111871"><ele>616.0</ele><time>2026-04-27T13:56:36.383Z</time></trkpt><trkpt lat="44.4399229" lon="16.1112655"><ele>616.0</ele><time>2026-04-27T13:56:37.386Z</time></trkpt><trkpt lat="44.4399644" lon="16.1113462"><ele>616.0</ele><time>2026-04-27T13:56:38.386Z</time></trkpt><trkpt lat="44.4399947" lon="16.1114436"><ele>616.0</ele><time>2026-04-27T13:56:39.386Z</time></trkpt><trkpt lat="44.4400376" lon="16.1115378"><ele>616.0</ele><time>2026-04-27T13:56:40.384Z</time></trkpt><trkpt lat="44.4400475" lon="16.111626"><ele>616.0</ele><time>2026-04-27T13:56:41.386Z</time></trkpt><trkpt lat="44.4400656" lon="16.1117655"><ele>613.5</ele><time>2026-04-27T13:56:43.387Z</time></trkpt><trkpt lat="44.4400924" lon="16.1118692"><ele>611.0</ele><time>2026-04-27T13:56:46.386Z</time></trkpt><trkpt lat="44.4401566" lon="16.1119172"><ele>608.5</ele><time>2026-04-27T13:56:49.387Z</time></trkpt><trkpt lat="44.4402398" lon="16.1119516"><ele>606.0</ele><time>2026-04-27T13:56:51.387Z</time></trkpt><trkpt lat="44.4402635" lon="16.1120429"><ele>603.5</ele><time>2026-04-27T13:56:53.386Z</time></trkpt><trkpt lat="44.4402837" lon="16.1121452"><ele>601.0</ele><time>2026-04-27T13:56:54.387Z</time></trkpt><trkpt lat="44.4402941" lon="16.1122543"><ele>601.0</ele><time>2026-04-27T13:56:55.386Z</time></trkpt><trkpt lat="44.4402884" lon="16.1123768"><ele>601.0</ele><time>2026-04-27T13:56:56.384Z</time></trkpt><trkpt lat="44.4402766" lon="16.1124921"><ele>601.0</ele><time>2026-04-27T13:56:57.384Z</time></trkpt><trkpt lat="44.4402749" lon="16.1125903"><ele>601.0</ele><time>2026-04-27T13:56:58.38Z</time></trkpt><trkpt lat="44.4402838" lon="16.1126801"><ele>601.0</ele><time>2026-04-27T13:56:59.386Z</time></trkpt><trkpt lat="44.4403115" lon="16.1128528"><ele>601.0</ele><time>2026-04-27T13:57:01.387Z</time></trkpt><trkpt lat="44.4403179" lon="16.1129498"><ele>597.5</ele><time>2026-04-27T13:57:02.385Z</time></trkpt><trkpt lat="44.4403132" lon="16.1131225"><ele>594.0</ele><time>2026-04-27T13:57:04.386Z</time></trkpt><trkpt lat="44.440303" lon="16.1132807"><ele>590.5</ele><time>2026-04-27T13:57:06.381Z</time></trkpt><trkpt lat="44.4403181" lon="16.1134509"><ele>587.0</ele><time>2026-04-27T13:57:08.385Z</time></trkpt><trkpt lat="44.4403435" lon="16.113626"><ele>587.6666666666666</ele><time>2026-04-27T13:57:10.382Z</time></trkpt><trkpt lat="44.4403701" lon="16.1137891"><ele>588.3333333333333</ele><time>2026-04-27T13:57:12.387Z</time></trkpt><trkpt lat="44.4403895" lon="16.1138796"><ele>589.0</ele><time>2026-04-27T13:57:13.385Z</time></trkpt><trkpt lat="44.4404173" lon="16.1139687"><ele>589.6666666666666</ele><time>2026-04-27T13:57:14.386Z</time></trkpt><trkpt lat="44.4404346" lon="16.1140601"><ele>590.3333333333334</ele><time>2026-04-27T13:57:15.386Z</time></trkpt><trkpt lat="44.440475" lon="16.1141488"><ele>591.0</ele><time>2026-04-27T13:57:16.386Z</time></trkpt><trkpt lat="44.4405143" lon="16.114246"><ele>591.0</ele><time>2026-04-27T13:57:17.383Z</time></trkpt><trkpt lat="44.4405569" lon="16.114356"><ele>591.0</ele><time>2026-04-27T13:57:18.38Z</time></trkpt><trkpt lat="44.4405871" lon="16.1144781"><ele>591.0</ele><time>2026-04-27T13:57:19.386Z</time></trkpt><trkpt lat="44.4406105" lon="16.1146066"><ele>591.0</ele><time>2026-04-27T13:57:20.386Z</time></trkpt><trkpt lat="44.4406265" lon="16.1147549"><ele>591.0</ele><time>2026-04-27T13:57:21.385Z</time></trkpt><trkpt lat="44.4406434" lon="16.1148879"><ele>589.1666666666666</ele><time>2026-04-27T13:57:22.385Z</time></trkpt><trkpt lat="44.4406384" lon="16.1150089"><ele>587.3333333333334</ele><time>2026-04-27T13:57:23.386Z</time></trkpt><trkpt lat="44.4406297" lon="16.1151157"><ele>585.5</ele><time>2026-04-27T13:57:24.386Z</time></trkpt><trkpt lat="44.4406213" lon="16.1152472"><ele>583.6666666666667</ele><time>2026-04-27T13:57:26.384Z</time></trkpt><trkpt lat="44.4406046" lon="16.1153415"><ele>581.8333333333334</ele><time>2026-04-27T13:57:28.386Z</time></trkpt><trkpt lat="44.440584" lon="16.1154367"><ele>580.0</ele><time>2026-04-27T13:57:30.385Z</time></trkpt><trkpt lat="44.4406035" lon="16.1155622"><ele>580.0</ele><time>2026-04-27T13:57:32.386Z</time></trkpt><trkpt lat="44.4406561" lon="16.1156595"><ele>580.0</ele><time>2026-04-27T13:57:34.382Z</time></trkpt><trkpt lat="44.4407127" lon="16.1157509"><ele>580.0</ele><time>2026-04-27T13:57:36.382Z</time></trkpt><trkpt lat="44.4407905" lon="16.1158675"><ele>580.0</ele><time>2026-04-27T13:57:38.383Z</time></trkpt><trkpt lat="44.4408318" lon="16.1159403"><ele>580.0</ele><time>2026-04-27T13:57:39.386Z</time></trkpt><trkpt lat="44.4408826" lon="16.1160299"><ele>580.0</ele><time>2026-04-27T13:57:41.387Z</time></trkpt><trkpt lat="44.4408925" lon="16.1161564"><ele>579.8333333333334</ele><time>2026-04-27T13:57:43.387Z</time></trkpt><trkpt lat="44.4408982" lon="16.116281"><ele>579.6666666666667</ele><time>2026-04-27T13:57:45.381Z</time></trkpt><trkpt lat="44.440889" lon="16.1164134"><ele>579.5</ele><time>2026-04-27T13:57:47.374Z</time></trkpt><trkpt lat="44.4408746" lon="16.1165109"><ele>579.3333333333334</ele><time>2026-04-27T13:57:49.386Z</time></trkpt><trkpt lat="44.4408518" lon="16.1166281"><ele>579.1666666666666</ele><time>2026-04-27T13:57:51.386Z</time></trkpt><trkpt lat="44.4407988" lon="16.1167072"><ele>579.0</ele><time>2026-04-27T13:57:53.386Z</time></trkpt><trkpt lat="44.4407392" lon="16.1168202"><ele>577.5</ele><time>2026-04-27T13:57:55.387Z</time></trkpt><trkpt lat="44.4407206" lon="16.1169055"><ele>576.0</ele><time>2026-04-27T13:57:56.384Z</time></trkpt><trkpt lat="44.4406946" lon="16.117005"><ele>574.5</ele><time>2026-04-27T13:57:57.386Z</time></trkpt><trkpt lat="44.440661" lon="16.1170955"><ele>573.0</ele><time>2026-04-27T13:57:58.386Z</time></trkpt><trkpt lat="44.4406214" lon="16.1171789"><ele>571.5</ele><time>2026-04-27T13:57:59.387Z</time></trkpt><trkpt lat="44.4405781" lon="16.1173035"><ele>570.0</ele><time>2026-04-27T13:58:01.385Z</time></trkpt><trkpt lat="44.4405072" lon="16.1174199"><ele>568.1666666666666</ele><time>2026-04-27T13:58:03.378Z</time></trkpt><trkpt lat="44.440473" lon="16.1174993"><ele>566.3333333333334</ele><time>2026-04-27T13:58:04.387Z</time></trkpt><trkpt lat="44.440388" lon="16.1175916"><ele>564.5</ele><time>2026-04-27T13:58:06.387Z</time></trkpt><trkpt lat="44.4403207" lon="16.1176622"><ele>562.6666666666667</ele><time>2026-04-27T13:58:08.387Z</time></trkpt><trkpt lat="44.4402639" lon="16.1177158"><ele>560.8333333333334</ele><time>2026-04-27T13:58:09.386Z</time></trkpt><trkpt lat="44.4402024" lon="16.1177609"><ele>559.0</ele><time>2026-04-27T13:58:10.381Z</time></trkpt><trkpt lat="44.4401025" lon="16.1178545"><ele>559.0</ele><time>2026-04-27T13:58:12.387Z</time></trkpt><trkpt lat="44.4400039" lon="16.1179313"><ele>559.0</ele><time>2026-04-27T13:58:14.38Z</time></trkpt><trkpt lat="44.4398947" lon="16.1179954"><ele>559.0</ele><time>2026-04-27T13:58:16.386Z</time></trkpt><trkpt lat="44.439802" lon="16.1180544"><ele>559.0</ele><time>2026-04-27T13:58:18.385Z</time></trkpt><trkpt lat="44.439699" lon="16.1181256"><ele>559.0</ele><time>2026-04-27T13:58:20.386Z</time></trkpt><trkpt lat="44.4395973" lon="16.1182047"><ele>558.0</ele><time>2026-04-27T13:58:22.383Z</time></trkpt><trkpt lat="44.4395386" lon="16.1182371"><ele>557.0</ele><time>2026-04-27T13:58:23.38Z</time></trkpt><trkpt lat="44.4394621" lon="16.118283"><ele>556.0</ele><time>2026-04-27T13:58:25.386Z</time></trkpt><trkpt lat="44.4393931" lon="16.1182842"><ele>555.0</ele><time>2026-04-27T13:58:27.385Z</time></trkpt><trkpt lat="44.4392936" lon="16.1182654"><ele>554.0</ele><time>2026-04-27T13:58:29.387Z</time></trkpt><trkpt lat="44.4391909" lon="16.1182317"><ele>553.0</ele><time>2026-04-27T13:58:31.384Z</time></trkpt><trkpt lat="44.4390813" lon="16.1182061"><ele>553.0</ele><time>2026-04-27T13:58:33.386Z</time></trkpt><trkpt lat="44.4389797" lon="16.1181536"><ele>553.0</ele><time>2026-04-27T13:58:35.387Z</time></trkpt><trkpt lat="44.4388979" lon="16.1181119"><ele>553.0</ele><time>2026-04-27T13:58:37.38Z</time></trkpt><trkpt lat="44.4388395" lon="16.1181669"><ele>553.0</ele><time>2026-04-27T13:58:40.386Z</time></trkpt><trkpt lat="44.4388549" lon="16.1182741"><ele>553.0</ele><time>2026-04-27T13:58:43.386Z</time></trkpt><trkpt lat="44.4389324" lon="16.1183431"><ele>553.0</ele><time>2026-04-27T13:58:46.386Z</time></trkpt><trkpt lat="44.4390058" lon="16.1183989"><ele>550.1666666666667</ele><time>2026-04-27T13:58:48.387Z</time></trkpt><trkpt lat="44.4390661" lon="16.1184793"><ele>547.3333333333334</ele><time>2026-04-27T13:58:50.386Z</time></trkpt><trkpt lat="44.4391244" lon="16.1185424"><ele>544.5</ele><time>2026-04-27T13:58:52.382Z</time></trkpt><trkpt lat="44.4391627" lon="16.1186258"><ele>541.6666666666666</ele><time>2026-04-27T13:58:54.384Z</time></trkpt><trkpt lat="44.4391948" lon="16.1187461"><ele>538.8333333333333</ele><time>2026-04-27T13:58:56.386Z</time></trkpt><trkpt lat="44.4392371" lon="16.1188744"><ele>536.0</ele><time>2026-04-27T13:58:58.383Z</time></trkpt><trkpt lat="44.4392462" lon="16.1189924"><ele>533.0</ele><time>2026-04-27T13:59:00.386Z</time></trkpt><trkpt lat="44.4392614" lon="16.1191135"><ele>530.0</ele><time>2026-04-27T13:59:02.385Z</time></trkpt><trkpt lat="44.4393071" lon="16.1192626"><ele>527.0</ele><time>2026-04-27T13:59:04.387Z</time></trkpt><trkpt lat="44.4393566" lon="16.1194097"><ele>524.0</ele><time>2026-04-27T13:59:06.386Z</time></trkpt><trkpt lat="44.4394081" lon="16.119545"><ele>521.0</ele><time>2026-04-27T13:59:08.386Z</time></trkpt><trkpt lat="44.4394781" lon="16.1196963"><ele>521.0</ele><time>2026-04-27T13:59:10.386Z</time></trkpt><trkpt lat="44.4395146" lon="16.1197736"><ele>521.0</ele><time>2026-04-27T13:59:11.386Z</time></trkpt><trkpt lat="44.4396044" lon="16.119897"><ele>521.0</ele><time>2026-04-27T13:59:13.379Z</time></trkpt><trkpt lat="44.4396595" lon="16.1199732"><ele>521.0</ele><time>2026-04-27T13:59:14.378Z</time></trkpt><trkpt lat="44.4397138" lon="16.120063"><ele>521.0</ele><time>2026-04-27T13:59:15.386Z</time></trkpt><trkpt lat="44.4397889" lon="16.1201687"><ele>520.3333333333333</ele><time>2026-04-27T13:59:16.387Z</time></trkpt><trkpt lat="44.4398538" lon="16.1202563"><ele>519.6666666666666</ele><time>2026-04-27T13:59:17.385Z</time></trkpt><trkpt lat="44.4398991" lon="16.1203469"><ele>519.0</ele><time>2026-04-27T13:59:18.383Z</time></trkpt><trkpt lat="44.4399498" lon="16.1204212"><ele>518.3333333333334</ele><time>2026-04-27T13:59:19.385Z</time></trkpt><trkpt lat="44.4399876" lon="16.1204968"><ele>517.6666666666667</ele><time>2026-04-27T13:59:20.386Z</time></trkpt><trkpt lat="44.4400413" lon="16.1206289"><ele>517.0</ele><time>2026-04-27T13:59:22.384Z</time></trkpt><trkpt lat="44.4400591" lon="16.1207244"><ele>517.0</ele><time>2026-04-27T13:59:24.384Z</time></trkpt><trkpt lat="44.4399995" lon="16.1207672"><ele>517.0</ele><time>2026-04-27T14:00:09.378Z</time></trkpt><trkpt lat="44.4398979" lon="16.1207284"><ele>517.0</ele><time>2026-04-27T14:00:11.387Z</time></trkpt><trkpt lat="44.4398198" lon="16.1206907"><ele>517.0</ele><time>2026-04-27T14:00:12.386Z</time></trkpt><trkpt lat="44.4397299" lon="16.1206459"><ele>517.0</ele><time>2026-04-27T14:00:13.387Z</time></trkpt><trkpt lat="44.4396202" lon="16.1205904"><ele>516.0</ele><time>2026-04-27T14:00:14.387Z</time></trkpt><trkpt lat="44.4395042" lon="16.1205196"><ele>515.0</ele><time>2026-04-27T14:00:15.386Z</time></trkpt><trkpt lat="44.4393831" lon="16.1204481"><ele>514.0</ele><time>2026-04-27T14:00:16.386Z</time></trkpt><trkpt lat="44.4392473" lon="16.1203823"><ele>513.0</ele><time>2026-04-27T14:00:17.381Z</time></trkpt><trkpt lat="44.4391219" lon="16.1203151"><ele>513.0</ele><time>2026-04-27T14:00:18.382Z</time></trkpt><trkpt lat="44.4390027" lon="16.1202385"><ele>513.0</ele><time>2026-04-27T14:00:19.387Z</time></trkpt><trkpt lat="44.4388859" lon="16.120165"><ele>513.0</ele><time>2026-04-27T14:00:20.387Z</time></trkpt><trkpt lat="44.4387717" lon="16.1200949"><ele>513.0</ele><time>2026-04-27T14:00:21.384Z</time></trkpt><trkpt lat="44.4386594" lon="16.1200123"><ele>512.75</ele><time>2026-04-27T14:00:22.386Z</time></trkpt><trkpt lat="44.438547" lon="16.1199173"><ele>512.5</ele><time>2026-04-27T14:00:23.386Z</time></trkpt><trkpt lat="44.4384374" lon="16.1198072"><ele>512.25</ele><time>2026-04-27T14:00:24.383Z</time></trkpt><trkpt lat="44.4383347" lon="16.1196862"><ele>512.0</ele><time>2026-04-27T14:00:25.385Z</time></trkpt><trkpt lat="44.4382337" lon="16.1195548"><ele>512.0</ele><time>2026-04-27T14:00:26.386Z</time></trkpt><trkpt lat="44.4381269" lon="16.1194247"><ele>512.0</ele><time>2026-04-27T14:00:27.386Z</time></trkpt><trkpt lat="44.4380251" lon="16.1192924"><ele>512.0</ele><time>2026-04-27T14:00:28.38Z</time></trkpt><trkpt lat="44.4379083" lon="16.1191485"><ele>512.0</ele><time>2026-04-27T14:00:29.386Z</time></trkpt><trkpt lat="44.4377721" lon="16.1190282"><ele>506.66666666666663</ele><time>2026-04-27T14:00:30.381Z</time></trkpt><trkpt lat="44.4376496" lon="16.1189081"><ele>501.33333333333337</ele><time>2026-04-27T14:00:31.381Z</time></trkpt><trkpt lat="44.4375141" lon="16.1188117"><ele>496.0</ele><time>2026-04-27T14:00:32.386Z</time></trkpt><trkpt lat="44.4373731" lon="16.1187246"><ele>496.0</ele><time>2026-04-27T14:00:33.386Z</time></trkpt><trkpt lat="44.4372329" lon="16.1186351"><ele>496.0</ele><time>2026-04-27T14:00:34.383Z</time></trkpt><trkpt lat="44.43709" lon="16.1185547"><ele>496.0</ele><time>2026-04-27T14:00:35.381Z</time></trkpt><trkpt lat="44.4369574" lon="16.1184516"><ele>498.0</ele><time>2026-04-27T14:00:36.383Z</time></trkpt><trkpt lat="44.4368187" lon="16.1183464"><ele>500.0</ele><time>2026-04-27T14:00:37.386Z</time></trkpt><trkpt lat="44.4366748" lon="16.1182308"><ele>502.0</ele><time>2026-04-27T14:00:38.386Z</time></trkpt><trkpt lat="44.4365497" lon="16.1181114"><ele>499.0</ele><time>2026-04-27T14:00:39.386Z</time></trkpt><trkpt lat="44.4364051" lon="16.1179798"><ele>496.0</ele><time>2026-04-27T14:00:40.386Z</time></trkpt><trkpt lat="44.4362838" lon="16.1178639"><ele>493.0</ele><time>2026-04-27T14:00:41.386Z</time></trkpt><trkpt lat="44.4361537" lon="16.1177466"><ele>493.0</ele><time>2026-04-27T14:00:42.378Z</time></trkpt><trkpt lat="44.4360177" lon="16.1176582"><ele>493.0</ele><time>2026-04-27T14:00:43.38Z</time></trkpt><trkpt lat="44.4358735" lon="16.1175884"><ele>493.0</ele><time>2026-04-27T14:00:44.386Z</time></trkpt><trkpt lat="44.4357376" lon="16.1175257"><ele>493.0</ele><time>2026-04-27T14:00:45.383Z</time></trkpt><trkpt lat="44.435587" lon="16.1174607"><ele>494.6666666666667</ele><time>2026-04-27T14:00:46.383Z</time></trkpt><trkpt lat="44.4354436" lon="16.1174343"><ele>496.33333333333337</ele><time>2026-04-27T14:00:47.386Z</time></trkpt><trkpt lat="44.4352782" lon="16.1174808"><ele>498.0</ele><time>2026-04-27T14:00:48.387Z</time></trkpt><trkpt lat="44.4351303" lon="16.1175113"><ele>498.0</ele><time>2026-04-27T14:00:49.387Z</time></trkpt><trkpt lat="44.4350046" lon="16.1175364"><ele>498.0</ele><time>2026-04-27T14:00:50.386Z</time></trkpt><trkpt lat="44.4348853" lon="16.1174948"><ele>498.0</ele><time>2026-04-27T14:00:51.386Z</time></trkpt><trkpt lat="44.4347821" lon="16.1174168"><ele>498.0</ele><time>2026-04-27T14:00:52.375Z</time></trkpt><trkpt lat="44.4346879" lon="16.1172873"><ele>497.0</ele><time>2026-04-27T14:00:53.38Z</time></trkpt><trkpt lat="44.4345969" lon="16.1171583"><ele>496.0</ele><time>2026-04-27T14:00:54.384Z</time></trkpt><trkpt lat="44.4345091" lon="16.117007"><ele>495.0</ele><time>2026-04-27T14:00:55.386Z</time></trkpt><trkpt lat="44.4344017" lon="16.1168326"><ele>494.0</ele><time>2026-04-27T14:00:56.386Z</time></trkpt><trkpt lat="44.4342921" lon="16.1166722"><ele>485.0</ele><time>2026-04-27T14:00:57.385Z</time></trkpt><trkpt lat="44.4341753" lon="16.116499"><ele>476.0</ele><time>2026-04-27T14:00:58.376Z</time></trkpt><trkpt lat="44.4340558" lon="16.116335"><ele>467.0</ele><time>2026-04-27T14:00:59.386Z</time></trkpt><trkpt lat="44.4338982" lon="16.1161643"><ele>463.66666666666663</ele><time>2026-04-27T14:01:00.386Z</time></trkpt><trkpt lat="44.4337567" lon="16.1160171"><ele>460.33333333333337</ele><time>2026-04-27T14:01:01.384Z</time></trkpt><trkpt lat="44.4335715" lon="16.1158746"><ele>457.0</ele><time>2026-04-27T14:01:02.385Z</time></trkpt><trkpt lat="44.4333995" lon="16.1157345"><ele>457.0</ele><time>2026-04-27T14:01:03.383Z</time></trkpt><trkpt lat="44.4332283" lon="16.1155762"><ele>457.0</ele><time>2026-04-27T14:01:04.386Z</time></trkpt><trkpt lat="44.4330502" lon="16.1154046"><ele>457.0</ele><time>2026-04-27T14:01:05.386Z</time></trkpt><trkpt lat="44.4328752" lon="16.1152312"><ele>456.6666666666667</ele><time>2026-04-27T14:01:06.386Z</time></trkpt><trkpt lat="44.4327289" lon="16.1150462"><ele>456.33333333333337</ele><time>2026-04-27T14:01:07.384Z</time></trkpt><trkpt lat="44.4325761" lon="16.114855"><ele>456.0</ele><time>2026-04-27T14:01:08.386Z</time></trkpt><trkpt lat="44.4324075" lon="16.1146474"><ele>456.0</ele><time>2026-04-27T14:01:09.387Z</time></trkpt><trkpt lat="44.432253" lon="16.1144571"><ele>456.0</ele><time>2026-04-27T14:01:10.381Z</time></trkpt><trkpt lat="44.4319293" lon="16.1140833"><ele>454.66666666666663</ele><time>2026-04-27T14:01:12.38Z</time></trkpt><trkpt lat="44.4317838" lon="16.1139074"><ele>453.3333333333333</ele><time>2026-04-27T14:01:13.386Z</time></trkpt><trkpt lat="44.4316341" lon="16.1137302"><ele>452.0</ele><time>2026-04-27T14:01:14.381Z</time></trkpt><trkpt lat="44.4314827" lon="16.1135596"><ele>452.0</ele><time>2026-04-27T14:01:15.386Z</time></trkpt><trkpt lat="44.4313375" lon="16.1133956"><ele>452.0</ele><time>2026-04-27T14:01:16.386Z</time></trkpt><trkpt lat="44.4311924" lon="16.1132394"><ele>452.0</ele><time>2026-04-27T14:01:17.382Z</time></trkpt><trkpt lat="44.4310373" lon="16.1130856"><ele>450.3333333333333</ele><time>2026-04-27T14:01:18.376Z</time></trkpt><trkpt lat="44.4308831" lon="16.1129547"><ele>448.66666666666663</ele><time>2026-04-27T14:01:19.383Z</time></trkpt><trkpt lat="44.4307383" lon="16.1128062"><ele>447.0</ele><time>2026-04-27T14:01:20.382Z</time></trkpt><trkpt lat="44.4305871" lon="16.1126643"><ele>443.66666666666663</ele><time>2026-04-27T14:01:21.386Z</time></trkpt><trkpt lat="44.4304261" lon="16.11252"><ele>440.3333333333333</ele><time>2026-04-27T14:01:22.385Z</time></trkpt><trkpt lat="44.4302834" lon="16.112385"><ele>437.0</ele><time>2026-04-27T14:01:23.385Z</time></trkpt><trkpt lat="44.430139" lon="16.1122597"><ele>437.0</ele><time>2026-04-27T14:01:24.386Z</time></trkpt><trkpt lat="44.429983" lon="16.1121396"><ele>437.0</ele><time>2026-04-27T14:01:25.386Z</time></trkpt><trkpt lat="44.4298049" lon="16.1120372"><ele>437.0</ele><time>2026-04-27T14:01:26.386Z</time></trkpt><trkpt lat="44.4296316" lon="16.1119507"><ele>439.66666666666663</ele><time>2026-04-27T14:01:27.386Z</time></trkpt><trkpt lat="44.4294479" lon="16.1118709"><ele>442.33333333333337</ele><time>2026-04-27T14:01:28.386Z</time></trkpt><trkpt lat="44.4292707" lon="16.1117936"><ele>445.0</ele><time>2026-04-27T14:01:29.379Z</time></trkpt><trkpt lat="44.4290961" lon="16.111704"><ele>445.0</ele><time>2026-04-27T14:01:30.384Z</time></trkpt><trkpt lat="44.428928" lon="16.111607"><ele>445.0</ele><time>2026-04-27T14:01:31.382Z</time></trkpt><trkpt lat="44.4287732" lon="16.111493"><ele>445.0</ele><time>2026-04-27T14:01:32.381Z</time></trkpt><trkpt lat="44.4286179" lon="16.1113652"><ele>441.6666666666667</ele><time>2026-04-27T14:01:33.384Z</time></trkpt><trkpt lat="44.4284713" lon="16.1112208"><ele>438.33333333333337</ele><time>2026-04-27T14:01:34.386Z</time></trkpt><trkpt lat="44.4283327" lon="16.1110671"><ele>435.0</ele><time>2026-04-27T14:01:35.376Z</time></trkpt><trkpt lat="44.4281918" lon="16.1108999"><ele>435.0</ele><time>2026-04-27T14:01:36.387Z</time></trkpt><trkpt lat="44.4280461" lon="16.1107473"><ele>435.0</ele><time>2026-04-27T14:01:37.386Z</time></trkpt><trkpt lat="44.4278945" lon="16.1105981"><ele>435.0</ele><time>2026-04-27T14:01:38.384Z</time></trkpt><trkpt lat="44.4277471" lon="16.1104567"><ele>431.33333333333337</ele><time>2026-04-27T14:01:39.384Z</time></trkpt><trkpt lat="44.4275836" lon="16.1103678"><ele>427.6666666666667</ele><time>2026-04-27T14:01:40.387Z</time></trkpt><trkpt lat="44.4274171" lon="16.1102684"><ele>424.0</ele><time>2026-04-27T14:01:41.386Z</time></trkpt><trkpt lat="44.4272522" lon="16.1101798"><ele>425.0</ele><time>2026-04-27T14:01:42.38Z</time></trkpt><trkpt lat="44.4270656" lon="16.1101154"><ele>426.0</ele><time>2026-04-27T14:01:43.383Z</time></trkpt><trkpt lat="44.4268734" lon="16.1100709"><ele>427.0</ele><time>2026-04-27T14:01:44.373Z</time></trkpt><trkpt lat="44.4266884" lon="16.1100611"><ele>427.0</ele><time>2026-04-27T14:01:45.381Z</time></trkpt><trkpt lat="44.4264956" lon="16.1100326"><ele>427.0</ele><time>2026-04-27T14:01:46.383Z</time></trkpt><trkpt lat="44.4263254" lon="16.1100069"><ele>427.0</ele><time>2026-04-27T14:01:47.383Z</time></trkpt><trkpt lat="44.4261305" lon="16.1099778"><ele>427.6666666666667</ele><time>2026-04-27T14:01:48.382Z</time></trkpt><trkpt lat="44.4259443" lon="16.1099463"><ele>428.33333333333337</ele><time>2026-04-27T14:01:49.384Z</time></trkpt><trkpt lat="44.42576" lon="16.1098937"><ele>429.0</ele><time>2026-04-27T14:01:50.383Z</time></trkpt><trkpt lat="44.4255851" lon="16.1098357"><ele>420.66666666666663</ele><time>2026-04-27T14:01:51.386Z</time></trkpt><trkpt lat="44.4253925" lon="16.1097657"><ele>412.3333333333333</ele><time>2026-04-27T14:01:52.383Z</time></trkpt><trkpt lat="44.4252124" lon="16.1096825"><ele>404.0</ele><time>2026-04-27T14:01:53.386Z</time></trkpt><trkpt lat="44.4250243" lon="16.1095929"><ele>404.0</ele><time>2026-04-27T14:01:54.385Z</time></trkpt><trkpt lat="44.424844" lon="16.1095005"><ele>404.0</ele><time>2026-04-27T14:01:55.386Z</time></trkpt><trkpt lat="44.4246491" lon="16.1094129"><ele>404.0</ele><time>2026-04-27T14:01:56.386Z</time></trkpt><trkpt lat="44.4244666" lon="16.1093598"><ele>404.0</ele><time>2026-04-27T14:01:57.379Z</time></trkpt><trkpt lat="44.4242566" lon="16.1093339"><ele>404.0</ele><time>2026-04-27T14:01:58.386Z</time></trkpt><trkpt lat="44.4240529" lon="16.1093137"><ele>404.0</ele><time>2026-04-27T14:01:59.379Z</time></trkpt><trkpt lat="44.4238572" lon="16.1092993"><ele>403.3333333333333</ele><time>2026-04-27T14:02:00.38Z</time></trkpt><trkpt lat="44.4236585" lon="16.1092955"><ele>402.66666666666663</ele><time>2026-04-27T14:02:01.387Z</time></trkpt><trkpt lat="44.4234589" lon="16.1092824"><ele>402.0</ele><time>2026-04-27T14:02:02.381Z</time></trkpt><trkpt lat="44.4232567" lon="16.1092573"><ele>402.0</ele><time>2026-04-27T14:02:03.387Z</time></trkpt><trkpt lat="44.4230599" lon="16.1092225"><ele>402.0</ele><time>2026-04-27T14:02:04.386Z</time></trkpt><trkpt lat="44.4228624" lon="16.1091875"><ele>402.0</ele><time>2026-04-27T14:02:05.386Z</time></trkpt><trkpt lat="44.4226506" lon="16.1091438"><ele>401.33333333333337</ele><time>2026-04-27T14:02:06.387Z</time></trkpt><trkpt lat="44.4224468" lon="16.1091102"><ele>400.6666666666667</ele><time>2026-04-27T14:02:07.378Z</time></trkpt><trkpt lat="44.422241" lon="16.1090713"><ele>400.0</ele><time>2026-04-27T14:02:08.383Z</time></trkpt><trkpt lat="44.422036" lon="16.1090353"><ele>395.33333333333337</ele><time>2026-04-27T14:02:09.38Z</time></trkpt><trkpt lat="44.4218182" lon="16.109028"><ele>390.66666666666663</ele><time>2026-04-27T14:02:10.386Z</time></trkpt><trkpt lat="44.4216075" lon="16.109023"><ele>386.0</ele><time>2026-04-27T14:02:11.387Z</time></trkpt><trkpt lat="44.4213879" lon="16.1090278"><ele>386.0</ele><time>2026-04-27T14:02:12.381Z</time></trkpt><trkpt lat="44.4211689" lon="16.1090542"><ele>386.0</ele><time>2026-04-27T14:02:13.379Z</time></trkpt><trkpt lat="44.4209582" lon="16.1090763"><ele>386.0</ele><time>2026-04-27T14:02:14.384Z</time></trkpt><trkpt lat="44.4207605" lon="16.1091115"><ele>386.0</ele><time>2026-04-27T14:02:15.378Z</time></trkpt><trkpt lat="44.4205703" lon="16.1091526"><ele>386.0</ele><time>2026-04-27T14:02:16.382Z</time></trkpt><trkpt lat="44.4203825" lon="16.109209"><ele>386.0</ele><time>2026-04-27T14:02:17.386Z</time></trkpt><trkpt lat="44.420208" lon="16.1092879"><ele>383.0</ele><time>2026-04-27T14:02:18.382Z</time></trkpt><trkpt lat="44.4200348" lon="16.1093652"><ele>380.0</ele><time>2026-04-27T14:02:19.386Z</time></trkpt><trkpt lat="44.4198636" lon="16.109439"><ele>377.0</ele><time>2026-04-27T14:02:20.387Z</time></trkpt><trkpt lat="44.4197074" lon="16.1095064"><ele>376.5</ele><time>2026-04-27T14:02:21.384Z</time></trkpt><trkpt lat="44.4195471" lon="16.1095523"><ele>376.0</ele><time>2026-04-27T14:02:22.386Z</time></trkpt><trkpt lat="44.4194014" lon="16.1095743"><ele>375.5</ele><time>2026-04-27T14:02:23.387Z</time></trkpt><trkpt lat="44.419265" lon="16.1095868"><ele>375.0</ele><time>2026-04-27T14:02:24.383Z</time></trkpt><trkpt lat="44.4191361" lon="16.1095831"><ele>375.0</ele><time>2026-04-27T14:02:25.383Z</time></trkpt><trkpt lat="44.4190235" lon="16.1095733"><ele>375.0</ele><time>2026-04-27T14:02:26.384Z</time></trkpt><trkpt lat="44.4189194" lon="16.109561"><ele>375.0</ele><time>2026-04-27T14:02:27.386Z</time></trkpt><trkpt lat="44.41883" lon="16.109548"><ele>375.0</ele><time>2026-04-27T14:02:28.383Z</time></trkpt><trkpt lat="44.4187513" lon="16.1095694"><ele>375.0</ele><time>2026-04-27T14:02:30.384Z</time></trkpt><trkpt lat="44.4187513" lon="16.1096744"><ele>374.6</ele><time>2026-04-27T14:02:34.386Z</time></trkpt><trkpt lat="44.4187777" lon="16.109798"><ele>374.2</ele><time>2026-04-27T14:02:37.386Z</time></trkpt><trkpt lat="44.4188041" lon="16.1099119"><ele>373.79999999999995</ele><time>2026-04-27T14:02:39.379Z</time></trkpt><trkpt lat="44.4188382" lon="16.1100585"><ele>373.4</ele><time>2026-04-27T14:02:41.386Z</time></trkpt><trkpt lat="44.4188549" lon="16.1101894"><ele>373.0</ele><time>2026-04-27T14:02:43.384Z</time></trkpt><trkpt lat="44.4188642" lon="16.1103012"><ele>374.16666666666663</ele><time>2026-04-27T14:02:45.384Z</time></trkpt><trkpt lat="44.4188564" lon="16.110418"><ele>375.3333333333333</ele><time>2026-04-27T14:02:48.386Z</time></trkpt><trkpt lat="44.4187877" lon="16.1104437"><ele>376.5</ele><time>2026-04-27T14:02:51.387Z</time></trkpt><trkpt lat="44.4188556" lon="16.1103813"><ele>377.6666666666667</ele><time>2026-04-27T14:03:21.386Z</time></trkpt><trkpt lat="44.418915" lon="16.110325"><ele>378.83333333333337</ele><time>2026-04-27T14:03:23.387Z</time></trkpt><trkpt lat="44.4189016" lon="16.110217"><ele>380.0</ele><time>2026-04-27T14:03:25.386Z</time></trkpt><trkpt lat="44.4188659" lon="16.1100646"><ele>380.5</ele><time>2026-04-27T14:03:27.382Z</time></trkpt><trkpt lat="44.4188307" lon="16.1099094"><ele>381.0</ele><time>2026-04-27T14:03:29.38Z</time></trkpt><trkpt lat="44.418807" lon="16.1098193"><ele>381.5</ele><time>2026-04-27T14:03:30.381Z</time></trkpt><trkpt lat="44.4187839" lon="16.1097346"><ele>382.0</ele><time>2026-04-27T14:03:31.383Z</time></trkpt><trkpt lat="44.4187554" lon="16.1096183"><ele>382.5</ele><time>2026-04-27T14:03:33.383Z</time></trkpt><trkpt lat="44.4186937" lon="16.109551"><ele>383.0</ele><time>2026-04-27T14:03:35.378Z</time></trkpt><trkpt lat="44.4185761" lon="16.109545"><ele>381.33333333333337</ele><time>2026-04-27T14:03:37.382Z</time></trkpt><trkpt lat="44.4185031" lon="16.10956"><ele>379.6666666666667</ele><time>2026-04-27T14:03:38.387Z</time></trkpt><trkpt lat="44.4184296" lon="16.1095864"><ele>378.0</ele><time>2026-04-27T14:03:39.387Z</time></trkpt><trkpt lat="44.4183542" lon="16.1096128"><ele>376.3333333333333</ele><time>2026-04-27T14:03:40.386Z</time></trkpt><trkpt lat="44.4182782" lon="16.1096332"><ele>374.66666666666663</ele><time>2026-04-27T14:03:41.384Z</time></trkpt><trkpt lat="44.418196" lon="16.1096565"><ele>373.0</ele><time>2026-04-27T14:03:42.386Z</time></trkpt><trkpt lat="44.4181152" lon="16.1096873"><ele>373.0</ele><time>2026-04-27T14:03:43.385Z</time></trkpt><trkpt lat="44.4180265" lon="16.1097212"><ele>373.0</ele><time>2026-04-27T14:03:44.382Z</time></trkpt><trkpt lat="44.4179416" lon="16.1097742"><ele>373.0</ele><time>2026-04-27T14:03:45.383Z</time></trkpt><trkpt lat="44.417867" lon="16.1098459"><ele>373.0</ele><time>2026-04-27T14:03:46.387Z</time></trkpt><trkpt lat="44.4178069" lon="16.1099333"><ele>373.0</ele><time>2026-04-27T14:03:47.385Z</time></trkpt><trkpt lat="44.4177523" lon="16.11004"><ele>373.2</ele><time>2026-04-27T14:03:48.384Z</time></trkpt><trkpt lat="44.4176997" lon="16.1101604"><ele>373.4</ele><time>2026-04-27T14:03:49.384Z</time></trkpt><trkpt lat="44.4176478" lon="16.1102916"><ele>373.59999999999997</ele><time>2026-04-27T14:03:50.386Z</time></trkpt><trkpt lat="44.4175846" lon="16.1104217"><ele>373.79999999999995</ele><time>2026-04-27T14:03:51.386Z</time></trkpt><trkpt lat="44.4175041" lon="16.1105614"><ele>374.0</ele><time>2026-04-27T14:03:52.382Z</time></trkpt><trkpt lat="44.4174299" lon="16.110679"><ele>373.5</ele><time>2026-04-27T14:03:53.386Z</time></trkpt><trkpt lat="44.4173438" lon="16.1107781"><ele>373.0</ele><time>2026-04-27T14:03:54.384Z</time></trkpt><trkpt lat="44.4172461" lon="16.1108592"><ele>372.5</ele><time>2026-04-27T14:03:55.384Z</time></trkpt><trkpt lat="44.4171387" lon="16.1109259"><ele>372.0</ele><time>2026-04-27T14:03:56.386Z</time></trkpt><trkpt lat="44.4170245" lon="16.1109758"><ele>372.0</ele><time>2026-04-27T14:03:57.384Z</time></trkpt><trkpt lat="44.4169001" lon="16.111007"><ele>372.0</ele><time>2026-04-27T14:03:58.384Z</time></trkpt><trkpt lat="44.4167761" lon="16.1110165"><ele>372.0</ele><time>2026-04-27T14:03:59.379Z</time></trkpt><trkpt lat="44.4166702" lon="16.1110239"><ele>372.0</ele><time>2026-04-27T14:04:00.383Z</time></trkpt><trkpt lat="44.4165771" lon="16.1110387"><ele>372.0</ele><time>2026-04-27T14:04:01.379Z</time></trkpt><trkpt lat="44.4164759" lon="16.1110622"><ele>372.0</ele><time>2026-04-27T14:04:02.383Z</time></trkpt><trkpt lat="44.4163747" lon="16.1110919"><ele>372.0</ele><time>2026-04-27T14:04:03.384Z</time></trkpt><trkpt lat="44.4162809" lon="16.1111363"><ele>372.0</ele><time>2026-04-27T14:04:04.387Z</time></trkpt><trkpt lat="44.4161809" lon="16.1111899"><ele>372.0</ele><time>2026-04-27T14:04:05.383Z</time></trkpt><trkpt lat="44.4160793" lon="16.111248"><ele>371.5</ele><time>2026-04-27T14:04:06.386Z</time></trkpt><trkpt lat="44.4159632" lon="16.1113063"><ele>371.0</ele><time>2026-04-27T14:04:07.381Z</time></trkpt><trkpt lat="44.4158366" lon="16.1113677"><ele>370.5</ele><time>2026-04-27T14:04:08.384Z</time></trkpt><trkpt lat="44.4157134" lon="16.1114338"><ele>370.0</ele><time>2026-04-27T14:04:09.383Z</time></trkpt><trkpt lat="44.4155894" lon="16.1115169"><ele>369.75</ele><time>2026-04-27T14:04:10.386Z</time></trkpt><trkpt lat="44.4154711" lon="16.1116143"><ele>369.5</ele><time>2026-04-27T14:04:11.384Z</time></trkpt><trkpt lat="44.4153676" lon="16.1117216"><ele>369.25</ele><time>2026-04-27T14:04:12.381Z</time></trkpt><trkpt lat="44.4152639" lon="16.1118265"><ele>369.0</ele><time>2026-04-27T14:04:13.381Z</time></trkpt><trkpt lat="44.4151763" lon="16.1119234"><ele>369.0</ele><time>2026-04-27T14:04:14.382Z</time></trkpt><trkpt lat="44.4150931" lon="16.1120301"><ele>369.0</ele><time>2026-04-27T14:04:15.382Z</time></trkpt><trkpt lat="44.4150267" lon="16.11216"><ele>369.0</ele><time>2026-04-27T14:04:16.382Z</time></trkpt><trkpt lat="44.4149761" lon="16.1123094"><ele>369.0</ele><time>2026-04-27T14:04:17.379Z</time></trkpt><trkpt lat="44.4149262" lon="16.1124626"><ele>368.75</ele><time>2026-04-27T14:04:18.381Z</time></trkpt><trkpt lat="44.4148595" lon="16.1126139"><ele>368.5</ele><time>2026-04-27T14:04:19.383Z</time></trkpt><trkpt lat="44.4147746" lon="16.1127498"><ele>368.25</ele><time>2026-04-27T14:04:20.386Z</time></trkpt><trkpt lat="44.414682" lon="16.112887"><ele>368.0</ele><time>2026-04-27T14:04:21.38Z</time></trkpt><trkpt lat="44.4145958" lon="16.1130311"><ele>368.0</ele><time>2026-04-27T14:04:22.383Z</time></trkpt><trkpt lat="44.4145196" lon="16.1131688"><ele>368.0</ele><time>2026-04-27T14:04:23.386Z</time></trkpt><trkpt lat="44.4144477" lon="16.1132966"><ele>368.0</ele><time>2026-04-27T14:04:24.382Z</time></trkpt><trkpt lat="44.4143704" lon="16.113423"><ele>368.0</ele><time>2026-04-27T14:04:25.382Z</time></trkpt><trkpt lat="44.414289" lon="16.1135577"><ele>368.25</ele><time>2026-04-27T14:04:26.38Z</time></trkpt><trkpt lat="44.4142109" lon="16.1137044"><ele>368.5</ele><time>2026-04-27T14:04:27.383Z</time></trkpt><trkpt lat="44.4141316" lon="16.113852"><ele>368.75</ele><time>2026-04-27T14:04:28.386Z</time></trkpt><trkpt lat="44.4140552" lon="16.1140044"><ele>369.0</ele><time>2026-04-27T14:04:29.386Z</time></trkpt><trkpt lat="44.413985" lon="16.1141534"><ele>369.0</ele><time>2026-04-27T14:04:30.382Z</time></trkpt><trkpt lat="44.4139248" lon="16.1142928"><ele>369.0</ele><time>2026-04-27T14:04:31.383Z</time></trkpt><trkpt lat="44.4138748" lon="16.1144189"><ele>369.0</ele><time>2026-04-27T14:04:32.38Z</time></trkpt><trkpt lat="44.4138396" lon="16.1145243"><ele>369.0</ele><time>2026-04-27T14:04:33.382Z</time></trkpt><trkpt lat="44.413815" lon="16.1146195"><ele>369.0</ele><time>2026-04-27T14:04:34.383Z</time></trkpt><trkpt lat="44.4137893" lon="16.1147224"><ele>369.0</ele><time>2026-04-27T14:04:35.38Z</time></trkpt><trkpt lat="44.4137663" lon="16.1148257"><ele>369.0</ele><time>2026-04-27T14:04:36.38Z</time></trkpt><trkpt lat="44.4137483" lon="16.1149407"><ele>369.0</ele><time>2026-04-27T14:04:37.381Z</time></trkpt><trkpt lat="44.4137394" lon="16.1150779"><ele>369.0</ele><time>2026-04-27T14:04:38.383Z</time></trkpt><trkpt lat="44.4137395" lon="16.115226"><ele>369.0</ele><time>2026-04-27T14:04:39.384Z</time></trkpt><trkpt lat="44.4137447" lon="16.1153649"><ele>369.1666666666667</ele><time>2026-04-27T14:04:40.384Z</time></trkpt><trkpt lat="44.4137478" lon="16.1155097"><ele>369.3333333333333</ele><time>2026-04-27T14:04:41.386Z</time></trkpt><trkpt lat="44.4137521" lon="16.1156463"><ele>369.5</ele><time>2026-04-27T14:04:42.383Z</time></trkpt><trkpt lat="44.4137515" lon="16.1157719"><ele>369.66666666666663</ele><time>2026-04-27T14:04:43.385Z</time></trkpt><trkpt lat="44.4137587" lon="16.1158842"><ele>369.8333333333333</ele><time>2026-04-27T14:04:44.384Z</time></trkpt><trkpt lat="44.4137535" lon="16.1159837"><ele>370.0</ele><time>2026-04-27T14:04:45.386Z</time></trkpt><trkpt lat="44.413774" lon="16.116088"><ele>370.0</ele><time>2026-04-27T14:04:46.384Z</time></trkpt><trkpt lat="44.4137968" lon="16.1161949"><ele>370.0</ele><time>2026-04-27T14:04:47.382Z</time></trkpt><trkpt lat="44.4138352" lon="16.1163236"><ele>370.0</ele><time>2026-04-27T14:04:48.383Z</time></trkpt><trkpt lat="44.4138842" lon="16.1164403"><ele>370.0</ele><time>2026-04-27T14:04:49.386Z</time></trkpt><trkpt lat="44.4139322" lon="16.1165693"><ele>370.0</ele><time>2026-04-27T14:04:50.383Z</time></trkpt><trkpt lat="44.4139752" lon="16.1167058"><ele>371.6</ele><time>2026-04-27T14:04:51.379Z</time></trkpt><trkpt lat="44.4140177" lon="16.1168206"><ele>373.2</ele><time>2026-04-27T14:04:52.379Z</time></trkpt><trkpt lat="44.4140412" lon="16.116949"><ele>374.79999999999995</ele><time>2026-04-27T14:04:53.377Z</time></trkpt><trkpt lat="44.4140575" lon="16.1170978"><ele>376.4</ele><time>2026-04-27T14:04:54.385Z</time></trkpt><trkpt lat="44.4140749" lon="16.1172478"><ele>378.0</ele><time>2026-04-27T14:04:55.382Z</time></trkpt><trkpt lat="44.4140855" lon="16.1174048"><ele>378.25</ele><time>2026-04-27T14:04:56.383Z</time></trkpt><trkpt lat="44.4141101" lon="16.1175652"><ele>378.5</ele><time>2026-04-27T14:04:57.387Z</time></trkpt><trkpt lat="44.4141409" lon="16.1177323"><ele>378.75</ele><time>2026-04-27T14:04:58.379Z</time></trkpt><trkpt lat="44.4141534" lon="16.1179031"><ele>379.0</ele><time>2026-04-27T14:04:59.383Z</time></trkpt><trkpt lat="44.4141619" lon="16.1180751"><ele>379.79999999999995</ele><time>2026-04-27T14:05:00.381Z</time></trkpt><trkpt lat="44.4141741" lon="16.1182437"><ele>380.59999999999997</ele><time>2026-04-27T14:05:01.382Z</time></trkpt><trkpt lat="44.414159" lon="16.1183835"><ele>381.4</ele><time>2026-04-27T14:05:02.385Z</time></trkpt><trkpt lat="44.4141384" lon="16.1185185"><ele>382.2</ele><time>2026-04-27T14:05:03.386Z</time></trkpt><trkpt lat="44.4141286" lon="16.1186556"><ele>383.0</ele><time>2026-04-27T14:05:04.375Z</time></trkpt><trkpt lat="44.4141257" lon="16.1187885"><ele>383.0</ele><time>2026-04-27T14:05:05.379Z</time></trkpt><trkpt lat="44.4141345" lon="16.1189152"><ele>383.0</ele><time>2026-04-27T14:05:06.381Z</time></trkpt><trkpt lat="44.4141588" lon="16.1190443"><ele>383.0</ele><time>2026-04-27T14:05:07.382Z</time></trkpt><trkpt lat="44.4142039" lon="16.1191735"><ele>383.0</ele><time>2026-04-27T14:05:08.384Z</time></trkpt><trkpt lat="44.4142519" lon="16.1192892"><ele>383.0</ele><time>2026-04-27T14:05:09.387Z</time></trkpt><trkpt lat="44.4143175" lon="16.1194256"><ele>382.79999999999995</ele><time>2026-04-27T14:05:10.386Z</time></trkpt><trkpt lat="44.4143959" lon="16.1195495"><ele>382.6</ele><time>2026-04-27T14:05:11.383Z</time></trkpt><trkpt lat="44.4144655" lon="16.1196488"><ele>382.4</ele><time>2026-04-27T14:05:12.386Z</time></trkpt><trkpt lat="44.4145368" lon="16.1197133"><ele>382.20000000000005</ele><time>2026-04-27T14:05:13.383Z</time></trkpt><trkpt lat="44.4146239" lon="16.1197623"><ele>382.0</ele><time>2026-04-27T14:05:14.383Z</time></trkpt><trkpt lat="44.4147212" lon="16.1198048"><ele>383.0</ele><time>2026-04-27T14:05:15.38Z</time></trkpt><trkpt lat="44.4148217" lon="16.1198604"><ele>384.0</ele><time>2026-04-27T14:05:16.383Z</time></trkpt><trkpt lat="44.4149139" lon="16.1199336"><ele>385.0</ele><time>2026-04-27T14:05:17.386Z</time></trkpt><trkpt lat="44.4150043" lon="16.120012"><ele>386.0</ele><time>2026-04-27T14:05:18.379Z</time></trkpt><trkpt lat="44.4150885" lon="16.1200616"><ele>387.0</ele><time>2026-04-27T14:05:19.387Z</time></trkpt><trkpt lat="44.415173" lon="16.120115"><ele>387.0</ele><time>2026-04-27T14:05:20.374Z</time></trkpt><trkpt lat="44.4152542" lon="16.1201504"><ele>387.0</ele><time>2026-04-27T14:05:21.38Z</time></trkpt><trkpt lat="44.415333" lon="16.1202025"><ele>387.0</ele><time>2026-04-27T14:05:22.38Z</time></trkpt><trkpt lat="44.4154057" lon="16.1202658"><ele>387.0</ele><time>2026-04-27T14:05:23.38Z</time></trkpt><trkpt lat="44.4154904" lon="16.1203514"><ele>387.0</ele><time>2026-04-27T14:05:24.381Z</time></trkpt><trkpt lat="44.4155759" lon="16.1204623"><ele>387.40000000000003</ele><time>2026-04-27T14:05:25.386Z</time></trkpt><trkpt lat="44.4156508" lon="16.1205673"><ele>387.8</ele><time>2026-04-27T14:05:26.379Z</time></trkpt><trkpt lat="44.4157233" lon="16.1206621"><ele>388.2</ele><time>2026-04-27T14:05:27.382Z</time></trkpt><trkpt lat="44.4158056" lon="16.1207739"><ele>388.6</ele><time>2026-04-27T14:05:28.375Z</time></trkpt><trkpt lat="44.4158904" lon="16.1208634"><ele>389.0</ele><time>2026-04-27T14:05:29.383Z</time></trkpt><trkpt lat="44.4159555" lon="16.1209625"><ele>389.0</ele><time>2026-04-27T14:05:30.386Z</time></trkpt><trkpt lat="44.4160212" lon="16.1210682"><ele>389.0</ele><time>2026-04-27T14:05:31.38Z</time></trkpt><trkpt lat="44.416064" lon="16.1211917"><ele>389.0</ele><time>2026-04-27T14:05:32.383Z</time></trkpt><trkpt lat="44.4161256" lon="16.1212986"><ele>389.0</ele><time>2026-04-27T14:05:33.387Z</time></trkpt><trkpt lat="44.4161973" lon="16.1214056"><ele>389.0</ele><time>2026-04-27T14:05:34.386Z</time></trkpt><trkpt lat="44.4162786" lon="16.1215025"><ele>388.2</ele><time>2026-04-27T14:05:35.383Z</time></trkpt><trkpt lat="44.4163601" lon="16.1215662"><ele>387.4</ele><time>2026-04-27T14:05:36.383Z</time></trkpt><trkpt lat="44.4164746" lon="16.1216053"><ele>386.6</ele><time>2026-04-27T14:05:37.382Z</time></trkpt><trkpt lat="44.4165886" lon="16.1216344"><ele>385.8</ele><time>2026-04-27T14:05:38.383Z</time></trkpt><trkpt lat="44.4167065" lon="16.1216558"><ele>385.0</ele><time>2026-04-27T14:05:39.385Z</time></trkpt><trkpt lat="44.4168247" lon="16.1216966"><ele>385.0</ele><time>2026-04-27T14:05:40.381Z</time></trkpt><trkpt lat="44.4169281" lon="16.1217062"><ele>385.0</ele><time>2026-04-27T14:05:41.386Z</time></trkpt><trkpt lat="44.4170118" lon="16.1217075"><ele>385.0</ele><time>2026-04-27T14:05:42.377Z</time></trkpt><trkpt lat="44.4171026" lon="16.1216995"><ele>385.0</ele><time>2026-04-27T14:05:43.384Z</time></trkpt><trkpt lat="44.4171782" lon="16.1216784"><ele>385.0</ele><time>2026-04-27T14:05:44.384Z</time></trkpt><trkpt lat="44.4172976" lon="16.1216224"><ele>389.75</ele><time>2026-04-27T14:05:45.384Z</time></trkpt><trkpt lat="44.417405" lon="16.1215592"><ele>394.5</ele><time>2026-04-27T14:05:46.384Z</time></trkpt><trkpt lat="44.4175232" lon="16.1215031"><ele>399.25</ele><time>2026-04-27T14:05:47.384Z</time></trkpt><trkpt lat="44.4176318" lon="16.1214805"><ele>404.0</ele><time>2026-04-27T14:05:48.381Z</time></trkpt><trkpt lat="44.4177385" lon="16.1214809"><ele>403.99999999999994</ele><time>2026-04-27T14:05:49.387Z</time></trkpt><trkpt lat="44.4178376" lon="16.1214892"><ele>404.0</ele><time>2026-04-27T14:05:50.38Z</time></trkpt><trkpt lat="44.4179211" lon="16.121495"><ele>404.0</ele><time>2026-04-27T14:05:51.379Z</time></trkpt><trkpt lat="44.4179926" lon="16.1215367"><ele>404.0</ele><time>2026-04-27T14:05:52.383Z</time></trkpt><trkpt lat="44.4180535" lon="16.1216057"><ele>403.99999999999994</ele><time>2026-04-27T14:05:53.38Z</time></trkpt><trkpt lat="44.4181025" lon="16.1217183"><ele>404.0</ele><time>2026-04-27T14:05:54.38Z</time></trkpt><trkpt lat="44.4181526" lon="16.121817"><ele>401.2</ele><time>2026-04-27T14:05:55.375Z</time></trkpt><trkpt lat="44.4182256" lon="16.1219276"><ele>398.4</ele><time>2026-04-27T14:05:56.383Z</time></trkpt><trkpt lat="44.4183113" lon="16.1220207"><ele>395.6</ele><time>2026-04-27T14:05:57.382Z</time></trkpt><trkpt lat="44.4183987" lon="16.122102"><ele>392.8</ele><time>2026-04-27T14:05:58.383Z</time></trkpt><trkpt lat="44.4184777" lon="16.1221737"><ele>390.0</ele><time>2026-04-27T14:05:59.386Z</time></trkpt><trkpt lat="44.4185547" lon="16.1222378"><ele>390.0</ele><time>2026-04-27T14:06:00.385Z</time></trkpt><trkpt lat="44.4186174" lon="16.1223281"><ele>390.0</ele><time>2026-04-27T14:06:01.385Z</time></trkpt><trkpt lat="44.4186624" lon="16.1224478"><ele>390.0</ele><time>2026-04-27T14:06:02.382Z</time></trkpt><trkpt lat="44.4186325" lon="16.1225933"><ele>390.0</ele><time>2026-04-27T14:06:03.384Z</time></trkpt><trkpt lat="44.4186415" lon="16.1227386"><ele>390.0</ele><time>2026-04-27T14:06:04.381Z</time></trkpt><trkpt lat="44.418648" lon="16.1229088"><ele>389.25</ele><time>2026-04-27T14:06:05.386Z</time></trkpt><trkpt lat="44.4186281" lon="16.1230817"><ele>388.5</ele><time>2026-04-27T14:06:06.381Z</time></trkpt><trkpt lat="44.4186162" lon="16.1232342"><ele>387.75</ele><time>2026-04-27T14:06:07.381Z</time></trkpt><trkpt lat="44.4185911" lon="16.1234096"><ele>387.0</ele><time>2026-04-27T14:06:08.386Z</time></trkpt><trkpt lat="44.4185484" lon="16.1235713"><ele>386.5</ele><time>2026-04-27T14:06:09.378Z</time></trkpt><trkpt lat="44.4185249" lon="16.1237438"><ele>386.0</ele><time>2026-04-27T14:06:10.38Z</time></trkpt><trkpt lat="44.4184885" lon="16.1239239"><ele>385.5</ele><time>2026-04-27T14:06:11.382Z</time></trkpt><trkpt lat="44.4184701" lon="16.1241093"><ele>385.0</ele><time>2026-04-27T14:06:12.384Z</time></trkpt><trkpt lat="44.4184481" lon="16.1242933"><ele>384.25</ele><time>2026-04-27T14:06:13.38Z</time></trkpt><trkpt lat="44.4184423" lon="16.1244935"><ele>383.5</ele><time>2026-04-27T14:06:14.382Z</time></trkpt><trkpt lat="44.4184277" lon="16.1246929"><ele>382.75</ele><time>2026-04-27T14:06:15.387Z</time></trkpt><trkpt lat="44.4184108" lon="16.1248868"><ele>382.0</ele><time>2026-04-27T14:06:16.387Z</time></trkpt><trkpt lat="44.4184049" lon="16.1250825"><ele>381.75</ele><time>2026-04-27T14:06:17.385Z</time></trkpt><trkpt lat="44.4183913" lon="16.1252589"><ele>381.5</ele><time>2026-04-27T14:06:18.385Z</time></trkpt><trkpt lat="44.4183829" lon="16.1254471"><ele>381.25</ele><time>2026-04-27T14:06:19.382Z</time></trkpt><trkpt lat="44.4183824" lon="16.1256307"><ele>381.0</ele><time>2026-04-27T14:06:20.381Z</time></trkpt><trkpt lat="44.4183844" lon="16.1257933"><ele>380.0</ele><time>2026-04-27T14:06:21.378Z</time></trkpt><trkpt lat="44.418396" lon="16.1259276"><ele>379.0</ele><time>2026-04-27T14:06:22.371Z</time></trkpt><trkpt lat="44.4183959" lon="16.1260461"><ele>378.0</ele><time>2026-04-27T14:06:23.385Z</time></trkpt><trkpt lat="44.4183787" lon="16.1261718"><ele>377.0</ele><time>2026-04-27T14:06:24.382Z</time></trkpt><trkpt lat="44.4183529" lon="16.1263139"><ele>376.0</ele><time>2026-04-27T14:06:25.38Z</time></trkpt><trkpt lat="44.4183343" lon="16.1264709"><ele>376.5</ele><time>2026-04-27T14:06:26.371Z</time></trkpt><trkpt lat="44.4183143" lon="16.1266386"><ele>377.0</ele><time>2026-04-27T14:06:27.372Z</time></trkpt><trkpt lat="44.4183106" lon="16.1268166"><ele>377.5</ele><time>2026-04-27T14:06:28.381Z</time></trkpt><trkpt lat="44.418293" lon="16.1270071"><ele>378.0</ele><time>2026-04-27T14:06:29.375Z</time></trkpt><trkpt lat="44.4182723" lon="16.1271934"><ele>378.0</ele><time>2026-04-27T14:06:30.381Z</time></trkpt><trkpt lat="44.4182539" lon="16.1273699"><ele>378.0</ele><time>2026-04-27T14:06:31.386Z</time></trkpt><trkpt lat="44.4182361" lon="16.1275377"><ele>378.0</ele><time>2026-04-27T14:06:32.38Z</time></trkpt><trkpt lat="44.4182006" lon="16.1276999"><ele>378.0</ele><time>2026-04-27T14:06:33.385Z</time></trkpt><trkpt lat="44.4181682" lon="16.1278616"><ele>379.5</ele><time>2026-04-27T14:06:34.384Z</time></trkpt><trkpt lat="44.4181452" lon="16.128022"><ele>381.0</ele><time>2026-04-27T14:06:35.378Z</time></trkpt><trkpt lat="44.4181474" lon="16.1281869"><ele>382.5</ele><time>2026-04-27T14:06:36.376Z</time></trkpt><trkpt lat="44.4181417" lon="16.1283603"><ele>384.0</ele><time>2026-04-27T14:06:37.382Z</time></trkpt><trkpt lat="44.4181526" lon="16.1285493"><ele>384.33333333333337</ele><time>2026-04-27T14:06:38.379Z</time></trkpt><trkpt lat="44.4181759" lon="16.1287475"><ele>384.6666666666667</ele><time>2026-04-27T14:06:39.383Z</time></trkpt><trkpt lat="44.4182097" lon="16.1289459"><ele>385.0</ele><time>2026-04-27T14:06:40.381Z</time></trkpt><trkpt lat="44.4182691" lon="16.1291574"><ele>384.33333333333337</ele><time>2026-04-27T14:06:41.377Z</time></trkpt><trkpt lat="44.4183316" lon="16.1293585"><ele>383.6666666666667</ele><time>2026-04-27T14:06:42.382Z</time></trkpt><trkpt lat="44.4183927" lon="16.1295526"><ele>383.0</ele><time>2026-04-27T14:06:43.386Z</time></trkpt><trkpt lat="44.4184542" lon="16.1297522"><ele>381.5</ele><time>2026-04-27T14:06:44.384Z</time></trkpt><trkpt lat="44.4185097" lon="16.1299268"><ele>380.0</ele><time>2026-04-27T14:06:45.382Z</time></trkpt><trkpt lat="44.4185732" lon="16.1300832"><ele>378.5</ele><time>2026-04-27T14:06:46.383Z</time></trkpt><trkpt lat="44.418647" lon="16.1302097"><ele>377.0</ele><time>2026-04-27T14:06:47.386Z</time></trkpt><trkpt lat="44.41873" lon="16.1303323"><ele>376.75</ele><time>2026-04-27T14:06:48.385Z</time></trkpt><trkpt lat="44.4188334" lon="16.1304329"><ele>376.5</ele><time>2026-04-27T14:06:49.381Z</time></trkpt><trkpt lat="44.4189534" lon="16.1305373"><ele>376.25</ele><time>2026-04-27T14:06:50.378Z</time></trkpt><trkpt lat="44.4190797" lon="16.1306415"><ele>376.0</ele><time>2026-04-27T14:06:51.385Z</time></trkpt><trkpt lat="44.4192058" lon="16.1307452"><ele>376.0</ele><time>2026-04-27T14:06:52.382Z</time></trkpt><trkpt lat="44.4193036" lon="16.1308308"><ele>376.0</ele><time>2026-04-27T14:06:53.38Z</time></trkpt><trkpt lat="44.4193745" lon="16.1309133"><ele>376.0</ele><time>2026-04-27T14:06:54.383Z</time></trkpt><trkpt lat="44.4194063" lon="16.1310949"><ele>376.0</ele><time>2026-04-27T14:06:56.386Z</time></trkpt><trkpt lat="44.4193858" lon="16.1312195"><ele>376.0</ele><time>2026-04-27T14:06:57.386Z</time></trkpt><trkpt lat="44.4193835" lon="16.1313831"><ele>374.5</ele><time>2026-04-27T14:06:58.38Z</time></trkpt><trkpt lat="44.4194048" lon="16.1315614"><ele>373.0</ele><time>2026-04-27T14:06:59.38Z</time></trkpt><trkpt lat="44.4194432" lon="16.1317557"><ele>371.5</ele><time>2026-04-27T14:07:00.384Z</time></trkpt><trkpt lat="44.4194593" lon="16.1319541"><ele>370.0</ele><time>2026-04-27T14:07:01.38Z</time></trkpt><trkpt lat="44.4194732" lon="16.1321497"><ele>370.0</ele><time>2026-04-27T14:07:02.386Z</time></trkpt><trkpt lat="44.4194624" lon="16.1323523"><ele>370.0</ele><time>2026-04-27T14:07:03.384Z</time></trkpt><trkpt lat="44.4194103" lon="16.1325171"><ele>370.0</ele><time>2026-04-27T14:07:04.386Z</time></trkpt><trkpt lat="44.4193668" lon="16.1326749"><ele>370.0</ele><time>2026-04-27T14:07:05.381Z</time></trkpt><trkpt lat="44.4193488" lon="16.1328143"><ele>370.0</ele><time>2026-04-27T14:07:06.386Z</time></trkpt><trkpt lat="44.4193452" lon="16.1329623"><ele>370.0</ele><time>2026-04-27T14:07:07.384Z</time></trkpt><trkpt lat="44.4193735" lon="16.1331187"><ele>370.0</ele><time>2026-04-27T14:07:08.382Z</time></trkpt><trkpt lat="44.4193665" lon="16.1332815"><ele>370.0</ele><time>2026-04-27T14:07:09.378Z</time></trkpt><trkpt lat="44.4193529" lon="16.1334618"><ele>370.0</ele><time>2026-04-27T14:07:10.38Z</time></trkpt><trkpt lat="44.4193375" lon="16.1336507"><ele>370.0</ele><time>2026-04-27T14:07:11.382Z</time></trkpt><trkpt lat="44.4193211" lon="16.1338329"><ele>370.0</ele><time>2026-04-27T14:07:12.382Z</time></trkpt><trkpt lat="44.4193064" lon="16.1340091"><ele>370.0</ele><time>2026-04-27T14:07:13.381Z</time></trkpt><trkpt lat="44.4192772" lon="16.1341429"><ele>370.2</ele><time>2026-04-27T14:07:14.379Z</time></trkpt><trkpt lat="44.419272" lon="16.1342788"><ele>370.4</ele><time>2026-04-27T14:07:15.382Z</time></trkpt><trkpt lat="44.4192711" lon="16.1344035"><ele>370.6</ele><time>2026-04-27T14:07:16.386Z</time></trkpt><trkpt lat="44.4192823" lon="16.1345405"><ele>370.8</ele><time>2026-04-27T14:07:17.379Z</time></trkpt><trkpt lat="44.4192884" lon="16.1346691"><ele>371.0</ele><time>2026-04-27T14:07:18.386Z</time></trkpt><trkpt lat="44.4192868" lon="16.1347791"><ele>371.0</ele><time>2026-04-27T14:07:19.382Z</time></trkpt><trkpt lat="44.4192738" lon="16.1348746"><ele>371.0</ele><time>2026-04-27T14:07:20.386Z</time></trkpt><trkpt lat="44.419247" lon="16.1349564"><ele>371.0</ele><time>2026-04-27T14:07:21.382Z</time></trkpt><trkpt lat="44.4191826" lon="16.1350246"><ele>371.0</ele><time>2026-04-27T14:07:23.383Z</time></trkpt><trkpt lat="44.4191114" lon="16.1350186"><ele>371.0</ele><time>2026-04-27T14:07:25.382Z</time></trkpt><trkpt lat="44.4190031" lon="16.1349695"><ele>371.0</ele><time>2026-04-27T14:07:27.385Z</time></trkpt><trkpt lat="44.4189247" lon="16.1349378"><ele>371.0</ele><time>2026-04-27T14:07:28.382Z</time></trkpt><trkpt lat="44.4188318" lon="16.1348844"><ele>371.0</ele><time>2026-04-27T14:07:30.384Z</time></trkpt><trkpt lat="44.4187856" lon="16.1347934"><ele>371.0</ele><time>2026-04-27T14:07:32.384Z</time></trkpt><trkpt lat="44.4187771" lon="16.1346935"><ele>371.0</ele><time>2026-04-27T14:07:45.387Z</time></trkpt><trkpt lat="44.4187712" lon="16.1345524"><ele>371.0</ele><time>2026-04-27T14:07:47.386Z</time></trkpt><trkpt lat="44.4187598" lon="16.1344598"><ele>371.0</ele><time>2026-04-27T14:07:48.38Z</time></trkpt><trkpt lat="44.4187384" lon="16.134343"><ele>370.83333333333337</ele><time>2026-04-27T14:07:49.384Z</time></trkpt><trkpt lat="44.4187172" lon="16.1342392"><ele>370.6666666666667</ele><time>2026-04-27T14:07:50.379Z</time></trkpt><trkpt lat="44.4186859" lon="16.1341301"><ele>370.5</ele><time>2026-04-27T14:07:51.376Z</time></trkpt><trkpt lat="44.4186529" lon="16.1340238"><ele>370.3333333333333</ele><time>2026-04-27T14:07:52.386Z</time></trkpt><trkpt lat="44.4186287" lon="16.1339156"><ele>370.16666666666663</ele><time>2026-04-27T14:07:53.381Z</time></trkpt><trkpt lat="44.4185423" lon="16.1338012"><ele>370.0</ele><time>2026-04-27T14:07:54.386Z</time></trkpt><trkpt lat="44.4184758" lon="16.1336885"><ele>370.0</ele><time>2026-04-27T14:07:55.381Z</time></trkpt><trkpt lat="44.4184168" lon="16.1335708"><ele>370.0</ele><time>2026-04-27T14:07:56.382Z</time></trkpt><trkpt lat="44.4183071" lon="16.1334784"><ele>370.0</ele><time>2026-04-27T14:07:57.383Z</time></trkpt><trkpt lat="44.4182205" lon="16.1333907"><ele>370.0</ele><time>2026-04-27T14:07:58.382Z</time></trkpt><trkpt lat="44.4181485" lon="16.1332787"><ele>370.0</ele><time>2026-04-27T14:07:59.367Z</time></trkpt><trkpt lat="44.4181011" lon="16.1331622"><ele>369.25</ele><time>2026-04-27T14:08:00.379Z</time></trkpt><trkpt lat="44.4180309" lon="16.1330378"><ele>368.5</ele><time>2026-04-27T14:08:01.38Z</time></trkpt><trkpt lat="44.4179467" lon="16.1329204"><ele>367.75</ele><time>2026-04-27T14:08:02.381Z</time></trkpt><trkpt lat="44.4178739" lon="16.1327735"><ele>367.0</ele><time>2026-04-27T14:08:03.381Z</time></trkpt><trkpt lat="44.4177762" lon="16.1326488"><ele>367.0</ele><time>2026-04-27T14:08:04.384Z</time></trkpt><trkpt lat="44.4176682" lon="16.1325278"><ele>367.0</ele><time>2026-04-27T14:08:05.387Z</time></trkpt><trkpt lat="44.4175644" lon="16.1324077"><ele>367.0</ele><time>2026-04-27T14:08:06.383Z</time></trkpt><trkpt lat="44.4174632" lon="16.132281"><ele>367.0</ele><time>2026-04-27T14:08:07.383Z</time></trkpt><trkpt lat="44.4173656" lon="16.1321582"><ele>367.0</ele><time>2026-04-27T14:08:08.38Z</time></trkpt><trkpt lat="44.417264" lon="16.1320464"><ele>367.0</ele><time>2026-04-27T14:08:09.381Z</time></trkpt><trkpt lat="44.4171649" lon="16.1319331"><ele>367.0</ele><time>2026-04-27T14:08:10.381Z</time></trkpt><trkpt lat="44.4170804" lon="16.1318428"><ele>367.0</ele><time>2026-04-27T14:08:11.38Z</time></trkpt><trkpt lat="44.4170009" lon="16.1317388"><ele>367.5</ele><time>2026-04-27T14:08:12.382Z</time></trkpt><trkpt lat="44.4169594" lon="16.1316619"><ele>368.0</ele><time>2026-04-27T14:08:13.386Z</time></trkpt><trkpt lat="44.4169017" lon="16.131564"><ele>368.5</ele><time>2026-04-27T14:08:14.383Z</time></trkpt><trkpt lat="44.4168568" lon="16.1314926"><ele>369.0</ele><time>2026-04-27T14:08:15.386Z</time></trkpt><trkpt lat="44.4168102" lon="16.1314214"><ele>369.5</ele><time>2026-04-27T14:08:16.378Z</time></trkpt><trkpt lat="44.416755" lon="16.1313494"><ele>370.0</ele><time>2026-04-27T14:08:17.377Z</time></trkpt><trkpt lat="44.4166894" lon="16.1312839"><ele>370.0</ele><time>2026-04-27T14:08:18.386Z</time></trkpt><trkpt lat="44.4166136" lon="16.1311936"><ele>370.0</ele><time>2026-04-27T14:08:19.383Z</time></trkpt><trkpt lat="44.4165139" lon="16.1310938"><ele>370.0</ele><time>2026-04-27T14:08:20.382Z</time></trkpt><trkpt lat="44.4164181" lon="16.1309993"><ele>370.0</ele><time>2026-04-27T14:08:21.382Z</time></trkpt><trkpt lat="44.4163174" lon="16.1309043"><ele>369.25</ele><time>2026-04-27T14:08:22.385Z</time></trkpt><trkpt lat="44.4162162" lon="16.1308298"><ele>368.5</ele><time>2026-04-27T14:08:23.381Z</time></trkpt><trkpt lat="44.4161164" lon="16.1307341"><ele>367.75</ele><time>2026-04-27T14:08:24.384Z</time></trkpt><trkpt lat="44.4160262" lon="16.1306653"><ele>367.0</ele><time>2026-04-27T14:08:25.383Z</time></trkpt><trkpt lat="44.4159213" lon="16.1305872"><ele>367.0</ele><time>2026-04-27T14:08:26.383Z</time></trkpt><trkpt lat="44.4158377" lon="16.1305236"><ele>367.0</ele><time>2026-04-27T14:08:27.385Z</time></trkpt><trkpt lat="44.4157247" lon="16.130469"><ele>367.0</ele><time>2026-04-27T14:08:28.38Z</time></trkpt><trkpt lat="44.4156219" lon="16.1304127"><ele>367.0</ele><time>2026-04-27T14:08:29.378Z</time></trkpt><trkpt lat="44.4155042" lon="16.1303848"><ele>367.0</ele><time>2026-04-27T14:08:30.387Z</time></trkpt><trkpt lat="44.4154005" lon="16.1303496"><ele>369.0</ele><time>2026-04-27T14:08:31.383Z</time></trkpt><trkpt lat="44.415276" lon="16.1303153"><ele>371.0</ele><time>2026-04-27T14:08:32.386Z</time></trkpt><trkpt lat="44.4151706" lon="16.1302916"><ele>373.0</ele><time>2026-04-27T14:08:33.379Z</time></trkpt><trkpt lat="44.4150569" lon="16.1302485"><ele>375.0</ele><time>2026-04-27T14:08:34.375Z</time></trkpt><trkpt lat="44.414956" lon="16.130206"><ele>375.0</ele><time>2026-04-27T14:08:35.375Z</time></trkpt><trkpt lat="44.4148419" lon="16.1301501"><ele>375.0</ele><time>2026-04-27T14:08:36.379Z</time></trkpt><trkpt lat="44.4147451" lon="16.1300774"><ele>375.0</ele><time>2026-04-27T14:08:37.382Z</time></trkpt><trkpt lat="44.4146422" lon="16.1300167"><ele>375.0</ele><time>2026-04-27T14:08:38.371Z</time></trkpt><trkpt lat="44.4145657" lon="16.1299594"><ele>375.0</ele><time>2026-04-27T14:08:39.381Z</time></trkpt><trkpt lat="44.4145107" lon="16.129902"><ele>373.5</ele><time>2026-04-27T14:08:40.385Z</time></trkpt><trkpt lat="44.4144559" lon="16.1297666"><ele>372.0</ele><time>2026-04-27T14:08:42.386Z</time></trkpt><trkpt lat="44.4144571" lon="16.1296663"><ele>370.5</ele><time>2026-04-27T14:08:43.386Z</time></trkpt><trkpt lat="44.4144497" lon="16.1295509"><ele>369.0</ele><time>2026-04-27T14:08:44.38Z</time></trkpt><trkpt lat="44.4144257" lon="16.1294463"><ele>367.5</ele><time>2026-04-27T14:08:45.386Z</time></trkpt><trkpt lat="44.4143735" lon="16.1293675"><ele>366.0</ele><time>2026-04-27T14:08:46.387Z</time></trkpt><trkpt lat="44.4143052" lon="16.1293049"><ele>366.0</ele><time>2026-04-27T14:08:47.386Z</time></trkpt><trkpt lat="44.4142058" lon="16.1292573"><ele>366.0</ele><time>2026-04-27T14:08:48.384Z</time></trkpt><trkpt lat="44.4140916" lon="16.1292194"><ele>366.0</ele><time>2026-04-27T14:08:49.384Z</time></trkpt><trkpt lat="44.4139799" lon="16.1291762"><ele>366.0</ele><time>2026-04-27T14:08:50.386Z</time></trkpt><trkpt lat="44.4138614" lon="16.1291325"><ele>365.75</ele><time>2026-04-27T14:08:51.38Z</time></trkpt><trkpt lat="44.4137479" lon="16.1290791"><ele>365.5</ele><time>2026-04-27T14:08:52.381Z</time></trkpt><trkpt lat="44.4136333" lon="16.1290208"><ele>365.25</ele><time>2026-04-27T14:08:53.387Z</time></trkpt><trkpt lat="44.4135075" lon="16.1289628"><ele>365.0</ele><time>2026-04-27T14:08:54.379Z</time></trkpt><trkpt lat="44.4133802" lon="16.1288957"><ele>365.0</ele><time>2026-04-27T14:08:55.379Z</time></trkpt><trkpt lat="44.4132539" lon="16.1288384"><ele>365.0</ele><time>2026-04-27T14:08:56.387Z</time></trkpt><trkpt lat="44.4131322" lon="16.12878"><ele>365.0</ele><time>2026-04-27T14:08:57.385Z</time></trkpt><trkpt lat="44.4130018" lon="16.1287141"><ele>365.0</ele><time>2026-04-27T14:08:58.385Z</time></trkpt><trkpt lat="44.412872" lon="16.1286478"><ele>365.25</ele><time>2026-04-27T14:08:59.386Z</time></trkpt><trkpt lat="44.4127417" lon="16.1285794"><ele>365.5</ele><time>2026-04-27T14:09:00.383Z</time></trkpt><trkpt lat="44.4126057" lon="16.1285011"><ele>365.75</ele><time>2026-04-27T14:09:01.382Z</time></trkpt><trkpt lat="44.4124687" lon="16.1284259"><ele>366.0</ele><time>2026-04-27T14:09:02.387Z</time></trkpt><trkpt lat="44.4123316" lon="16.1283376"><ele>366.0</ele><time>2026-04-27T14:09:03.382Z</time></trkpt><trkpt lat="44.4121974" lon="16.1282568"><ele>366.0</ele><time>2026-04-27T14:09:04.383Z</time></trkpt><trkpt lat="44.4120506" lon="16.1281672"><ele>366.0</ele><time>2026-04-27T14:09:05.374Z</time></trkpt><trkpt lat="44.4119095" lon="16.1280808"><ele>365.75</ele><time>2026-04-27T14:09:06.38Z</time></trkpt><trkpt lat="44.4117615" lon="16.1280033"><ele>365.5</ele><time>2026-04-27T14:09:07.384Z</time></trkpt><trkpt lat="44.4116218" lon="16.1279408"><ele>365.25</ele><time>2026-04-27T14:09:08.384Z</time></trkpt><trkpt lat="44.4114846" lon="16.1278846"><ele>365.0</ele><time>2026-04-27T14:09:09.381Z</time></trkpt><trkpt lat="44.4113526" lon="16.1278294"><ele>365.75</ele><time>2026-04-27T14:09:10.383Z</time></trkpt><trkpt lat="44.4112259" lon="16.1277677"><ele>366.5</ele><time>2026-04-27T14:09:11.384Z</time></trkpt><trkpt lat="44.4111153" lon="16.1276896"><ele>367.25</ele><time>2026-04-27T14:09:12.373Z</time></trkpt><trkpt lat="44.411009" lon="16.1275892"><ele>368.0</ele><time>2026-04-27T14:09:13.382Z</time></trkpt><trkpt lat="44.4109042" lon="16.1274669"><ele>367.75</ele><time>2026-04-27T14:09:14.386Z</time></trkpt><trkpt lat="44.4108007" lon="16.1273326"><ele>367.5</ele><time>2026-04-27T14:09:15.384Z</time></trkpt><trkpt lat="44.4106945" lon="16.1271972"><ele>367.25</ele><time>2026-04-27T14:09:16.384Z</time></trkpt><trkpt lat="44.4105916" lon="16.1270591"><ele>367.0</ele><time>2026-04-27T14:09:17.387Z</time></trkpt><trkpt lat="44.4104913" lon="16.1269293"><ele>367.5</ele><time>2026-04-27T14:09:18.38Z</time></trkpt><trkpt lat="44.4103903" lon="16.126808"><ele>368.0</ele><time>2026-04-27T14:09:19.381Z</time></trkpt><trkpt lat="44.4102844" lon="16.1267011"><ele>368.5</ele><time>2026-04-27T14:09:20.386Z</time></trkpt><trkpt lat="44.4101842" lon="16.1265936"><ele>369.0</ele><time>2026-04-27T14:09:21.383Z</time></trkpt><trkpt lat="44.4100874" lon="16.1264952"><ele>369.0</ele><time>2026-04-27T14:09:22.386Z</time></trkpt><trkpt lat="44.4099913" lon="16.1264024"><ele>369.0</ele><time>2026-04-27T14:09:23.381Z</time></trkpt><trkpt lat="44.4099022" lon="16.1263111"><ele>369.0</ele><time>2026-04-27T14:09:24.383Z</time></trkpt><trkpt lat="44.4098152" lon="16.1262166"><ele>369.0</ele><time>2026-04-27T14:09:25.385Z</time></trkpt><trkpt lat="44.4097269" lon="16.1261186"><ele>369.4</ele><time>2026-04-27T14:09:26.381Z</time></trkpt><trkpt lat="44.4096382" lon="16.1260228"><ele>369.79999999999995</ele><time>2026-04-27T14:09:27.383Z</time></trkpt><trkpt lat="44.409547" lon="16.1259316"><ele>370.20000000000005</ele><time>2026-04-27T14:09:28.386Z</time></trkpt><trkpt lat="44.4094579" lon="16.1258414"><ele>370.6</ele><time>2026-04-27T14:09:29.384Z</time></trkpt><trkpt lat="44.4093695" lon="16.1257496"><ele>371.0</ele><time>2026-04-27T14:09:30.384Z</time></trkpt><trkpt lat="44.4092767" lon="16.1256585"><ele>371.25</ele><time>2026-04-27T14:09:31.386Z</time></trkpt><trkpt lat="44.4091829" lon="16.1255636"><ele>371.5</ele><time>2026-04-27T14:09:32.384Z</time></trkpt><trkpt lat="44.4090861" lon="16.1254713"><ele>371.75</ele><time>2026-04-27T14:09:33.383Z</time></trkpt><trkpt lat="44.4089908" lon="16.1253715"><ele>372.0</ele><time>2026-04-27T14:09:34.383Z</time></trkpt><trkpt lat="44.4088901" lon="16.1252694"><ele>373.5</ele><time>2026-04-27T14:09:35.386Z</time></trkpt><trkpt lat="44.4087868" lon="16.1251699"><ele>375.0</ele><time>2026-04-27T14:09:36.385Z</time></trkpt><trkpt lat="44.4086788" lon="16.1250783"><ele>376.5</ele><time>2026-04-27T14:09:37.38Z</time></trkpt><trkpt lat="44.4085647" lon="16.1250092"><ele>378.0</ele><time>2026-04-27T14:09:38.384Z</time></trkpt><trkpt lat="44.4084347" lon="16.1249358"><ele>378.0</ele><time>2026-04-27T14:09:39.383Z</time></trkpt><trkpt lat="44.4083205" lon="16.1248723"><ele>378.0</ele><time>2026-04-27T14:09:40.382Z</time></trkpt><trkpt lat="44.4082001" lon="16.124815"><ele>378.0</ele><time>2026-04-27T14:09:41.386Z</time></trkpt><trkpt lat="44.4080777" lon="16.1247603"><ele>378.0</ele><time>2026-04-27T14:09:42.383Z</time></trkpt><trkpt lat="44.4079537" lon="16.124716"><ele>378.0</ele><time>2026-04-27T14:09:43.386Z</time></trkpt><trkpt lat="44.4078474" lon="16.1246822"><ele>378.0</ele><time>2026-04-27T14:09:44.383Z</time></trkpt><trkpt lat="44.4077529" lon="16.124639"><ele>378.0</ele><time>2026-04-27T14:09:45.386Z</time></trkpt><trkpt lat="44.4076504" lon="16.1245809"><ele>378.0</ele><time>2026-04-27T14:09:46.386Z</time></trkpt><trkpt lat="44.4075468" lon="16.1245311"><ele>378.0</ele><time>2026-04-27T14:09:47.386Z</time></trkpt><trkpt lat="44.4074332" lon="16.1244791"><ele>378.0</ele><time>2026-04-27T14:09:48.379Z</time></trkpt><trkpt lat="44.4073161" lon="16.1244303"><ele>378.0</ele><time>2026-04-27T14:09:49.381Z</time></trkpt><trkpt lat="44.4071872" lon="16.1243764"><ele>378.0</ele><time>2026-04-27T14:09:50.387Z</time></trkpt><trkpt lat="44.40706" lon="16.1243211"><ele>378.0</ele><time>2026-04-27T14:09:51.381Z</time></trkpt><trkpt lat="44.4069254" lon="16.1242706"><ele>378.5</ele><time>2026-04-27T14:09:52.375Z</time></trkpt><trkpt lat="44.4067865" lon="16.1242288"><ele>379.0</ele><time>2026-04-27T14:09:53.378Z</time></trkpt><trkpt lat="44.4066544" lon="16.1241936"><ele>379.5</ele><time>2026-04-27T14:09:54.387Z</time></trkpt><trkpt lat="44.4065252" lon="16.1241532"><ele>380.0</ele><time>2026-04-27T14:09:55.382Z</time></trkpt><trkpt lat="44.4064095" lon="16.1241048"><ele>379.25</ele><time>2026-04-27T14:09:56.378Z</time></trkpt><trkpt lat="44.4062985" lon="16.1240596"><ele>378.5</ele><time>2026-04-27T14:09:57.379Z</time></trkpt><trkpt lat="44.4061878" lon="16.1240173"><ele>377.75</ele><time>2026-04-27T14:09:58.378Z</time></trkpt><trkpt lat="44.4060741" lon="16.1239815"><ele>377.0</ele><time>2026-04-27T14:09:59.382Z</time></trkpt><trkpt lat="44.4059589" lon="16.1239559"><ele>377.0</ele><time>2026-04-27T14:10:00.382Z</time></trkpt><trkpt lat="44.4058418" lon="16.1239352"><ele>377.0</ele><time>2026-04-27T14:10:01.384Z</time></trkpt><trkpt lat="44.4057157" lon="16.1239189"><ele>377.0</ele><time>2026-04-27T14:10:02.387Z</time></trkpt><trkpt lat="44.405581" lon="16.1239043"><ele>377.0</ele><time>2026-04-27T14:10:03.375Z</time></trkpt><trkpt lat="44.4054455" lon="16.1238837"><ele>376.25</ele><time>2026-04-27T14:10:04.38Z</time></trkpt><trkpt lat="44.4053182" lon="16.1238488"><ele>375.5</ele><time>2026-04-27T14:10:05.377Z</time></trkpt><trkpt lat="44.4051993" lon="16.1238227"><ele>374.75</ele><time>2026-04-27T14:10:06.378Z</time></trkpt><trkpt lat="44.4050919" lon="16.1238129"><ele>374.0</ele><time>2026-04-27T14:10:07.383Z</time></trkpt><trkpt lat="44.4049871" lon="16.123826"><ele>374.0</ele><time>2026-04-27T14:10:08.38Z</time></trkpt><trkpt lat="44.4048828" lon="16.12384"><ele>374.0</ele><time>2026-04-27T14:10:09.379Z</time></trkpt><trkpt lat="44.404776" lon="16.1238979"><ele>374.0</ele><time>2026-04-27T14:10:10.374Z</time></trkpt><trkpt lat="44.4046696" lon="16.1239591"><ele>374.0</ele><time>2026-04-27T14:10:11.386Z</time></trkpt><trkpt lat="44.4045507" lon="16.1240101"><ele>375.0</ele><time>2026-04-27T14:10:12.382Z</time></trkpt><trkpt lat="44.404432" lon="16.1240652"><ele>376.0</ele><time>2026-04-27T14:10:13.382Z</time></trkpt><trkpt lat="44.4043026" lon="16.1241067"><ele>377.0</ele><time>2026-04-27T14:10:14.382Z</time></trkpt><trkpt lat="44.4041678" lon="16.1241687"><ele>378.0</ele><time>2026-04-27T14:10:15.375Z</time></trkpt><trkpt lat="44.4040326" lon="16.1242182"><ele>378.0</ele><time>2026-04-27T14:10:16.383Z</time></trkpt><trkpt lat="44.4038873" lon="16.1242574"><ele>378.0</ele><time>2026-04-27T14:10:17.382Z</time></trkpt><trkpt lat="44.4037499" lon="16.1242999"><ele>378.0</ele><time>2026-04-27T14:10:18.383Z</time></trkpt><trkpt lat="44.4036084" lon="16.1243386"><ele>378.0</ele><time>2026-04-27T14:10:19.381Z</time></trkpt><trkpt lat="44.403465" lon="16.124394"><ele>377.25</ele><time>2026-04-27T14:10:20.387Z</time></trkpt><trkpt lat="44.4033235" lon="16.1244527"><ele>376.5</ele><time>2026-04-27T14:10:21.386Z</time></trkpt><trkpt lat="44.4031805" lon="16.1245031"><ele>375.75</ele><time>2026-04-27T14:10:22.379Z</time></trkpt><trkpt lat="44.4030415" lon="16.124538"><ele>375.0</ele><time>2026-04-27T14:10:23.383Z</time></trkpt><trkpt lat="44.4028885" lon="16.1245778"><ele>375.0</ele><time>2026-04-27T14:10:24.372Z</time></trkpt><trkpt lat="44.4027524" lon="16.124626"><ele>375.0</ele><time>2026-04-27T14:10:25.378Z</time></trkpt><trkpt lat="44.4026114" lon="16.1246786"><ele>375.0</ele><time>2026-04-27T14:10:26.378Z</time></trkpt><trkpt lat="44.4024831" lon="16.1247383"><ele>375.0</ele><time>2026-04-27T14:10:27.383Z</time></trkpt><trkpt lat="44.402348" lon="16.1248061"><ele>375.0</ele><time>2026-04-27T14:10:28.38Z</time></trkpt><trkpt lat="44.4022105" lon="16.1248792"><ele>375.0</ele><time>2026-04-27T14:10:29.387Z</time></trkpt><trkpt lat="44.4020666" lon="16.1249547"><ele>375.0</ele><time>2026-04-27T14:10:30.382Z</time></trkpt><trkpt lat="44.4019204" lon="16.1250151"><ele>375.0</ele><time>2026-04-27T14:10:31.379Z</time></trkpt><trkpt lat="44.401773" lon="16.1250652"><ele>375.0</ele><time>2026-04-27T14:10:32.383Z</time></trkpt><trkpt lat="44.4016222" lon="16.1251072"><ele>375.0</ele><time>2026-04-27T14:10:33.383Z</time></trkpt><trkpt lat="44.4014692" lon="16.1251446"><ele>375.5</ele><time>2026-04-27T14:10:34.376Z</time></trkpt><trkpt lat="44.4013207" lon="16.1251748"><ele>376.0</ele><time>2026-04-27T14:10:35.375Z</time></trkpt><trkpt lat="44.401182" lon="16.1252091"><ele>376.5</ele><time>2026-04-27T14:10:36.379Z</time></trkpt><trkpt lat="44.4010394" lon="16.1252566"><ele>377.0</ele><time>2026-04-27T14:10:37.385Z</time></trkpt><trkpt lat="44.4008961" lon="16.1253208"><ele>377.0</ele><time>2026-04-27T14:10:38.382Z</time></trkpt><trkpt lat="44.4007516" lon="16.1253965"><ele>377.0</ele><time>2026-04-27T14:10:39.379Z</time></trkpt><trkpt lat="44.4006081" lon="16.1254831"><ele>377.0</ele><time>2026-04-27T14:10:40.382Z</time></trkpt><trkpt lat="44.4004731" lon="16.1255756"><ele>376.25</ele><time>2026-04-27T14:10:41.386Z</time></trkpt><trkpt lat="44.4003442" lon="16.1256418"><ele>375.5</ele><time>2026-04-27T14:10:42.381Z</time></trkpt><trkpt lat="44.4002102" lon="16.1256835"><ele>374.75</ele><time>2026-04-27T14:10:43.383Z</time></trkpt><trkpt lat="44.4000767" lon="16.125715"><ele>374.0</ele><time>2026-04-27T14:10:44.379Z</time></trkpt><trkpt lat="44.3999478" lon="16.1257581"><ele>374.0</ele><time>2026-04-27T14:10:45.387Z</time></trkpt><trkpt lat="44.3998191" lon="16.1258159"><ele>374.0</ele><time>2026-04-27T14:10:46.386Z</time></trkpt><trkpt lat="44.3997008" lon="16.1258913"><ele>374.0</ele><time>2026-04-27T14:10:47.383Z</time></trkpt><trkpt lat="44.3995884" lon="16.1259849"><ele>374.0</ele><time>2026-04-27T14:10:48.378Z</time></trkpt><trkpt lat="44.3994835" lon="16.1261008"><ele>374.5</ele><time>2026-04-27T14:10:49.381Z</time></trkpt><trkpt lat="44.3993838" lon="16.1262345"><ele>375.0</ele><time>2026-04-27T14:10:50.379Z</time></trkpt><trkpt lat="44.3992967" lon="16.1263834"><ele>375.5</ele><time>2026-04-27T14:10:51.38Z</time></trkpt><trkpt lat="44.39922" lon="16.1265331"><ele>376.0</ele><time>2026-04-27T14:10:52.383Z</time></trkpt><trkpt lat="44.3991327" lon="16.1266746"><ele>376.5</ele><time>2026-04-27T14:10:53.383Z</time></trkpt><trkpt lat="44.3990308" lon="16.1268124"><ele>377.0</ele><time>2026-04-27T14:10:54.38Z</time></trkpt><trkpt lat="44.398933" lon="16.1269539"><ele>377.5</ele><time>2026-04-27T14:10:55.383Z</time></trkpt><trkpt lat="44.3988251" lon="16.1271034"><ele>378.0</ele><time>2026-04-27T14:10:56.38Z</time></trkpt><trkpt lat="44.3987157" lon="16.1272383"><ele>377.3333333333333</ele><time>2026-04-27T14:10:57.384Z</time></trkpt><trkpt lat="44.3985903" lon="16.1273529"><ele>376.66666666666663</ele><time>2026-04-27T14:10:58.386Z</time></trkpt><trkpt lat="44.3984583" lon="16.1274585"><ele>376.0</ele><time>2026-04-27T14:10:59.384Z</time></trkpt><trkpt lat="44.3983087" lon="16.1275459"><ele>376.0</ele><time>2026-04-27T14:11:00.381Z</time></trkpt><trkpt lat="44.398155" lon="16.1276214"><ele>376.0</ele><time>2026-04-27T14:11:01.387Z</time></trkpt><trkpt lat="44.3980022" lon="16.1276917"><ele>376.0</ele><time>2026-04-27T14:11:02.386Z</time></trkpt><trkpt lat="44.3978557" lon="16.1277698"><ele>376.25</ele><time>2026-04-27T14:11:03.382Z</time></trkpt><trkpt lat="44.3977186" lon="16.1278485"><ele>376.5</ele><time>2026-04-27T14:11:04.384Z</time></trkpt><trkpt lat="44.3975801" lon="16.1279342"><ele>376.75</ele><time>2026-04-27T14:11:05.371Z</time></trkpt><trkpt lat="44.3974546" lon="16.1280013"><ele>377.0</ele><time>2026-04-27T14:11:06.377Z</time></trkpt><trkpt lat="44.3973243" lon="16.1280471"><ele>377.0</ele><time>2026-04-27T14:11:07.379Z</time></trkpt><trkpt lat="44.3972025" lon="16.1280779"><ele>377.0</ele><time>2026-04-27T14:11:08.383Z</time></trkpt><trkpt lat="44.3970699" lon="16.1281283"><ele>377.0</ele><time>2026-04-27T14:11:09.379Z</time></trkpt><trkpt lat="44.3969336" lon="16.1282023"><ele>377.0</ele><time>2026-04-27T14:11:10.381Z</time></trkpt><trkpt lat="44.3968052" lon="16.1282799"><ele>377.75</ele><time>2026-04-27T14:11:11.386Z</time></trkpt><trkpt lat="44.3967023" lon="16.128371"><ele>378.5</ele><time>2026-04-27T14:11:12.383Z</time></trkpt><trkpt lat="44.3966123" lon="16.1284777"><ele>379.25</ele><time>2026-04-27T14:11:13.386Z</time></trkpt><trkpt lat="44.3965428" lon="16.1286128"><ele>380.0</ele><time>2026-04-27T14:11:14.382Z</time></trkpt><trkpt lat="44.3964799" lon="16.1287411"><ele>380.0</ele><time>2026-04-27T14:11:15.38Z</time></trkpt><trkpt lat="44.3964216" lon="16.1288623"><ele>380.0</ele><time>2026-04-27T14:11:16.386Z</time></trkpt><trkpt lat="44.3963319" lon="16.1289592"><ele>380.0</ele><time>2026-04-27T14:11:17.387Z</time></trkpt><trkpt lat="44.3962203" lon="16.1290372"><ele>380.0</ele><time>2026-04-27T14:11:18.386Z</time></trkpt><trkpt lat="44.3960973" lon="16.1291068"><ele>380.75</ele><time>2026-04-27T14:11:19.386Z</time></trkpt><trkpt lat="44.3959702" lon="16.129156"><ele>381.5</ele><time>2026-04-27T14:11:20.38Z</time></trkpt><trkpt lat="44.3958674" lon="16.1291827"><ele>382.25</ele><time>2026-04-27T14:11:21.38Z</time></trkpt><trkpt lat="44.39576" lon="16.1292098"><ele>383.0</ele><time>2026-04-27T14:11:22.38Z</time></trkpt><trkpt lat="44.3956591" lon="16.1292449"><ele>383.0</ele><time>2026-04-27T14:11:23.384Z</time></trkpt><trkpt lat="44.3955469" lon="16.1292922"><ele>383.0</ele><time>2026-04-27T14:11:24.383Z</time></trkpt><trkpt lat="44.3954384" lon="16.1293532"><ele>383.0</ele><time>2026-04-27T14:11:25.386Z</time></trkpt><trkpt lat="44.3953222" lon="16.12943"><ele>383.0</ele><time>2026-04-27T14:11:26.382Z</time></trkpt><trkpt lat="44.3952004" lon="16.129512"><ele>381.25</ele><time>2026-04-27T14:11:27.378Z</time></trkpt><trkpt lat="44.3950751" lon="16.1295967"><ele>379.5</ele><time>2026-04-27T14:11:28.379Z</time></trkpt><trkpt lat="44.394944" lon="16.129678"><ele>377.75</ele><time>2026-04-27T14:11:29.387Z</time></trkpt><trkpt lat="44.3948079" lon="16.1297382"><ele>376.0</ele><time>2026-04-27T14:11:30.378Z</time></trkpt><trkpt lat="44.3946772" lon="16.1297723"><ele>376.25</ele><time>2026-04-27T14:11:31.382Z</time></trkpt><trkpt lat="44.3945415" lon="16.1298094"><ele>376.5</ele><time>2026-04-27T14:11:32.379Z</time></trkpt><trkpt lat="44.3944062" lon="16.1298665"><ele>376.75</ele><time>2026-04-27T14:11:33.387Z</time></trkpt><trkpt lat="44.3942758" lon="16.1299354"><ele>377.0</ele><time>2026-04-27T14:11:34.382Z</time></trkpt><trkpt lat="44.3941375" lon="16.1300062"><ele>377.0</ele><time>2026-04-27T14:11:35.379Z</time></trkpt><trkpt lat="44.3939978" lon="16.1300895"><ele>377.0</ele><time>2026-04-27T14:11:36.373Z</time></trkpt><trkpt lat="44.3938534" lon="16.1301619"><ele>377.0</ele><time>2026-04-27T14:11:37.386Z</time></trkpt><trkpt lat="44.3937086" lon="16.130226"><ele>377.0</ele><time>2026-04-27T14:11:38.383Z</time></trkpt><trkpt lat="44.3935658" lon="16.1302886"><ele>377.0</ele><time>2026-04-27T14:11:39.379Z</time></trkpt><trkpt lat="44.3934333" lon="16.1303691"><ele>377.0</ele><time>2026-04-27T14:11:40.384Z</time></trkpt><trkpt lat="44.393301" lon="16.1304662"><ele>377.0</ele><time>2026-04-27T14:11:41.378Z</time></trkpt><trkpt lat="44.3931631" lon="16.1305699"><ele>377.0</ele><time>2026-04-27T14:11:42.386Z</time></trkpt><trkpt lat="44.3930136" lon="16.13068"><ele>377.0</ele><time>2026-04-27T14:11:43.381Z</time></trkpt><trkpt lat="44.392847" lon="16.1307714"><ele>377.0</ele><time>2026-04-27T14:11:44.379Z</time></trkpt><trkpt lat="44.3926813" lon="16.1308542"><ele>378.0</ele><time>2026-04-27T14:11:45.382Z</time></trkpt><trkpt lat="44.3925226" lon="16.1309114"><ele>379.0</ele><time>2026-04-27T14:11:46.387Z</time></trkpt><trkpt lat="44.3923774" lon="16.1309515"><ele>380.0</ele><time>2026-04-27T14:11:47.382Z</time></trkpt><trkpt lat="44.3922229" lon="16.1309827"><ele>379.0</ele><time>2026-04-27T14:11:48.383Z</time></trkpt><trkpt lat="44.3920768" lon="16.1310238"><ele>378.0</ele><time>2026-04-27T14:11:49.375Z</time></trkpt><trkpt lat="44.3919198" lon="16.1310613"><ele>377.0</ele><time>2026-04-27T14:11:50.386Z</time></trkpt><trkpt lat="44.3917634" lon="16.1310817"><ele>377.0</ele><time>2026-04-27T14:11:51.386Z</time></trkpt><trkpt lat="44.391615" lon="16.1310707"><ele>377.0</ele><time>2026-04-27T14:11:52.381Z</time></trkpt><trkpt lat="44.3914771" lon="16.1310324"><ele>377.0</ele><time>2026-04-27T14:11:53.383Z</time></trkpt><trkpt lat="44.3913516" lon="16.130979"><ele>377.0</ele><time>2026-04-27T14:11:54.383Z</time></trkpt><trkpt lat="44.3912339" lon="16.1309434"><ele>377.75</ele><time>2026-04-27T14:11:55.376Z</time></trkpt><trkpt lat="44.3911215" lon="16.1309226"><ele>378.5</ele><time>2026-04-27T14:11:56.382Z</time></trkpt><trkpt lat="44.3910095" lon="16.1309218"><ele>379.25</ele><time>2026-04-27T14:11:57.384Z</time></trkpt><trkpt lat="44.3908795" lon="16.1309503"><ele>380.0</ele><time>2026-04-27T14:11:58.381Z</time></trkpt><trkpt lat="44.3907422" lon="16.1309808"><ele>380.0</ele><time>2026-04-27T14:11:59.382Z</time></trkpt><trkpt lat="44.3906176" lon="16.1309992"><ele>380.0</ele><time>2026-04-27T14:12:00.382Z</time></trkpt><trkpt lat="44.3905003" lon="16.1310168"><ele>380.0</ele><time>2026-04-27T14:12:01.378Z</time></trkpt><trkpt lat="44.3903826" lon="16.1310367"><ele>380.0</ele><time>2026-04-27T14:12:02.379Z</time></trkpt><trkpt lat="44.3902635" lon="16.1310682"><ele>378.75</ele><time>2026-04-27T14:12:03.383Z</time></trkpt><trkpt lat="44.3901395" lon="16.1311142"><ele>377.5</ele><time>2026-04-27T14:12:04.384Z</time></trkpt><trkpt lat="44.390015" lon="16.1311741"><ele>376.25</ele><time>2026-04-27T14:12:05.387Z</time></trkpt><trkpt lat="44.3898894" lon="16.1312455"><ele>375.0</ele><time>2026-04-27T14:12:06.383Z</time></trkpt><trkpt lat="44.389765" lon="16.1313238"><ele>375.5</ele><time>2026-04-27T14:12:07.383Z</time></trkpt><trkpt lat="44.3896412" lon="16.1314096"><ele>376.0</ele><time>2026-04-27T14:12:08.375Z</time></trkpt><trkpt lat="44.3895159" lon="16.1315077"><ele>376.5</ele><time>2026-04-27T14:12:09.38Z</time></trkpt><trkpt lat="44.3893859" lon="16.1316061"><ele>377.0</ele><time>2026-04-27T14:12:10.379Z</time></trkpt><trkpt lat="44.3892552" lon="16.1317002"><ele>377.75</ele><time>2026-04-27T14:12:11.383Z</time></trkpt><trkpt lat="44.3891284" lon="16.1317632"><ele>378.5</ele><time>2026-04-27T14:12:12.385Z</time></trkpt><trkpt lat="44.388998" lon="16.1318084"><ele>379.25</ele><time>2026-04-27T14:12:13.383Z</time></trkpt><trkpt lat="44.3888683" lon="16.1318471"><ele>380.0</ele><time>2026-04-27T14:12:14.38Z</time></trkpt><trkpt lat="44.3887311" lon="16.1318829"><ele>380.0</ele><time>2026-04-27T14:12:15.386Z</time></trkpt><trkpt lat="44.3886047" lon="16.131912"><ele>380.0</ele><time>2026-04-27T14:12:16.372Z</time></trkpt><trkpt lat="44.3884921" lon="16.1319481"><ele>380.0</ele><time>2026-04-27T14:12:17.382Z</time></trkpt><trkpt lat="44.3883867" lon="16.132002"><ele>380.0</ele><time>2026-04-27T14:12:18.383Z</time></trkpt><trkpt lat="44.388296" lon="16.1320873"><ele>380.0</ele><time>2026-04-27T14:12:19.379Z</time></trkpt><trkpt lat="44.3881951" lon="16.1321755"><ele>380.0</ele><time>2026-04-27T14:12:20.382Z</time></trkpt><trkpt lat="44.3880759" lon="16.1322604"><ele>380.0</ele><time>2026-04-27T14:12:21.381Z</time></trkpt><trkpt lat="44.387947" lon="16.1323176"><ele>380.0</ele><time>2026-04-27T14:12:22.383Z</time></trkpt><trkpt lat="44.3878136" lon="16.1323532"><ele>379.33333333333337</ele><time>2026-04-27T14:12:23.383Z</time></trkpt><trkpt lat="44.3876678" lon="16.1323877"><ele>378.6666666666667</ele><time>2026-04-27T14:12:24.386Z</time></trkpt><trkpt lat="44.3875176" lon="16.1324292"><ele>378.0</ele><time>2026-04-27T14:12:25.387Z</time></trkpt><trkpt lat="44.387367" lon="16.1324769"><ele>380.66666666666663</ele><time>2026-04-27T14:12:26.378Z</time></trkpt><trkpt lat="44.3872124" lon="16.1325256"><ele>383.3333333333333</ele><time>2026-04-27T14:12:27.377Z</time></trkpt><trkpt lat="44.3870636" lon="16.13258"><ele>386.0</ele><time>2026-04-27T14:12:28.381Z</time></trkpt><trkpt lat="44.386909" lon="16.1326392"><ele>386.0</ele><time>2026-04-27T14:12:29.387Z</time></trkpt><trkpt lat="44.3867683" lon="16.1326899"><ele>386.0</ele><time>2026-04-27T14:12:30.378Z</time></trkpt><trkpt lat="44.3866187" lon="16.132738"><ele>386.0</ele><time>2026-04-27T14:12:31.382Z</time></trkpt><trkpt lat="44.3864686" lon="16.1327838"><ele>385.66666666666663</ele><time>2026-04-27T14:12:32.387Z</time></trkpt><trkpt lat="44.3863163" lon="16.1328318"><ele>385.33333333333337</ele><time>2026-04-27T14:12:33.382Z</time></trkpt><trkpt lat="44.3861623" lon="16.1328785"><ele>385.0</ele><time>2026-04-27T14:12:34.383Z</time></trkpt><trkpt lat="44.3860066" lon="16.1329217"><ele>385.0</ele><time>2026-04-27T14:12:35.384Z</time></trkpt><trkpt lat="44.385885" lon="16.132954"><ele>385.0</ele><time>2026-04-27T14:12:36.384Z</time></trkpt><trkpt lat="44.3857622" lon="16.1329878"><ele>385.0</ele><time>2026-04-27T14:12:37.385Z</time></trkpt><trkpt lat="44.3856406" lon="16.133011"><ele>385.0</ele><time>2026-04-27T14:12:38.382Z</time></trkpt><trkpt lat="44.3855255" lon="16.1330164"><ele>385.25</ele><time>2026-04-27T14:12:39.386Z</time></trkpt><trkpt lat="44.3854046" lon="16.1330399"><ele>385.5</ele><time>2026-04-27T14:12:40.382Z</time></trkpt><trkpt lat="44.3852773" lon="16.1330798"><ele>385.75</ele><time>2026-04-27T14:12:41.38Z</time></trkpt><trkpt lat="44.3851413" lon="16.133138"><ele>386.0</ele><time>2026-04-27T14:12:42.386Z</time></trkpt><trkpt lat="44.3850011" lon="16.1331982"><ele>386.0</ele><time>2026-04-27T14:12:43.386Z</time></trkpt><trkpt lat="44.3848649" lon="16.1332556"><ele>386.0</ele><time>2026-04-27T14:12:44.382Z</time></trkpt><trkpt lat="44.3847384" lon="16.1333175"><ele>386.0</ele><time>2026-04-27T14:12:45.387Z</time></trkpt><trkpt lat="44.38461" lon="16.1333668"><ele>386.0</ele><time>2026-04-27T14:12:46.386Z</time></trkpt><trkpt lat="44.3844697" lon="16.1333943"><ele>386.0</ele><time>2026-04-27T14:12:47.386Z</time></trkpt><trkpt lat="44.3843231" lon="16.1334122"><ele>386.0</ele><time>2026-04-27T14:12:48.386Z</time></trkpt><trkpt lat="44.3841752" lon="16.1334243"><ele>386.0</ele><time>2026-04-27T14:12:49.381Z</time></trkpt><trkpt lat="44.3840215" lon="16.1334378"><ele>386.0</ele><time>2026-04-27T14:12:50.379Z</time></trkpt><trkpt lat="44.3838616" lon="16.1334478"><ele>387.0</ele><time>2026-04-27T14:12:51.382Z</time></trkpt><trkpt lat="44.3837027" lon="16.1334665"><ele>388.0</ele><time>2026-04-27T14:12:52.386Z</time></trkpt><trkpt lat="44.3835412" lon="16.1334982"><ele>389.0</ele><time>2026-04-27T14:12:53.385Z</time></trkpt><trkpt lat="44.3833795" lon="16.1335321"><ele>389.0</ele><time>2026-04-27T14:12:54.385Z</time></trkpt><trkpt lat="44.3832273" lon="16.1335614"><ele>389.0</ele><time>2026-04-27T14:12:55.376Z</time></trkpt><trkpt lat="44.3831044" lon="16.1335854"><ele>389.0</ele><time>2026-04-27T14:12:56.382Z</time></trkpt><trkpt lat="44.3830079" lon="16.1336168"><ele>389.0</ele><time>2026-04-27T14:12:57.387Z</time></trkpt><trkpt lat="44.3829233" lon="16.1336647"><ele>389.0</ele><time>2026-04-27T14:12:58.378Z</time></trkpt><trkpt lat="44.3828296" lon="16.13374"><ele>389.0</ele><time>2026-04-27T14:12:59.378Z</time></trkpt><trkpt lat="44.3827199" lon="16.1338253"><ele>389.0</ele><time>2026-04-27T14:13:00.386Z</time></trkpt><trkpt lat="44.3826034" lon="16.1339025"><ele>389.0</ele><time>2026-04-27T14:13:01.378Z</time></trkpt><trkpt lat="44.3824785" lon="16.1339777"><ele>389.0</ele><time>2026-04-27T14:13:02.378Z</time></trkpt><trkpt lat="44.382346" lon="16.1340477"><ele>389.0</ele><time>2026-04-27T14:13:03.386Z</time></trkpt><trkpt lat="44.3822083" lon="16.1341058"><ele>389.0</ele><time>2026-04-27T14:13:04.386Z</time></trkpt><trkpt lat="44.3820752" lon="16.1341526"><ele>389.0</ele><time>2026-04-27T14:13:05.38Z</time></trkpt><trkpt lat="44.3819469" lon="16.1341959"><ele>389.25</ele><time>2026-04-27T14:13:06.382Z</time></trkpt><trkpt lat="44.3818142" lon="16.1342305"><ele>389.5</ele><time>2026-04-27T14:13:07.386Z</time></trkpt><trkpt lat="44.3816835" lon="16.1342577"><ele>389.75</ele><time>2026-04-27T14:13:08.379Z</time></trkpt><trkpt lat="44.3815414" lon="16.1342571"><ele>390.0</ele><time>2026-04-27T14:13:09.374Z</time></trkpt><trkpt lat="44.3813692" lon="16.1342312"><ele>389.66666666666663</ele><time>2026-04-27T14:13:10.378Z</time></trkpt><trkpt lat="44.3812047" lon="16.1342081"><ele>389.3333333333333</ele><time>2026-04-27T14:13:11.378Z</time></trkpt><trkpt lat="44.3810484" lon="16.13419"><ele>389.0</ele><time>2026-04-27T14:13:12.378Z</time></trkpt><trkpt lat="44.380893" lon="16.1341858"><ele>389.0</ele><time>2026-04-27T14:13:13.378Z</time></trkpt><trkpt lat="44.3807463" lon="16.1341866"><ele>389.0</ele><time>2026-04-27T14:13:14.381Z</time></trkpt><trkpt lat="44.3806078" lon="16.1341926"><ele>389.0</ele><time>2026-04-27T14:13:15.383Z</time></trkpt><trkpt lat="44.3804756" lon="16.134213"><ele>389.0</ele><time>2026-04-27T14:13:16.386Z</time></trkpt><trkpt lat="44.3803448" lon="16.1342545"><ele>389.3333333333333</ele><time>2026-04-27T14:13:17.379Z</time></trkpt><trkpt lat="44.3802052" lon="16.1343106"><ele>389.66666666666663</ele><time>2026-04-27T14:13:18.378Z</time></trkpt><trkpt lat="44.380056" lon="16.1343657"><ele>390.0</ele><time>2026-04-27T14:13:19.386Z</time></trkpt><trkpt lat="44.3799011" lon="16.1344153"><ele>390.0</ele><time>2026-04-27T14:13:20.379Z</time></trkpt><trkpt lat="44.3797394" lon="16.1344671"><ele>390.0</ele><time>2026-04-27T14:13:21.382Z</time></trkpt><trkpt lat="44.3795826" lon="16.1345191"><ele>390.0</ele><time>2026-04-27T14:13:22.386Z</time></trkpt><trkpt lat="44.3794385" lon="16.134561"><ele>389.75</ele><time>2026-04-27T14:13:23.386Z</time></trkpt><trkpt lat="44.3793023" lon="16.134588"><ele>389.5</ele><time>2026-04-27T14:13:24.383Z</time></trkpt><trkpt lat="44.3791702" lon="16.1345959"><ele>389.25</ele><time>2026-04-27T14:13:25.379Z</time></trkpt><trkpt lat="44.3790333" lon="16.1345932"><ele>389.0</ele><time>2026-04-27T14:13:26.378Z</time></trkpt><trkpt lat="44.3788896" lon="16.134581"><ele>390.25</ele><time>2026-04-27T14:13:27.383Z</time></trkpt><trkpt lat="44.3787419" lon="16.13456"><ele>391.5</ele><time>2026-04-27T14:13:28.379Z</time></trkpt><trkpt lat="44.3785915" lon="16.1345435"><ele>392.75</ele><time>2026-04-27T14:13:29.382Z</time></trkpt><trkpt lat="44.3784432" lon="16.134537"><ele>394.0</ele><time>2026-04-27T14:13:30.387Z</time></trkpt><trkpt lat="44.3783086" lon="16.1345397"><ele>394.0</ele><time>2026-04-27T14:13:31.381Z</time></trkpt><trkpt lat="44.3781849" lon="16.1345427"><ele>394.0</ele><time>2026-04-27T14:13:32.38Z</time></trkpt><trkpt lat="44.3780724" lon="16.1345492"><ele>394.0</ele><time>2026-04-27T14:13:33.387Z</time></trkpt><trkpt lat="44.3779687" lon="16.1345598"><ele>394.0</ele><time>2026-04-27T14:13:34.386Z</time></trkpt><trkpt lat="44.3778747" lon="16.1345771"><ele>394.0</ele><time>2026-04-27T14:13:35.379Z</time></trkpt><trkpt lat="44.3777932" lon="16.1346026"><ele>394.0</ele><time>2026-04-27T14:13:36.386Z</time></trkpt><trkpt lat="44.3777294" lon="16.1346428"><ele>394.0</ele><time>2026-04-27T14:13:37.381Z</time></trkpt><trkpt lat="44.3776417" lon="16.1346753"><ele>394.0</ele><time>2026-04-27T14:13:39.384Z</time></trkpt><trkpt lat="44.3776033" lon="16.1347656"><ele>394.0</ele><time>2026-04-27T14:19:46.33Z</time></trkpt><trkpt lat="44.3776689" lon="16.1347351"><ele>394.0</ele><time>2026-04-27T14:19:51.329Z</time></trkpt><trkpt lat="44.3776248" lon="16.1346529"><ele>394.0</ele><time>2026-04-27T14:19:53.334Z</time></trkpt><trkpt lat="44.3775624" lon="16.1346229"><ele>394.0</ele><time>2026-04-27T14:19:55.329Z</time></trkpt><trkpt lat="44.3774874" lon="16.1346062"><ele>394.00000000000006</ele><time>2026-04-27T14:19:59.331Z</time></trkpt><trkpt lat="44.3774281" lon="16.1345734"><ele>394.0</ele><time>2026-04-27T14:22:00.329Z</time></trkpt><trkpt lat="44.377353" lon="16.134554"><ele>394.0</ele><time>2026-04-27T14:22:03.328Z</time></trkpt><trkpt lat="44.3772883" lon="16.1345282"><ele>394.0</ele><time>2026-04-27T14:22:06.328Z</time></trkpt><trkpt lat="44.3771989" lon="16.134485"><ele>394.00000000000006</ele><time>2026-04-27T14:22:08.329Z</time></trkpt><trkpt lat="44.377078" lon="16.1344473"><ele>394.0</ele><time>2026-04-27T14:22:10.329Z</time></trkpt><trkpt lat="44.3770155" lon="16.1344267"><ele>394.1666666666667</ele><time>2026-04-27T14:22:11.329Z</time></trkpt><trkpt lat="44.3769373" lon="16.134396"><ele>394.33333333333337</ele><time>2026-04-27T14:22:12.329Z</time></trkpt><trkpt lat="44.3768665" lon="16.1343648"><ele>394.5</ele><time>2026-04-27T14:22:13.328Z</time></trkpt><trkpt lat="44.3767866" lon="16.1343326"><ele>394.66666666666663</ele><time>2026-04-27T14:22:14.329Z</time></trkpt><trkpt lat="44.3767243" lon="16.1342972"><ele>394.8333333333333</ele><time>2026-04-27T14:22:15.329Z</time></trkpt><trkpt lat="44.3766542" lon="16.1342519"><ele>395.0</ele><time>2026-04-27T14:22:16.329Z</time></trkpt><trkpt lat="44.3765735" lon="16.1342122"><ele>394.99999999999994</ele><time>2026-04-27T14:22:17.328Z</time></trkpt><trkpt lat="44.3764896" lon="16.1341886"><ele>395.0</ele><time>2026-04-27T14:22:18.328Z</time></trkpt><trkpt lat="44.3764062" lon="16.134173"><ele>395.0</ele><time>2026-04-27T14:22:19.328Z</time></trkpt><trkpt lat="44.3763211" lon="16.1341864"><ele>395.0</ele><time>2026-04-27T14:22:20.329Z</time></trkpt><trkpt lat="44.3762303" lon="16.134209"><ele>394.99999999999994</ele><time>2026-04-27T14:22:21.328Z</time></trkpt><trkpt lat="44.3761546" lon="16.1342354"><ele>395.0</ele><time>2026-04-27T14:22:22.328Z</time></trkpt><trkpt lat="44.376077" lon="16.134263"><ele>394.66666666666663</ele><time>2026-04-27T14:22:23.328Z</time></trkpt><trkpt lat="44.3759881" lon="16.134294"><ele>394.3333333333333</ele><time>2026-04-27T14:22:24.329Z</time></trkpt><trkpt lat="44.3759138" lon="16.1343326"><ele>394.0</ele><time>2026-04-27T14:22:25.328Z</time></trkpt><trkpt lat="44.3758513" lon="16.134367"><ele>393.66666666666663</ele><time>2026-04-27T14:22:26.329Z</time></trkpt><trkpt lat="44.3757814" lon="16.1344143"><ele>393.3333333333333</ele><time>2026-04-27T14:22:27.329Z</time></trkpt><trkpt lat="44.3757105" lon="16.1344664"><ele>393.0</ele><time>2026-04-27T14:22:28.329Z</time></trkpt><trkpt lat="44.3756329" lon="16.1345402"><ele>393.0</ele><time>2026-04-27T14:22:29.329Z</time></trkpt><trkpt lat="44.3755739" lon="16.1346096"><ele>393.0</ele><time>2026-04-27T14:22:30.328Z</time></trkpt><trkpt lat="44.375528" lon="16.1346847"><ele>393.0</ele><time>2026-04-27T14:22:31.328Z</time></trkpt><trkpt lat="44.3754895" lon="16.1347554"><ele>393.0</ele><time>2026-04-27T14:22:32.329Z</time></trkpt><trkpt lat="44.3754113" lon="16.1348867"><ele>393.0</ele><time>2026-04-27T14:22:34.328Z</time></trkpt><trkpt lat="44.375314" lon="16.1349622"><ele>393.0</ele><time>2026-04-27T14:22:36.328Z</time></trkpt><trkpt lat="44.3752414" lon="16.1349519"><ele>393.4</ele><time>2026-04-27T14:22:38.328Z</time></trkpt><trkpt lat="44.3751766" lon="16.1348886"><ele>393.79999999999995</ele><time>2026-04-27T14:22:41.328Z</time></trkpt><trkpt lat="44.3751651" lon="16.1347716"><ele>394.2</ele><time>2026-04-27T14:22:44.329Z</time></trkpt><trkpt lat="44.3752318" lon="16.134639"><ele>394.6</ele><time>2026-04-27T14:22:46.329Z</time></trkpt><trkpt lat="44.3752842" lon="16.1345502"><ele>395.0</ele><time>2026-04-27T14:22:47.329Z</time></trkpt><trkpt lat="44.375345" lon="16.134447"><ele>394.5</ele><time>2026-04-27T14:22:48.329Z</time></trkpt><trkpt lat="44.3754126" lon="16.1343265"><ele>394.0</ele><time>2026-04-27T14:22:49.328Z</time></trkpt><trkpt lat="44.3754876" lon="16.1342005"><ele>393.5</ele><time>2026-04-27T14:22:50.329Z</time></trkpt><trkpt lat="44.3755632" lon="16.1340614"><ele>393.0</ele><time>2026-04-27T14:22:51.329Z</time></trkpt><trkpt lat="44.3756422" lon="16.1339198"><ele>393.33333333333337</ele><time>2026-04-27T14:22:52.328Z</time></trkpt><trkpt lat="44.3757285" lon="16.1337763"><ele>393.6666666666667</ele><time>2026-04-27T14:22:53.329Z</time></trkpt><trkpt lat="44.3758206" lon="16.1336222"><ele>394.0</ele><time>2026-04-27T14:22:54.328Z</time></trkpt><trkpt lat="44.3760832" lon="16.1331494"><ele>394.0</ele><time>2026-04-27T14:22:57.329Z</time></trkpt><trkpt lat="44.3761721" lon="16.1329927"><ele>394.0</ele><time>2026-04-27T14:22:58.329Z</time></trkpt><trkpt lat="44.3762672" lon="16.1328278"><ele>394.0</ele><time>2026-04-27T14:22:59.329Z</time></trkpt><trkpt lat="44.3763649" lon="16.1326658"><ele>394.0</ele><time>2026-04-27T14:23:00.328Z</time></trkpt><trkpt lat="44.3764576" lon="16.1325026"><ele>393.0</ele><time>2026-04-27T14:23:01.328Z</time></trkpt><trkpt lat="44.3765494" lon="16.1323419"><ele>392.0</ele><time>2026-04-27T14:23:02.328Z</time></trkpt><trkpt lat="44.3766412" lon="16.1321828"><ele>391.0</ele><time>2026-04-27T14:23:03.328Z</time></trkpt><trkpt lat="44.376732" lon="16.1320267"><ele>390.0</ele><time>2026-04-27T14:23:04.328Z</time></trkpt><trkpt lat="44.3768191" lon="16.1318689"><ele>390.0</ele><time>2026-04-27T14:23:05.328Z</time></trkpt><trkpt lat="44.3769041" lon="16.1317068"><ele>390.0</ele><time>2026-04-27T14:23:06.328Z</time></trkpt><trkpt lat="44.3769905" lon="16.1315517"><ele>390.0</ele><time>2026-04-27T14:23:07.329Z</time></trkpt><trkpt lat="44.3770844" lon="16.1313952"><ele>390.0</ele><time>2026-04-27T14:23:08.328Z</time></trkpt><trkpt lat="44.3771796" lon="16.1312358"><ele>389.66666666666663</ele><time>2026-04-27T14:23:09.328Z</time></trkpt><trkpt lat="44.377271" lon="16.1310762"><ele>389.3333333333333</ele><time>2026-04-27T14:23:10.328Z</time></trkpt><trkpt lat="44.3773682" lon="16.130911"><ele>389.0</ele><time>2026-04-27T14:23:11.329Z</time></trkpt><trkpt lat="44.3774655" lon="16.1307469"><ele>390.0</ele><time>2026-04-27T14:23:12.328Z</time></trkpt><trkpt lat="44.3775651" lon="16.13058"><ele>391.0</ele><time>2026-04-27T14:23:13.329Z</time></trkpt><trkpt lat="44.3776669" lon="16.1304042"><ele>392.0</ele><time>2026-04-27T14:23:14.329Z</time></trkpt><trkpt lat="44.377766" lon="16.1302314"><ele>392.0</ele><time>2026-04-27T14:23:15.328Z</time></trkpt><trkpt lat="44.3778615" lon="16.1300616"><ele>392.0</ele><time>2026-04-27T14:23:16.328Z</time></trkpt><trkpt lat="44.3779594" lon="16.129893"><ele>392.0</ele><time>2026-04-27T14:23:17.328Z</time></trkpt><trkpt lat="44.3780601" lon="16.1297234"><ele>392.3333333333333</ele><time>2026-04-27T14:23:18.328Z</time></trkpt><trkpt lat="44.3781594" lon="16.1295585"><ele>392.66666666666663</ele><time>2026-04-27T14:23:19.328Z</time></trkpt><trkpt lat="44.3782509" lon="16.1293892"><ele>393.0</ele><time>2026-04-27T14:23:20.329Z</time></trkpt><trkpt lat="44.3783409" lon="16.1292239"><ele>393.0</ele><time>2026-04-27T14:23:21.329Z</time></trkpt><trkpt lat="44.3784332" lon="16.1290618"><ele>393.0</ele><time>2026-04-27T14:23:22.329Z</time></trkpt><trkpt lat="44.3785167" lon="16.1289049"><ele>393.0</ele><time>2026-04-27T14:23:23.328Z</time></trkpt><trkpt lat="44.3786082" lon="16.1287533"><ele>393.0</ele><time>2026-04-27T14:23:24.328Z</time></trkpt><trkpt lat="44.378696" lon="16.128604"><ele>392.25</ele><time>2026-04-27T14:23:25.328Z</time></trkpt><trkpt lat="44.3787827" lon="16.1284519"><ele>391.5</ele><time>2026-04-27T14:23:26.328Z</time></trkpt><trkpt lat="44.3788752" lon="16.1283027"><ele>390.75</ele><time>2026-04-27T14:23:27.328Z</time></trkpt><trkpt lat="44.378953" lon="16.1281524"><ele>390.0</ele><time>2026-04-27T14:23:28.329Z</time></trkpt><trkpt lat="44.3790286" lon="16.1279903"><ele>390.0</ele><time>2026-04-27T14:23:29.329Z</time></trkpt><trkpt lat="44.3791061" lon="16.1278342"><ele>390.0</ele><time>2026-04-27T14:23:30.329Z</time></trkpt><trkpt lat="44.3791689" lon="16.1276703"><ele>390.0</ele><time>2026-04-27T14:23:31.329Z</time></trkpt><trkpt lat="44.3792197" lon="16.1275053"><ele>390.0</ele><time>2026-04-27T14:23:32.328Z</time></trkpt><trkpt lat="44.3792665" lon="16.1273331"><ele>389.5</ele><time>2026-04-27T14:23:33.328Z</time></trkpt><trkpt lat="44.3793025" lon="16.1271587"><ele>389.0</ele><time>2026-04-27T14:23:34.329Z</time></trkpt><trkpt lat="44.3793308" lon="16.1269809"><ele>388.5</ele><time>2026-04-27T14:23:35.328Z</time></trkpt><trkpt lat="44.3793468" lon="16.1268135"><ele>388.0</ele><time>2026-04-27T14:23:36.329Z</time></trkpt><trkpt lat="44.3793545" lon="16.1266417"><ele>387.75</ele><time>2026-04-27T14:23:37.329Z</time></trkpt><trkpt lat="44.3793546" lon="16.1264647"><ele>387.5</ele><time>2026-04-27T14:23:38.328Z</time></trkpt><trkpt lat="44.3793484" lon="16.1262849"><ele>387.25</ele><time>2026-04-27T14:23:39.328Z</time></trkpt><trkpt lat="44.3793384" lon="16.1261104"><ele>387.0</ele><time>2026-04-27T14:23:40.328Z</time></trkpt><trkpt lat="44.3793268" lon="16.1259554"><ele>387.0</ele><time>2026-04-27T14:23:41.329Z</time></trkpt><trkpt lat="44.3793162" lon="16.1258068"><ele>387.0</ele><time>2026-04-27T14:23:42.329Z</time></trkpt><trkpt lat="44.379305" lon="16.1256755"><ele>387.0</ele><time>2026-04-27T14:23:43.329Z</time></trkpt><trkpt lat="44.3792958" lon="16.1255586"><ele>387.0</ele><time>2026-04-27T14:23:44.328Z</time></trkpt><trkpt lat="44.3792831" lon="16.1254612"><ele>387.0</ele><time>2026-04-27T14:23:45.329Z</time></trkpt><trkpt lat="44.3792297" lon="16.1253218"><ele>387.3333333333333</ele><time>2026-04-27T14:23:47.328Z</time></trkpt><trkpt lat="44.3791295" lon="16.1252757"><ele>387.66666666666663</ele><time>2026-04-27T14:23:49.328Z</time></trkpt><trkpt lat="44.3790635" lon="16.125299"><ele>388.0</ele><time>2026-04-27T14:23:50.328Z</time></trkpt><trkpt lat="44.3789938" lon="16.1253393"><ele>388.3333333333333</ele><time>2026-04-27T14:23:51.328Z</time></trkpt><trkpt lat="44.3789281" lon="16.1254016"><ele>388.66666666666663</ele><time>2026-04-27T14:23:52.328Z</time></trkpt><trkpt lat="44.3788571" lon="16.125493"><ele>389.0</ele><time>2026-04-27T14:23:53.329Z</time></trkpt><trkpt lat="44.3787804" lon="16.1255925"><ele>389.25</ele><time>2026-04-27T14:23:54.328Z</time></trkpt><trkpt lat="44.3786915" lon="16.12569"><ele>389.5</ele><time>2026-04-27T14:23:55.329Z</time></trkpt><trkpt lat="44.3785952" lon="16.1257867"><ele>389.75</ele><time>2026-04-27T14:23:56.328Z</time></trkpt><trkpt lat="44.3784869" lon="16.1258734"><ele>390.0</ele><time>2026-04-27T14:23:57.328Z</time></trkpt><trkpt lat="44.3783643" lon="16.1259395"><ele>390.5</ele><time>2026-04-27T14:23:58.329Z</time></trkpt><trkpt lat="44.3782371" lon="16.1259936"><ele>391.0</ele><time>2026-04-27T14:23:59.328Z</time></trkpt><trkpt lat="44.3781061" lon="16.1260315"><ele>391.5</ele><time>2026-04-27T14:24:00.328Z</time></trkpt><trkpt lat="44.3779723" lon="16.1260487"><ele>392.0</ele><time>2026-04-27T14:24:01.329Z</time></trkpt><trkpt lat="44.3778354" lon="16.1260349"><ele>394.25</ele><time>2026-04-27T14:24:02.329Z</time></trkpt><trkpt lat="44.3777017" lon="16.1260074"><ele>396.5</ele><time>2026-04-27T14:24:03.328Z</time></trkpt><trkpt lat="44.3775678" lon="16.1259512"><ele>398.75</ele><time>2026-04-27T14:24:04.328Z</time></trkpt><trkpt lat="44.3774395" lon="16.1258766"><ele>401.0</ele><time>2026-04-27T14:24:05.328Z</time></trkpt><trkpt lat="44.3773191" lon="16.1257817"><ele>399.25</ele><time>2026-04-27T14:24:06.329Z</time></trkpt><trkpt lat="44.3771967" lon="16.1256827"><ele>397.5</ele><time>2026-04-27T14:24:07.329Z</time></trkpt><trkpt lat="44.3770773" lon="16.1255672"><ele>395.75</ele><time>2026-04-27T14:24:08.328Z</time></trkpt><trkpt lat="44.3769578" lon="16.1254511"><ele>394.0</ele><time>2026-04-27T14:24:09.329Z</time></trkpt><trkpt lat="44.3768366" lon="16.1253372"><ele>399.0</ele><time>2026-04-27T14:24:10.328Z</time></trkpt><trkpt lat="44.3767138" lon="16.1252209"><ele>404.0</ele><time>2026-04-27T14:24:11.328Z</time></trkpt><trkpt lat="44.3765846" lon="16.1251008"><ele>409.0</ele><time>2026-04-27T14:24:12.328Z</time></trkpt><trkpt lat="44.3764543" lon="16.1249885"><ele>409.25</ele><time>2026-04-27T14:24:13.328Z</time></trkpt><trkpt lat="44.376319" lon="16.1248946"><ele>409.5</ele><time>2026-04-27T14:24:14.328Z</time></trkpt><trkpt lat="44.3761917" lon="16.1248018"><ele>409.75</ele><time>2026-04-27T14:24:15.329Z</time></trkpt><trkpt lat="44.3760584" lon="16.1247176"><ele>410.0</ele><time>2026-04-27T14:24:16.328Z</time></trkpt><trkpt lat="44.3759238" lon="16.1246388"><ele>410.0</ele><time>2026-04-27T14:24:17.328Z</time></trkpt><trkpt lat="44.3757873" lon="16.1245638"><ele>410.0</ele><time>2026-04-27T14:24:18.328Z</time></trkpt><trkpt lat="44.3756447" lon="16.1244942"><ele>410.0</ele><time>2026-04-27T14:24:19.328Z</time></trkpt><trkpt lat="44.3753567" lon="16.1243497"><ele>412.0</ele><time>2026-04-27T14:24:21.328Z</time></trkpt><trkpt lat="44.3752177" lon="16.1242738"><ele>414.0</ele><time>2026-04-27T14:24:22.328Z</time></trkpt><trkpt lat="44.375067" lon="16.1242104"><ele>416.0</ele><time>2026-04-27T14:24:23.329Z</time></trkpt><trkpt lat="44.3749181" lon="16.1241476"><ele>416.0</ele><time>2026-04-27T14:24:24.329Z</time></trkpt><trkpt lat="44.3747683" lon="16.1241023"><ele>416.0</ele><time>2026-04-27T14:24:25.328Z</time></trkpt><trkpt lat="44.3746114" lon="16.1240702"><ele>416.0</ele><time>2026-04-27T14:24:26.328Z</time></trkpt><trkpt lat="44.3744563" lon="16.1240665"><ele>417.3333333333333</ele><time>2026-04-27T14:24:27.329Z</time></trkpt><trkpt lat="44.3742989" lon="16.1240781"><ele>418.66666666666663</ele><time>2026-04-27T14:24:28.328Z</time></trkpt><trkpt lat="44.3741433" lon="16.1241186"><ele>420.0</ele><time>2026-04-27T14:24:29.328Z</time></trkpt><trkpt lat="44.3739869" lon="16.1241693"><ele>420.0</ele><time>2026-04-27T14:24:30.329Z</time></trkpt><trkpt lat="44.3738426" lon="16.1242769"><ele>420.0</ele><time>2026-04-27T14:24:31.328Z</time></trkpt><trkpt lat="44.3737047" lon="16.1243887"><ele>420.0</ele><time>2026-04-27T14:24:32.328Z</time></trkpt><trkpt lat="44.3735678" lon="16.1245132"><ele>420.0</ele><time>2026-04-27T14:24:33.328Z</time></trkpt><trkpt lat="44.3734306" lon="16.1246504"><ele>420.0</ele><time>2026-04-27T14:24:34.328Z</time></trkpt><trkpt lat="44.373301" lon="16.1247883"><ele>420.0</ele><time>2026-04-27T14:24:35.328Z</time></trkpt><trkpt lat="44.3731693" lon="16.1249203"><ele>423.0</ele><time>2026-04-27T14:24:36.328Z</time></trkpt><trkpt lat="44.3730312" lon="16.1250561"><ele>426.0</ele><time>2026-04-27T14:24:37.328Z</time></trkpt><trkpt lat="44.3728868" lon="16.1251817"><ele>429.0</ele><time>2026-04-27T14:24:38.329Z</time></trkpt><trkpt lat="44.3727359" lon="16.1252959"><ele>429.0</ele><time>2026-04-27T14:24:39.328Z</time></trkpt><trkpt lat="44.3725804" lon="16.1253908"><ele>429.0</ele><time>2026-04-27T14:24:40.328Z</time></trkpt><trkpt lat="44.3724281" lon="16.1254735"><ele>429.0</ele><time>2026-04-27T14:24:41.329Z</time></trkpt><trkpt lat="44.3722745" lon="16.1255283"><ele>430.66666666666663</ele><time>2026-04-27T14:24:42.328Z</time></trkpt><trkpt lat="44.3721234" lon="16.1255714"><ele>432.3333333333333</ele><time>2026-04-27T14:24:43.329Z</time></trkpt><trkpt lat="44.371968" lon="16.1255977"><ele>434.0</ele><time>2026-04-27T14:24:44.328Z</time></trkpt><trkpt lat="44.3718109" lon="16.1256117"><ele>434.0</ele><time>2026-04-27T14:24:45.328Z</time></trkpt><trkpt lat="44.3716548" lon="16.1256059"><ele>434.0</ele><time>2026-04-27T14:24:46.329Z</time></trkpt><trkpt lat="44.3714979" lon="16.125581"><ele>434.0</ele><time>2026-04-27T14:24:47.328Z</time></trkpt><trkpt lat="44.3713412" lon="16.1255389"><ele>436.0</ele><time>2026-04-27T14:24:48.328Z</time></trkpt><trkpt lat="44.371186" lon="16.1254827"><ele>438.0</ele><time>2026-04-27T14:24:49.329Z</time></trkpt><trkpt lat="44.3710316" lon="16.1254213"><ele>440.0</ele><time>2026-04-27T14:24:50.329Z</time></trkpt><trkpt lat="44.3708911" lon="16.1253249"><ele>440.0</ele><time>2026-04-27T14:24:51.329Z</time></trkpt><trkpt lat="44.3707584" lon="16.1252461"><ele>440.0</ele><time>2026-04-27T14:24:52.328Z</time></trkpt><trkpt lat="44.3706223" lon="16.1251612"><ele>440.0</ele><time>2026-04-27T14:24:53.329Z</time></trkpt><trkpt lat="44.3705026" lon="16.1250837"><ele>440.0</ele><time>2026-04-27T14:24:54.328Z</time></trkpt><trkpt lat="44.3703848" lon="16.1249959"><ele>439.25</ele><time>2026-04-27T14:24:55.328Z</time></trkpt><trkpt lat="44.370267" lon="16.1249199"><ele>438.5</ele><time>2026-04-27T14:24:56.328Z</time></trkpt><trkpt lat="44.3701493" lon="16.1248355"><ele>437.75</ele><time>2026-04-27T14:24:57.328Z</time></trkpt><trkpt lat="44.370022" lon="16.1247437"><ele>437.0</ele><time>2026-04-27T14:24:58.328Z</time></trkpt><trkpt lat="44.369899" lon="16.1246633"><ele>437.0</ele><time>2026-04-27T14:24:59.328Z</time></trkpt><trkpt lat="44.3697679" lon="16.1245893"><ele>437.0</ele><time>2026-04-27T14:25:00.328Z</time></trkpt><trkpt lat="44.3696415" lon="16.1245276"><ele>437.0</ele><time>2026-04-27T14:25:01.329Z</time></trkpt><trkpt lat="44.3695122" lon="16.1244802"><ele>437.0</ele><time>2026-04-27T14:25:02.328Z</time></trkpt><trkpt lat="44.3693773" lon="16.1244447"><ele>436.75</ele><time>2026-04-27T14:25:03.329Z</time></trkpt><trkpt lat="44.3692433" lon="16.1244229"><ele>436.5</ele><time>2026-04-27T14:25:04.328Z</time></trkpt><trkpt lat="44.3691037" lon="16.1244129"><ele>436.25</ele><time>2026-04-27T14:25:05.329Z</time></trkpt><trkpt lat="44.3689607" lon="16.1244071"><ele>436.0</ele><time>2026-04-27T14:25:06.328Z</time></trkpt><trkpt lat="44.3688236" lon="16.1243996"><ele>436.5</ele><time>2026-04-27T14:25:07.328Z</time></trkpt><trkpt lat="44.3686882" lon="16.1243924"><ele>437.0</ele><time>2026-04-27T14:25:08.328Z</time></trkpt><trkpt lat="44.36855" lon="16.1243923"><ele>437.5</ele><time>2026-04-27T14:25:09.329Z</time></trkpt><trkpt lat="44.3684146" lon="16.1243864"><ele>438.0</ele><time>2026-04-27T14:25:10.328Z</time></trkpt><trkpt lat="44.3682879" lon="16.1243765"><ele>438.0</ele><time>2026-04-27T14:25:11.328Z</time></trkpt><trkpt lat="44.3681524" lon="16.1243685"><ele>438.0</ele><time>2026-04-27T14:25:12.329Z</time></trkpt><trkpt lat="44.3680167" lon="16.1243612"><ele>438.0</ele><time>2026-04-27T14:25:13.329Z</time></trkpt><trkpt lat="44.3678742" lon="16.1243579"><ele>438.0</ele><time>2026-04-27T14:25:14.328Z</time></trkpt><trkpt lat="44.3677319" lon="16.1243481"><ele>437.0</ele><time>2026-04-27T14:25:15.328Z</time></trkpt><trkpt lat="44.367589" lon="16.1243388"><ele>436.0</ele><time>2026-04-27T14:25:16.329Z</time></trkpt><trkpt lat="44.3674485" lon="16.1243324"><ele>435.0</ele><time>2026-04-27T14:25:17.328Z</time></trkpt><trkpt lat="44.3673109" lon="16.1243242"><ele>434.0</ele><time>2026-04-27T14:25:18.328Z</time></trkpt><trkpt lat="44.3671818" lon="16.1243155"><ele>437.0</ele><time>2026-04-27T14:25:19.329Z</time></trkpt><trkpt lat="44.3670658" lon="16.1243001"><ele>440.0</ele><time>2026-04-27T14:25:20.328Z</time></trkpt><trkpt lat="44.3669449" lon="16.1242932"><ele>443.0</ele><time>2026-04-27T14:25:21.328Z</time></trkpt><trkpt lat="44.3668288" lon="16.1242893"><ele>446.0</ele><time>2026-04-27T14:25:22.329Z</time></trkpt><trkpt lat="44.3667167" lon="16.1242837"><ele>446.0</ele><time>2026-04-27T14:25:23.328Z</time></trkpt><trkpt lat="44.3666055" lon="16.1242803"><ele>446.0</ele><time>2026-04-27T14:25:24.329Z</time></trkpt><trkpt lat="44.3665011" lon="16.1242704"><ele>446.0</ele><time>2026-04-27T14:25:25.328Z</time></trkpt><trkpt lat="44.3664011" lon="16.1242639"><ele>446.0</ele><time>2026-04-27T14:25:26.328Z</time></trkpt><trkpt lat="44.3663011" lon="16.1242528"><ele>446.0</ele><time>2026-04-27T14:25:27.328Z</time></trkpt><trkpt lat="44.3661997" lon="16.1242412"><ele>445.6</ele><time>2026-04-27T14:25:28.328Z</time></trkpt><trkpt lat="44.3661032" lon="16.124233"><ele>445.20000000000005</ele><time>2026-04-27T14:25:29.328Z</time></trkpt><trkpt lat="44.3660035" lon="16.1242235"><ele>444.79999999999995</ele><time>2026-04-27T14:25:30.328Z</time></trkpt><trkpt lat="44.3659052" lon="16.1242123"><ele>444.4</ele><time>2026-04-27T14:25:31.328Z</time></trkpt><trkpt lat="44.3658193" lon="16.1241996"><ele>444.0</ele><time>2026-04-27T14:25:32.328Z</time></trkpt><trkpt lat="44.3657408" lon="16.1241945"><ele>444.0</ele><time>2026-04-27T14:25:33.328Z</time></trkpt><trkpt lat="44.3656778" lon="16.1241906"><ele>444.0</ele><time>2026-04-27T14:25:34.328Z</time></trkpt><trkpt lat="44.3655785" lon="16.1241676"><ele>444.0</ele><time>2026-04-27T14:25:36.328Z</time></trkpt><trkpt lat="44.3655152" lon="16.1241032"><ele>444.0</ele><time>2026-04-27T14:25:38.328Z</time></trkpt><trkpt lat="44.3655091" lon="16.1240152"><ele>444.0</ele><time>2026-04-27T14:25:40.329Z</time></trkpt><trkpt lat="44.3655076" lon="16.1238879"><ele>444.0</ele><time>2026-04-27T14:25:42.329Z</time></trkpt><trkpt lat="44.3655218" lon="16.123774"><ele>444.0</ele><time>2026-04-27T14:25:44.328Z</time></trkpt><trkpt lat="44.3655571" lon="16.1236937"><ele>444.0</ele><time>2026-04-27T14:25:47.329Z</time></trkpt><trkpt lat="44.3656457" lon="16.1237073"><ele>444.0</ele><time>2026-04-27T15:02:46.328Z</time></trkpt><trkpt lat="44.3657278" lon="16.1237309"><ele>444.0</ele><time>2026-04-27T15:02:49.329Z</time></trkpt><trkpt lat="44.365769" lon="16.123823"><ele>444.0</ele><time>2026-04-27T15:02:52.328Z</time></trkpt><trkpt lat="44.3657464" lon="16.1239664"><ele>444.0</ele><time>2026-04-27T15:02:54.328Z</time></trkpt><trkpt lat="44.3657519" lon="16.1240658"><ele>444.0</ele><time>2026-04-27T15:02:56.328Z</time></trkpt><trkpt lat="44.3657245" lon="16.1241581"><ele>444.0</ele><time>2026-04-27T15:03:00.328Z</time></trkpt><trkpt lat="44.3656449" lon="16.1241459"><ele>444.0</ele><time>2026-04-27T15:03:02.328Z</time></trkpt><trkpt lat="44.3655171" lon="16.1241352"><ele>444.0</ele><time>2026-04-27T15:03:04.328Z</time></trkpt><trkpt lat="44.3654449" lon="16.1241275"><ele>444.0</ele><time>2026-04-27T15:03:05.329Z</time></trkpt><trkpt lat="44.3653643" lon="16.1241202"><ele>444.0</ele><time>2026-04-27T15:03:06.328Z</time></trkpt><trkpt lat="44.3652923" lon="16.1241103"><ele>444.3333333333333</ele><time>2026-04-27T15:03:07.329Z</time></trkpt><trkpt lat="44.3652183" lon="16.1241002"><ele>444.66666666666663</ele><time>2026-04-27T15:03:08.328Z</time></trkpt><trkpt lat="44.3651416" lon="16.124095"><ele>445.0</ele><time>2026-04-27T15:03:09.328Z</time></trkpt><trkpt lat="44.3650664" lon="16.1240893"><ele>445.3333333333333</ele><time>2026-04-27T15:03:10.328Z</time></trkpt><trkpt lat="44.3649863" lon="16.1240775"><ele>445.66666666666663</ele><time>2026-04-27T15:03:11.328Z</time></trkpt><trkpt lat="44.3649229" lon="16.1240672"><ele>446.0</ele><time>2026-04-27T15:03:12.328Z</time></trkpt><trkpt lat="44.3647886" lon="16.1240491"><ele>445.99999999999994</ele><time>2026-04-27T15:03:14.329Z</time></trkpt><trkpt lat="44.3647112" lon="16.1240413"><ele>446.0</ele><time>2026-04-27T15:03:15.328Z</time></trkpt><trkpt lat="44.364623" lon="16.1240327"><ele>446.0</ele><time>2026-04-27T15:03:16.328Z</time></trkpt><trkpt lat="44.3645318" lon="16.1240278"><ele>446.0</ele><time>2026-04-27T15:03:17.328Z</time></trkpt><trkpt lat="44.3644402" lon="16.1240154"><ele>445.99999999999994</ele><time>2026-04-27T15:03:18.328Z</time></trkpt><trkpt lat="44.3643514" lon="16.1240047"><ele>446.0</ele><time>2026-04-27T15:03:19.328Z</time></trkpt><trkpt lat="44.3642597" lon="16.1239962"><ele>446.0</ele><time>2026-04-27T15:03:20.328Z</time></trkpt><trkpt lat="44.3641614" lon="16.1239876"><ele>446.0</ele><time>2026-04-27T15:03:21.329Z</time></trkpt><trkpt lat="44.3639574" lon="16.1239574"><ele>446.0</ele><time>2026-04-27T15:03:23.329Z</time></trkpt><trkpt lat="44.3638446" lon="16.1239425"><ele>446.0</ele><time>2026-04-27T15:03:24.328Z</time></trkpt><trkpt lat="44.363734" lon="16.123927"><ele>445.0</ele><time>2026-04-27T15:03:25.328Z</time></trkpt><trkpt lat="44.3636289" lon="16.1239116"><ele>444.0</ele><time>2026-04-27T15:03:26.328Z</time></trkpt><trkpt lat="44.3635232" lon="16.1238956"><ele>443.0</ele><time>2026-04-27T15:03:27.329Z</time></trkpt><trkpt lat="44.3634225" lon="16.1238838"><ele>442.0</ele><time>2026-04-27T15:03:28.328Z</time></trkpt><trkpt lat="44.363327" lon="16.1238692"><ele>441.0</ele><time>2026-04-27T15:03:29.329Z</time></trkpt><trkpt lat="44.363235" lon="16.1238615"><ele>441.0</ele><time>2026-04-27T15:03:30.328Z</time></trkpt><trkpt lat="44.363145" lon="16.1238407"><ele>441.0</ele><time>2026-04-27T15:03:31.328Z</time></trkpt><trkpt lat="44.3630458" lon="16.1238137"><ele>441.0</ele><time>2026-04-27T15:03:32.328Z</time></trkpt><trkpt lat="44.3628478" lon="16.123757"><ele>441.0</ele><time>2026-04-27T15:03:34.328Z</time></trkpt><trkpt lat="44.3627364" lon="16.1237266"><ele>440.75</ele><time>2026-04-27T15:03:35.329Z</time></trkpt><trkpt lat="44.3626283" lon="16.1236908"><ele>440.5</ele><time>2026-04-27T15:03:36.329Z</time></trkpt><trkpt lat="44.3625102" lon="16.1236609"><ele>440.25</ele><time>2026-04-27T15:03:37.329Z</time></trkpt><trkpt lat="44.3623927" lon="16.1236297"><ele>440.0</ele><time>2026-04-27T15:03:38.329Z</time></trkpt><trkpt lat="44.3622749" lon="16.123603"><ele>440.5</ele><time>2026-04-27T15:03:39.328Z</time></trkpt><trkpt lat="44.3621615" lon="16.1235691"><ele>441.0</ele><time>2026-04-27T15:03:40.328Z</time></trkpt><trkpt lat="44.3620452" lon="16.1235342"><ele>441.5</ele><time>2026-04-27T15:03:41.329Z</time></trkpt><trkpt lat="44.3619213" lon="16.1235095"><ele>442.0</ele><time>2026-04-27T15:03:42.328Z</time></trkpt><trkpt lat="44.3617979" lon="16.1234824"><ele>442.0</ele><time>2026-04-27T15:03:43.328Z</time></trkpt><trkpt lat="44.361553" lon="16.1234406"><ele>442.0</ele><time>2026-04-27T15:03:45.328Z</time></trkpt><trkpt lat="44.3614348" lon="16.1234234"><ele>442.0</ele><time>2026-04-27T15:03:46.328Z</time></trkpt><trkpt lat="44.361326" lon="16.1234113"><ele>443.0</ele><time>2026-04-27T15:03:47.329Z</time></trkpt><trkpt lat="44.3612165" lon="16.1234012"><ele>444.0</ele><time>2026-04-27T15:03:48.328Z</time></trkpt><trkpt lat="44.361108" lon="16.1233878"><ele>445.0</ele><time>2026-04-27T15:03:49.328Z</time></trkpt><trkpt lat="44.3609925" lon="16.1233737"><ele>446.0</ele><time>2026-04-27T15:03:50.328Z</time></trkpt><trkpt lat="44.3608717" lon="16.1233579"><ele>446.0</ele><time>2026-04-27T15:03:51.328Z</time></trkpt><trkpt lat="44.3607492" lon="16.1233425"><ele>446.0</ele><time>2026-04-27T15:03:52.329Z</time></trkpt><trkpt lat="44.3606195" lon="16.1233266"><ele>446.0</ele><time>2026-04-27T15:03:53.328Z</time></trkpt><trkpt lat="44.3604874" lon="16.1233147"><ele>446.0</ele><time>2026-04-27T15:03:54.328Z</time></trkpt><trkpt lat="44.3602118" lon="16.1232856"><ele>447.25</ele><time>2026-04-27T15:03:56.328Z</time></trkpt><trkpt lat="44.360072" lon="16.1232717"><ele>448.5</ele><time>2026-04-27T15:03:57.328Z</time></trkpt><trkpt lat="44.3599412" lon="16.123257"><ele>449.75</ele><time>2026-04-27T15:03:58.328Z</time></trkpt><trkpt lat="44.3598062" lon="16.123237"><ele>451.0</ele><time>2026-04-27T15:03:59.328Z</time></trkpt><trkpt lat="44.3596723" lon="16.1232095"><ele>452.75</ele><time>2026-04-27T15:04:00.328Z</time></trkpt><trkpt lat="44.3595494" lon="16.1231628"><ele>454.5</ele><time>2026-04-27T15:04:01.329Z</time></trkpt><trkpt lat="44.359421" lon="16.1230965"><ele>456.25</ele><time>2026-04-27T15:04:02.329Z</time></trkpt><trkpt lat="44.3593068" lon="16.1229983"><ele>458.0</ele><time>2026-04-27T15:04:03.328Z</time></trkpt><trkpt lat="44.3592099" lon="16.1228726"><ele>458.0</ele><time>2026-04-27T15:04:04.328Z</time></trkpt><trkpt lat="44.3591236" lon="16.1227292"><ele>458.0</ele><time>2026-04-27T15:04:05.328Z</time></trkpt><trkpt lat="44.3590484" lon="16.1225694"><ele>458.0</ele><time>2026-04-27T15:04:06.328Z</time></trkpt><trkpt lat="44.3589804" lon="16.1224005"><ele>458.0</ele><time>2026-04-27T15:04:07.328Z</time></trkpt><trkpt lat="44.3589126" lon="16.1222183"><ele>456.5</ele><time>2026-04-27T15:04:08.328Z</time></trkpt><trkpt lat="44.3588373" lon="16.1220421"><ele>455.0</ele><time>2026-04-27T15:04:09.328Z</time></trkpt><trkpt lat="44.3587499" lon="16.1218734"><ele>453.5</ele><time>2026-04-27T15:04:10.328Z</time></trkpt><trkpt lat="44.3586514" lon="16.1217147"><ele>452.0</ele><time>2026-04-27T15:04:11.328Z</time></trkpt><trkpt lat="44.358532" lon="16.1215819"><ele>453.66666666666663</ele><time>2026-04-27T15:04:12.328Z</time></trkpt><trkpt lat="44.3584012" lon="16.1214727"><ele>455.33333333333337</ele><time>2026-04-27T15:04:13.328Z</time></trkpt><trkpt lat="44.3582659" lon="16.1213856"><ele>457.0</ele><time>2026-04-27T15:04:14.328Z</time></trkpt><trkpt lat="44.3581204" lon="16.1213046"><ele>455.6666666666667</ele><time>2026-04-27T15:04:15.328Z</time></trkpt><trkpt lat="44.3579757" lon="16.1212432"><ele>454.33333333333337</ele><time>2026-04-27T15:04:16.328Z</time></trkpt><trkpt lat="44.357826" lon="16.1211828"><ele>453.0</ele><time>2026-04-27T15:04:17.328Z</time></trkpt><trkpt lat="44.3576783" lon="16.1211167"><ele>453.0</ele><time>2026-04-27T15:04:18.329Z</time></trkpt><trkpt lat="44.3575256" lon="16.1210537"><ele>453.0</ele><time>2026-04-27T15:04:19.329Z</time></trkpt><trkpt lat="44.357372" lon="16.1209935"><ele>453.0</ele><time>2026-04-27T15:04:20.328Z</time></trkpt><trkpt lat="44.3572182" lon="16.1209287"><ele>453.0</ele><time>2026-04-27T15:04:21.328Z</time></trkpt><trkpt lat="44.357059" lon="16.1208681"><ele>453.0</ele><time>2026-04-27T15:04:22.329Z</time></trkpt><trkpt lat="44.3568948" lon="16.1208066"><ele>453.0</ele><time>2026-04-27T15:04:23.328Z</time></trkpt><trkpt lat="44.3567266" lon="16.120755"><ele>453.0</ele><time>2026-04-27T15:04:24.328Z</time></trkpt><trkpt lat="44.3565563" lon="16.1207085"><ele>453.0</ele><time>2026-04-27T15:04:25.328Z</time></trkpt><trkpt lat="44.3563795" lon="16.1206609"><ele>453.0</ele><time>2026-04-27T15:04:26.328Z</time></trkpt><trkpt lat="44.3560231" lon="16.1205632"><ele>453.0</ele><time>2026-04-27T15:04:28.328Z</time></trkpt><trkpt lat="44.3558411" lon="16.120519"><ele>453.0</ele><time>2026-04-27T15:04:29.329Z</time></trkpt><trkpt lat="44.3556648" lon="16.1204753"><ele>453.0</ele><time>2026-04-27T15:04:30.328Z</time></trkpt><trkpt lat="44.3555075" lon="16.1204178"><ele>453.25</ele><time>2026-04-27T15:04:31.328Z</time></trkpt><trkpt lat="44.3553573" lon="16.1203534"><ele>453.5</ele><time>2026-04-27T15:04:32.328Z</time></trkpt><trkpt lat="44.3552234" lon="16.1202811"><ele>453.75</ele><time>2026-04-27T15:04:33.328Z</time></trkpt><trkpt lat="44.3551151" lon="16.1201644"><ele>454.0</ele><time>2026-04-27T15:04:34.328Z</time></trkpt><trkpt lat="44.3550061" lon="16.1200438"><ele>454.0</ele><time>2026-04-27T15:04:35.328Z</time></trkpt><trkpt lat="44.3549146" lon="16.1199002"><ele>454.0</ele><time>2026-04-27T15:04:36.328Z</time></trkpt><trkpt lat="44.3547808" lon="16.1195488"><ele>454.0</ele><time>2026-04-27T15:04:38.329Z</time></trkpt><trkpt lat="44.3547314" lon="16.1193489"><ele>454.6666666666667</ele><time>2026-04-27T15:04:39.329Z</time></trkpt><trkpt lat="44.3546887" lon="16.1191393"><ele>455.33333333333337</ele><time>2026-04-27T15:04:40.328Z</time></trkpt><trkpt lat="44.3546513" lon="16.1189252"><ele>456.0</ele><time>2026-04-27T15:04:41.328Z</time></trkpt><trkpt lat="44.3546064" lon="16.1187115"><ele>457.33333333333337</ele><time>2026-04-27T15:04:42.328Z</time></trkpt><trkpt lat="44.3545541" lon="16.1185032"><ele>458.6666666666667</ele><time>2026-04-27T15:04:43.328Z</time></trkpt><trkpt lat="44.3544903" lon="16.1183017"><ele>460.0</ele><time>2026-04-27T15:04:44.329Z</time></trkpt><trkpt lat="44.3544229" lon="16.11811"><ele>463.0</ele><time>2026-04-27T15:04:45.328Z</time></trkpt><trkpt lat="44.354347" lon="16.1179284"><ele>466.0</ele><time>2026-04-27T15:04:46.329Z</time></trkpt><trkpt lat="44.3541816" lon="16.1175742"><ele>466.6666666666667</ele><time>2026-04-27T15:04:48.328Z</time></trkpt><trkpt lat="44.3541004" lon="16.1173985"><ele>467.33333333333337</ele><time>2026-04-27T15:04:49.328Z</time></trkpt><trkpt lat="44.3540257" lon="16.1172144"><ele>468.0</ele><time>2026-04-27T15:04:50.329Z</time></trkpt><trkpt lat="44.353945" lon="16.1170384"><ele>468.5</ele><time>2026-04-27T15:04:51.328Z</time></trkpt><trkpt lat="44.3538635" lon="16.1168741"><ele>469.0</ele><time>2026-04-27T15:04:52.328Z</time></trkpt><trkpt lat="44.3537784" lon="16.1167066"><ele>469.5</ele><time>2026-04-27T15:04:53.328Z</time></trkpt><trkpt lat="44.3536765" lon="16.1165572"><ele>470.0</ele><time>2026-04-27T15:04:54.329Z</time></trkpt><trkpt lat="44.35357" lon="16.1164093"><ele>470.0</ele><time>2026-04-27T15:04:55.328Z</time></trkpt><trkpt lat="44.353442" lon="16.1162892"><ele>470.0</ele><time>2026-04-27T15:04:56.329Z</time></trkpt><trkpt lat="44.3533055" lon="16.1161768"><ele>470.0</ele><time>2026-04-27T15:04:57.328Z</time></trkpt><trkpt lat="44.3531612" lon="16.1160856"><ele>468.3333333333333</ele><time>2026-04-27T15:04:58.328Z</time></trkpt><trkpt lat="44.3530002" lon="16.1160184"><ele>466.66666666666663</ele><time>2026-04-27T15:04:59.329Z</time></trkpt><trkpt lat="44.3528322" lon="16.1159732"><ele>465.0</ele><time>2026-04-27T15:05:00.329Z</time></trkpt><trkpt lat="44.3526579" lon="16.115939"><ele>465.0</ele><time>2026-04-27T15:05:01.328Z</time></trkpt><trkpt lat="44.3524829" lon="16.1159168"><ele>465.0</ele><time>2026-04-27T15:05:02.328Z</time></trkpt><trkpt lat="44.3523043" lon="16.1158939"><ele>465.0</ele><time>2026-04-27T15:05:03.328Z</time></trkpt><trkpt lat="44.3521421" lon="16.1158666"><ele>465.0</ele><time>2026-04-27T15:05:04.329Z</time></trkpt><trkpt lat="44.3519851" lon="16.11584"><ele>465.0</ele><time>2026-04-27T15:05:05.328Z</time></trkpt><trkpt lat="44.3518227" lon="16.115803"><ele>465.0</ele><time>2026-04-27T15:05:06.328Z</time></trkpt><trkpt lat="44.3516657" lon="16.1157457"><ele>463.5</ele><time>2026-04-27T15:05:07.329Z</time></trkpt><trkpt lat="44.3515006" lon="16.1156836"><ele>462.0</ele><time>2026-04-27T15:05:08.328Z</time></trkpt><trkpt lat="44.3511701" lon="16.115538"><ele>464.33333333333337</ele><time>2026-04-27T15:05:10.328Z</time></trkpt><trkpt lat="44.3510028" lon="16.1154582"><ele>466.6666666666667</ele><time>2026-04-27T15:05:11.328Z</time></trkpt><trkpt lat="44.3508385" lon="16.1153823"><ele>469.0</ele><time>2026-04-27T15:05:12.328Z</time></trkpt><trkpt lat="44.350671" lon="16.1153205"><ele>472.0</ele><time>2026-04-27T15:05:13.329Z</time></trkpt><trkpt lat="44.3505052" lon="16.1152694"><ele>475.0</ele><time>2026-04-27T15:05:14.328Z</time></trkpt><trkpt lat="44.3503342" lon="16.1152252"><ele>478.0</ele><time>2026-04-27T15:05:15.329Z</time></trkpt><trkpt lat="44.3501652" lon="16.115198"><ele>478.0</ele><time>2026-04-27T15:05:16.328Z</time></trkpt><trkpt lat="44.3499939" lon="16.1151787"><ele>478.0</ele><time>2026-04-27T15:05:17.328Z</time></trkpt><trkpt lat="44.3498196" lon="16.115177"><ele>478.0</ele><time>2026-04-27T15:05:18.328Z</time></trkpt><trkpt lat="44.3494726" lon="16.1152175"><ele>478.6666666666667</ele><time>2026-04-27T15:05:20.329Z</time></trkpt><trkpt lat="44.3493039" lon="16.1152579"><ele>479.33333333333337</ele><time>2026-04-27T15:05:21.328Z</time></trkpt><trkpt lat="44.3491375" lon="16.1153082"><ele>480.0</ele><time>2026-04-27T15:05:22.329Z</time></trkpt><trkpt lat="44.3489686" lon="16.1153701"><ele>481.0</ele><time>2026-04-27T15:05:23.328Z</time></trkpt><trkpt lat="44.3488007" lon="16.1154196"><ele>482.0</ele><time>2026-04-27T15:05:24.329Z</time></trkpt><trkpt lat="44.348632" lon="16.1154734"><ele>483.0</ele><time>2026-04-27T15:05:25.328Z</time></trkpt><trkpt lat="44.3484685" lon="16.1155238"><ele>483.0</ele><time>2026-04-27T15:05:26.328Z</time></trkpt><trkpt lat="44.3482984" lon="16.1155674"><ele>483.0</ele><time>2026-04-27T15:05:27.328Z</time></trkpt><trkpt lat="44.3481268" lon="16.1155983"><ele>483.0</ele><time>2026-04-27T15:05:28.328Z</time></trkpt><trkpt lat="44.3477777" lon="16.1156145"><ele>484.33333333333337</ele><time>2026-04-27T15:05:30.329Z</time></trkpt><trkpt lat="44.3476036" lon="16.115609"><ele>485.6666666666667</ele><time>2026-04-27T15:05:31.329Z</time></trkpt><trkpt lat="44.3474299" lon="16.1155818"><ele>487.0</ele><time>2026-04-27T15:05:32.328Z</time></trkpt><trkpt lat="44.3472487" lon="16.1155479"><ele>485.33333333333337</ele><time>2026-04-27T15:05:33.328Z</time></trkpt><trkpt lat="44.347065" lon="16.1155072"><ele>483.66666666666663</ele><time>2026-04-27T15:05:34.328Z</time></trkpt><trkpt lat="44.3468833" lon="16.1154652"><ele>482.0</ele><time>2026-04-27T15:05:35.329Z</time></trkpt><trkpt lat="44.3467026" lon="16.1154215"><ele>482.0</ele><time>2026-04-27T15:05:36.329Z</time></trkpt><trkpt lat="44.3465169" lon="16.1153849"><ele>482.0</ele><time>2026-04-27T15:05:37.328Z</time></trkpt><trkpt lat="44.3463321" lon="16.1153486"><ele>482.0</ele><time>2026-04-27T15:05:38.329Z</time></trkpt><trkpt lat="44.3461465" lon="16.1153111"><ele>481.0</ele><time>2026-04-27T15:05:39.329Z</time></trkpt><trkpt lat="44.3459612" lon="16.1152762"><ele>480.0</ele><time>2026-04-27T15:05:40.328Z</time></trkpt><trkpt lat="44.3457772" lon="16.1152311"><ele>479.0</ele><time>2026-04-27T15:05:41.328Z</time></trkpt><trkpt lat="44.3455906" lon="16.1151933"><ele>481.0</ele><time>2026-04-27T15:05:42.329Z</time></trkpt><trkpt lat="44.3454006" lon="16.1151562"><ele>483.0</ele><time>2026-04-27T15:05:43.329Z</time></trkpt><trkpt lat="44.3452154" lon="16.1151159"><ele>485.0</ele><time>2026-04-27T15:05:44.329Z</time></trkpt><trkpt lat="44.3450406" lon="16.1150774"><ele>485.0</ele><time>2026-04-27T15:05:45.328Z</time></trkpt><trkpt lat="44.3448672" lon="16.1150383"><ele>485.0</ele><time>2026-04-27T15:05:46.329Z</time></trkpt><trkpt lat="44.3446903" lon="16.1150005"><ele>485.0</ele><time>2026-04-27T15:05:47.328Z</time></trkpt><trkpt lat="44.344512" lon="16.1149655"><ele>483.66666666666663</ele><time>2026-04-27T15:05:48.328Z</time></trkpt><trkpt lat="44.3443318" lon="16.1149287"><ele>482.33333333333337</ele><time>2026-04-27T15:05:49.328Z</time></trkpt><trkpt lat="44.344153" lon="16.1149066"><ele>481.0</ele><time>2026-04-27T15:05:50.328Z</time></trkpt><trkpt lat="44.3437849" lon="16.1149226"><ele>479.0</ele><time>2026-04-27T15:05:52.329Z</time></trkpt><trkpt lat="44.3436009" lon="16.114951"><ele>477.0</ele><time>2026-04-27T15:05:53.329Z</time></trkpt><trkpt lat="44.3434188" lon="16.1149823"><ele>475.0</ele><time>2026-04-27T15:05:54.328Z</time></trkpt><trkpt lat="44.3432488" lon="16.1150107"><ele>475.0</ele><time>2026-04-27T15:05:55.329Z</time></trkpt><trkpt lat="44.3430875" lon="16.1150237"><ele>475.0</ele><time>2026-04-27T15:05:56.328Z</time></trkpt><trkpt lat="44.3429275" lon="16.1150104"><ele>475.0</ele><time>2026-04-27T15:05:57.329Z</time></trkpt><trkpt lat="44.342779" lon="16.1149682"><ele>478.6666666666667</ele><time>2026-04-27T15:05:58.328Z</time></trkpt><trkpt lat="44.3426318" lon="16.1148849"><ele>482.33333333333337</ele><time>2026-04-27T15:05:59.328Z</time></trkpt><trkpt lat="44.342487" lon="16.1147853"><ele>486.0</ele><time>2026-04-27T15:06:00.328Z</time></trkpt><trkpt lat="44.3423369" lon="16.1146804"><ele>481.0</ele><time>2026-04-27T15:06:01.328Z</time></trkpt><trkpt lat="44.3420126" lon="16.1145035"><ele>476.0</ele><time>2026-04-27T15:06:03.328Z</time></trkpt><trkpt lat="44.3418386" lon="16.1144611"><ele>476.0</ele><time>2026-04-27T15:06:04.329Z</time></trkpt><trkpt lat="44.3416698" lon="16.114456"><ele>476.0</ele><time>2026-04-27T15:06:05.328Z</time></trkpt><trkpt lat="44.3414958" lon="16.1144893"><ele>476.0</ele><time>2026-04-27T15:06:06.328Z</time></trkpt><trkpt lat="44.3413217" lon="16.114548"><ele>478.3333333333333</ele><time>2026-04-27T15:06:07.328Z</time></trkpt><trkpt lat="44.3411533" lon="16.1146244"><ele>480.66666666666663</ele><time>2026-04-27T15:06:08.328Z</time></trkpt><trkpt lat="44.3409847" lon="16.1147075"><ele>483.0</ele><time>2026-04-27T15:06:09.328Z</time></trkpt><trkpt lat="44.3408149" lon="16.1147938"><ele>483.0</ele><time>2026-04-27T15:06:10.328Z</time></trkpt><trkpt lat="44.3406444" lon="16.1148812"><ele>483.0</ele><time>2026-04-27T15:06:11.328Z</time></trkpt><trkpt lat="44.3402956" lon="16.1150541"><ele>480.0</ele><time>2026-04-27T15:06:13.328Z</time></trkpt><trkpt lat="44.3401279" lon="16.1151341"><ele>477.0</ele><time>2026-04-27T15:06:14.328Z</time></trkpt><trkpt lat="44.3399687" lon="16.1152006"><ele>474.0</ele><time>2026-04-27T15:06:15.329Z</time></trkpt><trkpt lat="44.3398099" lon="16.1152338"><ele>471.66666666666663</ele><time>2026-04-27T15:06:16.328Z</time></trkpt><trkpt lat="44.3396499" lon="16.1152242"><ele>469.3333333333333</ele><time>2026-04-27T15:06:17.328Z</time></trkpt><trkpt lat="44.339498" lon="16.1151738"><ele>467.0</ele><time>2026-04-27T15:06:18.328Z</time></trkpt><trkpt lat="44.3393603" lon="16.1150783"><ele>467.0</ele><time>2026-04-27T15:06:19.328Z</time></trkpt><trkpt lat="44.3392363" lon="16.1149495"><ele>467.0</ele><time>2026-04-27T15:06:20.328Z</time></trkpt><trkpt lat="44.3391262" lon="16.114803"><ele>467.0</ele><time>2026-04-27T15:06:21.328Z</time></trkpt><trkpt lat="44.3390198" lon="16.1146294"><ele>469.5</ele><time>2026-04-27T15:06:22.328Z</time></trkpt><trkpt lat="44.3389218" lon="16.1144656"><ele>472.0</ele><time>2026-04-27T15:06:23.328Z</time></trkpt><trkpt lat="44.338814" lon="16.1143275"><ele>474.5</ele><time>2026-04-27T15:06:24.328Z</time></trkpt><trkpt lat="44.3386973" lon="16.114212"><ele>477.0</ele><time>2026-04-27T15:06:25.328Z</time></trkpt><trkpt lat="44.3385581" lon="16.114124"><ele>483.0</ele><time>2026-04-27T15:06:26.329Z</time></trkpt><trkpt lat="44.3384095" lon="16.1140631"><ele>489.0</ele><time>2026-04-27T15:06:27.328Z</time></trkpt><trkpt lat="44.3382521" lon="16.1140296"><ele>495.0</ele><time>2026-04-27T15:06:28.328Z</time></trkpt><trkpt lat="44.3380758" lon="16.1140119"><ele>496.66666666666663</ele><time>2026-04-27T15:06:29.328Z</time></trkpt><trkpt lat="44.3378938" lon="16.1140036"><ele>498.3333333333333</ele><time>2026-04-27T15:06:30.329Z</time></trkpt><trkpt lat="44.337705" lon="16.1139933"><ele>500.0</ele><time>2026-04-27T15:06:31.328Z</time></trkpt><trkpt lat="44.3375148" lon="16.1139826"><ele>500.0</ele><time>2026-04-27T15:06:32.328Z</time></trkpt><trkpt lat="44.3373155" lon="16.1139757"><ele>500.0</ele><time>2026-04-27T15:06:33.328Z</time></trkpt><trkpt lat="44.3371199" lon="16.1139783"><ele>500.0</ele><time>2026-04-27T15:06:34.328Z</time></trkpt><trkpt lat="44.3369132" lon="16.113992"><ele>504.0</ele><time>2026-04-27T15:06:35.328Z</time></trkpt><trkpt lat="44.3367152" lon="16.1140235"><ele>508.0</ele><time>2026-04-27T15:06:36.329Z</time></trkpt><trkpt lat="44.3365244" lon="16.1140538"><ele>512.0</ele><time>2026-04-27T15:06:37.328Z</time></trkpt><trkpt lat="44.3363374" lon="16.1140828"><ele>500.0</ele><time>2026-04-27T15:06:38.328Z</time></trkpt><trkpt lat="44.3361544" lon="16.1141014"><ele>488.0</ele><time>2026-04-27T15:06:39.328Z</time></trkpt><trkpt lat="44.3359789" lon="16.1141208"><ele>476.0</ele><time>2026-04-27T15:06:40.328Z</time></trkpt><trkpt lat="44.3358063" lon="16.1141228"><ele>476.0</ele><time>2026-04-27T15:06:41.328Z</time></trkpt><trkpt lat="44.3356265" lon="16.1141234"><ele>476.0</ele><time>2026-04-27T15:06:42.328Z</time></trkpt><trkpt lat="44.3354468" lon="16.1140958"><ele>476.0</ele><time>2026-04-27T15:06:43.329Z</time></trkpt><trkpt lat="44.3352739" lon="16.1140705"><ele>486.0</ele><time>2026-04-27T15:06:44.329Z</time></trkpt><trkpt lat="44.3350931" lon="16.1140283"><ele>496.0</ele><time>2026-04-27T15:06:45.328Z</time></trkpt><trkpt lat="44.3347291" lon="16.1139378"><ele>493.0</ele><time>2026-04-27T15:06:47.328Z</time></trkpt><trkpt lat="44.3345457" lon="16.1138898"><ele>490.0</ele><time>2026-04-27T15:06:48.329Z</time></trkpt><trkpt lat="44.3343569" lon="16.113841"><ele>487.0</ele><time>2026-04-27T15:06:49.328Z</time></trkpt><trkpt lat="44.3341768" lon="16.1137849"><ele>487.0</ele><time>2026-04-27T15:06:50.328Z</time></trkpt><trkpt lat="44.333998" lon="16.1137251"><ele>487.0</ele><time>2026-04-27T15:06:51.328Z</time></trkpt><trkpt lat="44.3338236" lon="16.1136479"><ele>487.0</ele><time>2026-04-27T15:06:52.329Z</time></trkpt><trkpt lat="44.3336538" lon="16.1135646"><ele>483.33333333333337</ele><time>2026-04-27T15:06:53.328Z</time></trkpt><trkpt lat="44.3334921" lon="16.1134595"><ele>479.66666666666663</ele><time>2026-04-27T15:06:54.328Z</time></trkpt><trkpt lat="44.3333255" lon="16.1133467"><ele>476.0</ele><time>2026-04-27T15:06:55.328Z</time></trkpt><trkpt lat="44.3330088" lon="16.1130947"><ele>474.3333333333333</ele><time>2026-04-27T15:06:57.328Z</time></trkpt><trkpt lat="44.3328542" lon="16.1129474"><ele>472.66666666666663</ele><time>2026-04-27T15:06:58.329Z</time></trkpt><trkpt lat="44.3326984" lon="16.1127975"><ele>471.0</ele><time>2026-04-27T15:06:59.328Z</time></trkpt><trkpt lat="44.3325422" lon="16.1126482"><ele>471.0</ele><time>2026-04-27T15:07:00.328Z</time></trkpt><trkpt lat="44.3323811" lon="16.1124978"><ele>471.0</ele><time>2026-04-27T15:07:01.328Z</time></trkpt><trkpt lat="44.3322158" lon="16.1123625"><ele>471.0</ele><time>2026-04-27T15:07:02.328Z</time></trkpt><trkpt lat="44.3320434" lon="16.1122357"><ele>470.0</ele><time>2026-04-27T15:07:03.329Z</time></trkpt><trkpt lat="44.3318701" lon="16.1121249"><ele>469.0</ele><time>2026-04-27T15:07:04.328Z</time></trkpt><trkpt lat="44.3316898" lon="16.1120365"><ele>468.0</ele><time>2026-04-27T15:07:05.329Z</time></trkpt><trkpt lat="44.3313186" lon="16.1119042"><ele>464.0</ele><time>2026-04-27T15:07:07.328Z</time></trkpt><trkpt lat="44.3311385" lon="16.1118481"><ele>460.0</ele><time>2026-04-27T15:07:08.328Z</time></trkpt><trkpt lat="44.3309549" lon="16.1117971"><ele>456.0</ele><time>2026-04-27T15:07:09.328Z</time></trkpt><trkpt lat="44.330768" lon="16.1117435"><ele>456.0</ele><time>2026-04-27T15:07:10.329Z</time></trkpt><trkpt lat="44.3305828" lon="16.1116872"><ele>456.0</ele><time>2026-04-27T15:07:11.328Z</time></trkpt><trkpt lat="44.3304006" lon="16.1116352"><ele>456.0</ele><time>2026-04-27T15:07:12.329Z</time></trkpt><trkpt lat="44.3302174" lon="16.1115829"><ele>457.66666666666663</ele><time>2026-04-27T15:07:13.328Z</time></trkpt><trkpt lat="44.3300365" lon="16.1115288"><ele>459.3333333333333</ele><time>2026-04-27T15:07:14.329Z</time></trkpt><trkpt lat="44.3298569" lon="16.1114789"><ele>461.0</ele><time>2026-04-27T15:07:15.328Z</time></trkpt><trkpt lat="44.3296793" lon="16.1114228"><ele>463.0</ele><time>2026-04-27T15:07:16.328Z</time></trkpt><trkpt lat="44.3294997" lon="16.1113711"><ele>465.0</ele><time>2026-04-27T15:07:17.328Z</time></trkpt><trkpt lat="44.3293307" lon="16.1113227"><ele>467.0</ele><time>2026-04-27T15:07:18.328Z</time></trkpt><trkpt lat="44.329157" lon="16.1112722"><ele>467.0</ele><time>2026-04-27T15:07:19.328Z</time></trkpt><trkpt lat="44.3289784" lon="16.111225"><ele>467.0</ele><time>2026-04-27T15:07:20.328Z</time></trkpt><trkpt lat="44.3288038" lon="16.1111764"><ele>467.0</ele><time>2026-04-27T15:07:21.329Z</time></trkpt><trkpt lat="44.3286259" lon="16.1111262"><ele>468.3333333333333</ele><time>2026-04-27T15:07:22.328Z</time></trkpt><trkpt lat="44.3284462" lon="16.1110732"><ele>469.66666666666663</ele><time>2026-04-27T15:07:23.328Z</time></trkpt><trkpt lat="44.3282667" lon="16.1110229"><ele>471.0</ele><time>2026-04-27T15:07:24.329Z</time></trkpt><trkpt lat="44.328089" lon="16.1109736"><ele>473.5</ele><time>2026-04-27T15:07:25.328Z</time></trkpt><trkpt lat="44.3279122" lon="16.1109209"><ele>476.0</ele><time>2026-04-27T15:07:26.328Z</time></trkpt><trkpt lat="44.3275625" lon="16.1108294"><ele>476.0</ele><time>2026-04-27T15:07:28.328Z</time></trkpt><trkpt lat="44.3273923" lon="16.1107707"><ele>476.0</ele><time>2026-04-27T15:07:29.329Z</time></trkpt><trkpt lat="44.3272203" lon="16.1107175"><ele>476.0</ele><time>2026-04-27T15:07:30.329Z</time></trkpt><trkpt lat="44.3270407" lon="16.1106653"><ele>474.3333333333333</ele><time>2026-04-27T15:07:31.328Z</time></trkpt><trkpt lat="44.3268658" lon="16.1106136"><ele>472.66666666666663</ele><time>2026-04-27T15:07:32.328Z</time></trkpt><trkpt lat="44.3266861" lon="16.1105655"><ele>471.0</ele><time>2026-04-27T15:07:33.328Z</time></trkpt><trkpt lat="44.3265088" lon="16.1105207"><ele>473.66666666666663</ele><time>2026-04-27T15:07:34.328Z</time></trkpt><trkpt lat="44.3263327" lon="16.1104874"><ele>476.3333333333333</ele><time>2026-04-27T15:07:35.328Z</time></trkpt><trkpt lat="44.3261545" lon="16.1104666"><ele>479.0</ele><time>2026-04-27T15:07:36.329Z</time></trkpt><trkpt lat="44.3259782" lon="16.1104583"><ele>479.0</ele><time>2026-04-27T15:07:37.328Z</time></trkpt><trkpt lat="44.3256215" lon="16.110462"><ele>479.0</ele><time>2026-04-27T15:07:39.328Z</time></trkpt><trkpt lat="44.3254443" lon="16.1104663"><ele>480.3333333333333</ele><time>2026-04-27T15:07:40.328Z</time></trkpt><trkpt lat="44.3252668" lon="16.1104608"><ele>481.66666666666663</ele><time>2026-04-27T15:07:41.328Z</time></trkpt><trkpt lat="44.3250876" lon="16.1104362"><ele>483.0</ele><time>2026-04-27T15:07:42.328Z</time></trkpt><trkpt lat="44.3249129" lon="16.1103776"><ele>483.0</ele><time>2026-04-27T15:07:43.328Z</time></trkpt><trkpt lat="44.3247415" lon="16.1102919"><ele>483.0</ele><time>2026-04-27T15:07:44.328Z</time></trkpt><trkpt lat="44.3245794" lon="16.1101813"><ele>483.0</ele><time>2026-04-27T15:07:45.328Z</time></trkpt><trkpt lat="44.324422" lon="16.1100509"><ele>482.66666666666663</ele><time>2026-04-27T15:07:46.328Z</time></trkpt><trkpt lat="44.324268" lon="16.1098984"><ele>482.3333333333333</ele><time>2026-04-27T15:07:47.328Z</time></trkpt><trkpt lat="44.3241176" lon="16.1097386"><ele>482.0</ele><time>2026-04-27T15:07:48.329Z</time></trkpt><trkpt lat="44.3239654" lon="16.1095828"><ele>483.0</ele><time>2026-04-27T15:07:49.328Z</time></trkpt><trkpt lat="44.3238069" lon="16.1094384"><ele>484.0</ele><time>2026-04-27T15:07:50.328Z</time></trkpt><trkpt lat="44.3236514" lon="16.1093033"><ele>485.0</ele><time>2026-04-27T15:07:51.329Z</time></trkpt><trkpt lat="44.3234939" lon="16.1091957"><ele>485.0</ele><time>2026-04-27T15:07:52.328Z</time></trkpt><trkpt lat="44.3233271" lon="16.1091164"><ele>485.0</ele><time>2026-04-27T15:07:53.328Z</time></trkpt><trkpt lat="44.3231554" lon="16.1090687"><ele>485.0</ele><time>2026-04-27T15:07:54.328Z</time></trkpt><trkpt lat="44.3229835" lon="16.1090522"><ele>485.3333333333333</ele><time>2026-04-27T15:07:55.328Z</time></trkpt><trkpt lat="44.322813" lon="16.1090526"><ele>485.66666666666663</ele><time>2026-04-27T15:07:56.328Z</time></trkpt><trkpt lat="44.3226501" lon="16.1090734"><ele>486.0</ele><time>2026-04-27T15:07:57.328Z</time></trkpt><trkpt lat="44.3224928" lon="16.1090973"><ele>486.66666666666663</ele><time>2026-04-27T15:07:58.329Z</time></trkpt><trkpt lat="44.3221966" lon="16.1091513"><ele>487.3333333333333</ele><time>2026-04-27T15:08:00.329Z</time></trkpt><trkpt lat="44.3220469" lon="16.1091727"><ele>488.0</ele><time>2026-04-27T15:08:01.328Z</time></trkpt><trkpt lat="44.3219031" lon="16.1091834"><ele>488.0</ele><time>2026-04-27T15:08:02.329Z</time></trkpt><trkpt lat="44.3217665" lon="16.1091716"><ele>488.0</ele><time>2026-04-27T15:08:03.329Z</time></trkpt><trkpt lat="44.3216448" lon="16.1091476"><ele>488.0</ele><time>2026-04-27T15:08:04.328Z</time></trkpt><trkpt lat="44.3215326" lon="16.1091104"><ele>488.0</ele><time>2026-04-27T15:08:05.328Z</time></trkpt><trkpt lat="44.3214399" lon="16.1090666"><ele>488.2</ele><time>2026-04-27T15:08:06.328Z</time></trkpt><trkpt lat="44.3213546" lon="16.1090216"><ele>488.4</ele><time>2026-04-27T15:08:07.328Z</time></trkpt><trkpt lat="44.3212661" lon="16.108965"><ele>488.59999999999997</ele><time>2026-04-27T15:08:08.328Z</time></trkpt><trkpt lat="44.3211871" lon="16.108902"><ele>488.79999999999995</ele><time>2026-04-27T15:08:09.328Z</time></trkpt><trkpt lat="44.3211115" lon="16.1088321"><ele>489.0</ele><time>2026-04-27T15:08:10.328Z</time></trkpt><trkpt lat="44.3209848" lon="16.1086741"><ele>489.0</ele><time>2026-04-27T15:08:12.329Z</time></trkpt><trkpt lat="44.3209247" lon="16.1085846"><ele>489.0</ele><time>2026-04-27T15:08:13.328Z</time></trkpt><trkpt lat="44.3208656" lon="16.1084824"><ele>489.0</ele><time>2026-04-27T15:08:14.328Z</time></trkpt><trkpt lat="44.3208009" lon="16.1083665"><ele>489.0</ele><time>2026-04-27T15:08:15.328Z</time></trkpt><trkpt lat="44.3207268" lon="16.1082427"><ele>489.0</ele><time>2026-04-27T15:08:16.328Z</time></trkpt><trkpt lat="44.3206466" lon="16.1081053"><ele>490.33333333333337</ele><time>2026-04-27T15:08:17.328Z</time></trkpt><trkpt lat="44.3205665" lon="16.1079549"><ele>491.6666666666667</ele><time>2026-04-27T15:08:18.328Z</time></trkpt><trkpt lat="44.3204835" lon="16.1077984"><ele>493.0</ele><time>2026-04-27T15:08:19.329Z</time></trkpt><trkpt lat="44.3203077" lon="16.1074735"><ele>493.6666666666667</ele><time>2026-04-27T15:08:21.329Z</time></trkpt><trkpt lat="44.3202113" lon="16.1073194"><ele>494.33333333333337</ele><time>2026-04-27T15:08:22.328Z</time></trkpt><trkpt lat="44.3200981" lon="16.1071691"><ele>495.0</ele><time>2026-04-27T15:08:23.328Z</time></trkpt><trkpt lat="44.3199772" lon="16.1070263"><ele>495.0</ele><time>2026-04-27T15:08:24.328Z</time></trkpt><trkpt lat="44.3198428" lon="16.1068895"><ele>495.0</ele><time>2026-04-27T15:08:25.328Z</time></trkpt><trkpt lat="44.3197049" lon="16.1067711"><ele>495.0</ele><time>2026-04-27T15:08:26.328Z</time></trkpt><trkpt lat="44.319555" lon="16.1066712"><ele>495.5</ele><time>2026-04-27T15:08:27.329Z</time></trkpt><trkpt lat="44.3194017" lon="16.1065855"><ele>496.0</ele><time>2026-04-27T15:08:28.328Z</time></trkpt><trkpt lat="44.3190735" lon="16.1064733"><ele>496.0</ele><time>2026-04-27T15:08:30.329Z</time></trkpt><trkpt lat="44.3189097" lon="16.1064574"><ele>496.0</ele><time>2026-04-27T15:08:31.328Z</time></trkpt><trkpt lat="44.3187435" lon="16.1064517"><ele>496.0</ele><time>2026-04-27T15:08:32.329Z</time></trkpt><trkpt lat="44.3185767" lon="16.1064705"><ele>498.0</ele><time>2026-04-27T15:08:33.328Z</time></trkpt><trkpt lat="44.3184078" lon="16.1065126"><ele>500.0</ele><time>2026-04-27T15:08:34.329Z</time></trkpt><trkpt lat="44.3182378" lon="16.1065692"><ele>502.0</ele><time>2026-04-27T15:08:35.328Z</time></trkpt><trkpt lat="44.318071" lon="16.1066303"><ele>504.6666666666667</ele><time>2026-04-27T15:08:36.328Z</time></trkpt><trkpt lat="44.31791" lon="16.1066983"><ele>507.33333333333337</ele><time>2026-04-27T15:08:37.329Z</time></trkpt><trkpt lat="44.3177592" lon="16.1067635"><ele>510.0</ele><time>2026-04-27T15:08:38.329Z</time></trkpt><trkpt lat="44.3176173" lon="16.1068255"><ele>510.0</ele><time>2026-04-27T15:08:39.328Z</time></trkpt><trkpt lat="44.3174786" lon="16.1068809"><ele>510.0</ele><time>2026-04-27T15:08:40.329Z</time></trkpt><trkpt lat="44.3173322" lon="16.1069374"><ele>510.0</ele><time>2026-04-27T15:08:41.328Z</time></trkpt><trkpt lat="44.317185" lon="16.10698"><ele>510.0</ele><time>2026-04-27T15:08:42.328Z</time></trkpt><trkpt lat="44.3170205" lon="16.1070169"><ele>509.66666666666663</ele><time>2026-04-27T15:08:43.328Z</time></trkpt><trkpt lat="44.3168599" lon="16.1070469"><ele>509.3333333333333</ele><time>2026-04-27T15:08:44.328Z</time></trkpt><trkpt lat="44.3166939" lon="16.1070653"><ele>509.0</ele><time>2026-04-27T15:08:45.329Z</time></trkpt><trkpt lat="44.3165299" lon="16.107065"><ele>511.0</ele><time>2026-04-27T15:08:46.328Z</time></trkpt><trkpt lat="44.3163627" lon="16.1070435"><ele>513.0</ele><time>2026-04-27T15:08:47.329Z</time></trkpt><trkpt lat="44.316193" lon="16.1070113"><ele>515.0</ele><time>2026-04-27T15:08:48.328Z</time></trkpt><trkpt lat="44.316021" lon="16.1069729"><ele>515.0</ele><time>2026-04-27T15:08:49.328Z</time></trkpt><trkpt lat="44.3158483" lon="16.1069114"><ele>515.0</ele><time>2026-04-27T15:08:50.328Z</time></trkpt><trkpt lat="44.3156739" lon="16.106834"><ele>515.0</ele><time>2026-04-27T15:08:51.328Z</time></trkpt><trkpt lat="44.3155057" lon="16.1067422"><ele>515.0</ele><time>2026-04-27T15:08:52.329Z</time></trkpt><trkpt lat="44.3153393" lon="16.106648"><ele>515.0</ele><time>2026-04-27T15:08:53.329Z</time></trkpt><trkpt lat="44.3149967" lon="16.1064373"><ele>514.6666666666666</ele><time>2026-04-27T15:08:55.329Z</time></trkpt><trkpt lat="44.3148255" lon="16.1063321"><ele>514.3333333333334</ele><time>2026-04-27T15:08:56.328Z</time></trkpt><trkpt lat="44.3146569" lon="16.1062322"><ele>514.0</ele><time>2026-04-27T15:08:57.328Z</time></trkpt><trkpt lat="44.3144946" lon="16.1061384"><ele>512.3333333333334</ele><time>2026-04-27T15:08:58.328Z</time></trkpt><trkpt lat="44.3143448" lon="16.1060442"><ele>510.66666666666663</ele><time>2026-04-27T15:08:59.328Z</time></trkpt><trkpt lat="44.3142019" lon="16.1059535"><ele>509.0</ele><time>2026-04-27T15:09:00.328Z</time></trkpt><trkpt lat="44.3140618" lon="16.1058677"><ele>509.0</ele><time>2026-04-27T15:09:01.329Z</time></trkpt><trkpt lat="44.3139326" lon="16.1057879"><ele>509.0</ele><time>2026-04-27T15:09:02.328Z</time></trkpt><trkpt lat="44.3136925" lon="16.1056345"><ele>509.0</ele><time>2026-04-27T15:09:04.329Z</time></trkpt><trkpt lat="44.313581" lon="16.1055607"><ele>507.25</ele><time>2026-04-27T15:09:05.328Z</time></trkpt><trkpt lat="44.3134719" lon="16.1055019"><ele>505.5</ele><time>2026-04-27T15:09:06.329Z</time></trkpt><trkpt lat="44.3133576" lon="16.1054376"><ele>503.75</ele><time>2026-04-27T15:09:07.328Z</time></trkpt><trkpt lat="44.3132397" lon="16.105379"><ele>502.0</ele><time>2026-04-27T15:09:08.328Z</time></trkpt><trkpt lat="44.3131123" lon="16.105316"><ele>503.33333333333337</ele><time>2026-04-27T15:09:09.329Z</time></trkpt><trkpt lat="44.3129748" lon="16.1052579"><ele>504.66666666666663</ele><time>2026-04-27T15:09:10.328Z</time></trkpt><trkpt lat="44.3128314" lon="16.1052003"><ele>506.0</ele><time>2026-04-27T15:09:11.328Z</time></trkpt><trkpt lat="44.3126768" lon="16.1051521"><ele>506.0</ele><time>2026-04-27T15:09:12.329Z</time></trkpt><trkpt lat="44.3125133" lon="16.1051136"><ele>506.0</ele><time>2026-04-27T15:09:13.328Z</time></trkpt><trkpt lat="44.3123496" lon="16.1050854"><ele>506.0</ele><time>2026-04-27T15:09:14.329Z</time></trkpt><trkpt lat="44.3121825" lon="16.1050578"><ele>507.3333333333333</ele><time>2026-04-27T15:09:15.328Z</time></trkpt><trkpt lat="44.3120152" lon="16.1050343"><ele>508.66666666666663</ele><time>2026-04-27T15:09:16.328Z</time></trkpt><trkpt lat="44.3118422" lon="16.1050146"><ele>510.0</ele><time>2026-04-27T15:09:17.329Z</time></trkpt><trkpt lat="44.3116757" lon="16.105003"><ele>510.0</ele><time>2026-04-27T15:09:18.329Z</time></trkpt><trkpt lat="44.3115191" lon="16.1049914"><ele>510.0</ele><time>2026-04-27T15:09:19.329Z</time></trkpt><trkpt lat="44.3113594" lon="16.104983"><ele>510.0</ele><time>2026-04-27T15:09:20.329Z</time></trkpt><trkpt lat="44.3111982" lon="16.1049781"><ele>510.66666666666663</ele><time>2026-04-27T15:09:21.328Z</time></trkpt><trkpt lat="44.3110426" lon="16.1049656"><ele>511.3333333333333</ele><time>2026-04-27T15:09:22.328Z</time></trkpt><trkpt lat="44.3108904" lon="16.1049514"><ele>512.0</ele><time>2026-04-27T15:09:23.328Z</time></trkpt><trkpt lat="44.3107495" lon="16.1049358"><ele>512.0</ele><time>2026-04-27T15:09:24.328Z</time></trkpt><trkpt lat="44.3106118" lon="16.1049157"><ele>512.0</ele><time>2026-04-27T15:09:25.328Z</time></trkpt><trkpt lat="44.3104766" lon="16.1048752"><ele>512.0</ele><time>2026-04-27T15:09:26.328Z</time></trkpt><trkpt lat="44.3102092" lon="16.1047697"><ele>513.0</ele><time>2026-04-27T15:09:28.328Z</time></trkpt><trkpt lat="44.3100806" lon="16.1047018"><ele>514.0</ele><time>2026-04-27T15:09:29.328Z</time></trkpt><trkpt lat="44.3099559" lon="16.1046229"><ele>515.0</ele><time>2026-04-27T15:09:30.328Z</time></trkpt><trkpt lat="44.3098216" lon="16.1045421"><ele>516.0</ele><time>2026-04-27T15:09:31.329Z</time></trkpt><trkpt lat="44.309694" lon="16.1044509"><ele>516.25</ele><time>2026-04-27T15:09:32.328Z</time></trkpt><trkpt lat="44.309565" lon="16.1043554"><ele>516.5</ele><time>2026-04-27T15:09:33.329Z</time></trkpt><trkpt lat="44.309438" lon="16.1042534"><ele>516.75</ele><time>2026-04-27T15:09:34.329Z</time></trkpt><trkpt lat="44.3093149" lon="16.1041519"><ele>517.0</ele><time>2026-04-27T15:09:35.329Z</time></trkpt><trkpt lat="44.3091916" lon="16.1040504"><ele>519.6666666666667</ele><time>2026-04-27T15:09:36.329Z</time></trkpt><trkpt lat="44.3090764" lon="16.1039596"><ele>522.3333333333334</ele><time>2026-04-27T15:09:37.328Z</time></trkpt><trkpt lat="44.3089673" lon="16.103873"><ele>525.0</ele><time>2026-04-27T15:09:38.328Z</time></trkpt><trkpt lat="44.3087731" lon="16.1037235"><ele>525.0</ele><time>2026-04-27T15:09:40.328Z</time></trkpt><trkpt lat="44.3086894" lon="16.1036604"><ele>525.0</ele><time>2026-04-27T15:09:41.328Z</time></trkpt><trkpt lat="44.3086217" lon="16.1036286"><ele>525.0</ele><time>2026-04-27T15:09:42.328Z</time></trkpt><trkpt lat="44.3085198" lon="16.103607"><ele>525.0</ele><time>2026-04-27T15:09:44.329Z</time></trkpt><trkpt lat="44.3084599" lon="16.1035793"><ele>525.0</ele><time>2026-04-27T15:09:47.328Z</time></trkpt><trkpt lat="44.3084105" lon="16.1034581"><ele>525.0</ele><time>2026-04-27T15:21:29.328Z</time></trkpt><trkpt lat="44.3083021" lon="16.1033435"><ele>525.0</ele><time>2026-04-27T15:21:31.328Z</time></trkpt><trkpt lat="44.3082285" lon="16.1032814"><ele>525.0</ele><time>2026-04-27T15:21:32.328Z</time></trkpt><trkpt lat="44.3081498" lon="16.1032181"><ele>525.0</ele><time>2026-04-27T15:21:33.328Z</time></trkpt><trkpt lat="44.3080665" lon="16.1031464"><ele>525.0</ele><time>2026-04-27T15:21:34.329Z</time></trkpt><trkpt lat="44.3079689" lon="16.103064"><ele>525.0</ele><time>2026-04-27T15:21:35.328Z</time></trkpt><trkpt lat="44.3078616" lon="16.102976"><ele>527.25</ele><time>2026-04-27T15:21:36.329Z</time></trkpt><trkpt lat="44.3077408" lon="16.1028789"><ele>529.5</ele><time>2026-04-27T15:21:37.329Z</time></trkpt><trkpt lat="44.3076121" lon="16.1027782"><ele>531.75</ele><time>2026-04-27T15:21:38.328Z</time></trkpt><trkpt lat="44.3074798" lon="16.1026788"><ele>534.0</ele><time>2026-04-27T15:21:39.328Z</time></trkpt><trkpt lat="44.3073442" lon="16.1025764"><ele>532.3333333333334</ele><time>2026-04-27T15:21:40.328Z</time></trkpt><trkpt lat="44.3072072" lon="16.1024731"><ele>530.6666666666667</ele><time>2026-04-27T15:21:41.329Z</time></trkpt><trkpt lat="44.3070698" lon="16.102371"><ele>529.0</ele><time>2026-04-27T15:21:42.329Z</time></trkpt><trkpt lat="44.3069257" lon="16.1022731"><ele>532.3333333333334</ele><time>2026-04-27T15:21:43.328Z</time></trkpt><trkpt lat="44.3067713" lon="16.1021759"><ele>535.6666666666666</ele><time>2026-04-27T15:21:44.328Z</time></trkpt><trkpt lat="44.3066114" lon="16.1020804"><ele>539.0</ele><time>2026-04-27T15:21:45.328Z</time></trkpt><trkpt lat="44.3062786" lon="16.1019132"><ele>539.0</ele><time>2026-04-27T15:21:47.328Z</time></trkpt><trkpt lat="44.3061096" lon="16.1018348"><ele>539.0</ele><time>2026-04-27T15:21:48.329Z</time></trkpt><trkpt lat="44.3059329" lon="16.1017561"><ele>539.0</ele><time>2026-04-27T15:21:49.328Z</time></trkpt><trkpt lat="44.3057529" lon="16.1016926"><ele>540.0</ele><time>2026-04-27T15:21:50.328Z</time></trkpt><trkpt lat="44.3055725" lon="16.1016304"><ele>541.0</ele><time>2026-04-27T15:21:51.329Z</time></trkpt><trkpt lat="44.3053931" lon="16.1015695"><ele>542.0</ele><time>2026-04-27T15:21:52.328Z</time></trkpt><trkpt lat="44.3052199" lon="16.1015094"><ele>545.3333333333333</ele><time>2026-04-27T15:21:53.329Z</time></trkpt><trkpt lat="44.3050541" lon="16.1014401"><ele>548.6666666666666</ele><time>2026-04-27T15:21:54.328Z</time></trkpt><trkpt lat="44.3048885" lon="16.1013661"><ele>552.0</ele><time>2026-04-27T15:21:55.329Z</time></trkpt><trkpt lat="44.3047279" lon="16.1012873"><ele>552.0</ele><time>2026-04-27T15:21:56.329Z</time></trkpt><trkpt lat="44.3044192" lon="16.1010882"><ele>552.0</ele><time>2026-04-27T15:21:58.329Z</time></trkpt><trkpt lat="44.3042711" lon="16.1009721"><ele>552.0</ele><time>2026-04-27T15:21:59.329Z</time></trkpt><trkpt lat="44.3041301" lon="16.1008226"><ele>552.0</ele><time>2026-04-27T15:22:00.328Z</time></trkpt><trkpt lat="44.3039929" lon="16.100664"><ele>552.0</ele><time>2026-04-27T15:22:01.329Z</time></trkpt><trkpt lat="44.3038623" lon="16.1004886"><ele>551.0</ele><time>2026-04-27T15:22:02.329Z</time></trkpt><trkpt lat="44.3037437" lon="16.100297"><ele>550.0</ele><time>2026-04-27T15:22:03.328Z</time></trkpt><trkpt lat="44.3036289" lon="16.1000945"><ele>549.0</ele><time>2026-04-27T15:22:04.329Z</time></trkpt><trkpt lat="44.3035199" lon="16.0998801"><ele>551.6666666666666</ele><time>2026-04-27T15:22:05.329Z</time></trkpt><trkpt lat="44.3034134" lon="16.0996584"><ele>554.3333333333333</ele><time>2026-04-27T15:22:06.329Z</time></trkpt><trkpt lat="44.3033087" lon="16.0994333"><ele>557.0</ele><time>2026-04-27T15:22:07.329Z</time></trkpt><trkpt lat="44.3032067" lon="16.0992024"><ele>558.3333333333333</ele><time>2026-04-27T15:22:08.328Z</time></trkpt><trkpt lat="44.3031097" lon="16.0989845"><ele>559.6666666666666</ele><time>2026-04-27T15:22:09.328Z</time></trkpt><trkpt lat="44.3030091" lon="16.0987823"><ele>561.0</ele><time>2026-04-27T15:22:10.328Z</time></trkpt><trkpt lat="44.3028952" lon="16.0985847"><ele>561.0</ele><time>2026-04-27T15:22:11.328Z</time></trkpt><trkpt lat="44.3027674" lon="16.0984058"><ele>561.0</ele><time>2026-04-27T15:22:12.328Z</time></trkpt><trkpt lat="44.3026238" lon="16.0982529"><ele>561.0</ele><time>2026-04-27T15:22:13.328Z</time></trkpt><trkpt lat="44.3024671" lon="16.0981335"><ele>572.6666666666666</ele><time>2026-04-27T15:22:14.328Z</time></trkpt><trkpt lat="44.3022947" lon="16.0980489"><ele>584.3333333333333</ele><time>2026-04-27T15:22:15.328Z</time></trkpt><trkpt lat="44.302119" lon="16.0979995"><ele>596.0</ele><time>2026-04-27T15:22:16.328Z</time></trkpt><trkpt lat="44.3017477" lon="16.0979989"><ele>596.0</ele><time>2026-04-27T15:22:18.328Z</time></trkpt><trkpt lat="44.301562" lon="16.0980439"><ele>596.0</ele><time>2026-04-27T15:22:19.328Z</time></trkpt><trkpt lat="44.3013689" lon="16.098098"><ele>596.0</ele><time>2026-04-27T15:22:20.329Z</time></trkpt><trkpt lat="44.3011792" lon="16.0981616"><ele>597.6666666666666</ele><time>2026-04-27T15:22:21.328Z</time></trkpt><trkpt lat="44.300984" lon="16.098236"><ele>599.3333333333334</ele><time>2026-04-27T15:22:22.328Z</time></trkpt><trkpt lat="44.3007926" lon="16.0982834"><ele>601.0</ele><time>2026-04-27T15:22:23.328Z</time></trkpt><trkpt lat="44.3006086" lon="16.0983081"><ele>599.6666666666667</ele><time>2026-04-27T15:22:24.328Z</time></trkpt><trkpt lat="44.3004249" lon="16.0982934"><ele>598.3333333333334</ele><time>2026-04-27T15:22:25.328Z</time></trkpt><trkpt lat="44.3002493" lon="16.0982548"><ele>597.0</ele><time>2026-04-27T15:22:26.328Z</time></trkpt><trkpt lat="44.3000683" lon="16.0982022"><ele>597.0</ele><time>2026-04-27T15:22:27.328Z</time></trkpt><trkpt lat="44.2997088" lon="16.0980444"><ele>597.0</ele><time>2026-04-27T15:22:29.328Z</time></trkpt><trkpt lat="44.2995258" lon="16.0979639"><ele>597.0</ele><time>2026-04-27T15:22:30.328Z</time></trkpt><trkpt lat="44.2993424" lon="16.097882"><ele>597.0</ele><time>2026-04-27T15:22:31.328Z</time></trkpt><trkpt lat="44.2991575" lon="16.097804"><ele>597.0</ele><time>2026-04-27T15:22:32.328Z</time></trkpt><trkpt lat="44.2989691" lon="16.0977316"><ele>597.6666666666666</ele><time>2026-04-27T15:22:33.329Z</time></trkpt><trkpt lat="44.2987796" lon="16.0976865"><ele>598.3333333333333</ele><time>2026-04-27T15:22:34.329Z</time></trkpt><trkpt lat="44.2985852" lon="16.0976606"><ele>599.0</ele><time>2026-04-27T15:22:35.328Z</time></trkpt><trkpt lat="44.2983897" lon="16.097635"><ele>599.0</ele><time>2026-04-27T15:22:36.329Z</time></trkpt><trkpt lat="44.2981953" lon="16.0976187"><ele>599.0</ele><time>2026-04-27T15:22:37.328Z</time></trkpt><trkpt lat="44.2978019" lon="16.0975839"><ele>602.0</ele><time>2026-04-27T15:22:39.329Z</time></trkpt><trkpt lat="44.2976449" lon="16.0975782"><ele>605.0</ele><time>2026-04-27T15:22:40.328Z</time></trkpt><trkpt lat="44.2974852" lon="16.0975866"><ele>608.0</ele><time>2026-04-27T15:22:41.329Z</time></trkpt><trkpt lat="44.297335" lon="16.0976177"><ele>611.5</ele><time>2026-04-27T15:22:42.328Z</time></trkpt><trkpt lat="44.2971895" lon="16.0977235"><ele>615.0</ele><time>2026-04-27T15:22:43.328Z</time></trkpt><trkpt lat="44.2970586" lon="16.0978275"><ele>618.5</ele><time>2026-04-27T15:22:44.328Z</time></trkpt><trkpt lat="44.2969522" lon="16.097925"><ele>622.0</ele><time>2026-04-27T15:22:45.328Z</time></trkpt><trkpt lat="44.2968584" lon="16.0979846"><ele>622.0</ele><time>2026-04-27T15:22:46.328Z</time></trkpt><trkpt lat="44.2967745" lon="16.0979939"><ele>622.0</ele><time>2026-04-27T15:22:47.328Z</time></trkpt><trkpt lat="44.2966862" lon="16.0979752"><ele>622.0</ele><time>2026-04-27T15:22:48.328Z</time></trkpt><trkpt lat="44.2965773" lon="16.0978239"><ele>622.0</ele><time>2026-04-27T15:22:50.328Z</time></trkpt><trkpt lat="44.2965776" lon="16.0977155"><ele>622.0</ele><time>2026-04-27T15:22:51.328Z</time></trkpt><trkpt lat="44.2966151" lon="16.0975967"><ele>622.0</ele><time>2026-04-27T15:22:52.328Z</time></trkpt><trkpt lat="44.2966853" lon="16.0975059"><ele>622.0</ele><time>2026-04-27T15:22:53.329Z</time></trkpt><trkpt lat="44.2967643" lon="16.0974207"><ele>622.0</ele><time>2026-04-27T15:22:54.328Z</time></trkpt><trkpt lat="44.2969071" lon="16.0974022"><ele>622.0</ele><time>2026-04-27T15:22:55.329Z</time></trkpt><trkpt lat="44.2970524" lon="16.0973732"><ele>625.6666666666667</ele><time>2026-04-27T15:22:56.328Z</time></trkpt><trkpt lat="44.2972172" lon="16.0973459"><ele>629.3333333333334</ele><time>2026-04-27T15:22:57.328Z</time></trkpt><trkpt lat="44.2973835" lon="16.0973002"><ele>633.0</ele><time>2026-04-27T15:22:58.328Z</time></trkpt><trkpt lat="44.2975482" lon="16.0972266"><ele>633.0</ele><time>2026-04-27T15:22:59.328Z</time></trkpt><trkpt lat="44.297874" lon="16.0969958"><ele>633.0</ele><time>2026-04-27T15:23:01.329Z</time></trkpt><trkpt lat="44.298022" lon="16.0968573"><ele>634.3333333333334</ele><time>2026-04-27T15:23:02.328Z</time></trkpt><trkpt lat="44.29817" lon="16.0967009"><ele>635.6666666666667</ele><time>2026-04-27T15:23:03.328Z</time></trkpt><trkpt lat="44.2983165" lon="16.0965427"><ele>637.0</ele><time>2026-04-27T15:23:04.328Z</time></trkpt><trkpt lat="44.2984671" lon="16.0963808"><ele>637.0</ele><time>2026-04-27T15:23:05.328Z</time></trkpt><trkpt lat="44.2986117" lon="16.0962128"><ele>637.0</ele><time>2026-04-27T15:23:06.329Z</time></trkpt><trkpt lat="44.2987634" lon="16.0960474"><ele>637.0</ele><time>2026-04-27T15:23:07.328Z</time></trkpt><trkpt lat="44.2989144" lon="16.0958831"><ele>639.0</ele><time>2026-04-27T15:23:08.329Z</time></trkpt><trkpt lat="44.2990692" lon="16.0957153"><ele>641.0</ele><time>2026-04-27T15:23:09.329Z</time></trkpt><trkpt lat="44.2992214" lon="16.0955619"><ele>643.0</ele><time>2026-04-27T15:23:10.329Z</time></trkpt><trkpt lat="44.2994949" lon="16.0953397"><ele>643.0</ele><time>2026-04-27T15:23:12.329Z</time></trkpt><trkpt lat="44.299636" lon="16.09535"><ele>643.0</ele><time>2026-04-27T15:23:13.329Z</time></trkpt><trkpt lat="44.2997735" lon="16.0953493"><ele>643.0</ele><time>2026-04-27T15:23:14.328Z</time></trkpt><trkpt lat="44.2999013" lon="16.0954287"><ele>643.0</ele><time>2026-04-27T15:23:15.329Z</time></trkpt><trkpt lat="44.3000187" lon="16.0955431"><ele>643.0</ele><time>2026-04-27T15:23:16.328Z</time></trkpt><trkpt lat="44.3001221" lon="16.0956927"><ele>643.0</ele><time>2026-04-27T15:23:17.328Z</time></trkpt><trkpt lat="44.3002152" lon="16.0958793"><ele>643.0</ele><time>2026-04-27T15:23:18.328Z</time></trkpt><trkpt lat="44.3002993" lon="16.0960491"><ele>642.4</ele><time>2026-04-27T15:23:19.329Z</time></trkpt><trkpt lat="44.300381" lon="16.0961806"><ele>641.8</ele><time>2026-04-27T15:23:20.328Z</time></trkpt><trkpt lat="44.3004593" lon="16.0962605"><ele>641.2</ele><time>2026-04-27T15:23:21.328Z</time></trkpt><trkpt lat="44.3005419" lon="16.0962885"><ele>640.6</ele><time>2026-04-27T15:23:22.328Z</time></trkpt><trkpt lat="44.300622" lon="16.0962569"><ele>640.0</ele><time>2026-04-27T15:23:23.329Z</time></trkpt><trkpt lat="44.3006702" lon="16.0961778"><ele>640.0</ele><time>2026-04-27T15:23:24.328Z</time></trkpt><trkpt lat="44.3006841" lon="16.0960625"><ele>640.0</ele><time>2026-04-27T15:23:25.328Z</time></trkpt><trkpt lat="44.3006547" lon="16.0959349"><ele>640.0</ele><time>2026-04-27T15:23:26.328Z</time></trkpt><trkpt lat="44.3005812" lon="16.0958054"><ele>640.0</ele><time>2026-04-27T15:23:27.329Z</time></trkpt><trkpt lat="44.3004658" lon="16.0956651"><ele>641.5</ele><time>2026-04-27T15:23:28.329Z</time></trkpt><trkpt lat="44.3003327" lon="16.095505"><ele>643.0</ele><time>2026-04-27T15:23:29.328Z</time></trkpt><trkpt lat="44.3000424" lon="16.0951075"><ele>648.3333333333334</ele><time>2026-04-27T15:23:31.328Z</time></trkpt><trkpt lat="44.2998897" lon="16.0949016"><ele>653.6666666666666</ele><time>2026-04-27T15:23:32.329Z</time></trkpt><trkpt lat="44.2997308" lon="16.0947378"><ele>659.0</ele><time>2026-04-27T15:23:33.328Z</time></trkpt><trkpt lat="44.2995698" lon="16.0946204"><ele>662.6666666666666</ele><time>2026-04-27T15:23:34.328Z</time></trkpt><trkpt lat="44.299406" lon="16.0945543"><ele>666.3333333333334</ele><time>2026-04-27T15:23:35.328Z</time></trkpt><trkpt lat="44.2992455" lon="16.0945417"><ele>670.0</ele><time>2026-04-27T15:23:36.328Z</time></trkpt><trkpt lat="44.2990858" lon="16.0945882"><ele>670.0</ele><time>2026-04-27T15:23:37.329Z</time></trkpt><trkpt lat="44.2989207" lon="16.0946864"><ele>670.0</ele><time>2026-04-27T15:23:38.328Z</time></trkpt><trkpt lat="44.2987617" lon="16.0948322"><ele>670.0</ele><time>2026-04-27T15:23:39.328Z</time></trkpt><trkpt lat="44.2985954" lon="16.0949906"><ele>666.0</ele><time>2026-04-27T15:23:40.328Z</time></trkpt><trkpt lat="44.2982679" lon="16.0952087"><ele>662.0</ele><time>2026-04-27T15:23:42.328Z</time></trkpt><trkpt lat="44.2980915" lon="16.0952548"><ele>668.3333333333333</ele><time>2026-04-27T15:23:43.329Z</time></trkpt><trkpt lat="44.297908" lon="16.095265"><ele>674.6666666666666</ele><time>2026-04-27T15:23:44.328Z</time></trkpt><trkpt lat="44.2977297" lon="16.0952632"><ele>681.0</ele><time>2026-04-27T15:23:45.328Z</time></trkpt><trkpt lat="44.297571" lon="16.0952984"><ele>681.0</ele><time>2026-04-27T15:23:46.329Z</time></trkpt><trkpt lat="44.2974177" lon="16.0953842"><ele>681.0</ele><time>2026-04-27T15:23:47.329Z</time></trkpt><trkpt lat="44.2972784" lon="16.0955151"><ele>681.0</ele><time>2026-04-27T15:23:48.329Z</time></trkpt><trkpt lat="44.2971497" lon="16.0956847"><ele>681.0</ele><time>2026-04-27T15:23:49.328Z</time></trkpt><trkpt lat="44.2970359" lon="16.0958329"><ele>681.0</ele><time>2026-04-27T15:23:50.329Z</time></trkpt><trkpt lat="44.2967641" lon="16.0960627"><ele>681.0</ele><time>2026-04-27T15:23:52.329Z</time></trkpt><trkpt lat="44.2966061" lon="16.0961268"><ele>681.0</ele><time>2026-04-27T15:23:53.328Z</time></trkpt><trkpt lat="44.2963854" lon="16.096171"><ele>681.0</ele><time>2026-04-27T15:23:54.329Z</time></trkpt><trkpt lat="44.2962078" lon="16.0962249"><ele>691.0</ele><time>2026-04-27T15:23:55.328Z</time></trkpt><trkpt lat="44.2960215" lon="16.0963081"><ele>701.0</ele><time>2026-04-27T15:23:56.328Z</time></trkpt><trkpt lat="44.2958364" lon="16.0964239"><ele>711.0</ele><time>2026-04-27T15:23:57.329Z</time></trkpt><trkpt lat="44.2956623" lon="16.0965677"><ele>709.6666666666666</ele><time>2026-04-27T15:23:58.328Z</time></trkpt><trkpt lat="44.2954963" lon="16.096734"><ele>708.3333333333333</ele><time>2026-04-27T15:23:59.328Z</time></trkpt><trkpt lat="44.2953434" lon="16.0968744"><ele>707.0</ele><time>2026-04-27T15:24:00.329Z</time></trkpt><trkpt lat="44.2950077" lon="16.097095"><ele>707.0</ele><time>2026-04-27T15:24:02.328Z</time></trkpt><trkpt lat="44.2948134" lon="16.0971477"><ele>707.0</ele><time>2026-04-27T15:24:03.328Z</time></trkpt><trkpt lat="44.294602" lon="16.0971687"><ele>707.0</ele><time>2026-04-27T15:24:04.328Z</time></trkpt><trkpt lat="44.2943885" lon="16.097186"><ele>711.3333333333333</ele><time>2026-04-27T15:24:05.328Z</time></trkpt><trkpt lat="44.2941704" lon="16.0972053"><ele>715.6666666666666</ele><time>2026-04-27T15:24:06.328Z</time></trkpt><trkpt lat="44.2939573" lon="16.097228"><ele>720.0</ele><time>2026-04-27T15:24:07.328Z</time></trkpt><trkpt lat="44.2937408" lon="16.0972632"><ele>722.6666666666666</ele><time>2026-04-27T15:24:08.328Z</time></trkpt><trkpt lat="44.2935531" lon="16.0972931"><ele>725.3333333333333</ele><time>2026-04-27T15:24:09.328Z</time></trkpt><trkpt lat="44.2934053" lon="16.0973177"><ele>728.0</ele><time>2026-04-27T15:24:10.328Z</time></trkpt><trkpt lat="44.2932645" lon="16.0973589"><ele>725.0</ele><time>2026-04-27T15:24:11.329Z</time></trkpt><trkpt lat="44.2930496" lon="16.0975497"><ele>722.0</ele><time>2026-04-27T15:24:13.328Z</time></trkpt><trkpt lat="44.2929755" lon="16.0977084"><ele>719.0</ele><time>2026-04-27T15:24:14.329Z</time></trkpt><trkpt lat="44.2929397" lon="16.0978856"><ele>719.0</ele><time>2026-04-27T15:24:15.328Z</time></trkpt><trkpt lat="44.2929465" lon="16.0980669"><ele>719.0</ele><time>2026-04-27T15:24:16.328Z</time></trkpt><trkpt lat="44.2929901" lon="16.0982369"><ele>719.0</ele><time>2026-04-27T15:24:17.328Z</time></trkpt><trkpt lat="44.2930813" lon="16.0983911"><ele>719.0</ele><time>2026-04-27T15:24:18.328Z</time></trkpt><trkpt lat="44.2931995" lon="16.0985273"><ele>709.6666666666666</ele><time>2026-04-27T15:24:19.329Z</time></trkpt><trkpt lat="44.2933328" lon="16.09866"><ele>700.3333333333334</ele><time>2026-04-27T15:24:20.328Z</time></trkpt><trkpt lat="44.293488" lon="16.0988046"><ele>691.0</ele><time>2026-04-27T15:24:21.328Z</time></trkpt><trkpt lat="44.2936459" lon="16.0989446"><ele>691.0</ele><time>2026-04-27T15:24:22.328Z</time></trkpt><trkpt lat="44.2937747" lon="16.0990726"><ele>691.0</ele><time>2026-04-27T15:24:23.328Z</time></trkpt><trkpt lat="44.2938648" lon="16.0991791"><ele>691.0</ele><time>2026-04-27T15:24:24.329Z</time></trkpt><trkpt lat="44.2939136" lon="16.0994145"><ele>695.4</ele><time>2026-04-27T15:24:26.328Z</time></trkpt><trkpt lat="44.2938756" lon="16.0994961"><ele>699.8</ele><time>2026-04-27T15:24:27.328Z</time></trkpt><trkpt lat="44.2938039" lon="16.0995299"><ele>704.1999999999999</ele><time>2026-04-27T15:24:28.329Z</time></trkpt><trkpt lat="44.293709" lon="16.0995183"><ele>708.5999999999999</ele><time>2026-04-27T15:24:29.329Z</time></trkpt><trkpt lat="44.2936164" lon="16.0994402"><ele>713.0</ele><time>2026-04-27T15:24:30.328Z</time></trkpt><trkpt lat="44.2935176" lon="16.0993085"><ele>713.0</ele><time>2026-04-27T15:24:31.329Z</time></trkpt><trkpt lat="44.2934119" lon="16.0991632"><ele>713.0</ele><time>2026-04-27T15:24:32.329Z</time></trkpt><trkpt lat="44.293277" lon="16.0989798"><ele>713.0</ele><time>2026-04-27T15:24:33.328Z</time></trkpt><trkpt lat="44.2931404" lon="16.0987989"><ele>716.3333333333333</ele><time>2026-04-27T15:24:34.328Z</time></trkpt><trkpt lat="44.292996" lon="16.0986109"><ele>719.6666666666666</ele><time>2026-04-27T15:24:35.328Z</time></trkpt><trkpt lat="44.2928351" lon="16.0984401"><ele>723.0</ele><time>2026-04-27T15:24:36.329Z</time></trkpt><trkpt lat="44.2926751" lon="16.098274"><ele>721.6666666666666</ele><time>2026-04-27T15:24:37.328Z</time></trkpt><trkpt lat="44.2925477" lon="16.0981373"><ele>720.3333333333333</ele><time>2026-04-27T15:24:38.328Z</time></trkpt><trkpt lat="44.2924159" lon="16.0979984"><ele>719.0</ele><time>2026-04-27T15:24:39.328Z</time></trkpt><trkpt lat="44.292321" lon="16.0978536"><ele>719.0</ele><time>2026-04-27T15:24:40.328Z</time></trkpt><trkpt lat="44.2922592" lon="16.0976926"><ele>719.0</ele><time>2026-04-27T15:24:41.328Z</time></trkpt><trkpt lat="44.2922033" lon="16.0975416"><ele>719.0</ele><time>2026-04-27T15:24:42.328Z</time></trkpt><trkpt lat="44.292157" lon="16.0973639"><ele>719.0</ele><time>2026-04-27T15:24:43.328Z</time></trkpt><trkpt lat="44.2921664" lon="16.0971604"><ele>728.0</ele><time>2026-04-27T15:24:44.328Z</time></trkpt><trkpt lat="44.2923733" lon="16.0970176"><ele>737.0</ele><time>2026-04-27T15:24:45.328Z</time></trkpt><trkpt lat="44.2924943" lon="16.0968944"><ele>746.0</ele><time>2026-04-27T15:24:46.328Z</time></trkpt><trkpt lat="44.2928193" lon="16.0967515"><ele>746.0</ele><time>2026-04-27T15:24:48.328Z</time></trkpt><trkpt lat="44.2930359" lon="16.0967148"><ele>746.0</ele><time>2026-04-27T15:24:49.328Z</time></trkpt><trkpt lat="44.2932238" lon="16.0966627"><ele>746.0</ele><time>2026-04-27T15:24:50.328Z</time></trkpt><trkpt lat="44.293417" lon="16.096604"><ele>752.3333333333333</ele><time>2026-04-27T15:24:51.328Z</time></trkpt><trkpt lat="44.2936122" lon="16.0965509"><ele>758.6666666666666</ele><time>2026-04-27T15:24:52.329Z</time></trkpt><trkpt lat="44.2938247" lon="16.0964977"><ele>765.0</ele><time>2026-04-27T15:24:53.328Z</time></trkpt><trkpt lat="44.2940404" lon="16.0964443"><ele>765.0</ele><time>2026-04-27T15:24:54.329Z</time></trkpt><trkpt lat="44.2942564" lon="16.0963875"><ele>765.0</ele><time>2026-04-27T15:24:55.328Z</time></trkpt><trkpt lat="44.2944451" lon="16.0963249"><ele>765.0</ele><time>2026-04-27T15:24:56.328Z</time></trkpt><trkpt lat="44.2947772" lon="16.0961303"><ele>770.0</ele><time>2026-04-27T15:24:58.329Z</time></trkpt><trkpt lat="44.2949278" lon="16.095979"><ele>775.0</ele><time>2026-04-27T15:24:59.328Z</time></trkpt><trkpt lat="44.2950719" lon="16.0957974"><ele>780.0</ele><time>2026-04-27T15:25:00.328Z</time></trkpt><trkpt lat="44.2952146" lon="16.0956086"><ele>780.0</ele><time>2026-04-27T15:25:01.329Z</time></trkpt><trkpt lat="44.2953716" lon="16.0954339"><ele>780.0</ele><time>2026-04-27T15:25:02.328Z</time></trkpt><trkpt lat="44.2955337" lon="16.0952882"><ele>780.0</ele><time>2026-04-27T15:25:03.328Z</time></trkpt><trkpt lat="44.2956836" lon="16.0951482"><ele>775.3333333333334</ele><time>2026-04-27T15:25:04.328Z</time></trkpt><trkpt lat="44.2958095" lon="16.0950141"><ele>770.6666666666667</ele><time>2026-04-27T15:25:05.328Z</time></trkpt><trkpt lat="44.295912" lon="16.0948617"><ele>766.0</ele><time>2026-04-27T15:25:06.328Z</time></trkpt><trkpt lat="44.2959764" lon="16.0946841"><ele>766.0</ele><time>2026-04-27T15:25:07.328Z</time></trkpt><trkpt lat="44.2960106" lon="16.0944616"><ele>766.0</ele><time>2026-04-27T15:25:08.328Z</time></trkpt><trkpt lat="44.2960127" lon="16.0942303"><ele>766.0</ele><time>2026-04-27T15:25:09.328Z</time></trkpt><trkpt lat="44.2960114" lon="16.0939963"><ele>769.0</ele><time>2026-04-27T15:25:10.328Z</time></trkpt><trkpt lat="44.2960282" lon="16.0937915"><ele>772.0</ele><time>2026-04-27T15:25:11.328Z</time></trkpt><trkpt lat="44.2960769" lon="16.0936185"><ele>775.0</ele><time>2026-04-27T15:25:12.328Z</time></trkpt><trkpt lat="44.2961481" lon="16.0934691"><ele>778.0</ele><time>2026-04-27T15:25:13.329Z</time></trkpt><trkpt lat="44.2962584" lon="16.0933711"><ele>778.0</ele><time>2026-04-27T15:25:14.328Z</time></trkpt><trkpt lat="44.2963902" lon="16.093308"><ele>778.0</ele><time>2026-04-27T15:25:15.328Z</time></trkpt><trkpt lat="44.2965398" lon="16.0932856"><ele>778.0</ele><time>2026-04-27T15:25:16.329Z</time></trkpt><trkpt lat="44.2967083" lon="16.0932911"><ele>782.5</ele><time>2026-04-27T15:25:17.328Z</time></trkpt><trkpt lat="44.2970105" lon="16.0932179"><ele>787.0</ele><time>2026-04-27T15:25:19.328Z</time></trkpt><trkpt lat="44.2971465" lon="16.093108"><ele>780.3333333333333</ele><time>2026-04-27T15:25:20.329Z</time></trkpt><trkpt lat="44.2972623" lon="16.0929432"><ele>773.6666666666666</ele><time>2026-04-27T15:25:21.329Z</time></trkpt><trkpt lat="44.2973524" lon="16.0927395"><ele>767.0</ele><time>2026-04-27T15:25:22.329Z</time></trkpt><trkpt lat="44.2974312" lon="16.092535"><ele>774.3333333333333</ele><time>2026-04-27T15:25:23.328Z</time></trkpt><trkpt lat="44.297529" lon="16.0923517"><ele>781.6666666666666</ele><time>2026-04-27T15:25:24.328Z</time></trkpt><trkpt lat="44.2976652" lon="16.0921916"><ele>789.0</ele><time>2026-04-27T15:25:25.328Z</time></trkpt><trkpt lat="44.297824" lon="16.092076"><ele>789.0</ele><time>2026-04-27T15:25:26.328Z</time></trkpt><trkpt lat="44.2979952" lon="16.0920048"><ele>789.0</ele><time>2026-04-27T15:25:27.328Z</time></trkpt><trkpt lat="44.2982924" lon="16.0918294"><ele>786.75</ele><time>2026-04-27T15:25:29.329Z</time></trkpt><trkpt lat="44.2984132" lon="16.0917044"><ele>784.5</ele><time>2026-04-27T15:25:30.328Z</time></trkpt><trkpt lat="44.2985079" lon="16.091544"><ele>782.25</ele><time>2026-04-27T15:25:31.328Z</time></trkpt><trkpt lat="44.2985512" lon="16.0913442"><ele>780.0</ele><time>2026-04-27T15:25:32.328Z</time></trkpt><trkpt lat="44.2985528" lon="16.0911326"><ele>780.0</ele><time>2026-04-27T15:25:33.329Z</time></trkpt><trkpt lat="44.2985304" lon="16.0909021"><ele>780.0</ele><time>2026-04-27T15:25:34.329Z</time></trkpt><trkpt lat="44.2985034" lon="16.0906759"><ele>780.0</ele><time>2026-04-27T15:25:35.328Z</time></trkpt><trkpt lat="44.2984993" lon="16.0904626"><ele>781.3333333333333</ele><time>2026-04-27T15:25:36.328Z</time></trkpt><trkpt lat="44.2985355" lon="16.0902563"><ele>782.6666666666666</ele><time>2026-04-27T15:25:37.328Z</time></trkpt><trkpt lat="44.2986072" lon="16.0900693"><ele>784.0</ele><time>2026-04-27T15:25:38.328Z</time></trkpt><trkpt lat="44.2988459" lon="16.0898055"><ele>784.3333333333333</ele><time>2026-04-27T15:25:40.328Z</time></trkpt><trkpt lat="44.2989964" lon="16.0897102"><ele>784.6666666666667</ele><time>2026-04-27T15:25:41.329Z</time></trkpt><trkpt lat="44.2991324" lon="16.0896043"><ele>785.0</ele><time>2026-04-27T15:25:42.329Z</time></trkpt><trkpt lat="44.299264" lon="16.0894729"><ele>785.0</ele><time>2026-04-27T15:25:43.328Z</time></trkpt><trkpt lat="44.2993707" lon="16.089303"><ele>785.0</ele><time>2026-04-27T15:25:44.328Z</time></trkpt><trkpt lat="44.2994455" lon="16.0891001"><ele>785.0</ele><time>2026-04-27T15:25:45.328Z</time></trkpt><trkpt lat="44.2994743" lon="16.0888954"><ele>787.6666666666667</ele><time>2026-04-27T15:25:46.328Z</time></trkpt><trkpt lat="44.2994576" lon="16.0886853"><ele>790.3333333333333</ele><time>2026-04-27T15:25:47.329Z</time></trkpt><trkpt lat="44.2994034" lon="16.0884894"><ele>793.0</ele><time>2026-04-27T15:25:48.328Z</time></trkpt><trkpt lat="44.2993057" lon="16.0883254"><ele>799.0</ele><time>2026-04-27T15:25:49.328Z</time></trkpt><trkpt lat="44.2990327" lon="16.0881504"><ele>805.0</ele><time>2026-04-27T15:25:51.329Z</time></trkpt><trkpt lat="44.2988801" lon="16.0881369"><ele>806.3333333333333</ele><time>2026-04-27T15:25:52.328Z</time></trkpt><trkpt lat="44.2987149" lon="16.0881775"><ele>807.6666666666667</ele><time>2026-04-27T15:25:53.328Z</time></trkpt><trkpt lat="44.2985362" lon="16.0882698"><ele>809.0</ele><time>2026-04-27T15:25:54.329Z</time></trkpt><trkpt lat="44.2983499" lon="16.0883786"><ele>804.0</ele><time>2026-04-27T15:25:55.328Z</time></trkpt><trkpt lat="44.2981792" lon="16.0884776"><ele>799.0</ele><time>2026-04-27T15:25:56.329Z</time></trkpt><trkpt lat="44.2980093" lon="16.0885561"><ele>794.0</ele><time>2026-04-27T15:25:57.329Z</time></trkpt><trkpt lat="44.2978353" lon="16.0885886"><ele>792.0</ele><time>2026-04-27T15:25:58.329Z</time></trkpt><trkpt lat="44.297656" lon="16.0885753"><ele>790.0</ele><time>2026-04-27T15:25:59.328Z</time></trkpt><trkpt lat="44.297293" lon="16.0884097"><ele>789.6666666666666</ele><time>2026-04-27T15:26:01.328Z</time></trkpt><trkpt lat="44.2971194" lon="16.0882538"><ele>789.3333333333333</ele><time>2026-04-27T15:26:02.328Z</time></trkpt><trkpt lat="44.2969409" lon="16.0880591"><ele>789.0</ele><time>2026-04-27T15:26:03.328Z</time></trkpt><trkpt lat="44.2967608" lon="16.0878535"><ele>789.0</ele><time>2026-04-27T15:26:04.328Z</time></trkpt><trkpt lat="44.2965767" lon="16.0876416"><ele>789.0</ele><time>2026-04-27T15:26:05.328Z</time></trkpt><trkpt lat="44.2963886" lon="16.0874321"><ele>783.5</ele><time>2026-04-27T15:26:06.329Z</time></trkpt><trkpt lat="44.2961934" lon="16.0872098"><ele>778.0</ele><time>2026-04-27T15:26:07.329Z</time></trkpt><trkpt lat="44.2960054" lon="16.0869885"><ele>778.0</ele><time>2026-04-27T15:26:08.329Z</time></trkpt><trkpt lat="44.2958133" lon="16.0867767"><ele>778.0</ele><time>2026-04-27T15:26:09.328Z</time></trkpt><trkpt lat="44.2956304" lon="16.0865656"><ele>767.0</ele><time>2026-04-27T15:26:10.328Z</time></trkpt><trkpt lat="44.2952607" lon="16.0861418"><ele>767.0</ele><time>2026-04-27T15:26:12.328Z</time></trkpt><trkpt lat="44.2950661" lon="16.0859351"><ele>767.0</ele><time>2026-04-27T15:26:13.329Z</time></trkpt><trkpt lat="44.294868" lon="16.0857318"><ele>764.5</ele><time>2026-04-27T15:26:14.328Z</time></trkpt><trkpt lat="44.2946684" lon="16.085533"><ele>762.0</ele><time>2026-04-27T15:26:15.329Z</time></trkpt><trkpt lat="44.294456" lon="16.0853357"><ele>762.0</ele><time>2026-04-27T15:26:16.328Z</time></trkpt><trkpt lat="44.2942264" lon="16.0851601"><ele>762.0</ele><time>2026-04-27T15:26:17.328Z</time></trkpt><trkpt lat="44.2939938" lon="16.0849643"><ele>757.5</ele><time>2026-04-27T15:26:18.328Z</time></trkpt><trkpt lat="44.2937641" lon="16.0847705"><ele>753.0</ele><time>2026-04-27T15:26:19.328Z</time></trkpt><trkpt lat="44.2935227" lon="16.0845651"><ele>753.0</ele><time>2026-04-27T15:26:20.328Z</time></trkpt><trkpt lat="44.2932813" lon="16.0843705"><ele>753.0</ele><time>2026-04-27T15:26:21.328Z</time></trkpt><trkpt lat="44.2928089" lon="16.0839857"><ele>749.5</ele><time>2026-04-27T15:26:23.328Z</time></trkpt><trkpt lat="44.292576" lon="16.0837955"><ele>746.0</ele><time>2026-04-27T15:26:24.328Z</time></trkpt><trkpt lat="44.2923639" lon="16.0836074"><ele>740.0</ele><time>2026-04-27T15:26:25.328Z</time></trkpt><trkpt lat="44.2921695" lon="16.0833948"><ele>734.0</ele><time>2026-04-27T15:26:26.328Z</time></trkpt><trkpt lat="44.2919817" lon="16.0831854"><ele>734.0</ele><time>2026-04-27T15:26:27.328Z</time></trkpt><trkpt lat="44.2918119" lon="16.0829674"><ele>734.0</ele><time>2026-04-27T15:26:28.329Z</time></trkpt><trkpt lat="44.29165" lon="16.0827422"><ele>734.0</ele><time>2026-04-27T15:26:29.328Z</time></trkpt><trkpt lat="44.2914936" lon="16.0825"><ele>734.0</ele><time>2026-04-27T15:26:30.329Z</time></trkpt><trkpt lat="44.2913418" lon="16.0822515"><ele>726.5</ele><time>2026-04-27T15:26:31.328Z</time></trkpt><trkpt lat="44.2911911" lon="16.081993"><ele>719.0</ele><time>2026-04-27T15:26:32.328Z</time></trkpt><trkpt lat="44.2910392" lon="16.0817262"><ele>721.5</ele><time>2026-04-27T15:26:33.328Z</time></trkpt><trkpt lat="44.2908783" lon="16.0814517"><ele>724.0</ele><time>2026-04-27T15:26:34.329Z</time></trkpt><trkpt lat="44.2907133" lon="16.0811673"><ele>716.0</ele><time>2026-04-27T15:26:35.328Z</time></trkpt><trkpt lat="44.2905386" lon="16.0808984"><ele>708.0</ele><time>2026-04-27T15:26:36.328Z</time></trkpt><trkpt lat="44.2903505" lon="16.0806452"><ele>706.5</ele><time>2026-04-27T15:26:37.328Z</time></trkpt><trkpt lat="44.2901477" lon="16.0804078"><ele>705.0</ele><time>2026-04-27T15:26:38.328Z</time></trkpt><trkpt lat="44.2899389" lon="16.080173"><ele>704.5</ele><time>2026-04-27T15:26:39.328Z</time></trkpt><trkpt lat="44.289727" lon="16.079939"><ele>704.0</ele><time>2026-04-27T15:26:40.328Z</time></trkpt><trkpt lat="44.2895038" lon="16.0797084"><ele>701.5</ele><time>2026-04-27T15:26:41.328Z</time></trkpt><trkpt lat="44.2892817" lon="16.0794721"><ele>699.0</ele><time>2026-04-27T15:26:42.328Z</time></trkpt><trkpt lat="44.2890576" lon="16.0792397"><ele>696.0</ele><time>2026-04-27T15:26:43.328Z</time></trkpt><trkpt lat="44.2886124" lon="16.0787687"><ele>696.0</ele><time>2026-04-27T15:26:45.329Z</time></trkpt><trkpt lat="44.2883903" lon="16.0785359"><ele>696.0</ele><time>2026-04-27T15:26:46.329Z</time></trkpt><trkpt lat="44.2881646" lon="16.0783019"><ele>693.5</ele><time>2026-04-27T15:26:47.328Z</time></trkpt><trkpt lat="44.28794" lon="16.0780684"><ele>691.0</ele><time>2026-04-27T15:26:48.328Z</time></trkpt><trkpt lat="44.2877194" lon="16.0778389"><ele>691.0</ele><time>2026-04-27T15:26:49.328Z</time></trkpt><trkpt lat="44.2875032" lon="16.0776056"><ele>691.0</ele><time>2026-04-27T15:26:50.328Z</time></trkpt><trkpt lat="44.2872843" lon="16.077376"><ele>687.0</ele><time>2026-04-27T15:26:51.328Z</time></trkpt><trkpt lat="44.2870639" lon="16.077151"><ele>683.0</ele><time>2026-04-27T15:26:52.328Z</time></trkpt><trkpt lat="44.2868478" lon="16.0769246"><ele>683.0</ele><time>2026-04-27T15:26:53.329Z</time></trkpt><trkpt lat="44.2866332" lon="16.0766993"><ele>683.0</ele><time>2026-04-27T15:26:54.328Z</time></trkpt><trkpt lat="44.2864182" lon="16.0764797"><ele>682.0</ele><time>2026-04-27T15:26:55.328Z</time></trkpt><trkpt lat="44.2860302" lon="16.0760749"><ele>682.0</ele><time>2026-04-27T15:26:57.328Z</time></trkpt><trkpt lat="44.2858409" lon="16.0758865"><ele>682.0</ele><time>2026-04-27T15:26:58.328Z</time></trkpt><trkpt lat="44.2856532" lon="16.0757007"><ele>683.0</ele><time>2026-04-27T15:26:59.328Z</time></trkpt><trkpt lat="44.2854609" lon="16.0755272"><ele>684.0</ele><time>2026-04-27T15:27:00.328Z</time></trkpt><trkpt lat="44.2852467" lon="16.0753763"><ele>684.0</ele><time>2026-04-27T15:27:01.328Z</time></trkpt><trkpt lat="44.2850202" lon="16.0752577"><ele>684.0</ele><time>2026-04-27T15:27:02.328Z</time></trkpt><trkpt lat="44.2847914" lon="16.0751655"><ele>682.5</ele><time>2026-04-27T15:27:03.328Z</time></trkpt><trkpt lat="44.2845429" lon="16.075086"><ele>681.0</ele><time>2026-04-27T15:27:04.328Z</time></trkpt><trkpt lat="44.2840095" lon="16.0750181"><ele>678.0</ele><time>2026-04-27T15:27:06.328Z</time></trkpt><trkpt lat="44.2837418" lon="16.0749721"><ele>675.0</ele><time>2026-04-27T15:27:07.329Z</time></trkpt><trkpt lat="44.2834934" lon="16.074925"><ele>675.0</ele><time>2026-04-27T15:27:08.328Z</time></trkpt><trkpt lat="44.2832553" lon="16.0748663"><ele>675.0</ele><time>2026-04-27T15:27:09.328Z</time></trkpt><trkpt lat="44.2830271" lon="16.0747904"><ele>674.5</ele><time>2026-04-27T15:27:10.328Z</time></trkpt><trkpt lat="44.2828076" lon="16.0746401"><ele>674.0</ele><time>2026-04-27T15:27:11.328Z</time></trkpt><trkpt lat="44.2825805" lon="16.0744709"><ele>674.0</ele><time>2026-04-27T15:27:12.329Z</time></trkpt><trkpt lat="44.2823483" lon="16.0742891"><ele>674.0</ele><time>2026-04-27T15:27:13.328Z</time></trkpt><trkpt lat="44.282117" lon="16.074054"><ele>667.0</ele><time>2026-04-27T15:27:14.329Z</time></trkpt><trkpt lat="44.2816261" lon="16.0735342"><ele>667.5</ele><time>2026-04-27T15:27:16.328Z</time></trkpt><trkpt lat="44.2813829" lon="16.0732737"><ele>668.0</ele><time>2026-04-27T15:27:17.328Z</time></trkpt><trkpt lat="44.2811417" lon="16.0730278"><ele>666.0</ele><time>2026-04-27T15:27:18.328Z</time></trkpt><trkpt lat="44.280899" lon="16.0727793"><ele>664.0</ele><time>2026-04-27T15:27:19.329Z</time></trkpt><trkpt lat="44.2806574" lon="16.0725302"><ele>663.0</ele><time>2026-04-27T15:27:20.328Z</time></trkpt><trkpt lat="44.2804183" lon="16.0722755"><ele>662.0</ele><time>2026-04-27T15:27:21.328Z</time></trkpt><trkpt lat="44.2801771" lon="16.072027"><ele>662.0</ele><time>2026-04-27T15:27:22.328Z</time></trkpt><trkpt lat="44.2799347" lon="16.0717699"><ele>662.0</ele><time>2026-04-27T15:27:23.329Z</time></trkpt><trkpt lat="44.2796952" lon="16.0715224"><ele>659.5</ele><time>2026-04-27T15:27:24.328Z</time></trkpt><trkpt lat="44.279452" lon="16.0712611"><ele>657.0</ele><time>2026-04-27T15:27:25.328Z</time></trkpt><trkpt lat="44.2792118" lon="16.0710118"><ele>657.0</ele><time>2026-04-27T15:27:26.328Z</time></trkpt><trkpt lat="44.2789733" lon="16.0707638"><ele>657.0</ele><time>2026-04-27T15:27:27.328Z</time></trkpt><trkpt lat="44.2787335" lon="16.0705087"><ele>659.0</ele><time>2026-04-27T15:27:28.328Z</time></trkpt><trkpt lat="44.2784825" lon="16.0702643"><ele>661.0</ele><time>2026-04-27T15:27:29.328Z</time></trkpt><trkpt lat="44.2782396" lon="16.0700212"><ele>659.5</ele><time>2026-04-27T15:27:30.328Z</time></trkpt><trkpt lat="44.2779961" lon="16.0697778"><ele>658.0</ele><time>2026-04-27T15:27:31.328Z</time></trkpt><trkpt lat="44.2777518" lon="16.0695424"><ele>658.0</ele><time>2026-04-27T15:27:32.328Z</time></trkpt><trkpt lat="44.2774915" lon="16.069313"><ele>658.0</ele><time>2026-04-27T15:27:33.328Z</time></trkpt><trkpt lat="44.2772294" lon="16.0690933"><ele>656.0</ele><time>2026-04-27T15:27:34.328Z</time></trkpt><trkpt lat="44.2769718" lon="16.0688865"><ele>654.0</ele><time>2026-04-27T15:27:35.328Z</time></trkpt><trkpt lat="44.2767132" lon="16.0686758"><ele>655.0</ele><time>2026-04-27T15:27:36.329Z</time></trkpt><trkpt lat="44.2761909" lon="16.0682611"><ele>655.0</ele><time>2026-04-27T15:27:38.328Z</time></trkpt><trkpt lat="44.2759249" lon="16.0680558"><ele>655.0</ele><time>2026-04-27T15:27:39.329Z</time></trkpt><trkpt lat="44.2756617" lon="16.0678529"><ele>653.0</ele><time>2026-04-27T15:27:40.328Z</time></trkpt><trkpt lat="44.2754029" lon="16.0676497"><ele>651.0</ele><time>2026-04-27T15:27:41.328Z</time></trkpt><trkpt lat="44.2751451" lon="16.0674445"><ele>649.5</ele><time>2026-04-27T15:27:42.328Z</time></trkpt><trkpt lat="44.2748796" lon="16.0672393"><ele>648.0</ele><time>2026-04-27T15:27:43.328Z</time></trkpt><trkpt lat="44.2746166" lon="16.0670355"><ele>648.0</ele><time>2026-04-27T15:27:44.328Z</time></trkpt><trkpt lat="44.2743538" lon="16.0668268"><ele>648.0</ele><time>2026-04-27T15:27:45.329Z</time></trkpt><trkpt lat="44.2740911" lon="16.0666225"><ele>648.5</ele><time>2026-04-27T15:27:46.328Z</time></trkpt><trkpt lat="44.2738257" lon="16.0664153"><ele>649.0</ele><time>2026-04-27T15:27:47.328Z</time></trkpt><trkpt lat="44.2732997" lon="16.0660001"><ele>648.5</ele><time>2026-04-27T15:27:49.328Z</time></trkpt><trkpt lat="44.2730388" lon="16.0657878"><ele>648.0</ele><time>2026-04-27T15:27:50.329Z</time></trkpt><trkpt lat="44.2727771" lon="16.0655818"><ele>647.5</ele><time>2026-04-27T15:27:51.328Z</time></trkpt><trkpt lat="44.272515" lon="16.0653735"><ele>647.0</ele><time>2026-04-27T15:27:52.328Z</time></trkpt><trkpt lat="44.2722545" lon="16.0651737"><ele>645.5</ele><time>2026-04-27T15:27:53.328Z</time></trkpt><trkpt lat="44.2719997" lon="16.0649664"><ele>644.0</ele><time>2026-04-27T15:27:54.329Z</time></trkpt><trkpt lat="44.2717414" lon="16.0647656"><ele>643.0</ele><time>2026-04-27T15:27:55.328Z</time></trkpt><trkpt lat="44.2714866" lon="16.0645599"><ele>642.0</ele><time>2026-04-27T15:27:56.328Z</time></trkpt><trkpt lat="44.2712351" lon="16.0643556"><ele>645.0</ele><time>2026-04-27T15:27:57.329Z</time></trkpt><trkpt lat="44.2709825" lon="16.0641414"><ele>648.0</ele><time>2026-04-27T15:27:58.328Z</time></trkpt><trkpt lat="44.2707382" lon="16.0639174"><ele>648.0</ele><time>2026-04-27T15:27:59.328Z</time></trkpt><trkpt lat="44.2705024" lon="16.0636835"><ele>648.0</ele><time>2026-04-27T15:28:00.329Z</time></trkpt><trkpt lat="44.2702788" lon="16.0634402"><ele>646.0</ele><time>2026-04-27T15:28:01.328Z</time></trkpt><trkpt lat="44.270056" lon="16.0631825"><ele>644.0</ele><time>2026-04-27T15:28:02.328Z</time></trkpt><trkpt lat="44.2698376" lon="16.0629184"><ele>646.5</ele><time>2026-04-27T15:28:03.328Z</time></trkpt><trkpt lat="44.2696276" lon="16.0626493"><ele>649.0</ele><time>2026-04-27T15:28:04.328Z</time></trkpt><trkpt lat="44.2694227" lon="16.0623712"><ele>649.5</ele><time>2026-04-27T15:28:05.328Z</time></trkpt><trkpt lat="44.2692236" lon="16.0620865"><ele>650.0</ele><time>2026-04-27T15:28:06.328Z</time></trkpt><trkpt lat="44.2690283" lon="16.0617925"><ele>651.0</ele><time>2026-04-27T15:28:07.328Z</time></trkpt><trkpt lat="44.2688421" lon="16.0614978"><ele>652.0</ele><time>2026-04-27T15:28:08.328Z</time></trkpt><trkpt lat="44.268655" lon="16.061198"><ele>649.0</ele><time>2026-04-27T15:28:09.329Z</time></trkpt><trkpt lat="44.2682805" lon="16.0606052"><ele>650.5</ele><time>2026-04-27T15:28:11.328Z</time></trkpt><trkpt lat="44.2680935" lon="16.0603057"><ele>652.0</ele><time>2026-04-27T15:28:12.328Z</time></trkpt><trkpt lat="44.2679031" lon="16.0600104"><ele>652.0</ele><time>2026-04-27T15:28:13.329Z</time></trkpt><trkpt lat="44.2677154" lon="16.0597114"><ele>652.0</ele><time>2026-04-27T15:28:14.328Z</time></trkpt><trkpt lat="44.2675298" lon="16.0594179"><ele>652.0</ele><time>2026-04-27T15:28:15.329Z</time></trkpt><trkpt lat="44.2673418" lon="16.0591211"><ele>652.0</ele><time>2026-04-27T15:28:16.328Z</time></trkpt><trkpt lat="44.2671555" lon="16.0588234"><ele>651.5</ele><time>2026-04-27T15:28:17.329Z</time></trkpt><trkpt lat="44.2669665" lon="16.0585248"><ele>651.0</ele><time>2026-04-27T15:28:18.329Z</time></trkpt><trkpt lat="44.2667769" lon="16.0582305"><ele>651.0</ele><time>2026-04-27T15:28:19.328Z</time></trkpt><trkpt lat="44.2666018" lon="16.0579553"><ele>651.0</ele><time>2026-04-27T15:28:20.328Z</time></trkpt><trkpt lat="44.26627" lon="16.0574662"><ele>652.0</ele><time>2026-04-27T15:28:22.328Z</time></trkpt><trkpt lat="44.2660888" lon="16.0572312"><ele>653.0</ele><time>2026-04-27T15:28:23.328Z</time></trkpt><trkpt lat="44.2658908" lon="16.0569988"><ele>653.0</ele><time>2026-04-27T15:28:24.328Z</time></trkpt><trkpt lat="44.2656871" lon="16.0567733"><ele>653.0</ele><time>2026-04-27T15:28:25.328Z</time></trkpt><trkpt lat="44.2654695" lon="16.0565654"><ele>650.0</ele><time>2026-04-27T15:28:26.328Z</time></trkpt><trkpt lat="44.2652365" lon="16.0563733"><ele>647.0</ele><time>2026-04-27T15:28:27.328Z</time></trkpt><trkpt lat="44.2649933" lon="16.0562011"><ele>648.5</ele><time>2026-04-27T15:28:28.328Z</time></trkpt><trkpt lat="44.2647372" lon="16.0560453"><ele>650.0</ele><time>2026-04-27T15:28:29.329Z</time></trkpt><trkpt lat="44.2644799" lon="16.0559185"><ele>650.0</ele><time>2026-04-27T15:28:30.328Z</time></trkpt><trkpt lat="44.2639412" lon="16.0557244"><ele>650.0</ele><time>2026-04-27T15:28:32.328Z</time></trkpt><trkpt lat="44.2636635" lon="16.0556559"><ele>650.0</ele><time>2026-04-27T15:28:33.328Z</time></trkpt><trkpt lat="44.263383" lon="16.0556104"><ele>649.5</ele><time>2026-04-27T15:28:34.329Z</time></trkpt><trkpt lat="44.2631015" lon="16.0555945"><ele>649.0</ele><time>2026-04-27T15:28:35.328Z</time></trkpt><trkpt lat="44.2628168" lon="16.0556"><ele>649.0</ele><time>2026-04-27T15:28:36.328Z</time></trkpt><trkpt lat="44.2625294" lon="16.0556281"><ele>649.0</ele><time>2026-04-27T15:28:37.328Z</time></trkpt><trkpt lat="44.2622414" lon="16.0556847"><ele>650.0</ele><time>2026-04-27T15:28:38.328Z</time></trkpt><trkpt lat="44.2619528" lon="16.0557569"><ele>651.0</ele><time>2026-04-27T15:28:39.328Z</time></trkpt><trkpt lat="44.2616658" lon="16.0558382"><ele>649.0</ele><time>2026-04-27T15:28:40.329Z</time></trkpt><trkpt lat="44.2610838" lon="16.0560077"><ele>649.0</ele><time>2026-04-27T15:28:42.328Z</time></trkpt><trkpt lat="44.2607953" lon="16.0560969"><ele>649.0</ele><time>2026-04-27T15:28:43.329Z</time></trkpt><trkpt lat="44.2605111" lon="16.0561791"><ele>648.5</ele><time>2026-04-27T15:28:44.328Z</time></trkpt><trkpt lat="44.2602261" lon="16.0562647"><ele>648.0</ele><time>2026-04-27T15:28:45.328Z</time></trkpt><trkpt lat="44.259943" lon="16.056353"><ele>647.0</ele><time>2026-04-27T15:28:46.328Z</time></trkpt><trkpt lat="44.2596553" lon="16.0564293"><ele>646.0</ele><time>2026-04-27T15:28:47.329Z</time></trkpt><trkpt lat="44.2593696" lon="16.0565002"><ele>646.0</ele><time>2026-04-27T15:28:48.329Z</time></trkpt><trkpt lat="44.259086" lon="16.0565773"><ele>646.0</ele><time>2026-04-27T15:28:49.328Z</time></trkpt><trkpt lat="44.2588025" lon="16.0566618"><ele>646.0</ele><time>2026-04-27T15:28:50.328Z</time></trkpt><trkpt lat="44.2585193" lon="16.0567418"><ele>646.0</ele><time>2026-04-27T15:28:51.329Z</time></trkpt><trkpt lat="44.2579471" lon="16.0569044"><ele>644.5</ele><time>2026-04-27T15:28:53.328Z</time></trkpt><trkpt lat="44.2576804" lon="16.0569787"><ele>643.0</ele><time>2026-04-27T15:28:54.328Z</time></trkpt><trkpt lat="44.257423" lon="16.0570462"><ele>644.0</ele><time>2026-04-27T15:28:55.328Z</time></trkpt><trkpt lat="44.2571786" lon="16.0571064"><ele>645.0</ele><time>2026-04-27T15:28:56.328Z</time></trkpt><trkpt lat="44.2569497" lon="16.0571534"><ele>645.0</ele><time>2026-04-27T15:28:57.328Z</time></trkpt><trkpt lat="44.2567266" lon="16.057201"><ele>645.0</ele><time>2026-04-27T15:28:58.328Z</time></trkpt><trkpt lat="44.256504" lon="16.0572307"><ele>645.0</ele><time>2026-04-27T15:28:59.328Z</time></trkpt><trkpt lat="44.2562834" lon="16.0572544"><ele>647.0</ele><time>2026-04-27T15:29:00.329Z</time></trkpt><trkpt lat="44.2560645" lon="16.057275"><ele>649.0</ele><time>2026-04-27T15:29:01.329Z</time></trkpt><trkpt lat="44.2556546" lon="16.0573137"><ele>649.0</ele><time>2026-04-27T15:29:03.329Z</time></trkpt><trkpt lat="44.255477" lon="16.0573268"><ele>649.0</ele><time>2026-04-27T15:29:04.329Z</time></trkpt><trkpt lat="44.2553175" lon="16.0573418"><ele>649.0</ele><time>2026-04-27T15:29:05.328Z</time></trkpt><trkpt lat="44.2551721" lon="16.057352"><ele>649.0</ele><time>2026-04-27T15:29:06.329Z</time></trkpt><trkpt lat="44.2550495" lon="16.0573651"><ele>649.0</ele><time>2026-04-27T15:29:07.329Z</time></trkpt><trkpt lat="44.2549348" lon="16.057366"><ele>649.0</ele><time>2026-04-27T15:29:08.328Z</time></trkpt><trkpt lat="44.2548443" lon="16.0573583"><ele>649.0</ele><time>2026-04-27T15:29:09.328Z</time></trkpt><trkpt lat="44.2547641" lon="16.0573328"><ele>649.0</ele><time>2026-04-27T15:29:10.328Z</time></trkpt><trkpt lat="44.2547003" lon="16.0572968"><ele>649.0</ele><time>2026-04-27T15:29:11.329Z</time></trkpt><trkpt lat="44.254647" lon="16.0572442"><ele>649.0</ele><time>2026-04-27T15:29:12.328Z</time></trkpt><trkpt lat="44.2545899" lon="16.0570464"><ele>649.0</ele><time>2026-04-27T15:29:14.328Z</time></trkpt><trkpt lat="44.2545775" lon="16.0568956"><ele>649.0</ele><time>2026-04-27T15:29:15.328Z</time></trkpt><trkpt lat="44.2545638" lon="16.0567079"><ele>649.3333333333334</ele><time>2026-04-27T15:29:16.328Z</time></trkpt><trkpt lat="44.2545477" lon="16.056514"><ele>649.6666666666666</ele><time>2026-04-27T15:29:17.328Z</time></trkpt><trkpt lat="44.2545377" lon="16.0563031"><ele>650.0</ele><time>2026-04-27T15:29:18.329Z</time></trkpt><trkpt lat="44.2545329" lon="16.0560745"><ele>650.0</ele><time>2026-04-27T15:29:19.328Z</time></trkpt><trkpt lat="44.2545397" lon="16.0558328"><ele>650.0</ele><time>2026-04-27T15:29:20.329Z</time></trkpt><trkpt lat="44.2545576" lon="16.0555876"><ele>650.0</ele><time>2026-04-27T15:29:21.329Z</time></trkpt><trkpt lat="44.2545904" lon="16.0553418"><ele>651.6666666666666</ele><time>2026-04-27T15:29:22.328Z</time></trkpt><trkpt lat="44.2546304" lon="16.0550883"><ele>653.3333333333334</ele><time>2026-04-27T15:29:23.329Z</time></trkpt><trkpt lat="44.254683" lon="16.0548396"><ele>655.0</ele><time>2026-04-27T15:29:24.328Z</time></trkpt><trkpt lat="44.2547516" lon="16.0546006"><ele>655.6666666666667</ele><time>2026-04-27T15:29:25.328Z</time></trkpt><trkpt lat="44.2548304" lon="16.054368"><ele>656.3333333333334</ele><time>2026-04-27T15:29:26.328Z</time></trkpt><trkpt lat="44.2549237" lon="16.0541434"><ele>657.0</ele><time>2026-04-27T15:29:27.328Z</time></trkpt><trkpt lat="44.2550253" lon="16.0539177"><ele>658.0</ele><time>2026-04-27T15:29:28.329Z</time></trkpt><trkpt lat="44.2551373" lon="16.0537055"><ele>659.0</ele><time>2026-04-27T15:29:29.328Z</time></trkpt><trkpt lat="44.2552616" lon="16.0535003"><ele>660.0</ele><time>2026-04-27T15:29:30.328Z</time></trkpt><trkpt lat="44.2554039" lon="16.0533094"><ele>660.0</ele><time>2026-04-27T15:29:31.328Z</time></trkpt><trkpt lat="44.2555556" lon="16.0531239"><ele>660.0</ele><time>2026-04-27T15:29:32.328Z</time></trkpt><trkpt lat="44.2557107" lon="16.0529406"><ele>660.0</ele><time>2026-04-27T15:29:33.329Z</time></trkpt><trkpt lat="44.2560125" lon="16.0525578"><ele>662.0</ele><time>2026-04-27T15:29:35.328Z</time></trkpt><trkpt lat="44.2561669" lon="16.0523557"><ele>664.0</ele><time>2026-04-27T15:29:36.328Z</time></trkpt><trkpt lat="44.256327" lon="16.0521591"><ele>666.0</ele><time>2026-04-27T15:29:37.328Z</time></trkpt><trkpt lat="44.256487" lon="16.0519582"><ele>666.0</ele><time>2026-04-27T15:29:38.328Z</time></trkpt><trkpt lat="44.2566454" lon="16.0517522"><ele>666.0</ele><time>2026-04-27T15:29:39.328Z</time></trkpt><trkpt lat="44.2568047" lon="16.0515429"><ele>666.0</ele><time>2026-04-27T15:29:40.329Z</time></trkpt><trkpt lat="44.2569625" lon="16.0513417"><ele>667.3333333333334</ele><time>2026-04-27T15:29:41.328Z</time></trkpt><trkpt lat="44.2571156" lon="16.0511277"><ele>668.6666666666667</ele><time>2026-04-27T15:29:42.328Z</time></trkpt><trkpt lat="44.2572692" lon="16.0509117"><ele>670.0</ele><time>2026-04-27T15:29:43.328Z</time></trkpt><trkpt lat="44.2574144" lon="16.0506827"><ele>670.0</ele><time>2026-04-27T15:29:44.328Z</time></trkpt><trkpt lat="44.257688" lon="16.0501991"><ele>670.0</ele><time>2026-04-27T15:29:46.328Z</time></trkpt><trkpt lat="44.2578214" lon="16.0499439"><ele>674.5</ele><time>2026-04-27T15:29:47.329Z</time></trkpt><trkpt lat="44.2579569" lon="16.049683"><ele>679.0</ele><time>2026-04-27T15:29:48.328Z</time></trkpt><trkpt lat="44.2580935" lon="16.0494116"><ele>676.5</ele><time>2026-04-27T15:29:49.328Z</time></trkpt><trkpt lat="44.2582282" lon="16.0491389"><ele>674.0</ele><time>2026-04-27T15:29:50.328Z</time></trkpt><trkpt lat="44.2583639" lon="16.048861"><ele>674.0</ele><time>2026-04-27T15:29:51.328Z</time></trkpt><trkpt lat="44.2585025" lon="16.0485847"><ele>674.0</ele><time>2026-04-27T15:29:52.328Z</time></trkpt><trkpt lat="44.2586401" lon="16.0483047"><ele>675.0</ele><time>2026-04-27T15:29:53.328Z</time></trkpt><trkpt lat="44.2587866" lon="16.0480323"><ele>676.0</ele><time>2026-04-27T15:29:54.329Z</time></trkpt><trkpt lat="44.259074" lon="16.0474814"><ele>676.5</ele><time>2026-04-27T15:29:56.329Z</time></trkpt><trkpt lat="44.2592164" lon="16.0472053"><ele>677.0</ele><time>2026-04-27T15:29:57.328Z</time></trkpt><trkpt lat="44.2593523" lon="16.046929"><ele>677.0</ele><time>2026-04-27T15:29:58.328Z</time></trkpt><trkpt lat="44.2594756" lon="16.0466793"><ele>677.0</ele><time>2026-04-27T15:29:59.329Z</time></trkpt><trkpt lat="44.259588" lon="16.0464371"><ele>677.0</ele><time>2026-04-27T15:30:00.328Z</time></trkpt><trkpt lat="44.2596869" lon="16.0461891"><ele>678.0</ele><time>2026-04-27T15:30:01.328Z</time></trkpt><trkpt lat="44.2597725" lon="16.0459293"><ele>679.0</ele><time>2026-04-27T15:30:02.328Z</time></trkpt><trkpt lat="44.2598468" lon="16.0456512"><ele>680.0</ele><time>2026-04-27T15:30:03.328Z</time></trkpt><trkpt lat="44.2599034" lon="16.0453683"><ele>678.5</ele><time>2026-04-27T15:30:04.328Z</time></trkpt><trkpt lat="44.2599682" lon="16.0447687"><ele>677.0</ele><time>2026-04-27T15:30:06.328Z</time></trkpt><trkpt lat="44.2599708" lon="16.0444562"><ele>677.0</ele><time>2026-04-27T15:30:07.328Z</time></trkpt><trkpt lat="44.2599528" lon="16.0441384"><ele>677.0</ele><time>2026-04-27T15:30:08.329Z</time></trkpt><trkpt lat="44.259915" lon="16.0438187"><ele>675.0</ele><time>2026-04-27T15:30:09.328Z</time></trkpt><trkpt lat="44.2598554" lon="16.0434993"><ele>673.0</ele><time>2026-04-27T15:30:10.328Z</time></trkpt><trkpt lat="44.2597715" lon="16.043191"><ele>677.0</ele><time>2026-04-27T15:30:11.328Z</time></trkpt><trkpt lat="44.2596819" lon="16.0428827"><ele>681.0</ele><time>2026-04-27T15:30:12.329Z</time></trkpt><trkpt lat="44.259537" lon="16.0425828"><ele>677.0</ele><time>2026-04-27T15:30:13.329Z</time></trkpt><trkpt lat="44.2594083" lon="16.0422837"><ele>673.0</ele><time>2026-04-27T15:30:14.328Z</time></trkpt><trkpt lat="44.2592734" lon="16.0419809"><ele>667.0</ele><time>2026-04-27T15:30:15.329Z</time></trkpt><trkpt lat="44.2590112" lon="16.0413578"><ele>672.0</ele><time>2026-04-27T15:30:17.328Z</time></trkpt><trkpt lat="44.258881" lon="16.0410377"><ele>677.0</ele><time>2026-04-27T15:30:18.328Z</time></trkpt><trkpt lat="44.2587614" lon="16.0407113"><ele>677.0</ele><time>2026-04-27T15:30:19.328Z</time></trkpt><trkpt lat="44.2586583" lon="16.0403755"><ele>677.0</ele><time>2026-04-27T15:30:20.329Z</time></trkpt><trkpt lat="44.2585657" lon="16.0400224"><ele>674.5</ele><time>2026-04-27T15:30:21.329Z</time></trkpt><trkpt lat="44.2584763" lon="16.0396658"><ele>672.0</ele><time>2026-04-27T15:30:22.328Z</time></trkpt><trkpt lat="44.2583945" lon="16.0392985"><ele>669.5</ele><time>2026-04-27T15:30:23.328Z</time></trkpt><trkpt lat="44.2583126" lon="16.0389306"><ele>667.0</ele><time>2026-04-27T15:30:24.328Z</time></trkpt><trkpt lat="44.2582309" lon="16.0385616"><ele>663.5</ele><time>2026-04-27T15:30:25.328Z</time></trkpt><trkpt lat="44.258147" lon="16.038185"><ele>660.0</ele><time>2026-04-27T15:30:26.328Z</time></trkpt><trkpt lat="44.2579798" lon="16.0374379"><ele>671.0</ele><time>2026-04-27T15:30:28.328Z</time></trkpt><trkpt lat="44.2579004" lon="16.0370593"><ele>682.0</ele><time>2026-04-27T15:30:29.328Z</time></trkpt><trkpt lat="44.2578198" lon="16.0366838"><ele>679.0</ele><time>2026-04-27T15:30:30.328Z</time></trkpt><trkpt lat="44.2577368" lon="16.0363115"><ele>676.0</ele><time>2026-04-27T15:30:31.328Z</time></trkpt><trkpt lat="44.2576552" lon="16.0359383"><ele>673.0</ele><time>2026-04-27T15:30:32.328Z</time></trkpt><trkpt lat="44.2575725" lon="16.035578"><ele>670.0</ele><time>2026-04-27T15:30:33.328Z</time></trkpt><trkpt lat="44.2575035" lon="16.0352576"><ele>664.5</ele><time>2026-04-27T15:30:34.328Z</time></trkpt><trkpt lat="44.2574296" lon="16.0349514"><ele>659.0</ele><time>2026-04-27T15:30:35.328Z</time></trkpt><trkpt lat="44.2573372" lon="16.0346567"><ele>662.5</ele><time>2026-04-27T15:30:36.328Z</time></trkpt><trkpt lat="44.2572269" lon="16.0343755"><ele>666.0</ele><time>2026-04-27T15:30:37.328Z</time></trkpt><trkpt lat="44.2569764" lon="16.033843"><ele>666.0</ele><time>2026-04-27T15:30:39.328Z</time></trkpt><trkpt lat="44.2568461" lon="16.0335816"><ele>666.0</ele><time>2026-04-27T15:30:40.328Z</time></trkpt><trkpt lat="44.256734" lon="16.033316"><ele>666.0</ele><time>2026-04-27T15:30:41.328Z</time></trkpt><trkpt lat="44.2566424" lon="16.0330396"><ele>663.6666666666666</ele><time>2026-04-27T15:30:42.329Z</time></trkpt><trkpt lat="44.2565776" lon="16.0327543"><ele>661.3333333333333</ele><time>2026-04-27T15:30:43.328Z</time></trkpt><trkpt lat="44.2565423" lon="16.0324526"><ele>659.0</ele><time>2026-04-27T15:30:44.328Z</time></trkpt><trkpt lat="44.2565277" lon="16.0321379"><ele>659.0</ele><time>2026-04-27T15:30:45.328Z</time></trkpt><trkpt lat="44.256543" lon="16.031822"><ele>659.0</ele><time>2026-04-27T15:30:46.328Z</time></trkpt><trkpt lat="44.2566025" lon="16.0315225"><ele>659.0</ele><time>2026-04-27T15:30:47.328Z</time></trkpt><trkpt lat="44.256693" lon="16.0312244"><ele>662.5</ele><time>2026-04-27T15:30:48.328Z</time></trkpt><trkpt lat="44.2568031" lon="16.0309523"><ele>666.0</ele><time>2026-04-27T15:30:49.328Z</time></trkpt><trkpt lat="44.2569399" lon="16.0306891"><ele>671.5</ele><time>2026-04-27T15:30:50.328Z</time></trkpt><trkpt lat="44.2571039" lon="16.0304598"><ele>677.0</ele><time>2026-04-27T15:30:51.328Z</time></trkpt><trkpt lat="44.2572884" lon="16.0302497"><ele>677.0</ele><time>2026-04-27T15:30:52.329Z</time></trkpt><trkpt lat="44.2574709" lon="16.0300511"><ele>677.0</ele><time>2026-04-27T15:30:53.329Z</time></trkpt><trkpt lat="44.257657" lon="16.0298475"><ele>684.0</ele><time>2026-04-27T15:30:54.329Z</time></trkpt><trkpt lat="44.2578419" lon="16.0296446"><ele>691.0</ele><time>2026-04-27T15:30:55.328Z</time></trkpt><trkpt lat="44.2580237" lon="16.0294343"><ele>691.5</ele><time>2026-04-27T15:30:56.329Z</time></trkpt><trkpt lat="44.2582013" lon="16.0292208"><ele>692.0</ele><time>2026-04-27T15:30:57.328Z</time></trkpt><trkpt lat="44.2583739" lon="16.0289909"><ele>692.0</ele><time>2026-04-27T15:30:58.328Z</time></trkpt><trkpt lat="44.2586895" lon="16.0284917"><ele>690.0</ele><time>2026-04-27T15:31:00.329Z</time></trkpt><trkpt lat="44.2588404" lon="16.0282427"><ele>688.0</ele><time>2026-04-27T15:31:01.329Z</time></trkpt><trkpt lat="44.258984" lon="16.0279885"><ele>688.0</ele><time>2026-04-27T15:31:02.328Z</time></trkpt><trkpt lat="44.2591252" lon="16.0277275"><ele>688.0</ele><time>2026-04-27T15:31:03.329Z</time></trkpt><trkpt lat="44.2592652" lon="16.0274677"><ele>694.0</ele><time>2026-04-27T15:31:04.328Z</time></trkpt><trkpt lat="44.2594047" lon="16.0272051"><ele>700.0</ele><time>2026-04-27T15:31:05.329Z</time></trkpt><trkpt lat="44.2595546" lon="16.0269377"><ele>700.0</ele><time>2026-04-27T15:31:06.329Z</time></trkpt><trkpt lat="44.2596978" lon="16.0266722"><ele>700.0</ele><time>2026-04-27T15:31:07.328Z</time></trkpt><trkpt lat="44.2598406" lon="16.0264042"><ele>702.0</ele><time>2026-04-27T15:31:08.328Z</time></trkpt><trkpt lat="44.2601009" lon="16.0258215"><ele>708.5</ele><time>2026-04-27T15:31:10.328Z</time></trkpt><trkpt lat="44.2602181" lon="16.0255036"><ele>715.0</ele><time>2026-04-27T15:31:11.328Z</time></trkpt><trkpt lat="44.2603264" lon="16.0251777"><ele>721.0</ele><time>2026-04-27T15:31:12.328Z</time></trkpt><trkpt lat="44.2604339" lon="16.0248363"><ele>727.0</ele><time>2026-04-27T15:31:13.328Z</time></trkpt><trkpt lat="44.2605418" lon="16.0244843"><ele>719.5</ele><time>2026-04-27T15:31:14.328Z</time></trkpt><trkpt lat="44.2606518" lon="16.024117"><ele>712.0</ele><time>2026-04-27T15:31:15.328Z</time></trkpt><trkpt lat="44.2607618" lon="16.0237345"><ele>712.0</ele><time>2026-04-27T15:31:16.328Z</time></trkpt><trkpt lat="44.2608789" lon="16.0233377"><ele>712.0</ele><time>2026-04-27T15:31:17.328Z</time></trkpt><trkpt lat="44.2609995" lon="16.0229309"><ele>718.5</ele><time>2026-04-27T15:31:18.328Z</time></trkpt><trkpt lat="44.2611194" lon="16.0225186"><ele>725.0</ele><time>2026-04-27T15:31:19.328Z</time></trkpt><trkpt lat="44.2613548" lon="16.0217075"><ele>723.0</ele><time>2026-04-27T15:31:21.328Z</time></trkpt><trkpt lat="44.2614619" lon="16.0213355"><ele>721.0</ele><time>2026-04-27T15:31:22.328Z</time></trkpt><trkpt lat="44.2615622" lon="16.0209923"><ele>727.0</ele><time>2026-04-27T15:31:23.328Z</time></trkpt><trkpt lat="44.2616558" lon="16.0206344"><ele>733.0</ele><time>2026-04-27T15:31:24.329Z</time></trkpt><trkpt lat="44.2617322" lon="16.0202627"><ele>736.5</ele><time>2026-04-27T15:31:25.329Z</time></trkpt><trkpt lat="44.2617996" lon="16.0198813"><ele>740.0</ele><time>2026-04-27T15:31:26.328Z</time></trkpt><trkpt lat="44.2618503" lon="16.0194912"><ele>743.0</ele><time>2026-04-27T15:31:27.328Z</time></trkpt><trkpt lat="44.2618949" lon="16.0190903"><ele>746.0</ele><time>2026-04-27T15:31:28.328Z</time></trkpt><trkpt lat="44.2619391" lon="16.0186869"><ele>748.5</ele><time>2026-04-27T15:31:29.328Z</time></trkpt><trkpt lat="44.2619801" lon="16.0183057"><ele>751.0</ele><time>2026-04-27T15:31:30.328Z</time></trkpt><trkpt lat="44.262056" lon="16.0176134"><ele>752.0</ele><time>2026-04-27T15:31:32.328Z</time></trkpt><trkpt lat="44.2620919" lon="16.0172875"><ele>753.0</ele><time>2026-04-27T15:31:33.328Z</time></trkpt><trkpt lat="44.262141" lon="16.0169635"><ele>753.0</ele><time>2026-04-27T15:31:34.329Z</time></trkpt><trkpt lat="44.2622044" lon="16.0166581"><ele>753.0</ele><time>2026-04-27T15:31:35.328Z</time></trkpt><trkpt lat="44.2622867" lon="16.0163457"><ele>747.0</ele><time>2026-04-27T15:31:36.329Z</time></trkpt><trkpt lat="44.2623875" lon="16.0160243"><ele>741.0</ele><time>2026-04-27T15:31:37.328Z</time></trkpt><trkpt lat="44.2625084" lon="16.0156998"><ele>740.5</ele><time>2026-04-27T15:31:38.328Z</time></trkpt><trkpt lat="44.2626332" lon="16.0153659"><ele>740.0</ele><time>2026-04-27T15:31:39.329Z</time></trkpt><trkpt lat="44.2627495" lon="16.0150484"><ele>737.5</ele><time>2026-04-27T15:31:40.329Z</time></trkpt><trkpt lat="44.2628524" lon="16.0147414"><ele>735.0</ele><time>2026-04-27T15:31:41.328Z</time></trkpt><trkpt lat="44.2630117" lon="16.0140888"><ele>733.0</ele><time>2026-04-27T15:31:43.329Z</time></trkpt><trkpt lat="44.2630574" lon="16.0137497"><ele>731.0</ele><time>2026-04-27T15:31:44.328Z</time></trkpt><trkpt lat="44.2630912" lon="16.0134077"><ele>743.5</ele><time>2026-04-27T15:31:45.328Z</time></trkpt><trkpt lat="44.2631141" lon="16.0130706"><ele>756.0</ele><time>2026-04-27T15:31:46.328Z</time></trkpt><trkpt lat="44.2631476" lon="16.0127347"><ele>752.0</ele><time>2026-04-27T15:31:47.328Z</time></trkpt><trkpt lat="44.2631993" lon="16.0124098"><ele>748.0</ele><time>2026-04-27T15:31:48.328Z</time></trkpt><trkpt lat="44.2632809" lon="16.0120912"><ele>748.0</ele><time>2026-04-27T15:31:49.328Z</time></trkpt><trkpt lat="44.2633984" lon="16.0117746"><ele>748.0</ele><time>2026-04-27T15:31:50.328Z</time></trkpt><trkpt lat="44.263535" lon="16.0114805"><ele>738.0</ele><time>2026-04-27T15:31:51.328Z</time></trkpt><trkpt lat="44.2638529" lon="16.0108453"><ele>745.0</ele><time>2026-04-27T15:31:53.328Z</time></trkpt><trkpt lat="44.2640033" lon="16.0105499"><ele>752.0</ele><time>2026-04-27T15:31:54.328Z</time></trkpt><trkpt lat="44.2641385" lon="16.0102585"><ele>750.5</ele><time>2026-04-27T15:31:55.328Z</time></trkpt><trkpt lat="44.264254" lon="16.0099503"><ele>749.0</ele><time>2026-04-27T15:31:56.328Z</time></trkpt><trkpt lat="44.2643534" lon="16.0096197"><ele>749.0</ele><time>2026-04-27T15:31:57.328Z</time></trkpt><trkpt lat="44.2644339" lon="16.00928"><ele>749.0</ele><time>2026-04-27T15:31:58.328Z</time></trkpt><trkpt lat="44.2645187" lon="16.0089365"><ele>746.5</ele><time>2026-04-27T15:31:59.329Z</time></trkpt><trkpt lat="44.2646264" lon="16.0086041"><ele>744.0</ele><time>2026-04-27T15:32:00.329Z</time></trkpt><trkpt lat="44.2647647" lon="16.0082895"><ele>755.0</ele><time>2026-04-27T15:32:01.329Z</time></trkpt><trkpt lat="44.265074" lon="16.0076931"><ele>750.5</ele><time>2026-04-27T15:32:03.328Z</time></trkpt><trkpt lat="44.265221" lon="16.0073883"><ele>746.0</ele><time>2026-04-27T15:32:04.329Z</time></trkpt><trkpt lat="44.2653442" lon="16.0070489"><ele>746.0</ele><time>2026-04-27T15:32:05.328Z</time></trkpt><trkpt lat="44.2654577" lon="16.006704"><ele>746.0</ele><time>2026-04-27T15:32:06.329Z</time></trkpt><trkpt lat="44.2655734" lon="16.0063544"><ele>752.5</ele><time>2026-04-27T15:32:07.328Z</time></trkpt><trkpt lat="44.2656876" lon="16.0060101"><ele>759.0</ele><time>2026-04-27T15:32:08.328Z</time></trkpt><trkpt lat="44.2657999" lon="16.0056561"><ele>759.0</ele><time>2026-04-27T15:32:09.328Z</time></trkpt><trkpt lat="44.2659142" lon="16.0053046"><ele>759.0</ele><time>2026-04-27T15:32:10.328Z</time></trkpt><trkpt lat="44.2660334" lon="16.0049514"><ele>756.0</ele><time>2026-04-27T15:32:11.329Z</time></trkpt><trkpt lat="44.2661512" lon="16.004595"><ele>753.0</ele><time>2026-04-27T15:32:12.328Z</time></trkpt><trkpt lat="44.2662691" lon="16.0042431"><ele>751.0</ele><time>2026-04-27T15:32:13.328Z</time></trkpt><trkpt lat="44.2663835" lon="16.0038885"><ele>749.0</ele><time>2026-04-27T15:32:14.329Z</time></trkpt><trkpt lat="44.2664951" lon="16.0035261"><ele>756.5</ele><time>2026-04-27T15:32:15.328Z</time></trkpt><trkpt lat="44.266587" lon="16.0031543"><ele>764.0</ele><time>2026-04-27T15:32:16.328Z</time></trkpt><trkpt lat="44.2666642" lon="16.0027766"><ele>763.5</ele><time>2026-04-27T15:32:17.328Z</time></trkpt><trkpt lat="44.2667375" lon="16.002393"><ele>763.0</ele><time>2026-04-27T15:32:18.328Z</time></trkpt><trkpt lat="44.2668024" lon="16.0020041"><ele>760.0</ele><time>2026-04-27T15:32:19.328Z</time></trkpt><trkpt lat="44.2668828" lon="16.001628"><ele>757.0</ele><time>2026-04-27T15:32:20.328Z</time></trkpt><trkpt lat="44.2669879" lon="16.0012707"><ele>757.0</ele><time>2026-04-27T15:32:21.328Z</time></trkpt><trkpt lat="44.2671175" lon="16.0009353"><ele>757.0</ele><time>2026-04-27T15:32:22.328Z</time></trkpt><trkpt lat="44.2672712" lon="16.0006286"><ele>771.0</ele><time>2026-04-27T15:32:23.329Z</time></trkpt><trkpt lat="44.2676234" lon="16.0000432"><ele>771.0</ele><time>2026-04-27T15:32:25.329Z</time></trkpt><trkpt lat="44.26779" lon="15.9997553"><ele>771.0</ele><time>2026-04-27T15:32:26.328Z</time></trkpt><trkpt lat="44.2679335" lon="15.9994524"><ele>774.5</ele><time>2026-04-27T15:32:27.328Z</time></trkpt><trkpt lat="44.2680556" lon="15.9991406"><ele>778.0</ele><time>2026-04-27T15:32:28.329Z</time></trkpt><trkpt lat="44.2681549" lon="15.9988202"><ele>778.0</ele><time>2026-04-27T15:32:29.328Z</time></trkpt><trkpt lat="44.2682299" lon="15.998493"><ele>778.0</ele><time>2026-04-27T15:32:30.329Z</time></trkpt><trkpt lat="44.2682765" lon="15.9981528"><ele>778.0</ele><time>2026-04-27T15:32:31.328Z</time></trkpt><trkpt lat="44.2683008" lon="15.9978104"><ele>778.0</ele><time>2026-04-27T15:32:32.328Z</time></trkpt><trkpt lat="44.2683" lon="15.9974545"><ele>778.0</ele><time>2026-04-27T15:32:33.329Z</time></trkpt><trkpt lat="44.2682741" lon="15.9967254"><ele>779.5</ele><time>2026-04-27T15:32:35.328Z</time></trkpt><trkpt lat="44.2682629" lon="15.9963597"><ele>781.0</ele><time>2026-04-27T15:32:36.328Z</time></trkpt><trkpt lat="44.268248" lon="15.9959916"><ele>781.5</ele><time>2026-04-27T15:32:37.328Z</time></trkpt><trkpt lat="44.2682367" lon="15.9956247"><ele>782.0</ele><time>2026-04-27T15:32:38.328Z</time></trkpt><trkpt lat="44.2682276" lon="15.9952631"><ele>783.0</ele><time>2026-04-27T15:32:39.328Z</time></trkpt><trkpt lat="44.268214" lon="15.9948948"><ele>784.0</ele><time>2026-04-27T15:32:40.329Z</time></trkpt><trkpt lat="44.2682007" lon="15.9945254"><ele>785.5</ele><time>2026-04-27T15:32:41.328Z</time></trkpt><trkpt lat="44.2681842" lon="15.994158"><ele>787.0</ele><time>2026-04-27T15:32:42.328Z</time></trkpt><trkpt lat="44.2681752" lon="15.9937904"><ele>787.0</ele><time>2026-04-27T15:32:43.329Z</time></trkpt><trkpt lat="44.2681687" lon="15.9934237"><ele>787.0</ele><time>2026-04-27T15:32:44.329Z</time></trkpt><trkpt lat="44.2681544" lon="15.9930556"><ele>787.0</ele><time>2026-04-27T15:32:45.328Z</time></trkpt><trkpt lat="44.2681358" lon="15.9926896"><ele>787.0</ele><time>2026-04-27T15:32:46.328Z</time></trkpt><trkpt lat="44.2681208" lon="15.9923227"><ele>783.0</ele><time>2026-04-27T15:32:47.328Z</time></trkpt><trkpt lat="44.2681065" lon="15.9919558"><ele>779.0</ele><time>2026-04-27T15:32:48.328Z</time></trkpt><trkpt lat="44.2680847" lon="15.9915934"><ele>779.0</ele><time>2026-04-27T15:32:49.328Z</time></trkpt><trkpt lat="44.2680519" lon="15.9912339"><ele>779.0</ele><time>2026-04-27T15:32:50.328Z</time></trkpt><trkpt lat="44.2680017" lon="15.9908759"><ele>780.5</ele><time>2026-04-27T15:32:51.329Z</time></trkpt><trkpt lat="44.2679442" lon="15.9905212"><ele>782.0</ele><time>2026-04-27T15:32:52.329Z</time></trkpt><trkpt lat="44.2678799" lon="15.9901637"><ele>783.5</ele><time>2026-04-27T15:32:53.328Z</time></trkpt><trkpt lat="44.2678204" lon="15.9898001"><ele>785.0</ele><time>2026-04-27T15:32:54.329Z</time></trkpt><trkpt lat="44.2677232" lon="15.9890695"><ele>785.5</ele><time>2026-04-27T15:32:56.329Z</time></trkpt><trkpt lat="44.2677017" lon="15.9886867"><ele>786.0</ele><time>2026-04-27T15:32:57.328Z</time></trkpt><trkpt lat="44.267706" lon="15.9883061"><ele>785.0</ele><time>2026-04-27T15:32:58.328Z</time></trkpt><trkpt lat="44.2677296" lon="15.9879237"><ele>784.0</ele><time>2026-04-27T15:32:59.329Z</time></trkpt><trkpt lat="44.2677637" lon="15.9875451"><ele>785.5</ele><time>2026-04-27T15:33:00.328Z</time></trkpt><trkpt lat="44.2677951" lon="15.9871609"><ele>787.0</ele><time>2026-04-27T15:33:01.328Z</time></trkpt><trkpt lat="44.2678129" lon="15.9867775"><ele>786.5</ele><time>2026-04-27T15:33:02.328Z</time></trkpt><trkpt lat="44.2678109" lon="15.9863947"><ele>786.0</ele><time>2026-04-27T15:33:03.328Z</time></trkpt><trkpt lat="44.2677817" lon="15.9860099"><ele>786.0</ele><time>2026-04-27T15:33:04.328Z</time></trkpt><trkpt lat="44.2676861" lon="15.9852453"><ele>784.5</ele><time>2026-04-27T15:33:06.328Z</time></trkpt><trkpt lat="44.2676282" lon="15.9848606"><ele>783.0</ele><time>2026-04-27T15:33:07.328Z</time></trkpt><trkpt lat="44.2675696" lon="15.9844721"><ele>782.5</ele><time>2026-04-27T15:33:08.328Z</time></trkpt><trkpt lat="44.2675096" lon="15.9840816"><ele>782.0</ele><time>2026-04-27T15:33:09.328Z</time></trkpt><trkpt lat="44.2674591" lon="15.9836867"><ele>781.5</ele><time>2026-04-27T15:33:10.328Z</time></trkpt><trkpt lat="44.2674258" lon="15.9832865"><ele>781.0</ele><time>2026-04-27T15:33:11.329Z</time></trkpt><trkpt lat="44.2674124" lon="15.9828841"><ele>781.0</ele><time>2026-04-27T15:33:12.329Z</time></trkpt><trkpt lat="44.2674163" lon="15.9824788"><ele>781.0</ele><time>2026-04-27T15:33:13.328Z</time></trkpt><trkpt lat="44.2674428" lon="15.9820777"><ele>781.5</ele><time>2026-04-27T15:33:14.329Z</time></trkpt><trkpt lat="44.267483" lon="15.9816784"><ele>782.0</ele><time>2026-04-27T15:33:15.328Z</time></trkpt><trkpt lat="44.2676298" lon="15.9809"><ele>781.5</ele><time>2026-04-27T15:33:17.328Z</time></trkpt><trkpt lat="44.2677322" lon="15.9805215"><ele>781.0</ele><time>2026-04-27T15:33:18.328Z</time></trkpt><trkpt lat="44.267855" lon="15.9801637"><ele>780.5</ele><time>2026-04-27T15:33:19.328Z</time></trkpt><trkpt lat="44.2679963" lon="15.9798141"><ele>780.0</ele><time>2026-04-27T15:33:20.328Z</time></trkpt><trkpt lat="44.2681516" lon="15.9794776"><ele>782.0</ele><time>2026-04-27T15:33:21.328Z</time></trkpt><trkpt lat="44.268327" lon="15.979159"><ele>784.0</ele><time>2026-04-27T15:33:22.328Z</time></trkpt><trkpt lat="44.2685183" lon="15.9788601"><ele>784.0</ele><time>2026-04-27T15:33:23.329Z</time></trkpt><trkpt lat="44.2687226" lon="15.9785845"><ele>784.0</ele><time>2026-04-27T15:33:24.328Z</time></trkpt><trkpt lat="44.2689291" lon="15.978314"><ele>783.0</ele><time>2026-04-27T15:33:25.328Z</time></trkpt><trkpt lat="44.2691268" lon="15.978033"><ele>782.0</ele><time>2026-04-27T15:33:26.328Z</time></trkpt><trkpt lat="44.2694856" lon="15.9774428"><ele>786.0</ele><time>2026-04-27T15:33:28.328Z</time></trkpt><trkpt lat="44.2696253" lon="15.9771197"><ele>790.0</ele><time>2026-04-27T15:33:29.328Z</time></trkpt><trkpt lat="44.2697402" lon="15.9767855"><ele>788.0</ele><time>2026-04-27T15:33:30.328Z</time></trkpt><trkpt lat="44.2698262" lon="15.9764362"><ele>786.0</ele><time>2026-04-27T15:33:31.329Z</time></trkpt><trkpt lat="44.2698851" lon="15.9760814"><ele>786.0</ele><time>2026-04-27T15:33:32.329Z</time></trkpt><trkpt lat="44.2699113" lon="15.9757327"><ele>786.0</ele><time>2026-04-27T15:33:33.328Z</time></trkpt><trkpt lat="44.2699068" lon="15.975383"><ele>786.0</ele><time>2026-04-27T15:33:34.328Z</time></trkpt><trkpt lat="44.2698739" lon="15.9750269"><ele>786.0</ele><time>2026-04-27T15:33:35.328Z</time></trkpt><trkpt lat="44.2698095" lon="15.9746806"><ele>796.0</ele><time>2026-04-27T15:33:36.329Z</time></trkpt><trkpt lat="44.2696197" lon="15.9740018"><ele>796.0</ele><time>2026-04-27T15:33:38.329Z</time></trkpt><trkpt lat="44.2695138" lon="15.9736653"><ele>796.0</ele><time>2026-04-27T15:33:39.328Z</time></trkpt><trkpt lat="44.2694081" lon="15.9733266"><ele>794.0</ele><time>2026-04-27T15:33:40.328Z</time></trkpt><trkpt lat="44.2693065" lon="15.9729879"><ele>792.0</ele><time>2026-04-27T15:33:41.328Z</time></trkpt><trkpt lat="44.2692188" lon="15.9726351"><ele>790.5</ele><time>2026-04-27T15:33:42.329Z</time></trkpt><trkpt lat="44.2691515" lon="15.9722715"><ele>789.0</ele><time>2026-04-27T15:33:43.328Z</time></trkpt><trkpt lat="44.2690928" lon="15.971902"><ele>789.5</ele><time>2026-04-27T15:33:44.329Z</time></trkpt><trkpt lat="44.269027" lon="15.9715249"><ele>790.0</ele><time>2026-04-27T15:33:45.329Z</time></trkpt><trkpt lat="44.2689638" lon="15.9711514"><ele>787.0</ele><time>2026-04-27T15:33:46.328Z</time></trkpt><trkpt lat="44.2688075" lon="15.9704213"><ele>787.0</ele><time>2026-04-27T15:33:48.328Z</time></trkpt><trkpt lat="44.2687001" lon="15.9700749"><ele>787.0</ele><time>2026-04-27T15:33:49.328Z</time></trkpt><trkpt lat="44.2685514" lon="15.9697549"><ele>787.5</ele><time>2026-04-27T15:33:50.329Z</time></trkpt><trkpt lat="44.2683952" lon="15.9694429"><ele>788.0</ele><time>2026-04-27T15:33:51.329Z</time></trkpt><trkpt lat="44.2682344" lon="15.9691408"><ele>788.5</ele><time>2026-04-27T15:33:52.328Z</time></trkpt><trkpt lat="44.2680684" lon="15.9688393"><ele>789.0</ele><time>2026-04-27T15:33:53.328Z</time></trkpt><trkpt lat="44.2678971" lon="15.9685389"><ele>790.0</ele><time>2026-04-27T15:33:54.329Z</time></trkpt><trkpt lat="44.2677275" lon="15.9682399"><ele>791.0</ele><time>2026-04-27T15:33:55.329Z</time></trkpt><trkpt lat="44.2675562" lon="15.9679355"><ele>792.0</ele><time>2026-04-27T15:33:56.328Z</time></trkpt><trkpt lat="44.2672079" lon="15.9673105"><ele>792.0</ele><time>2026-04-27T15:33:58.329Z</time></trkpt><trkpt lat="44.2670326" lon="15.9669937"><ele>792.0</ele><time>2026-04-27T15:33:59.328Z</time></trkpt><trkpt lat="44.2668654" lon="15.9666685"><ele>793.0</ele><time>2026-04-27T15:34:00.328Z</time></trkpt><trkpt lat="44.2667052" lon="15.9663394"><ele>794.0</ele><time>2026-04-27T15:34:01.329Z</time></trkpt><trkpt lat="44.2665671" lon="15.9659933"><ele>793.5</ele><time>2026-04-27T15:34:02.329Z</time></trkpt><trkpt lat="44.2664469" lon="15.9656345"><ele>793.0</ele><time>2026-04-27T15:34:03.328Z</time></trkpt><trkpt lat="44.2663522" lon="15.9652644"><ele>793.0</ele><time>2026-04-27T15:34:04.328Z</time></trkpt><trkpt lat="44.2662863" lon="15.9648823"><ele>793.0</ele><time>2026-04-27T15:34:05.329Z</time></trkpt><trkpt lat="44.2662408" lon="15.9644919"><ele>792.5</ele><time>2026-04-27T15:34:06.329Z</time></trkpt><trkpt lat="44.2662169" lon="15.964097"><ele>792.0</ele><time>2026-04-27T15:34:07.328Z</time></trkpt><trkpt lat="44.2662542" lon="15.963306"><ele>790.5</ele><time>2026-04-27T15:34:09.328Z</time></trkpt><trkpt lat="44.2663169" lon="15.9629246"><ele>789.0</ele><time>2026-04-27T15:34:10.328Z</time></trkpt><trkpt lat="44.2663945" lon="15.9625439"><ele>796.0</ele><time>2026-04-27T15:34:11.328Z</time></trkpt><trkpt lat="44.2664802" lon="15.9621795"><ele>803.0</ele><time>2026-04-27T15:34:12.329Z</time></trkpt><trkpt lat="44.266566" lon="15.9618251"><ele>799.5</ele><time>2026-04-27T15:34:13.328Z</time></trkpt><trkpt lat="44.2666486" lon="15.9614875"><ele>796.0</ele><time>2026-04-27T15:34:14.328Z</time></trkpt><trkpt lat="44.2667342" lon="15.9611638"><ele>793.5</ele><time>2026-04-27T15:34:15.328Z</time></trkpt><trkpt lat="44.2668111" lon="15.960855"><ele>791.0</ele><time>2026-04-27T15:34:16.329Z</time></trkpt><trkpt lat="44.2668848" lon="15.9605583"><ele>790.0</ele><time>2026-04-27T15:34:17.328Z</time></trkpt><trkpt lat="44.2670339" lon="15.9599672"><ele>789.0</ele><time>2026-04-27T15:34:19.329Z</time></trkpt><trkpt lat="44.2671055" lon="15.959665"><ele>789.0</ele><time>2026-04-27T15:34:20.329Z</time></trkpt><trkpt lat="44.2671837" lon="15.9593659"><ele>789.0</ele><time>2026-04-27T15:34:21.328Z</time></trkpt><trkpt lat="44.267256" lon="15.9590599"><ele>796.5</ele><time>2026-04-27T15:34:22.329Z</time></trkpt><trkpt lat="44.2673265" lon="15.9587595"><ele>804.0</ele><time>2026-04-27T15:34:23.328Z</time></trkpt><trkpt lat="44.2674001" lon="15.9584497"><ele>801.0</ele><time>2026-04-27T15:34:24.329Z</time></trkpt><trkpt lat="44.2674701" lon="15.9581438"><ele>798.0</ele><time>2026-04-27T15:34:25.328Z</time></trkpt><trkpt lat="44.26755" lon="15.9578338"><ele>798.0</ele><time>2026-04-27T15:34:26.329Z</time></trkpt><trkpt lat="44.2676275" lon="15.9575404"><ele>798.0</ele><time>2026-04-27T15:34:27.328Z</time></trkpt><trkpt lat="44.2677195" lon="15.9572633"><ele>798.0</ele><time>2026-04-27T15:34:28.328Z</time></trkpt><trkpt lat="44.2679576" lon="15.9567355"><ele>798.5</ele><time>2026-04-27T15:34:30.328Z</time></trkpt><trkpt lat="44.2681036" lon="15.956495"><ele>799.0</ele><time>2026-04-27T15:34:31.328Z</time></trkpt><trkpt lat="44.2682689" lon="15.9562717"><ele>799.0</ele><time>2026-04-27T15:34:32.328Z</time></trkpt><trkpt lat="44.2684492" lon="15.9560767"><ele>799.0</ele><time>2026-04-27T15:34:33.328Z</time></trkpt><trkpt lat="44.2686416" lon="15.9559082"><ele>796.6666666666666</ele><time>2026-04-27T15:34:34.328Z</time></trkpt><trkpt lat="44.2688264" lon="15.9557692"><ele>794.3333333333333</ele><time>2026-04-27T15:34:35.328Z</time></trkpt><trkpt lat="44.2690167" lon="15.9556478"><ele>792.0</ele><time>2026-04-27T15:34:36.328Z</time></trkpt><trkpt lat="44.2692132" lon="15.9555388"><ele>792.0</ele><time>2026-04-27T15:34:37.329Z</time></trkpt><trkpt lat="44.2694069" lon="15.9554233"><ele>792.0</ele><time>2026-04-27T15:34:38.328Z</time></trkpt><trkpt lat="44.2697985" lon="15.9551798"><ele>790.3333333333333</ele><time>2026-04-27T15:34:40.328Z</time></trkpt><trkpt lat="44.2699758" lon="15.9550438"><ele>788.6666666666666</ele><time>2026-04-27T15:34:41.329Z</time></trkpt><trkpt lat="44.2701436" lon="15.9548896"><ele>787.0</ele><time>2026-04-27T15:34:42.328Z</time></trkpt><trkpt lat="44.2702967" lon="15.9547125"><ele>787.0</ele><time>2026-04-27T15:34:43.328Z</time></trkpt><trkpt lat="44.2704363" lon="15.9545077"><ele>787.0</ele><time>2026-04-27T15:34:44.328Z</time></trkpt><trkpt lat="44.2705706" lon="15.9542921"><ele>787.0</ele><time>2026-04-27T15:34:45.329Z</time></trkpt><trkpt lat="44.2706918" lon="15.9540534"><ele>786.0</ele><time>2026-04-27T15:34:46.328Z</time></trkpt><trkpt lat="44.270795" lon="15.9538137"><ele>785.0</ele><time>2026-04-27T15:34:47.328Z</time></trkpt><trkpt lat="44.2708732" lon="15.953572"><ele>784.0</ele><time>2026-04-27T15:34:48.328Z</time></trkpt><trkpt lat="44.2709381" lon="15.9533345"><ele>784.0</ele><time>2026-04-27T15:34:49.328Z</time></trkpt><trkpt lat="44.2710266" lon="15.9528381"><ele>784.0</ele><time>2026-04-27T15:34:51.329Z</time></trkpt><trkpt lat="44.2710544" lon="15.9525746"><ele>782.6666666666666</ele><time>2026-04-27T15:34:52.328Z</time></trkpt><trkpt lat="44.2710733" lon="15.9523094"><ele>781.3333333333333</ele><time>2026-04-27T15:34:53.328Z</time></trkpt><trkpt lat="44.2710768" lon="15.9520449"><ele>780.0</ele><time>2026-04-27T15:34:54.328Z</time></trkpt><trkpt lat="44.2710751" lon="15.951788"><ele>779.0</ele><time>2026-04-27T15:34:55.328Z</time></trkpt><trkpt lat="44.2710619" lon="15.9515389"><ele>778.0</ele><time>2026-04-27T15:34:56.329Z</time></trkpt><trkpt lat="44.2710469" lon="15.9512899"><ele>777.0</ele><time>2026-04-27T15:34:57.328Z</time></trkpt><trkpt lat="44.2710336" lon="15.9510322"><ele>778.0</ele><time>2026-04-27T15:34:58.328Z</time></trkpt><trkpt lat="44.2710167" lon="15.9507696"><ele>779.0</ele><time>2026-04-27T15:34:59.328Z</time></trkpt><trkpt lat="44.2710052" lon="15.9504982"><ele>780.0</ele><time>2026-04-27T15:35:00.328Z</time></trkpt><trkpt lat="44.2709804" lon="15.9499627"><ele>780.6666666666667</ele><time>2026-04-27T15:35:02.328Z</time></trkpt><trkpt lat="44.2709619" lon="15.9496941"><ele>781.3333333333334</ele><time>2026-04-27T15:35:03.328Z</time></trkpt><trkpt lat="44.2709425" lon="15.9494116"><ele>782.0</ele><time>2026-04-27T15:35:04.329Z</time></trkpt><trkpt lat="44.2709272" lon="15.9491217"><ele>783.0</ele><time>2026-04-27T15:35:05.328Z</time></trkpt><trkpt lat="44.2709109" lon="15.9488363"><ele>784.0</ele><time>2026-04-27T15:35:06.328Z</time></trkpt><trkpt lat="44.2708975" lon="15.9485606"><ele>785.0</ele><time>2026-04-27T15:35:07.328Z</time></trkpt><trkpt lat="44.2708809" lon="15.9482916"><ele>782.6666666666667</ele><time>2026-04-27T15:35:08.328Z</time></trkpt><trkpt lat="44.2708592" lon="15.9480235"><ele>780.3333333333333</ele><time>2026-04-27T15:35:09.328Z</time></trkpt><trkpt lat="44.2708295" lon="15.94776"><ele>778.0</ele><time>2026-04-27T15:35:10.328Z</time></trkpt><trkpt lat="44.2707869" lon="15.9474976"><ele>775.5</ele><time>2026-04-27T15:35:11.329Z</time></trkpt><trkpt lat="44.2706499" lon="15.9470065"><ele>773.0</ele><time>2026-04-27T15:35:13.328Z</time></trkpt><trkpt lat="44.2705509" lon="15.94676"><ele>770.6666666666667</ele><time>2026-04-27T15:35:14.328Z</time></trkpt><trkpt lat="44.2704393" lon="15.9464987"><ele>768.3333333333334</ele><time>2026-04-27T15:35:15.329Z</time></trkpt><trkpt lat="44.27032" lon="15.9462261"><ele>766.0</ele><time>2026-04-27T15:35:16.328Z</time></trkpt><trkpt lat="44.2701929" lon="15.9459373"><ele>764.5</ele><time>2026-04-27T15:35:17.328Z</time></trkpt><trkpt lat="44.270061" lon="15.9456425"><ele>763.0</ele><time>2026-04-27T15:35:18.328Z</time></trkpt><trkpt lat="44.2699353" lon="15.9453477"><ele>763.0</ele><time>2026-04-27T15:35:19.328Z</time></trkpt><trkpt lat="44.269821" lon="15.9450614"><ele>763.0</ele><time>2026-04-27T15:35:20.328Z</time></trkpt><trkpt lat="44.2697281" lon="15.9447782"><ele>752.0</ele><time>2026-04-27T15:35:21.328Z</time></trkpt><trkpt lat="44.2696087" lon="15.9441557"><ele>752.0</ele><time>2026-04-27T15:35:23.328Z</time></trkpt><trkpt lat="44.2695823" lon="15.943829"><ele>752.0</ele><time>2026-04-27T15:35:24.328Z</time></trkpt><trkpt lat="44.2695789" lon="15.9435011"><ele>747.5</ele><time>2026-04-27T15:35:25.328Z</time></trkpt><trkpt lat="44.2695987" lon="15.9431736"><ele>743.0</ele><time>2026-04-27T15:35:26.329Z</time></trkpt><trkpt lat="44.2696179" lon="15.9428382"><ele>739.0</ele><time>2026-04-27T15:35:27.328Z</time></trkpt><trkpt lat="44.269637" lon="15.9425003"><ele>735.0</ele><time>2026-04-27T15:35:28.328Z</time></trkpt><trkpt lat="44.2696558" lon="15.9421674"><ele>735.0</ele><time>2026-04-27T15:35:29.328Z</time></trkpt><trkpt lat="44.269656" lon="15.9418555"><ele>735.0</ele><time>2026-04-27T15:35:30.329Z</time></trkpt><trkpt lat="44.2696279" lon="15.9415466"><ele>735.0</ele><time>2026-04-27T15:35:31.328Z</time></trkpt><trkpt lat="44.2694953" lon="15.940952"><ele>730.0</ele><time>2026-04-27T15:35:33.329Z</time></trkpt><trkpt lat="44.2693976" lon="15.9406689"><ele>725.0</ele><time>2026-04-27T15:35:34.328Z</time></trkpt><trkpt lat="44.2692975" lon="15.9403986"><ele>720.0</ele><time>2026-04-27T15:35:35.329Z</time></trkpt><trkpt lat="44.2692041" lon="15.9401473"><ele>722.0</ele><time>2026-04-27T15:35:36.328Z</time></trkpt><trkpt lat="44.2691263" lon="15.9398897"><ele>724.0</ele><time>2026-04-27T15:35:37.328Z</time></trkpt><trkpt lat="44.2690721" lon="15.9396258"><ele>726.0</ele><time>2026-04-27T15:35:38.328Z</time></trkpt><trkpt lat="44.2690516" lon="15.9393568"><ele>723.3333333333334</ele><time>2026-04-27T15:35:39.328Z</time></trkpt><trkpt lat="44.2690697" lon="15.9390891"><ele>720.6666666666667</ele><time>2026-04-27T15:35:40.328Z</time></trkpt><trkpt lat="44.2691166" lon="15.9388125"><ele>718.0</ele><time>2026-04-27T15:35:41.328Z</time></trkpt><trkpt lat="44.2691978" lon="15.9385519"><ele>713.5</ele><time>2026-04-27T15:35:42.328Z</time></trkpt><trkpt lat="44.2693109" lon="15.9383258"><ele>709.0</ele><time>2026-04-27T15:35:43.328Z</time></trkpt><trkpt lat="44.2696354" lon="15.9379139"><ele>706.0</ele><time>2026-04-27T15:35:45.328Z</time></trkpt><trkpt lat="44.2698322" lon="15.937712"><ele>703.0</ele><time>2026-04-27T15:35:46.328Z</time></trkpt><trkpt lat="44.2700411" lon="15.9375054"><ele>703.0</ele><time>2026-04-27T15:35:47.328Z</time></trkpt><trkpt lat="44.2702559" lon="15.9373026"><ele>703.0</ele><time>2026-04-27T15:35:48.328Z</time></trkpt><trkpt lat="44.270465" lon="15.9371029"><ele>708.5</ele><time>2026-04-27T15:35:49.328Z</time></trkpt><trkpt lat="44.2706784" lon="15.9369317"><ele>714.0</ele><time>2026-04-27T15:35:50.328Z</time></trkpt><trkpt lat="44.2709008" lon="15.936799"><ele>714.0</ele><time>2026-04-27T15:35:51.329Z</time></trkpt><trkpt lat="44.2711239" lon="15.9367206"><ele>714.0</ele><time>2026-04-27T15:35:52.328Z</time></trkpt><trkpt lat="44.2713569" lon="15.9366951"><ele>693.0</ele><time>2026-04-27T15:35:53.329Z</time></trkpt><trkpt lat="44.2718347" lon="15.936676"><ele>693.0</ele><time>2026-04-27T15:35:55.328Z</time></trkpt><trkpt lat="44.2720747" lon="15.9366307"><ele>693.0</ele><time>2026-04-27T15:35:56.329Z</time></trkpt><trkpt lat="44.2723142" lon="15.9365508"><ele>690.5</ele><time>2026-04-27T15:35:57.328Z</time></trkpt><trkpt lat="44.2725402" lon="15.9364196"><ele>688.0</ele><time>2026-04-27T15:35:58.328Z</time></trkpt><trkpt lat="44.2727538" lon="15.9362413"><ele>688.0</ele><time>2026-04-27T15:35:59.328Z</time></trkpt><trkpt lat="44.2729433" lon="15.9360277"><ele>688.0</ele><time>2026-04-27T15:36:00.328Z</time></trkpt><trkpt lat="44.273128" lon="15.9357957"><ele>685.5</ele><time>2026-04-27T15:36:01.328Z</time></trkpt><trkpt lat="44.2733144" lon="15.9355471"><ele>683.0</ele><time>2026-04-27T15:36:02.329Z</time></trkpt><trkpt lat="44.2734943" lon="15.9353112"><ele>683.0</ele><time>2026-04-27T15:36:03.328Z</time></trkpt><trkpt lat="44.2736827" lon="15.9351013"><ele>683.0</ele><time>2026-04-27T15:36:04.328Z</time></trkpt><trkpt lat="44.2741152" lon="15.9347587"><ele>674.5</ele><time>2026-04-27T15:36:06.329Z</time></trkpt><trkpt lat="44.2743611" lon="15.934719"><ele>666.0</ele><time>2026-04-27T15:36:07.328Z</time></trkpt><trkpt lat="44.2745983" lon="15.9346243"><ele>670.0</ele><time>2026-04-27T15:36:08.328Z</time></trkpt><trkpt lat="44.2748208" lon="15.9345036"><ele>674.0</ele><time>2026-04-27T15:36:09.329Z</time></trkpt><trkpt lat="44.2750133" lon="15.9343707"><ele>669.3333333333333</ele><time>2026-04-27T15:36:10.329Z</time></trkpt><trkpt lat="44.2751919" lon="15.934197"><ele>664.6666666666666</ele><time>2026-04-27T15:36:11.328Z</time></trkpt><trkpt lat="44.2753413" lon="15.934002"><ele>660.0</ele><time>2026-04-27T15:36:12.328Z</time></trkpt><trkpt lat="44.2754601" lon="15.9337726"><ele>660.0</ele><time>2026-04-27T15:36:13.328Z</time></trkpt><trkpt lat="44.2755546" lon="15.9335133"><ele>660.0</ele><time>2026-04-27T15:36:14.329Z</time></trkpt><trkpt lat="44.2756162" lon="15.9332353"><ele>660.0</ele><time>2026-04-27T15:36:15.329Z</time></trkpt><trkpt lat="44.2756403" lon="15.9329461"><ele>657.3333333333334</ele><time>2026-04-27T15:36:16.328Z</time></trkpt><trkpt lat="44.2756263" lon="15.932666"><ele>654.6666666666667</ele><time>2026-04-27T15:36:17.328Z</time></trkpt><trkpt lat="44.2755741" lon="15.9323891"><ele>652.0</ele><time>2026-04-27T15:36:18.328Z</time></trkpt><trkpt lat="44.2754864" lon="15.9321283"><ele>648.3333333333334</ele><time>2026-04-27T15:36:19.328Z</time></trkpt><trkpt lat="44.2753669" lon="15.9318874"><ele>644.6666666666666</ele><time>2026-04-27T15:36:20.329Z</time></trkpt><trkpt lat="44.275217" lon="15.9316698"><ele>641.0</ele><time>2026-04-27T15:36:21.328Z</time></trkpt><trkpt lat="44.2750447" lon="15.931476"><ele>641.0</ele><time>2026-04-27T15:36:22.328Z</time></trkpt><trkpt lat="44.2748553" lon="15.9312848"><ele>641.0</ele><time>2026-04-27T15:36:23.328Z</time></trkpt><trkpt lat="44.2746735" lon="15.9311174"><ele>639.0</ele><time>2026-04-27T15:36:24.328Z</time></trkpt><trkpt lat="44.2744938" lon="15.9309548"><ele>637.0</ele><time>2026-04-27T15:36:25.328Z</time></trkpt><trkpt lat="44.2743286" lon="15.9307699"><ele>635.0</ele><time>2026-04-27T15:36:26.328Z</time></trkpt><trkpt lat="44.2741825" lon="15.9305621"><ele>634.0</ele><time>2026-04-27T15:36:27.328Z</time></trkpt><trkpt lat="44.2740714" lon="15.930333"><ele>633.0</ele><time>2026-04-27T15:36:28.329Z</time></trkpt><trkpt lat="44.2739858" lon="15.9300593"><ele>632.0</ele><time>2026-04-27T15:36:29.328Z</time></trkpt><trkpt lat="44.273845" lon="15.9294585"><ele>625.5</ele><time>2026-04-27T15:36:31.328Z</time></trkpt><trkpt lat="44.2737859" lon="15.9291446"><ele>619.0</ele><time>2026-04-27T15:36:32.328Z</time></trkpt><trkpt lat="44.2737308" lon="15.9288341"><ele>619.0</ele><time>2026-04-27T15:36:33.328Z</time></trkpt><trkpt lat="44.2736716" lon="15.9285229"><ele>619.0</ele><time>2026-04-27T15:36:34.328Z</time></trkpt><trkpt lat="44.2736176" lon="15.9282111"><ele>617.0</ele><time>2026-04-27T15:36:35.328Z</time></trkpt><trkpt lat="44.2735627" lon="15.9278942"><ele>615.0</ele><time>2026-04-27T15:36:36.328Z</time></trkpt><trkpt lat="44.2735059" lon="15.9275782"><ele>613.5</ele><time>2026-04-27T15:36:37.328Z</time></trkpt><trkpt lat="44.27345" lon="15.9272697"><ele>612.0</ele><time>2026-04-27T15:36:38.328Z</time></trkpt><trkpt lat="44.2733915" lon="15.9269616"><ele>609.0</ele><time>2026-04-27T15:36:39.328Z</time></trkpt><trkpt lat="44.2732797" lon="15.9263659"><ele>606.0</ele><time>2026-04-27T15:36:41.328Z</time></trkpt><trkpt lat="44.2732253" lon="15.9260811"><ele>605.0</ele><time>2026-04-27T15:36:42.328Z</time></trkpt><trkpt lat="44.2731738" lon="15.9258015"><ele>604.0</ele><time>2026-04-27T15:36:43.329Z</time></trkpt><trkpt lat="44.2731244" lon="15.9255194"><ele>603.0</ele><time>2026-04-27T15:36:44.328Z</time></trkpt><trkpt lat="44.2730822" lon="15.9252109"><ele>602.5</ele><time>2026-04-27T15:36:45.329Z</time></trkpt><trkpt lat="44.2730575" lon="15.9248816"><ele>602.0</ele><time>2026-04-27T15:36:46.328Z</time></trkpt><trkpt lat="44.2730354" lon="15.9245363"><ele>600.0</ele><time>2026-04-27T15:36:47.329Z</time></trkpt><trkpt lat="44.2730152" lon="15.9241957"><ele>598.0</ele><time>2026-04-27T15:36:48.328Z</time></trkpt><trkpt lat="44.2729959" lon="15.923844"><ele>598.0</ele><time>2026-04-27T15:36:49.328Z</time></trkpt><trkpt lat="44.2729738" lon="15.9234836"><ele>598.0</ele><time>2026-04-27T15:36:50.328Z</time></trkpt><trkpt lat="44.2729283" lon="15.9227704"><ele>595.5</ele><time>2026-04-27T15:36:52.328Z</time></trkpt><trkpt lat="44.2729074" lon="15.9224077"><ele>593.0</ele><time>2026-04-27T15:36:53.329Z</time></trkpt><trkpt lat="44.2728856" lon="15.9220406"><ele>591.0</ele><time>2026-04-27T15:36:54.329Z</time></trkpt><trkpt lat="44.2728651" lon="15.9216682"><ele>589.0</ele><time>2026-04-27T15:36:55.329Z</time></trkpt><trkpt lat="44.2728452" lon="15.9212941"><ele>589.0</ele><time>2026-04-27T15:36:56.328Z</time></trkpt><trkpt lat="44.2728234" lon="15.9209236"><ele>589.0</ele><time>2026-04-27T15:36:57.328Z</time></trkpt><trkpt lat="44.272807" lon="15.9205587"><ele>587.0</ele><time>2026-04-27T15:36:58.328Z</time></trkpt><trkpt lat="44.2727913" lon="15.9202113"><ele>585.0</ele><time>2026-04-27T15:36:59.329Z</time></trkpt><trkpt lat="44.272782" lon="15.9198704"><ele>577.0</ele><time>2026-04-27T15:37:00.328Z</time></trkpt><trkpt lat="44.2727967" lon="15.9191862"><ele>577.0</ele><time>2026-04-27T15:37:02.328Z</time></trkpt><trkpt lat="44.2728299" lon="15.9188374"><ele>577.0</ele><time>2026-04-27T15:37:03.328Z</time></trkpt><trkpt lat="44.2728851" lon="15.9184981"><ele>575.0</ele><time>2026-04-27T15:37:04.328Z</time></trkpt><trkpt lat="44.2729525" lon="15.9181546"><ele>573.0</ele><time>2026-04-27T15:37:05.328Z</time></trkpt><trkpt lat="44.2730247" lon="15.9178095"><ele>574.5</ele><time>2026-04-27T15:37:06.329Z</time></trkpt><trkpt lat="44.2730971" lon="15.9174622"><ele>576.0</ele><time>2026-04-27T15:37:07.329Z</time></trkpt><trkpt lat="44.2731728" lon="15.9171144"><ele>576.0</ele><time>2026-04-27T15:37:08.328Z</time></trkpt><trkpt lat="44.2732435" lon="15.9167677"><ele>576.0</ele><time>2026-04-27T15:37:09.328Z</time></trkpt><trkpt lat="44.2733181" lon="15.9164138"><ele>576.5</ele><time>2026-04-27T15:37:10.328Z</time></trkpt><trkpt lat="44.2733978" lon="15.9160602"><ele>577.0</ele><time>2026-04-27T15:37:11.328Z</time></trkpt><trkpt lat="44.2735823" lon="15.915368"><ele>573.0</ele><time>2026-04-27T15:37:13.328Z</time></trkpt><trkpt lat="44.2736927" lon="15.9150293"><ele>569.0</ele><time>2026-04-27T15:37:14.328Z</time></trkpt><trkpt lat="44.2738193" lon="15.9147079"><ele>569.0</ele><time>2026-04-27T15:37:15.328Z</time></trkpt><trkpt lat="44.2739628" lon="15.9143925"><ele>569.0</ele><time>2026-04-27T15:37:16.328Z</time></trkpt><trkpt lat="44.2741227" lon="15.9140833"><ele>567.5</ele><time>2026-04-27T15:37:17.329Z</time></trkpt><trkpt lat="44.2742879" lon="15.9137796"><ele>566.0</ele><time>2026-04-27T15:37:18.329Z</time></trkpt><trkpt lat="44.2744532" lon="15.9134868"><ele>568.0</ele><time>2026-04-27T15:37:19.328Z</time></trkpt><trkpt lat="44.2746199" lon="15.9131798"><ele>570.0</ele><time>2026-04-27T15:37:20.329Z</time></trkpt><trkpt lat="44.2747833" lon="15.9128722"><ele>573.0</ele><time>2026-04-27T15:37:21.329Z</time></trkpt><trkpt lat="44.274932" lon="15.9125677"><ele>576.0</ele><time>2026-04-27T15:37:22.329Z</time></trkpt><trkpt lat="44.2751295" lon="15.9119895"><ele>577.3333333333334</ele><time>2026-04-27T15:37:24.328Z</time></trkpt><trkpt lat="44.2752014" lon="15.9117033"><ele>578.6666666666667</ele><time>2026-04-27T15:37:25.329Z</time></trkpt><trkpt lat="44.2752657" lon="15.911415"><ele>580.0</ele><time>2026-04-27T15:37:26.328Z</time></trkpt><trkpt lat="44.2753303" lon="15.9111237"><ele>579.3333333333334</ele><time>2026-04-27T15:37:27.328Z</time></trkpt><trkpt lat="44.2754033" lon="15.9108262"><ele>578.6666666666666</ele><time>2026-04-27T15:37:28.329Z</time></trkpt><trkpt lat="44.2754756" lon="15.9105321"><ele>578.0</ele><time>2026-04-27T15:37:29.329Z</time></trkpt><trkpt lat="44.2755499" lon="15.9102312"><ele>563.5</ele><time>2026-04-27T15:37:30.328Z</time></trkpt><trkpt lat="44.2756249" lon="15.9099231"><ele>549.0</ele><time>2026-04-27T15:37:31.328Z</time></trkpt><trkpt lat="44.2757012" lon="15.9096122"><ele>549.0</ele><time>2026-04-27T15:37:32.328Z</time></trkpt><trkpt lat="44.2757698" lon="15.9092908"><ele>549.0</ele><time>2026-04-27T15:37:33.328Z</time></trkpt><trkpt lat="44.275865" lon="15.90862"><ele>551.0</ele><time>2026-04-27T15:37:35.328Z</time></trkpt><trkpt lat="44.2758803" lon="15.9082685"><ele>553.0</ele><time>2026-04-27T15:37:36.328Z</time></trkpt><trkpt lat="44.2758812" lon="15.9079302"><ele>553.0</ele><time>2026-04-27T15:37:37.328Z</time></trkpt><trkpt lat="44.2758755" lon="15.9075819"><ele>553.0</ele><time>2026-04-27T15:37:38.328Z</time></trkpt><trkpt lat="44.2758716" lon="15.9072356"><ele>551.0</ele><time>2026-04-27T15:37:39.328Z</time></trkpt><trkpt lat="44.2758614" lon="15.9068846"><ele>549.0</ele><time>2026-04-27T15:37:40.329Z</time></trkpt><trkpt lat="44.2758656" lon="15.9065385"><ele>550.0</ele><time>2026-04-27T15:37:41.328Z</time></trkpt><trkpt lat="44.2758866" lon="15.906199"><ele>551.0</ele><time>2026-04-27T15:37:42.328Z</time></trkpt><trkpt lat="44.2759225" lon="15.9058639"><ele>551.0</ele><time>2026-04-27T15:37:43.329Z</time></trkpt><trkpt lat="44.2759805" lon="15.9055469"><ele>551.0</ele><time>2026-04-27T15:37:44.328Z</time></trkpt><trkpt lat="44.2761499" lon="15.9049252"><ele>554.0</ele><time>2026-04-27T15:37:46.329Z</time></trkpt><trkpt lat="44.276261" lon="15.9046363"><ele>557.0</ele><time>2026-04-27T15:37:47.328Z</time></trkpt><trkpt lat="44.2763811" lon="15.9043525"><ele>553.0</ele><time>2026-04-27T15:37:48.329Z</time></trkpt><trkpt lat="44.2765091" lon="15.9040722"><ele>549.0</ele><time>2026-04-27T15:37:49.328Z</time></trkpt><trkpt lat="44.2766441" lon="15.9037952"><ele>549.0</ele><time>2026-04-27T15:37:50.328Z</time></trkpt><trkpt lat="44.2767812" lon="15.9035201"><ele>549.0</ele><time>2026-04-27T15:37:51.328Z</time></trkpt><trkpt lat="44.2769186" lon="15.9032492"><ele>552.5</ele><time>2026-04-27T15:37:52.328Z</time></trkpt><trkpt lat="44.2770571" lon="15.9029762"><ele>556.0</ele><time>2026-04-27T15:37:53.328Z</time></trkpt><trkpt lat="44.2771898" lon="15.9027018"><ele>555.0</ele><time>2026-04-27T15:37:54.329Z</time></trkpt><trkpt lat="44.2774558" lon="15.9021389"><ele>555.0</ele><time>2026-04-27T15:37:56.328Z</time></trkpt><trkpt lat="44.2775754" lon="15.9018462"><ele>555.0</ele><time>2026-04-27T15:37:57.328Z</time></trkpt><trkpt lat="44.2776867" lon="15.9015466"><ele>553.0</ele><time>2026-04-27T15:37:58.328Z</time></trkpt><trkpt lat="44.277796" lon="15.9012444"><ele>551.0</ele><time>2026-04-27T15:37:59.328Z</time></trkpt><trkpt lat="44.2778989" lon="15.900938"><ele>551.0</ele><time>2026-04-27T15:38:00.328Z</time></trkpt><trkpt lat="44.278004" lon="15.9006339"><ele>551.0</ele><time>2026-04-27T15:38:01.329Z</time></trkpt><trkpt lat="44.278112" lon="15.9003263"><ele>554.0</ele><time>2026-04-27T15:38:02.328Z</time></trkpt><trkpt lat="44.27822" lon="15.90002"><ele>557.0</ele><time>2026-04-27T15:38:03.328Z</time></trkpt><trkpt lat="44.2783285" lon="15.899713"><ele>546.0</ele><time>2026-04-27T15:38:04.328Z</time></trkpt><trkpt lat="44.2785424" lon="15.8990851"><ele>546.0</ele><time>2026-04-27T15:38:06.328Z</time></trkpt><trkpt lat="44.2786467" lon="15.898778"><ele>546.0</ele><time>2026-04-27T15:38:07.328Z</time></trkpt><trkpt lat="44.2787567" lon="15.8984746"><ele>547.0</ele><time>2026-04-27T15:38:08.328Z</time></trkpt><trkpt lat="44.2788616" lon="15.8981713"><ele>548.0</ele><time>2026-04-27T15:38:09.329Z</time></trkpt><trkpt lat="44.2789672" lon="15.897865"><ele>549.0</ele><time>2026-04-27T15:38:10.328Z</time></trkpt><trkpt lat="44.279075" lon="15.8975605"><ele>550.0</ele><time>2026-04-27T15:38:11.328Z</time></trkpt><trkpt lat="44.2791892" lon="15.8972592"><ele>550.0</ele><time>2026-04-27T15:38:12.329Z</time></trkpt><trkpt lat="44.2793055" lon="15.896962"><ele>550.0</ele><time>2026-04-27T15:38:13.328Z</time></trkpt><trkpt lat="44.2794336" lon="15.896669"><ele>548.0</ele><time>2026-04-27T15:38:14.328Z</time></trkpt><trkpt lat="44.2797069" lon="15.8961015"><ele>550.0</ele><time>2026-04-27T15:38:16.328Z</time></trkpt><trkpt lat="44.2798533" lon="15.8958288"><ele>552.0</ele><time>2026-04-27T15:38:17.328Z</time></trkpt><trkpt lat="44.2800011" lon="15.8955516"><ele>552.0</ele><time>2026-04-27T15:38:18.328Z</time></trkpt><trkpt lat="44.2801455" lon="15.8952858"><ele>552.0</ele><time>2026-04-27T15:38:19.328Z</time></trkpt><trkpt lat="44.2802914" lon="15.8950191"><ele>551.0</ele><time>2026-04-27T15:38:20.328Z</time></trkpt><trkpt lat="44.2804372" lon="15.8947579"><ele>550.0</ele><time>2026-04-27T15:38:21.329Z</time></trkpt><trkpt lat="44.2805893" lon="15.8945023"><ele>550.0</ele><time>2026-04-27T15:38:22.328Z</time></trkpt><trkpt lat="44.2807441" lon="15.8942564"><ele>550.0</ele><time>2026-04-27T15:38:23.328Z</time></trkpt><trkpt lat="44.2809019" lon="15.8940164"><ele>550.5</ele><time>2026-04-27T15:38:24.328Z</time></trkpt><trkpt lat="44.2810695" lon="15.8937868"><ele>551.0</ele><time>2026-04-27T15:38:25.328Z</time></trkpt><trkpt lat="44.2814169" lon="15.8933626"><ele>550.5</ele><time>2026-04-27T15:38:27.328Z</time></trkpt><trkpt lat="44.2815997" lon="15.893152"><ele>550.0</ele><time>2026-04-27T15:38:28.328Z</time></trkpt><trkpt lat="44.2817782" lon="15.8929441"><ele>550.0</ele><time>2026-04-27T15:38:29.328Z</time></trkpt><trkpt lat="44.2819563" lon="15.8927361"><ele>550.0</ele><time>2026-04-27T15:38:30.328Z</time></trkpt><trkpt lat="44.2821371" lon="15.8925252"><ele>546.0</ele><time>2026-04-27T15:38:31.328Z</time></trkpt><trkpt lat="44.2823186" lon="15.8923135"><ele>542.0</ele><time>2026-04-27T15:38:32.329Z</time></trkpt><trkpt lat="44.2824993" lon="15.8921038"><ele>542.0</ele><time>2026-04-27T15:38:33.329Z</time></trkpt><trkpt lat="44.282685" lon="15.8918884"><ele>542.0</ele><time>2026-04-27T15:38:34.329Z</time></trkpt><trkpt lat="44.2828669" lon="15.8916719"><ele>542.5</ele><time>2026-04-27T15:38:35.329Z</time></trkpt><trkpt lat="44.2830491" lon="15.8914496"><ele>543.0</ele><time>2026-04-27T15:38:36.329Z</time></trkpt><trkpt lat="44.2834111" lon="15.8910041"><ele>547.0</ele><time>2026-04-27T15:38:38.328Z</time></trkpt><trkpt lat="44.2835822" lon="15.8907673"><ele>551.0</ele><time>2026-04-27T15:38:39.328Z</time></trkpt><trkpt lat="44.2837563" lon="15.8905257"><ele>551.0</ele><time>2026-04-27T15:38:40.329Z</time></trkpt><trkpt lat="44.2839288" lon="15.8902825"><ele>551.0</ele><time>2026-04-27T15:38:41.328Z</time></trkpt><trkpt lat="44.2841034" lon="15.890039"><ele>548.5</ele><time>2026-04-27T15:38:42.328Z</time></trkpt><trkpt lat="44.2842719" lon="15.8897945"><ele>546.0</ele><time>2026-04-27T15:38:43.328Z</time></trkpt><trkpt lat="44.2844482" lon="15.8895467"><ele>546.0</ele><time>2026-04-27T15:38:44.328Z</time></trkpt><trkpt lat="44.2846227" lon="15.8893024"><ele>546.0</ele><time>2026-04-27T15:38:45.328Z</time></trkpt><trkpt lat="44.2847938" lon="15.8890595"><ele>546.0</ele><time>2026-04-27T15:38:46.328Z</time></trkpt><trkpt lat="44.2849654" lon="15.8888094"><ele>546.0</ele><time>2026-04-27T15:38:47.328Z</time></trkpt><trkpt lat="44.2853095" lon="15.8883133"><ele>546.0</ele><time>2026-04-27T15:38:49.328Z</time></trkpt><trkpt lat="44.2854821" lon="15.8880607"><ele>546.0</ele><time>2026-04-27T15:38:50.328Z</time></trkpt><trkpt lat="44.2856504" lon="15.887812"><ele>546.5</ele><time>2026-04-27T15:38:51.328Z</time></trkpt><trkpt lat="44.2858275" lon="15.8875676"><ele>547.0</ele><time>2026-04-27T15:38:52.328Z</time></trkpt><trkpt lat="44.2860052" lon="15.8873255"><ele>547.0</ele><time>2026-04-27T15:38:53.329Z</time></trkpt><trkpt lat="44.2861789" lon="15.8870855"><ele>547.0</ele><time>2026-04-27T15:38:54.328Z</time></trkpt><trkpt lat="44.286355" lon="15.886854"><ele>547.0</ele><time>2026-04-27T15:38:55.328Z</time></trkpt><trkpt lat="44.2865351" lon="15.8866318"><ele>547.0</ele><time>2026-04-27T15:38:56.328Z</time></trkpt><trkpt lat="44.2867233" lon="15.8864188"><ele>547.0</ele><time>2026-04-27T15:38:57.328Z</time></trkpt><trkpt lat="44.2871206" lon="15.8860413"><ele>547.5</ele><time>2026-04-27T15:38:59.328Z</time></trkpt><trkpt lat="44.2873163" lon="15.8858539"><ele>548.0</ele><time>2026-04-27T15:39:00.329Z</time></trkpt><trkpt lat="44.2875168" lon="15.8856693"><ele>548.0</ele><time>2026-04-27T15:39:01.328Z</time></trkpt><trkpt lat="44.2877138" lon="15.8854835"><ele>548.0</ele><time>2026-04-27T15:39:02.328Z</time></trkpt><trkpt lat="44.2879125" lon="15.8852959"><ele>548.0</ele><time>2026-04-27T15:39:03.328Z</time></trkpt><trkpt lat="44.2881084" lon="15.8851091"><ele>548.0</ele><time>2026-04-27T15:39:04.329Z</time></trkpt><trkpt lat="44.2883061" lon="15.8849273"><ele>549.5</ele><time>2026-04-27T15:39:05.328Z</time></trkpt><trkpt lat="44.288502" lon="15.8847403"><ele>551.0</ele><time>2026-04-27T15:39:06.329Z</time></trkpt><trkpt lat="44.2887009" lon="15.8845635"><ele>551.0</ele><time>2026-04-27T15:39:07.328Z</time></trkpt><trkpt lat="44.2888987" lon="15.8843837"><ele>551.0</ele><time>2026-04-27T15:39:08.328Z</time></trkpt><trkpt lat="44.289282" lon="15.8840197"><ele>551.0</ele><time>2026-04-27T15:39:10.329Z</time></trkpt><trkpt lat="44.28946" lon="15.8838464"><ele>551.0</ele><time>2026-04-27T15:39:11.328Z</time></trkpt><trkpt lat="44.2896399" lon="15.8836667"><ele>551.0</ele><time>2026-04-27T15:39:12.328Z</time></trkpt><trkpt lat="44.2898174" lon="15.8834783"><ele>550.5</ele><time>2026-04-27T15:39:13.328Z</time></trkpt><trkpt lat="44.2899854" lon="15.883274"><ele>550.0</ele><time>2026-04-27T15:39:14.328Z</time></trkpt><trkpt lat="44.29015" lon="15.8830544"><ele>550.0</ele><time>2026-04-27T15:39:15.328Z</time></trkpt><trkpt lat="44.2903127" lon="15.8828188"><ele>550.0</ele><time>2026-04-27T15:39:16.328Z</time></trkpt><trkpt lat="44.2904741" lon="15.8825494"><ele>549.5</ele><time>2026-04-27T15:39:17.328Z</time></trkpt><trkpt lat="44.2906159" lon="15.8822664"><ele>549.0</ele><time>2026-04-27T15:39:18.328Z</time></trkpt><trkpt lat="44.2907551" lon="15.8819815"><ele>549.0</ele><time>2026-04-27T15:39:19.328Z</time></trkpt><trkpt lat="44.2910275" lon="15.8814123"><ele>549.0</ele><time>2026-04-27T15:39:21.329Z</time></trkpt><trkpt lat="44.2911693" lon="15.8811272"><ele>549.0</ele><time>2026-04-27T15:39:22.328Z</time></trkpt><trkpt lat="44.2913078" lon="15.8808505"><ele>549.0</ele><time>2026-04-27T15:39:23.329Z</time></trkpt><trkpt lat="44.2914472" lon="15.8805642"><ele>549.0</ele><time>2026-04-27T15:39:24.328Z</time></trkpt><trkpt lat="44.2915869" lon="15.8802837"><ele>549.5</ele><time>2026-04-27T15:39:25.328Z</time></trkpt><trkpt lat="44.2917249" lon="15.8799897"><ele>550.0</ele><time>2026-04-27T15:39:26.328Z</time></trkpt><trkpt lat="44.2918634" lon="15.8797024"><ele>550.0</ele><time>2026-04-27T15:39:27.328Z</time></trkpt><trkpt lat="44.2920001" lon="15.8794164"><ele>550.0</ele><time>2026-04-27T15:39:28.328Z</time></trkpt><trkpt lat="44.292134" lon="15.8791422"><ele>549.5</ele><time>2026-04-27T15:39:29.328Z</time></trkpt><trkpt lat="44.292268" lon="15.8788574"><ele>549.0</ele><time>2026-04-27T15:39:30.328Z</time></trkpt><trkpt lat="44.2925395" lon="15.8782956"><ele>549.0</ele><time>2026-04-27T15:39:32.328Z</time></trkpt><trkpt lat="44.2926734" lon="15.8780131"><ele>549.0</ele><time>2026-04-27T15:39:33.328Z</time></trkpt><trkpt lat="44.2928068" lon="15.8777308"><ele>549.5</ele><time>2026-04-27T15:39:34.329Z</time></trkpt><trkpt lat="44.292945" lon="15.8774511"><ele>550.0</ele><time>2026-04-27T15:39:35.328Z</time></trkpt><trkpt lat="44.2930856" lon="15.8771688"><ele>550.5</ele><time>2026-04-27T15:39:36.328Z</time></trkpt><trkpt lat="44.2932234" lon="15.8768774"><ele>551.0</ele><time>2026-04-27T15:39:37.328Z</time></trkpt><trkpt lat="44.2933604" lon="15.8765921"><ele>551.0</ele><time>2026-04-27T15:39:38.328Z</time></trkpt><trkpt lat="44.2934953" lon="15.8763049"><ele>551.0</ele><time>2026-04-27T15:39:39.328Z</time></trkpt><trkpt lat="44.2936353" lon="15.8760193"><ele>550.5</ele><time>2026-04-27T15:39:40.329Z</time></trkpt><trkpt lat="44.2937756" lon="15.8757343"><ele>550.0</ele><time>2026-04-27T15:39:41.328Z</time></trkpt><trkpt lat="44.2940525" lon="15.8751679"><ele>551.5</ele><time>2026-04-27T15:39:43.328Z</time></trkpt><trkpt lat="44.2941907" lon="15.8748816"><ele>553.0</ele><time>2026-04-27T15:39:44.329Z</time></trkpt><trkpt lat="44.2943298" lon="15.8745965"><ele>553.0</ele><time>2026-04-27T15:39:45.328Z</time></trkpt><trkpt lat="44.294469" lon="15.8743131"><ele>553.0</ele><time>2026-04-27T15:39:46.328Z</time></trkpt><trkpt lat="44.2946097" lon="15.8740289"><ele>553.5</ele><time>2026-04-27T15:39:47.328Z</time></trkpt><trkpt lat="44.2947465" lon="15.8737436"><ele>554.0</ele><time>2026-04-27T15:39:48.328Z</time></trkpt><trkpt lat="44.2948864" lon="15.873455"><ele>554.5</ele><time>2026-04-27T15:39:49.329Z</time></trkpt><trkpt lat="44.2950248" lon="15.8731709"><ele>555.0</ele><time>2026-04-27T15:39:50.329Z</time></trkpt><trkpt lat="44.2951588" lon="15.8728891"><ele>554.5</ele><time>2026-04-27T15:39:51.328Z</time></trkpt><trkpt lat="44.2952958" lon="15.8726018"><ele>554.0</ele><time>2026-04-27T15:39:52.329Z</time></trkpt><trkpt lat="44.2954307" lon="15.8723212"><ele>555.0</ele><time>2026-04-27T15:39:53.329Z</time></trkpt><trkpt lat="44.2957101" lon="15.8717522"><ele>555.0</ele><time>2026-04-27T15:39:55.328Z</time></trkpt><trkpt lat="44.2958455" lon="15.8714683"><ele>555.0</ele><time>2026-04-27T15:39:56.328Z</time></trkpt><trkpt lat="44.2959794" lon="15.8711877"><ele>554.5</ele><time>2026-04-27T15:39:57.329Z</time></trkpt><trkpt lat="44.2961151" lon="15.870901"><ele>554.0</ele><time>2026-04-27T15:39:58.328Z</time></trkpt><trkpt lat="44.2962499" lon="15.8706129"><ele>554.0</ele><time>2026-04-27T15:39:59.329Z</time></trkpt><trkpt lat="44.2963909" lon="15.8703239"><ele>554.0</ele><time>2026-04-27T15:40:00.328Z</time></trkpt><trkpt lat="44.2965264" lon="15.8700399"><ele>554.5</ele><time>2026-04-27T15:40:01.329Z</time></trkpt><trkpt lat="44.2966646" lon="15.869757"><ele>555.0</ele><time>2026-04-27T15:40:02.328Z</time></trkpt><trkpt lat="44.2969385" lon="15.8691909"><ele>553.5</ele><time>2026-04-27T15:40:04.329Z</time></trkpt><trkpt lat="44.2970799" lon="15.8689055"><ele>552.0</ele><time>2026-04-27T15:40:05.329Z</time></trkpt><trkpt lat="44.2972172" lon="15.8686176"><ele>552.5</ele><time>2026-04-27T15:40:06.328Z</time></trkpt><trkpt lat="44.2973561" lon="15.8683291"><ele>553.0</ele><time>2026-04-27T15:40:07.329Z</time></trkpt><trkpt lat="44.2974934" lon="15.8680451"><ele>553.0</ele><time>2026-04-27T15:40:08.329Z</time></trkpt><trkpt lat="44.2976276" lon="15.8677591"><ele>553.0</ele><time>2026-04-27T15:40:09.328Z</time></trkpt><trkpt lat="44.2977597" lon="15.8674623"><ele>553.0</ele><time>2026-04-27T15:40:10.328Z</time></trkpt><trkpt lat="44.2978755" lon="15.8671675"><ele>553.0</ele><time>2026-04-27T15:40:11.328Z</time></trkpt><trkpt lat="44.2979809" lon="15.866861"><ele>555.5</ele><time>2026-04-27T15:40:12.328Z</time></trkpt><trkpt lat="44.2980735" lon="15.8665531"><ele>558.0</ele><time>2026-04-27T15:40:13.328Z</time></trkpt><trkpt lat="44.2982323" lon="15.8659251"><ele>561.0</ele><time>2026-04-27T15:40:15.328Z</time></trkpt><trkpt lat="44.2983102" lon="15.8656148"><ele>564.0</ele><time>2026-04-27T15:40:16.328Z</time></trkpt><trkpt lat="44.2983921" lon="15.8653089"><ele>562.5</ele><time>2026-04-27T15:40:17.328Z</time></trkpt><trkpt lat="44.2984701" lon="15.8650038"><ele>561.0</ele><time>2026-04-27T15:40:18.328Z</time></trkpt><trkpt lat="44.2985509" lon="15.8646928"><ele>561.0</ele><time>2026-04-27T15:40:19.328Z</time></trkpt><trkpt lat="44.298628" lon="15.8643818"><ele>561.0</ele><time>2026-04-27T15:40:20.329Z</time></trkpt><trkpt lat="44.2987078" lon="15.8640807"><ele>559.5</ele><time>2026-04-27T15:40:21.328Z</time></trkpt><trkpt lat="44.298785" lon="15.863777"><ele>558.0</ele><time>2026-04-27T15:40:22.329Z</time></trkpt><trkpt lat="44.2988656" lon="15.8634725"><ele>559.0</ele><time>2026-04-27T15:40:23.328Z</time></trkpt><trkpt lat="44.2989448" lon="15.8631672"><ele>560.0</ele><time>2026-04-27T15:40:24.329Z</time></trkpt><trkpt lat="44.2990207" lon="15.8628617"><ele>561.0</ele><time>2026-04-27T15:40:25.328Z</time></trkpt><trkpt lat="44.2991672" lon="15.862262"><ele>561.0</ele><time>2026-04-27T15:40:27.329Z</time></trkpt><trkpt lat="44.2992387" lon="15.8619925"><ele>561.0</ele><time>2026-04-27T15:40:28.328Z</time></trkpt><trkpt lat="44.2993052" lon="15.8617339"><ele>561.0</ele><time>2026-04-27T15:40:29.329Z</time></trkpt><trkpt lat="44.2993669" lon="15.8614846"><ele>559.6666666666666</ele><time>2026-04-27T15:40:30.329Z</time></trkpt><trkpt lat="44.2994277" lon="15.8612535"><ele>558.3333333333333</ele><time>2026-04-27T15:40:31.328Z</time></trkpt><trkpt lat="44.2994821" lon="15.8610311"><ele>557.0</ele><time>2026-04-27T15:40:32.329Z</time></trkpt><trkpt lat="44.2995347" lon="15.8608373"><ele>557.0</ele><time>2026-04-27T15:40:33.328Z</time></trkpt><trkpt lat="44.2995861" lon="15.8606656"><ele>557.0</ele><time>2026-04-27T15:40:34.328Z</time></trkpt><trkpt lat="44.2996639" lon="15.8604119"><ele>557.0</ele><time>2026-04-27T15:40:36.328Z</time></trkpt><trkpt lat="44.2996981" lon="15.8603209"><ele>557.0</ele><time>2026-04-27T15:40:37.328Z</time></trkpt><trkpt lat="44.2997436" lon="15.8602524"><ele>557.1666666666666</ele><time>2026-04-27T15:40:38.328Z</time></trkpt><trkpt lat="44.2997869" lon="15.8601756"><ele>557.3333333333333</ele><time>2026-04-27T15:40:39.328Z</time></trkpt><trkpt lat="44.2998083" lon="15.8600904"><ele>557.5</ele><time>2026-04-27T15:40:40.328Z</time></trkpt><trkpt lat="44.2998187" lon="15.8599944"><ele>557.6666666666666</ele><time>2026-04-27T15:40:41.328Z</time></trkpt><trkpt lat="44.2998233" lon="15.8598831"><ele>557.8333333333334</ele><time>2026-04-27T15:40:42.328Z</time></trkpt><trkpt lat="44.2998368" lon="15.8597571"><ele>558.0</ele><time>2026-04-27T15:40:43.328Z</time></trkpt><trkpt lat="44.299867" lon="15.8596211"><ele>558.25</ele><time>2026-04-27T15:40:44.328Z</time></trkpt><trkpt lat="44.2999063" lon="15.8594694"><ele>558.5</ele><time>2026-04-27T15:40:45.329Z</time></trkpt><trkpt lat="44.2999521" lon="15.8593047"><ele>558.75</ele><time>2026-04-27T15:40:46.329Z</time></trkpt><trkpt lat="44.3000003" lon="15.8591315"><ele>559.0</ele><time>2026-04-27T15:40:47.329Z</time></trkpt><trkpt lat="44.3000528" lon="15.8589466"><ele>559.0</ele><time>2026-04-27T15:40:48.328Z</time></trkpt><trkpt lat="44.3001083" lon="15.8587563"><ele>559.0</ele><time>2026-04-27T15:40:49.328Z</time></trkpt><trkpt lat="44.3001601" lon="15.8585585"><ele>559.0</ele><time>2026-04-27T15:40:50.328Z</time></trkpt><trkpt lat="44.3002117" lon="15.858361"><ele>559.0</ele><time>2026-04-27T15:40:51.329Z</time></trkpt><trkpt lat="44.3002623" lon="15.8581598"><ele>559.6666666666667</ele><time>2026-04-27T15:40:52.328Z</time></trkpt><trkpt lat="44.3003108" lon="15.8579597"><ele>560.3333333333334</ele><time>2026-04-27T15:40:53.328Z</time></trkpt><trkpt lat="44.3003607" lon="15.8577531"><ele>561.0</ele><time>2026-04-27T15:40:54.329Z</time></trkpt><trkpt lat="44.3004117" lon="15.8575507"><ele>561.0</ele><time>2026-04-27T15:40:55.328Z</time></trkpt><trkpt lat="44.3004564" lon="15.8573576"><ele>561.0</ele><time>2026-04-27T15:40:56.328Z</time></trkpt><trkpt lat="44.3004995" lon="15.8571649"><ele>561.0</ele><time>2026-04-27T15:40:57.329Z</time></trkpt><trkpt lat="44.3005396" lon="15.8567879"><ele>561.0</ele><time>2026-04-27T15:40:59.328Z</time></trkpt><trkpt lat="44.3005466" lon="15.8566081"><ele>561.0</ele><time>2026-04-27T15:41:00.328Z</time></trkpt><trkpt lat="44.3005555" lon="15.8564368"><ele>561.0</ele><time>2026-04-27T15:41:01.328Z</time></trkpt><trkpt lat="44.3005583" lon="15.8562631"><ele>561.0</ele><time>2026-04-27T15:41:02.328Z</time></trkpt><trkpt lat="44.3005552" lon="15.8560985"><ele>560.25</ele><time>2026-04-27T15:41:03.328Z</time></trkpt><trkpt lat="44.3005616" lon="15.855925"><ele>559.5</ele><time>2026-04-27T15:41:04.328Z</time></trkpt><trkpt lat="44.3005725" lon="15.8557601"><ele>558.75</ele><time>2026-04-27T15:41:05.328Z</time></trkpt><trkpt lat="44.3005867" lon="15.8555904"><ele>558.0</ele><time>2026-04-27T15:41:06.328Z</time></trkpt><trkpt lat="44.3005947" lon="15.8554218"><ele>558.0</ele><time>2026-04-27T15:41:07.328Z</time></trkpt><trkpt lat="44.3006079" lon="15.8552548"><ele>558.0</ele><time>2026-04-27T15:41:08.328Z</time></trkpt><trkpt lat="44.3006134" lon="15.8550913"><ele>558.0</ele><time>2026-04-27T15:41:09.329Z</time></trkpt><trkpt lat="44.3006147" lon="15.8549338"><ele>558.0</ele><time>2026-04-27T15:41:10.328Z</time></trkpt><trkpt lat="44.300612" lon="15.8547936"><ele>558.4</ele><time>2026-04-27T15:41:11.328Z</time></trkpt><trkpt lat="44.3006071" lon="15.85467"><ele>558.8</ele><time>2026-04-27T15:41:12.328Z</time></trkpt><trkpt lat="44.3006056" lon="15.8545579"><ele>559.2</ele><time>2026-04-27T15:41:13.328Z</time></trkpt><trkpt lat="44.3006039" lon="15.8544254"><ele>559.6</ele><time>2026-04-27T15:41:15.328Z</time></trkpt><trkpt lat="44.3005141" lon="15.8544321"><ele>560.0</ele><time>2026-04-27T15:46:18.328Z</time></trkpt><trkpt lat="44.3004984" lon="15.8542846"><ele>559.2</ele><time>2026-04-27T15:46:20.328Z</time></trkpt><trkpt lat="44.3004894" lon="15.8541738"><ele>558.4</ele><time>2026-04-27T15:46:21.328Z</time></trkpt><trkpt lat="44.3004679" lon="15.8540206"><ele>557.6</ele><time>2026-04-27T15:46:22.329Z</time></trkpt><trkpt lat="44.3004518" lon="15.8538628"><ele>556.8</ele><time>2026-04-27T15:46:23.329Z</time></trkpt><trkpt lat="44.300439" lon="15.8537232"><ele>556.0</ele><time>2026-04-27T15:46:24.328Z</time></trkpt><trkpt lat="44.3004307" lon="15.853571"><ele>555.8</ele><time>2026-04-27T15:46:25.328Z</time></trkpt><trkpt lat="44.3004225" lon="15.8534395"><ele>555.6</ele><time>2026-04-27T15:46:26.328Z</time></trkpt><trkpt lat="44.3004034" lon="15.8532961"><ele>555.4</ele><time>2026-04-27T15:46:27.328Z</time></trkpt><trkpt lat="44.3003889" lon="15.8531594"><ele>555.2</ele><time>2026-04-27T15:46:28.329Z</time></trkpt><trkpt lat="44.3003774" lon="15.8530155"><ele>555.0</ele><time>2026-04-27T15:46:29.329Z</time></trkpt><trkpt lat="44.3003595" lon="15.8528705"><ele>555.0</ele><time>2026-04-27T15:46:30.329Z</time></trkpt><trkpt lat="44.300344" lon="15.8527209"><ele>555.0</ele><time>2026-04-27T15:46:31.329Z</time></trkpt><trkpt lat="44.3003242" lon="15.8524219"><ele>555.0</ele><time>2026-04-27T15:46:33.328Z</time></trkpt><trkpt lat="44.300308" lon="15.8522582"><ele>555.0</ele><time>2026-04-27T15:46:34.328Z</time></trkpt><trkpt lat="44.3002944" lon="15.8521055"><ele>555.0</ele><time>2026-04-27T15:46:35.328Z</time></trkpt><trkpt lat="44.3002766" lon="15.851941"><ele>555.0</ele><time>2026-04-27T15:46:36.328Z</time></trkpt><trkpt lat="44.3002565" lon="15.8517752"><ele>555.0</ele><time>2026-04-27T15:46:37.328Z</time></trkpt><trkpt lat="44.3002384" lon="15.8516006"><ele>555.0</ele><time>2026-04-27T15:46:38.328Z</time></trkpt><trkpt lat="44.3002194" lon="15.8514321"><ele>555.0</ele><time>2026-04-27T15:46:39.328Z</time></trkpt><trkpt lat="44.3002029" lon="15.8512691"><ele>555.0</ele><time>2026-04-27T15:46:40.328Z</time></trkpt><trkpt lat="44.300187" lon="15.851105"><ele>555.0</ele><time>2026-04-27T15:46:41.328Z</time></trkpt><trkpt lat="44.3001694" lon="15.8509546"><ele>555.0</ele><time>2026-04-27T15:46:42.328Z</time></trkpt><trkpt lat="44.3001517" lon="15.8507962"><ele>554.5</ele><time>2026-04-27T15:46:43.328Z</time></trkpt><trkpt lat="44.3001231" lon="15.850634"><ele>554.0</ele><time>2026-04-27T15:46:44.329Z</time></trkpt><trkpt lat="44.3000775" lon="15.8504802"><ele>553.5</ele><time>2026-04-27T15:46:45.329Z</time></trkpt><trkpt lat="44.3000159" lon="15.8503495"><ele>553.0</ele><time>2026-04-27T15:46:46.328Z</time></trkpt><trkpt lat="44.2999373" lon="15.850234"><ele>553.0</ele><time>2026-04-27T15:46:47.328Z</time></trkpt><trkpt lat="44.2998443" lon="15.850129"><ele>553.0</ele><time>2026-04-27T15:46:48.328Z</time></trkpt><trkpt lat="44.2997424" lon="15.8500224"><ele>553.0</ele><time>2026-04-27T15:46:49.329Z</time></trkpt><trkpt lat="44.2996367" lon="15.8499088"><ele>553.0</ele><time>2026-04-27T15:46:50.329Z</time></trkpt><trkpt lat="44.2995419" lon="15.849774"><ele>554.0</ele><time>2026-04-27T15:46:51.328Z</time></trkpt><trkpt lat="44.2994561" lon="15.8496273"><ele>555.0</ele><time>2026-04-27T15:46:52.328Z</time></trkpt><trkpt lat="44.2993774" lon="15.8494661"><ele>556.0</ele><time>2026-04-27T15:46:53.328Z</time></trkpt><trkpt lat="44.2993076" lon="15.8493025"><ele>557.0</ele><time>2026-04-27T15:46:54.328Z</time></trkpt><trkpt lat="44.2992475" lon="15.8491519"><ele>557.25</ele><time>2026-04-27T15:46:55.328Z</time></trkpt><trkpt lat="44.2991868" lon="15.8489967"><ele>557.5</ele><time>2026-04-27T15:46:56.328Z</time></trkpt><trkpt lat="44.2991414" lon="15.8488436"><ele>557.75</ele><time>2026-04-27T15:46:57.329Z</time></trkpt><trkpt lat="44.2991007" lon="15.8486899"><ele>558.0</ele><time>2026-04-27T15:46:58.328Z</time></trkpt><trkpt lat="44.2990576" lon="15.8485377"><ele>558.1999999999999</ele><time>2026-04-27T15:46:59.329Z</time></trkpt><trkpt lat="44.2990219" lon="15.848396"><ele>558.4</ele><time>2026-04-27T15:47:00.328Z</time></trkpt><trkpt lat="44.2989903" lon="15.8482468"><ele>558.5999999999999</ele><time>2026-04-27T15:47:01.329Z</time></trkpt><trkpt lat="44.2989677" lon="15.84809"><ele>558.8</ele><time>2026-04-27T15:47:02.329Z</time></trkpt><trkpt lat="44.298955" lon="15.8479335"><ele>559.0</ele><time>2026-04-27T15:47:03.328Z</time></trkpt><trkpt lat="44.298939" lon="15.8477621"><ele>559.5</ele><time>2026-04-27T15:47:04.329Z</time></trkpt><trkpt lat="44.2989388" lon="15.8475865"><ele>560.0</ele><time>2026-04-27T15:47:05.329Z</time></trkpt><trkpt lat="44.2989458" lon="15.8474044"><ele>560.5</ele><time>2026-04-27T15:47:06.328Z</time></trkpt><trkpt lat="44.2989503" lon="15.8472203"><ele>561.0</ele><time>2026-04-27T15:47:07.328Z</time></trkpt><trkpt lat="44.2989497" lon="15.8470261"><ele>561.0</ele><time>2026-04-27T15:47:08.329Z</time></trkpt><trkpt lat="44.2989525" lon="15.8468306"><ele>561.0</ele><time>2026-04-27T15:47:09.328Z</time></trkpt><trkpt lat="44.2989572" lon="15.8466381"><ele>561.0</ele><time>2026-04-27T15:47:10.329Z</time></trkpt><trkpt lat="44.2989619" lon="15.8464643"><ele>561.0</ele><time>2026-04-27T15:47:11.328Z</time></trkpt><trkpt lat="44.2989664" lon="15.8462889"><ele>560.25</ele><time>2026-04-27T15:47:12.328Z</time></trkpt><trkpt lat="44.2989645" lon="15.846124"><ele>559.5</ele><time>2026-04-27T15:47:13.329Z</time></trkpt><trkpt lat="44.2989612" lon="15.8459588"><ele>558.75</ele><time>2026-04-27T15:47:14.329Z</time></trkpt><trkpt lat="44.2989513" lon="15.8457904"><ele>558.0</ele><time>2026-04-27T15:47:15.328Z</time></trkpt><trkpt lat="44.2989317" lon="15.8454515"><ele>558.0</ele><time>2026-04-27T15:47:17.328Z</time></trkpt><trkpt lat="44.2988991" lon="15.8451343"><ele>558.0</ele><time>2026-04-27T15:47:19.328Z</time></trkpt><trkpt lat="44.2988822" lon="15.8449878"><ele>558.0</ele><time>2026-04-27T15:47:20.328Z</time></trkpt><trkpt lat="44.2988683" lon="15.8448452"><ele>558.0</ele><time>2026-04-27T15:47:21.328Z</time></trkpt><trkpt lat="44.2988494" lon="15.8447107"><ele>557.8333333333334</ele><time>2026-04-27T15:47:22.328Z</time></trkpt><trkpt lat="44.2988306" lon="15.8445854"><ele>557.6666666666666</ele><time>2026-04-27T15:47:23.328Z</time></trkpt><trkpt lat="44.2988122" lon="15.8444607"><ele>557.5</ele><time>2026-04-27T15:47:24.328Z</time></trkpt><trkpt lat="44.2987832" lon="15.8443496"><ele>557.3333333333333</ele><time>2026-04-27T15:47:25.329Z</time></trkpt><trkpt lat="44.2987492" lon="15.8442605"><ele>557.1666666666666</ele><time>2026-04-27T15:47:26.328Z</time></trkpt><trkpt lat="44.2987104" lon="15.8441836"><ele>557.0</ele><time>2026-04-27T15:47:27.328Z</time></trkpt><trkpt lat="44.2986637" lon="15.8441047"><ele>556.1666666666666</ele><time>2026-04-27T15:47:28.328Z</time></trkpt><trkpt lat="44.2986147" lon="15.8440324"><ele>555.3333333333333</ele><time>2026-04-27T15:47:29.329Z</time></trkpt><trkpt lat="44.2985619" lon="15.843965"><ele>554.5</ele><time>2026-04-27T15:47:30.329Z</time></trkpt><trkpt lat="44.2984734" lon="15.8438765"><ele>553.6666666666666</ele><time>2026-04-27T15:47:32.328Z</time></trkpt><trkpt lat="44.2983858" lon="15.8438307"><ele>552.8333333333334</ele><time>2026-04-27T15:47:34.329Z</time></trkpt><trkpt lat="44.2983178" lon="15.8437991"><ele>552.0</ele><time>2026-04-27T15:47:35.328Z</time></trkpt><trkpt lat="44.2982403" lon="15.8437726"><ele>552.0</ele><time>2026-04-27T15:47:36.328Z</time></trkpt><trkpt lat="44.2981533" lon="15.8437575"><ele>552.0</ele><time>2026-04-27T15:47:37.328Z</time></trkpt><trkpt lat="44.2980566" lon="15.8437494"><ele>552.0</ele><time>2026-04-27T15:47:38.329Z</time></trkpt><trkpt lat="44.2979524" lon="15.8437515"><ele>552.0</ele><time>2026-04-27T15:47:39.328Z</time></trkpt><trkpt lat="44.2978428" lon="15.8437501"><ele>552.0</ele><time>2026-04-27T15:47:40.328Z</time></trkpt><trkpt lat="44.2977282" lon="15.8437553"><ele>552.5</ele><time>2026-04-27T15:47:41.328Z</time></trkpt><trkpt lat="44.2976085" lon="15.843752"><ele>553.0</ele><time>2026-04-27T15:47:42.329Z</time></trkpt><trkpt lat="44.2974904" lon="15.8437639"><ele>553.5</ele><time>2026-04-27T15:47:43.328Z</time></trkpt><trkpt lat="44.297367" lon="15.8437672"><ele>554.0</ele><time>2026-04-27T15:47:44.328Z</time></trkpt><trkpt lat="44.2972397" lon="15.8437736"><ele>553.0</ele><time>2026-04-27T15:47:45.328Z</time></trkpt><trkpt lat="44.2971121" lon="15.8437783"><ele>552.0</ele><time>2026-04-27T15:47:46.329Z</time></trkpt><trkpt lat="44.296995" lon="15.8437924"><ele>551.0</ele><time>2026-04-27T15:47:47.328Z</time></trkpt><trkpt lat="44.2968797" lon="15.843796"><ele>550.0</ele><time>2026-04-27T15:47:48.328Z</time></trkpt><trkpt lat="44.2967751" lon="15.8438077"><ele>550.0</ele><time>2026-04-27T15:47:49.329Z</time></trkpt><trkpt lat="44.2966807" lon="15.8438145"><ele>550.0</ele><time>2026-04-27T15:47:50.328Z</time></trkpt><trkpt lat="44.2965936" lon="15.8438154"><ele>550.0</ele><time>2026-04-27T15:47:51.328Z</time></trkpt><trkpt lat="44.2965095" lon="15.8438202"><ele>550.0</ele><time>2026-04-27T15:47:52.328Z</time></trkpt><trkpt lat="44.2964149" lon="15.8438213"><ele>550.0</ele><time>2026-04-27T15:47:53.328Z</time></trkpt><trkpt lat="44.2962177" lon="15.8438248"><ele>549.8333333333334</ele><time>2026-04-27T15:47:55.328Z</time></trkpt><trkpt lat="44.2961177" lon="15.843822"><ele>549.6666666666667</ele><time>2026-04-27T15:47:56.328Z</time></trkpt><trkpt lat="44.2960275" lon="15.8438184"><ele>549.5</ele><time>2026-04-27T15:47:57.328Z</time></trkpt><trkpt lat="44.2959423" lon="15.84381"><ele>549.3333333333334</ele><time>2026-04-27T15:47:58.328Z</time></trkpt><trkpt lat="44.2958657" lon="15.8438062"><ele>549.1666666666666</ele><time>2026-04-27T15:47:59.329Z</time></trkpt><trkpt lat="44.295791" lon="15.8438049"><ele>549.0</ele><time>2026-04-27T15:48:00.328Z</time></trkpt><trkpt lat="44.2957259" lon="15.8437975"><ele>549.0</ele><time>2026-04-27T15:48:01.329Z</time></trkpt><trkpt lat="44.2955868" lon="15.8437253"><ele>549.0</ele><time>2026-04-27T15:48:04.328Z</time></trkpt><trkpt lat="44.295553" lon="15.8435754"><ele>549.0</ele><time>2026-04-27T15:48:06.328Z</time></trkpt><trkpt lat="44.295547" lon="15.8434835"><ele>549.0</ele><time>2026-04-27T15:48:07.329Z</time></trkpt><trkpt lat="44.2955387" lon="15.8433833"><ele>549.0</ele><time>2026-04-27T15:48:08.328Z</time></trkpt><trkpt lat="44.2955283" lon="15.8432758"><ele>549.0</ele><time>2026-04-27T15:48:09.328Z</time></trkpt><trkpt lat="44.295522" lon="15.8431843"><ele>549.0</ele><time>2026-04-27T15:48:10.328Z</time></trkpt><trkpt lat="44.2955134" lon="15.8430911"><ele>549.0</ele><time>2026-04-27T15:48:11.328Z</time></trkpt><trkpt lat="44.2955101" lon="15.8429272"><ele>549.0</ele><time>2026-04-27T15:48:13.329Z</time></trkpt><trkpt lat="44.295496" lon="15.8427853"><ele>549.0</ele><time>2026-04-27T15:48:15.329Z</time></trkpt><trkpt lat="44.2954818" lon="15.8426145"><ele>549.0</ele><time>2026-04-27T15:48:17.328Z</time></trkpt><trkpt lat="44.2954733" lon="15.842514"><ele>549.0</ele><time>2026-04-27T15:48:18.328Z</time></trkpt><trkpt lat="44.2954652" lon="15.8424143"><ele>549.0</ele><time>2026-04-27T15:48:19.328Z</time></trkpt><trkpt lat="44.295455" lon="15.8423046"><ele>549.0</ele><time>2026-04-27T15:48:20.328Z</time></trkpt><trkpt lat="44.2954424" lon="15.8422005"><ele>549.0</ele><time>2026-04-27T15:48:21.329Z</time></trkpt><trkpt lat="44.2954317" lon="15.842101"><ele>549.0</ele><time>2026-04-27T15:48:22.328Z</time></trkpt><trkpt lat="44.2954181" lon="15.8419995"><ele>549.0</ele><time>2026-04-27T15:48:23.328Z</time></trkpt><trkpt lat="44.295411" lon="15.8419067"><ele>549.0</ele><time>2026-04-27T15:48:24.328Z</time></trkpt><trkpt lat="44.2953921" lon="15.8417524"><ele>546.0</ele><time>2026-04-27T15:48:26.328Z</time></trkpt><trkpt lat="44.2953898" lon="15.84164"><ele>546.0</ele><time>2026-04-27T15:48:28.328Z</time></trkpt><trkpt lat="44.2954273" lon="15.84154"><ele>546.0</ele><time>2026-04-27T15:48:31.329Z</time></trkpt><trkpt lat="44.2954934" lon="15.8415059"><ele>546.0</ele><time>2026-04-27T15:48:34.328Z</time></trkpt></trkseg></trk></gpx>